<?xml version='1.0' encoding='UTF-8'?><gpx version="1.1" creator="JPX - https://github.com/jenetics/jpx" xmlns="http://www.topografix.com/GPX/1/1"><trk><trkseg><trkpt lat="42.500981" lon="14.1762227"><ele>3.0</ele><time>2026-05-01T06:34:23.329Z</time></trkpt><trkpt lat="42.5010445" lon="14.1763189"><ele>3.0</ele><time>2026-05-01T06:34:24.326Z</time></trkpt><trkpt lat="42.5011837" lon="14.1762276"><ele>3.0</ele><time>2026-05-01T06:34:26.325Z</time></trkpt><trkpt lat="42.5013521" lon="14.1761854"><ele>3.0</ele><time>2026-05-01T06:34:27.324Z</time></trkpt><trkpt lat="42.5014226" lon="14.1760289"><ele>3.5</ele><time>2026-05-01T06:34:28.33Z</time></trkpt><trkpt lat="42.5014692" lon="14.1758561"><ele>4.0</ele><time>2026-05-01T06:34:29.329Z</time></trkpt><trkpt lat="42.5015788" lon="14.1758692"><ele>4.5</ele><time>2026-05-01T06:34:30.329Z</time></trkpt><trkpt lat="42.5016444" lon="14.1758786"><ele>5.0</ele><time>2026-05-01T06:34:31.328Z</time></trkpt><trkpt lat="42.5017546" lon="14.1757627"><ele>5.0</ele><time>2026-05-01T06:34:32.326Z</time></trkpt><trkpt lat="42.5018619" lon="14.1756472"><ele>5.0</ele><time>2026-05-01T06:34:33.329Z</time></trkpt><trkpt lat="42.5019627" lon="14.175683"><ele>5.0</ele><time>2026-05-01T06:34:34.33Z</time></trkpt><trkpt lat="42.5019805" lon="14.1755314"><ele>5.0</ele><time>2026-05-01T06:34:35.335Z</time></trkpt><trkpt lat="42.5020656" lon="14.17542"><ele>5.0</ele><time>2026-05-01T06:34:36.329Z</time></trkpt><trkpt lat="42.5021219" lon="14.1754824"><ele>5.0</ele><time>2026-05-01T06:34:37.328Z</time></trkpt><trkpt lat="42.5022805" lon="14.1753253"><ele>5.0</ele><time>2026-05-01T06:34:38.33Z</time></trkpt><trkpt lat="42.5024298" lon="14.1752332"><ele>5.0</ele><time>2026-05-01T06:34:39.326Z</time></trkpt><trkpt lat="42.502582" lon="14.1750189"><ele>5.0</ele><time>2026-05-01T06:34:41.328Z</time></trkpt><trkpt lat="42.5027618" lon="14.174967"><ele>5.0</ele><time>2026-05-01T06:34:43.345Z</time></trkpt><trkpt lat="42.5028133" lon="14.1748376"><ele>5.0</ele><time>2026-05-01T06:34:45.358Z</time></trkpt><trkpt lat="42.5028561" lon="14.174728"><ele>5.0</ele><time>2026-05-01T06:34:47.355Z</time></trkpt><trkpt lat="42.5028298" lon="14.1746405"><ele>4.8</ele><time>2026-05-01T06:34:49.341Z</time></trkpt><trkpt lat="42.5028352" lon="14.1744858"><ele>4.6</ele><time>2026-05-01T06:34:51.361Z</time></trkpt><trkpt lat="42.5028732" lon="14.1743941"><ele>4.4</ele><time>2026-05-01T06:34:53.349Z</time></trkpt><trkpt lat="42.5029684" lon="14.1742578"><ele>4.2</ele><time>2026-05-01T06:34:55.349Z</time></trkpt><trkpt lat="42.5030362" lon="14.1741913"><ele>4.0</ele><time>2026-05-01T06:34:56.354Z</time></trkpt><trkpt lat="42.5031132" lon="14.1741259"><ele>4.0</ele><time>2026-05-01T06:34:57.338Z</time></trkpt><trkpt lat="42.5031891" lon="14.1740644"><ele>4.0</ele><time>2026-05-01T06:34:58.368Z</time></trkpt><trkpt lat="42.5032616" lon="14.1739998"><ele>4.0</ele><time>2026-05-01T06:34:59.346Z</time></trkpt><trkpt lat="42.5033395" lon="14.1739191"><ele>4.0</ele><time>2026-05-01T06:35:00.367Z</time></trkpt><trkpt lat="42.5034262" lon="14.1738344"><ele>4.0</ele><time>2026-05-01T06:35:01.345Z</time></trkpt><trkpt lat="42.5035161" lon="14.1737608"><ele>4.0</ele><time>2026-05-01T06:35:02.345Z</time></trkpt><trkpt lat="42.5036046" lon="14.1736798"><ele>4.0</ele><time>2026-05-01T06:35:03.36Z</time></trkpt><trkpt lat="42.5036978" lon="14.1735916"><ele>4.0</ele><time>2026-05-01T06:35:04.367Z</time></trkpt><trkpt lat="42.5037807" lon="14.1735071"><ele>4.0</ele><time>2026-05-01T06:35:05.346Z</time></trkpt><trkpt lat="42.5038864" lon="14.173402"><ele>4.2</ele><time>2026-05-01T06:35:06.338Z</time></trkpt><trkpt lat="42.503972" lon="14.1733293"><ele>4.4</ele><time>2026-05-01T06:35:07.361Z</time></trkpt><trkpt lat="42.5040657" lon="14.1732488"><ele>4.6</ele><time>2026-05-01T06:35:08.361Z</time></trkpt><trkpt lat="42.5041592" lon="14.1731734"><ele>4.8</ele><time>2026-05-01T06:35:09.367Z</time></trkpt><trkpt lat="42.5042501" lon="14.173091"><ele>5.0</ele><time>2026-05-01T06:35:10.358Z</time></trkpt><trkpt lat="42.5043243" lon="14.1730159"><ele>4.8</ele><time>2026-05-01T06:35:11.366Z</time></trkpt><trkpt lat="42.504389" lon="14.1729505"><ele>4.6</ele><time>2026-05-01T06:35:12.337Z</time></trkpt><trkpt lat="42.5044633" lon="14.1728875"><ele>4.4</ele><time>2026-05-01T06:35:13.339Z</time></trkpt><trkpt lat="42.5045455" lon="14.1728284"><ele>4.2</ele><time>2026-05-01T06:35:14.349Z</time></trkpt><trkpt lat="42.504669" lon="14.172746"><ele>4.0</ele><time>2026-05-01T06:35:15.332Z</time></trkpt><trkpt lat="42.5047668" lon="14.1726682"><ele>4.0</ele><time>2026-05-01T06:35:16.364Z</time></trkpt><trkpt lat="42.5048619" lon="14.1725842"><ele>4.0</ele><time>2026-05-01T06:35:17.356Z</time></trkpt><trkpt lat="42.5049462" lon="14.172503"><ele>4.0</ele><time>2026-05-01T06:35:18.367Z</time></trkpt><trkpt lat="42.5050206" lon="14.1724307"><ele>4.0</ele><time>2026-05-01T06:35:19.362Z</time></trkpt><trkpt lat="42.5050753" lon="14.1723669"><ele>4.0</ele><time>2026-05-01T06:35:20.341Z</time></trkpt><trkpt lat="42.505132" lon="14.1723109"><ele>4.0</ele><time>2026-05-01T06:35:21.337Z</time></trkpt><trkpt lat="42.5052324" lon="14.1722234"><ele>4.0</ele><time>2026-05-01T06:35:23.367Z</time></trkpt><trkpt lat="42.5052889" lon="14.172163"><ele>4.0</ele><time>2026-05-01T06:35:25.359Z</time></trkpt><trkpt lat="42.5054135" lon="14.1722294"><ele>4.0</ele><time>2026-05-01T06:35:31.342Z</time></trkpt><trkpt lat="42.5054914" lon="14.1723739"><ele>3.9999999999999996</ele><time>2026-05-01T06:35:33.363Z</time></trkpt><trkpt lat="42.5055309" lon="14.172442"><ele>4.0</ele><time>2026-05-01T06:35:34.338Z</time></trkpt><trkpt lat="42.5055772" lon="14.1725622"><ele>4.0</ele><time>2026-05-01T06:35:36.36Z</time></trkpt><trkpt lat="42.5056088" lon="14.1726449"><ele>4.0</ele><time>2026-05-01T06:35:38.365Z</time></trkpt><trkpt lat="42.5056381" lon="14.1727266"><ele>3.9999999999999996</ele><time>2026-05-01T06:35:42.372Z</time></trkpt><trkpt lat="42.5057064" lon="14.1727594"><ele>4.0</ele><time>2026-05-01T06:35:45.363Z</time></trkpt><trkpt lat="42.5058178" lon="14.1727111"><ele>4.0</ele><time>2026-05-01T06:35:47.366Z</time></trkpt><trkpt lat="42.5058945" lon="14.1726506"><ele>4.0</ele><time>2026-05-01T06:35:48.368Z</time></trkpt><trkpt lat="42.5059804" lon="14.172563"><ele>4.0</ele><time>2026-05-01T06:35:49.368Z</time></trkpt><trkpt lat="42.506078" lon="14.1724604"><ele>4.0</ele><time>2026-05-01T06:35:50.368Z</time></trkpt><trkpt lat="42.5061847" lon="14.1723681"><ele>4.0</ele><time>2026-05-01T06:35:51.39Z</time></trkpt><trkpt lat="42.5063249" lon="14.1722534"><ele>5.0</ele><time>2026-05-01T06:35:52.391Z</time></trkpt><trkpt lat="42.5064689" lon="14.1721343"><ele>6.0</ele><time>2026-05-01T06:35:53.393Z</time></trkpt><trkpt lat="42.5066264" lon="14.1720085"><ele>7.0</ele><time>2026-05-01T06:35:54.393Z</time></trkpt><trkpt lat="42.5067954" lon="14.1718831"><ele>7.0</ele><time>2026-05-01T06:35:55.398Z</time></trkpt><trkpt lat="42.506966" lon="14.1717607"><ele>7.0</ele><time>2026-05-01T06:35:56.397Z</time></trkpt><trkpt lat="42.5071605" lon="14.1716084"><ele>7.0</ele><time>2026-05-01T06:35:57.39Z</time></trkpt><trkpt lat="42.50735" lon="14.1714805"><ele>7.0</ele><time>2026-05-01T06:35:58.395Z</time></trkpt><trkpt lat="42.5075332" lon="14.1713467"><ele>7.0</ele><time>2026-05-01T06:35:59.394Z</time></trkpt><trkpt lat="42.5078208" lon="14.1711764"><ele>5.333333333333334</ele><time>2026-05-01T06:36:00.397Z</time></trkpt><trkpt lat="42.5079709" lon="14.1710412"><ele>3.666666666666667</ele><time>2026-05-01T06:36:01.403Z</time></trkpt><trkpt lat="42.5080767" lon="14.170924"><ele>2.0</ele><time>2026-05-01T06:36:02.398Z</time></trkpt><trkpt lat="42.5081914" lon="14.1708317"><ele>2.0</ele><time>2026-05-01T06:36:03.397Z</time></trkpt><trkpt lat="42.5083006" lon="14.1707342"><ele>2.0</ele><time>2026-05-01T06:36:04.4Z</time></trkpt><trkpt lat="42.5084014" lon="14.1706343"><ele>2.0</ele><time>2026-05-01T06:36:05.398Z</time></trkpt><trkpt lat="42.5085073" lon="14.1705361"><ele>2.0</ele><time>2026-05-01T06:36:06.395Z</time></trkpt><trkpt lat="42.5086018" lon="14.1704738"><ele>1.6666666666666665</ele><time>2026-05-01T06:36:07.504Z</time></trkpt><trkpt lat="42.508775" lon="14.1702995"><ele>1.3333333333333333</ele><time>2026-05-01T06:36:09.411Z</time></trkpt><trkpt lat="42.5088845" lon="14.1702065"><ele>1.0</ele><time>2026-05-01T06:36:10.408Z</time></trkpt><trkpt lat="42.5089945" lon="14.1701139"><ele>1.0</ele><time>2026-05-01T06:36:11.408Z</time></trkpt><trkpt lat="42.5091048" lon="14.1700169"><ele>1.0</ele><time>2026-05-01T06:36:12.41Z</time></trkpt><trkpt lat="42.5092214" lon="14.1699146"><ele>1.0</ele><time>2026-05-01T06:36:13.41Z</time></trkpt><trkpt lat="42.5093525" lon="14.16981"><ele>1.0</ele><time>2026-05-01T06:36:14.408Z</time></trkpt><trkpt lat="42.509475" lon="14.1696929"><ele>0.75</ele><time>2026-05-01T06:36:15.407Z</time></trkpt><trkpt lat="42.5096071" lon="14.1695817"><ele>0.5</ele><time>2026-05-01T06:36:16.409Z</time></trkpt><trkpt lat="42.5097332" lon="14.1694582"><ele>0.25</ele><time>2026-05-01T06:36:17.408Z</time></trkpt><trkpt lat="42.5098478" lon="14.1693529"><ele>0.0</ele><time>2026-05-01T06:36:18.408Z</time></trkpt><trkpt lat="42.5099263" lon="14.1692673"><ele>0.0</ele><time>2026-05-01T06:36:19.405Z</time></trkpt><trkpt lat="42.5100143" lon="14.1691852"><ele>0.0</ele><time>2026-05-01T06:36:20.405Z</time></trkpt><trkpt lat="42.5101131" lon="14.1690991"><ele>0.0</ele><time>2026-05-01T06:36:21.409Z</time></trkpt><trkpt lat="42.5102265" lon="14.1689926"><ele>0.0</ele><time>2026-05-01T06:36:22.411Z</time></trkpt><trkpt lat="42.5103371" lon="14.1688655"><ele>0.5</ele><time>2026-05-01T06:36:23.407Z</time></trkpt><trkpt lat="42.5104356" lon="14.1687457"><ele>1.0</ele><time>2026-05-01T06:36:24.406Z</time></trkpt><trkpt lat="42.5105433" lon="14.1686267"><ele>1.5</ele><time>2026-05-01T06:36:25.415Z</time></trkpt><trkpt lat="42.5106586" lon="14.1685113"><ele>2.0</ele><time>2026-05-01T06:36:26.41Z</time></trkpt><trkpt lat="42.5107651" lon="14.1684014"><ele>2.0</ele><time>2026-05-01T06:36:27.411Z</time></trkpt><trkpt lat="42.5108589" lon="14.1683032"><ele>2.0</ele><time>2026-05-01T06:36:28.413Z</time></trkpt><trkpt lat="42.5109439" lon="14.1682296"><ele>2.0</ele><time>2026-05-01T06:36:29.417Z</time></trkpt><trkpt lat="42.511027" lon="14.168126"><ele>2.0</ele><time>2026-05-01T06:36:30.415Z</time></trkpt><trkpt lat="42.5111146" lon="14.1680312"><ele>2.0</ele><time>2026-05-01T06:36:31.414Z</time></trkpt><trkpt lat="42.5112021" lon="14.1679531"><ele>1.6</ele><time>2026-05-01T06:36:32.416Z</time></trkpt><trkpt lat="42.5112813" lon="14.1678589"><ele>1.2000000000000002</ele><time>2026-05-01T06:36:33.413Z</time></trkpt><trkpt lat="42.5113588" lon="14.1677675"><ele>0.8</ele><time>2026-05-01T06:36:34.411Z</time></trkpt><trkpt lat="42.5114419" lon="14.1676813"><ele>0.4</ele><time>2026-05-01T06:36:35.411Z</time></trkpt><trkpt lat="42.5115251" lon="14.1675872"><ele>0.0</ele><time>2026-05-01T06:36:36.41Z</time></trkpt><trkpt lat="42.5116104" lon="14.1674925"><ele>0.0</ele><time>2026-05-01T06:36:37.414Z</time></trkpt><trkpt lat="42.5117" lon="14.1674007"><ele>0.0</ele><time>2026-05-01T06:36:38.411Z</time></trkpt><trkpt lat="42.5117911" lon="14.1673048"><ele>0.0</ele><time>2026-05-01T06:36:39.422Z</time></trkpt><trkpt lat="42.5118826" lon="14.1672096"><ele>0.0</ele><time>2026-05-01T06:36:40.432Z</time></trkpt><trkpt lat="42.5119728" lon="14.1671084"><ele>0.4</ele><time>2026-05-01T06:36:41.418Z</time></trkpt><trkpt lat="42.5120631" lon="14.1670146"><ele>0.8</ele><time>2026-05-01T06:36:42.421Z</time></trkpt><trkpt lat="42.512144" lon="14.1669339"><ele>1.2000000000000002</ele><time>2026-05-01T06:36:43.398Z</time></trkpt><trkpt lat="42.5122218" lon="14.1668509"><ele>1.6</ele><time>2026-05-01T06:36:44.409Z</time></trkpt><trkpt lat="42.5123038" lon="14.1667577"><ele>2.0</ele><time>2026-05-01T06:36:45.422Z</time></trkpt><trkpt lat="42.5123856" lon="14.1666644"><ele>2.0</ele><time>2026-05-01T06:36:46.426Z</time></trkpt><trkpt lat="42.5124729" lon="14.166573"><ele>2.0</ele><time>2026-05-01T06:36:47.417Z</time></trkpt><trkpt lat="42.5125559" lon="14.1664846"><ele>2.0</ele><time>2026-05-01T06:36:48.418Z</time></trkpt><trkpt lat="42.5126247" lon="14.1664093"><ele>2.0</ele><time>2026-05-01T06:36:49.422Z</time></trkpt><trkpt lat="42.5126807" lon="14.166358"><ele>2.0</ele><time>2026-05-01T06:36:50.417Z</time></trkpt><trkpt lat="42.5127619" lon="14.1662626"><ele>2.0</ele><time>2026-05-01T06:36:52.401Z</time></trkpt><trkpt lat="42.5128598" lon="14.1661561"><ele>2.0</ele><time>2026-05-01T06:36:54.42Z</time></trkpt><trkpt lat="42.5129225" lon="14.1660895"><ele>2.0</ele><time>2026-05-01T06:36:55.42Z</time></trkpt><trkpt lat="42.5129907" lon="14.1660118"><ele>2.0</ele><time>2026-05-01T06:36:56.42Z</time></trkpt><trkpt lat="42.5130607" lon="14.1659393"><ele>2.0</ele><time>2026-05-01T06:36:57.422Z</time></trkpt><trkpt lat="42.5131326" lon="14.1658568"><ele>2.0</ele><time>2026-05-01T06:36:58.396Z</time></trkpt><trkpt lat="42.5132058" lon="14.165774"><ele>2.0</ele><time>2026-05-01T06:36:59.404Z</time></trkpt><trkpt lat="42.5132831" lon="14.1657036"><ele>2.0</ele><time>2026-05-01T06:37:00.414Z</time></trkpt><trkpt lat="42.5133667" lon="14.1656275"><ele>2.0</ele><time>2026-05-01T06:37:01.425Z</time></trkpt><trkpt lat="42.513446" lon="14.1655405"><ele>2.0</ele><time>2026-05-01T06:37:02.421Z</time></trkpt><trkpt lat="42.5135313" lon="14.165459"><ele>2.0</ele><time>2026-05-01T06:37:03.421Z</time></trkpt><trkpt lat="42.5136117" lon="14.1653689"><ele>2.0</ele><time>2026-05-01T06:37:04.414Z</time></trkpt><trkpt lat="42.5136929" lon="14.1652798"><ele>2.0</ele><time>2026-05-01T06:37:05.419Z</time></trkpt><trkpt lat="42.5137678" lon="14.1651978"><ele>2.0</ele><time>2026-05-01T06:37:06.415Z</time></trkpt><trkpt lat="42.5138378" lon="14.1651251"><ele>2.0</ele><time>2026-05-01T06:37:07.41Z</time></trkpt><trkpt lat="42.5139094" lon="14.1650544"><ele>1.9999999999999998</ele><time>2026-05-01T06:37:08.414Z</time></trkpt><trkpt lat="42.5139789" lon="14.1649859"><ele>2.0</ele><time>2026-05-01T06:37:09.413Z</time></trkpt><trkpt lat="42.5140442" lon="14.1649183"><ele>2.0</ele><time>2026-05-01T06:37:10.424Z</time></trkpt><trkpt lat="42.5141081" lon="14.1648516"><ele>2.0</ele><time>2026-05-01T06:37:11.421Z</time></trkpt><trkpt lat="42.5141736" lon="14.1647901"><ele>1.9999999999999998</ele><time>2026-05-01T06:37:12.416Z</time></trkpt><trkpt lat="42.5142431" lon="14.1647209"><ele>2.0</ele><time>2026-05-01T06:37:13.42Z</time></trkpt><trkpt lat="42.514311" lon="14.1646492"><ele>1.8333333333333333</ele><time>2026-05-01T06:37:14.419Z</time></trkpt><trkpt lat="42.514381" lon="14.1645714"><ele>1.6666666666666665</ele><time>2026-05-01T06:37:15.419Z</time></trkpt><trkpt lat="42.5144513" lon="14.164488"><ele>1.5</ele><time>2026-05-01T06:37:16.412Z</time></trkpt><trkpt lat="42.5145183" lon="14.1644141"><ele>1.3333333333333333</ele><time>2026-05-01T06:37:17.413Z</time></trkpt><trkpt lat="42.5145811" lon="14.1643417"><ele>1.1666666666666665</ele><time>2026-05-01T06:37:18.417Z</time></trkpt><trkpt lat="42.5146449" lon="14.1642647"><ele>1.0</ele><time>2026-05-01T06:37:19.419Z</time></trkpt><trkpt lat="42.5147168" lon="14.1641907"><ele>0.75</ele><time>2026-05-01T06:37:20.423Z</time></trkpt><trkpt lat="42.5147977" lon="14.1641025"><ele>0.5</ele><time>2026-05-01T06:37:21.441Z</time></trkpt><trkpt lat="42.5148867" lon="14.1640082"><ele>0.25</ele><time>2026-05-01T06:37:22.425Z</time></trkpt><trkpt lat="42.5149798" lon="14.1639062"><ele>0.0</ele><time>2026-05-01T06:37:23.416Z</time></trkpt><trkpt lat="42.5150737" lon="14.1637994"><ele>0.0</ele><time>2026-05-01T06:37:24.418Z</time></trkpt><trkpt lat="42.5151768" lon="14.1636902"><ele>0.0</ele><time>2026-05-01T06:37:25.415Z</time></trkpt><trkpt lat="42.5152751" lon="14.1635813"><ele>0.0</ele><time>2026-05-01T06:37:26.414Z</time></trkpt><trkpt lat="42.5153647" lon="14.1634873"><ele>0.0</ele><time>2026-05-01T06:37:27.411Z</time></trkpt><trkpt lat="42.5154448" lon="14.1634029"><ele>0.0</ele><time>2026-05-01T06:37:28.41Z</time></trkpt><trkpt lat="42.515516" lon="14.1633269"><ele>0.0</ele><time>2026-05-01T06:37:29.394Z</time></trkpt><trkpt lat="42.5155922" lon="14.1632501"><ele>0.0</ele><time>2026-05-01T06:37:30.387Z</time></trkpt><trkpt lat="42.5156688" lon="14.1631813"><ele>0.0</ele><time>2026-05-01T06:37:31.39Z</time></trkpt><trkpt lat="42.5157467" lon="14.1630972"><ele>0.0</ele><time>2026-05-01T06:37:32.393Z</time></trkpt><trkpt lat="42.5158267" lon="14.1630081"><ele>0.8</ele><time>2026-05-01T06:37:33.412Z</time></trkpt><trkpt lat="42.5159076" lon="14.1629253"><ele>1.6</ele><time>2026-05-01T06:37:34.414Z</time></trkpt><trkpt lat="42.5159876" lon="14.1628484"><ele>2.4000000000000004</ele><time>2026-05-01T06:37:35.417Z</time></trkpt><trkpt lat="42.5160695" lon="14.1627651"><ele>3.2</ele><time>2026-05-01T06:37:36.417Z</time></trkpt><trkpt lat="42.5161519" lon="14.1626828"><ele>4.0</ele><time>2026-05-01T06:37:37.401Z</time></trkpt><trkpt lat="42.5162326" lon="14.1626027"><ele>4.0</ele><time>2026-05-01T06:37:38.415Z</time></trkpt><trkpt lat="42.516314" lon="14.1625168"><ele>4.0</ele><time>2026-05-01T06:37:39.411Z</time></trkpt><trkpt lat="42.5163912" lon="14.1624247"><ele>4.0</ele><time>2026-05-01T06:37:40.415Z</time></trkpt><trkpt lat="42.5164713" lon="14.1623347"><ele>4.0</ele><time>2026-05-01T06:37:41.42Z</time></trkpt><trkpt lat="42.5165559" lon="14.1622498"><ele>4.0</ele><time>2026-05-01T06:37:42.398Z</time></trkpt><trkpt lat="42.5166348" lon="14.1621607"><ele>3.9999999999999996</ele><time>2026-05-01T06:37:43.394Z</time></trkpt><trkpt lat="42.5167052" lon="14.1620758"><ele>4.0</ele><time>2026-05-01T06:37:44.397Z</time></trkpt><trkpt lat="42.5167751" lon="14.161994"><ele>4.0</ele><time>2026-05-01T06:37:45.414Z</time></trkpt><trkpt lat="42.516847" lon="14.1619103"><ele>4.0</ele><time>2026-05-01T06:37:46.419Z</time></trkpt><trkpt lat="42.516914" lon="14.1618368"><ele>3.9999999999999996</ele><time>2026-05-01T06:37:47.412Z</time></trkpt><trkpt lat="42.5169743" lon="14.1617702"><ele>4.0</ele><time>2026-05-01T06:37:48.439Z</time></trkpt><trkpt lat="42.5170279" lon="14.1617137"><ele>4.0</ele><time>2026-05-01T06:37:49.442Z</time></trkpt><trkpt lat="42.517117" lon="14.1616195"><ele>4.0</ele><time>2026-05-01T06:37:51.374Z</time></trkpt><trkpt lat="42.5171887" lon="14.1615399"><ele>4.0</ele><time>2026-05-01T06:37:53.443Z</time></trkpt><trkpt lat="42.517288" lon="14.1614375"><ele>4.0</ele><time>2026-05-01T06:37:55.417Z</time></trkpt><trkpt lat="42.517345" lon="14.1613767"><ele>4.0</ele><time>2026-05-01T06:37:56.416Z</time></trkpt><trkpt lat="42.51741" lon="14.161303"><ele>3.8000000000000003</ele><time>2026-05-01T06:37:57.393Z</time></trkpt><trkpt lat="42.517486" lon="14.1612231"><ele>3.6000000000000005</ele><time>2026-05-01T06:37:58.39Z</time></trkpt><trkpt lat="42.5175669" lon="14.1611406"><ele>3.4</ele><time>2026-05-01T06:37:59.394Z</time></trkpt><trkpt lat="42.5176439" lon="14.1610576"><ele>3.2</ele><time>2026-05-01T06:38:00.369Z</time></trkpt><trkpt lat="42.5177227" lon="14.1609745"><ele>3.0</ele><time>2026-05-01T06:38:01.391Z</time></trkpt><trkpt lat="42.5178038" lon="14.1608885"><ele>3.0</ele><time>2026-05-01T06:38:02.391Z</time></trkpt><trkpt lat="42.5178806" lon="14.160803"><ele>3.0</ele><time>2026-05-01T06:38:03.415Z</time></trkpt><trkpt lat="42.5179608" lon="14.1607186"><ele>3.0</ele><time>2026-05-01T06:38:04.415Z</time></trkpt><trkpt lat="42.5180417" lon="14.1606319"><ele>3.0</ele><time>2026-05-01T06:38:05.388Z</time></trkpt><trkpt lat="42.5181277" lon="14.1605469"><ele>3.0</ele><time>2026-05-01T06:38:06.396Z</time></trkpt><trkpt lat="42.518219" lon="14.1604557"><ele>2.1999999999999997</ele><time>2026-05-01T06:38:07.414Z</time></trkpt><trkpt lat="42.5182994" lon="14.1603738"><ele>1.4</ele><time>2026-05-01T06:38:08.417Z</time></trkpt><trkpt lat="42.5183699" lon="14.1602969"><ele>0.5999999999999999</ele><time>2026-05-01T06:38:09.413Z</time></trkpt><trkpt lat="42.5184441" lon="14.1602251"><ele>-0.20000000000000007</ele><time>2026-05-01T06:38:10.411Z</time></trkpt><trkpt lat="42.5185197" lon="14.1601413"><ele>-1.0</ele><time>2026-05-01T06:38:11.416Z</time></trkpt><trkpt lat="42.5185957" lon="14.1600481"><ele>-1.0</ele><time>2026-05-01T06:38:12.416Z</time></trkpt><trkpt lat="42.5186706" lon="14.1599565"><ele>-1.0</ele><time>2026-05-01T06:38:13.421Z</time></trkpt><trkpt lat="42.5187494" lon="14.1598632"><ele>-1.0</ele><time>2026-05-01T06:38:14.422Z</time></trkpt><trkpt lat="42.5188352" lon="14.1597685"><ele>-1.0</ele><time>2026-05-01T06:38:15.415Z</time></trkpt><trkpt lat="42.5189199" lon="14.1596738"><ele>-1.0</ele><time>2026-05-01T06:38:16.416Z</time></trkpt><trkpt lat="42.518999" lon="14.1595869"><ele>-0.4</ele><time>2026-05-01T06:38:17.409Z</time></trkpt><trkpt lat="42.5190738" lon="14.1595116"><ele>0.19999999999999996</ele><time>2026-05-01T06:38:18.417Z</time></trkpt><trkpt lat="42.5191422" lon="14.159437"><ele>0.8000000000000002</ele><time>2026-05-01T06:38:19.413Z</time></trkpt><trkpt lat="42.519212" lon="14.1593639"><ele>1.4000000000000001</ele><time>2026-05-01T06:38:20.424Z</time></trkpt><trkpt lat="42.5192859" lon="14.1592831"><ele>2.0</ele><time>2026-05-01T06:38:21.414Z</time></trkpt><trkpt lat="42.5193658" lon="14.1591937"><ele>2.0</ele><time>2026-05-01T06:38:22.421Z</time></trkpt><trkpt lat="42.5194479" lon="14.1591053"><ele>2.0</ele><time>2026-05-01T06:38:23.423Z</time></trkpt><trkpt lat="42.5195294" lon="14.1590132"><ele>2.0</ele><time>2026-05-01T06:38:24.42Z</time></trkpt><trkpt lat="42.5196135" lon="14.1589187"><ele>2.0</ele><time>2026-05-01T06:38:25.422Z</time></trkpt><trkpt lat="42.5196924" lon="14.1588315"><ele>2.0</ele><time>2026-05-01T06:38:26.421Z</time></trkpt><trkpt lat="42.5197663" lon="14.1587506"><ele>2.2</ele><time>2026-05-01T06:38:27.415Z</time></trkpt><trkpt lat="42.5198349" lon="14.1586756"><ele>2.4000000000000004</ele><time>2026-05-01T06:38:28.442Z</time></trkpt><trkpt lat="42.5199037" lon="14.1586015"><ele>2.5999999999999996</ele><time>2026-05-01T06:38:29.418Z</time></trkpt><trkpt lat="42.519976" lon="14.1585225"><ele>2.8</ele><time>2026-05-01T06:38:30.421Z</time></trkpt><trkpt lat="42.5200529" lon="14.1584473"><ele>3.0</ele><time>2026-05-01T06:38:31.424Z</time></trkpt><trkpt lat="42.5201343" lon="14.1583662"><ele>3.0</ele><time>2026-05-01T06:38:32.417Z</time></trkpt><trkpt lat="42.5202191" lon="14.1582828"><ele>3.0</ele><time>2026-05-01T06:38:33.399Z</time></trkpt><trkpt lat="42.5203051" lon="14.158193"><ele>3.0</ele><time>2026-05-01T06:38:34.421Z</time></trkpt><trkpt lat="42.5203954" lon="14.1580994"><ele>3.0</ele><time>2026-05-01T06:38:35.415Z</time></trkpt><trkpt lat="42.5204818" lon="14.1580097"><ele>3.0</ele><time>2026-05-01T06:38:36.425Z</time></trkpt><trkpt lat="42.5205678" lon="14.1579146"><ele>2.75</ele><time>2026-05-01T06:38:37.414Z</time></trkpt><trkpt lat="42.5206516" lon="14.1578174"><ele>2.5</ele><time>2026-05-01T06:38:38.417Z</time></trkpt><trkpt lat="42.5207372" lon="14.1577201"><ele>2.25</ele><time>2026-05-01T06:38:39.418Z</time></trkpt><trkpt lat="42.520824" lon="14.1576193"><ele>2.0</ele><time>2026-05-01T06:38:40.444Z</time></trkpt><trkpt lat="42.5209137" lon="14.1575224"><ele>2.0</ele><time>2026-05-01T06:38:41.441Z</time></trkpt><trkpt lat="42.5210054" lon="14.157427"><ele>2.0</ele><time>2026-05-01T06:38:42.414Z</time></trkpt><trkpt lat="42.5210904" lon="14.1573391"><ele>2.0</ele><time>2026-05-01T06:38:43.442Z</time></trkpt><trkpt lat="42.5211697" lon="14.1572561"><ele>2.0</ele><time>2026-05-01T06:38:44.428Z</time></trkpt><trkpt lat="42.5212509" lon="14.1571798"><ele>2.0</ele><time>2026-05-01T06:38:45.419Z</time></trkpt><trkpt lat="42.5213307" lon="14.1570969"><ele>2.0</ele><time>2026-05-01T06:38:46.424Z</time></trkpt><trkpt lat="42.5214096" lon="14.1570087"><ele>2.0</ele><time>2026-05-01T06:38:47.416Z</time></trkpt><trkpt lat="42.5214909" lon="14.1569238"><ele>2.0</ele><time>2026-05-01T06:38:48.422Z</time></trkpt><trkpt lat="42.521572" lon="14.1568409"><ele>2.0</ele><time>2026-05-01T06:38:49.438Z</time></trkpt><trkpt lat="42.5216551" lon="14.1567576"><ele>2.0</ele><time>2026-05-01T06:38:50.392Z</time></trkpt><trkpt lat="42.5217326" lon="14.1566646"><ele>2.0</ele><time>2026-05-01T06:38:51.4Z</time></trkpt><trkpt lat="42.5218077" lon="14.1565641"><ele>2.0</ele><time>2026-05-01T06:38:52.396Z</time></trkpt><trkpt lat="42.5218767" lon="14.1564533"><ele>2.0</ele><time>2026-05-01T06:38:53.399Z</time></trkpt><trkpt lat="42.5219373" lon="14.156335"><ele>2.0</ele><time>2026-05-01T06:38:54.421Z</time></trkpt><trkpt lat="42.5219968" lon="14.1562131"><ele>2.0</ele><time>2026-05-01T06:38:55.42Z</time></trkpt><trkpt lat="42.5220518" lon="14.1560932"><ele>2.8</ele><time>2026-05-01T06:38:56.422Z</time></trkpt><trkpt lat="42.5220993" lon="14.155972"><ele>3.6</ele><time>2026-05-01T06:38:57.395Z</time></trkpt><trkpt lat="42.5221403" lon="14.155843"><ele>4.3999999999999995</ele><time>2026-05-01T06:38:58.397Z</time></trkpt><trkpt lat="42.5221764" lon="14.1557102"><ele>5.2</ele><time>2026-05-01T06:38:59.39Z</time></trkpt><trkpt lat="42.5222066" lon="14.1555782"><ele>6.0</ele><time>2026-05-01T06:39:00.388Z</time></trkpt><trkpt lat="42.5222261" lon="14.1554334"><ele>6.4</ele><time>2026-05-01T06:39:01.402Z</time></trkpt><trkpt lat="42.5222391" lon="14.1552916"><ele>6.8</ele><time>2026-05-01T06:39:02.397Z</time></trkpt><trkpt lat="42.5222444" lon="14.155149"><ele>7.200000000000001</ele><time>2026-05-01T06:39:03.391Z</time></trkpt><trkpt lat="42.5222504" lon="14.1550053"><ele>7.6000000000000005</ele><time>2026-05-01T06:39:04.394Z</time></trkpt><trkpt lat="42.5222564" lon="14.1548699"><ele>8.0</ele><time>2026-05-01T06:39:05.389Z</time></trkpt><trkpt lat="42.5222564" lon="14.1547444"><ele>7.999999999999999</ele><time>2026-05-01T06:39:06.378Z</time></trkpt><trkpt lat="42.5222463" lon="14.1546222"><ele>8.0</ele><time>2026-05-01T06:39:07.375Z</time></trkpt><trkpt lat="42.5222227" lon="14.1545001"><ele>8.0</ele><time>2026-05-01T06:39:08.381Z</time></trkpt><trkpt lat="42.5221969" lon="14.1543952"><ele>8.0</ele><time>2026-05-01T06:39:09.366Z</time></trkpt><trkpt lat="42.5221759" lon="14.1543038"><ele>7.999999999999999</ele><time>2026-05-01T06:39:10.367Z</time></trkpt><trkpt lat="42.5221568" lon="14.1542207"><ele>8.0</ele><time>2026-05-01T06:39:11.399Z</time></trkpt><trkpt lat="42.5221337" lon="14.1541376"><ele>7.999999999999999</ele><time>2026-05-01T06:39:12.418Z</time></trkpt><trkpt lat="42.5220983" lon="14.1540519"><ele>8.0</ele><time>2026-05-01T06:39:13.395Z</time></trkpt><trkpt lat="42.5220611" lon="14.1539743"><ele>8.0</ele><time>2026-05-01T06:39:14.415Z</time></trkpt><trkpt lat="42.5220009" lon="14.1538396"><ele>8.0</ele><time>2026-05-01T06:39:16.425Z</time></trkpt><trkpt lat="42.5219802" lon="14.1537102"><ele>7.999999999999999</ele><time>2026-05-01T06:39:18.389Z</time></trkpt><trkpt lat="42.5220298" lon="14.1536225"><ele>8.0</ele><time>2026-05-01T06:39:20.397Z</time></trkpt><trkpt lat="42.5221255" lon="14.1535389"><ele>6.999999999999999</ele><time>2026-05-01T06:39:22.399Z</time></trkpt><trkpt lat="42.5222425" lon="14.1534517"><ele>6.0</ele><time>2026-05-01T06:39:24.393Z</time></trkpt><trkpt lat="42.5223084" lon="14.1534062"><ele>5.0</ele><time>2026-05-01T06:39:25.397Z</time></trkpt><trkpt lat="42.5223707" lon="14.1533583"><ele>4.0</ele><time>2026-05-01T06:39:26.399Z</time></trkpt><trkpt lat="42.5224276" lon="14.1533101"><ele>3.0</ele><time>2026-05-01T06:39:27.412Z</time></trkpt><trkpt lat="42.5224813" lon="14.1532631"><ele>2.0</ele><time>2026-05-01T06:39:28.401Z</time></trkpt><trkpt lat="42.5225386" lon="14.1532172"><ele>1.9999999999999998</ele><time>2026-05-01T06:39:29.409Z</time></trkpt><trkpt lat="42.5225931" lon="14.1531719"><ele>2.0</ele><time>2026-05-01T06:39:30.401Z</time></trkpt><trkpt lat="42.52269" lon="14.1530929"><ele>2.0</ele><time>2026-05-01T06:39:32.426Z</time></trkpt><trkpt lat="42.5227399" lon="14.1529452"><ele>2.0</ele><time>2026-05-01T06:39:35.399Z</time></trkpt><trkpt lat="42.5227034" lon="14.1528575"><ele>1.9999999999999998</ele><time>2026-05-01T06:39:37.403Z</time></trkpt><trkpt lat="42.5226261" lon="14.1528713"><ele>2.0</ele><time>2026-05-01T06:39:39.421Z</time></trkpt><trkpt lat="42.5225449" lon="14.1529138"><ele>2.0</ele><time>2026-05-01T06:39:41.429Z</time></trkpt><trkpt lat="42.5224702" lon="14.15294"><ele>1.9999999999999998</ele><time>2026-05-01T06:39:43.432Z</time></trkpt><trkpt lat="42.522405" lon="14.1529584"><ele>2.0</ele><time>2026-05-01T06:39:48.427Z</time></trkpt><trkpt lat="42.5223678" lon="14.1528773"><ele>2.0</ele><time>2026-05-01T06:39:52.451Z</time></trkpt><trkpt lat="42.5223221" lon="14.1528084"><ele>1.9999999999999998</ele><time>2026-05-01T06:39:57.427Z</time></trkpt><trkpt lat="42.5222694" lon="14.1527262"><ele>2.0</ele><time>2026-05-01T06:39:59.447Z</time></trkpt><trkpt lat="42.5222272" lon="14.1526314"><ele>2.0</ele><time>2026-05-01T06:40:01.455Z</time></trkpt><trkpt lat="42.5221897" lon="14.1525508"><ele>1.9999999999999998</ele><time>2026-05-01T06:40:03.45Z</time></trkpt><trkpt lat="42.5221515" lon="14.1524764"><ele>2.0</ele><time>2026-05-01T06:40:05.443Z</time></trkpt><trkpt lat="42.5221186" lon="14.152365"><ele>2.0</ele><time>2026-05-01T06:40:08.428Z</time></trkpt><trkpt lat="42.5220831" lon="14.1522668"><ele>2.0</ele><time>2026-05-01T06:40:11.42Z</time></trkpt><trkpt lat="42.5220452" lon="14.1521901"><ele>1.9999999999999998</ele><time>2026-05-01T06:40:13.423Z</time></trkpt><trkpt lat="42.5220072" lon="14.1521039"><ele>2.0</ele><time>2026-05-01T06:40:15.418Z</time></trkpt><trkpt lat="42.5219347" lon="14.1520505"><ele>0.0</ele><time>2026-05-01T06:40:18.422Z</time></trkpt><trkpt lat="42.5218695" lon="14.1520459"><ele>0.0</ele><time>2026-05-01T06:40:21.444Z</time></trkpt><trkpt lat="42.5217998" lon="14.152049"><ele>0.0</ele><time>2026-05-01T06:40:26.429Z</time></trkpt><trkpt lat="42.5217345" lon="14.1521202"><ele>0.0</ele><time>2026-05-01T06:40:32.429Z</time></trkpt><trkpt lat="42.5217439" lon="14.1522152"><ele>0.0</ele><time>2026-05-01T06:40:35.423Z</time></trkpt></trkseg><trkseg><trkpt lat="42.521927" lon="14.1525054"><ele>-0.9999999999999999</ele><time>2026-05-01T07:07:45.449Z</time></trkpt><trkpt lat="42.5219532" lon="14.1525916"><ele>-1.0</ele><time>2026-05-01T07:09:09.434Z</time></trkpt><trkpt lat="42.5219732" lon="14.1526815"><ele>-1.0</ele><time>2026-05-01T07:09:36.408Z</time></trkpt><trkpt lat="42.5220113" lon="14.152768"><ele>-1.0</ele><time>2026-05-01T07:09:38.432Z</time></trkpt><trkpt lat="42.5220655" lon="14.1528508"><ele>-0.9999999999999999</ele><time>2026-05-01T07:09:40.409Z</time></trkpt><trkpt lat="42.5221078" lon="14.1529658"><ele>-1.0</ele><time>2026-05-01T07:09:42.43Z</time></trkpt><trkpt lat="42.5221582" lon="14.15311"><ele>-0.49999999999999994</ele><time>2026-05-01T07:09:44.43Z</time></trkpt><trkpt lat="42.5221961" lon="14.153187"><ele>0.0</ele><time>2026-05-01T07:09:46.423Z</time></trkpt><trkpt lat="42.5222676" lon="14.1531913"><ele>0.5</ele><time>2026-05-01T07:09:48.435Z</time></trkpt><trkpt lat="42.5223717" lon="14.1530879"><ele>1.0</ele><time>2026-05-01T07:09:50.45Z</time></trkpt><trkpt lat="42.5224446" lon="14.1530292"><ele>1.4999999999999998</ele><time>2026-05-01T07:09:51.426Z</time></trkpt><trkpt lat="42.5225171" lon="14.1529838"><ele>2.0</ele><time>2026-05-01T07:09:52.441Z</time></trkpt><trkpt lat="42.5225769" lon="14.1529432"><ele>1.9999999999999998</ele><time>2026-05-01T07:09:53.402Z</time></trkpt><trkpt lat="42.5226679" lon="14.1529076"><ele>2.0</ele><time>2026-05-01T07:09:55.432Z</time></trkpt><trkpt lat="42.5227053" lon="14.1529973"><ele>2.0</ele><time>2026-05-01T07:09:57.45Z</time></trkpt><trkpt lat="42.5226464" lon="14.1530812"><ele>2.0</ele><time>2026-05-01T07:09:59.449Z</time></trkpt><trkpt lat="42.5225832" lon="14.1531139"><ele>1.9999999999999998</ele><time>2026-05-01T07:10:00.46Z</time></trkpt><trkpt lat="42.5225206" lon="14.1531537"><ele>2.0</ele><time>2026-05-01T07:10:01.458Z</time></trkpt><trkpt lat="42.5224567" lon="14.1531898"><ele>1.9999999999999998</ele><time>2026-05-01T07:10:02.457Z</time></trkpt><trkpt lat="42.5223956" lon="14.153235"><ele>2.0</ele><time>2026-05-01T07:10:03.456Z</time></trkpt><trkpt lat="42.5223279" lon="14.1532822"><ele>2.0</ele><time>2026-05-01T07:10:04.453Z</time></trkpt><trkpt lat="42.5222563" lon="14.1533396"><ele>2.0</ele><time>2026-05-01T07:10:05.457Z</time></trkpt><trkpt lat="42.5221799" lon="14.1533943"><ele>1.9999999999999998</ele><time>2026-05-01T07:10:06.456Z</time></trkpt><trkpt lat="42.5220977" lon="14.1534521"><ele>2.0</ele><time>2026-05-01T07:10:07.46Z</time></trkpt><trkpt lat="42.5220179" lon="14.1535086"><ele>1.6</ele><time>2026-05-01T07:10:08.459Z</time></trkpt><trkpt lat="42.5219541" lon="14.1535605"><ele>1.2000000000000002</ele><time>2026-05-01T07:10:09.465Z</time></trkpt><trkpt lat="42.5218783" lon="14.1536183"><ele>0.8</ele><time>2026-05-01T07:10:11.429Z</time></trkpt><trkpt lat="42.521824" lon="14.1536714"><ele>0.4</ele><time>2026-05-01T07:10:14.447Z</time></trkpt><trkpt lat="42.5218573" lon="14.1538746"><ele>0.0</ele><time>2026-05-01T07:10:16.441Z</time></trkpt><trkpt lat="42.5219066" lon="14.1539922"><ele>0.2</ele><time>2026-05-01T07:10:17.455Z</time></trkpt><trkpt lat="42.5219554" lon="14.1541087"><ele>0.4</ele><time>2026-05-01T07:10:18.424Z</time></trkpt><trkpt lat="42.5220024" lon="14.1542311"><ele>0.6000000000000001</ele><time>2026-05-01T07:10:19.426Z</time></trkpt><trkpt lat="42.5220464" lon="14.1543628"><ele>0.8</ele><time>2026-05-01T07:10:20.405Z</time></trkpt><trkpt lat="42.5220826" lon="14.1545145"><ele>1.0</ele><time>2026-05-01T07:10:21.4Z</time></trkpt><trkpt lat="42.5221074" lon="14.1546576"><ele>2.75</ele><time>2026-05-01T07:10:22.424Z</time></trkpt><trkpt lat="42.5221241" lon="14.1547997"><ele>4.5</ele><time>2026-05-01T07:10:23.397Z</time></trkpt><trkpt lat="42.5221373" lon="14.1549486"><ele>6.25</ele><time>2026-05-01T07:10:24.397Z</time></trkpt><trkpt lat="42.5221401" lon="14.155104"><ele>8.0</ele><time>2026-05-01T07:10:25.398Z</time></trkpt><trkpt lat="42.5221406" lon="14.1552681"><ele>7.6000000000000005</ele><time>2026-05-01T07:10:26.424Z</time></trkpt><trkpt lat="42.5221308" lon="14.1554288"><ele>7.200000000000001</ele><time>2026-05-01T07:10:27.422Z</time></trkpt><trkpt lat="42.5221109" lon="14.1555812"><ele>6.8</ele><time>2026-05-01T07:10:28.418Z</time></trkpt><trkpt lat="42.5220848" lon="14.1557129"><ele>6.4</ele><time>2026-05-01T07:10:29.423Z</time></trkpt><trkpt lat="42.5220509" lon="14.1558269"><ele>6.0</ele><time>2026-05-01T07:10:30.424Z</time></trkpt><trkpt lat="42.5220132" lon="14.1559301"><ele>5.3999999999999995</ele><time>2026-05-01T07:10:31.42Z</time></trkpt><trkpt lat="42.5219729" lon="14.1560532"><ele>4.8</ele><time>2026-05-01T07:10:32.425Z</time></trkpt><trkpt lat="42.5219206" lon="14.1561865"><ele>4.199999999999999</ele><time>2026-05-01T07:10:33.427Z</time></trkpt><trkpt lat="42.521855" lon="14.1563152"><ele>3.5999999999999996</ele><time>2026-05-01T07:10:34.429Z</time></trkpt><trkpt lat="42.5217827" lon="14.1564305"><ele>3.0</ele><time>2026-05-01T07:10:35.427Z</time></trkpt><trkpt lat="42.5217086" lon="14.1565302"><ele>2.8333333333333335</ele><time>2026-05-01T07:10:36.429Z</time></trkpt><trkpt lat="42.5216439" lon="14.1566169"><ele>2.6666666666666665</ele><time>2026-05-01T07:10:37.434Z</time></trkpt><trkpt lat="42.5215817" lon="14.1566888"><ele>2.5</ele><time>2026-05-01T07:10:38.435Z</time></trkpt><trkpt lat="42.5215195" lon="14.156748"><ele>2.333333333333333</ele><time>2026-05-01T07:10:39.433Z</time></trkpt><trkpt lat="42.5214543" lon="14.1568023"><ele>2.1666666666666665</ele><time>2026-05-01T07:10:40.407Z</time></trkpt><trkpt lat="42.5213975" lon="14.1568533"><ele>2.0</ele><time>2026-05-01T07:10:41.452Z</time></trkpt><trkpt lat="42.521309" lon="14.1569576"><ele>2.0</ele><time>2026-05-01T07:10:43.456Z</time></trkpt><trkpt lat="42.5212354" lon="14.1570483"><ele>2.0</ele><time>2026-05-01T07:10:45.452Z</time></trkpt><trkpt lat="42.5211586" lon="14.1571231"><ele>2.0</ele><time>2026-05-01T07:10:47.454Z</time></trkpt><trkpt lat="42.5210565" lon="14.1572203"><ele>2.0</ele><time>2026-05-01T07:10:49.432Z</time></trkpt><trkpt lat="42.5209665" lon="14.1573198"><ele>2.0</ele><time>2026-05-01T07:10:51.431Z</time></trkpt><trkpt lat="42.5209103" lon="14.1573769"><ele>1.9999999999999998</ele><time>2026-05-01T07:10:52.459Z</time></trkpt><trkpt lat="42.5208471" lon="14.1574439"><ele>2.0</ele><time>2026-05-01T07:10:53.459Z</time></trkpt><trkpt lat="42.5207764" lon="14.1575105"><ele>2.0</ele><time>2026-05-01T07:10:54.457Z</time></trkpt><trkpt lat="42.5207099" lon="14.1575702"><ele>2.0</ele><time>2026-05-01T07:10:55.436Z</time></trkpt><trkpt lat="42.5206502" lon="14.1576274"><ele>1.9999999999999998</ele><time>2026-05-01T07:10:56.459Z</time></trkpt><trkpt lat="42.520591" lon="14.1576841"><ele>2.0</ele><time>2026-05-01T07:10:57.462Z</time></trkpt><trkpt lat="42.5205345" lon="14.1577456"><ele>1.9999999999999998</ele><time>2026-05-01T07:10:58.46Z</time></trkpt><trkpt lat="42.5204737" lon="14.1578129"><ele>2.0</ele><time>2026-05-01T07:10:59.431Z</time></trkpt><trkpt lat="42.5204128" lon="14.1578826"><ele>2.0</ele><time>2026-05-01T07:11:00.431Z</time></trkpt><trkpt lat="42.520351" lon="14.1579561"><ele>2.0</ele><time>2026-05-01T07:11:01.458Z</time></trkpt><trkpt lat="42.520284" lon="14.1580289"><ele>1.9999999999999998</ele><time>2026-05-01T07:11:02.456Z</time></trkpt><trkpt lat="42.5202135" lon="14.1581047"><ele>2.0</ele><time>2026-05-01T07:11:03.457Z</time></trkpt><trkpt lat="42.5201451" lon="14.1581861"><ele>2.2</ele><time>2026-05-01T07:11:04.458Z</time></trkpt><trkpt lat="42.5200736" lon="14.1582677"><ele>2.4000000000000004</ele><time>2026-05-01T07:11:05.458Z</time></trkpt><trkpt lat="42.519999" lon="14.1583522"><ele>2.5999999999999996</ele><time>2026-05-01T07:11:06.458Z</time></trkpt><trkpt lat="42.5199191" lon="14.1584406"><ele>2.8</ele><time>2026-05-01T07:11:07.46Z</time></trkpt><trkpt lat="42.5198414" lon="14.158529"><ele>3.0</ele><time>2026-05-01T07:11:08.459Z</time></trkpt><trkpt lat="42.5197662" lon="14.1586128"><ele>3.0</ele><time>2026-05-01T07:11:09.456Z</time></trkpt><trkpt lat="42.5197041" lon="14.1586803"><ele>3.0</ele><time>2026-05-01T07:11:10.459Z</time></trkpt><trkpt lat="42.5196441" lon="14.1587442"><ele>3.0</ele><time>2026-05-01T07:11:11.458Z</time></trkpt><trkpt lat="42.5195814" lon="14.1588117"><ele>3.0</ele><time>2026-05-01T07:11:12.46Z</time></trkpt><trkpt lat="42.5195185" lon="14.158878"><ele>3.0</ele><time>2026-05-01T07:11:13.459Z</time></trkpt><trkpt lat="42.5194521" lon="14.1589418"><ele>3.0</ele><time>2026-05-01T07:11:14.46Z</time></trkpt><trkpt lat="42.5193832" lon="14.1590057"><ele>2.8</ele><time>2026-05-01T07:11:15.459Z</time></trkpt><trkpt lat="42.5193138" lon="14.1590719"><ele>2.5999999999999996</ele><time>2026-05-01T07:11:16.459Z</time></trkpt><trkpt lat="42.5192467" lon="14.1591406"><ele>2.4000000000000004</ele><time>2026-05-01T07:11:17.459Z</time></trkpt><trkpt lat="42.5191757" lon="14.1592144"><ele>2.2</ele><time>2026-05-01T07:11:18.462Z</time></trkpt><trkpt lat="42.5191019" lon="14.1592966"><ele>2.0</ele><time>2026-05-01T07:11:19.459Z</time></trkpt><trkpt lat="42.5190274" lon="14.1593852"><ele>2.0</ele><time>2026-05-01T07:11:20.46Z</time></trkpt><trkpt lat="42.5189459" lon="14.1594697"><ele>2.0</ele><time>2026-05-01T07:11:21.46Z</time></trkpt><trkpt lat="42.518861" lon="14.1595571"><ele>2.0</ele><time>2026-05-01T07:11:22.461Z</time></trkpt><trkpt lat="42.5187756" lon="14.1596458"><ele>2.0</ele><time>2026-05-01T07:11:23.456Z</time></trkpt><trkpt lat="42.5186995" lon="14.1597342"><ele>2.0</ele><time>2026-05-01T07:11:24.458Z</time></trkpt><trkpt lat="42.5186297" lon="14.1598123"><ele>1.4000000000000001</ele><time>2026-05-01T07:11:25.454Z</time></trkpt><trkpt lat="42.5185668" lon="14.1598846"><ele>0.8000000000000002</ele><time>2026-05-01T07:11:26.458Z</time></trkpt><trkpt lat="42.5185012" lon="14.1599615"><ele>0.19999999999999996</ele><time>2026-05-01T07:11:27.459Z</time></trkpt><trkpt lat="42.5184214" lon="14.1600459"><ele>-0.4</ele><time>2026-05-01T07:11:28.462Z</time></trkpt><trkpt lat="42.5183384" lon="14.1601366"><ele>-1.0</ele><time>2026-05-01T07:11:29.459Z</time></trkpt><trkpt lat="42.5182679" lon="14.1602155"><ele>-0.9999999999999999</ele><time>2026-05-01T07:11:30.459Z</time></trkpt><trkpt lat="42.5182018" lon="14.1602904"><ele>-1.0</ele><time>2026-05-01T07:11:31.461Z</time></trkpt><trkpt lat="42.5181368" lon="14.1603689"><ele>-1.0</ele><time>2026-05-01T07:11:32.462Z</time></trkpt><trkpt lat="42.5180679" lon="14.1604475"><ele>-1.0</ele><time>2026-05-01T07:11:33.461Z</time></trkpt><trkpt lat="42.5179986" lon="14.1605275"><ele>-0.9999999999999999</ele><time>2026-05-01T07:11:34.457Z</time></trkpt><trkpt lat="42.5179244" lon="14.1606077"><ele>-1.0</ele><time>2026-05-01T07:11:35.457Z</time></trkpt><trkpt lat="42.5178502" lon="14.160683"><ele>-0.20000000000000007</ele><time>2026-05-01T07:11:36.458Z</time></trkpt><trkpt lat="42.5177861" lon="14.1607617"><ele>0.5999999999999999</ele><time>2026-05-01T07:11:37.435Z</time></trkpt><trkpt lat="42.5177194" lon="14.1608321"><ele>1.4</ele><time>2026-05-01T07:11:38.429Z</time></trkpt><trkpt lat="42.5176396" lon="14.1609117"><ele>2.1999999999999997</ele><time>2026-05-01T07:11:39.432Z</time></trkpt><trkpt lat="42.5175611" lon="14.1609983"><ele>3.0</ele><time>2026-05-01T07:11:40.438Z</time></trkpt><trkpt lat="42.5174974" lon="14.1610823"><ele>3.0</ele><time>2026-05-01T07:11:41.428Z</time></trkpt><trkpt lat="42.5174303" lon="14.1611601"><ele>3.0</ele><time>2026-05-01T07:11:42.426Z</time></trkpt><trkpt lat="42.5173717" lon="14.1612299"><ele>3.0</ele><time>2026-05-01T07:11:43.425Z</time></trkpt><trkpt lat="42.5173079" lon="14.1613019"><ele>3.0</ele><time>2026-05-01T07:11:44.405Z</time></trkpt><trkpt lat="42.5172476" lon="14.1613713"><ele>3.0</ele><time>2026-05-01T07:11:45.402Z</time></trkpt><trkpt lat="42.5171768" lon="14.1614376"><ele>3.0</ele><time>2026-05-01T07:11:46.407Z</time></trkpt><trkpt lat="42.5171005" lon="14.1615033"><ele>3.2</ele><time>2026-05-01T07:11:47.432Z</time></trkpt><trkpt lat="42.5170289" lon="14.161578"><ele>3.4</ele><time>2026-05-01T07:11:48.435Z</time></trkpt><trkpt lat="42.5169576" lon="14.1616455"><ele>3.6000000000000005</ele><time>2026-05-01T07:11:49.434Z</time></trkpt><trkpt lat="42.5168796" lon="14.1617236"><ele>3.8000000000000003</ele><time>2026-05-01T07:11:50.43Z</time></trkpt><trkpt lat="42.5168065" lon="14.1617974"><ele>4.0</ele><time>2026-05-01T07:11:51.431Z</time></trkpt><trkpt lat="42.5167339" lon="14.1618595"><ele>4.0</ele><time>2026-05-01T07:11:52.432Z</time></trkpt><trkpt lat="42.5166573" lon="14.1619289"><ele>4.0</ele><time>2026-05-01T07:11:53.413Z</time></trkpt><trkpt lat="42.5165804" lon="14.1619983"><ele>4.0</ele><time>2026-05-01T07:11:54.43Z</time></trkpt><trkpt lat="42.5165074" lon="14.1620701"><ele>4.0</ele><time>2026-05-01T07:11:55.435Z</time></trkpt><trkpt lat="42.5164363" lon="14.1621488"><ele>4.0</ele><time>2026-05-01T07:11:56.438Z</time></trkpt><trkpt lat="42.5163713" lon="14.1622279"><ele>4.0</ele><time>2026-05-01T07:11:57.438Z</time></trkpt><trkpt lat="42.5163086" lon="14.1623017"><ele>4.0</ele><time>2026-05-01T07:11:58.438Z</time></trkpt><trkpt lat="42.5162478" lon="14.1623807"><ele>4.0</ele><time>2026-05-01T07:11:59.437Z</time></trkpt><trkpt lat="42.5161752" lon="14.1624618"><ele>4.0</ele><time>2026-05-01T07:12:00.434Z</time></trkpt><trkpt lat="42.5160991" lon="14.1625458"><ele>4.0</ele><time>2026-05-01T07:12:01.431Z</time></trkpt><trkpt lat="42.5160243" lon="14.16263"><ele>4.0</ele><time>2026-05-01T07:12:02.43Z</time></trkpt><trkpt lat="42.5159468" lon="14.1627136"><ele>4.0</ele><time>2026-05-01T07:12:03.456Z</time></trkpt><trkpt lat="42.5158695" lon="14.1627999"><ele>4.0</ele><time>2026-05-01T07:12:04.458Z</time></trkpt><trkpt lat="42.5157928" lon="14.1628899"><ele>4.0</ele><time>2026-05-01T07:12:05.456Z</time></trkpt><trkpt lat="42.5157162" lon="14.1629723"><ele>4.0</ele><time>2026-05-01T07:12:06.461Z</time></trkpt><trkpt lat="42.5156467" lon="14.1630501"><ele>3.9999999999999996</ele><time>2026-05-01T07:12:07.432Z</time></trkpt><trkpt lat="42.5155793" lon="14.1631247"><ele>4.0</ele><time>2026-05-01T07:12:08.436Z</time></trkpt><trkpt lat="42.5155112" lon="14.1631929"><ele>4.0</ele><time>2026-05-01T07:12:09.437Z</time></trkpt><trkpt lat="42.5154405" lon="14.1632698"><ele>4.0</ele><time>2026-05-01T07:12:10.437Z</time></trkpt><trkpt lat="42.5153732" lon="14.1633485"><ele>3.9999999999999996</ele><time>2026-05-01T07:12:11.456Z</time></trkpt><trkpt lat="42.5153023" lon="14.163428"><ele>4.0</ele><time>2026-05-01T07:12:12.435Z</time></trkpt><trkpt lat="42.5152211" lon="14.1635043"><ele>3.6</ele><time>2026-05-01T07:12:13.455Z</time></trkpt><trkpt lat="42.5151378" lon="14.1635872"><ele>3.2</ele><time>2026-05-01T07:12:14.458Z</time></trkpt><trkpt lat="42.515055" lon="14.1636757"><ele>2.8000000000000003</ele><time>2026-05-01T07:12:15.458Z</time></trkpt><trkpt lat="42.5149675" lon="14.1637549"><ele>2.4000000000000004</ele><time>2026-05-01T07:12:16.438Z</time></trkpt><trkpt lat="42.5148864" lon="14.1638399"><ele>2.0</ele><time>2026-05-01T07:12:17.457Z</time></trkpt><trkpt lat="42.5148073" lon="14.1639287"><ele>2.0</ele><time>2026-05-01T07:12:18.458Z</time></trkpt><trkpt lat="42.5147203" lon="14.164012"><ele>2.0</ele><time>2026-05-01T07:12:19.454Z</time></trkpt><trkpt lat="42.5146339" lon="14.1641017"><ele>2.0</ele><time>2026-05-01T07:12:20.459Z</time></trkpt><trkpt lat="42.5145562" lon="14.1641867"><ele>2.0</ele><time>2026-05-01T07:12:21.437Z</time></trkpt><trkpt lat="42.5144862" lon="14.1642616"><ele>2.0</ele><time>2026-05-01T07:12:22.438Z</time></trkpt><trkpt lat="42.5144176" lon="14.1643349"><ele>1.8</ele><time>2026-05-01T07:12:23.435Z</time></trkpt><trkpt lat="42.5143421" lon="14.1644182"><ele>1.6</ele><time>2026-05-01T07:12:24.438Z</time></trkpt><trkpt lat="42.5142632" lon="14.1645"><ele>1.4000000000000001</ele><time>2026-05-01T07:12:25.434Z</time></trkpt><trkpt lat="42.5141901" lon="14.164582"><ele>1.2000000000000002</ele><time>2026-05-01T07:12:26.435Z</time></trkpt><trkpt lat="42.5141236" lon="14.1646547"><ele>1.0</ele><time>2026-05-01T07:12:27.46Z</time></trkpt><trkpt lat="42.5140641" lon="14.1647209"><ele>1.0</ele><time>2026-05-01T07:12:28.459Z</time></trkpt><trkpt lat="42.5139763" lon="14.1648117"><ele>1.0</ele><time>2026-05-01T07:12:30.462Z</time></trkpt><trkpt lat="42.5139092" lon="14.1648811"><ele>1.0</ele><time>2026-05-01T07:12:32.459Z</time></trkpt><trkpt lat="42.5138525" lon="14.1649359"><ele>1.0</ele><time>2026-05-01T07:12:34.439Z</time></trkpt><trkpt lat="42.513779" lon="14.165018"><ele>1.0</ele><time>2026-05-01T07:12:36.432Z</time></trkpt><trkpt lat="42.5136766" lon="14.1651259"><ele>1.1666666666666665</ele><time>2026-05-01T07:12:38.433Z</time></trkpt><trkpt lat="42.5136198" lon="14.1651875"><ele>1.3333333333333333</ele><time>2026-05-01T07:12:39.435Z</time></trkpt><trkpt lat="42.5135565" lon="14.1652499"><ele>1.5</ele><time>2026-05-01T07:12:40.454Z</time></trkpt><trkpt lat="42.5134893" lon="14.165317"><ele>1.6666666666666665</ele><time>2026-05-01T07:12:41.455Z</time></trkpt><trkpt lat="42.513424" lon="14.1653888"><ele>1.8333333333333333</ele><time>2026-05-01T07:12:42.46Z</time></trkpt><trkpt lat="42.5133513" lon="14.1654615"><ele>2.0</ele><time>2026-05-01T07:12:43.443Z</time></trkpt><trkpt lat="42.5132835" lon="14.165537"><ele>1.9999999999999998</ele><time>2026-05-01T07:12:44.44Z</time></trkpt><trkpt lat="42.5132189" lon="14.1656118"><ele>2.0</ele><time>2026-05-01T07:12:45.461Z</time></trkpt><trkpt lat="42.513152" lon="14.1656846"><ele>2.0</ele><time>2026-05-01T07:12:46.46Z</time></trkpt><trkpt lat="42.5130818" lon="14.165758"><ele>2.0</ele><time>2026-05-01T07:12:47.461Z</time></trkpt><trkpt lat="42.5130109" lon="14.1658356"><ele>1.9999999999999998</ele><time>2026-05-01T07:12:48.462Z</time></trkpt><trkpt lat="42.5129383" lon="14.1659173"><ele>2.0</ele><time>2026-05-01T07:12:49.462Z</time></trkpt><trkpt lat="42.5128683" lon="14.1660044"><ele>2.1666666666666665</ele><time>2026-05-01T07:12:50.459Z</time></trkpt><trkpt lat="42.512794" lon="14.1660853"><ele>2.333333333333333</ele><time>2026-05-01T07:12:51.458Z</time></trkpt><trkpt lat="42.5127259" lon="14.1661478"><ele>2.5</ele><time>2026-05-01T07:12:52.455Z</time></trkpt><trkpt lat="42.5126609" lon="14.1662135"><ele>2.6666666666666665</ele><time>2026-05-01T07:12:53.458Z</time></trkpt><trkpt lat="42.5125909" lon="14.1662821"><ele>2.8333333333333335</ele><time>2026-05-01T07:12:54.455Z</time></trkpt><trkpt lat="42.5125223" lon="14.1663567"><ele>3.0</ele><time>2026-05-01T07:12:55.455Z</time></trkpt><trkpt lat="42.5124474" lon="14.1664348"><ele>3.0</ele><time>2026-05-01T07:12:56.459Z</time></trkpt><trkpt lat="42.5123683" lon="14.1665141"><ele>3.0</ele><time>2026-05-01T07:12:57.457Z</time></trkpt><trkpt lat="42.5122834" lon="14.1666077"><ele>3.0</ele><time>2026-05-01T07:12:58.456Z</time></trkpt><trkpt lat="42.5122015" lon="14.1667007"><ele>3.0</ele><time>2026-05-01T07:12:59.46Z</time></trkpt><trkpt lat="42.5121219" lon="14.1667914"><ele>3.0</ele><time>2026-05-01T07:13:00.461Z</time></trkpt><trkpt lat="42.5120414" lon="14.1668862"><ele>2.8</ele><time>2026-05-01T07:13:01.464Z</time></trkpt><trkpt lat="42.5119651" lon="14.1669739"><ele>2.5999999999999996</ele><time>2026-05-01T07:13:02.461Z</time></trkpt><trkpt lat="42.5118843" lon="14.1670554"><ele>2.4000000000000004</ele><time>2026-05-01T07:13:03.456Z</time></trkpt><trkpt lat="42.5118059" lon="14.1671418"><ele>2.2</ele><time>2026-05-01T07:13:04.459Z</time></trkpt><trkpt lat="42.5117315" lon="14.1672247"><ele>2.0</ele><time>2026-05-01T07:13:05.461Z</time></trkpt><trkpt lat="42.5116556" lon="14.1673032"><ele>1.6</ele><time>2026-05-01T07:13:06.463Z</time></trkpt><trkpt lat="42.5115772" lon="14.1673814"><ele>1.2000000000000002</ele><time>2026-05-01T07:13:07.46Z</time></trkpt><trkpt lat="42.5115007" lon="14.16746"><ele>0.8</ele><time>2026-05-01T07:13:08.46Z</time></trkpt><trkpt lat="42.5114239" lon="14.1675426"><ele>0.4</ele><time>2026-05-01T07:13:09.463Z</time></trkpt><trkpt lat="42.5113401" lon="14.1676359"><ele>0.0</ele><time>2026-05-01T07:13:10.457Z</time></trkpt><trkpt lat="42.5112498" lon="14.1677322"><ele>0.4</ele><time>2026-05-01T07:13:11.459Z</time></trkpt><trkpt lat="42.5111669" lon="14.1678277"><ele>0.8</ele><time>2026-05-01T07:13:12.433Z</time></trkpt><trkpt lat="42.511082" lon="14.1679296"><ele>1.2000000000000002</ele><time>2026-05-01T07:13:13.461Z</time></trkpt><trkpt lat="42.5110013" lon="14.1680205"><ele>1.6</ele><time>2026-05-01T07:13:14.458Z</time></trkpt><trkpt lat="42.5109247" lon="14.16811"><ele>2.0</ele><time>2026-05-01T07:13:15.457Z</time></trkpt><trkpt lat="42.5108476" lon="14.1681989"><ele>2.0</ele><time>2026-05-01T07:13:16.459Z</time></trkpt><trkpt lat="42.510766" lon="14.1682819"><ele>2.0</ele><time>2026-05-01T07:13:17.462Z</time></trkpt><trkpt lat="42.5106848" lon="14.1683668"><ele>2.0</ele><time>2026-05-01T07:13:18.461Z</time></trkpt><trkpt lat="42.5106103" lon="14.1684429"><ele>2.0</ele><time>2026-05-01T07:13:19.458Z</time></trkpt><trkpt lat="42.5105457" lon="14.1685055"><ele>2.0</ele><time>2026-05-01T07:13:20.461Z</time></trkpt><trkpt lat="42.510484" lon="14.1685702"><ele>1.9999999999999998</ele><time>2026-05-01T07:13:21.459Z</time></trkpt><trkpt lat="42.5104151" lon="14.1686482"><ele>2.0</ele><time>2026-05-01T07:13:22.46Z</time></trkpt><trkpt lat="42.5103404" lon="14.1687251"><ele>2.0</ele><time>2026-05-01T07:13:23.459Z</time></trkpt><trkpt lat="42.5102713" lon="14.16879"><ele>2.0</ele><time>2026-05-01T07:13:24.459Z</time></trkpt><trkpt lat="42.5102075" lon="14.1688461"><ele>1.9999999999999998</ele><time>2026-05-01T07:13:25.46Z</time></trkpt><trkpt lat="42.5101482" lon="14.1689011"><ele>2.0</ele><time>2026-05-01T07:13:26.456Z</time></trkpt><trkpt lat="42.5100846" lon="14.1689509"><ele>1.8</ele><time>2026-05-01T07:13:27.456Z</time></trkpt><trkpt lat="42.5100203" lon="14.1689801"><ele>1.6</ele><time>2026-05-01T07:13:28.43Z</time></trkpt><trkpt lat="42.5099435" lon="14.1689687"><ele>1.4000000000000001</ele><time>2026-05-01T07:13:29.458Z</time></trkpt><trkpt lat="42.5098564" lon="14.1689079"><ele>1.2000000000000002</ele><time>2026-05-01T07:13:30.424Z</time></trkpt><trkpt lat="42.509779" lon="14.1687994"><ele>1.0</ele><time>2026-05-01T07:13:31.426Z</time></trkpt><trkpt lat="42.5097082" lon="14.1686595"><ele>1.0</ele><time>2026-05-01T07:13:32.45Z</time></trkpt><trkpt lat="42.5096359" lon="14.1685089"><ele>1.0</ele><time>2026-05-01T07:13:33.449Z</time></trkpt><trkpt lat="42.5095569" lon="14.1683641"><ele>1.0</ele><time>2026-05-01T07:13:34.45Z</time></trkpt><trkpt lat="42.5094696" lon="14.1682316"><ele>1.0</ele><time>2026-05-01T07:13:35.447Z</time></trkpt><trkpt lat="42.5093812" lon="14.1680922"><ele>1.5</ele><time>2026-05-01T07:13:36.43Z</time></trkpt><trkpt lat="42.5092878" lon="14.167946"><ele>2.0</ele><time>2026-05-01T07:13:37.424Z</time></trkpt><trkpt lat="42.5091864" lon="14.1677924"><ele>2.5</ele><time>2026-05-01T07:13:38.445Z</time></trkpt><trkpt lat="42.5090933" lon="14.1676419"><ele>3.0</ele><time>2026-05-01T07:13:39.424Z</time></trkpt><trkpt lat="42.5090011" lon="14.1674989"><ele>3.0</ele><time>2026-05-01T07:13:40.424Z</time></trkpt><trkpt lat="42.5089222" lon="14.1673236"><ele>3.0</ele><time>2026-05-01T07:13:41.423Z</time></trkpt><trkpt lat="42.5088437" lon="14.1672023"><ele>3.0</ele><time>2026-05-01T07:13:42.428Z</time></trkpt><trkpt lat="42.5087573" lon="14.167049"><ele>3.0</ele><time>2026-05-01T07:13:43.426Z</time></trkpt><trkpt lat="42.5086625" lon="14.1669114"><ele>2.75</ele><time>2026-05-01T07:13:44.427Z</time></trkpt><trkpt lat="42.5085751" lon="14.1667654"><ele>2.5</ele><time>2026-05-01T07:13:45.452Z</time></trkpt><trkpt lat="42.5084835" lon="14.1666184"><ele>2.25</ele><time>2026-05-01T07:13:46.444Z</time></trkpt><trkpt lat="42.5083985" lon="14.166479"><ele>2.0</ele><time>2026-05-01T07:13:47.447Z</time></trkpt><trkpt lat="42.5083079" lon="14.1663473"><ele>2.6</ele><time>2026-05-01T07:13:48.444Z</time></trkpt><trkpt lat="42.5082487" lon="14.1662688"><ele>3.2</ele><time>2026-05-01T07:13:49.423Z</time></trkpt><trkpt lat="42.5081955" lon="14.1661866"><ele>3.8</ele><time>2026-05-01T07:13:50.421Z</time></trkpt><trkpt lat="42.5081502" lon="14.1660957"><ele>4.4</ele><time>2026-05-01T07:13:51.448Z</time></trkpt><trkpt lat="42.5080622" lon="14.1659831"><ele>5.0</ele><time>2026-05-01T07:13:52.45Z</time></trkpt><trkpt lat="42.5079714" lon="14.165861"><ele>4.6</ele><time>2026-05-01T07:13:53.45Z</time></trkpt><trkpt lat="42.5079063" lon="14.1657528"><ele>4.2</ele><time>2026-05-01T07:13:54.424Z</time></trkpt><trkpt lat="42.5078454" lon="14.1656479"><ele>3.8</ele><time>2026-05-01T07:13:55.448Z</time></trkpt><trkpt lat="42.5077819" lon="14.1655371"><ele>3.4</ele><time>2026-05-01T07:13:56.423Z</time></trkpt><trkpt lat="42.5077161" lon="14.1654288"><ele>3.0</ele><time>2026-05-01T07:13:57.425Z</time></trkpt><trkpt lat="42.5076507" lon="14.1653266"><ele>3.0</ele><time>2026-05-01T07:13:58.427Z</time></trkpt><trkpt lat="42.5075843" lon="14.1652254"><ele>3.0</ele><time>2026-05-01T07:13:59.424Z</time></trkpt><trkpt lat="42.5075228" lon="14.1651284"><ele>3.0</ele><time>2026-05-01T07:14:00.448Z</time></trkpt><trkpt lat="42.5074551" lon="14.1650271"><ele>3.0</ele><time>2026-05-01T07:14:01.429Z</time></trkpt><trkpt lat="42.5073883" lon="14.1649354"><ele>3.0</ele><time>2026-05-01T07:14:02.429Z</time></trkpt><trkpt lat="42.5073312" lon="14.164849"><ele>2.8333333333333335</ele><time>2026-05-01T07:14:03.422Z</time></trkpt><trkpt lat="42.5072845" lon="14.1647772"><ele>2.6666666666666665</ele><time>2026-05-01T07:14:04.424Z</time></trkpt><trkpt lat="42.5072405" lon="14.1647083"><ele>2.5</ele><time>2026-05-01T07:14:05.451Z</time></trkpt><trkpt lat="42.5071891" lon="14.1646339"><ele>2.333333333333333</ele><time>2026-05-01T07:14:06.45Z</time></trkpt><trkpt lat="42.5071215" lon="14.1645486"><ele>2.1666666666666665</ele><time>2026-05-01T07:14:07.448Z</time></trkpt><trkpt lat="42.5070517" lon="14.1644534"><ele>2.0</ele><time>2026-05-01T07:14:08.451Z</time></trkpt><trkpt lat="42.5069821" lon="14.1643485"><ele>2.0</ele><time>2026-05-01T07:14:09.449Z</time></trkpt><trkpt lat="42.5069127" lon="14.1642296"><ele>2.0</ele><time>2026-05-01T07:14:10.448Z</time></trkpt><trkpt lat="42.5068346" lon="14.1641062"><ele>2.0</ele><time>2026-05-01T07:14:11.448Z</time></trkpt><trkpt lat="42.5067549" lon="14.1639806"><ele>2.0</ele><time>2026-05-01T07:14:12.45Z</time></trkpt><trkpt lat="42.5066843" lon="14.1638641"><ele>1.8</ele><time>2026-05-01T07:14:13.448Z</time></trkpt><trkpt lat="42.5066068" lon="14.1637462"><ele>1.6</ele><time>2026-05-01T07:14:14.449Z</time></trkpt><trkpt lat="42.5065308" lon="14.1636284"><ele>1.4000000000000001</ele><time>2026-05-01T07:14:15.453Z</time></trkpt><trkpt lat="42.5064622" lon="14.163518"><ele>1.2000000000000002</ele><time>2026-05-01T07:14:16.444Z</time></trkpt><trkpt lat="42.5063952" lon="14.1634137"><ele>1.0</ele><time>2026-05-01T07:14:17.448Z</time></trkpt><trkpt lat="42.5063263" lon="14.1633221"><ele>0.9999999999999999</ele><time>2026-05-01T07:14:18.447Z</time></trkpt><trkpt lat="42.506269" lon="14.163239"><ele>1.0</ele><time>2026-05-01T07:14:19.421Z</time></trkpt><trkpt lat="42.5062156" lon="14.1631611"><ele>1.0</ele><time>2026-05-01T07:14:20.424Z</time></trkpt><trkpt lat="42.5061645" lon="14.1630869"><ele>1.0</ele><time>2026-05-01T07:14:21.422Z</time></trkpt><trkpt lat="42.5060881" lon="14.1629854"><ele>0.9999999999999999</ele><time>2026-05-01T07:14:23.422Z</time></trkpt><trkpt lat="42.5060275" lon="14.1628987"><ele>1.0</ele><time>2026-05-01T07:14:35.416Z</time></trkpt><trkpt lat="42.5059858" lon="14.162826"><ele>1.2000000000000002</ele><time>2026-05-01T07:14:37.42Z</time></trkpt><trkpt lat="42.5058833" lon="14.162776"><ele>1.4000000000000001</ele><time>2026-05-01T07:14:39.428Z</time></trkpt><trkpt lat="42.5058101" lon="14.1628234"><ele>1.6</ele><time>2026-05-01T07:14:40.423Z</time></trkpt><trkpt lat="42.5057423" lon="14.1628946"><ele>1.8</ele><time>2026-05-01T07:14:41.425Z</time></trkpt><trkpt lat="42.5056779" lon="14.1629752"><ele>2.0</ele><time>2026-05-01T07:14:42.446Z</time></trkpt><trkpt lat="42.5056136" lon="14.1630699"><ele>2.0</ele><time>2026-05-01T07:14:43.45Z</time></trkpt><trkpt lat="42.5055384" lon="14.1631581"><ele>2.0</ele><time>2026-05-01T07:14:44.44Z</time></trkpt><trkpt lat="42.5054561" lon="14.1632641"><ele>2.0</ele><time>2026-05-01T07:14:45.439Z</time></trkpt><trkpt lat="42.5053517" lon="14.1633792"><ele>2.0</ele><time>2026-05-01T07:14:46.444Z</time></trkpt><trkpt lat="42.5052411" lon="14.1635023"><ele>2.333333333333333</ele><time>2026-05-01T07:14:47.446Z</time></trkpt><trkpt lat="42.505129" lon="14.1636356"><ele>2.6666666666666665</ele><time>2026-05-01T07:14:48.446Z</time></trkpt><trkpt lat="42.5049876" lon="14.1638078"><ele>3.0</ele><time>2026-05-01T07:14:49.445Z</time></trkpt><trkpt lat="42.5048566" lon="14.1639831"><ele>3.0</ele><time>2026-05-01T07:14:50.449Z</time></trkpt><trkpt lat="42.5047324" lon="14.1641429"><ele>3.0</ele><time>2026-05-01T07:14:51.452Z</time></trkpt><trkpt lat="42.5046159" lon="14.1642939"><ele>3.0</ele><time>2026-05-01T07:14:52.447Z</time></trkpt><trkpt lat="42.5045209" lon="14.1644383"><ele>3.0</ele><time>2026-05-01T07:14:53.424Z</time></trkpt><trkpt lat="42.504425" lon="14.16456"><ele>3.0</ele><time>2026-05-01T07:14:54.449Z</time></trkpt><trkpt lat="42.5043423" lon="14.164675"><ele>3.0</ele><time>2026-05-01T07:14:55.448Z</time></trkpt><trkpt lat="42.5042637" lon="14.1647772"><ele>3.0</ele><time>2026-05-01T07:14:56.448Z</time></trkpt><trkpt lat="42.5041738" lon="14.1648686"><ele>2.75</ele><time>2026-05-01T07:14:57.455Z</time></trkpt><trkpt lat="42.5040902" lon="14.1649727"><ele>2.5</ele><time>2026-05-01T07:14:58.455Z</time></trkpt><trkpt lat="42.5039967" lon="14.1650769"><ele>2.25</ele><time>2026-05-01T07:14:59.45Z</time></trkpt><trkpt lat="42.5039109" lon="14.1651864"><ele>2.0</ele><time>2026-05-01T07:15:00.454Z</time></trkpt><trkpt lat="42.5038234" lon="14.1652923"><ele>2.75</ele><time>2026-05-01T07:15:01.453Z</time></trkpt><trkpt lat="42.5037335" lon="14.1653957"><ele>3.5</ele><time>2026-05-01T07:15:02.43Z</time></trkpt><trkpt lat="42.5036448" lon="14.1654989"><ele>4.25</ele><time>2026-05-01T07:15:03.451Z</time></trkpt><trkpt lat="42.5035517" lon="14.1656025"><ele>5.0</ele><time>2026-05-01T07:15:04.452Z</time></trkpt><trkpt lat="42.5034576" lon="14.1657058"><ele>5.0</ele><time>2026-05-01T07:15:05.451Z</time></trkpt><trkpt lat="42.5033642" lon="14.1658125"><ele>5.0</ele><time>2026-05-01T07:15:06.449Z</time></trkpt><trkpt lat="42.5032806" lon="14.165914"><ele>5.0</ele><time>2026-05-01T07:15:07.45Z</time></trkpt><trkpt lat="42.5031936" lon="14.1660115"><ele>5.0</ele><time>2026-05-01T07:15:08.451Z</time></trkpt><trkpt lat="42.5031044" lon="14.166119"><ele>5.0</ele><time>2026-05-01T07:15:09.452Z</time></trkpt><trkpt lat="42.5030163" lon="14.1662221"><ele>5.0</ele><time>2026-05-01T07:15:10.448Z</time></trkpt><trkpt lat="42.5029371" lon="14.166317"><ele>5.0</ele><time>2026-05-01T07:15:11.449Z</time></trkpt><trkpt lat="42.5028673" lon="14.166397"><ele>5.0</ele><time>2026-05-01T07:15:12.451Z</time></trkpt><trkpt lat="42.5028086" lon="14.1664668"><ele>5.0</ele><time>2026-05-01T07:15:13.451Z</time></trkpt><trkpt lat="42.5027491" lon="14.1665331"><ele>4.8</ele><time>2026-05-01T07:15:14.45Z</time></trkpt><trkpt lat="42.5026838" lon="14.1666139"><ele>4.6</ele><time>2026-05-01T07:15:15.452Z</time></trkpt><trkpt lat="42.5026054" lon="14.1667052"><ele>4.4</ele><time>2026-05-01T07:15:16.427Z</time></trkpt><trkpt lat="42.502512" lon="14.1668114"><ele>4.2</ele><time>2026-05-01T07:15:17.433Z</time></trkpt><trkpt lat="42.5024129" lon="14.1669341"><ele>4.0</ele><time>2026-05-01T07:15:18.425Z</time></trkpt><trkpt lat="42.5023135" lon="14.1670554"><ele>4.0</ele><time>2026-05-01T07:15:19.451Z</time></trkpt><trkpt lat="42.5022134" lon="14.1671716"><ele>4.0</ele><time>2026-05-01T07:15:20.446Z</time></trkpt><trkpt lat="42.5021081" lon="14.1672916"><ele>4.0</ele><time>2026-05-01T07:15:21.445Z</time></trkpt><trkpt lat="42.5020078" lon="14.1674143"><ele>4.0</ele><time>2026-05-01T07:15:22.445Z</time></trkpt><trkpt lat="42.5019139" lon="14.1675334"><ele>4.0</ele><time>2026-05-01T07:15:23.45Z</time></trkpt><trkpt lat="42.5018125" lon="14.1676687"><ele>4.0</ele><time>2026-05-01T07:15:24.449Z</time></trkpt><trkpt lat="42.5017122" lon="14.1677973"><ele>4.0</ele><time>2026-05-01T07:15:25.45Z</time></trkpt><trkpt lat="42.5016309" lon="14.1679107"><ele>4.0</ele><time>2026-05-01T07:15:26.446Z</time></trkpt><trkpt lat="42.501544" lon="14.168015"><ele>4.0</ele><time>2026-05-01T07:15:27.451Z</time></trkpt><trkpt lat="42.5014578" lon="14.1681136"><ele>4.0</ele><time>2026-05-01T07:15:28.45Z</time></trkpt><trkpt lat="42.5013806" lon="14.1682059"><ele>4.0</ele><time>2026-05-01T07:15:29.43Z</time></trkpt><trkpt lat="42.5013074" lon="14.1682944"><ele>4.0</ele><time>2026-05-01T07:15:30.428Z</time></trkpt><trkpt lat="42.5012331" lon="14.1683861"><ele>4.0</ele><time>2026-05-01T07:15:31.451Z</time></trkpt><trkpt lat="42.5011606" lon="14.1684763"><ele>4.0</ele><time>2026-05-01T07:15:32.45Z</time></trkpt><trkpt lat="42.5010927" lon="14.1685634"><ele>4.0</ele><time>2026-05-01T07:15:33.45Z</time></trkpt><trkpt lat="42.5010217" lon="14.168649"><ele>4.0</ele><time>2026-05-01T07:15:34.451Z</time></trkpt><trkpt lat="42.5009492" lon="14.1687347"><ele>4.0</ele><time>2026-05-01T07:15:35.43Z</time></trkpt><trkpt lat="42.5008744" lon="14.1688252"><ele>4.0</ele><time>2026-05-01T07:15:36.449Z</time></trkpt><trkpt lat="42.5007972" lon="14.1689092"><ele>3.9999999999999996</ele><time>2026-05-01T07:15:37.447Z</time></trkpt><trkpt lat="42.5007265" lon="14.1689829"><ele>4.0</ele><time>2026-05-01T07:15:38.445Z</time></trkpt><trkpt lat="42.5006595" lon="14.1690555"><ele>4.0</ele><time>2026-05-01T07:15:39.421Z</time></trkpt><trkpt lat="42.500596" lon="14.1691332"><ele>4.0</ele><time>2026-05-01T07:15:40.444Z</time></trkpt><trkpt lat="42.5005298" lon="14.1692159"><ele>3.9999999999999996</ele><time>2026-05-01T07:15:41.444Z</time></trkpt><trkpt lat="42.5004645" lon="14.169295"><ele>4.0</ele><time>2026-05-01T07:15:42.446Z</time></trkpt><trkpt lat="42.5003999" lon="14.1693676"><ele>3.8000000000000003</ele><time>2026-05-01T07:15:43.446Z</time></trkpt><trkpt lat="42.5003318" lon="14.1694439"><ele>3.6000000000000005</ele><time>2026-05-01T07:15:44.427Z</time></trkpt><trkpt lat="42.5002607" lon="14.1695216"><ele>3.4</ele><time>2026-05-01T07:15:45.446Z</time></trkpt><trkpt lat="42.500191" lon="14.1696018"><ele>3.2</ele><time>2026-05-01T07:15:46.447Z</time></trkpt><trkpt lat="42.5001213" lon="14.1696821"><ele>3.0</ele><time>2026-05-01T07:15:47.451Z</time></trkpt><trkpt lat="42.5000545" lon="14.169766"><ele>3.0</ele><time>2026-05-01T07:15:48.45Z</time></trkpt><trkpt lat="42.4999847" lon="14.1698509"><ele>3.0</ele><time>2026-05-01T07:15:49.455Z</time></trkpt><trkpt lat="42.4999159" lon="14.1699417"><ele>3.0</ele><time>2026-05-01T07:15:50.447Z</time></trkpt><trkpt lat="42.4998442" lon="14.1700403"><ele>3.0</ele><time>2026-05-01T07:15:51.45Z</time></trkpt><trkpt lat="42.4997787" lon="14.1701336"><ele>3.0</ele><time>2026-05-01T07:15:52.447Z</time></trkpt><trkpt lat="42.4997197" lon="14.1702206"><ele>3.0</ele><time>2026-05-01T07:15:53.45Z</time></trkpt><trkpt lat="42.4996593" lon="14.1703021"><ele>3.0</ele><time>2026-05-01T07:15:54.446Z</time></trkpt><trkpt lat="42.4995901" lon="14.1703985"><ele>3.0</ele><time>2026-05-01T07:15:55.421Z</time></trkpt><trkpt lat="42.499509" lon="14.1705097"><ele>3.0</ele><time>2026-05-01T07:15:56.418Z</time></trkpt><trkpt lat="42.4994133" lon="14.1706442"><ele>3.0</ele><time>2026-05-01T07:15:57.444Z</time></trkpt><trkpt lat="42.4992944" lon="14.1707869"><ele>3.333333333333333</ele><time>2026-05-01T07:15:58.437Z</time></trkpt><trkpt lat="42.4991231" lon="14.170931"><ele>3.6666666666666665</ele><time>2026-05-01T07:15:59.45Z</time></trkpt><trkpt lat="42.4989926" lon="14.1711017"><ele>4.0</ele><time>2026-05-01T07:16:00.446Z</time></trkpt><trkpt lat="42.4988738" lon="14.1712515"><ele>4.0</ele><time>2026-05-01T07:16:01.454Z</time></trkpt><trkpt lat="42.4987634" lon="14.1713779"><ele>4.0</ele><time>2026-05-01T07:16:02.454Z</time></trkpt><trkpt lat="42.4986541" lon="14.1715314"><ele>4.0</ele><time>2026-05-01T07:16:03.429Z</time></trkpt><trkpt lat="42.4985362" lon="14.1716804"><ele>3.6666666666666665</ele><time>2026-05-01T07:16:04.45Z</time></trkpt><trkpt lat="42.4984206" lon="14.1718357"><ele>3.333333333333333</ele><time>2026-05-01T07:16:05.453Z</time></trkpt><trkpt lat="42.4982948" lon="14.1719656"><ele>3.0</ele><time>2026-05-01T07:16:06.455Z</time></trkpt><trkpt lat="42.4981724" lon="14.1721092"><ele>3.0</ele><time>2026-05-01T07:16:07.451Z</time></trkpt><trkpt lat="42.4980556" lon="14.172262"><ele>3.0</ele><time>2026-05-01T07:16:08.449Z</time></trkpt><trkpt lat="42.4979387" lon="14.1723883"><ele>3.0</ele><time>2026-05-01T07:16:09.45Z</time></trkpt><trkpt lat="42.4978407" lon="14.1725044"><ele>3.0</ele><time>2026-05-01T07:16:10.449Z</time></trkpt><trkpt lat="42.4977451" lon="14.1726089"><ele>3.5</ele><time>2026-05-01T07:16:11.451Z</time></trkpt><trkpt lat="42.4976513" lon="14.1727203"><ele>4.0</ele><time>2026-05-01T07:16:12.45Z</time></trkpt><trkpt lat="42.4975581" lon="14.1728231"><ele>4.5</ele><time>2026-05-01T07:16:13.426Z</time></trkpt><trkpt lat="42.4974757" lon="14.1729179"><ele>5.0</ele><time>2026-05-01T07:16:14.429Z</time></trkpt><trkpt lat="42.497394" lon="14.1730147"><ele>5.0</ele><time>2026-05-01T07:16:15.426Z</time></trkpt><trkpt lat="42.4973066" lon="14.1731223"><ele>5.0</ele><time>2026-05-01T07:16:16.426Z</time></trkpt><trkpt lat="42.4972209" lon="14.1732336"><ele>5.0</ele><time>2026-05-01T07:16:17.426Z</time></trkpt><trkpt lat="42.4971458" lon="14.1733352"><ele>5.0</ele><time>2026-05-01T07:16:18.423Z</time></trkpt><trkpt lat="42.4970733" lon="14.1734281"><ele>5.0</ele><time>2026-05-01T07:16:19.426Z</time></trkpt><trkpt lat="42.4970064" lon="14.1735084"><ele>5.0</ele><time>2026-05-01T07:16:20.424Z</time></trkpt><trkpt lat="42.4969426" lon="14.1735789"><ele>5.0</ele><time>2026-05-01T07:16:21.448Z</time></trkpt><trkpt lat="42.4968891" lon="14.1736477"><ele>5.0</ele><time>2026-05-01T07:16:22.446Z</time></trkpt><trkpt lat="42.4968408" lon="14.1737128"><ele>5.0</ele><time>2026-05-01T07:16:23.451Z</time></trkpt><trkpt lat="42.4967915" lon="14.1737824"><ele>5.0</ele><time>2026-05-01T07:16:24.422Z</time></trkpt><trkpt lat="42.4967476" lon="14.1738536"><ele>5.0</ele><time>2026-05-01T07:16:25.443Z</time></trkpt><trkpt lat="42.4967244" lon="14.1739396"><ele>5.0</ele><time>2026-05-01T07:16:26.444Z</time></trkpt><trkpt lat="42.4967368" lon="14.1740304"><ele>4.6</ele><time>2026-05-01T07:16:27.443Z</time></trkpt><trkpt lat="42.496784" lon="14.1741244"><ele>4.2</ele><time>2026-05-01T07:16:28.42Z</time></trkpt><trkpt lat="42.4968628" lon="14.1742281"><ele>3.8</ele><time>2026-05-01T07:16:29.42Z</time></trkpt><trkpt lat="42.4969465" lon="14.1743468"><ele>3.4</ele><time>2026-05-01T07:16:30.421Z</time></trkpt><trkpt lat="42.4970229" lon="14.1744654"><ele>3.0</ele><time>2026-05-01T07:16:31.424Z</time></trkpt><trkpt lat="42.4971037" lon="14.1745835"><ele>3.0</ele><time>2026-05-01T07:16:32.423Z</time></trkpt><trkpt lat="42.4971883" lon="14.1747073"><ele>3.0</ele><time>2026-05-01T07:16:33.441Z</time></trkpt><trkpt lat="42.4972715" lon="14.1748302"><ele>3.0</ele><time>2026-05-01T07:16:34.394Z</time></trkpt><trkpt lat="42.4973509" lon="14.1749457"><ele>3.0</ele><time>2026-05-01T07:16:35.424Z</time></trkpt><trkpt lat="42.4974332" lon="14.1750652"><ele>3.0</ele><time>2026-05-01T07:16:36.446Z</time></trkpt><trkpt lat="42.497519" lon="14.1751892"><ele>3.0</ele><time>2026-05-01T07:16:37.431Z</time></trkpt><trkpt lat="42.4976034" lon="14.1753103"><ele>3.0</ele><time>2026-05-01T07:16:38.424Z</time></trkpt><trkpt lat="42.4976821" lon="14.1754311"><ele>3.0</ele><time>2026-05-01T07:16:39.428Z</time></trkpt><trkpt lat="42.4977546" lon="14.1755443"><ele>3.0</ele><time>2026-05-01T07:16:40.423Z</time></trkpt><trkpt lat="42.4978194" lon="14.1756558"><ele>3.0</ele><time>2026-05-01T07:16:41.424Z</time></trkpt><trkpt lat="42.4978807" lon="14.1757572"><ele>3.0</ele><time>2026-05-01T07:16:42.441Z</time></trkpt><trkpt lat="42.4979343" lon="14.1758496"><ele>3.0</ele><time>2026-05-01T07:16:43.418Z</time></trkpt><trkpt lat="42.4979875" lon="14.1759287"><ele>3.0</ele><time>2026-05-01T07:16:44.447Z</time></trkpt><trkpt lat="42.4980448" lon="14.1760022"><ele>3.0</ele><time>2026-05-01T07:16:45.426Z</time></trkpt><trkpt lat="42.4980953" lon="14.1760678"><ele>3.2</ele><time>2026-05-01T07:16:46.418Z</time></trkpt><trkpt lat="42.4981424" lon="14.1761484"><ele>3.4</ele><time>2026-05-01T07:16:47.441Z</time></trkpt><trkpt lat="42.4982026" lon="14.1762388"><ele>3.6000000000000005</ele><time>2026-05-01T07:16:48.44Z</time></trkpt><trkpt lat="42.4982791" lon="14.1763477"><ele>3.8000000000000003</ele><time>2026-05-01T07:16:49.419Z</time></trkpt><trkpt lat="42.4983632" lon="14.1764728"><ele>4.0</ele><time>2026-05-01T07:16:50.45Z</time></trkpt><trkpt lat="42.4984436" lon="14.1765941"><ele>4.2</ele><time>2026-05-01T07:16:51.421Z</time></trkpt><trkpt lat="42.4985143" lon="14.1767022"><ele>4.4</ele><time>2026-05-01T07:16:52.417Z</time></trkpt><trkpt lat="42.4985848" lon="14.1768087"><ele>4.6</ele><time>2026-05-01T07:16:53.439Z</time></trkpt><trkpt lat="42.498659" lon="14.1769182"><ele>4.8</ele><time>2026-05-01T07:16:54.412Z</time></trkpt><trkpt lat="42.4987375" lon="14.1770275"><ele>5.0</ele><time>2026-05-01T07:16:55.417Z</time></trkpt><trkpt lat="42.4988022" lon="14.1771493"><ele>5.0</ele><time>2026-05-01T07:16:56.417Z</time></trkpt><trkpt lat="42.4988636" lon="14.1772498"><ele>5.0</ele><time>2026-05-01T07:16:57.421Z</time></trkpt><trkpt lat="42.4989211" lon="14.1773459"><ele>5.0</ele><time>2026-05-01T07:16:58.418Z</time></trkpt><trkpt lat="42.4989887" lon="14.1774517"><ele>5.0</ele><time>2026-05-01T07:16:59.421Z</time></trkpt><trkpt lat="42.4990597" lon="14.1775663"><ele>5.0</ele><time>2026-05-01T07:17:00.416Z</time></trkpt><trkpt lat="42.4991354" lon="14.1776801"><ele>5.2</ele><time>2026-05-01T07:17:01.418Z</time></trkpt><trkpt lat="42.4992048" lon="14.177787"><ele>5.4</ele><time>2026-05-01T07:17:02.441Z</time></trkpt><trkpt lat="42.4992703" lon="14.1778897"><ele>5.6</ele><time>2026-05-01T07:17:03.414Z</time></trkpt><trkpt lat="42.4993285" lon="14.1779858"><ele>5.8</ele><time>2026-05-01T07:17:04.411Z</time></trkpt><trkpt lat="42.4993815" lon="14.1780863"><ele>6.0</ele><time>2026-05-01T07:17:05.415Z</time></trkpt><trkpt lat="42.4994384" lon="14.1781777"><ele>5.833333333333333</ele><time>2026-05-01T07:17:06.415Z</time></trkpt><trkpt lat="42.499492" lon="14.1782665"><ele>5.666666666666667</ele><time>2026-05-01T07:17:07.417Z</time></trkpt><trkpt lat="42.4995468" lon="14.1783533"><ele>5.5</ele><time>2026-05-01T07:17:08.428Z</time></trkpt><trkpt lat="42.4995941" lon="14.1784404"><ele>5.333333333333334</ele><time>2026-05-01T07:17:09.421Z</time></trkpt><trkpt lat="42.4996396" lon="14.1785089"><ele>5.166666666666667</ele><time>2026-05-01T07:17:10.426Z</time></trkpt><trkpt lat="42.4997217" lon="14.1786094"><ele>5.0</ele><time>2026-05-01T07:17:12.427Z</time></trkpt><trkpt lat="42.4997348" lon="14.1787314"><ele>5.0</ele><time>2026-05-01T07:17:14.432Z</time></trkpt><trkpt lat="42.4996807" lon="14.1788449"><ele>5.0</ele><time>2026-05-01T07:17:16.403Z</time></trkpt><trkpt lat="42.4996218" lon="14.17891"><ele>5.0</ele><time>2026-05-01T07:17:17.422Z</time></trkpt><trkpt lat="42.4995383" lon="14.1789948"><ele>5.0</ele><time>2026-05-01T07:17:18.425Z</time></trkpt><trkpt lat="42.4994396" lon="14.1790909"><ele>5.0</ele><time>2026-05-01T07:17:19.452Z</time></trkpt><trkpt lat="42.4993425" lon="14.1791839"><ele>4.75</ele><time>2026-05-01T07:17:20.452Z</time></trkpt><trkpt lat="42.4992413" lon="14.1792824"><ele>4.5</ele><time>2026-05-01T07:17:21.46Z</time></trkpt><trkpt lat="42.4991319" lon="14.1793848"><ele>4.25</ele><time>2026-05-01T07:17:22.456Z</time></trkpt><trkpt lat="42.4990175" lon="14.1794888"><ele>4.0</ele><time>2026-05-01T07:17:23.452Z</time></trkpt><trkpt lat="42.4988914" lon="14.1795933"><ele>4.0</ele><time>2026-05-01T07:17:24.426Z</time></trkpt><trkpt lat="42.4987715" lon="14.1797064"><ele>4.0</ele><time>2026-05-01T07:17:25.451Z</time></trkpt><trkpt lat="42.4986817" lon="14.1798241"><ele>4.0</ele><time>2026-05-01T07:17:26.432Z</time></trkpt><trkpt lat="42.4985778" lon="14.1799273"><ele>4.0</ele><time>2026-05-01T07:17:27.432Z</time></trkpt><trkpt lat="42.4984653" lon="14.1800208"><ele>4.25</ele><time>2026-05-01T07:17:28.452Z</time></trkpt><trkpt lat="42.4983533" lon="14.1801276"><ele>4.5</ele><time>2026-05-01T07:17:29.456Z</time></trkpt><trkpt lat="42.4982314" lon="14.1802577"><ele>4.75</ele><time>2026-05-01T07:17:30.431Z</time></trkpt><trkpt lat="42.4981079" lon="14.1803742"><ele>5.0</ele><time>2026-05-01T07:17:31.431Z</time></trkpt><trkpt lat="42.4979916" lon="14.1804968"><ele>5.333333333333334</ele><time>2026-05-01T07:17:32.435Z</time></trkpt><trkpt lat="42.4978682" lon="14.1806023"><ele>5.666666666666667</ele><time>2026-05-01T07:17:33.454Z</time></trkpt><trkpt lat="42.4977486" lon="14.1807356"><ele>6.0</ele><time>2026-05-01T07:17:34.458Z</time></trkpt><trkpt lat="42.4976351" lon="14.1808675"><ele>6.0</ele><time>2026-05-01T07:17:35.429Z</time></trkpt><trkpt lat="42.4975303" lon="14.1809964"><ele>6.0</ele><time>2026-05-01T07:17:36.431Z</time></trkpt><trkpt lat="42.4974211" lon="14.1811281"><ele>6.0</ele><time>2026-05-01T07:17:37.429Z</time></trkpt><trkpt lat="42.4972982" lon="14.1812354"><ele>6.0</ele><time>2026-05-01T07:17:38.431Z</time></trkpt><trkpt lat="42.4971827" lon="14.1813503"><ele>5.75</ele><time>2026-05-01T07:17:39.432Z</time></trkpt><trkpt lat="42.4970683" lon="14.1814607"><ele>5.5</ele><time>2026-05-01T07:17:40.407Z</time></trkpt><trkpt lat="42.4969568" lon="14.1815831"><ele>5.25</ele><time>2026-05-01T07:17:41.414Z</time></trkpt><trkpt lat="42.4968486" lon="14.1816875"><ele>5.0</ele><time>2026-05-01T07:17:42.407Z</time></trkpt><trkpt lat="42.4967322" lon="14.1817838"><ele>5.0</ele><time>2026-05-01T07:17:43.433Z</time></trkpt><trkpt lat="42.4966237" lon="14.1818995"><ele>5.0</ele><time>2026-05-01T07:17:44.409Z</time></trkpt><trkpt lat="42.4965195" lon="14.1820207"><ele>5.0</ele><time>2026-05-01T07:17:45.432Z</time></trkpt><trkpt lat="42.4963944" lon="14.1821414"><ele>5.0</ele><time>2026-05-01T07:17:46.433Z</time></trkpt><trkpt lat="42.4962882" lon="14.1822312"><ele>4.6</ele><time>2026-05-01T07:17:47.425Z</time></trkpt><trkpt lat="42.4962116" lon="14.18232"><ele>4.2</ele><time>2026-05-01T07:17:48.449Z</time></trkpt><trkpt lat="42.4961406" lon="14.1823601"><ele>3.8</ele><time>2026-05-01T07:17:50.425Z</time></trkpt><trkpt lat="42.4960902" lon="14.1824613"><ele>3.4</ele><time>2026-05-01T07:17:53.451Z</time></trkpt><trkpt lat="42.4960316" lon="14.1825254"><ele>3.0</ele><time>2026-05-01T07:17:54.431Z</time></trkpt><trkpt lat="42.4959392" lon="14.182625"><ele>2.6666666666666665</ele><time>2026-05-01T07:17:55.423Z</time></trkpt><trkpt lat="42.4958371" lon="14.1827582"><ele>2.333333333333333</ele><time>2026-05-01T07:17:56.453Z</time></trkpt><trkpt lat="42.4956949" lon="14.1829053"><ele>2.0</ele><time>2026-05-01T07:17:57.423Z</time></trkpt><trkpt lat="42.4954862" lon="14.1830862"><ele>3.5</ele><time>2026-05-01T07:17:58.441Z</time></trkpt><trkpt lat="42.4952876" lon="14.183303"><ele>5.0</ele><time>2026-05-01T07:17:59.44Z</time></trkpt><trkpt lat="42.4950932" lon="14.1835248"><ele>5.0</ele><time>2026-05-01T07:18:00.447Z</time></trkpt><trkpt lat="42.4948947" lon="14.1837172"><ele>5.0</ele><time>2026-05-01T07:18:01.424Z</time></trkpt><trkpt lat="42.4947281" lon="14.183881"><ele>5.0</ele><time>2026-05-01T07:18:02.419Z</time></trkpt><trkpt lat="42.4945794" lon="14.1840226"><ele>5.0</ele><time>2026-05-01T07:18:03.419Z</time></trkpt><trkpt lat="42.4944222" lon="14.1841731"><ele>5.0</ele><time>2026-05-01T07:18:04.423Z</time></trkpt><trkpt lat="42.4942884" lon="14.1843243"><ele>5.0</ele><time>2026-05-01T07:18:05.431Z</time></trkpt><trkpt lat="42.494156" lon="14.1844574"><ele>5.0</ele><time>2026-05-01T07:18:06.452Z</time></trkpt><trkpt lat="42.4940388" lon="14.1845972"><ele>5.0</ele><time>2026-05-01T07:18:07.431Z</time></trkpt><trkpt lat="42.4939166" lon="14.1847209"><ele>5.0</ele><time>2026-05-01T07:18:08.435Z</time></trkpt><trkpt lat="42.4937995" lon="14.184845"><ele>5.0</ele><time>2026-05-01T07:18:09.431Z</time></trkpt><trkpt lat="42.4936936" lon="14.1849533"><ele>5.0</ele><time>2026-05-01T07:18:10.456Z</time></trkpt><trkpt lat="42.4936002" lon="14.185064"><ele>5.0</ele><time>2026-05-01T07:18:11.452Z</time></trkpt><trkpt lat="42.493506" lon="14.1851655"><ele>4.8</ele><time>2026-05-01T07:18:12.454Z</time></trkpt><trkpt lat="42.4934291" lon="14.1852628"><ele>4.6</ele><time>2026-05-01T07:18:13.456Z</time></trkpt><trkpt lat="42.4933538" lon="14.1853451"><ele>4.4</ele><time>2026-05-01T07:18:14.458Z</time></trkpt><trkpt lat="42.4932591" lon="14.1854315"><ele>4.2</ele><time>2026-05-01T07:18:15.454Z</time></trkpt><trkpt lat="42.4931584" lon="14.1855408"><ele>4.0</ele><time>2026-05-01T07:18:16.456Z</time></trkpt><trkpt lat="42.4930621" lon="14.1856424"><ele>4.5</ele><time>2026-05-01T07:18:17.454Z</time></trkpt><trkpt lat="42.4929634" lon="14.1857502"><ele>5.0</ele><time>2026-05-01T07:18:18.458Z</time></trkpt><trkpt lat="42.4928681" lon="14.1858734"><ele>5.5</ele><time>2026-05-01T07:18:19.454Z</time></trkpt><trkpt lat="42.4927648" lon="14.1859961"><ele>6.0</ele><time>2026-05-01T07:18:20.458Z</time></trkpt><trkpt lat="42.4926569" lon="14.1861202"><ele>6.0</ele><time>2026-05-01T07:18:21.454Z</time></trkpt><trkpt lat="42.4925337" lon="14.1862428"><ele>6.0</ele><time>2026-05-01T07:18:22.453Z</time></trkpt><trkpt lat="42.492436" lon="14.1863426"><ele>6.0</ele><time>2026-05-01T07:18:23.457Z</time></trkpt><trkpt lat="42.4923209" lon="14.1864574"><ele>6.0</ele><time>2026-05-01T07:18:24.459Z</time></trkpt><trkpt lat="42.4922159" lon="14.1865884"><ele>5.5</ele><time>2026-05-01T07:18:25.46Z</time></trkpt><trkpt lat="42.4921122" lon="14.186694"><ele>5.0</ele><time>2026-05-01T07:18:26.437Z</time></trkpt><trkpt lat="42.4920046" lon="14.1867984"><ele>4.5</ele><time>2026-05-01T07:18:27.439Z</time></trkpt><trkpt lat="42.4919044" lon="14.1869292"><ele>4.0</ele><time>2026-05-01T07:18:28.441Z</time></trkpt><trkpt lat="42.4917959" lon="14.1870598"><ele>4.0</ele><time>2026-05-01T07:18:29.438Z</time></trkpt><trkpt lat="42.4916744" lon="14.1871868"><ele>4.0</ele><time>2026-05-01T07:18:30.436Z</time></trkpt><trkpt lat="42.4915571" lon="14.1873093"><ele>4.0</ele><time>2026-05-01T07:18:31.438Z</time></trkpt><trkpt lat="42.4914514" lon="14.1874191"><ele>4.0</ele><time>2026-05-01T07:18:32.434Z</time></trkpt><trkpt lat="42.4913331" lon="14.1875395"><ele>4.25</ele><time>2026-05-01T07:18:33.432Z</time></trkpt><trkpt lat="42.49124" lon="14.1876512"><ele>4.5</ele><time>2026-05-01T07:18:34.432Z</time></trkpt><trkpt lat="42.491169" lon="14.1877421"><ele>4.75</ele><time>2026-05-01T07:18:35.43Z</time></trkpt><trkpt lat="42.4910702" lon="14.1878448"><ele>5.0</ele><time>2026-05-01T07:18:36.436Z</time></trkpt><trkpt lat="42.4909752" lon="14.1879575"><ele>5.0</ele><time>2026-05-01T07:18:37.432Z</time></trkpt><trkpt lat="42.4908665" lon="14.18807"><ele>5.0</ele><time>2026-05-01T07:18:38.454Z</time></trkpt><trkpt lat="42.4907594" lon="14.188199"><ele>5.0</ele><time>2026-05-01T07:18:39.455Z</time></trkpt><trkpt lat="42.4906458" lon="14.188317"><ele>5.0</ele><time>2026-05-01T07:18:40.458Z</time></trkpt><trkpt lat="42.4905262" lon="14.1884447"><ele>5.25</ele><time>2026-05-01T07:18:41.456Z</time></trkpt><trkpt lat="42.4904113" lon="14.1885691"><ele>5.5</ele><time>2026-05-01T07:18:42.455Z</time></trkpt><trkpt lat="42.4903111" lon="14.1886964"><ele>5.75</ele><time>2026-05-01T07:18:43.432Z</time></trkpt><trkpt lat="42.4902181" lon="14.1887854"><ele>6.0</ele><time>2026-05-01T07:18:44.437Z</time></trkpt><trkpt lat="42.4901182" lon="14.1889031"><ele>5.25</ele><time>2026-05-01T07:18:45.457Z</time></trkpt><trkpt lat="42.4900204" lon="14.1890197"><ele>4.5</ele><time>2026-05-01T07:18:46.459Z</time></trkpt><trkpt lat="42.4899297" lon="14.1891111"><ele>3.75</ele><time>2026-05-01T07:18:47.435Z</time></trkpt><trkpt lat="42.4898214" lon="14.1892203"><ele>3.0</ele><time>2026-05-01T07:18:48.457Z</time></trkpt><trkpt lat="42.489714" lon="14.1893307"><ele>3.0</ele><time>2026-05-01T07:18:49.458Z</time></trkpt><trkpt lat="42.4896054" lon="14.1894464"><ele>3.0</ele><time>2026-05-01T07:18:50.456Z</time></trkpt><trkpt lat="42.4894895" lon="14.1895702"><ele>3.0</ele><time>2026-05-01T07:18:51.456Z</time></trkpt><trkpt lat="42.4893951" lon="14.1896783"><ele>3.0</ele><time>2026-05-01T07:18:52.457Z</time></trkpt><trkpt lat="42.4892857" lon="14.1897769"><ele>2.75</ele><time>2026-05-01T07:18:53.455Z</time></trkpt><trkpt lat="42.4891776" lon="14.1898907"><ele>2.5</ele><time>2026-05-01T07:18:54.436Z</time></trkpt><trkpt lat="42.4890661" lon="14.190024"><ele>2.25</ele><time>2026-05-01T07:18:55.456Z</time></trkpt><trkpt lat="42.488962" lon="14.1901456"><ele>2.0</ele><time>2026-05-01T07:18:56.453Z</time></trkpt><trkpt lat="42.4888425" lon="14.1902833"><ele>2.25</ele><time>2026-05-01T07:18:57.451Z</time></trkpt><trkpt lat="42.4887363" lon="14.1903967"><ele>2.5</ele><time>2026-05-01T07:18:58.435Z</time></trkpt><trkpt lat="42.4886513" lon="14.190517"><ele>2.75</ele><time>2026-05-01T07:18:59.426Z</time></trkpt><trkpt lat="42.488539" lon="14.1906497"><ele>3.0</ele><time>2026-05-01T07:19:00.431Z</time></trkpt><trkpt lat="42.4884357" lon="14.1907568"><ele>3.5</ele><time>2026-05-01T07:19:01.432Z</time></trkpt><trkpt lat="42.4883349" lon="14.190867"><ele>4.0</ele><time>2026-05-01T07:19:02.423Z</time></trkpt><trkpt lat="42.4882326" lon="14.190942"><ele>4.5</ele><time>2026-05-01T07:19:03.426Z</time></trkpt><trkpt lat="42.4881412" lon="14.1910494"><ele>5.0</ele><time>2026-05-01T07:19:04.427Z</time></trkpt><trkpt lat="42.4880057" lon="14.191154"><ele>5.25</ele><time>2026-05-01T07:19:05.433Z</time></trkpt><trkpt lat="42.4878965" lon="14.1912683"><ele>5.5</ele><time>2026-05-01T07:19:06.431Z</time></trkpt><trkpt lat="42.4877783" lon="14.1913904"><ele>5.75</ele><time>2026-05-01T07:19:07.455Z</time></trkpt><trkpt lat="42.4876659" lon="14.191534"><ele>6.0</ele><time>2026-05-01T07:19:08.455Z</time></trkpt><trkpt lat="42.4875549" lon="14.1916762"><ele>6.0</ele><time>2026-05-01T07:19:09.448Z</time></trkpt><trkpt lat="42.4874475" lon="14.1918075"><ele>6.0</ele><time>2026-05-01T07:19:10.446Z</time></trkpt><trkpt lat="42.4873283" lon="14.1919296"><ele>6.0</ele><time>2026-05-01T07:19:11.447Z</time></trkpt><trkpt lat="42.4872212" lon="14.1920622"><ele>6.0</ele><time>2026-05-01T07:19:12.447Z</time></trkpt><trkpt lat="42.4871103" lon="14.1921903"><ele>5.25</ele><time>2026-05-01T07:19:13.451Z</time></trkpt><trkpt lat="42.4869968" lon="14.1923244"><ele>4.5</ele><time>2026-05-01T07:19:14.45Z</time></trkpt><trkpt lat="42.486877" lon="14.1924548"><ele>3.75</ele><time>2026-05-01T07:19:15.449Z</time></trkpt><trkpt lat="42.4867593" lon="14.1925667"><ele>3.0</ele><time>2026-05-01T07:19:16.45Z</time></trkpt><trkpt lat="42.486638" lon="14.1926959"><ele>3.0</ele><time>2026-05-01T07:19:17.459Z</time></trkpt><trkpt lat="42.4865306" lon="14.1928095"><ele>3.0</ele><time>2026-05-01T07:19:18.456Z</time></trkpt><trkpt lat="42.4864218" lon="14.1929331"><ele>3.0</ele><time>2026-05-01T07:19:19.456Z</time></trkpt><trkpt lat="42.4863134" lon="14.1930553"><ele>3.0</ele><time>2026-05-01T07:19:20.463Z</time></trkpt><trkpt lat="42.4861927" lon="14.193145"><ele>3.25</ele><time>2026-05-01T07:19:21.437Z</time></trkpt><trkpt lat="42.4860782" lon="14.1932476"><ele>3.5</ele><time>2026-05-01T07:19:22.434Z</time></trkpt><trkpt lat="42.4859663" lon="14.1933654"><ele>3.75</ele><time>2026-05-01T07:19:23.434Z</time></trkpt><trkpt lat="42.4858505" lon="14.1934883"><ele>4.0</ele><time>2026-05-01T07:19:24.457Z</time></trkpt><trkpt lat="42.4857308" lon="14.1936067"><ele>4.0</ele><time>2026-05-01T07:19:25.452Z</time></trkpt><trkpt lat="42.4856353" lon="14.1937418"><ele>4.0</ele><time>2026-05-01T07:19:26.457Z</time></trkpt><trkpt lat="42.4855329" lon="14.1938652"><ele>4.0</ele><time>2026-05-01T07:19:27.458Z</time></trkpt><trkpt lat="42.4854371" lon="14.193992"><ele>4.0</ele><time>2026-05-01T07:19:28.452Z</time></trkpt><trkpt lat="42.485326" lon="14.1941263"><ele>3.75</ele><time>2026-05-01T07:19:29.452Z</time></trkpt><trkpt lat="42.4852236" lon="14.1942514"><ele>3.5</ele><time>2026-05-01T07:19:30.472Z</time></trkpt><trkpt lat="42.4851174" lon="14.194381"><ele>3.25</ele><time>2026-05-01T07:19:31.496Z</time></trkpt><trkpt lat="42.4850063" lon="14.1945097"><ele>3.0</ele><time>2026-05-01T07:19:32.496Z</time></trkpt><trkpt lat="42.4848978" lon="14.1946484"><ele>3.0</ele><time>2026-05-01T07:19:33.495Z</time></trkpt><trkpt lat="42.4847931" lon="14.1947692"><ele>3.0</ele><time>2026-05-01T07:19:34.497Z</time></trkpt><trkpt lat="42.4846834" lon="14.1948804"><ele>3.0</ele><time>2026-05-01T07:19:35.496Z</time></trkpt><trkpt lat="42.4845905" lon="14.1949871"><ele>3.0</ele><time>2026-05-01T07:19:36.496Z</time></trkpt><trkpt lat="42.4844988" lon="14.1951151"><ele>2.75</ele><time>2026-05-01T07:19:37.496Z</time></trkpt><trkpt lat="42.4843985" lon="14.1952433"><ele>2.5</ele><time>2026-05-01T07:19:38.5Z</time></trkpt><trkpt lat="42.4843085" lon="14.195401"><ele>2.25</ele><time>2026-05-01T07:19:39.473Z</time></trkpt><trkpt lat="42.4842108" lon="14.1955246"><ele>2.0</ele><time>2026-05-01T07:19:40.479Z</time></trkpt><trkpt lat="42.4841221" lon="14.1956574"><ele>1.75</ele><time>2026-05-01T07:19:41.474Z</time></trkpt><trkpt lat="42.4840237" lon="14.195783"><ele>1.5</ele><time>2026-05-01T07:19:42.474Z</time></trkpt><trkpt lat="42.4839338" lon="14.1959106"><ele>1.25</ele><time>2026-05-01T07:19:43.48Z</time></trkpt><trkpt lat="42.4838557" lon="14.1960367"><ele>1.0</ele><time>2026-05-01T07:19:44.474Z</time></trkpt><trkpt lat="42.4837572" lon="14.1961642"><ele>2.0</ele><time>2026-05-01T07:19:45.472Z</time></trkpt><trkpt lat="42.4836652" lon="14.1962872"><ele>3.0</ele><time>2026-05-01T07:19:46.475Z</time></trkpt><trkpt lat="42.4835677" lon="14.1964094"><ele>4.0</ele><time>2026-05-01T07:19:47.496Z</time></trkpt><trkpt lat="42.483474" lon="14.1965351"><ele>5.0</ele><time>2026-05-01T07:19:48.493Z</time></trkpt><trkpt lat="42.4833853" lon="14.1966725"><ele>5.25</ele><time>2026-05-01T07:19:49.501Z</time></trkpt><trkpt lat="42.4833018" lon="14.1968072"><ele>5.5</ele><time>2026-05-01T07:19:50.473Z</time></trkpt><trkpt lat="42.4832179" lon="14.1969329"><ele>5.75</ele><time>2026-05-01T07:19:51.471Z</time></trkpt><trkpt lat="42.483136" lon="14.197055"><ele>6.0</ele><time>2026-05-01T07:19:52.452Z</time></trkpt><trkpt lat="42.4830526" lon="14.19718"><ele>6.0</ele><time>2026-05-01T07:19:53.449Z</time></trkpt><trkpt lat="42.4829742" lon="14.1973088"><ele>6.0</ele><time>2026-05-01T07:19:54.447Z</time></trkpt><trkpt lat="42.4828878" lon="14.1974311"><ele>6.0</ele><time>2026-05-01T07:19:55.471Z</time></trkpt><trkpt lat="42.4827982" lon="14.197557"><ele>6.0</ele><time>2026-05-01T07:19:56.501Z</time></trkpt><trkpt lat="42.4827101" lon="14.1976872"><ele>6.25</ele><time>2026-05-01T07:19:57.475Z</time></trkpt><trkpt lat="42.4826196" lon="14.1978205"><ele>6.5</ele><time>2026-05-01T07:19:58.473Z</time></trkpt><trkpt lat="42.4825272" lon="14.197965"><ele>6.75</ele><time>2026-05-01T07:19:59.453Z</time></trkpt><trkpt lat="42.4824415" lon="14.1981394"><ele>7.0</ele><time>2026-05-01T07:20:00.447Z</time></trkpt><trkpt lat="42.4823312" lon="14.1983118"><ele>6.25</ele><time>2026-05-01T07:20:01.449Z</time></trkpt><trkpt lat="42.4822225" lon="14.1984431"><ele>5.5</ele><time>2026-05-01T07:20:02.447Z</time></trkpt><trkpt lat="42.4821262" lon="14.1985432"><ele>4.75</ele><time>2026-05-01T07:20:03.471Z</time></trkpt><trkpt lat="42.4820458" lon="14.1986563"><ele>4.0</ele><time>2026-05-01T07:20:04.47Z</time></trkpt><trkpt lat="42.4819657" lon="14.198769"><ele>4.75</ele><time>2026-05-01T07:20:05.449Z</time></trkpt><trkpt lat="42.4818812" lon="14.1988889"><ele>5.5</ele><time>2026-05-01T07:20:06.449Z</time></trkpt><trkpt lat="42.4818006" lon="14.1990128"><ele>6.25</ele><time>2026-05-01T07:20:07.449Z</time></trkpt><trkpt lat="42.4817181" lon="14.1991499"><ele>7.0</ele><time>2026-05-01T07:20:08.449Z</time></trkpt><trkpt lat="42.4816276" lon="14.1992868"><ele>7.0</ele><time>2026-05-01T07:20:09.469Z</time></trkpt><trkpt lat="42.4815265" lon="14.1994192"><ele>7.0</ele><time>2026-05-01T07:20:10.454Z</time></trkpt><trkpt lat="42.4814085" lon="14.1995562"><ele>7.0</ele><time>2026-05-01T07:20:11.452Z</time></trkpt><trkpt lat="42.4813134" lon="14.1996953"><ele>7.0</ele><time>2026-05-01T07:20:12.452Z</time></trkpt><trkpt lat="42.4812212" lon="14.1998224"><ele>6.0</ele><time>2026-05-01T07:20:13.451Z</time></trkpt><trkpt lat="42.4811476" lon="14.1999619"><ele>5.0</ele><time>2026-05-01T07:20:14.453Z</time></trkpt><trkpt lat="42.4810675" lon="14.200086"><ele>4.0</ele><time>2026-05-01T07:20:15.456Z</time></trkpt><trkpt lat="42.4809769" lon="14.2001991"><ele>3.0</ele><time>2026-05-01T07:20:16.48Z</time></trkpt><trkpt lat="42.4808974" lon="14.200323"><ele>3.0</ele><time>2026-05-01T07:20:17.455Z</time></trkpt><trkpt lat="42.4808153" lon="14.2004461"><ele>3.0</ele><time>2026-05-01T07:20:18.452Z</time></trkpt><trkpt lat="42.4807228" lon="14.200566"><ele>3.0</ele><time>2026-05-01T07:20:19.451Z</time></trkpt><trkpt lat="42.4806244" lon="14.2006857"><ele>3.0</ele><time>2026-05-01T07:20:20.474Z</time></trkpt><trkpt lat="42.480526" lon="14.2008125"><ele>2.75</ele><time>2026-05-01T07:20:21.472Z</time></trkpt><trkpt lat="42.4804337" lon="14.2009455"><ele>2.5</ele><time>2026-05-01T07:20:22.477Z</time></trkpt><trkpt lat="42.4803506" lon="14.2010729"><ele>2.25</ele><time>2026-05-01T07:20:23.473Z</time></trkpt><trkpt lat="42.4802657" lon="14.2011927"><ele>2.0</ele><time>2026-05-01T07:20:24.474Z</time></trkpt><trkpt lat="42.4801806" lon="14.2013206"><ele>2.75</ele><time>2026-05-01T07:20:25.47Z</time></trkpt><trkpt lat="42.4800932" lon="14.2014562"><ele>3.5</ele><time>2026-05-01T07:20:26.476Z</time></trkpt><trkpt lat="42.4800026" lon="14.2016006"><ele>4.25</ele><time>2026-05-01T07:20:27.478Z</time></trkpt><trkpt lat="42.4799298" lon="14.2017518"><ele>5.0</ele><time>2026-05-01T07:20:28.47Z</time></trkpt><trkpt lat="42.4798273" lon="14.201901"><ele>5.0</ele><time>2026-05-01T07:20:29.478Z</time></trkpt><trkpt lat="42.4797269" lon="14.2020342"><ele>5.0</ele><time>2026-05-01T07:20:30.471Z</time></trkpt><trkpt lat="42.4796341" lon="14.2021612"><ele>5.0</ele><time>2026-05-01T07:20:31.452Z</time></trkpt><trkpt lat="42.4795489" lon="14.2023031"><ele>5.0</ele><time>2026-05-01T07:20:32.473Z</time></trkpt><trkpt lat="42.4794634" lon="14.2024228"><ele>4.75</ele><time>2026-05-01T07:20:33.473Z</time></trkpt><trkpt lat="42.4793729" lon="14.2025498"><ele>4.5</ele><time>2026-05-01T07:20:34.477Z</time></trkpt><trkpt lat="42.4792817" lon="14.2026859"><ele>4.25</ele><time>2026-05-01T07:20:35.472Z</time></trkpt><trkpt lat="42.4791873" lon="14.2028227"><ele>4.0</ele><time>2026-05-01T07:20:36.477Z</time></trkpt><trkpt lat="42.4790835" lon="14.2029635"><ele>4.0</ele><time>2026-05-01T07:20:37.45Z</time></trkpt><trkpt lat="42.4789977" lon="14.2030969"><ele>4.0</ele><time>2026-05-01T07:20:38.474Z</time></trkpt><trkpt lat="42.4789205" lon="14.2032171"><ele>4.0</ele><time>2026-05-01T07:20:39.473Z</time></trkpt><trkpt lat="42.4788409" lon="14.203324"><ele>4.0</ele><time>2026-05-01T07:20:40.473Z</time></trkpt><trkpt lat="42.4787676" lon="14.2034482"><ele>5.0</ele><time>2026-05-01T07:20:41.472Z</time></trkpt><trkpt lat="42.4787032" lon="14.2035893"><ele>6.0</ele><time>2026-05-01T07:20:42.454Z</time></trkpt><trkpt lat="42.4786252" lon="14.2037231"><ele>7.0</ele><time>2026-05-01T07:20:43.453Z</time></trkpt><trkpt lat="42.478544" lon="14.203848"><ele>8.0</ele><time>2026-05-01T07:20:44.473Z</time></trkpt><trkpt lat="42.4784573" lon="14.2039684"><ele>7.0</ele><time>2026-05-01T07:20:45.477Z</time></trkpt><trkpt lat="42.4783655" lon="14.2040868"><ele>6.0</ele><time>2026-05-01T07:20:46.474Z</time></trkpt><trkpt lat="42.4782709" lon="14.2042141"><ele>5.0</ele><time>2026-05-01T07:20:47.474Z</time></trkpt><trkpt lat="42.4781787" lon="14.2043482"><ele>4.0</ele><time>2026-05-01T07:20:48.475Z</time></trkpt><trkpt lat="42.4780881" lon="14.2044899"><ele>4.0</ele><time>2026-05-01T07:20:49.472Z</time></trkpt><trkpt lat="42.4779876" lon="14.2046381"><ele>4.0</ele><time>2026-05-01T07:20:50.475Z</time></trkpt><trkpt lat="42.4779083" lon="14.2047595"><ele>4.0</ele><time>2026-05-01T07:20:51.451Z</time></trkpt><trkpt lat="42.4778145" lon="14.2048889"><ele>4.0</ele><time>2026-05-01T07:20:52.478Z</time></trkpt><trkpt lat="42.4777232" lon="14.2050322"><ele>4.5</ele><time>2026-05-01T07:20:53.451Z</time></trkpt><trkpt lat="42.4776354" lon="14.2051643"><ele>5.0</ele><time>2026-05-01T07:20:54.47Z</time></trkpt><trkpt lat="42.4775385" lon="14.2052874"><ele>5.5</ele><time>2026-05-01T07:20:55.45Z</time></trkpt><trkpt lat="42.4774513" lon="14.2054212"><ele>6.0</ele><time>2026-05-01T07:20:56.453Z</time></trkpt><trkpt lat="42.4773493" lon="14.2055772"><ele>5.75</ele><time>2026-05-01T07:20:57.45Z</time></trkpt><trkpt lat="42.4772442" lon="14.2057118"><ele>5.5</ele><time>2026-05-01T07:20:58.46Z</time></trkpt><trkpt lat="42.477147" lon="14.2058474"><ele>5.25</ele><time>2026-05-01T07:20:59.451Z</time></trkpt><trkpt lat="42.4770602" lon="14.2059866"><ele>5.0</ele><time>2026-05-01T07:21:00.455Z</time></trkpt><trkpt lat="42.4769636" lon="14.2060897"><ele>5.0</ele><time>2026-05-01T07:21:01.452Z</time></trkpt><trkpt lat="42.4768851" lon="14.2062007"><ele>5.0</ele><time>2026-05-01T07:21:02.452Z</time></trkpt><trkpt lat="42.4768027" lon="14.2063309"><ele>5.0</ele><time>2026-05-01T07:21:03.449Z</time></trkpt><trkpt lat="42.4767173" lon="14.2064606"><ele>5.0</ele><time>2026-05-01T07:21:04.453Z</time></trkpt><trkpt lat="42.4766309" lon="14.2065885"><ele>5.25</ele><time>2026-05-01T07:21:05.455Z</time></trkpt><trkpt lat="42.476538" lon="14.2067134"><ele>5.5</ele><time>2026-05-01T07:21:06.451Z</time></trkpt><trkpt lat="42.4764459" lon="14.206845"><ele>5.75</ele><time>2026-05-01T07:21:07.45Z</time></trkpt><trkpt lat="42.4763547" lon="14.2069693"><ele>6.0</ele><time>2026-05-01T07:21:08.474Z</time></trkpt><trkpt lat="42.4762657" lon="14.2070884"><ele>6.0</ele><time>2026-05-01T07:21:09.45Z</time></trkpt><trkpt lat="42.4761817" lon="14.2072103"><ele>6.0</ele><time>2026-05-01T07:21:10.451Z</time></trkpt><trkpt lat="42.4761016" lon="14.2073306"><ele>6.0</ele><time>2026-05-01T07:21:11.451Z</time></trkpt><trkpt lat="42.4760243" lon="14.2074411"><ele>6.0</ele><time>2026-05-01T07:21:12.455Z</time></trkpt><trkpt lat="42.4759485" lon="14.2075477"><ele>5.6</ele><time>2026-05-01T07:21:13.451Z</time></trkpt><trkpt lat="42.4758769" lon="14.2076552"><ele>5.199999999999999</ele><time>2026-05-01T07:21:14.454Z</time></trkpt><trkpt lat="42.4758082" lon="14.2077547"><ele>4.800000000000001</ele><time>2026-05-01T07:21:15.474Z</time></trkpt><trkpt lat="42.4757429" lon="14.2078596"><ele>4.4</ele><time>2026-05-01T07:21:16.472Z</time></trkpt><trkpt lat="42.4756677" lon="14.2079736"><ele>4.0</ele><time>2026-05-01T07:21:17.474Z</time></trkpt><trkpt lat="42.4755752" lon="14.2080914"><ele>3.75</ele><time>2026-05-01T07:21:18.493Z</time></trkpt><trkpt lat="42.4754874" lon="14.2082225"><ele>3.5</ele><time>2026-05-01T07:21:19.497Z</time></trkpt><trkpt lat="42.4753977" lon="14.2083639"><ele>3.25</ele><time>2026-05-01T07:21:20.472Z</time></trkpt><trkpt lat="42.475306" lon="14.2084988"><ele>3.0</ele><time>2026-05-01T07:21:21.475Z</time></trkpt><trkpt lat="42.4752141" lon="14.2086432"><ele>3.5</ele><time>2026-05-01T07:21:22.478Z</time></trkpt><trkpt lat="42.4751213" lon="14.2088021"><ele>4.0</ele><time>2026-05-01T07:21:23.498Z</time></trkpt><trkpt lat="42.4750131" lon="14.2089284"><ele>4.5</ele><time>2026-05-01T07:21:24.495Z</time></trkpt><trkpt lat="42.4749269" lon="14.2090591"><ele>5.0</ele><time>2026-05-01T07:21:25.495Z</time></trkpt><trkpt lat="42.4748349" lon="14.20919"><ele>4.75</ele><time>2026-05-01T07:21:26.498Z</time></trkpt><trkpt lat="42.4747461" lon="14.2093327"><ele>4.5</ele><time>2026-05-01T07:21:27.501Z</time></trkpt><trkpt lat="42.4746382" lon="14.2094657"><ele>4.25</ele><time>2026-05-01T07:21:28.499Z</time></trkpt><trkpt lat="42.4745533" lon="14.2095835"><ele>4.0</ele><time>2026-05-01T07:21:29.478Z</time></trkpt><trkpt lat="42.4744866" lon="14.2097135"><ele>3.5</ele><time>2026-05-01T07:21:30.496Z</time></trkpt><trkpt lat="42.4744151" lon="14.2098375"><ele>3.0</ele><time>2026-05-01T07:21:31.5Z</time></trkpt><trkpt lat="42.4743248" lon="14.209964"><ele>2.5</ele><time>2026-05-01T07:21:32.496Z</time></trkpt><trkpt lat="42.4742631" lon="14.2100975"><ele>2.0</ele><time>2026-05-01T07:21:33.472Z</time></trkpt><trkpt lat="42.4741794" lon="14.210214"><ele>2.0</ele><time>2026-05-01T07:21:34.471Z</time></trkpt><trkpt lat="42.474097" lon="14.210305"><ele>2.0</ele><time>2026-05-01T07:21:35.473Z</time></trkpt><trkpt lat="42.4740277" lon="14.2103987"><ele>2.0</ele><time>2026-05-01T07:21:36.499Z</time></trkpt><trkpt lat="42.4739536" lon="14.2104887"><ele>2.0</ele><time>2026-05-01T07:21:37.47Z</time></trkpt><trkpt lat="42.4738803" lon="14.2105697"><ele>2.0</ele><time>2026-05-01T07:21:38.496Z</time></trkpt><trkpt lat="42.473818" lon="14.2106336"><ele>2.5</ele><time>2026-05-01T07:21:39.488Z</time></trkpt><trkpt lat="42.4737398" lon="14.2107334"><ele>3.0</ele><time>2026-05-01T07:21:41.473Z</time></trkpt><trkpt lat="42.4736911" lon="14.2107898"><ele>3.5</ele><time>2026-05-01T07:21:51.465Z</time></trkpt><trkpt lat="42.4736253" lon="14.2108882"><ele>4.0</ele><time>2026-05-01T07:21:53.463Z</time></trkpt><trkpt lat="42.4735665" lon="14.2109638"><ele>4.5</ele><time>2026-05-01T07:21:54.463Z</time></trkpt><trkpt lat="42.4735039" lon="14.2110601"><ele>5.0</ele><time>2026-05-01T07:21:55.444Z</time></trkpt><trkpt lat="42.4734424" lon="14.2111718"><ele>5.0</ele><time>2026-05-01T07:21:56.471Z</time></trkpt><trkpt lat="42.4733844" lon="14.2112827"><ele>5.0</ele><time>2026-05-01T07:21:57.496Z</time></trkpt><trkpt lat="42.4733282" lon="14.2113757"><ele>5.0</ele><time>2026-05-01T07:21:58.492Z</time></trkpt><trkpt lat="42.4732764" lon="14.2114529"><ele>5.0</ele><time>2026-05-01T07:21:59.496Z</time></trkpt><trkpt lat="42.4732225" lon="14.2115311"><ele>5.0</ele><time>2026-05-01T07:22:00.478Z</time></trkpt><trkpt lat="42.4731641" lon="14.2116181"><ele>5.0</ele><time>2026-05-01T07:22:01.478Z</time></trkpt><trkpt lat="42.4731055" lon="14.2117278"><ele>5.0</ele><time>2026-05-01T07:22:02.497Z</time></trkpt><trkpt lat="42.4730463" lon="14.2118378"><ele>5.0</ele><time>2026-05-01T07:22:03.492Z</time></trkpt><trkpt lat="42.4729972" lon="14.2119372"><ele>5.0</ele><time>2026-05-01T07:22:04.502Z</time></trkpt><trkpt lat="42.4729449" lon="14.212043"><ele>5.0</ele><time>2026-05-01T07:22:05.495Z</time></trkpt><trkpt lat="42.4728853" lon="14.2121572"><ele>5.0</ele><time>2026-05-01T07:22:06.495Z</time></trkpt><trkpt lat="42.472828" lon="14.2122713"><ele>4.6</ele><time>2026-05-01T07:22:07.498Z</time></trkpt><trkpt lat="42.4727702" lon="14.2123797"><ele>4.2</ele><time>2026-05-01T07:22:08.498Z</time></trkpt><trkpt lat="42.4727124" lon="14.2124881"><ele>3.8</ele><time>2026-05-01T07:22:09.496Z</time></trkpt><trkpt lat="42.4726474" lon="14.2125972"><ele>3.4</ele><time>2026-05-01T07:22:10.498Z</time></trkpt><trkpt lat="42.4725768" lon="14.212717"><ele>3.0</ele><time>2026-05-01T07:22:11.494Z</time></trkpt><trkpt lat="42.4725041" lon="14.2128358"><ele>3.0</ele><time>2026-05-01T07:22:12.472Z</time></trkpt><trkpt lat="42.4724286" lon="14.2129618"><ele>3.0</ele><time>2026-05-01T07:22:13.476Z</time></trkpt><trkpt lat="42.4723573" lon="14.2130878"><ele>3.0</ele><time>2026-05-01T07:22:14.495Z</time></trkpt><trkpt lat="42.4722849" lon="14.2132111"><ele>3.0</ele><time>2026-05-01T07:22:15.491Z</time></trkpt><trkpt lat="42.4722138" lon="14.2133311"><ele>3.0</ele><time>2026-05-01T07:22:16.497Z</time></trkpt><trkpt lat="42.4721423" lon="14.2134568"><ele>3.0</ele><time>2026-05-01T07:22:17.499Z</time></trkpt><trkpt lat="42.4720701" lon="14.2135822"><ele>3.0</ele><time>2026-05-01T07:22:18.497Z</time></trkpt><trkpt lat="42.4720062" lon="14.2136997"><ele>3.0</ele><time>2026-05-01T07:22:19.474Z</time></trkpt><trkpt lat="42.4719451" lon="14.2138108"><ele>3.0</ele><time>2026-05-01T07:22:20.497Z</time></trkpt><trkpt lat="42.4718766" lon="14.2139273"><ele>3.5999999999999996</ele><time>2026-05-01T07:22:21.471Z</time></trkpt><trkpt lat="42.471806" lon="14.2140451"><ele>4.199999999999999</ele><time>2026-05-01T07:22:22.477Z</time></trkpt><trkpt lat="42.4717412" lon="14.2141553"><ele>4.8</ele><time>2026-05-01T07:22:23.479Z</time></trkpt><trkpt lat="42.4716811" lon="14.2142539"><ele>5.3999999999999995</ele><time>2026-05-01T07:22:24.473Z</time></trkpt><trkpt lat="42.4716214" lon="14.2143495"><ele>6.0</ele><time>2026-05-01T07:22:25.496Z</time></trkpt><trkpt lat="42.4715583" lon="14.2144619"><ele>6.0</ele><time>2026-05-01T07:22:26.473Z</time></trkpt><trkpt lat="42.4714878" lon="14.2145846"><ele>6.0</ele><time>2026-05-01T07:22:27.478Z</time></trkpt><trkpt lat="42.4714075" lon="14.2147173"><ele>6.0</ele><time>2026-05-01T07:22:28.474Z</time></trkpt><trkpt lat="42.4713268" lon="14.2148566"><ele>6.0</ele><time>2026-05-01T07:22:29.47Z</time></trkpt><trkpt lat="42.4712526" lon="14.2149951"><ele>6.0</ele><time>2026-05-01T07:22:30.496Z</time></trkpt><trkpt lat="42.4711831" lon="14.2151211"><ele>6.0</ele><time>2026-05-01T07:22:31.473Z</time></trkpt><trkpt lat="42.471115" lon="14.2152347"><ele>6.0</ele><time>2026-05-01T07:22:32.471Z</time></trkpt><trkpt lat="42.4710506" lon="14.2153404"><ele>6.0</ele><time>2026-05-01T07:22:33.471Z</time></trkpt><trkpt lat="42.4709855" lon="14.2154511"><ele>6.0</ele><time>2026-05-01T07:22:34.474Z</time></trkpt><trkpt lat="42.4709198" lon="14.2155635"><ele>6.4</ele><time>2026-05-01T07:22:35.43Z</time></trkpt><trkpt lat="42.4708551" lon="14.2156782"><ele>6.8</ele><time>2026-05-01T07:22:36.471Z</time></trkpt><trkpt lat="42.4707887" lon="14.2157967"><ele>7.200000000000001</ele><time>2026-05-01T07:22:37.498Z</time></trkpt><trkpt lat="42.4707176" lon="14.2159138"><ele>7.6000000000000005</ele><time>2026-05-01T07:22:38.496Z</time></trkpt><trkpt lat="42.4706519" lon="14.2160367"><ele>8.0</ele><time>2026-05-01T07:22:39.471Z</time></trkpt><trkpt lat="42.4705853" lon="14.2161611"><ele>8.0</ele><time>2026-05-01T07:22:40.476Z</time></trkpt><trkpt lat="42.4705163" lon="14.2162844"><ele>8.0</ele><time>2026-05-01T07:22:41.495Z</time></trkpt><trkpt lat="42.4704417" lon="14.2164106"><ele>8.0</ele><time>2026-05-01T07:22:42.469Z</time></trkpt><trkpt lat="42.4703718" lon="14.2165351"><ele>8.0</ele><time>2026-05-01T07:22:43.471Z</time></trkpt><trkpt lat="42.4702946" lon="14.2166555"><ele>7.0</ele><time>2026-05-01T07:22:44.495Z</time></trkpt><trkpt lat="42.470214" lon="14.2167799"><ele>6.0</ele><time>2026-05-01T07:22:45.492Z</time></trkpt><trkpt lat="42.4701341" lon="14.2169053"><ele>5.0</ele><time>2026-05-01T07:22:46.47Z</time></trkpt><trkpt lat="42.4700566" lon="14.2170269"><ele>4.0</ele><time>2026-05-01T07:22:47.474Z</time></trkpt><trkpt lat="42.4699779" lon="14.2171568"><ele>4.0</ele><time>2026-05-01T07:22:48.5Z</time></trkpt><trkpt lat="42.4699033" lon="14.2172819"><ele>4.0</ele><time>2026-05-01T07:22:49.496Z</time></trkpt><trkpt lat="42.4698392" lon="14.2173898"><ele>4.0</ele><time>2026-05-01T07:22:50.472Z</time></trkpt><trkpt lat="42.4697864" lon="14.2174702"><ele>4.0</ele><time>2026-05-01T07:22:51.476Z</time></trkpt><trkpt lat="42.4697334" lon="14.2175457"><ele>4.0</ele><time>2026-05-01T07:22:52.475Z</time></trkpt><trkpt lat="42.4696707" lon="14.2176351"><ele>4.0</ele><time>2026-05-01T07:22:53.475Z</time></trkpt><trkpt lat="42.4696101" lon="14.217743"><ele>4.0</ele><time>2026-05-01T07:22:54.475Z</time></trkpt><trkpt lat="42.4695386" lon="14.2178587"><ele>4.0</ele><time>2026-05-01T07:22:55.475Z</time></trkpt><trkpt lat="42.4694671" lon="14.217979"><ele>4.0</ele><time>2026-05-01T07:22:56.498Z</time></trkpt><trkpt lat="42.4693994" lon="14.2180982"><ele>4.0</ele><time>2026-05-01T07:22:57.498Z</time></trkpt><trkpt lat="42.4693363" lon="14.2182126"><ele>4.0</ele><time>2026-05-01T07:22:58.496Z</time></trkpt><trkpt lat="42.4692674" lon="14.2183322"><ele>4.0</ele><time>2026-05-01T07:22:59.498Z</time></trkpt><trkpt lat="42.4691999" lon="14.2184583"><ele>4.0</ele><time>2026-05-01T07:23:00.498Z</time></trkpt><trkpt lat="42.4691312" lon="14.2185842"><ele>4.0</ele><time>2026-05-01T07:23:01.504Z</time></trkpt><trkpt lat="42.4690635" lon="14.2187101"><ele>4.0</ele><time>2026-05-01T07:23:02.495Z</time></trkpt><trkpt lat="42.4689944" lon="14.2188387"><ele>4.0</ele><time>2026-05-01T07:23:03.497Z</time></trkpt><trkpt lat="42.4689248" lon="14.218972"><ele>4.0</ele><time>2026-05-01T07:23:04.451Z</time></trkpt><trkpt lat="42.4688545" lon="14.2191081"><ele>4.0</ele><time>2026-05-01T07:23:05.472Z</time></trkpt><trkpt lat="42.4687795" lon="14.2192368"><ele>4.25</ele><time>2026-05-01T07:23:06.493Z</time></trkpt><trkpt lat="42.4687029" lon="14.2193626"><ele>4.5</ele><time>2026-05-01T07:23:07.472Z</time></trkpt><trkpt lat="42.4686304" lon="14.2194872"><ele>4.75</ele><time>2026-05-01T07:23:08.445Z</time></trkpt><trkpt lat="42.4685569" lon="14.2196141"><ele>5.0</ele><time>2026-05-01T07:23:09.471Z</time></trkpt><trkpt lat="42.4684831" lon="14.2197386"><ele>4.6</ele><time>2026-05-01T07:23:10.474Z</time></trkpt><trkpt lat="42.4684098" lon="14.2198672"><ele>4.2</ele><time>2026-05-01T07:23:11.471Z</time></trkpt><trkpt lat="42.4683358" lon="14.219987"><ele>3.8</ele><time>2026-05-01T07:23:12.474Z</time></trkpt><trkpt lat="42.4682702" lon="14.2201001"><ele>3.4</ele><time>2026-05-01T07:23:13.502Z</time></trkpt><trkpt lat="42.4682091" lon="14.2202109"><ele>3.0</ele><time>2026-05-01T07:23:14.497Z</time></trkpt><trkpt lat="42.4681455" lon="14.2203222"><ele>3.0</ele><time>2026-05-01T07:23:15.495Z</time></trkpt><trkpt lat="42.4680792" lon="14.2204277"><ele>3.0</ele><time>2026-05-01T07:23:16.495Z</time></trkpt><trkpt lat="42.4680118" lon="14.2205234"><ele>3.0</ele><time>2026-05-01T07:23:17.476Z</time></trkpt><trkpt lat="42.4679467" lon="14.22062"><ele>3.0</ele><time>2026-05-01T07:23:18.477Z</time></trkpt><trkpt lat="42.4678838" lon="14.2207216"><ele>3.0</ele><time>2026-05-01T07:23:19.47Z</time></trkpt><trkpt lat="42.4678207" lon="14.2208292"><ele>2.8</ele><time>2026-05-01T07:23:20.449Z</time></trkpt><trkpt lat="42.4677593" lon="14.2209378"><ele>2.5999999999999996</ele><time>2026-05-01T07:23:21.469Z</time></trkpt><trkpt lat="42.4677015" lon="14.2210435"><ele>2.4000000000000004</ele><time>2026-05-01T07:23:22.47Z</time></trkpt><trkpt lat="42.467644" lon="14.2211483"><ele>2.2</ele><time>2026-05-01T07:23:23.473Z</time></trkpt><trkpt lat="42.4675882" lon="14.2212458"><ele>2.0</ele><time>2026-05-01T07:23:24.493Z</time></trkpt><trkpt lat="42.4675274" lon="14.2213354"><ele>1.9999999999999998</ele><time>2026-05-01T07:23:25.469Z</time></trkpt><trkpt lat="42.4674678" lon="14.2214286"><ele>2.0</ele><time>2026-05-01T07:23:26.494Z</time></trkpt><trkpt lat="42.4674094" lon="14.2215257"><ele>2.0</ele><time>2026-05-01T07:23:27.495Z</time></trkpt><trkpt lat="42.4673604" lon="14.221626"><ele>2.0</ele><time>2026-05-01T07:23:28.473Z</time></trkpt><trkpt lat="42.4673141" lon="14.2217213"><ele>1.9999999999999998</ele><time>2026-05-01T07:23:29.498Z</time></trkpt><trkpt lat="42.4672659" lon="14.2218146"><ele>2.0</ele><time>2026-05-01T07:23:30.493Z</time></trkpt><trkpt lat="42.4672109" lon="14.2219119"><ele>1.8</ele><time>2026-05-01T07:23:31.475Z</time></trkpt><trkpt lat="42.4671479" lon="14.2220092"><ele>1.6</ele><time>2026-05-01T07:23:32.499Z</time></trkpt><trkpt lat="42.4670813" lon="14.22208"><ele>1.4000000000000001</ele><time>2026-05-01T07:23:33.491Z</time></trkpt><trkpt lat="42.4669955" lon="14.2221254"><ele>1.2000000000000002</ele><time>2026-05-01T07:23:34.467Z</time></trkpt><trkpt lat="42.4668914" lon="14.2221479"><ele>1.0</ele><time>2026-05-01T07:23:35.492Z</time></trkpt><trkpt lat="42.4667755" lon="14.2221423"><ele>1.75</ele><time>2026-05-01T07:23:36.474Z</time></trkpt><trkpt lat="42.4666564" lon="14.2220997"><ele>2.5</ele><time>2026-05-01T07:23:37.47Z</time></trkpt><trkpt lat="42.4665373" lon="14.2220263"><ele>3.25</ele><time>2026-05-01T07:23:38.471Z</time></trkpt><trkpt lat="42.4664156" lon="14.2219374"><ele>4.0</ele><time>2026-05-01T07:23:39.476Z</time></trkpt><trkpt lat="42.4663079" lon="14.221843"><ele>3.75</ele><time>2026-05-01T07:23:40.449Z</time></trkpt><trkpt lat="42.4662147" lon="14.2217483"><ele>3.5</ele><time>2026-05-01T07:23:41.471Z</time></trkpt><trkpt lat="42.466118" lon="14.2216603"><ele>3.25</ele><time>2026-05-01T07:23:42.465Z</time></trkpt><trkpt lat="42.4660171" lon="14.2215691"><ele>3.0</ele><time>2026-05-01T07:23:43.468Z</time></trkpt><trkpt lat="42.4659368" lon="14.221447"><ele>4.0</ele><time>2026-05-01T07:23:44.461Z</time></trkpt><trkpt lat="42.4658749" lon="14.2213118"><ele>5.0</ele><time>2026-05-01T07:23:45.463Z</time></trkpt><trkpt lat="42.4658348" lon="14.2211703"><ele>6.0</ele><time>2026-05-01T07:23:46.447Z</time></trkpt><trkpt lat="42.4657949" lon="14.2210255"><ele>7.0</ele><time>2026-05-01T07:23:47.425Z</time></trkpt><trkpt lat="42.4657623" lon="14.2208744"><ele>7.0</ele><time>2026-05-01T07:23:48.467Z</time></trkpt><trkpt lat="42.4657334" lon="14.2207317"><ele>6.999999999999999</ele><time>2026-05-01T07:23:49.423Z</time></trkpt><trkpt lat="42.4657015" lon="14.2206026"><ele>6.999999999999999</ele><time>2026-05-01T07:23:50.497Z</time></trkpt><trkpt lat="42.4656664" lon="14.2204737"><ele>7.0</ele><time>2026-05-01T07:23:51.491Z</time></trkpt><trkpt lat="42.4656315" lon="14.2203431"><ele>7.0</ele><time>2026-05-01T07:23:52.469Z</time></trkpt><trkpt lat="42.4656024" lon="14.2202144"><ele>6.666666666666667</ele><time>2026-05-01T07:23:53.405Z</time></trkpt><trkpt lat="42.4655776" lon="14.2201029"><ele>6.333333333333334</ele><time>2026-05-01T07:23:54.466Z</time></trkpt><trkpt lat="42.4655562" lon="14.2200048"><ele>6.0</ele><time>2026-05-01T07:23:55.469Z</time></trkpt><trkpt lat="42.4655344" lon="14.2199071"><ele>5.666666666666667</ele><time>2026-05-01T07:23:56.446Z</time></trkpt><trkpt lat="42.465511" lon="14.219807"><ele>5.333333333333334</ele><time>2026-05-01T07:23:57.467Z</time></trkpt><trkpt lat="42.4654835" lon="14.2196998"><ele>5.0</ele><time>2026-05-01T07:23:58.463Z</time></trkpt><trkpt lat="42.4654513" lon="14.2195858"><ele>4.833333333333334</ele><time>2026-05-01T07:23:59.442Z</time></trkpt><trkpt lat="42.465412" lon="14.2194652"><ele>4.666666666666667</ele><time>2026-05-01T07:24:00.44Z</time></trkpt><trkpt lat="42.4653838" lon="14.2193555"><ele>4.5</ele><time>2026-05-01T07:24:01.442Z</time></trkpt><trkpt lat="42.4653573" lon="14.2192545"><ele>4.333333333333333</ele><time>2026-05-01T07:24:02.461Z</time></trkpt><trkpt lat="42.4653342" lon="14.2191623"><ele>4.166666666666666</ele><time>2026-05-01T07:24:03.466Z</time></trkpt><trkpt lat="42.465316" lon="14.2190732"><ele>4.0</ele><time>2026-05-01T07:24:04.419Z</time></trkpt><trkpt lat="42.4652964" lon="14.2189794"><ele>3.833333333333333</ele><time>2026-05-01T07:24:05.464Z</time></trkpt><trkpt lat="42.4652817" lon="14.2188915"><ele>3.6666666666666665</ele><time>2026-05-01T07:24:06.462Z</time></trkpt><trkpt lat="42.4652621" lon="14.2188065"><ele>3.5</ele><time>2026-05-01T07:24:07.459Z</time></trkpt><trkpt lat="42.4652442" lon="14.2186644"><ele>3.333333333333333</ele><time>2026-05-01T07:24:09.413Z</time></trkpt><trkpt lat="42.4652364" lon="14.218577"><ele>3.1666666666666665</ele><time>2026-05-01T07:24:11.461Z</time></trkpt><trkpt lat="42.4651529" lon="14.218531"><ele>3.0</ele><time>2026-05-01T07:24:14.463Z</time></trkpt><trkpt lat="42.4650609" lon="14.2185267"><ele>3.0</ele><time>2026-05-01T07:24:16.472Z</time></trkpt><trkpt lat="42.4649982" lon="14.2183721"><ele>3.0</ele><time>2026-05-01T07:24:18.442Z</time></trkpt><trkpt lat="42.4649674" lon="14.2182721"><ele>3.0</ele><time>2026-05-01T07:24:19.443Z</time></trkpt><trkpt lat="42.4649371" lon="14.2181574"><ele>3.0</ele><time>2026-05-01T07:24:20.443Z</time></trkpt><trkpt lat="42.4649029" lon="14.2180404"><ele>3.0</ele><time>2026-05-01T07:24:21.445Z</time></trkpt><trkpt lat="42.464859" lon="14.2179097"><ele>4.0</ele><time>2026-05-01T07:24:22.444Z</time></trkpt><trkpt lat="42.4648145" lon="14.2177794"><ele>5.0</ele><time>2026-05-01T07:24:23.451Z</time></trkpt><trkpt lat="42.4647698" lon="14.2176381"><ele>6.000000000000001</ele><time>2026-05-01T07:24:24.423Z</time></trkpt><trkpt lat="42.4647228" lon="14.2174997"><ele>7.0</ele><time>2026-05-01T07:24:25.445Z</time></trkpt><trkpt lat="42.4646785" lon="14.2173598"><ele>8.0</ele><time>2026-05-01T07:24:26.462Z</time></trkpt><trkpt lat="42.4646387" lon="14.2172225"><ele>7.2</ele><time>2026-05-01T07:24:27.473Z</time></trkpt><trkpt lat="42.4646017" lon="14.217089"><ele>6.4</ele><time>2026-05-01T07:24:28.468Z</time></trkpt><trkpt lat="42.4645675" lon="14.2169553"><ele>5.6000000000000005</ele><time>2026-05-01T07:24:29.471Z</time></trkpt><trkpt lat="42.4645281" lon="14.2168197"><ele>4.800000000000001</ele><time>2026-05-01T07:24:30.467Z</time></trkpt><trkpt lat="42.4644792" lon="14.2166974"><ele>4.0</ele><time>2026-05-01T07:24:31.463Z</time></trkpt><trkpt lat="42.4644216" lon="14.2165874"><ele>4.0</ele><time>2026-05-01T07:24:32.466Z</time></trkpt><trkpt lat="42.4643642" lon="14.2164653"><ele>4.0</ele><time>2026-05-01T07:24:33.441Z</time></trkpt><trkpt lat="42.4643116" lon="14.2163363"><ele>4.0</ele><time>2026-05-01T07:24:34.445Z</time></trkpt><trkpt lat="42.4642677" lon="14.216203"><ele>4.0</ele><time>2026-05-01T07:24:35.442Z</time></trkpt><trkpt lat="42.4642234" lon="14.2160634"><ele>4.0</ele><time>2026-05-01T07:24:36.442Z</time></trkpt><trkpt lat="42.4641775" lon="14.2159246"><ele>4.0</ele><time>2026-05-01T07:24:37.448Z</time></trkpt><trkpt lat="42.4641279" lon="14.2157858"><ele>4.0</ele><time>2026-05-01T07:24:38.443Z</time></trkpt><trkpt lat="42.4640784" lon="14.2156419"><ele>4.0</ele><time>2026-05-01T07:24:39.42Z</time></trkpt><trkpt lat="42.4640285" lon="14.2154884"><ele>4.0</ele><time>2026-05-01T07:24:40.421Z</time></trkpt><trkpt lat="42.4639789" lon="14.2153319"><ele>4.75</ele><time>2026-05-01T07:24:41.438Z</time></trkpt><trkpt lat="42.4639275" lon="14.2151755"><ele>5.5</ele><time>2026-05-01T07:24:42.462Z</time></trkpt><trkpt lat="42.4638777" lon="14.2150223"><ele>6.25</ele><time>2026-05-01T07:24:43.438Z</time></trkpt><trkpt lat="42.463827" lon="14.2148739"><ele>7.0</ele><time>2026-05-01T07:24:44.439Z</time></trkpt><trkpt lat="42.4637739" lon="14.2147282"><ele>7.5</ele><time>2026-05-01T07:24:45.441Z</time></trkpt><trkpt lat="42.463714" lon="14.2145812"><ele>8.0</ele><time>2026-05-01T07:24:46.463Z</time></trkpt><trkpt lat="42.4636462" lon="14.2144361"><ele>8.5</ele><time>2026-05-01T07:24:47.463Z</time></trkpt><trkpt lat="42.4635746" lon="14.2142907"><ele>9.0</ele><time>2026-05-01T07:24:48.438Z</time></trkpt><trkpt lat="42.4635107" lon="14.2141526"><ele>9.0</ele><time>2026-05-01T07:24:49.423Z</time></trkpt><trkpt lat="42.4634471" lon="14.2140086"><ele>9.0</ele><time>2026-05-01T07:24:50.39Z</time></trkpt><trkpt lat="42.4633841" lon="14.2138685"><ele>9.0</ele><time>2026-05-01T07:24:51.415Z</time></trkpt><trkpt lat="42.463325" lon="14.2137335"><ele>9.0</ele><time>2026-05-01T07:24:52.437Z</time></trkpt><trkpt lat="42.4632659" lon="14.2136007"><ele>8.75</ele><time>2026-05-01T07:24:53.461Z</time></trkpt><trkpt lat="42.4632082" lon="14.2134596"><ele>8.5</ele><time>2026-05-01T07:24:54.458Z</time></trkpt><trkpt lat="42.4631484" lon="14.2133248"><ele>8.25</ele><time>2026-05-01T07:24:55.444Z</time></trkpt><trkpt lat="42.4630957" lon="14.2131952"><ele>8.0</ele><time>2026-05-01T07:24:56.44Z</time></trkpt><trkpt lat="42.4630393" lon="14.2130701"><ele>8.0</ele><time>2026-05-01T07:24:57.443Z</time></trkpt><trkpt lat="42.4629875" lon="14.2129465"><ele>8.0</ele><time>2026-05-01T07:24:58.465Z</time></trkpt><trkpt lat="42.4629352" lon="14.2128137"><ele>8.0</ele><time>2026-05-01T07:24:59.461Z</time></trkpt><trkpt lat="42.4628809" lon="14.2126768"><ele>8.0</ele><time>2026-05-01T07:25:00.461Z</time></trkpt><trkpt lat="42.4628187" lon="14.2125439"><ele>8.0</ele><time>2026-05-01T07:25:01.468Z</time></trkpt><trkpt lat="42.4627591" lon="14.2124017"><ele>7.0</ele><time>2026-05-01T07:25:02.462Z</time></trkpt><trkpt lat="42.4626987" lon="14.2122474"><ele>6.0</ele><time>2026-05-01T07:25:03.464Z</time></trkpt><trkpt lat="42.4626333" lon="14.212089"><ele>5.0</ele><time>2026-05-01T07:25:04.467Z</time></trkpt><trkpt lat="42.4625676" lon="14.2119295"><ele>4.0</ele><time>2026-05-01T07:25:05.488Z</time></trkpt><trkpt lat="42.4624946" lon="14.2117726"><ele>4.0</ele><time>2026-05-01T07:25:06.462Z</time></trkpt><trkpt lat="42.4624213" lon="14.2116157"><ele>4.0</ele><time>2026-05-01T07:25:07.47Z</time></trkpt><trkpt lat="42.4623188" lon="14.2114596"><ele>4.0</ele><time>2026-05-01T07:25:08.441Z</time></trkpt><trkpt lat="42.4622447" lon="14.2113183"><ele>4.0</ele><time>2026-05-01T07:25:09.465Z</time></trkpt><trkpt lat="42.4621671" lon="14.2111907"><ele>4.0</ele><time>2026-05-01T07:25:10.483Z</time></trkpt><trkpt lat="42.462097" lon="14.2110556"><ele>4.0</ele><time>2026-05-01T07:25:11.464Z</time></trkpt><trkpt lat="42.4620398" lon="14.2109256"><ele>4.0</ele><time>2026-05-01T07:25:12.461Z</time></trkpt><trkpt lat="42.4619993" lon="14.2108019"><ele>4.0</ele><time>2026-05-01T07:25:13.463Z</time></trkpt><trkpt lat="42.4619535" lon="14.2106785"><ele>4.0</ele><time>2026-05-01T07:25:14.463Z</time></trkpt><trkpt lat="42.4619033" lon="14.2105639"><ele>4.0</ele><time>2026-05-01T07:25:15.464Z</time></trkpt><trkpt lat="42.4618695" lon="14.2104509"><ele>4.0</ele><time>2026-05-01T07:25:16.422Z</time></trkpt><trkpt lat="42.4618315" lon="14.2103064"><ele>4.0</ele><time>2026-05-01T07:25:17.399Z</time></trkpt><trkpt lat="42.461799" lon="14.2101346"><ele>4.0</ele><time>2026-05-01T07:25:18.388Z</time></trkpt><trkpt lat="42.461783" lon="14.2099597"><ele>4.25</ele><time>2026-05-01T07:25:19.41Z</time></trkpt><trkpt lat="42.4617615" lon="14.2097854"><ele>4.5</ele><time>2026-05-01T07:25:20.39Z</time></trkpt><trkpt lat="42.4617613" lon="14.2096012"><ele>4.75</ele><time>2026-05-01T07:25:21.382Z</time></trkpt><trkpt lat="42.4617614" lon="14.2094312"><ele>5.0</ele><time>2026-05-01T07:25:22.424Z</time></trkpt><trkpt lat="42.461796" lon="14.2093186"><ele>5.0</ele><time>2026-05-01T07:25:23.422Z</time></trkpt><trkpt lat="42.4618422" lon="14.2092285"><ele>5.0</ele><time>2026-05-01T07:25:24.435Z</time></trkpt><trkpt lat="42.461929" lon="14.2091808"><ele>5.0</ele><time>2026-05-01T07:25:25.481Z</time></trkpt><trkpt lat="42.4620002" lon="14.2091042"><ele>5.0</ele><time>2026-05-01T07:25:26.488Z</time></trkpt><trkpt lat="42.4620529" lon="14.2089979"><ele>5.0</ele><time>2026-05-01T07:25:27.484Z</time></trkpt><trkpt lat="42.4620932" lon="14.208914"><ele>5.0</ele><time>2026-05-01T07:25:28.468Z</time></trkpt><trkpt lat="42.4621294" lon="14.2088289"><ele>4.714285714285714</ele><time>2026-05-01T07:25:29.45Z</time></trkpt><trkpt lat="42.4621633" lon="14.2087413"><ele>4.428571428571429</ele><time>2026-05-01T07:25:30.441Z</time></trkpt><trkpt lat="42.4622054" lon="14.2086587"><ele>4.142857142857142</ele><time>2026-05-01T07:25:31.427Z</time></trkpt><trkpt lat="42.4622555" lon="14.208585"><ele>3.8571428571428568</ele><time>2026-05-01T07:25:32.44Z</time></trkpt><trkpt lat="42.4623088" lon="14.2085104"><ele>3.571428571428571</ele><time>2026-05-01T07:25:33.482Z</time></trkpt><trkpt lat="42.4623468" lon="14.2084231"><ele>3.2857142857142856</ele><time>2026-05-01T07:25:34.439Z</time></trkpt><trkpt lat="42.4623715" lon="14.2083244"><ele>3.0</ele><time>2026-05-01T07:25:35.433Z</time></trkpt><trkpt lat="42.4623633" lon="14.2082323"><ele>2.8</ele><time>2026-05-01T07:25:36.482Z</time></trkpt><trkpt lat="42.4622618" lon="14.2081387"><ele>2.5999999999999996</ele><time>2026-05-01T07:25:38.482Z</time></trkpt><trkpt lat="42.4621642" lon="14.2081452"><ele>2.4000000000000004</ele><time>2026-05-01T07:25:39.48Z</time></trkpt><trkpt lat="42.4620499" lon="14.208152"><ele>2.2</ele><time>2026-05-01T07:25:40.481Z</time></trkpt><trkpt lat="42.4619427" lon="14.2081446"><ele>2.0</ele><time>2026-05-01T07:25:41.454Z</time></trkpt><trkpt lat="42.4618416" lon="14.2081173"><ele>2.6</ele><time>2026-05-01T07:25:42.482Z</time></trkpt><trkpt lat="42.4617407" lon="14.208083"><ele>3.2</ele><time>2026-05-01T07:25:43.485Z</time></trkpt><trkpt lat="42.4616477" lon="14.2080553"><ele>3.8</ele><time>2026-05-01T07:25:44.489Z</time></trkpt><trkpt lat="42.4615728" lon="14.2080343"><ele>4.4</ele><time>2026-05-01T07:25:45.463Z</time></trkpt><trkpt lat="42.4615089" lon="14.2080192"><ele>5.0</ele><time>2026-05-01T07:25:46.462Z</time></trkpt><trkpt lat="42.461389" lon="14.2079918"><ele>5.0</ele><time>2026-05-01T07:25:48.461Z</time></trkpt><trkpt lat="42.4613057" lon="14.2079735"><ele>5.0</ele><time>2026-05-01T07:25:50.492Z</time></trkpt><trkpt lat="42.4612422" lon="14.2079528"><ele>5.0</ele><time>2026-05-01T07:25:52.471Z</time></trkpt><trkpt lat="42.4611765" lon="14.2078947"><ele>5.0</ele><time>2026-05-01T07:25:54.465Z</time></trkpt><trkpt lat="42.4611123" lon="14.2077874"><ele>5.0</ele><time>2026-05-01T07:25:56.441Z</time></trkpt><trkpt lat="42.4610357" lon="14.207731"><ele>5.0</ele><time>2026-05-01T07:25:58.413Z</time></trkpt><trkpt lat="42.4609681" lon="14.207719"><ele>5.142857142857142</ele><time>2026-05-01T07:25:59.408Z</time></trkpt><trkpt lat="42.4608864" lon="14.2077447"><ele>5.285714285714286</ele><time>2026-05-01T07:26:00.454Z</time></trkpt><trkpt lat="42.460833" lon="14.2078052"><ele>5.428571428571429</ele><time>2026-05-01T07:26:01.434Z</time></trkpt><trkpt lat="42.4608054" lon="14.2078888"><ele>5.571428571428571</ele><time>2026-05-01T07:26:02.455Z</time></trkpt><trkpt lat="42.4608044" lon="14.207982"><ele>5.714285714285714</ele><time>2026-05-01T07:26:03.433Z</time></trkpt><trkpt lat="42.460819" lon="14.2080678"><ele>5.857142857142857</ele><time>2026-05-01T07:26:04.406Z</time></trkpt><trkpt lat="42.4608374" lon="14.2081498"><ele>6.0</ele><time>2026-05-01T07:26:05.424Z</time></trkpt><trkpt lat="42.4608284" lon="14.2083015"><ele>6.0</ele><time>2026-05-01T07:26:07.456Z</time></trkpt><trkpt lat="42.4607858" lon="14.2084483"><ele>6.0</ele><time>2026-05-01T07:26:09.454Z</time></trkpt><trkpt lat="42.4607393" lon="14.2085529"><ele>6.0</ele><time>2026-05-01T07:26:11.455Z</time></trkpt><trkpt lat="42.460672" lon="14.2086418"><ele>6.0</ele><time>2026-05-01T07:26:13.459Z</time></trkpt><trkpt lat="42.4605612" lon="14.2086893"><ele>6.0</ele><time>2026-05-01T07:26:15.463Z</time></trkpt><trkpt lat="42.4604937" lon="14.2087132"><ele>5.6</ele><time>2026-05-01T07:26:16.462Z</time></trkpt><trkpt lat="42.4604183" lon="14.2087356"><ele>5.199999999999999</ele><time>2026-05-01T07:26:17.483Z</time></trkpt><trkpt lat="42.460334" lon="14.2087788"><ele>4.800000000000001</ele><time>2026-05-01T07:26:18.484Z</time></trkpt><trkpt lat="42.4602491" lon="14.2088282"><ele>4.4</ele><time>2026-05-01T07:26:19.481Z</time></trkpt><trkpt lat="42.4601607" lon="14.2088933"><ele>4.0</ele><time>2026-05-01T07:26:20.487Z</time></trkpt><trkpt lat="42.4600741" lon="14.2089405"><ele>3.8000000000000003</ele><time>2026-05-01T07:26:21.458Z</time></trkpt><trkpt lat="42.4599869" lon="14.209001"><ele>3.6000000000000005</ele><time>2026-05-01T07:26:22.44Z</time></trkpt><trkpt lat="42.4599033" lon="14.2090617"><ele>3.4</ele><time>2026-05-01T07:26:23.437Z</time></trkpt><trkpt lat="42.459825" lon="14.2091274"><ele>3.2</ele><time>2026-05-01T07:26:24.464Z</time></trkpt><trkpt lat="42.4597676" lon="14.2091716"><ele>3.0</ele><time>2026-05-01T07:26:25.468Z</time></trkpt><trkpt lat="42.4596559" lon="14.2092529"><ele>3.2857142857142856</ele><time>2026-05-01T07:26:27.471Z</time></trkpt><trkpt lat="42.4595979" lon="14.2093127"><ele>3.571428571428571</ele><time>2026-05-01T07:26:28.494Z</time></trkpt><trkpt lat="42.4595333" lon="14.2093622"><ele>3.8571428571428568</ele><time>2026-05-01T07:26:29.485Z</time></trkpt><trkpt lat="42.4594592" lon="14.2094104"><ele>4.142857142857142</ele><time>2026-05-01T07:26:30.467Z</time></trkpt><trkpt lat="42.4593912" lon="14.2094501"><ele>4.428571428571429</ele><time>2026-05-01T07:26:31.44Z</time></trkpt><trkpt lat="42.4593338" lon="14.2094915"><ele>4.714285714285714</ele><time>2026-05-01T07:26:32.467Z</time></trkpt><trkpt lat="42.4592665" lon="14.2095391"><ele>5.0</ele><time>2026-05-01T07:26:33.437Z</time></trkpt><trkpt lat="42.4591888" lon="14.2095959"><ele>5.0</ele><time>2026-05-01T07:26:34.443Z</time></trkpt><trkpt lat="42.4591035" lon="14.2096559"><ele>5.0</ele><time>2026-05-01T07:26:35.44Z</time></trkpt><trkpt lat="42.4590119" lon="14.2097194"><ele>5.0</ele><time>2026-05-01T07:26:36.439Z</time></trkpt><trkpt lat="42.4589114" lon="14.2097745"><ele>5.0</ele><time>2026-05-01T07:26:37.444Z</time></trkpt><trkpt lat="42.458818" lon="14.2098247"><ele>5.0</ele><time>2026-05-01T07:26:38.442Z</time></trkpt><trkpt lat="42.4587318" lon="14.2098609"><ele>5.142857142857142</ele><time>2026-05-01T07:26:39.434Z</time></trkpt><trkpt lat="42.4586567" lon="14.2098974"><ele>5.285714285714286</ele><time>2026-05-01T07:26:40.458Z</time></trkpt><trkpt lat="42.4585879" lon="14.2099407"><ele>5.428571428571429</ele><time>2026-05-01T07:26:41.451Z</time></trkpt><trkpt lat="42.4585263" lon="14.2099839"><ele>5.571428571428571</ele><time>2026-05-01T07:26:42.458Z</time></trkpt><trkpt lat="42.4584708" lon="14.2100323"><ele>5.714285714285714</ele><time>2026-05-01T07:26:43.483Z</time></trkpt><trkpt lat="42.4583976" lon="14.2101036"><ele>5.857142857142857</ele><time>2026-05-01T07:26:45.488Z</time></trkpt><trkpt lat="42.4583363" lon="14.2101426"><ele>6.0</ele><time>2026-05-01T07:26:47.488Z</time></trkpt><trkpt lat="42.4582558" lon="14.2102115"><ele>6.0</ele><time>2026-05-01T07:26:51.468Z</time></trkpt><trkpt lat="42.4581942" lon="14.2103054"><ele>6.0</ele><time>2026-05-01T07:26:54.494Z</time></trkpt><trkpt lat="42.4582019" lon="14.2104268"><ele>6.0</ele><time>2026-05-01T07:26:56.466Z</time></trkpt><trkpt lat="42.4582828" lon="14.2105584"><ele>6.0</ele><time>2026-05-01T07:26:58.458Z</time></trkpt><trkpt lat="42.4583355" lon="14.2106338"><ele>6.0</ele><time>2026-05-01T07:26:59.461Z</time></trkpt><trkpt lat="42.4583931" lon="14.2107292"><ele>6.199999999999999</ele><time>2026-05-01T07:27:00.481Z</time></trkpt><trkpt lat="42.4584448" lon="14.2108147"><ele>6.3999999999999995</ele><time>2026-05-01T07:27:01.483Z</time></trkpt><trkpt lat="42.4585153" lon="14.2109396"><ele>6.6</ele><time>2026-05-01T07:27:03.481Z</time></trkpt><trkpt lat="42.4585347" lon="14.2110648"><ele>6.8</ele><time>2026-05-01T07:27:05.461Z</time></trkpt><trkpt lat="42.4584538" lon="14.2111615"><ele>7.0</ele><time>2026-05-01T07:27:07.465Z</time></trkpt><trkpt lat="42.4583683" lon="14.2112055"><ele>7.0</ele><time>2026-05-01T07:27:08.455Z</time></trkpt><trkpt lat="42.4582594" lon="14.2112543"><ele>7.0</ele><time>2026-05-01T07:27:09.456Z</time></trkpt><trkpt lat="42.4581405" lon="14.2113089"><ele>7.0</ele><time>2026-05-01T07:27:10.457Z</time></trkpt><trkpt lat="42.4580206" lon="14.2113699"><ele>7.0</ele><time>2026-05-01T07:27:11.458Z</time></trkpt><trkpt lat="42.4579136" lon="14.2114349"><ele>6.3999999999999995</ele><time>2026-05-01T07:27:12.483Z</time></trkpt><trkpt lat="42.4578157" lon="14.2114937"><ele>5.799999999999999</ele><time>2026-05-01T07:27:13.481Z</time></trkpt><trkpt lat="42.4577207" lon="14.2115579"><ele>5.2</ele><time>2026-05-01T07:27:14.461Z</time></trkpt><trkpt lat="42.4576199" lon="14.2116271"><ele>4.6</ele><time>2026-05-01T07:27:15.455Z</time></trkpt><trkpt lat="42.4575126" lon="14.2117016"><ele>4.0</ele><time>2026-05-01T07:27:16.453Z</time></trkpt><trkpt lat="42.4573824" lon="14.2117823"><ele>4.0</ele><time>2026-05-01T07:27:17.461Z</time></trkpt><trkpt lat="42.4572329" lon="14.2118802"><ele>4.0</ele><time>2026-05-01T07:27:18.438Z</time></trkpt><trkpt lat="42.457058" lon="14.2119882"><ele>4.0</ele><time>2026-05-01T07:27:19.436Z</time></trkpt><trkpt lat="42.4568771" lon="14.2120947"><ele>3.333333333333333</ele><time>2026-05-01T07:27:20.482Z</time></trkpt><trkpt lat="42.456723" lon="14.2121532"><ele>2.6666666666666665</ele><time>2026-05-01T07:27:21.483Z</time></trkpt><trkpt lat="42.456576" lon="14.2122185"><ele>2.0</ele><time>2026-05-01T07:27:22.479Z</time></trkpt><trkpt lat="42.456428" lon="14.2122694"><ele>2.25</ele><time>2026-05-01T07:27:23.481Z</time></trkpt><trkpt lat="42.4562985" lon="14.2123419"><ele>2.5</ele><time>2026-05-01T07:27:24.479Z</time></trkpt><trkpt lat="42.4561693" lon="14.2123946"><ele>2.75</ele><time>2026-05-01T07:27:25.482Z</time></trkpt><trkpt lat="42.4560551" lon="14.2124547"><ele>3.0</ele><time>2026-05-01T07:27:26.485Z</time></trkpt><trkpt lat="42.4559321" lon="14.2124876"><ele>3.0</ele><time>2026-05-01T07:27:27.485Z</time></trkpt><trkpt lat="42.4557964" lon="14.2125252"><ele>3.0</ele><time>2026-05-01T07:27:28.485Z</time></trkpt><trkpt lat="42.4556589" lon="14.2125362"><ele>3.0</ele><time>2026-05-01T07:27:29.49Z</time></trkpt><trkpt lat="42.4555402" lon="14.2125341"><ele>3.0</ele><time>2026-05-01T07:27:30.487Z</time></trkpt><trkpt lat="42.455412" lon="14.2125465"><ele>3.0</ele><time>2026-05-01T07:27:31.49Z</time></trkpt><trkpt lat="42.4552872" lon="14.2125562"><ele>3.0</ele><time>2026-05-01T07:27:32.491Z</time></trkpt><trkpt lat="42.4551513" lon="14.2125595"><ele>3.0</ele><time>2026-05-01T07:27:33.487Z</time></trkpt><trkpt lat="42.4550313" lon="14.2125718"><ele>3.0</ele><time>2026-05-01T07:27:34.489Z</time></trkpt><trkpt lat="42.4549235" lon="14.2125687"><ele>3.0</ele><time>2026-05-01T07:27:35.488Z</time></trkpt><trkpt lat="42.4548287" lon="14.2125885"><ele>3.0</ele><time>2026-05-01T07:27:36.489Z</time></trkpt><trkpt lat="42.4547438" lon="14.2126204"><ele>3.0</ele><time>2026-05-01T07:27:37.487Z</time></trkpt><trkpt lat="42.4546705" lon="14.2126646"><ele>3.0</ele><time>2026-05-01T07:27:38.485Z</time></trkpt><trkpt lat="42.4546193" lon="14.2127435"><ele>3.0</ele><time>2026-05-01T07:27:39.495Z</time></trkpt><trkpt lat="42.4546065" lon="14.212874"><ele>3.0</ele><time>2026-05-01T07:27:40.487Z</time></trkpt><trkpt lat="42.454596" lon="14.2130009"><ele>3.0</ele><time>2026-05-01T07:27:41.468Z</time></trkpt><trkpt lat="42.4545751" lon="14.2131118"><ele>3.0</ele><time>2026-05-01T07:27:42.478Z</time></trkpt><trkpt lat="42.4545332" lon="14.2132007"><ele>3.0</ele><time>2026-05-01T07:27:43.464Z</time></trkpt><trkpt lat="42.4544692" lon="14.2132595"><ele>3.0</ele><time>2026-05-01T07:27:44.474Z</time></trkpt><trkpt lat="42.4543629" lon="14.2132859"><ele>3.0</ele><time>2026-05-01T07:27:45.489Z</time></trkpt><trkpt lat="42.454259" lon="14.2133284"><ele>3.0</ele><time>2026-05-01T07:27:46.492Z</time></trkpt><trkpt lat="42.4541503" lon="14.2133737"><ele>3.0</ele><time>2026-05-01T07:27:47.461Z</time></trkpt><trkpt lat="42.4540417" lon="14.2134176"><ele>3.0</ele><time>2026-05-01T07:27:48.484Z</time></trkpt><trkpt lat="42.4539352" lon="14.2134676"><ele>3.0</ele><time>2026-05-01T07:27:49.486Z</time></trkpt><trkpt lat="42.4538182" lon="14.2135216"><ele>2.75</ele><time>2026-05-01T07:27:50.493Z</time></trkpt><trkpt lat="42.4536924" lon="14.2135775"><ele>2.5</ele><time>2026-05-01T07:27:51.483Z</time></trkpt><trkpt lat="42.4535729" lon="14.2136331"><ele>2.25</ele><time>2026-05-01T07:27:52.494Z</time></trkpt><trkpt lat="42.4534537" lon="14.213694"><ele>2.0</ele><time>2026-05-01T07:27:53.491Z</time></trkpt><trkpt lat="42.4533328" lon="14.2137581"><ele>2.0</ele><time>2026-05-01T07:27:54.491Z</time></trkpt><trkpt lat="42.4532105" lon="14.2138151"><ele>2.0</ele><time>2026-05-01T07:27:55.49Z</time></trkpt><trkpt lat="42.4531011" lon="14.2138668"><ele>2.0</ele><time>2026-05-01T07:27:56.492Z</time></trkpt><trkpt lat="42.4529979" lon="14.2139149"><ele>2.0</ele><time>2026-05-01T07:27:57.492Z</time></trkpt><trkpt lat="42.4528977" lon="14.2139687"><ele>1.5</ele><time>2026-05-01T07:27:58.493Z</time></trkpt><trkpt lat="42.4527911" lon="14.214022"><ele>1.0</ele><time>2026-05-01T07:27:59.493Z</time></trkpt><trkpt lat="42.4526768" lon="14.2140744"><ele>0.5</ele><time>2026-05-01T07:28:00.49Z</time></trkpt><trkpt lat="42.4525572" lon="14.2141258"><ele>0.0</ele><time>2026-05-01T07:28:01.497Z</time></trkpt><trkpt lat="42.4524375" lon="14.214178"><ele>0.0</ele><time>2026-05-01T07:28:02.497Z</time></trkpt><trkpt lat="42.4523141" lon="14.2142332"><ele>0.0</ele><time>2026-05-01T07:28:03.493Z</time></trkpt><trkpt lat="42.4521917" lon="14.2142942"><ele>0.0</ele><time>2026-05-01T07:28:04.493Z</time></trkpt><trkpt lat="42.4520782" lon="14.2143529"><ele>0.0</ele><time>2026-05-01T07:28:05.489Z</time></trkpt><trkpt lat="42.4519844" lon="14.2144218"><ele>0.25</ele><time>2026-05-01T07:28:06.493Z</time></trkpt><trkpt lat="42.4518923" lon="14.2145001"><ele>0.5</ele><time>2026-05-01T07:28:07.491Z</time></trkpt><trkpt lat="42.4517997" lon="14.2145937"><ele>0.75</ele><time>2026-05-01T07:28:08.488Z</time></trkpt><trkpt lat="42.4517126" lon="14.2147093"><ele>1.0</ele><time>2026-05-01T07:28:09.465Z</time></trkpt><trkpt lat="42.4516272" lon="14.2148547"><ele>1.0</ele><time>2026-05-01T07:28:10.47Z</time></trkpt><trkpt lat="42.4515416" lon="14.2150101"><ele>1.0</ele><time>2026-05-01T07:28:11.487Z</time></trkpt><trkpt lat="42.4514456" lon="14.2151812"><ele>1.0</ele><time>2026-05-01T07:28:12.483Z</time></trkpt><trkpt lat="42.4513804" lon="14.2153357"><ele>1.0</ele><time>2026-05-01T07:28:13.465Z</time></trkpt><trkpt lat="42.4513189" lon="14.2154613"><ele>1.5</ele><time>2026-05-01T07:28:14.467Z</time></trkpt><trkpt lat="42.4512529" lon="14.2155997"><ele>2.0</ele><time>2026-05-01T07:28:15.466Z</time></trkpt><trkpt lat="42.4511843" lon="14.2157436"><ele>2.5</ele><time>2026-05-01T07:28:16.483Z</time></trkpt><trkpt lat="42.4511084" lon="14.2158581"><ele>3.0</ele><time>2026-05-01T07:28:17.49Z</time></trkpt><trkpt lat="42.4510457" lon="14.2159888"><ele>3.0</ele><time>2026-05-01T07:28:18.488Z</time></trkpt><trkpt lat="42.4509901" lon="14.2161068"><ele>3.0</ele><time>2026-05-01T07:28:19.488Z</time></trkpt><trkpt lat="42.4509376" lon="14.2162091"><ele>3.0</ele><time>2026-05-01T07:28:20.485Z</time></trkpt><trkpt lat="42.4508814" lon="14.2163148"><ele>3.0</ele><time>2026-05-01T07:28:21.493Z</time></trkpt><trkpt lat="42.4508204" lon="14.216426"><ele>3.0</ele><time>2026-05-01T07:28:22.49Z</time></trkpt><trkpt lat="42.4507651" lon="14.2165324"><ele>3.1666666666666665</ele><time>2026-05-01T07:28:23.49Z</time></trkpt><trkpt lat="42.4507149" lon="14.2166384"><ele>3.333333333333333</ele><time>2026-05-01T07:28:24.457Z</time></trkpt><trkpt lat="42.4506726" lon="14.2167412"><ele>3.5</ele><time>2026-05-01T07:28:25.459Z</time></trkpt><trkpt lat="42.4506339" lon="14.2168198"><ele>3.6666666666666665</ele><time>2026-05-01T07:28:26.484Z</time></trkpt><trkpt lat="42.4505619" lon="14.2169292"><ele>3.833333333333333</ele><time>2026-05-01T07:28:28.485Z</time></trkpt><trkpt lat="42.4504874" lon="14.2169689"><ele>4.0</ele><time>2026-05-01T07:28:30.464Z</time></trkpt><trkpt lat="42.4504014" lon="14.2168779"><ele>4.0</ele><time>2026-05-01T07:28:32.455Z</time></trkpt><trkpt lat="42.450358" lon="14.2167768"><ele>4.0</ele><time>2026-05-01T07:28:33.458Z</time></trkpt><trkpt lat="42.450294" lon="14.2166492"><ele>4.0</ele><time>2026-05-01T07:28:34.441Z</time></trkpt><trkpt lat="42.4502066" lon="14.2165064"><ele>4.0</ele><time>2026-05-01T07:28:35.484Z</time></trkpt><trkpt lat="42.4501147" lon="14.2163561"><ele>4.0</ele><time>2026-05-01T07:28:36.487Z</time></trkpt><trkpt lat="42.4500122" lon="14.2161603"><ele>4.0</ele><time>2026-05-01T07:28:37.487Z</time></trkpt><trkpt lat="42.4499299" lon="14.2160029"><ele>4.0</ele><time>2026-05-01T07:28:38.461Z</time></trkpt><trkpt lat="42.4498332" lon="14.2158844"><ele>4.0</ele><time>2026-05-01T07:28:39.454Z</time></trkpt><trkpt lat="42.4497534" lon="14.215783"><ele>4.0</ele><time>2026-05-01T07:28:40.463Z</time></trkpt><trkpt lat="42.4496885" lon="14.2156875"><ele>4.0</ele><time>2026-05-01T07:28:41.493Z</time></trkpt><trkpt lat="42.4496365" lon="14.2155941"><ele>4.0</ele><time>2026-05-01T07:28:42.437Z</time></trkpt><trkpt lat="42.449588" lon="14.2155213"><ele>4.0</ele><time>2026-05-01T07:28:43.44Z</time></trkpt><trkpt lat="42.4495233" lon="14.2153757"><ele>3.9999999999999996</ele><time>2026-05-01T07:28:45.478Z</time></trkpt><trkpt lat="42.4494739" lon="14.2153219"><ele>4.0</ele><time>2026-05-01T07:28:46.458Z</time></trkpt><trkpt lat="42.4494067" lon="14.2153285"><ele>4.0</ele><time>2026-05-01T07:28:47.484Z</time></trkpt><trkpt lat="42.449342" lon="14.215373"><ele>4.0</ele><time>2026-05-01T07:28:48.484Z</time></trkpt><trkpt lat="42.4492784" lon="14.2154546"><ele>3.9999999999999996</ele><time>2026-05-01T07:28:49.461Z</time></trkpt><trkpt lat="42.4492051" lon="14.215561"><ele>4.0</ele><time>2026-05-01T07:28:50.442Z</time></trkpt><trkpt lat="42.4491153" lon="14.2156647"><ele>4.0</ele><time>2026-05-01T07:28:51.442Z</time></trkpt><trkpt lat="42.4490082" lon="14.2157609"><ele>4.0</ele><time>2026-05-01T07:28:52.435Z</time></trkpt><trkpt lat="42.4489015" lon="14.215837"><ele>4.0</ele><time>2026-05-01T07:28:53.433Z</time></trkpt><trkpt lat="42.4487971" lon="14.2159085"><ele>4.0</ele><time>2026-05-01T07:28:54.46Z</time></trkpt><trkpt lat="42.4487257" lon="14.2159626"><ele>4.0</ele><time>2026-05-01T07:28:55.449Z</time></trkpt><trkpt lat="42.4486526" lon="14.2159992"><ele>4.6</ele><time>2026-05-01T07:28:56.463Z</time></trkpt><trkpt lat="42.4485704" lon="14.2160376"><ele>5.2</ele><time>2026-05-01T07:28:57.465Z</time></trkpt><trkpt lat="42.4484817" lon="14.2160829"><ele>5.799999999999999</ele><time>2026-05-01T07:28:58.463Z</time></trkpt><trkpt lat="42.4483903" lon="14.2161321"><ele>6.3999999999999995</ele><time>2026-05-01T07:28:59.487Z</time></trkpt><trkpt lat="42.4483049" lon="14.2161794"><ele>7.0</ele><time>2026-05-01T07:29:00.469Z</time></trkpt><trkpt lat="42.4482204" lon="14.2162234"><ele>7.0</ele><time>2026-05-01T07:29:01.486Z</time></trkpt><trkpt lat="42.4481381" lon="14.2162662"><ele>6.999999999999999</ele><time>2026-05-01T07:29:02.466Z</time></trkpt><trkpt lat="42.4480572" lon="14.2163149"><ele>6.999999999999999</ele><time>2026-05-01T07:29:03.439Z</time></trkpt><trkpt lat="42.4479697" lon="14.2163662"><ele>7.0</ele><time>2026-05-01T07:29:04.44Z</time></trkpt><trkpt lat="42.4478764" lon="14.2164087"><ele>7.0</ele><time>2026-05-01T07:29:05.44Z</time></trkpt><trkpt lat="42.4477934" lon="14.2164519"><ele>7.000000000000001</ele><time>2026-05-01T07:29:06.479Z</time></trkpt><trkpt lat="42.4477195" lon="14.2164896"><ele>7.0</ele><time>2026-05-01T07:29:07.481Z</time></trkpt><trkpt lat="42.4476428" lon="14.2165252"><ele>7.0</ele><time>2026-05-01T07:29:08.477Z</time></trkpt><trkpt lat="42.4475593" lon="14.2165645"><ele>7.0</ele><time>2026-05-01T07:29:09.434Z</time></trkpt><trkpt lat="42.4474714" lon="14.2166071"><ele>7.000000000000001</ele><time>2026-05-01T07:29:10.459Z</time></trkpt><trkpt lat="42.447381" lon="14.2166498"><ele>7.0</ele><time>2026-05-01T07:29:11.468Z</time></trkpt><trkpt lat="42.4472895" lon="14.2166978"><ele>7.000000000000001</ele><time>2026-05-01T07:29:12.489Z</time></trkpt><trkpt lat="42.4472061" lon="14.2167409"><ele>7.0</ele><time>2026-05-01T07:29:13.466Z</time></trkpt><trkpt lat="42.4471299" lon="14.2167808"><ele>7.0</ele><time>2026-05-01T07:29:14.465Z</time></trkpt><trkpt lat="42.4470637" lon="14.2168161"><ele>7.0</ele><time>2026-05-01T07:29:15.482Z</time></trkpt><trkpt lat="42.4470045" lon="14.2168594"><ele>7.000000000000001</ele><time>2026-05-01T07:29:16.486Z</time></trkpt><trkpt lat="42.446893" lon="14.2169257"><ele>7.0</ele><time>2026-05-01T07:29:18.485Z</time></trkpt><trkpt lat="42.4467885" lon="14.2169945"><ele>7.199999999999999</ele><time>2026-05-01T07:29:20.487Z</time></trkpt><trkpt lat="42.4466867" lon="14.2170521"><ele>7.3999999999999995</ele><time>2026-05-01T07:29:22.486Z</time></trkpt><trkpt lat="42.4466071" lon="14.2170966"><ele>7.6000000000000005</ele><time>2026-05-01T07:29:24.462Z</time></trkpt><trkpt lat="42.4465218" lon="14.2171143"><ele>7.800000000000001</ele><time>2026-05-01T07:29:27.468Z</time></trkpt><trkpt lat="42.4464611" lon="14.2171976"><ele>8.0</ele><time>2026-05-01T07:29:55.443Z</time></trkpt><trkpt lat="42.4463754" lon="14.217254"><ele>7.4</ele><time>2026-05-01T07:29:58.446Z</time></trkpt><trkpt lat="42.4462746" lon="14.2173331"><ele>6.800000000000001</ele><time>2026-05-01T07:30:00.469Z</time></trkpt><trkpt lat="42.4461801" lon="14.2173834"><ele>6.2</ele><time>2026-05-01T07:30:02.416Z</time></trkpt><trkpt lat="42.4460932" lon="14.2173066"><ele>5.6</ele><time>2026-05-01T07:30:04.436Z</time></trkpt><trkpt lat="42.446049" lon="14.217184"><ele>5.0</ele><time>2026-05-01T07:30:05.442Z</time></trkpt><trkpt lat="42.4459718" lon="14.2170746"><ele>4.75</ele><time>2026-05-01T07:30:06.438Z</time></trkpt><trkpt lat="42.4458802" lon="14.2169608"><ele>4.5</ele><time>2026-05-01T07:30:07.438Z</time></trkpt><trkpt lat="42.4457789" lon="14.2168516"><ele>4.25</ele><time>2026-05-01T07:30:08.435Z</time></trkpt><trkpt lat="42.4456813" lon="14.2167427"><ele>4.0</ele><time>2026-05-01T07:30:09.44Z</time></trkpt><trkpt lat="42.445586" lon="14.2166367"><ele>4.0</ele><time>2026-05-01T07:30:10.459Z</time></trkpt><trkpt lat="42.4454851" lon="14.2165399"><ele>4.0</ele><time>2026-05-01T07:30:11.457Z</time></trkpt><trkpt lat="42.445391" lon="14.216433"><ele>4.0</ele><time>2026-05-01T07:30:12.463Z</time></trkpt><trkpt lat="42.4452978" lon="14.2163265"><ele>4.0</ele><time>2026-05-01T07:30:13.466Z</time></trkpt><trkpt lat="42.4451959" lon="14.2162278"><ele>5.0</ele><time>2026-05-01T07:30:14.465Z</time></trkpt><trkpt lat="42.4450948" lon="14.2161319"><ele>6.0</ele><time>2026-05-01T07:30:15.439Z</time></trkpt><trkpt lat="42.4449976" lon="14.2160402"><ele>7.0</ele><time>2026-05-01T07:30:16.442Z</time></trkpt><trkpt lat="42.4449019" lon="14.2159545"><ele>8.0</ele><time>2026-05-01T07:30:17.438Z</time></trkpt><trkpt lat="42.4448194" lon="14.2158693"><ele>8.0</ele><time>2026-05-01T07:30:18.438Z</time></trkpt><trkpt lat="42.4447405" lon="14.2157875"><ele>8.0</ele><time>2026-05-01T07:30:19.461Z</time></trkpt><trkpt lat="42.4446616" lon="14.2157051"><ele>8.0</ele><time>2026-05-01T07:30:20.437Z</time></trkpt><trkpt lat="42.4445832" lon="14.2156151"><ele>8.0</ele><time>2026-05-01T07:30:21.441Z</time></trkpt><trkpt lat="42.4444948" lon="14.2155243"><ele>8.0</ele><time>2026-05-01T07:30:22.442Z</time></trkpt><trkpt lat="42.4443975" lon="14.2154261"><ele>7.5</ele><time>2026-05-01T07:30:23.444Z</time></trkpt><trkpt lat="42.4442961" lon="14.2153245"><ele>7.0</ele><time>2026-05-01T07:30:24.441Z</time></trkpt><trkpt lat="42.444185" lon="14.2152285"><ele>6.5</ele><time>2026-05-01T07:30:25.44Z</time></trkpt><trkpt lat="42.4440741" lon="14.2151364"><ele>6.0</ele><time>2026-05-01T07:30:26.442Z</time></trkpt><trkpt lat="42.443972" lon="14.2150428"><ele>6.0</ele><time>2026-05-01T07:30:27.444Z</time></trkpt><trkpt lat="42.4438709" lon="14.2149501"><ele>6.0</ele><time>2026-05-01T07:30:28.445Z</time></trkpt><trkpt lat="42.4437778" lon="14.2148697"><ele>6.0</ele><time>2026-05-01T07:30:29.443Z</time></trkpt><trkpt lat="42.443689" lon="14.2147873"><ele>6.0</ele><time>2026-05-01T07:30:30.439Z</time></trkpt><trkpt lat="42.443601" lon="14.214706"><ele>6.0</ele><time>2026-05-01T07:30:31.452Z</time></trkpt><trkpt lat="42.4435135" lon="14.2146202"><ele>6.199999999999999</ele><time>2026-05-01T07:30:32.45Z</time></trkpt><trkpt lat="42.4434267" lon="14.2145315"><ele>6.3999999999999995</ele><time>2026-05-01T07:30:33.452Z</time></trkpt><trkpt lat="42.4433448" lon="14.2144387"><ele>6.6</ele><time>2026-05-01T07:30:34.425Z</time></trkpt><trkpt lat="42.4432724" lon="14.214338"><ele>6.8</ele><time>2026-05-01T07:30:35.465Z</time></trkpt><trkpt lat="42.4432081" lon="14.2142363"><ele>7.0</ele><time>2026-05-01T07:30:36.445Z</time></trkpt><trkpt lat="42.4431541" lon="14.2141411"><ele>7.000000000000001</ele><time>2026-05-01T07:30:37.47Z</time></trkpt><trkpt lat="42.4431101" lon="14.2140487"><ele>7.0</ele><time>2026-05-01T07:30:38.448Z</time></trkpt><trkpt lat="42.4430734" lon="14.2139587"><ele>7.0</ele><time>2026-05-01T07:30:39.448Z</time></trkpt><trkpt lat="42.4430351" lon="14.213877"><ele>7.0</ele><time>2026-05-01T07:30:40.444Z</time></trkpt><trkpt lat="42.4429865" lon="14.2138172"><ele>7.000000000000001</ele><time>2026-05-01T07:30:41.443Z</time></trkpt><trkpt lat="42.4429189" lon="14.2137777"><ele>7.0</ele><time>2026-05-01T07:30:42.416Z</time></trkpt><trkpt lat="42.4428275" lon="14.2137651"><ele>7.5</ele><time>2026-05-01T07:30:43.44Z</time></trkpt><trkpt lat="42.4427161" lon="14.2137476"><ele>8.0</ele><time>2026-05-01T07:30:44.463Z</time></trkpt><trkpt lat="42.4425924" lon="14.2137435"><ele>8.5</ele><time>2026-05-01T07:30:45.443Z</time></trkpt><trkpt lat="42.4424603" lon="14.2137451"><ele>9.0</ele><time>2026-05-01T07:30:46.443Z</time></trkpt><trkpt lat="42.442335" lon="14.2137395"><ele>9.0</ele><time>2026-05-01T07:30:47.467Z</time></trkpt><trkpt lat="42.442207" lon="14.2137378"><ele>9.0</ele><time>2026-05-01T07:30:48.468Z</time></trkpt><trkpt lat="42.4420775" lon="14.2137387"><ele>9.0</ele><time>2026-05-01T07:30:49.469Z</time></trkpt><trkpt lat="42.4419526" lon="14.2137386"><ele>9.0</ele><time>2026-05-01T07:30:50.465Z</time></trkpt><trkpt lat="42.4418396" lon="14.2137417"><ele>8.8</ele><time>2026-05-01T07:30:51.463Z</time></trkpt><trkpt lat="42.4417283" lon="14.2137485"><ele>8.600000000000001</ele><time>2026-05-01T07:30:52.465Z</time></trkpt><trkpt lat="42.4416159" lon="14.2137434"><ele>8.4</ele><time>2026-05-01T07:30:53.462Z</time></trkpt><trkpt lat="42.4415082" lon="14.2137362"><ele>8.200000000000001</ele><time>2026-05-01T07:30:54.461Z</time></trkpt><trkpt lat="42.4414017" lon="14.2137257"><ele>8.0</ele><time>2026-05-01T07:30:55.465Z</time></trkpt><trkpt lat="42.4412962" lon="14.2137212"><ele>10.4</ele><time>2026-05-01T07:30:56.466Z</time></trkpt><trkpt lat="42.4411917" lon="14.2137146"><ele>12.8</ele><time>2026-05-01T07:30:57.469Z</time></trkpt><trkpt lat="42.4410884" lon="14.2137125"><ele>15.2</ele><time>2026-05-01T07:30:58.454Z</time></trkpt><trkpt lat="42.4409832" lon="14.2137119"><ele>17.6</ele><time>2026-05-01T07:30:59.475Z</time></trkpt><trkpt lat="42.4408779" lon="14.2137054"><ele>20.0</ele><time>2026-05-01T07:31:00.472Z</time></trkpt><trkpt lat="42.4407702" lon="14.213695"><ele>20.0</ele><time>2026-05-01T07:31:01.471Z</time></trkpt><trkpt lat="42.4406582" lon="14.2136829"><ele>20.0</ele><time>2026-05-01T07:31:02.476Z</time></trkpt><trkpt lat="42.4405403" lon="14.2136751"><ele>20.0</ele><time>2026-05-01T07:31:03.469Z</time></trkpt><trkpt lat="42.4404251" lon="14.2136818"><ele>20.0</ele><time>2026-05-01T07:31:04.471Z</time></trkpt><trkpt lat="42.4403057" lon="14.2136968"><ele>20.25</ele><time>2026-05-01T07:31:05.443Z</time></trkpt><trkpt lat="42.4401928" lon="14.213744"><ele>20.5</ele><time>2026-05-01T07:31:06.446Z</time></trkpt><trkpt lat="42.440079" lon="14.2138201"><ele>20.75</ele><time>2026-05-01T07:31:07.442Z</time></trkpt><trkpt lat="42.439964" lon="14.2139041"><ele>21.0</ele><time>2026-05-01T07:31:08.401Z</time></trkpt><trkpt lat="42.4398411" lon="14.2140065"><ele>21.0</ele><time>2026-05-01T07:31:09.421Z</time></trkpt><trkpt lat="42.4397093" lon="14.2141114"><ele>21.0</ele><time>2026-05-01T07:31:10.419Z</time></trkpt><trkpt lat="42.4395349" lon="14.2142198"><ele>21.0</ele><time>2026-05-01T07:31:11.414Z</time></trkpt><trkpt lat="42.4393932" lon="14.2143229"><ele>24.0</ele><time>2026-05-01T07:31:12.44Z</time></trkpt><trkpt lat="42.4392303" lon="14.2144226"><ele>27.0</ele><time>2026-05-01T07:31:13.442Z</time></trkpt><trkpt lat="42.4390889" lon="14.2145314"><ele>30.0</ele><time>2026-05-01T07:31:14.448Z</time></trkpt><trkpt lat="42.4389541" lon="14.2146373"><ele>30.0</ele><time>2026-05-01T07:31:15.446Z</time></trkpt><trkpt lat="42.4388389" lon="14.2147466"><ele>30.0</ele><time>2026-05-01T07:31:16.472Z</time></trkpt><trkpt lat="42.4387148" lon="14.2148365"><ele>30.0</ele><time>2026-05-01T07:31:17.477Z</time></trkpt><trkpt lat="42.4385715" lon="14.2149214"><ele>30.0</ele><time>2026-05-01T07:31:18.447Z</time></trkpt><trkpt lat="42.4384252" lon="14.2149792"><ele>34.333333333333336</ele><time>2026-05-01T07:31:19.444Z</time></trkpt><trkpt lat="42.4382591" lon="14.2150222"><ele>38.66666666666667</ele><time>2026-05-01T07:31:20.462Z</time></trkpt><trkpt lat="42.4380865" lon="14.2150554"><ele>43.0</ele><time>2026-05-01T07:31:21.464Z</time></trkpt><trkpt lat="42.4379146" lon="14.2150704"><ele>43.66666666666667</ele><time>2026-05-01T07:31:22.463Z</time></trkpt><trkpt lat="42.4377517" lon="14.21507"><ele>44.333333333333336</ele><time>2026-05-01T07:31:23.438Z</time></trkpt><trkpt lat="42.437595" lon="14.2150249"><ele>45.0</ele><time>2026-05-01T07:31:24.434Z</time></trkpt><trkpt lat="42.4374617" lon="14.2149887"><ele>45.0</ele><time>2026-05-01T07:31:25.439Z</time></trkpt><trkpt lat="42.4373331" lon="14.2149893"><ele>45.0</ele><time>2026-05-01T07:31:26.431Z</time></trkpt><trkpt lat="42.4371898" lon="14.2150089"><ele>45.0</ele><time>2026-05-01T07:31:27.454Z</time></trkpt><trkpt lat="42.4370681" lon="14.2150515"><ele>45.0</ele><time>2026-05-01T07:31:28.45Z</time></trkpt><trkpt lat="42.4369546" lon="14.2151466"><ele>44.25</ele><time>2026-05-01T07:31:29.432Z</time></trkpt><trkpt lat="42.43686" lon="14.215279"><ele>43.5</ele><time>2026-05-01T07:31:30.439Z</time></trkpt><trkpt lat="42.4367736" lon="14.215423"><ele>42.75</ele><time>2026-05-01T07:31:31.438Z</time></trkpt><trkpt lat="42.4366888" lon="14.2155937"><ele>42.0</ele><time>2026-05-01T07:31:32.456Z</time></trkpt><trkpt lat="42.4365892" lon="14.2157486"><ele>44.5</ele><time>2026-05-01T07:31:33.451Z</time></trkpt><trkpt lat="42.4364853" lon="14.2158701"><ele>47.0</ele><time>2026-05-01T07:31:34.456Z</time></trkpt><trkpt lat="42.4363998" lon="14.2159859"><ele>49.5</ele><time>2026-05-01T07:31:35.458Z</time></trkpt><trkpt lat="42.4363222" lon="14.2160972"><ele>52.0</ele><time>2026-05-01T07:31:36.455Z</time></trkpt><trkpt lat="42.4362535" lon="14.2162324"><ele>52.400000000000006</ele><time>2026-05-01T07:31:37.458Z</time></trkpt><trkpt lat="42.4361846" lon="14.2163497"><ele>52.800000000000004</ele><time>2026-05-01T07:31:38.457Z</time></trkpt><trkpt lat="42.4361219" lon="14.2164377"><ele>53.2</ele><time>2026-05-01T07:31:39.464Z</time></trkpt><trkpt lat="42.4360446" lon="14.2165243"><ele>53.6</ele><time>2026-05-01T07:31:40.464Z</time></trkpt><trkpt lat="42.4359807" lon="14.2165979"><ele>54.0</ele><time>2026-05-01T07:31:41.463Z</time></trkpt><trkpt lat="42.4359257" lon="14.216645"><ele>54.0</ele><time>2026-05-01T07:31:42.46Z</time></trkpt><trkpt lat="42.4358648" lon="14.2166893"><ele>54.0</ele><time>2026-05-01T07:31:44.463Z</time></trkpt><trkpt lat="42.4358056" lon="14.2167212"><ele>54.0</ele><time>2026-05-01T07:31:49.412Z</time></trkpt><trkpt lat="42.4357375" lon="14.2167604"><ele>54.0</ele><time>2026-05-01T07:31:52.421Z</time></trkpt><trkpt lat="42.435635" lon="14.2167781"><ele>54.0</ele><time>2026-05-01T07:31:54.437Z</time></trkpt><trkpt lat="42.4355547" lon="14.2167677"><ele>54.0</ele><time>2026-05-01T07:31:55.416Z</time></trkpt><trkpt lat="42.4354827" lon="14.2167559"><ele>54.5</ele><time>2026-05-01T07:31:56.41Z</time></trkpt><trkpt lat="42.4353823" lon="14.216743"><ele>55.0</ele><time>2026-05-01T07:31:58.415Z</time></trkpt><trkpt lat="42.4353223" lon="14.2166872"><ele>55.5</ele><time>2026-05-01T07:32:44.398Z</time></trkpt><trkpt lat="42.435244" lon="14.2166776"><ele>56.0</ele><time>2026-05-01T07:32:48.415Z</time></trkpt><trkpt lat="42.4351513" lon="14.2167082"><ele>56.5</ele><time>2026-05-01T07:32:50.437Z</time></trkpt><trkpt lat="42.4350793" lon="14.2167296"><ele>57.0</ele><time>2026-05-01T07:32:51.436Z</time></trkpt><trkpt lat="42.4350022" lon="14.2167448"><ele>57.0</ele><time>2026-05-01T07:32:52.437Z</time></trkpt><trkpt lat="42.4349233" lon="14.2167615"><ele>57.0</ele><time>2026-05-01T07:32:53.443Z</time></trkpt><trkpt lat="42.4348461" lon="14.2167875"><ele>57.0</ele><time>2026-05-01T07:32:54.437Z</time></trkpt><trkpt lat="42.4347788" lon="14.216821"><ele>57.0</ele><time>2026-05-01T07:32:55.442Z</time></trkpt><trkpt lat="42.4347184" lon="14.216857"><ele>57.0</ele><time>2026-05-01T07:32:56.441Z</time></trkpt><trkpt lat="42.4346338" lon="14.2169227"><ele>57.0</ele><time>2026-05-01T07:32:58.445Z</time></trkpt><trkpt lat="42.4345897" lon="14.2169995"><ele>57.0</ele><time>2026-05-01T07:33:00.443Z</time></trkpt><trkpt lat="42.4346656" lon="14.2169712"><ele>57.0</ele><time>2026-05-01T07:33:09.409Z</time></trkpt><trkpt lat="42.4347734" lon="14.2168859"><ele>57.0</ele><time>2026-05-01T07:33:11.418Z</time></trkpt><trkpt lat="42.4348702" lon="14.2168543"><ele>57.0</ele><time>2026-05-01T07:33:12.415Z</time></trkpt><trkpt lat="42.4349652" lon="14.2168293"><ele>57.0</ele><time>2026-05-01T07:33:13.417Z</time></trkpt><trkpt lat="42.4350469" lon="14.2168135"><ele>57.0</ele><time>2026-05-01T07:33:14.42Z</time></trkpt><trkpt lat="42.4351209" lon="14.2168027"><ele>57.0</ele><time>2026-05-01T07:33:15.418Z</time></trkpt><trkpt lat="42.4352288" lon="14.2167915"><ele>57.0</ele><time>2026-05-01T07:33:17.413Z</time></trkpt><trkpt lat="42.4353083" lon="14.2167664"><ele>57.0</ele><time>2026-05-01T07:33:23.418Z</time></trkpt><trkpt lat="42.4353718" lon="14.2168067"><ele>57.0</ele><time>2026-05-01T07:38:07.429Z</time></trkpt><trkpt lat="42.4354358" lon="14.2168025"><ele>57.0</ele><time>2026-05-01T07:38:46.419Z</time></trkpt><trkpt lat="42.4354994" lon="14.2167982"><ele>57.0</ele><time>2026-05-01T07:39:38.445Z</time></trkpt><trkpt lat="42.4355635" lon="14.2167999"><ele>57.0</ele><time>2026-05-01T07:41:46.432Z</time></trkpt><trkpt lat="42.4356354" lon="14.2168091"><ele>57.0</ele><time>2026-05-01T07:42:06.435Z</time></trkpt><trkpt lat="42.4355569" lon="14.2166928"><ele>57.0</ele><time>2026-05-01T07:42:14.426Z</time></trkpt><trkpt lat="42.4354894" lon="14.2166371"><ele>57.0</ele><time>2026-05-01T07:42:15.416Z</time></trkpt><trkpt lat="42.4354" lon="14.2165661"><ele>57.0</ele><time>2026-05-01T07:42:16.424Z</time></trkpt><trkpt lat="42.4353103" lon="14.2164755"><ele>59.0</ele><time>2026-05-01T07:42:17.423Z</time></trkpt><trkpt lat="42.435226" lon="14.2163864"><ele>61.0</ele><time>2026-05-01T07:42:18.418Z</time></trkpt><trkpt lat="42.435142" lon="14.2163087"><ele>63.0</ele><time>2026-05-01T07:42:19.421Z</time></trkpt><trkpt lat="42.4350514" lon="14.2162483"><ele>65.0</ele><time>2026-05-01T07:42:20.424Z</time></trkpt><trkpt lat="42.4349495" lon="14.2161755"><ele>67.0</ele><time>2026-05-01T07:42:21.428Z</time></trkpt><trkpt lat="42.4348569" lon="14.2160923"><ele>67.0</ele><time>2026-05-01T07:42:22.444Z</time></trkpt><trkpt lat="42.4347779" lon="14.2160224"><ele>67.0</ele><time>2026-05-01T07:42:23.45Z</time></trkpt><trkpt lat="42.434712" lon="14.2159613"><ele>67.0</ele><time>2026-05-01T07:42:24.441Z</time></trkpt><trkpt lat="42.4346383" lon="14.2159062"><ele>67.0</ele><time>2026-05-01T07:42:25.444Z</time></trkpt><trkpt lat="42.4345676" lon="14.2158441"><ele>67.0</ele><time>2026-05-01T07:42:26.456Z</time></trkpt><trkpt lat="42.4344954" lon="14.2157779"><ele>67.0</ele><time>2026-05-01T07:42:27.435Z</time></trkpt><trkpt lat="42.4344288" lon="14.2157224"><ele>66.16666666666666</ele><time>2026-05-01T07:42:28.42Z</time></trkpt><trkpt lat="42.4343656" lon="14.2156698"><ele>65.33333333333333</ele><time>2026-05-01T07:42:29.436Z</time></trkpt><trkpt lat="42.4343053" lon="14.2156323"><ele>64.5</ele><time>2026-05-01T07:42:30.434Z</time></trkpt><trkpt lat="42.4342037" lon="14.2155913"><ele>63.66666666666667</ele><time>2026-05-01T07:42:32.457Z</time></trkpt><trkpt lat="42.4341073" lon="14.2155465"><ele>62.833333333333336</ele><time>2026-05-01T07:42:34.432Z</time></trkpt><trkpt lat="42.4340408" lon="14.2155183"><ele>62.0</ele><time>2026-05-01T07:42:35.437Z</time></trkpt><trkpt lat="42.4339675" lon="14.2154978"><ele>64.83333333333334</ele><time>2026-05-01T07:42:36.463Z</time></trkpt><trkpt lat="42.4338881" lon="14.2154774"><ele>67.66666666666667</ele><time>2026-05-01T07:42:37.438Z</time></trkpt><trkpt lat="42.4338068" lon="14.2154676"><ele>70.5</ele><time>2026-05-01T07:42:38.461Z</time></trkpt><trkpt lat="42.4337202" lon="14.2154643"><ele>73.33333333333333</ele><time>2026-05-01T07:42:39.462Z</time></trkpt><trkpt lat="42.4336401" lon="14.2154675"><ele>76.16666666666666</ele><time>2026-05-01T07:42:40.462Z</time></trkpt><trkpt lat="42.4335698" lon="14.2154661"><ele>79.0</ele><time>2026-05-01T07:42:41.46Z</time></trkpt><trkpt lat="42.4335011" lon="14.2154639"><ele>79.00000000000001</ele><time>2026-05-01T07:42:42.463Z</time></trkpt><trkpt lat="42.4334317" lon="14.2154695"><ele>79.0</ele><time>2026-05-01T07:42:43.437Z</time></trkpt><trkpt lat="42.4333548" lon="14.2154712"><ele>79.0</ele><time>2026-05-01T07:42:44.444Z</time></trkpt><trkpt lat="42.4332807" lon="14.2154703"><ele>79.0</ele><time>2026-05-01T07:42:45.444Z</time></trkpt><trkpt lat="42.4332106" lon="14.2154706"><ele>79.0</ele><time>2026-05-01T07:42:46.461Z</time></trkpt><trkpt lat="42.4331418" lon="14.2154765"><ele>79.00000000000001</ele><time>2026-05-01T07:42:47.466Z</time></trkpt><trkpt lat="42.4330683" lon="14.2154785"><ele>79.0</ele><time>2026-05-01T07:42:48.462Z</time></trkpt><trkpt lat="42.4329876" lon="14.2154634"><ele>78.16666666666666</ele><time>2026-05-01T07:42:49.464Z</time></trkpt><trkpt lat="42.4329158" lon="14.2154451"><ele>77.33333333333333</ele><time>2026-05-01T07:42:50.44Z</time></trkpt><trkpt lat="42.4328484" lon="14.2154199"><ele>76.5</ele><time>2026-05-01T07:42:51.416Z</time></trkpt><trkpt lat="42.4327777" lon="14.2153763"><ele>75.66666666666667</ele><time>2026-05-01T07:42:52.414Z</time></trkpt><trkpt lat="42.4327078" lon="14.215338"><ele>74.83333333333334</ele><time>2026-05-01T07:42:53.418Z</time></trkpt><trkpt lat="42.4326087" lon="14.2153059"><ele>74.0</ele><time>2026-05-01T07:42:55.398Z</time></trkpt><trkpt lat="42.4325447" lon="14.2152932"><ele>74.0</ele><time>2026-05-01T07:42:57.4Z</time></trkpt><trkpt lat="42.4324796" lon="14.2152935"><ele>74.0</ele><time>2026-05-01T07:42:59.424Z</time></trkpt><trkpt lat="42.4324068" lon="14.2153333"><ele>74.0</ele><time>2026-05-01T07:43:01.426Z</time></trkpt><trkpt lat="42.4322812" lon="14.2153855"><ele>74.0</ele><time>2026-05-01T07:43:03.469Z</time></trkpt><trkpt lat="42.4321792" lon="14.215425"><ele>74.0</ele><time>2026-05-01T07:43:05.442Z</time></trkpt><trkpt lat="42.4320999" lon="14.2154518"><ele>73.16666666666667</ele><time>2026-05-01T07:43:07.422Z</time></trkpt><trkpt lat="42.4320167" lon="14.2154372"><ele>72.33333333333334</ele><time>2026-05-01T07:43:09.443Z</time></trkpt><trkpt lat="42.4319394" lon="14.2153445"><ele>71.5</ele><time>2026-05-01T07:43:11.427Z</time></trkpt><trkpt lat="42.4318697" lon="14.2152554"><ele>70.66666666666667</ele><time>2026-05-01T07:43:13.418Z</time></trkpt><trkpt lat="42.431794" lon="14.2151762"><ele>69.83333333333333</ele><time>2026-05-01T07:43:15.439Z</time></trkpt><trkpt lat="42.4317408" lon="14.2151283"><ele>69.0</ele><time>2026-05-01T07:43:16.401Z</time></trkpt><trkpt lat="42.4316801" lon="14.2150752"><ele>69.0</ele><time>2026-05-01T07:43:17.416Z</time></trkpt><trkpt lat="42.4316062" lon="14.2150265"><ele>69.0</ele><time>2026-05-01T07:43:18.416Z</time></trkpt><trkpt lat="42.4315224" lon="14.2149837"><ele>69.0</ele><time>2026-05-01T07:43:19.443Z</time></trkpt><trkpt lat="42.4314353" lon="14.2149458"><ele>69.0</ele><time>2026-05-01T07:43:20.398Z</time></trkpt><trkpt lat="42.4313506" lon="14.2149114"><ele>69.0</ele><time>2026-05-01T07:43:21.398Z</time></trkpt><trkpt lat="42.4312774" lon="14.2148968"><ele>69.0</ele><time>2026-05-01T07:43:22.397Z</time></trkpt><trkpt lat="42.4312103" lon="14.2148963"><ele>69.0</ele><time>2026-05-01T07:43:23.425Z</time></trkpt><trkpt lat="42.4311428" lon="14.2148968"><ele>69.0</ele><time>2026-05-01T07:43:24.425Z</time></trkpt><trkpt lat="42.4310817" lon="14.2148641"><ele>69.0</ele><time>2026-05-01T07:43:25.46Z</time></trkpt><trkpt lat="42.431016" lon="14.214807"><ele>69.0</ele><time>2026-05-01T07:43:26.436Z</time></trkpt><trkpt lat="42.430936" lon="14.2147175"><ele>69.0</ele><time>2026-05-01T07:43:27.448Z</time></trkpt><trkpt lat="42.430837" lon="14.2146104"><ele>69.0</ele><time>2026-05-01T07:43:28.447Z</time></trkpt><trkpt lat="42.4307353" lon="14.2145155"><ele>70.0</ele><time>2026-05-01T07:43:29.446Z</time></trkpt><trkpt lat="42.4306437" lon="14.2144506"><ele>71.0</ele><time>2026-05-01T07:43:30.438Z</time></trkpt><trkpt lat="42.4305672" lon="14.2143952"><ele>72.0</ele><time>2026-05-01T07:43:31.448Z</time></trkpt><trkpt lat="42.4305098" lon="14.2143293"><ele>73.0</ele><time>2026-05-01T07:43:32.446Z</time></trkpt><trkpt lat="42.4304553" lon="14.2142473"><ele>74.0</ele><time>2026-05-01T07:43:33.469Z</time></trkpt><trkpt lat="42.4304172" lon="14.2141713"><ele>75.0</ele><time>2026-05-01T07:43:34.448Z</time></trkpt><trkpt lat="42.4303202" lon="14.2140627"><ele>75.2</ele><time>2026-05-01T07:43:36.444Z</time></trkpt><trkpt lat="42.4302445" lon="14.2140237"><ele>75.4</ele><time>2026-05-01T07:43:37.442Z</time></trkpt><trkpt lat="42.4301581" lon="14.2139704"><ele>75.6</ele><time>2026-05-01T07:43:38.446Z</time></trkpt><trkpt lat="42.4300775" lon="14.2138892"><ele>75.8</ele><time>2026-05-01T07:43:39.442Z</time></trkpt><trkpt lat="42.43" lon="14.2137891"><ele>76.0</ele><time>2026-05-01T07:43:40.445Z</time></trkpt><trkpt lat="42.4299194" lon="14.2136867"><ele>76.25</ele><time>2026-05-01T07:43:41.448Z</time></trkpt><trkpt lat="42.42983" lon="14.2135976"><ele>76.5</ele><time>2026-05-01T07:43:42.426Z</time></trkpt><trkpt lat="42.4297387" lon="14.213506"><ele>76.75</ele><time>2026-05-01T07:43:43.423Z</time></trkpt><trkpt lat="42.4296425" lon="14.2134051"><ele>77.0</ele><time>2026-05-01T07:43:44.419Z</time></trkpt><trkpt lat="42.4295523" lon="14.2133098"><ele>77.0</ele><time>2026-05-01T07:43:45.445Z</time></trkpt><trkpt lat="42.4294644" lon="14.2132114"><ele>77.0</ele><time>2026-05-01T07:43:46.444Z</time></trkpt><trkpt lat="42.429381" lon="14.2131251"><ele>77.0</ele><time>2026-05-01T07:43:47.446Z</time></trkpt><trkpt lat="42.4293034" lon="14.2130483"><ele>77.0</ele><time>2026-05-01T07:43:48.444Z</time></trkpt><trkpt lat="42.4292226" lon="14.2129608"><ele>77.0</ele><time>2026-05-01T07:43:49.421Z</time></trkpt><trkpt lat="42.4291409" lon="14.2128749"><ele>78.0</ele><time>2026-05-01T07:43:50.42Z</time></trkpt><trkpt lat="42.4290649" lon="14.2127872"><ele>79.0</ele><time>2026-05-01T07:43:51.444Z</time></trkpt><trkpt lat="42.4289889" lon="14.2127174"><ele>80.0</ele><time>2026-05-01T07:43:52.449Z</time></trkpt><trkpt lat="42.4289137" lon="14.2126416"><ele>81.0</ele><time>2026-05-01T07:43:53.449Z</time></trkpt><trkpt lat="42.4288342" lon="14.212566"><ele>82.0</ele><time>2026-05-01T07:43:54.447Z</time></trkpt><trkpt lat="42.4287481" lon="14.212488"><ele>82.19999999999999</ele><time>2026-05-01T07:43:55.446Z</time></trkpt><trkpt lat="42.4286655" lon="14.2124189"><ele>82.4</ele><time>2026-05-01T07:43:56.425Z</time></trkpt><trkpt lat="42.4285859" lon="14.2123523"><ele>82.6</ele><time>2026-05-01T07:43:57.452Z</time></trkpt><trkpt lat="42.4285022" lon="14.212283"><ele>82.80000000000001</ele><time>2026-05-01T07:43:58.423Z</time></trkpt><trkpt lat="42.4284246" lon="14.2122102"><ele>83.0</ele><time>2026-05-01T07:43:59.448Z</time></trkpt><trkpt lat="42.4283625" lon="14.2121408"><ele>83.60000000000001</ele><time>2026-05-01T07:44:00.42Z</time></trkpt><trkpt lat="42.4282891" lon="14.2120796"><ele>84.2</ele><time>2026-05-01T07:44:01.425Z</time></trkpt><trkpt lat="42.4282121" lon="14.2120346"><ele>84.8</ele><time>2026-05-01T07:44:02.445Z</time></trkpt><trkpt lat="42.428135" lon="14.2119666"><ele>85.4</ele><time>2026-05-01T07:44:03.446Z</time></trkpt><trkpt lat="42.4280504" lon="14.2118817"><ele>86.0</ele><time>2026-05-01T07:44:04.443Z</time></trkpt><trkpt lat="42.4279663" lon="14.2117979"><ele>86.5</ele><time>2026-05-01T07:44:05.446Z</time></trkpt><trkpt lat="42.4278906" lon="14.2117187"><ele>87.0</ele><time>2026-05-01T07:44:06.446Z</time></trkpt><trkpt lat="42.4278273" lon="14.2116507"><ele>87.5</ele><time>2026-05-01T07:44:07.448Z</time></trkpt><trkpt lat="42.4277756" lon="14.2115753"><ele>88.0</ele><time>2026-05-01T07:44:08.448Z</time></trkpt><trkpt lat="42.4277203" lon="14.2114858"><ele>88.5</ele><time>2026-05-01T07:44:09.45Z</time></trkpt><trkpt lat="42.4276712" lon="14.2113773"><ele>89.0</ele><time>2026-05-01T07:44:10.446Z</time></trkpt><trkpt lat="42.4276227" lon="14.211275"><ele>89.0</ele><time>2026-05-01T07:44:11.447Z</time></trkpt><trkpt lat="42.4275668" lon="14.2111808"><ele>89.0</ele><time>2026-05-01T07:44:12.445Z</time></trkpt><trkpt lat="42.4275023" lon="14.2110915"><ele>89.0</ele><time>2026-05-01T07:44:13.469Z</time></trkpt><trkpt lat="42.4274365" lon="14.2110045"><ele>89.0</ele><time>2026-05-01T07:44:14.47Z</time></trkpt><trkpt lat="42.4273637" lon="14.2109219"><ele>89.0</ele><time>2026-05-01T07:44:15.443Z</time></trkpt><trkpt lat="42.4272917" lon="14.2108558"><ele>89.0</ele><time>2026-05-01T07:44:16.425Z</time></trkpt><trkpt lat="42.4272266" lon="14.2108092"><ele>89.0</ele><time>2026-05-01T07:44:17.426Z</time></trkpt><trkpt lat="42.4271629" lon="14.2107766"><ele>89.0</ele><time>2026-05-01T07:44:18.426Z</time></trkpt><trkpt lat="42.4270883" lon="14.2107473"><ele>89.0</ele><time>2026-05-01T07:44:19.45Z</time></trkpt><trkpt lat="42.4270047" lon="14.2107359"><ele>89.0</ele><time>2026-05-01T07:44:20.47Z</time></trkpt><trkpt lat="42.4269227" lon="14.2107223"><ele>89.0</ele><time>2026-05-01T07:44:21.473Z</time></trkpt><trkpt lat="42.4268412" lon="14.2107022"><ele>89.66666666666667</ele><time>2026-05-01T07:44:22.453Z</time></trkpt><trkpt lat="42.4267627" lon="14.2106798"><ele>90.33333333333334</ele><time>2026-05-01T07:44:23.449Z</time></trkpt><trkpt lat="42.4266893" lon="14.210648"><ele>91.0</ele><time>2026-05-01T07:44:24.449Z</time></trkpt><trkpt lat="42.4266045" lon="14.2106234"><ele>91.66666666666667</ele><time>2026-05-01T07:44:25.422Z</time></trkpt><trkpt lat="42.4265123" lon="14.2105928"><ele>92.33333333333333</ele><time>2026-05-01T07:44:26.448Z</time></trkpt><trkpt lat="42.4264365" lon="14.2105604"><ele>93.0</ele><time>2026-05-01T07:44:27.454Z</time></trkpt><trkpt lat="42.4263721" lon="14.21053"><ele>93.0</ele><time>2026-05-01T07:44:28.425Z</time></trkpt><trkpt lat="42.4263003" lon="14.210506"><ele>93.0</ele><time>2026-05-01T07:44:29.417Z</time></trkpt><trkpt lat="42.4262234" lon="14.210475"><ele>93.0</ele><time>2026-05-01T07:44:30.416Z</time></trkpt><trkpt lat="42.426147" lon="14.2104372"><ele>93.0</ele><time>2026-05-01T07:44:31.419Z</time></trkpt><trkpt lat="42.4260552" lon="14.2103868"><ele>93.0</ele><time>2026-05-01T07:44:32.411Z</time></trkpt><trkpt lat="42.4259477" lon="14.210316"><ele>93.0</ele><time>2026-05-01T07:44:33.393Z</time></trkpt><trkpt lat="42.4258426" lon="14.210251"><ele>93.0</ele><time>2026-05-01T07:44:34.417Z</time></trkpt><trkpt lat="42.4257495" lon="14.2101869"><ele>93.0</ele><time>2026-05-01T07:44:35.42Z</time></trkpt><trkpt lat="42.4256647" lon="14.2101274"><ele>93.0</ele><time>2026-05-01T07:44:36.393Z</time></trkpt><trkpt lat="42.4255713" lon="14.2100758"><ele>93.0</ele><time>2026-05-01T07:44:37.421Z</time></trkpt><trkpt lat="42.4254887" lon="14.2100258"><ele>93.0</ele><time>2026-05-01T07:44:38.42Z</time></trkpt><trkpt lat="42.4254198" lon="14.2099865"><ele>93.0</ele><time>2026-05-01T07:44:39.394Z</time></trkpt><trkpt lat="42.4253536" lon="14.2099429"><ele>93.0</ele><time>2026-05-01T07:44:41.416Z</time></trkpt><trkpt lat="42.4252786" lon="14.2099674"><ele>93.0</ele><time>2026-05-01T07:44:44.466Z</time></trkpt><trkpt lat="42.4252274" lon="14.2100478"><ele>93.0</ele><time>2026-05-01T07:44:46.464Z</time></trkpt><trkpt lat="42.4251883" lon="14.2101687"><ele>93.0</ele><time>2026-05-01T07:44:48.47Z</time></trkpt><trkpt lat="42.4251211" lon="14.2102856"><ele>93.0</ele><time>2026-05-01T07:44:50.471Z</time></trkpt><trkpt lat="42.4250519" lon="14.2104276"><ele>93.0</ele><time>2026-05-01T07:44:52.46Z</time></trkpt><trkpt lat="42.4250305" lon="14.2105251"><ele>93.0</ele><time>2026-05-01T07:44:53.467Z</time></trkpt><trkpt lat="42.4250054" lon="14.2106529"><ele>93.0</ele><time>2026-05-01T07:44:54.463Z</time></trkpt><trkpt lat="42.4249696" lon="14.2107967"><ele>93.0</ele><time>2026-05-01T07:44:55.469Z</time></trkpt><trkpt lat="42.4249335" lon="14.2109403"><ele>94.83333333333333</ele><time>2026-05-01T07:44:56.471Z</time></trkpt><trkpt lat="42.4249034" lon="14.2110709"><ele>96.66666666666666</ele><time>2026-05-01T07:44:57.468Z</time></trkpt><trkpt lat="42.4248719" lon="14.2111964"><ele>98.5</ele><time>2026-05-01T07:44:58.467Z</time></trkpt><trkpt lat="42.4248566" lon="14.2113055"><ele>100.33333333333333</ele><time>2026-05-01T07:44:59.468Z</time></trkpt><trkpt lat="42.4248463" lon="14.2114095"><ele>102.16666666666666</ele><time>2026-05-01T07:45:00.464Z</time></trkpt><trkpt lat="42.4248415" lon="14.2115214"><ele>104.0</ele><time>2026-05-01T07:45:01.462Z</time></trkpt><trkpt lat="42.424837" lon="14.2116355"><ele>104.49999999999999</ele><time>2026-05-01T07:45:02.441Z</time></trkpt><trkpt lat="42.4248266" lon="14.211756"><ele>105.0</ele><time>2026-05-01T07:45:03.441Z</time></trkpt><trkpt lat="42.4248174" lon="14.2118738"><ele>105.5</ele><time>2026-05-01T07:45:04.466Z</time></trkpt><trkpt lat="42.4248087" lon="14.2119868"><ele>106.0</ele><time>2026-05-01T07:45:05.461Z</time></trkpt><trkpt lat="42.4247976" lon="14.2120932"><ele>106.49999999999999</ele><time>2026-05-01T07:45:06.463Z</time></trkpt><trkpt lat="42.4247793" lon="14.2121916"><ele>107.0</ele><time>2026-05-01T07:45:07.459Z</time></trkpt><trkpt lat="42.42475" lon="14.2122917"><ele>107.83333333333333</ele><time>2026-05-01T07:45:08.462Z</time></trkpt><trkpt lat="42.4247166" lon="14.2124062"><ele>108.66666666666666</ele><time>2026-05-01T07:45:09.462Z</time></trkpt><trkpt lat="42.4246775" lon="14.2125159"><ele>109.5</ele><time>2026-05-01T07:45:10.461Z</time></trkpt><trkpt lat="42.4246432" lon="14.2126226"><ele>110.33333333333334</ele><time>2026-05-01T07:45:11.469Z</time></trkpt><trkpt lat="42.4246177" lon="14.2127212"><ele>111.16666666666667</ele><time>2026-05-01T07:45:12.46Z</time></trkpt><trkpt lat="42.4246009" lon="14.2128137"><ele>112.0</ele><time>2026-05-01T07:45:13.464Z</time></trkpt><trkpt lat="42.4245912" lon="14.21291"><ele>113.33333333333334</ele><time>2026-05-01T07:45:14.44Z</time></trkpt><trkpt lat="42.424574" lon="14.2130074"><ele>114.66666666666667</ele><time>2026-05-01T07:45:15.433Z</time></trkpt><trkpt lat="42.4245421" lon="14.213091"><ele>116.0</ele><time>2026-05-01T07:45:16.439Z</time></trkpt><trkpt lat="42.4244987" lon="14.213165"><ele>117.33333333333334</ele><time>2026-05-01T07:45:17.44Z</time></trkpt><trkpt lat="42.4244411" lon="14.213242"><ele>118.66666666666667</ele><time>2026-05-01T07:45:18.463Z</time></trkpt><trkpt lat="42.4243733" lon="14.2133138"><ele>120.0</ele><time>2026-05-01T07:45:19.462Z</time></trkpt><trkpt lat="42.4243118" lon="14.2133888"><ele>120.0</ele><time>2026-05-01T07:45:20.463Z</time></trkpt><trkpt lat="42.4242589" lon="14.2134577"><ele>120.0</ele><time>2026-05-01T07:45:21.459Z</time></trkpt><trkpt lat="42.4242089" lon="14.2135229"><ele>120.0</ele><time>2026-05-01T07:45:22.463Z</time></trkpt><trkpt lat="42.4241629" lon="14.2136696"><ele>120.0</ele><time>2026-05-01T07:45:24.463Z</time></trkpt><trkpt lat="42.4241541" lon="14.2137576"><ele>120.0</ele><time>2026-05-01T07:45:25.459Z</time></trkpt><trkpt lat="42.4241447" lon="14.213842"><ele>120.0</ele><time>2026-05-01T07:45:26.435Z</time></trkpt><trkpt lat="42.4240928" lon="14.2139521"><ele>122.0</ele><time>2026-05-01T07:45:28.463Z</time></trkpt><trkpt lat="42.424002" lon="14.2140906"><ele>124.0</ele><time>2026-05-01T07:45:30.459Z</time></trkpt><trkpt lat="42.4239355" lon="14.2141593"><ele>126.0</ele><time>2026-05-01T07:45:31.433Z</time></trkpt><trkpt lat="42.4238591" lon="14.2142402"><ele>128.0</ele><time>2026-05-01T07:45:32.433Z</time></trkpt><trkpt lat="42.4237899" lon="14.2143341"><ele>130.0</ele><time>2026-05-01T07:45:33.453Z</time></trkpt><trkpt lat="42.4237401" lon="14.2144314"><ele>130.8</ele><time>2026-05-01T07:45:34.454Z</time></trkpt><trkpt lat="42.4236932" lon="14.2145408"><ele>131.6</ele><time>2026-05-01T07:45:35.459Z</time></trkpt><trkpt lat="42.4236393" lon="14.214663"><ele>132.4</ele><time>2026-05-01T07:45:36.435Z</time></trkpt><trkpt lat="42.4235848" lon="14.2147728"><ele>133.2</ele><time>2026-05-01T07:45:37.456Z</time></trkpt><trkpt lat="42.423531" lon="14.2148728"><ele>134.0</ele><time>2026-05-01T07:45:38.455Z</time></trkpt><trkpt lat="42.4234865" lon="14.2149736"><ele>134.0</ele><time>2026-05-01T07:45:39.456Z</time></trkpt><trkpt lat="42.423441" lon="14.2150955"><ele>134.0</ele><time>2026-05-01T07:45:40.458Z</time></trkpt><trkpt lat="42.4233905" lon="14.2152275"><ele>134.0</ele><time>2026-05-01T07:45:41.461Z</time></trkpt><trkpt lat="42.4233429" lon="14.2153734"><ele>134.0</ele><time>2026-05-01T07:45:42.453Z</time></trkpt><trkpt lat="42.4232912" lon="14.2155302"><ele>135.75</ele><time>2026-05-01T07:45:43.454Z</time></trkpt><trkpt lat="42.4232377" lon="14.2156918"><ele>137.5</ele><time>2026-05-01T07:45:44.461Z</time></trkpt><trkpt lat="42.4231833" lon="14.2158455"><ele>139.25</ele><time>2026-05-01T07:45:45.459Z</time></trkpt><trkpt lat="42.4231322" lon="14.2159846"><ele>141.0</ele><time>2026-05-01T07:45:46.457Z</time></trkpt><trkpt lat="42.423082" lon="14.2161137"><ele>141.0</ele><time>2026-05-01T07:45:47.462Z</time></trkpt><trkpt lat="42.4230339" lon="14.2162641"><ele>141.0</ele><time>2026-05-01T07:45:48.462Z</time></trkpt><trkpt lat="42.4229921" lon="14.2164248"><ele>141.0</ele><time>2026-05-01T07:45:49.457Z</time></trkpt><trkpt lat="42.4229586" lon="14.2165832"><ele>141.0</ele><time>2026-05-01T07:45:50.458Z</time></trkpt><trkpt lat="42.4229226" lon="14.2167307"><ele>140.33333333333334</ele><time>2026-05-01T07:45:51.455Z</time></trkpt><trkpt lat="42.4228908" lon="14.2168575"><ele>139.66666666666666</ele><time>2026-05-01T07:45:52.435Z</time></trkpt><trkpt lat="42.42286" lon="14.2169434"><ele>139.0</ele><time>2026-05-01T07:45:53.457Z</time></trkpt><trkpt lat="42.4228189" lon="14.2170343"><ele>138.33333333333331</ele><time>2026-05-01T07:45:55.457Z</time></trkpt><trkpt lat="42.4227657" lon="14.2171338"><ele>137.66666666666666</ele><time>2026-05-01T07:45:58.466Z</time></trkpt><trkpt lat="42.4227682" lon="14.2172771"><ele>137.0</ele><time>2026-05-01T07:46:01.465Z</time></trkpt><trkpt lat="42.4228114" lon="14.2173793"><ele>137.0</ele><time>2026-05-01T07:46:02.46Z</time></trkpt><trkpt lat="42.4228615" lon="14.2174937"><ele>137.0</ele><time>2026-05-01T07:46:03.464Z</time></trkpt><trkpt lat="42.4229092" lon="14.2176052"><ele>137.0</ele><time>2026-05-01T07:46:04.445Z</time></trkpt><trkpt lat="42.4229691" lon="14.2177128"><ele>137.0</ele><time>2026-05-01T07:46:05.42Z</time></trkpt><trkpt lat="42.4230429" lon="14.2178144"><ele>137.0</ele><time>2026-05-01T07:46:06.464Z</time></trkpt><trkpt lat="42.4231267" lon="14.2179063"><ele>137.4</ele><time>2026-05-01T07:46:07.44Z</time></trkpt><trkpt lat="42.4232102" lon="14.21799"><ele>137.79999999999998</ele><time>2026-05-01T07:46:08.417Z</time></trkpt><trkpt lat="42.4232883" lon="14.2180904"><ele>138.2</ele><time>2026-05-01T07:46:09.413Z</time></trkpt><trkpt lat="42.423358" lon="14.218198"><ele>138.6</ele><time>2026-05-01T07:46:10.438Z</time></trkpt><trkpt lat="42.4234155" lon="14.2183219"><ele>139.0</ele><time>2026-05-01T07:46:11.44Z</time></trkpt><trkpt lat="42.4234596" lon="14.2184522"><ele>139.0</ele><time>2026-05-01T07:46:12.44Z</time></trkpt><trkpt lat="42.4234937" lon="14.2185873"><ele>139.0</ele><time>2026-05-01T07:46:13.455Z</time></trkpt><trkpt lat="42.4235262" lon="14.2187192"><ele>139.0</ele><time>2026-05-01T07:46:14.437Z</time></trkpt><trkpt lat="42.4235669" lon="14.2188339"><ele>139.0</ele><time>2026-05-01T07:46:15.436Z</time></trkpt><trkpt lat="42.4236157" lon="14.2189253"><ele>139.0</ele><time>2026-05-01T07:46:16.452Z</time></trkpt><trkpt lat="42.4236964" lon="14.2190013"><ele>139.0</ele><time>2026-05-01T07:46:18.457Z</time></trkpt><trkpt lat="42.4236259" lon="14.2190176"><ele>139.0</ele><time>2026-05-01T07:46:22.461Z</time></trkpt><trkpt lat="42.4235272" lon="14.2188864"><ele>139.0</ele><time>2026-05-01T07:46:24.464Z</time></trkpt><trkpt lat="42.4234582" lon="14.218783"><ele>139.0</ele><time>2026-05-01T07:46:25.439Z</time></trkpt><trkpt lat="42.423381" lon="14.2186734"><ele>139.0</ele><time>2026-05-01T07:46:26.436Z</time></trkpt><trkpt lat="42.4232988" lon="14.2185564"><ele>139.0</ele><time>2026-05-01T07:46:27.437Z</time></trkpt><trkpt lat="42.4232085" lon="14.2184376"><ele>139.0</ele><time>2026-05-01T07:46:28.454Z</time></trkpt><trkpt lat="42.4231205" lon="14.2183216"><ele>139.0</ele><time>2026-05-01T07:46:29.437Z</time></trkpt><trkpt lat="42.423037" lon="14.218219"><ele>139.0</ele><time>2026-05-01T07:46:30.414Z</time></trkpt><trkpt lat="42.422941" lon="14.2181447"><ele>138.5</ele><time>2026-05-01T07:46:31.415Z</time></trkpt><trkpt lat="42.4228306" lon="14.2181065"><ele>138.0</ele><time>2026-05-01T07:46:32.418Z</time></trkpt><trkpt lat="42.4227088" lon="14.2181146"><ele>137.5</ele><time>2026-05-01T07:46:33.438Z</time></trkpt><trkpt lat="42.4225918" lon="14.2181425"><ele>137.0</ele><time>2026-05-01T07:46:34.442Z</time></trkpt><trkpt lat="42.4224824" lon="14.2181572"><ele>137.0</ele><time>2026-05-01T07:46:35.439Z</time></trkpt><trkpt lat="42.4223765" lon="14.2181343"><ele>137.0</ele><time>2026-05-01T07:46:36.412Z</time></trkpt><trkpt lat="42.4222702" lon="14.2180888"><ele>137.0</ele><time>2026-05-01T07:46:37.435Z</time></trkpt><trkpt lat="42.4221624" lon="14.2180219"><ele>137.0</ele><time>2026-05-01T07:46:38.437Z</time></trkpt><trkpt lat="42.4220546" lon="14.2179327"><ele>132.5</ele><time>2026-05-01T07:46:39.406Z</time></trkpt><trkpt lat="42.4219495" lon="14.2178306"><ele>128.0</ele><time>2026-05-01T07:46:40.412Z</time></trkpt><trkpt lat="42.4218334" lon="14.217744"><ele>123.5</ele><time>2026-05-01T07:46:41.422Z</time></trkpt><trkpt lat="42.4217086" lon="14.2176731"><ele>119.0</ele><time>2026-05-01T07:46:42.425Z</time></trkpt><trkpt lat="42.4215796" lon="14.2176182"><ele>119.0</ele><time>2026-05-01T07:46:43.419Z</time></trkpt><trkpt lat="42.421457" lon="14.2175689"><ele>119.0</ele><time>2026-05-01T07:46:44.442Z</time></trkpt><trkpt lat="42.4213418" lon="14.2175087"><ele>119.0</ele><time>2026-05-01T07:46:45.443Z</time></trkpt><trkpt lat="42.4212342" lon="14.2174442"><ele>119.0</ele><time>2026-05-01T07:46:46.441Z</time></trkpt><trkpt lat="42.4211327" lon="14.2173619"><ele>118.0</ele><time>2026-05-01T07:46:47.46Z</time></trkpt><trkpt lat="42.4210409" lon="14.2172593"><ele>117.0</ele><time>2026-05-01T07:46:48.464Z</time></trkpt><trkpt lat="42.4209634" lon="14.2171442"><ele>116.0</ele><time>2026-05-01T07:46:49.416Z</time></trkpt><trkpt lat="42.4209129" lon="14.2170313"><ele>115.0</ele><time>2026-05-01T07:46:50.415Z</time></trkpt><trkpt lat="42.4208875" lon="14.2169207"><ele>114.0</ele><time>2026-05-01T07:46:51.463Z</time></trkpt><trkpt lat="42.4208948" lon="14.2167803"><ele>114.0</ele><time>2026-05-01T07:46:52.436Z</time></trkpt><trkpt lat="42.4209086" lon="14.2166335"><ele>114.0</ele><time>2026-05-01T07:46:53.44Z</time></trkpt><trkpt lat="42.4209089" lon="14.2164816"><ele>114.0</ele><time>2026-05-01T07:46:54.414Z</time></trkpt><trkpt lat="42.4209044" lon="14.2163342"><ele>114.0</ele><time>2026-05-01T07:46:55.419Z</time></trkpt><trkpt lat="42.4208861" lon="14.2162353"><ele>114.0</ele><time>2026-05-01T07:46:56.442Z</time></trkpt><trkpt lat="42.4208316" lon="14.2162863"><ele>114.0</ele><time>2026-05-01T07:49:07.451Z</time></trkpt><trkpt lat="42.4208295" lon="14.2163951"><ele>114.0</ele><time>2026-05-01T07:49:39.438Z</time></trkpt><trkpt lat="42.4208346" lon="14.2164875"><ele>114.0</ele><time>2026-05-01T07:49:40.439Z</time></trkpt><trkpt lat="42.4208212" lon="14.2165918"><ele>114.0</ele><time>2026-05-01T07:49:41.438Z</time></trkpt><trkpt lat="42.4208017" lon="14.2167082"><ele>114.0</ele><time>2026-05-01T07:49:42.459Z</time></trkpt><trkpt lat="42.4207878" lon="14.2168235"><ele>114.0</ele><time>2026-05-01T07:49:43.464Z</time></trkpt><trkpt lat="42.4207847" lon="14.2169414"><ele>114.0</ele><time>2026-05-01T07:49:44.461Z</time></trkpt><trkpt lat="42.4207859" lon="14.2170721"><ele>114.0</ele><time>2026-05-01T07:49:45.455Z</time></trkpt><trkpt lat="42.4207942" lon="14.2171864"><ele>114.0</ele><time>2026-05-01T07:49:46.457Z</time></trkpt><trkpt lat="42.4208057" lon="14.2172867"><ele>114.0</ele><time>2026-05-01T07:49:47.462Z</time></trkpt><trkpt lat="42.4208158" lon="14.2173862"><ele>114.0</ele><time>2026-05-01T07:49:48.462Z</time></trkpt><trkpt lat="42.4208322" lon="14.2174883"><ele>114.0</ele><time>2026-05-01T07:49:49.465Z</time></trkpt><trkpt lat="42.4208479" lon="14.2175925"><ele>112.0</ele><time>2026-05-01T07:49:50.465Z</time></trkpt><trkpt lat="42.4208671" lon="14.2176925"><ele>110.0</ele><time>2026-05-01T07:49:51.465Z</time></trkpt><trkpt lat="42.4208878" lon="14.2177858"><ele>108.0</ele><time>2026-05-01T07:49:52.444Z</time></trkpt><trkpt lat="42.420913" lon="14.2178678"><ele>106.0</ele><time>2026-05-01T07:49:53.439Z</time></trkpt><trkpt lat="42.4209235" lon="14.2180443"><ele>104.0</ele><time>2026-05-01T07:49:55.443Z</time></trkpt><trkpt lat="42.4209117" lon="14.2181345"><ele>102.0</ele><time>2026-05-01T07:49:56.439Z</time></trkpt><trkpt lat="42.4208641" lon="14.2182595"><ele>100.71428571428572</ele><time>2026-05-01T07:49:58.457Z</time></trkpt><trkpt lat="42.4208569" lon="14.2183532"><ele>99.42857142857143</ele><time>2026-05-01T07:50:02.458Z</time></trkpt><trkpt lat="42.4209235" lon="14.2184308"><ele>98.14285714285714</ele><time>2026-05-01T07:50:05.443Z</time></trkpt><trkpt lat="42.4209805" lon="14.2184744"><ele>96.85714285714286</ele><time>2026-05-01T07:52:57.448Z</time></trkpt><trkpt lat="42.4210505" lon="14.2185309"><ele>95.57142857142857</ele><time>2026-05-01T07:53:16.462Z</time></trkpt><trkpt lat="42.4211192" lon="14.218564"><ele>94.28571428571429</ele><time>2026-05-01T07:53:18.462Z</time></trkpt><trkpt lat="42.4211834" lon="14.2185848"><ele>93.0</ele><time>2026-05-01T07:53:21.437Z</time></trkpt><trkpt lat="42.4211356" lon="14.2185282"><ele>93.00000000000001</ele><time>2026-05-01T07:53:50.452Z</time></trkpt><trkpt lat="42.4210764" lon="14.2184784"><ele>93.0</ele><time>2026-05-01T07:53:55.427Z</time></trkpt><trkpt lat="42.4210146" lon="14.2184325"><ele>93.0</ele><time>2026-05-01T07:54:15.45Z</time></trkpt><trkpt lat="42.4209229" lon="14.2183846"><ele>93.0</ele><time>2026-05-01T07:54:19.419Z</time></trkpt><trkpt lat="42.4208977" lon="14.2183022"><ele>93.0</ele><time>2026-05-01T07:54:21.42Z</time></trkpt><trkpt lat="42.4208503" lon="14.2182411"><ele>93.00000000000001</ele><time>2026-05-01T07:54:25.444Z</time></trkpt><trkpt lat="42.4207868" lon="14.2182379"><ele>93.0</ele><time>2026-05-01T07:54:28.451Z</time></trkpt><trkpt lat="42.4207331" lon="14.2183073"><ele>93.00000000000001</ele><time>2026-05-01T07:54:31.445Z</time></trkpt><trkpt lat="42.4206891" lon="14.2183725"><ele>93.0</ele><time>2026-05-01T07:54:34.438Z</time></trkpt><trkpt lat="42.4206452" lon="14.2184485"><ele>93.0</ele><time>2026-05-01T07:54:38.441Z</time></trkpt><trkpt lat="42.4206029" lon="14.2185359"><ele>93.0</ele><time>2026-05-01T07:54:42.442Z</time></trkpt><trkpt lat="42.420556" lon="14.2186266"><ele>93.0</ele><time>2026-05-01T07:54:45.44Z</time></trkpt><trkpt lat="42.4205217" lon="14.2187022"><ele>93.00000000000001</ele><time>2026-05-01T07:54:47.445Z</time></trkpt><trkpt lat="42.4204896" lon="14.2188037"><ele>93.0</ele><time>2026-05-01T07:54:50.446Z</time></trkpt><trkpt lat="42.4204616" lon="14.2188987"><ele>88.80000000000001</ele><time>2026-05-01T07:54:52.449Z</time></trkpt><trkpt lat="42.4204272" lon="14.2190039"><ele>84.60000000000001</ele><time>2026-05-01T07:54:54.441Z</time></trkpt><trkpt lat="42.4203719" lon="14.2191262"><ele>80.4</ele><time>2026-05-01T07:54:56.45Z</time></trkpt><trkpt lat="42.4203225" lon="14.2192417"><ele>76.2</ele><time>2026-05-01T07:54:58.473Z</time></trkpt><trkpt lat="42.4202793" lon="14.2193798"><ele>72.0</ele><time>2026-05-01T07:55:00.441Z</time></trkpt><trkpt lat="42.4202353" lon="14.2195196"><ele>72.0</ele><time>2026-05-01T07:55:02.451Z</time></trkpt><trkpt lat="42.4201941" lon="14.2196521"><ele>72.0</ele><time>2026-05-01T07:55:04.44Z</time></trkpt><trkpt lat="42.420153" lon="14.2197858"><ele>72.0</ele><time>2026-05-01T07:55:06.452Z</time></trkpt><trkpt lat="42.4201258" lon="14.219863"><ele>72.0</ele><time>2026-05-01T07:55:07.444Z</time></trkpt><trkpt lat="42.4200949" lon="14.2199393"><ele>72.0</ele><time>2026-05-01T07:55:08.452Z</time></trkpt><trkpt lat="42.4200599" lon="14.2200119"><ele>72.0</ele><time>2026-05-01T07:55:09.448Z</time></trkpt><trkpt lat="42.4200247" lon="14.2200954"><ele>70.57142857142858</ele><time>2026-05-01T07:55:10.449Z</time></trkpt><trkpt lat="42.4199931" lon="14.2201807"><ele>69.14285714285714</ele><time>2026-05-01T07:55:11.453Z</time></trkpt><trkpt lat="42.4199614" lon="14.2202646"><ele>67.71428571428572</ele><time>2026-05-01T07:55:12.455Z</time></trkpt><trkpt lat="42.4199274" lon="14.2203477"><ele>66.28571428571429</ele><time>2026-05-01T07:55:13.452Z</time></trkpt><trkpt lat="42.4199038" lon="14.2204377"><ele>64.85714285714286</ele><time>2026-05-01T07:55:14.453Z</time></trkpt><trkpt lat="42.4198661" lon="14.220527"><ele>63.42857142857143</ele><time>2026-05-01T07:55:15.454Z</time></trkpt><trkpt lat="42.4198403" lon="14.2206292"><ele>62.0</ele><time>2026-05-01T07:55:16.447Z</time></trkpt><trkpt lat="42.4198128" lon="14.2207177"><ele>60.16666666666667</ele><time>2026-05-01T07:55:17.479Z</time></trkpt><trkpt lat="42.4197815" lon="14.2207993"><ele>58.333333333333336</ele><time>2026-05-01T07:55:18.451Z</time></trkpt><trkpt lat="42.4197362" lon="14.2209327"><ele>56.5</ele><time>2026-05-01T07:55:20.453Z</time></trkpt><trkpt lat="42.4196831" lon="14.2210354"><ele>54.66666666666667</ele><time>2026-05-01T07:55:22.455Z</time></trkpt><trkpt lat="42.4196153" lon="14.2210633"><ele>52.833333333333336</ele><time>2026-05-01T07:55:24.464Z</time></trkpt><trkpt lat="42.4195399" lon="14.220971"><ele>51.0</ele><time>2026-05-01T07:55:26.439Z</time></trkpt><trkpt lat="42.4194838" lon="14.2208948"><ele>50.8</ele><time>2026-05-01T07:55:27.442Z</time></trkpt><trkpt lat="42.4194044" lon="14.2208116"><ele>50.599999999999994</ele><time>2026-05-01T07:55:28.464Z</time></trkpt><trkpt lat="42.4193137" lon="14.2207442"><ele>50.4</ele><time>2026-05-01T07:55:29.447Z</time></trkpt><trkpt lat="42.4192229" lon="14.220688"><ele>50.2</ele><time>2026-05-01T07:55:30.451Z</time></trkpt><trkpt lat="42.4191442" lon="14.2206309"><ele>50.0</ele><time>2026-05-01T07:55:31.442Z</time></trkpt><trkpt lat="42.4190811" lon="14.2205721"><ele>50.333333333333336</ele><time>2026-05-01T07:55:32.442Z</time></trkpt><trkpt lat="42.4190291" lon="14.2205031"><ele>50.66666666666667</ele><time>2026-05-01T07:55:33.467Z</time></trkpt><trkpt lat="42.4189812" lon="14.2204231"><ele>51.0</ele><time>2026-05-01T07:55:34.445Z</time></trkpt><trkpt lat="42.418889" lon="14.2203082"><ele>51.33333333333333</ele><time>2026-05-01T07:55:36.429Z</time></trkpt><trkpt lat="42.4188205" lon="14.2202761"><ele>51.666666666666664</ele><time>2026-05-01T07:55:37.446Z</time></trkpt><trkpt lat="42.4187526" lon="14.2202627"><ele>52.0</ele><time>2026-05-01T07:55:38.474Z</time></trkpt><trkpt lat="42.418685" lon="14.2202665"><ele>51.99999999999999</ele><time>2026-05-01T07:55:39.465Z</time></trkpt><trkpt lat="42.418604" lon="14.2202666"><ele>52.0</ele><time>2026-05-01T07:55:40.445Z</time></trkpt><trkpt lat="42.4185142" lon="14.2202497"><ele>52.0</ele><time>2026-05-01T07:55:41.438Z</time></trkpt><trkpt lat="42.4184296" lon="14.2202079"><ele>52.0</ele><time>2026-05-01T07:55:42.414Z</time></trkpt><trkpt lat="42.4183529" lon="14.2201535"><ele>51.99999999999999</ele><time>2026-05-01T07:55:43.442Z</time></trkpt><trkpt lat="42.418286" lon="14.220085"><ele>52.0</ele><time>2026-05-01T07:55:44.422Z</time></trkpt><trkpt lat="42.4182214" lon="14.2200053"><ele>51.99999999999999</ele><time>2026-05-01T07:55:45.444Z</time></trkpt><trkpt lat="42.4181639" lon="14.2199159"><ele>52.0</ele><time>2026-05-01T07:55:46.437Z</time></trkpt><trkpt lat="42.4181214" lon="14.2198269"><ele>52.0</ele><time>2026-05-01T07:55:47.476Z</time></trkpt><trkpt lat="42.4180791" lon="14.2197624"><ele>52.0</ele><time>2026-05-01T07:55:48.418Z</time></trkpt><trkpt lat="42.4179831" lon="14.2196724"><ele>51.99999999999999</ele><time>2026-05-01T07:55:50.425Z</time></trkpt><trkpt lat="42.4179175" lon="14.2196291"><ele>52.0</ele><time>2026-05-01T07:55:51.452Z</time></trkpt><trkpt lat="42.4178383" lon="14.2195813"><ele>51.99999999999999</ele><time>2026-05-01T07:55:52.42Z</time></trkpt><trkpt lat="42.4177668" lon="14.2195472"><ele>52.0</ele><time>2026-05-01T07:55:53.431Z</time></trkpt><trkpt lat="42.4177022" lon="14.2195323"><ele>52.0</ele><time>2026-05-01T07:55:54.445Z</time></trkpt><trkpt lat="42.417615" lon="14.2195046"><ele>52.0</ele><time>2026-05-01T07:55:56.449Z</time></trkpt><trkpt lat="42.417626" lon="14.219365"><ele>51.99999999999999</ele><time>2026-05-01T07:55:59.444Z</time></trkpt><trkpt lat="42.4176086" lon="14.2192783"><ele>52.0</ele><time>2026-05-01T07:56:01.418Z</time></trkpt><trkpt lat="42.4175347" lon="14.2192211"><ele>52.0</ele><time>2026-05-01T07:56:05.446Z</time></trkpt><trkpt lat="42.4174761" lon="14.2191795"><ele>52.0</ele><time>2026-05-01T07:56:07.446Z</time></trkpt><trkpt lat="42.4174291" lon="14.2191201"><ele>52.0</ele><time>2026-05-01T07:56:09.471Z</time></trkpt><trkpt lat="42.417387" lon="14.2190294"><ele>52.0</ele><time>2026-05-01T07:56:13.453Z</time></trkpt><trkpt lat="42.417336" lon="14.2189632"><ele>52.0</ele><time>2026-05-01T07:57:48.455Z</time></trkpt><trkpt lat="42.4173037" lon="14.2188893"><ele>52.0</ele><time>2026-05-01T07:57:52.437Z</time></trkpt><trkpt lat="42.4172462" lon="14.2188448"><ele>52.0</ele><time>2026-05-01T07:58:28.434Z</time></trkpt><trkpt lat="42.4171946" lon="14.2187718"><ele>52.57142857142857</ele><time>2026-05-01T07:58:30.448Z</time></trkpt><trkpt lat="42.4171288" lon="14.218695"><ele>53.142857142857146</ele><time>2026-05-01T07:58:32.466Z</time></trkpt><trkpt lat="42.4170813" lon="14.21863"><ele>53.714285714285715</ele><time>2026-05-01T08:00:01.437Z</time></trkpt><trkpt lat="42.4170225" lon="14.2185772"><ele>54.285714285714285</ele><time>2026-05-01T08:00:03.436Z</time></trkpt><trkpt lat="42.4169676" lon="14.2185342"><ele>54.85714285714286</ele><time>2026-05-01T08:00:05.455Z</time></trkpt><trkpt lat="42.4169082" lon="14.2184923"><ele>55.42857142857143</ele><time>2026-05-01T08:00:07.452Z</time></trkpt><trkpt lat="42.416826" lon="14.2184316"><ele>56.0</ele><time>2026-05-01T08:00:09.428Z</time></trkpt><trkpt lat="42.416773" lon="14.2183458"><ele>56.00000000000001</ele><time>2026-05-01T08:00:11.449Z</time></trkpt><trkpt lat="42.4167288" lon="14.218232"><ele>56.0</ele><time>2026-05-01T08:00:13.457Z</time></trkpt><trkpt lat="42.4166846" lon="14.2180989"><ele>56.0</ele><time>2026-05-01T08:00:15.456Z</time></trkpt><trkpt lat="42.4166498" lon="14.2180265"><ele>56.0</ele><time>2026-05-01T08:00:16.459Z</time></trkpt><trkpt lat="42.4166086" lon="14.2179516"><ele>56.00000000000001</ele><time>2026-05-01T08:00:17.462Z</time></trkpt><trkpt lat="42.4165709" lon="14.2178831"><ele>56.0</ele><time>2026-05-01T08:00:18.457Z</time></trkpt><trkpt lat="42.4165316" lon="14.2178118"><ele>56.50000000000001</ele><time>2026-05-01T08:00:19.462Z</time></trkpt><trkpt lat="42.4164931" lon="14.2177377"><ele>57.0</ele><time>2026-05-01T08:00:20.454Z</time></trkpt><trkpt lat="42.416454" lon="14.2176608"><ele>57.5</ele><time>2026-05-01T08:00:21.466Z</time></trkpt><trkpt lat="42.4164158" lon="14.2175917"><ele>58.0</ele><time>2026-05-01T08:00:22.453Z</time></trkpt><trkpt lat="42.4163419" lon="14.21746"><ele>58.50000000000001</ele><time>2026-05-01T08:00:24.459Z</time></trkpt><trkpt lat="42.4162941" lon="14.2174025"><ele>59.0</ele><time>2026-05-01T08:00:25.459Z</time></trkpt><trkpt lat="42.4162375" lon="14.2173352"><ele>58.857142857142854</ele><time>2026-05-01T08:00:26.452Z</time></trkpt><trkpt lat="42.4161788" lon="14.2172642"><ele>58.71428571428572</ele><time>2026-05-01T08:00:27.461Z</time></trkpt><trkpt lat="42.4161158" lon="14.2171926"><ele>58.57142857142858</ele><time>2026-05-01T08:00:28.461Z</time></trkpt><trkpt lat="42.4160527" lon="14.2171276"><ele>58.42857142857143</ele><time>2026-05-01T08:00:29.458Z</time></trkpt><trkpt lat="42.4159964" lon="14.2170689"><ele>58.28571428571429</ele><time>2026-05-01T08:00:30.46Z</time></trkpt><trkpt lat="42.415943" lon="14.217018"><ele>58.14285714285715</ele><time>2026-05-01T08:00:31.46Z</time></trkpt><trkpt lat="42.4158903" lon="14.2169601"><ele>58.00000000000001</ele><time>2026-05-01T08:00:32.457Z</time></trkpt><trkpt lat="42.415837" lon="14.2168873"><ele>57.99999999999999</ele><time>2026-05-01T08:00:33.452Z</time></trkpt><trkpt lat="42.4157948" lon="14.2168224"><ele>58.0</ele><time>2026-05-01T08:00:34.456Z</time></trkpt><trkpt lat="42.415719" lon="14.2167103"><ele>58.0</ele><time>2026-05-01T08:00:36.446Z</time></trkpt><trkpt lat="42.4156527" lon="14.2166362"><ele>58.0</ele><time>2026-05-01T08:00:38.449Z</time></trkpt><trkpt lat="42.4155589" lon="14.2165821"><ele>57.99999999999999</ele><time>2026-05-01T08:00:42.453Z</time></trkpt><trkpt lat="42.4154874" lon="14.2165591"><ele>58.0</ele><time>2026-05-01T08:00:44.452Z</time></trkpt><trkpt lat="42.4154161" lon="14.2165247"><ele>58.33333333333333</ele><time>2026-05-01T08:00:46.428Z</time></trkpt><trkpt lat="42.4153708" lon="14.2164381"><ele>58.666666666666664</ele><time>2026-05-01T08:00:48.448Z</time></trkpt><trkpt lat="42.4153352" lon="14.2163344"><ele>59.0</ele><time>2026-05-01T08:00:50.448Z</time></trkpt><trkpt lat="42.415293" lon="14.2162296"><ele>59.33333333333333</ele><time>2026-05-01T08:00:52.466Z</time></trkpt><trkpt lat="42.4152516" lon="14.2161333"><ele>59.666666666666664</ele><time>2026-05-01T08:00:54.432Z</time></trkpt><trkpt lat="42.4151746" lon="14.2160391"><ele>60.0</ele><time>2026-05-01T08:00:56.461Z</time></trkpt><trkpt lat="42.4150944" lon="14.2159629"><ele>60.0</ele><time>2026-05-01T08:00:58.414Z</time></trkpt><trkpt lat="42.4150098" lon="14.2158751"><ele>60.0</ele><time>2026-05-01T08:01:00.453Z</time></trkpt><trkpt lat="42.4149255" lon="14.2157896"><ele>60.0</ele><time>2026-05-01T08:01:02.434Z</time></trkpt><trkpt lat="42.4148547" lon="14.215657"><ele>60.0</ele><time>2026-05-01T08:01:04.427Z</time></trkpt><trkpt lat="42.4148198" lon="14.2154947"><ele>60.714285714285715</ele><time>2026-05-01T08:01:06.446Z</time></trkpt><trkpt lat="42.4148126" lon="14.215402"><ele>61.42857142857143</ele><time>2026-05-01T08:01:07.454Z</time></trkpt><trkpt lat="42.4148092" lon="14.2153167"><ele>62.142857142857146</ele><time>2026-05-01T08:01:08.449Z</time></trkpt><trkpt lat="42.4148" lon="14.2152204"><ele>62.85714285714286</ele><time>2026-05-01T08:01:09.461Z</time></trkpt><trkpt lat="42.4147842" lon="14.2151335"><ele>63.57142857142857</ele><time>2026-05-01T08:01:10.446Z</time></trkpt><trkpt lat="42.4147684" lon="14.2150444"><ele>64.28571428571429</ele><time>2026-05-01T08:01:11.452Z</time></trkpt><trkpt lat="42.4147505" lon="14.2149594"><ele>65.0</ele><time>2026-05-01T08:01:12.457Z</time></trkpt><trkpt lat="42.4147377" lon="14.2148548"><ele>65.66666666666667</ele><time>2026-05-01T08:01:14.459Z</time></trkpt><trkpt lat="42.4147489" lon="14.2147413"><ele>66.33333333333334</ele><time>2026-05-01T08:01:16.463Z</time></trkpt><trkpt lat="42.4147755" lon="14.2146334"><ele>67.0</ele><time>2026-05-01T08:01:18.465Z</time></trkpt><trkpt lat="42.4147834" lon="14.2145182"><ele>67.66666666666667</ele><time>2026-05-01T08:01:20.42Z</time></trkpt><trkpt lat="42.4147642" lon="14.2144325"><ele>68.33333333333333</ele><time>2026-05-01T08:01:22.465Z</time></trkpt><trkpt lat="42.4147069" lon="14.2143107"><ele>69.0</ele><time>2026-05-01T08:01:24.468Z</time></trkpt><trkpt lat="42.4146579" lon="14.2142322"><ele>68.4</ele><time>2026-05-01T08:01:25.459Z</time></trkpt><trkpt lat="42.4146168" lon="14.2141517"><ele>67.80000000000001</ele><time>2026-05-01T08:01:26.464Z</time></trkpt><trkpt lat="42.4145701" lon="14.2140827"><ele>67.19999999999999</ele><time>2026-05-01T08:01:27.464Z</time></trkpt><trkpt lat="42.4145077" lon="14.2139515"><ele>66.6</ele><time>2026-05-01T08:01:29.462Z</time></trkpt><trkpt lat="42.4144467" lon="14.2138247"><ele>66.0</ele><time>2026-05-01T08:01:31.453Z</time></trkpt><trkpt lat="42.4143948" lon="14.2137301"><ele>66.2</ele><time>2026-05-01T08:01:33.459Z</time></trkpt><trkpt lat="42.4143898" lon="14.2136226"><ele>66.39999999999999</ele><time>2026-05-01T08:01:35.454Z</time></trkpt><trkpt lat="42.4144464" lon="14.2134975"><ele>66.6</ele><time>2026-05-01T08:01:37.455Z</time></trkpt><trkpt lat="42.4145158" lon="14.213365"><ele>66.8</ele><time>2026-05-01T08:01:39.46Z</time></trkpt><trkpt lat="42.4145458" lon="14.2132033"><ele>67.0</ele><time>2026-05-01T08:01:41.459Z</time></trkpt><trkpt lat="42.4145415" lon="14.2130479"><ele>67.0</ele><time>2026-05-01T08:01:43.455Z</time></trkpt><trkpt lat="42.4145329" lon="14.2129536"><ele>67.0</ele><time>2026-05-01T08:01:44.464Z</time></trkpt><trkpt lat="42.4145149" lon="14.2128513"><ele>67.0</ele><time>2026-05-01T08:01:45.458Z</time></trkpt><trkpt lat="42.4144946" lon="14.2127603"><ele>67.0</ele><time>2026-05-01T08:01:46.455Z</time></trkpt><trkpt lat="42.4144751" lon="14.2126712"><ele>67.0</ele><time>2026-05-01T08:01:47.454Z</time></trkpt><trkpt lat="42.4144124" lon="14.2125387"><ele>67.0</ele><time>2026-05-01T08:01:49.451Z</time></trkpt><trkpt lat="42.4143424" lon="14.2124069"><ele>67.16666666666666</ele><time>2026-05-01T08:01:51.452Z</time></trkpt><trkpt lat="42.414285" lon="14.2122949"><ele>67.33333333333333</ele><time>2026-05-01T08:01:53.455Z</time></trkpt><trkpt lat="42.4142248" lon="14.2121642"><ele>67.5</ele><time>2026-05-01T08:01:55.449Z</time></trkpt><trkpt lat="42.4141886" lon="14.2120776"><ele>67.66666666666667</ele><time>2026-05-01T08:01:56.448Z</time></trkpt><trkpt lat="42.4141555" lon="14.2119904"><ele>67.83333333333334</ele><time>2026-05-01T08:01:57.455Z</time></trkpt><trkpt lat="42.4141159" lon="14.2118892"><ele>68.0</ele><time>2026-05-01T08:01:58.452Z</time></trkpt><trkpt lat="42.4140718" lon="14.2117844"><ele>68.0</ele><time>2026-05-01T08:01:59.462Z</time></trkpt><trkpt lat="42.4140328" lon="14.2116725"><ele>68.0</ele><time>2026-05-01T08:02:00.455Z</time></trkpt><trkpt lat="42.4139955" lon="14.2115624"><ele>68.0</ele><time>2026-05-01T08:02:01.454Z</time></trkpt><trkpt lat="42.4139535" lon="14.2114525"><ele>68.0</ele><time>2026-05-01T08:02:02.461Z</time></trkpt><trkpt lat="42.4139144" lon="14.2113523"><ele>68.0</ele><time>2026-05-01T08:02:03.457Z</time></trkpt><trkpt lat="42.4138865" lon="14.2112605"><ele>68.0</ele><time>2026-05-01T08:02:04.458Z</time></trkpt><trkpt lat="42.413857" lon="14.2111709"><ele>68.6</ele><time>2026-05-01T08:02:05.456Z</time></trkpt><trkpt lat="42.413833" lon="14.2110905"><ele>69.19999999999999</ele><time>2026-05-01T08:02:06.462Z</time></trkpt><trkpt lat="42.4137843" lon="14.2109647"><ele>69.8</ele><time>2026-05-01T08:02:08.461Z</time></trkpt><trkpt lat="42.4137563" lon="14.2108806"><ele>70.39999999999999</ele><time>2026-05-01T08:02:09.463Z</time></trkpt><trkpt lat="42.413733" lon="14.210727"><ele>71.0</ele><time>2026-05-01T08:02:11.466Z</time></trkpt><trkpt lat="42.413749" lon="14.2105869"><ele>71.2</ele><time>2026-05-01T08:02:13.457Z</time></trkpt><trkpt lat="42.413759" lon="14.2104776"><ele>71.39999999999999</ele><time>2026-05-01T08:02:15.459Z</time></trkpt><trkpt lat="42.4137268" lon="14.2103513"><ele>71.6</ele><time>2026-05-01T08:02:17.434Z</time></trkpt><trkpt lat="42.4136755" lon="14.2102347"><ele>71.8</ele><time>2026-05-01T08:02:19.461Z</time></trkpt><trkpt lat="42.4135975" lon="14.2101134"><ele>72.0</ele><time>2026-05-01T08:02:21.44Z</time></trkpt><trkpt lat="42.413507" lon="14.2100207"><ele>72.0</ele><time>2026-05-01T08:02:23.428Z</time></trkpt><trkpt lat="42.4134001" lon="14.2099638"><ele>72.0</ele><time>2026-05-01T08:02:25.439Z</time></trkpt><trkpt lat="42.4133107" lon="14.2099118"><ele>72.0</ele><time>2026-05-01T08:02:27.454Z</time></trkpt><trkpt lat="42.4132553" lon="14.2098626"><ele>72.0</ele><time>2026-05-01T08:02:29.455Z</time></trkpt><trkpt lat="42.413193" lon="14.2098403"><ele>72.0</ele><time>2026-05-01T08:02:33.479Z</time></trkpt><trkpt lat="42.4131312" lon="14.2098814"><ele>72.0</ele><time>2026-05-01T08:02:57.474Z</time></trkpt><trkpt lat="42.4130514" lon="14.2099208"><ele>73.16666666666667</ele><time>2026-05-01T08:02:59.483Z</time></trkpt><trkpt lat="42.4129209" lon="14.2100174"><ele>74.33333333333333</ele><time>2026-05-01T08:03:01.479Z</time></trkpt><trkpt lat="42.4128644" lon="14.2100627"><ele>75.5</ele><time>2026-05-01T08:03:02.479Z</time></trkpt><trkpt lat="42.4128233" lon="14.2101355"><ele>76.66666666666666</ele><time>2026-05-01T08:03:07.485Z</time></trkpt><trkpt lat="42.4128445" lon="14.2102452"><ele>77.83333333333333</ele><time>2026-05-01T08:03:10.455Z</time></trkpt><trkpt lat="42.4128595" lon="14.2103562"><ele>79.0</ele><time>2026-05-01T08:03:11.462Z</time></trkpt><trkpt lat="42.4128712" lon="14.2105327"><ele>80.33333333333333</ele><time>2026-05-01T08:03:12.46Z</time></trkpt><trkpt lat="42.4128677" lon="14.2107404"><ele>81.66666666666667</ele><time>2026-05-01T08:03:13.458Z</time></trkpt><trkpt lat="42.4128678" lon="14.210987"><ele>83.0</ele><time>2026-05-01T08:03:14.459Z</time></trkpt><trkpt lat="42.4128455" lon="14.2111791"><ele>83.0</ele><time>2026-05-01T08:03:15.473Z</time></trkpt><trkpt lat="42.41283" lon="14.2113425"><ele>83.0</ele><time>2026-05-01T08:03:16.475Z</time></trkpt><trkpt lat="42.4128355" lon="14.2114876"><ele>83.0</ele><time>2026-05-01T08:03:17.483Z</time></trkpt><trkpt lat="42.4128696" lon="14.2116319"><ele>83.0</ele><time>2026-05-01T08:03:18.479Z</time></trkpt><trkpt lat="42.4128868" lon="14.2117922"><ele>82.80000000000001</ele><time>2026-05-01T08:03:19.486Z</time></trkpt><trkpt lat="42.4129057" lon="14.2119324"><ele>82.6</ele><time>2026-05-01T08:03:20.467Z</time></trkpt><trkpt lat="42.4129144" lon="14.2120598"><ele>82.4</ele><time>2026-05-01T08:03:21.481Z</time></trkpt><trkpt lat="42.4129244" lon="14.2121547"><ele>82.19999999999999</ele><time>2026-05-01T08:03:22.452Z</time></trkpt><trkpt lat="42.4129459" lon="14.2123153"><ele>82.0</ele><time>2026-05-01T08:03:24.478Z</time></trkpt><trkpt lat="42.4129679" lon="14.2123988"><ele>80.66666666666666</ele><time>2026-05-01T08:03:25.43Z</time></trkpt><trkpt lat="42.4129975" lon="14.2124841"><ele>79.33333333333333</ele><time>2026-05-01T08:03:26.459Z</time></trkpt><trkpt lat="42.4130473" lon="14.2126357"><ele>78.0</ele><time>2026-05-01T08:03:28.451Z</time></trkpt><trkpt lat="42.4130772" lon="14.2127311"><ele>76.66666666666667</ele><time>2026-05-01T08:03:29.445Z</time></trkpt><trkpt lat="42.4131127" lon="14.2128318"><ele>75.33333333333334</ele><time>2026-05-01T08:03:30.476Z</time></trkpt><trkpt lat="42.4131447" lon="14.2129415"><ele>74.0</ele><time>2026-05-01T08:03:31.459Z</time></trkpt><trkpt lat="42.4131757" lon="14.2130384"><ele>74.0</ele><time>2026-05-01T08:03:32.478Z</time></trkpt><trkpt lat="42.4132036" lon="14.2131357"><ele>74.0</ele><time>2026-05-01T08:03:33.463Z</time></trkpt><trkpt lat="42.4132346" lon="14.2132403"><ele>74.0</ele><time>2026-05-01T08:03:34.478Z</time></trkpt><trkpt lat="42.4132693" lon="14.2133458"><ele>74.0</ele><time>2026-05-01T08:03:35.441Z</time></trkpt><trkpt lat="42.4133008" lon="14.2134613"><ele>74.0</ele><time>2026-05-01T08:03:36.448Z</time></trkpt><trkpt lat="42.4133327" lon="14.2135764"><ele>74.0</ele><time>2026-05-01T08:03:37.437Z</time></trkpt><trkpt lat="42.4133538" lon="14.2136871"><ele>74.16666666666667</ele><time>2026-05-01T08:03:38.448Z</time></trkpt><trkpt lat="42.4133651" lon="14.213799"><ele>74.33333333333334</ele><time>2026-05-01T08:03:39.47Z</time></trkpt><trkpt lat="42.4133715" lon="14.2139082"><ele>74.5</ele><time>2026-05-01T08:03:40.449Z</time></trkpt><trkpt lat="42.4133827" lon="14.2140131"><ele>74.66666666666667</ele><time>2026-05-01T08:03:41.473Z</time></trkpt><trkpt lat="42.4133927" lon="14.2141257"><ele>74.83333333333333</ele><time>2026-05-01T08:03:42.465Z</time></trkpt><trkpt lat="42.4134148" lon="14.214248"><ele>75.0</ele><time>2026-05-01T08:03:43.47Z</time></trkpt><trkpt lat="42.4134496" lon="14.2143659"><ele>77.25</ele><time>2026-05-01T08:03:44.466Z</time></trkpt><trkpt lat="42.4135006" lon="14.2144971"><ele>79.5</ele><time>2026-05-01T08:03:45.438Z</time></trkpt><trkpt lat="42.4135608" lon="14.2146547"><ele>81.75</ele><time>2026-05-01T08:03:46.474Z</time></trkpt><trkpt lat="42.4136274" lon="14.2148147"><ele>84.0</ele><time>2026-05-01T08:03:47.474Z</time></trkpt><trkpt lat="42.4136989" lon="14.2149702"><ele>85.5</ele><time>2026-05-01T08:03:48.458Z</time></trkpt><trkpt lat="42.4137647" lon="14.2151205"><ele>87.0</ele><time>2026-05-01T08:03:49.428Z</time></trkpt><trkpt lat="42.4138233" lon="14.2152732"><ele>88.5</ele><time>2026-05-01T08:03:50.424Z</time></trkpt><trkpt lat="42.4138833" lon="14.215429"><ele>90.0</ele><time>2026-05-01T08:03:51.43Z</time></trkpt><trkpt lat="42.4139373" lon="14.2155934"><ele>86.25</ele><time>2026-05-01T08:03:52.443Z</time></trkpt><trkpt lat="42.4139989" lon="14.2157524"><ele>82.5</ele><time>2026-05-01T08:03:53.474Z</time></trkpt><trkpt lat="42.4140696" lon="14.2159162"><ele>78.75</ele><time>2026-05-01T08:03:54.448Z</time></trkpt><trkpt lat="42.4141539" lon="14.2161065"><ele>75.0</ele><time>2026-05-01T08:03:55.474Z</time></trkpt><trkpt lat="42.4142415" lon="14.2162772"><ele>75.0</ele><time>2026-05-01T08:03:56.453Z</time></trkpt><trkpt lat="42.4142952" lon="14.2164576"><ele>75.0</ele><time>2026-05-01T08:03:57.432Z</time></trkpt><trkpt lat="42.4143683" lon="14.2166132"><ele>75.0</ele><time>2026-05-01T08:03:58.451Z</time></trkpt><trkpt lat="42.4144209" lon="14.21678"><ele>75.0</ele><time>2026-05-01T08:03:59.455Z</time></trkpt><trkpt lat="42.4144972" lon="14.2169302"><ele>76.5</ele><time>2026-05-01T08:04:00.478Z</time></trkpt><trkpt lat="42.4145455" lon="14.2170731"><ele>78.0</ele><time>2026-05-01T08:04:01.453Z</time></trkpt><trkpt lat="42.4145843" lon="14.2172301"><ele>79.5</ele><time>2026-05-01T08:04:02.451Z</time></trkpt><trkpt lat="42.4145994" lon="14.2173955"><ele>81.0</ele><time>2026-05-01T08:04:03.475Z</time></trkpt><trkpt lat="42.4146027" lon="14.2175495"><ele>83.19999999999999</ele><time>2026-05-01T08:04:04.455Z</time></trkpt><trkpt lat="42.4145882" lon="14.2176873"><ele>85.39999999999999</ele><time>2026-05-01T08:04:05.453Z</time></trkpt><trkpt lat="42.4145511" lon="14.2177907"><ele>87.6</ele><time>2026-05-01T08:04:06.452Z</time></trkpt><trkpt lat="42.4144775" lon="14.2178807"><ele>89.8</ele><time>2026-05-01T08:04:07.467Z</time></trkpt><trkpt lat="42.4143678" lon="14.2179532"><ele>92.0</ele><time>2026-05-01T08:04:08.476Z</time></trkpt><trkpt lat="42.4142427" lon="14.2180235"><ele>92.0</ele><time>2026-05-01T08:04:09.479Z</time></trkpt><trkpt lat="42.4141337" lon="14.2181108"><ele>92.0</ele><time>2026-05-01T08:04:10.48Z</time></trkpt><trkpt lat="42.4140536" lon="14.2182171"><ele>92.0</ele><time>2026-05-01T08:04:11.479Z</time></trkpt><trkpt lat="42.4139855" lon="14.2183468"><ele>92.0</ele><time>2026-05-01T08:04:12.464Z</time></trkpt><trkpt lat="42.4139241" lon="14.2184731"><ele>91.0</ele><time>2026-05-01T08:04:13.457Z</time></trkpt><trkpt lat="42.413883" lon="14.2185709"><ele>90.0</ele><time>2026-05-01T08:04:14.426Z</time></trkpt><trkpt lat="42.4138323" lon="14.2186467"><ele>89.0</ele><time>2026-05-01T08:04:16.427Z</time></trkpt><trkpt lat="42.4138177" lon="14.2187552"><ele>88.0</ele><time>2026-05-01T08:04:27.411Z</time></trkpt><trkpt lat="42.4138241" lon="14.2188669"><ele>87.0</ele><time>2026-05-01T08:04:29.408Z</time></trkpt><trkpt lat="42.413811" lon="14.218997"><ele>86.0</ele><time>2026-05-01T08:04:31.418Z</time></trkpt><trkpt lat="42.4137923" lon="14.2190787"><ele>86.00000000000001</ele><time>2026-05-01T08:04:42.415Z</time></trkpt><trkpt lat="42.4137439" lon="14.2191346"><ele>86.0</ele><time>2026-05-01T08:04:46.406Z</time></trkpt><trkpt lat="42.4136876" lon="14.2191859"><ele>86.0</ele><time>2026-05-01T08:04:56.454Z</time></trkpt><trkpt lat="42.4136243" lon="14.2192477"><ele>86.0</ele><time>2026-05-01T08:05:05.447Z</time></trkpt><trkpt lat="42.4135607" lon="14.2193226"><ele>86.0</ele><time>2026-05-01T08:05:09.445Z</time></trkpt><trkpt lat="42.413534" lon="14.2194164"><ele>86.00000000000001</ele><time>2026-05-01T08:05:15.439Z</time></trkpt><trkpt lat="42.4135456" lon="14.2195089"><ele>86.0</ele><time>2026-05-01T08:05:24.44Z</time></trkpt><trkpt lat="42.4135697" lon="14.2196174"><ele>86.0</ele><time>2026-05-01T08:05:29.438Z</time></trkpt><trkpt lat="42.4135837" lon="14.2197476"><ele>86.0</ele><time>2026-05-01T08:05:32.441Z</time></trkpt><trkpt lat="42.4136124" lon="14.2198805"><ele>86.0</ele><time>2026-05-01T08:05:34.417Z</time></trkpt><trkpt lat="42.4136221" lon="14.2200244"><ele>86.0</ele><time>2026-05-01T08:05:36.439Z</time></trkpt><trkpt lat="42.413644" lon="14.2201344"><ele>86.0</ele><time>2026-05-01T08:05:38.439Z</time></trkpt><trkpt lat="42.4136552" lon="14.2202537"><ele>84.16666666666667</ele><time>2026-05-01T08:05:40.432Z</time></trkpt><trkpt lat="42.413658" lon="14.2204292"><ele>82.33333333333334</ele><time>2026-05-01T08:05:42.437Z</time></trkpt><trkpt lat="42.4136686" lon="14.2205222"><ele>80.5</ele><time>2026-05-01T08:05:43.437Z</time></trkpt><trkpt lat="42.4136761" lon="14.2206153"><ele>78.66666666666667</ele><time>2026-05-01T08:05:44.435Z</time></trkpt><trkpt lat="42.4136814" lon="14.2207045"><ele>76.83333333333333</ele><time>2026-05-01T08:05:45.431Z</time></trkpt><trkpt lat="42.413677" lon="14.2207907"><ele>75.0</ele><time>2026-05-01T08:05:46.433Z</time></trkpt><trkpt lat="42.4136467" lon="14.2209499"><ele>75.0</ele><time>2026-05-01T08:05:48.434Z</time></trkpt><trkpt lat="42.4136293" lon="14.221034"><ele>75.0</ele><time>2026-05-01T08:05:49.41Z</time></trkpt><trkpt lat="42.413599" lon="14.2211103"><ele>75.0</ele><time>2026-05-01T08:05:50.408Z</time></trkpt><trkpt lat="42.4134908" lon="14.2211065"><ele>75.0</ele><time>2026-05-01T08:05:52.462Z</time></trkpt><trkpt lat="42.4133988" lon="14.2211099"><ele>75.0</ele><time>2026-05-01T08:05:54.463Z</time></trkpt><trkpt lat="42.4133654" lon="14.2211939"><ele>75.0</ele><time>2026-05-01T08:05:56.467Z</time></trkpt><trkpt lat="42.4133751" lon="14.2213114"><ele>75.0</ele><time>2026-05-01T08:05:58.455Z</time></trkpt><trkpt lat="42.4134588" lon="14.22139"><ele>75.0</ele><time>2026-05-01T08:06:00.466Z</time></trkpt><trkpt lat="42.4135568" lon="14.221424"><ele>75.0</ele><time>2026-05-01T08:06:02.41Z</time></trkpt><trkpt lat="42.4136205" lon="14.2214292"><ele>75.0</ele><time>2026-05-01T08:06:03.424Z</time></trkpt><trkpt lat="42.4136847" lon="14.2214289"><ele>75.0</ele><time>2026-05-01T08:06:04.435Z</time></trkpt><trkpt lat="42.4137644" lon="14.2214804"><ele>75.0</ele><time>2026-05-01T08:06:06.439Z</time></trkpt><trkpt lat="42.4138285" lon="14.2214901"><ele>78.4</ele><time>2026-05-01T08:06:07.413Z</time></trkpt><trkpt lat="42.4138984" lon="14.2215812"><ele>81.8</ele><time>2026-05-01T08:06:09.409Z</time></trkpt><trkpt lat="42.413963" lon="14.2216635"><ele>85.19999999999999</ele><time>2026-05-01T08:06:11.396Z</time></trkpt><trkpt lat="42.4140175" lon="14.221766"><ele>88.6</ele><time>2026-05-01T08:06:14.443Z</time></trkpt><trkpt lat="42.4140447" lon="14.2219156"><ele>92.0</ele><time>2026-05-01T08:06:16.442Z</time></trkpt><trkpt lat="42.4140647" lon="14.222004"><ele>92.0</ele><time>2026-05-01T08:06:17.445Z</time></trkpt><trkpt lat="42.4140898" lon="14.2221497"><ele>92.0</ele><time>2026-05-01T08:06:19.444Z</time></trkpt><trkpt lat="42.4141662" lon="14.2222012"><ele>92.0</ele><time>2026-05-01T08:06:22.419Z</time></trkpt><trkpt lat="42.414262" lon="14.2221706"><ele>92.0</ele><time>2026-05-01T08:06:24.439Z</time></trkpt><trkpt lat="42.4143327" lon="14.2221674"><ele>92.0</ele><time>2026-05-01T08:06:26.458Z</time></trkpt><trkpt lat="42.4144064" lon="14.2222297"><ele>94.6</ele><time>2026-05-01T08:06:47.466Z</time></trkpt><trkpt lat="42.414442" lon="14.2223684"><ele>97.19999999999999</ele><time>2026-05-01T08:06:49.466Z</time></trkpt><trkpt lat="42.4144653" lon="14.2225208"><ele>99.8</ele><time>2026-05-01T08:06:51.434Z</time></trkpt><trkpt lat="42.414439" lon="14.2226935"><ele>102.4</ele><time>2026-05-01T08:06:53.464Z</time></trkpt><trkpt lat="42.4144216" lon="14.2227834"><ele>105.0</ele><time>2026-05-01T08:06:54.464Z</time></trkpt><trkpt lat="42.4143788" lon="14.2229352"><ele>105.0</ele><time>2026-05-01T08:06:56.419Z</time></trkpt><trkpt lat="42.4143569" lon="14.2230189"><ele>105.0</ele><time>2026-05-01T08:06:57.444Z</time></trkpt><trkpt lat="42.4143395" lon="14.2231733"><ele>105.0</ele><time>2026-05-01T08:06:59.442Z</time></trkpt><trkpt lat="42.4143164" lon="14.2233165"><ele>105.0</ele><time>2026-05-01T08:07:01.394Z</time></trkpt><trkpt lat="42.4142714" lon="14.2234333"><ele>105.0</ele><time>2026-05-01T08:07:03.439Z</time></trkpt><trkpt lat="42.4142198" lon="14.2235424"><ele>107.8</ele><time>2026-05-01T08:07:05.442Z</time></trkpt><trkpt lat="42.414267" lon="14.2236506"><ele>110.6</ele><time>2026-05-01T08:07:08.438Z</time></trkpt><trkpt lat="42.4143432" lon="14.2237456"><ele>113.4</ele><time>2026-05-01T08:07:10.417Z</time></trkpt><trkpt lat="42.4143963" lon="14.2238647"><ele>116.2</ele><time>2026-05-01T08:07:12.44Z</time></trkpt><trkpt lat="42.4144676" lon="14.2239477"><ele>119.0</ele><time>2026-05-01T08:07:15.462Z</time></trkpt><trkpt lat="42.414556" lon="14.2239252"><ele>119.0</ele><time>2026-05-01T08:07:17.414Z</time></trkpt><trkpt lat="42.4146196" lon="14.223901"><ele>119.0</ele><time>2026-05-01T08:07:18.415Z</time></trkpt><trkpt lat="42.4146832" lon="14.2238773"><ele>119.0</ele><time>2026-05-01T08:07:19.436Z</time></trkpt><trkpt lat="42.4147559" lon="14.2238388"><ele>119.0</ele><time>2026-05-01T08:07:20.436Z</time></trkpt><trkpt lat="42.4148208" lon="14.2238027"><ele>119.0</ele><time>2026-05-01T08:07:21.441Z</time></trkpt><trkpt lat="42.4148842" lon="14.2237675"><ele>119.0</ele><time>2026-05-01T08:07:22.437Z</time></trkpt><trkpt lat="42.4149408" lon="14.2237299"><ele>119.0</ele><time>2026-05-01T08:07:23.437Z</time></trkpt><trkpt lat="42.4149972" lon="14.2236892"><ele>120.6</ele><time>2026-05-01T08:07:24.432Z</time></trkpt><trkpt lat="42.4150864" lon="14.2236253"><ele>122.2</ele><time>2026-05-01T08:07:26.441Z</time></trkpt><trkpt lat="42.4151772" lon="14.223542"><ele>123.79999999999998</ele><time>2026-05-01T08:07:28.441Z</time></trkpt><trkpt lat="42.4152385" lon="14.2234624"><ele>125.39999999999999</ele><time>2026-05-01T08:07:30.434Z</time></trkpt><trkpt lat="42.4153107" lon="14.2233912"><ele>127.0</ele><time>2026-05-01T08:07:32.441Z</time></trkpt><trkpt lat="42.415378" lon="14.2233145"><ele>127.0</ele><time>2026-05-01T08:07:45.436Z</time></trkpt><trkpt lat="42.4154635" lon="14.2232559"><ele>126.99999999999999</ele><time>2026-05-01T08:07:47.441Z</time></trkpt><trkpt lat="42.4155618" lon="14.2232544"><ele>126.99999999999999</ele><time>2026-05-01T08:07:49.474Z</time></trkpt><trkpt lat="42.4156441" lon="14.223309"><ele>127.0</ele><time>2026-05-01T08:07:51.448Z</time></trkpt><trkpt lat="42.415599" lon="14.2233917"><ele>127.0</ele><time>2026-05-01T08:07:54.47Z</time></trkpt><trkpt lat="42.4155032" lon="14.2234374"><ele>127.0</ele><time>2026-05-01T08:07:56.447Z</time></trkpt><trkpt lat="42.4154212" lon="14.2234647"><ele>127.0</ele><time>2026-05-01T08:07:57.431Z</time></trkpt><trkpt lat="42.4153466" lon="14.223495"><ele>127.0</ele><time>2026-05-01T08:07:58.474Z</time></trkpt><trkpt lat="42.4152798" lon="14.2235312"><ele>127.0</ele><time>2026-05-01T08:07:59.443Z</time></trkpt><trkpt lat="42.4152367" lon="14.2236033"><ele>127.0</ele><time>2026-05-01T08:08:00.448Z</time></trkpt><trkpt lat="42.4152074" lon="14.2236844"><ele>127.0</ele><time>2026-05-01T08:08:01.445Z</time></trkpt><trkpt lat="42.4151711" lon="14.2237709"><ele>127.0</ele><time>2026-05-01T08:08:02.451Z</time></trkpt><trkpt lat="42.4151478" lon="14.2238733"><ele>127.00000000000001</ele><time>2026-05-01T08:08:03.446Z</time></trkpt><trkpt lat="42.4151204" lon="14.2239712"><ele>127.0</ele><time>2026-05-01T08:08:04.446Z</time></trkpt><trkpt lat="42.415084" lon="14.2240638"><ele>127.0</ele><time>2026-05-01T08:08:05.447Z</time></trkpt><trkpt lat="42.4150375" lon="14.2241469"><ele>127.0</ele><time>2026-05-01T08:08:06.441Z</time></trkpt><trkpt lat="42.4149811" lon="14.2242293"><ele>127.00000000000001</ele><time>2026-05-01T08:08:07.439Z</time></trkpt><trkpt lat="42.4149074" lon="14.2242926"><ele>127.0</ele><time>2026-05-01T08:08:08.44Z</time></trkpt><trkpt lat="42.4148415" lon="14.224379"><ele>128.66666666666669</ele><time>2026-05-01T08:08:09.439Z</time></trkpt><trkpt lat="42.4147849" lon="14.2244673"><ele>130.33333333333334</ele><time>2026-05-01T08:08:10.434Z</time></trkpt><trkpt lat="42.4147264" lon="14.2245331"><ele>132.0</ele><time>2026-05-01T08:08:11.443Z</time></trkpt><trkpt lat="42.4146684" lon="14.2245961"><ele>133.66666666666666</ele><time>2026-05-01T08:08:12.445Z</time></trkpt><trkpt lat="42.414609" lon="14.2246493"><ele>135.33333333333331</ele><time>2026-05-01T08:08:13.421Z</time></trkpt><trkpt lat="42.4145512" lon="14.2247042"><ele>137.0</ele><time>2026-05-01T08:08:14.465Z</time></trkpt><trkpt lat="42.4144839" lon="14.2248215"><ele>139.5</ele><time>2026-05-01T08:08:16.469Z</time></trkpt><trkpt lat="42.4144445" lon="14.2249541"><ele>142.0</ele><time>2026-05-01T08:08:18.467Z</time></trkpt><trkpt lat="42.4144418" lon="14.2250426"><ele>144.5</ele><time>2026-05-01T08:08:33.449Z</time></trkpt><trkpt lat="42.4144314" lon="14.2251698"><ele>147.0</ele><time>2026-05-01T08:08:37.441Z</time></trkpt><trkpt lat="42.4144784" lon="14.2252692"><ele>149.5</ele><time>2026-05-01T08:08:39.441Z</time></trkpt><trkpt lat="42.4145272" lon="14.2253625"><ele>152.0</ele><time>2026-05-01T08:08:41.423Z</time></trkpt><trkpt lat="42.414586" lon="14.225472"><ele>152.0</ele><time>2026-05-01T08:08:43.445Z</time></trkpt><trkpt lat="42.4146104" lon="14.2255723"><ele>152.0</ele><time>2026-05-01T08:08:45.425Z</time></trkpt><trkpt lat="42.4146443" lon="14.2256875"><ele>152.0</ele><time>2026-05-01T08:08:47.42Z</time></trkpt><trkpt lat="42.4146577" lon="14.2257843"><ele>152.0</ele><time>2026-05-01T08:08:49.397Z</time></trkpt><trkpt lat="42.4146235" lon="14.225876"><ele>152.0</ele><time>2026-05-01T08:08:52.422Z</time></trkpt><trkpt lat="42.4145307" lon="14.2258714"><ele>152.0</ele><time>2026-05-01T08:08:55.425Z</time></trkpt><trkpt lat="42.4144349" lon="14.2258557"><ele>153.8</ele><time>2026-05-01T08:08:57.425Z</time></trkpt><trkpt lat="42.4143367" lon="14.2258349"><ele>155.6</ele><time>2026-05-01T08:08:59.447Z</time></trkpt><trkpt lat="42.4142412" lon="14.2258596"><ele>157.4</ele><time>2026-05-01T08:09:01.47Z</time></trkpt><trkpt lat="42.4141721" lon="14.2259319"><ele>159.20000000000002</ele><time>2026-05-01T08:09:03.462Z</time></trkpt><trkpt lat="42.4141398" lon="14.226076"><ele>161.0</ele><time>2026-05-01T08:09:05.47Z</time></trkpt><trkpt lat="42.414114" lon="14.2261605"><ele>161.0</ele><time>2026-05-01T08:09:06.474Z</time></trkpt><trkpt lat="42.4140962" lon="14.2262529"><ele>161.0</ele><time>2026-05-01T08:09:07.469Z</time></trkpt><trkpt lat="42.4140733" lon="14.2263577"><ele>161.0</ele><time>2026-05-01T08:09:08.473Z</time></trkpt><trkpt lat="42.4140475" lon="14.2264691"><ele>161.0</ele><time>2026-05-01T08:09:09.471Z</time></trkpt><trkpt lat="42.4140181" lon="14.2265921"><ele>161.0</ele><time>2026-05-01T08:09:10.472Z</time></trkpt><trkpt lat="42.4139823" lon="14.2267175"><ele>161.0</ele><time>2026-05-01T08:09:11.45Z</time></trkpt><trkpt lat="42.4139489" lon="14.2268335"><ele>162.0</ele><time>2026-05-01T08:09:12.448Z</time></trkpt><trkpt lat="42.4139187" lon="14.2269416"><ele>163.0</ele><time>2026-05-01T08:09:13.449Z</time></trkpt><trkpt lat="42.413893" lon="14.227047"><ele>164.0</ele><time>2026-05-01T08:09:14.455Z</time></trkpt><trkpt lat="42.4138585" lon="14.227151"><ele>165.0</ele><time>2026-05-01T08:09:15.451Z</time></trkpt><trkpt lat="42.4138363" lon="14.2272551"><ele>166.0</ele><time>2026-05-01T08:09:16.47Z</time></trkpt><trkpt lat="42.4138162" lon="14.2273384"><ele>167.0</ele><time>2026-05-01T08:09:17.452Z</time></trkpt><trkpt lat="42.4137886" lon="14.2274482"><ele>167.33333333333331</ele><time>2026-05-01T08:09:19.454Z</time></trkpt><trkpt lat="42.4137488" lon="14.2275796"><ele>167.66666666666666</ele><time>2026-05-01T08:09:24.478Z</time></trkpt><trkpt lat="42.4137346" lon="14.2276846"><ele>168.0</ele><time>2026-05-01T08:09:26.484Z</time></trkpt><trkpt lat="42.4137911" lon="14.2277234"><ele>168.33333333333334</ele><time>2026-05-01T08:09:27.479Z</time></trkpt><trkpt lat="42.41386" lon="14.2277525"><ele>168.66666666666669</ele><time>2026-05-01T08:09:28.478Z</time></trkpt><trkpt lat="42.4139385" lon="14.227785"><ele>169.0</ele><time>2026-05-01T08:09:29.478Z</time></trkpt><trkpt lat="42.4139985" lon="14.2278187"><ele>169.0</ele><time>2026-05-01T08:09:30.479Z</time></trkpt><trkpt lat="42.4140826" lon="14.2278754"><ele>169.0</ele><time>2026-05-01T08:09:32.477Z</time></trkpt><trkpt lat="42.4141525" lon="14.2279195"><ele>169.0</ele><time>2026-05-01T08:09:55.433Z</time></trkpt><trkpt lat="42.4142555" lon="14.227942"><ele>169.0</ele><time>2026-05-01T08:12:02.455Z</time></trkpt><trkpt lat="42.4143746" lon="14.2279997"><ele>169.0</ele><time>2026-05-01T08:12:04.458Z</time></trkpt><trkpt lat="42.4144636" lon="14.228058"><ele>169.0</ele><time>2026-05-01T08:12:05.452Z</time></trkpt><trkpt lat="42.4145656" lon="14.2281304"><ele>169.0</ele><time>2026-05-01T08:12:06.449Z</time></trkpt><trkpt lat="42.414673" lon="14.2282236"><ele>169.0</ele><time>2026-05-01T08:12:07.478Z</time></trkpt><trkpt lat="42.4147803" lon="14.2283331"><ele>169.0</ele><time>2026-05-01T08:12:08.479Z</time></trkpt><trkpt lat="42.4148827" lon="14.2284533"><ele>169.33333333333334</ele><time>2026-05-01T08:12:09.477Z</time></trkpt><trkpt lat="42.4149944" lon="14.2285711"><ele>169.66666666666666</ele><time>2026-05-01T08:12:10.481Z</time></trkpt><trkpt lat="42.4151235" lon="14.2286925"><ele>170.0</ele><time>2026-05-01T08:12:11.479Z</time></trkpt><trkpt lat="42.4152491" lon="14.2288179"><ele>170.0</ele><time>2026-05-01T08:12:12.458Z</time></trkpt><trkpt lat="42.4153833" lon="14.2289643"><ele>170.0</ele><time>2026-05-01T08:12:13.457Z</time></trkpt><trkpt lat="42.4155199" lon="14.2291261"><ele>170.0</ele><time>2026-05-01T08:12:14.461Z</time></trkpt><trkpt lat="42.415646" lon="14.2292808"><ele>169.33333333333331</ele><time>2026-05-01T08:12:15.461Z</time></trkpt><trkpt lat="42.4157998" lon="14.2294286"><ele>168.66666666666666</ele><time>2026-05-01T08:12:16.452Z</time></trkpt><trkpt lat="42.4159303" lon="14.2295692"><ele>168.0</ele><time>2026-05-01T08:12:17.456Z</time></trkpt><trkpt lat="42.4160512" lon="14.2297094"><ele>168.0</ele><time>2026-05-01T08:12:18.451Z</time></trkpt><trkpt lat="42.4161694" lon="14.2298535"><ele>168.0</ele><time>2026-05-01T08:12:19.466Z</time></trkpt><trkpt lat="42.416275" lon="14.2300028"><ele>168.0</ele><time>2026-05-01T08:12:20.455Z</time></trkpt><trkpt lat="42.4163909" lon="14.2301607"><ele>168.0</ele><time>2026-05-01T08:12:21.438Z</time></trkpt><trkpt lat="42.4165035" lon="14.2303446"><ele>168.0</ele><time>2026-05-01T08:12:22.459Z</time></trkpt><trkpt lat="42.4166186" lon="14.2305124"><ele>168.0</ele><time>2026-05-01T08:12:23.455Z</time></trkpt><trkpt lat="42.4167205" lon="14.230704"><ele>168.0</ele><time>2026-05-01T08:12:24.457Z</time></trkpt><trkpt lat="42.4168231" lon="14.2308679"><ele>168.0</ele><time>2026-05-01T08:12:25.474Z</time></trkpt><trkpt lat="42.4168982" lon="14.2310233"><ele>168.0</ele><time>2026-05-01T08:12:26.469Z</time></trkpt><trkpt lat="42.4169484" lon="14.2311269"><ele>168.0</ele><time>2026-05-01T08:12:27.483Z</time></trkpt><trkpt lat="42.4169895" lon="14.2312268"><ele>168.0</ele><time>2026-05-01T08:12:29.448Z</time></trkpt><trkpt lat="42.4169246" lon="14.2312875"><ele>168.0</ele><time>2026-05-01T08:12:32.48Z</time></trkpt><trkpt lat="42.4168605" lon="14.2313164"><ele>168.0</ele><time>2026-05-01T08:12:33.471Z</time></trkpt><trkpt lat="42.4168021" lon="14.2313685"><ele>168.0</ele><time>2026-05-01T08:12:34.458Z</time></trkpt><trkpt lat="42.4167127" lon="14.2314393"><ele>168.0</ele><time>2026-05-01T08:12:35.452Z</time></trkpt><trkpt lat="42.416612" lon="14.2315106"><ele>168.0</ele><time>2026-05-01T08:12:36.458Z</time></trkpt><trkpt lat="42.4165053" lon="14.2315936"><ele>168.25</ele><time>2026-05-01T08:12:37.455Z</time></trkpt><trkpt lat="42.4163913" lon="14.2316824"><ele>168.5</ele><time>2026-05-01T08:12:38.459Z</time></trkpt><trkpt lat="42.4162725" lon="14.2317707"><ele>168.75</ele><time>2026-05-01T08:12:39.457Z</time></trkpt><trkpt lat="42.4161512" lon="14.2318625"><ele>169.0</ele><time>2026-05-01T08:12:40.458Z</time></trkpt><trkpt lat="42.4160267" lon="14.2319609"><ele>169.0</ele><time>2026-05-01T08:12:41.455Z</time></trkpt><trkpt lat="42.4159093" lon="14.2320514"><ele>169.0</ele><time>2026-05-01T08:12:42.455Z</time></trkpt><trkpt lat="42.4158123" lon="14.2321339"><ele>169.0</ele><time>2026-05-01T08:12:43.459Z</time></trkpt><trkpt lat="42.4157199" lon="14.2322127"><ele>169.0</ele><time>2026-05-01T08:12:44.453Z</time></trkpt><trkpt lat="42.4156368" lon="14.2322818"><ele>168.6</ele><time>2026-05-01T08:12:45.46Z</time></trkpt><trkpt lat="42.4155534" lon="14.2323472"><ele>168.2</ele><time>2026-05-01T08:12:46.457Z</time></trkpt><trkpt lat="42.4154698" lon="14.2324032"><ele>167.79999999999998</ele><time>2026-05-01T08:12:47.457Z</time></trkpt><trkpt lat="42.4153867" lon="14.2324677"><ele>167.39999999999998</ele><time>2026-05-01T08:12:48.459Z</time></trkpt><trkpt lat="42.4153106" lon="14.2325248"><ele>167.0</ele><time>2026-05-01T08:12:49.471Z</time></trkpt><trkpt lat="42.4152299" lon="14.2325822"><ele>166.0</ele><time>2026-05-01T08:12:50.469Z</time></trkpt><trkpt lat="42.4151455" lon="14.2326422"><ele>165.0</ele><time>2026-05-01T08:12:51.465Z</time></trkpt><trkpt lat="42.415066" lon="14.2326993"><ele>164.0</ele><time>2026-05-01T08:12:52.465Z</time></trkpt><trkpt lat="42.4149829" lon="14.2327483"><ele>163.0</ele><time>2026-05-01T08:12:53.464Z</time></trkpt><trkpt lat="42.4149045" lon="14.2327782"><ele>162.0</ele><time>2026-05-01T08:12:54.48Z</time></trkpt><trkpt lat="42.4148288" lon="14.2327801"><ele>161.0</ele><time>2026-05-01T08:12:55.463Z</time></trkpt><trkpt lat="42.4147277" lon="14.2327793"><ele>161.0</ele><time>2026-05-01T08:12:57.465Z</time></trkpt><trkpt lat="42.4147491" lon="14.232671"><ele>161.0</ele><time>2026-05-01T08:13:01.461Z</time></trkpt><trkpt lat="42.4148101" lon="14.2326253"><ele>161.0</ele><time>2026-05-01T08:13:02.471Z</time></trkpt><trkpt lat="42.4148739" lon="14.2325587"><ele>161.0</ele><time>2026-05-01T08:13:03.473Z</time></trkpt><trkpt lat="42.4149222" lon="14.2324834"><ele>161.0</ele><time>2026-05-01T08:13:04.476Z</time></trkpt><trkpt lat="42.4149535" lon="14.2324047"><ele>161.0</ele><time>2026-05-01T08:13:05.449Z</time></trkpt><trkpt lat="42.4149648" lon="14.2323161"><ele>161.0</ele><time>2026-05-01T08:13:06.45Z</time></trkpt><trkpt lat="42.4149658" lon="14.2322305"><ele>160.66666666666666</ele><time>2026-05-01T08:13:07.452Z</time></trkpt><trkpt lat="42.4149485" lon="14.2321468"><ele>160.33333333333331</ele><time>2026-05-01T08:13:08.473Z</time></trkpt><trkpt lat="42.414908" lon="14.2320745"><ele>160.0</ele><time>2026-05-01T08:13:09.447Z</time></trkpt><trkpt lat="42.41484" lon="14.2319979"><ele>159.66666666666666</ele><time>2026-05-01T08:13:10.425Z</time></trkpt><trkpt lat="42.4147681" lon="14.2319132"><ele>159.33333333333334</ele><time>2026-05-01T08:13:11.424Z</time></trkpt><trkpt lat="42.4147206" lon="14.2318304"><ele>159.0</ele><time>2026-05-01T08:13:12.453Z</time></trkpt><trkpt lat="42.4146902" lon="14.2316881"><ele>159.0</ele><time>2026-05-01T08:13:14.45Z</time></trkpt><trkpt lat="42.4146716" lon="14.2315171"><ele>159.0</ele><time>2026-05-01T08:13:16.45Z</time></trkpt><trkpt lat="42.4146633" lon="14.2314279"><ele>159.0</ele><time>2026-05-01T08:13:17.467Z</time></trkpt><trkpt lat="42.4146605" lon="14.2312726"><ele>159.0</ele><time>2026-05-01T08:13:19.475Z</time></trkpt><trkpt lat="42.4146633" lon="14.2311226"><ele>159.0</ele><time>2026-05-01T08:13:21.478Z</time></trkpt><trkpt lat="42.4146463" lon="14.2309956"><ele>155.2</ele><time>2026-05-01T08:13:23.476Z</time></trkpt><trkpt lat="42.4146381" lon="14.2308852"><ele>151.4</ele><time>2026-05-01T08:13:25.45Z</time></trkpt><trkpt lat="42.414639" lon="14.230779"><ele>147.6</ele><time>2026-05-01T08:13:27.458Z</time></trkpt><trkpt lat="42.4146444" lon="14.2306623"><ele>143.8</ele><time>2026-05-01T08:13:29.433Z</time></trkpt><trkpt lat="42.414644" lon="14.2305196"><ele>140.0</ele><time>2026-05-01T08:13:31.458Z</time></trkpt><trkpt lat="42.4146356" lon="14.2303708"><ele>140.0</ele><time>2026-05-01T08:13:33.457Z</time></trkpt><trkpt lat="42.4146197" lon="14.2302024"><ele>140.0</ele><time>2026-05-01T08:13:35.435Z</time></trkpt><trkpt lat="42.4146083" lon="14.2301167"><ele>140.0</ele><time>2026-05-01T08:13:36.431Z</time></trkpt><trkpt lat="42.4145999" lon="14.230023"><ele>140.0</ele><time>2026-05-01T08:13:37.45Z</time></trkpt><trkpt lat="42.4145848" lon="14.2299318"><ele>140.0</ele><time>2026-05-01T08:13:38.424Z</time></trkpt><trkpt lat="42.4145441" lon="14.2297759"><ele>142.8</ele><time>2026-05-01T08:13:40.447Z</time></trkpt><trkpt lat="42.4145278" lon="14.2296706"><ele>145.6</ele><time>2026-05-01T08:13:41.429Z</time></trkpt><trkpt lat="42.4144998" lon="14.2295782"><ele>148.4</ele><time>2026-05-01T08:13:42.425Z</time></trkpt><trkpt lat="42.4144485" lon="14.2294473"><ele>151.2</ele><time>2026-05-01T08:13:44.427Z</time></trkpt><trkpt lat="42.4143708" lon="14.2293654"><ele>154.0</ele><time>2026-05-01T08:13:46.445Z</time></trkpt><trkpt lat="42.4142495" lon="14.2293462"><ele>154.0</ele><time>2026-05-01T08:13:48.425Z</time></trkpt><trkpt lat="42.4141367" lon="14.229342"><ele>154.0</ele><time>2026-05-01T08:13:50.444Z</time></trkpt><trkpt lat="42.4140081" lon="14.2293947"><ele>154.0</ele><time>2026-05-01T08:13:52.448Z</time></trkpt><trkpt lat="42.4139461" lon="14.2294179"><ele>154.0</ele><time>2026-05-01T08:13:53.446Z</time></trkpt><trkpt lat="42.413869" lon="14.2294963"><ele>154.0</ele><time>2026-05-01T08:13:55.442Z</time></trkpt><trkpt lat="42.4138487" lon="14.2296504"><ele>154.0</ele><time>2026-05-01T08:13:57.471Z</time></trkpt><trkpt lat="42.4138594" lon="14.2297633"><ele>154.0</ele><time>2026-05-01T08:13:58.448Z</time></trkpt><trkpt lat="42.4138706" lon="14.229884"><ele>154.0</ele><time>2026-05-01T08:13:59.448Z</time></trkpt><trkpt lat="42.4138823" lon="14.2300106"><ele>154.0</ele><time>2026-05-01T08:14:00.451Z</time></trkpt><trkpt lat="42.4138936" lon="14.2301416"><ele>154.0</ele><time>2026-05-01T08:14:01.452Z</time></trkpt><trkpt lat="42.4139031" lon="14.2302757"><ele>151.2</ele><time>2026-05-01T08:14:02.453Z</time></trkpt><trkpt lat="42.4139119" lon="14.230407"><ele>148.4</ele><time>2026-05-01T08:14:03.445Z</time></trkpt><trkpt lat="42.4139155" lon="14.2305377"><ele>145.6</ele><time>2026-05-01T08:14:04.467Z</time></trkpt><trkpt lat="42.413914" lon="14.2306658"><ele>142.8</ele><time>2026-05-01T08:14:05.446Z</time></trkpt><trkpt lat="42.4139028" lon="14.2308005"><ele>140.0</ele><time>2026-05-01T08:14:06.448Z</time></trkpt><trkpt lat="42.4138911" lon="14.2309554"><ele>139.75</ele><time>2026-05-01T08:14:07.447Z</time></trkpt><trkpt lat="42.4138818" lon="14.2311297"><ele>139.5</ele><time>2026-05-01T08:14:08.45Z</time></trkpt><trkpt lat="42.4138733" lon="14.2313067"><ele>139.25</ele><time>2026-05-01T08:14:09.47Z</time></trkpt><trkpt lat="42.4138719" lon="14.2314747"><ele>139.0</ele><time>2026-05-01T08:14:10.469Z</time></trkpt><trkpt lat="42.4138748" lon="14.2316451"><ele>137.75</ele><time>2026-05-01T08:14:11.443Z</time></trkpt><trkpt lat="42.4138778" lon="14.2318342"><ele>136.5</ele><time>2026-05-01T08:14:12.472Z</time></trkpt><trkpt lat="42.4138794" lon="14.2320337"><ele>135.25</ele><time>2026-05-01T08:14:13.468Z</time></trkpt><trkpt lat="42.4138805" lon="14.232233"><ele>134.0</ele><time>2026-05-01T08:14:14.471Z</time></trkpt><trkpt lat="42.4138784" lon="14.2323847"><ele>135.66666666666666</ele><time>2026-05-01T08:14:15.471Z</time></trkpt><trkpt lat="42.4138556" lon="14.2325263"><ele>137.33333333333331</ele><time>2026-05-01T08:14:16.44Z</time></trkpt><trkpt lat="42.4138301" lon="14.232621"><ele>139.0</ele><time>2026-05-01T08:14:17.465Z</time></trkpt><trkpt lat="42.4138287" lon="14.2327161"><ele>140.66666666666666</ele><time>2026-05-01T08:14:18.474Z</time></trkpt><trkpt lat="42.4138349" lon="14.2328433"><ele>142.33333333333334</ele><time>2026-05-01T08:14:19.474Z</time></trkpt><trkpt lat="42.4138427" lon="14.2329692"><ele>144.0</ele><time>2026-05-01T08:14:20.474Z</time></trkpt><trkpt lat="42.413846" lon="14.2330889"><ele>144.83333333333334</ele><time>2026-05-01T08:14:21.479Z</time></trkpt><trkpt lat="42.413849" lon="14.2332024"><ele>145.66666666666666</ele><time>2026-05-01T08:14:22.472Z</time></trkpt><trkpt lat="42.4138578" lon="14.2333084"><ele>146.5</ele><time>2026-05-01T08:14:23.47Z</time></trkpt><trkpt lat="42.4138753" lon="14.2334181"><ele>147.33333333333331</ele><time>2026-05-01T08:14:24.473Z</time></trkpt><trkpt lat="42.4138975" lon="14.2335272"><ele>148.16666666666666</ele><time>2026-05-01T08:14:25.476Z</time></trkpt><trkpt lat="42.4139229" lon="14.2336233"><ele>149.0</ele><time>2026-05-01T08:14:26.478Z</time></trkpt><trkpt lat="42.4139539" lon="14.2337078"><ele>149.0</ele><time>2026-05-01T08:14:27.471Z</time></trkpt><trkpt lat="42.4140103" lon="14.2338606"><ele>149.0</ele><time>2026-05-01T08:14:29.475Z</time></trkpt><trkpt lat="42.4140373" lon="14.2339453"><ele>149.0</ele><time>2026-05-01T08:14:30.478Z</time></trkpt><trkpt lat="42.4140619" lon="14.2340265"><ele>149.0</ele><time>2026-05-01T08:14:31.458Z</time></trkpt><trkpt lat="42.4140781" lon="14.2341668"><ele>149.0</ele><time>2026-05-01T08:14:33.428Z</time></trkpt><trkpt lat="42.4140792" lon="14.2343043"><ele>146.66666666666666</ele><time>2026-05-01T08:14:35.452Z</time></trkpt><trkpt lat="42.4140799" lon="14.2343992"><ele>144.33333333333331</ele><time>2026-05-01T08:14:36.455Z</time></trkpt><trkpt lat="42.4140799" lon="14.2345018"><ele>142.0</ele><time>2026-05-01T08:14:37.453Z</time></trkpt><trkpt lat="42.414077" lon="14.2346076"><ele>139.66666666666666</ele><time>2026-05-01T08:14:38.455Z</time></trkpt><trkpt lat="42.4140739" lon="14.2347209"><ele>137.33333333333334</ele><time>2026-05-01T08:14:39.449Z</time></trkpt><trkpt lat="42.4140696" lon="14.2348341"><ele>135.0</ele><time>2026-05-01T08:14:40.473Z</time></trkpt><trkpt lat="42.4140641" lon="14.2349602"><ele>131.8</ele><time>2026-05-01T08:14:41.47Z</time></trkpt><trkpt lat="42.4140654" lon="14.2350977"><ele>128.6</ele><time>2026-05-01T08:14:42.453Z</time></trkpt><trkpt lat="42.4140694" lon="14.2352288"><ele>125.4</ele><time>2026-05-01T08:14:43.475Z</time></trkpt><trkpt lat="42.4140769" lon="14.235355"><ele>122.2</ele><time>2026-05-01T08:14:44.454Z</time></trkpt><trkpt lat="42.4140873" lon="14.2354797"><ele>119.0</ele><time>2026-05-01T08:14:45.428Z</time></trkpt><trkpt lat="42.4141022" lon="14.2355964"><ele>117.49999999999999</ele><time>2026-05-01T08:14:46.475Z</time></trkpt><trkpt lat="42.4141192" lon="14.2357152"><ele>116.0</ele><time>2026-05-01T08:14:47.453Z</time></trkpt><trkpt lat="42.4141391" lon="14.235824"><ele>114.5</ele><time>2026-05-01T08:14:48.449Z</time></trkpt><trkpt lat="42.4141547" lon="14.235919"><ele>113.0</ele><time>2026-05-01T08:14:49.455Z</time></trkpt><trkpt lat="42.4141658" lon="14.2360057"><ele>111.49999999999999</ele><time>2026-05-01T08:14:50.45Z</time></trkpt><trkpt lat="42.4141745" lon="14.2361234"><ele>110.0</ele><time>2026-05-01T08:14:52.474Z</time></trkpt><trkpt lat="42.4141025" lon="14.2361565"><ele>109.99999999999999</ele><time>2026-05-01T08:14:56.457Z</time></trkpt><trkpt lat="42.4140533" lon="14.2360924"><ele>110.0</ele><time>2026-05-01T08:14:58.433Z</time></trkpt><trkpt lat="42.4140153" lon="14.2360076"><ele>110.0</ele><time>2026-05-01T08:15:00.429Z</time></trkpt><trkpt lat="42.4139842" lon="14.2358823"><ele>110.0</ele><time>2026-05-01T08:15:03.47Z</time></trkpt><trkpt lat="42.4139366" lon="14.2357842"><ele>109.99999999999999</ele><time>2026-05-01T08:15:05.429Z</time></trkpt><trkpt lat="42.4138941" lon="14.2356964"><ele>110.0</ele><time>2026-05-01T08:15:07.429Z</time></trkpt><trkpt lat="42.4138443" lon="14.235613"><ele>107.83333333333333</ele><time>2026-05-01T08:15:10.469Z</time></trkpt><trkpt lat="42.4137634" lon="14.2356037"><ele>105.66666666666666</ele><time>2026-05-01T08:15:14.427Z</time></trkpt><trkpt lat="42.4136742" lon="14.2356205"><ele>103.5</ele><time>2026-05-01T08:15:17.405Z</time></trkpt><trkpt lat="42.4135857" lon="14.2355734"><ele>101.33333333333334</ele><time>2026-05-01T08:15:19.399Z</time></trkpt><trkpt lat="42.4135203" lon="14.2354797"><ele>99.16666666666667</ele><time>2026-05-01T08:15:21.447Z</time></trkpt><trkpt lat="42.4134667" lon="14.2353942"><ele>97.0</ele><time>2026-05-01T08:15:23.47Z</time></trkpt><trkpt lat="42.413415" lon="14.2353365"><ele>97.00000000000001</ele><time>2026-05-01T08:15:25.395Z</time></trkpt><trkpt lat="42.4133268" lon="14.2353056"><ele>97.0</ele><time>2026-05-01T08:15:27.399Z</time></trkpt><trkpt lat="42.4132445" lon="14.2352826"><ele>97.0</ele><time>2026-05-01T08:15:29.394Z</time></trkpt><trkpt lat="42.4131725" lon="14.2352445"><ele>97.0</ele><time>2026-05-01T08:15:31.423Z</time></trkpt><trkpt lat="42.4130773" lon="14.2352462"><ele>97.00000000000001</ele><time>2026-05-01T08:15:34.439Z</time></trkpt><trkpt lat="42.4129814" lon="14.2352908"><ele>97.0</ele><time>2026-05-01T08:15:36.462Z</time></trkpt><trkpt lat="42.4128869" lon="14.2353465"><ele>94.00000000000001</ele><time>2026-05-01T08:15:38.443Z</time></trkpt><trkpt lat="42.412804" lon="14.2353705"><ele>91.0</ele><time>2026-05-01T08:15:40.442Z</time></trkpt><trkpt lat="42.412773" lon="14.235483"><ele>88.0</ele><time>2026-05-01T08:15:43.465Z</time></trkpt><trkpt lat="42.4127916" lon="14.235578"><ele>85.0</ele><time>2026-05-01T08:15:44.458Z</time></trkpt><trkpt lat="42.412822" lon="14.2356929"><ele>82.0</ele><time>2026-05-01T08:15:45.467Z</time></trkpt><trkpt lat="42.4128536" lon="14.2357899"><ele>79.0</ele><time>2026-05-01T08:15:46.468Z</time></trkpt><trkpt lat="42.4128863" lon="14.2358825"><ele>78.33333333333333</ele><time>2026-05-01T08:15:47.469Z</time></trkpt><trkpt lat="42.4129203" lon="14.2359642"><ele>77.66666666666666</ele><time>2026-05-01T08:15:48.471Z</time></trkpt><trkpt lat="42.4129633" lon="14.2360507"><ele>77.0</ele><time>2026-05-01T08:15:49.47Z</time></trkpt><trkpt lat="42.4130032" lon="14.2361255"><ele>76.33333333333333</ele><time>2026-05-01T08:15:50.473Z</time></trkpt><trkpt lat="42.4130365" lon="14.2361982"><ele>75.66666666666667</ele><time>2026-05-01T08:15:51.465Z</time></trkpt><trkpt lat="42.4131061" lon="14.2363381"><ele>75.0</ele><time>2026-05-01T08:15:53.463Z</time></trkpt><trkpt lat="42.4131455" lon="14.2364066"><ele>75.2</ele><time>2026-05-01T08:15:54.469Z</time></trkpt><trkpt lat="42.4132322" lon="14.2365169"><ele>75.4</ele><time>2026-05-01T08:15:56.469Z</time></trkpt><trkpt lat="42.4133248" lon="14.2366225"><ele>75.6</ele><time>2026-05-01T08:15:58.468Z</time></trkpt><trkpt lat="42.4133969" lon="14.2367184"><ele>75.8</ele><time>2026-05-01T08:16:00.471Z</time></trkpt><trkpt lat="42.4134347" lon="14.2367949"><ele>76.0</ele><time>2026-05-01T08:16:01.47Z</time></trkpt><trkpt lat="42.4134746" lon="14.2368843"><ele>76.0</ele><time>2026-05-01T08:16:02.44Z</time></trkpt><trkpt lat="42.4135135" lon="14.2369691"><ele>76.0</ele><time>2026-05-01T08:16:03.468Z</time></trkpt><trkpt lat="42.4135687" lon="14.2371011"><ele>76.0</ele><time>2026-05-01T08:16:05.465Z</time></trkpt><trkpt lat="42.4136376" lon="14.2372593"><ele>76.0</ele><time>2026-05-01T08:16:07.443Z</time></trkpt><trkpt lat="42.4136763" lon="14.2373482"><ele>76.0</ele><time>2026-05-01T08:16:08.446Z</time></trkpt><trkpt lat="42.4137117" lon="14.2374317"><ele>74.83333333333333</ele><time>2026-05-01T08:16:09.471Z</time></trkpt><trkpt lat="42.4137399" lon="14.2375124"><ele>73.66666666666666</ele><time>2026-05-01T08:16:10.469Z</time></trkpt><trkpt lat="42.4137646" lon="14.2375961"><ele>72.5</ele><time>2026-05-01T08:16:11.464Z</time></trkpt><trkpt lat="42.4137878" lon="14.2376894"><ele>71.33333333333333</ele><time>2026-05-01T08:16:12.472Z</time></trkpt><trkpt lat="42.413807" lon="14.2377823"><ele>70.16666666666667</ele><time>2026-05-01T08:16:13.469Z</time></trkpt><trkpt lat="42.4138218" lon="14.2378659"><ele>69.0</ele><time>2026-05-01T08:16:14.467Z</time></trkpt><trkpt lat="42.4138651" lon="14.2380249"><ele>71.42857142857143</ele><time>2026-05-01T08:16:16.472Z</time></trkpt><trkpt lat="42.4138878" lon="14.2381156"><ele>73.85714285714286</ele><time>2026-05-01T08:16:17.472Z</time></trkpt><trkpt lat="42.4139141" lon="14.2382039"><ele>76.28571428571429</ele><time>2026-05-01T08:16:18.45Z</time></trkpt><trkpt lat="42.4139394" lon="14.238282"><ele>78.71428571428572</ele><time>2026-05-01T08:16:19.45Z</time></trkpt><trkpt lat="42.4139556" lon="14.2383857"><ele>81.14285714285714</ele><time>2026-05-01T08:16:25.466Z</time></trkpt><trkpt lat="42.4139581" lon="14.2384812"><ele>83.57142857142858</ele><time>2026-05-01T08:16:28.459Z</time></trkpt><trkpt lat="42.4139462" lon="14.238598"><ele>86.0</ele><time>2026-05-01T08:16:32.466Z</time></trkpt><trkpt lat="42.4139406" lon="14.2386899"><ele>86.0</ele><time>2026-05-01T08:16:34.466Z</time></trkpt><trkpt lat="42.4139649" lon="14.2387805"><ele>86.0</ele><time>2026-05-01T08:16:36.463Z</time></trkpt><trkpt lat="42.4139864" lon="14.238877"><ele>86.0</ele><time>2026-05-01T08:16:39.44Z</time></trkpt><trkpt lat="42.4139928" lon="14.2389828"><ele>86.0</ele><time>2026-05-01T08:16:41.439Z</time></trkpt><trkpt lat="42.4139973" lon="14.2391469"><ele>86.0</ele><time>2026-05-01T08:16:43.414Z</time></trkpt><trkpt lat="42.4140467" lon="14.239282"><ele>85.0</ele><time>2026-05-01T08:16:45.438Z</time></trkpt><trkpt lat="42.4141434" lon="14.2393895"><ele>84.0</ele><time>2026-05-01T08:16:47.422Z</time></trkpt><trkpt lat="42.4142225" lon="14.239484"><ele>83.0</ele><time>2026-05-01T08:16:49.425Z</time></trkpt><trkpt lat="42.4142399" lon="14.2395943"><ele>82.0</ele><time>2026-05-01T08:16:51.423Z</time></trkpt><trkpt lat="42.4142261" lon="14.2396924"><ele>81.0</ele><time>2026-05-01T08:16:53.468Z</time></trkpt><trkpt lat="42.4142183" lon="14.2397775"><ele>79.6</ele><time>2026-05-01T08:16:55.444Z</time></trkpt><trkpt lat="42.4142016" lon="14.2399012"><ele>78.19999999999999</ele><time>2026-05-01T08:16:57.443Z</time></trkpt><trkpt lat="42.4142163" lon="14.2400476"><ele>76.80000000000001</ele><time>2026-05-01T08:16:59.45Z</time></trkpt><trkpt lat="42.4142783" lon="14.2401772"><ele>75.4</ele><time>2026-05-01T08:17:01.471Z</time></trkpt><trkpt lat="42.4143199" lon="14.2402467"><ele>74.0</ele><time>2026-05-01T08:17:02.469Z</time></trkpt><trkpt lat="42.414369" lon="14.2403232"><ele>74.0</ele><time>2026-05-01T08:17:03.46Z</time></trkpt><trkpt lat="42.414445" lon="14.2404403"><ele>74.0</ele><time>2026-05-01T08:17:05.449Z</time></trkpt><trkpt lat="42.4145208" lon="14.2405507"><ele>74.0</ele><time>2026-05-01T08:17:07.454Z</time></trkpt><trkpt lat="42.4145853" lon="14.2406421"><ele>74.0</ele><time>2026-05-01T08:17:09.447Z</time></trkpt><trkpt lat="42.414621" lon="14.2407557"><ele>74.0</ele><time>2026-05-01T08:17:11.466Z</time></trkpt><trkpt lat="42.4146378" lon="14.2408515"><ele>72.66666666666667</ele><time>2026-05-01T08:17:13.449Z</time></trkpt><trkpt lat="42.4146536" lon="14.2409529"><ele>71.33333333333334</ele><time>2026-05-01T08:17:15.441Z</time></trkpt><trkpt lat="42.4146796" lon="14.2410577"><ele>70.0</ele><time>2026-05-01T08:17:17.461Z</time></trkpt><trkpt lat="42.4147188" lon="14.2411515"><ele>68.66666666666667</ele><time>2026-05-01T08:17:19.462Z</time></trkpt><trkpt lat="42.4147674" lon="14.2412196"><ele>67.33333333333333</ele><time>2026-05-01T08:17:21.47Z</time></trkpt><trkpt lat="42.414822" lon="14.2412831"><ele>66.0</ele><time>2026-05-01T08:17:23.43Z</time></trkpt><trkpt lat="42.4149126" lon="14.241375"><ele>66.2</ele><time>2026-05-01T08:17:25.445Z</time></trkpt><trkpt lat="42.4149631" lon="14.2414342"><ele>66.39999999999999</ele><time>2026-05-01T08:17:26.461Z</time></trkpt><trkpt lat="42.4150176" lon="14.241508"><ele>66.6</ele><time>2026-05-01T08:17:27.465Z</time></trkpt><trkpt lat="42.4150652" lon="14.2415776"><ele>66.8</ele><time>2026-05-01T08:17:28.459Z</time></trkpt><trkpt lat="42.4151485" lon="14.2416841"><ele>67.0</ele><time>2026-05-01T08:17:30.463Z</time></trkpt><trkpt lat="42.4152424" lon="14.2417916"><ele>67.0</ele><time>2026-05-01T08:17:32.441Z</time></trkpt><trkpt lat="42.4153033" lon="14.2419198"><ele>67.0</ele><time>2026-05-01T08:17:34.437Z</time></trkpt><trkpt lat="42.4153606" lon="14.2420612"><ele>67.0</ele><time>2026-05-01T08:17:36.419Z</time></trkpt><trkpt lat="42.4153923" lon="14.2421476"><ele>67.0</ele><time>2026-05-01T08:17:37.417Z</time></trkpt><trkpt lat="42.4154165" lon="14.2422368"><ele>67.0</ele><time>2026-05-01T08:17:38.44Z</time></trkpt><trkpt lat="42.4154551" lon="14.2423793"><ele>68.16666666666666</ele><time>2026-05-01T08:17:40.438Z</time></trkpt><trkpt lat="42.4154792" lon="14.2425142"><ele>69.33333333333333</ele><time>2026-05-01T08:17:42.441Z</time></trkpt><trkpt lat="42.4155107" lon="14.2426609"><ele>70.5</ele><time>2026-05-01T08:17:44.434Z</time></trkpt><trkpt lat="42.4155328" lon="14.2427481"><ele>71.66666666666667</ele><time>2026-05-01T08:17:45.438Z</time></trkpt><trkpt lat="42.4155583" lon="14.2428382"><ele>72.83333333333334</ele><time>2026-05-01T08:17:46.461Z</time></trkpt><trkpt lat="42.4155871" lon="14.2429363"><ele>74.0</ele><time>2026-05-01T08:17:47.443Z</time></trkpt><trkpt lat="42.4156135" lon="14.2430158"><ele>74.0</ele><time>2026-05-01T08:17:48.448Z</time></trkpt><trkpt lat="42.415644" lon="14.243091"><ele>74.0</ele><time>2026-05-01T08:17:49.429Z</time></trkpt><trkpt lat="42.4157162" lon="14.2432085"><ele>74.0</ele><time>2026-05-01T08:17:51.452Z</time></trkpt><trkpt lat="42.415802" lon="14.24326"><ele>74.0</ele><time>2026-05-01T08:17:53.437Z</time></trkpt><trkpt lat="42.4158845" lon="14.2432505"><ele>74.0</ele><time>2026-05-01T08:17:55.445Z</time></trkpt><trkpt lat="42.4159822" lon="14.2432221"><ele>75.0</ele><time>2026-05-01T08:17:57.447Z</time></trkpt><trkpt lat="42.4160739" lon="14.2432437"><ele>76.0</ele><time>2026-05-01T08:17:59.449Z</time></trkpt><trkpt lat="42.4161539" lon="14.2433106"><ele>77.0</ele><time>2026-05-01T08:18:01.445Z</time></trkpt><trkpt lat="42.4162434" lon="14.243363"><ele>78.0</ele><time>2026-05-01T08:18:03.422Z</time></trkpt><trkpt lat="42.416335" lon="14.2434054"><ele>79.0</ele><time>2026-05-01T08:18:05.443Z</time></trkpt><trkpt lat="42.4164211" lon="14.243459"><ele>79.0</ele><time>2026-05-01T08:18:07.442Z</time></trkpt><trkpt lat="42.4165121" lon="14.2435162"><ele>79.0</ele><time>2026-05-01T08:18:09.447Z</time></trkpt><trkpt lat="42.4166052" lon="14.2435888"><ele>79.0</ele><time>2026-05-01T08:18:11.452Z</time></trkpt><trkpt lat="42.4166801" lon="14.2436961"><ele>79.0</ele><time>2026-05-01T08:18:13.451Z</time></trkpt><trkpt lat="42.4167371" lon="14.2438166"><ele>79.0</ele><time>2026-05-01T08:18:15.475Z</time></trkpt><trkpt lat="42.4167793" lon="14.2439127"><ele>77.16666666666666</ele><time>2026-05-01T08:18:17.472Z</time></trkpt><trkpt lat="42.416815" lon="14.2439935"><ele>75.33333333333333</ele><time>2026-05-01T08:18:19.458Z</time></trkpt><trkpt lat="42.4168499" lon="14.2440995"><ele>73.5</ele><time>2026-05-01T08:18:21.428Z</time></trkpt><trkpt lat="42.4168858" lon="14.2441867"><ele>71.66666666666667</ele><time>2026-05-01T08:18:23.426Z</time></trkpt><trkpt lat="42.416943" lon="14.244281"><ele>69.83333333333334</ele><time>2026-05-01T08:18:26.45Z</time></trkpt><trkpt lat="42.4170133" lon="14.2442055"><ele>68.0</ele><time>2026-05-01T08:18:31.432Z</time></trkpt><trkpt lat="42.4170891" lon="14.2441008"><ele>70.8</ele><time>2026-05-01T08:18:33.398Z</time></trkpt><trkpt lat="42.4171827" lon="14.2439684"><ele>73.6</ele><time>2026-05-01T08:18:35.378Z</time></trkpt><trkpt lat="42.4172264" lon="14.2438785"><ele>76.39999999999999</ele><time>2026-05-01T08:18:36.387Z</time></trkpt><trkpt lat="42.4173375" lon="14.2438891"><ele>79.19999999999999</ele><time>2026-05-01T08:18:38.401Z</time></trkpt><trkpt lat="42.4174014" lon="14.2439039"><ele>82.0</ele><time>2026-05-01T08:18:39.401Z</time></trkpt><trkpt lat="42.4174691" lon="14.243925"><ele>83.42857142857142</ele><time>2026-05-01T08:18:40.425Z</time></trkpt><trkpt lat="42.4175194" lon="14.2438732"><ele>84.85714285714286</ele><time>2026-05-01T08:18:43.455Z</time></trkpt><trkpt lat="42.4175394" lon="14.2437791"><ele>86.28571428571428</ele><time>2026-05-01T08:18:45.43Z</time></trkpt><trkpt lat="42.4175544" lon="14.243664"><ele>87.71428571428571</ele><time>2026-05-01T08:18:47.427Z</time></trkpt><trkpt lat="42.4176011" lon="14.2436002"><ele>89.14285714285714</ele><time>2026-05-01T08:18:49.428Z</time></trkpt><trkpt lat="42.4176714" lon="14.2435727"><ele>90.57142857142857</ele><time>2026-05-01T08:18:52.408Z</time></trkpt><trkpt lat="42.417748" lon="14.2435776"><ele>92.0</ele><time>2026-05-01T08:18:56.43Z</time></trkpt><trkpt lat="42.4178733" lon="14.2435677"><ele>92.0</ele><time>2026-05-01T08:18:58.422Z</time></trkpt><trkpt lat="42.4179575" lon="14.2435616"><ele>92.0</ele><time>2026-05-01T08:18:59.43Z</time></trkpt><trkpt lat="42.4180323" lon="14.2435611"><ele>92.0</ele><time>2026-05-01T08:19:00.441Z</time></trkpt><trkpt lat="42.418133" lon="14.2436231"><ele>92.0</ele><time>2026-05-01T08:19:02.426Z</time></trkpt><trkpt lat="42.4181766" lon="14.2436943"><ele>92.0</ele><time>2026-05-01T08:19:03.43Z</time></trkpt><trkpt lat="42.4182027" lon="14.2437949"><ele>92.0</ele><time>2026-05-01T08:19:04.43Z</time></trkpt><trkpt lat="42.4182242" lon="14.2438858"><ele>93.83333333333334</ele><time>2026-05-01T08:19:05.429Z</time></trkpt><trkpt lat="42.4182479" lon="14.2439776"><ele>95.66666666666667</ele><time>2026-05-01T08:19:06.429Z</time></trkpt><trkpt lat="42.4182843" lon="14.2440497"><ele>97.5</ele><time>2026-05-01T08:19:07.449Z</time></trkpt><trkpt lat="42.4183371" lon="14.2440988"><ele>99.33333333333334</ele><time>2026-05-01T08:19:08.455Z</time></trkpt><trkpt lat="42.4184543" lon="14.2441459"><ele>101.16666666666667</ele><time>2026-05-01T08:19:10.448Z</time></trkpt><trkpt lat="42.4185386" lon="14.2441706"><ele>103.0</ele><time>2026-05-01T08:19:11.449Z</time></trkpt><trkpt lat="42.4186294" lon="14.2442048"><ele>103.00000000000001</ele><time>2026-05-01T08:19:12.46Z</time></trkpt><trkpt lat="42.4187225" lon="14.2442475"><ele>103.0</ele><time>2026-05-01T08:19:13.451Z</time></trkpt><trkpt lat="42.4188028" lon="14.2442872"><ele>103.0</ele><time>2026-05-01T08:19:14.454Z</time></trkpt><trkpt lat="42.4188744" lon="14.2443244"><ele>103.0</ele><time>2026-05-01T08:19:15.454Z</time></trkpt><trkpt lat="42.4189414" lon="14.244352"><ele>103.00000000000001</ele><time>2026-05-01T08:19:30.458Z</time></trkpt><trkpt lat="42.4189649" lon="14.2445051"><ele>103.0</ele><time>2026-05-01T08:19:54.428Z</time></trkpt><trkpt lat="42.4189735" lon="14.2446464"><ele>104.16666666666667</ele><time>2026-05-01T08:19:56.444Z</time></trkpt><trkpt lat="42.4190223" lon="14.2447092"><ele>105.33333333333334</ele><time>2026-05-01T08:19:58.467Z</time></trkpt><trkpt lat="42.4190939" lon="14.2446527"><ele>106.5</ele><time>2026-05-01T08:20:00.42Z</time></trkpt><trkpt lat="42.419138" lon="14.2445768"><ele>107.66666666666666</ele><time>2026-05-01T08:20:01.448Z</time></trkpt><trkpt lat="42.4191866" lon="14.2445109"><ele>108.83333333333333</ele><time>2026-05-01T08:20:02.424Z</time></trkpt><trkpt lat="42.4192738" lon="14.2444652"><ele>110.0</ele><time>2026-05-01T08:20:04.421Z</time></trkpt><trkpt lat="42.4193535" lon="14.244557"><ele>110.0</ele><time>2026-05-01T08:20:06.451Z</time></trkpt><trkpt lat="42.4193831" lon="14.2446406"><ele>110.0</ele><time>2026-05-01T08:20:07.464Z</time></trkpt><trkpt lat="42.4194078" lon="14.2447385"><ele>110.0</ele><time>2026-05-01T08:20:08.42Z</time></trkpt><trkpt lat="42.4194301" lon="14.2448547"><ele>110.0</ele><time>2026-05-01T08:20:09.445Z</time></trkpt><trkpt lat="42.4194529" lon="14.2449903"><ele>110.0</ele><time>2026-05-01T08:20:10.444Z</time></trkpt><trkpt lat="42.4194884" lon="14.2451439"><ele>111.0</ele><time>2026-05-01T08:20:11.464Z</time></trkpt><trkpt lat="42.4195304" lon="14.2453107"><ele>112.0</ele><time>2026-05-01T08:20:12.466Z</time></trkpt><trkpt lat="42.4195768" lon="14.245483"><ele>113.0</ele><time>2026-05-01T08:20:13.469Z</time></trkpt><trkpt lat="42.419623" lon="14.2456571"><ele>114.0</ele><time>2026-05-01T08:20:14.473Z</time></trkpt><trkpt lat="42.4196731" lon="14.2458406"><ele>114.0</ele><time>2026-05-01T08:20:15.449Z</time></trkpt><trkpt lat="42.4197137" lon="14.2460474"><ele>114.0</ele><time>2026-05-01T08:20:16.471Z</time></trkpt><trkpt lat="42.4197619" lon="14.2462326"><ele>114.0</ele><time>2026-05-01T08:20:17.469Z</time></trkpt><trkpt lat="42.4198067" lon="14.2464107"><ele>114.0</ele><time>2026-05-01T08:20:18.464Z</time></trkpt><trkpt lat="42.4198502" lon="14.2465428"><ele>114.2</ele><time>2026-05-01T08:20:19.467Z</time></trkpt><trkpt lat="42.4198916" lon="14.2466495"><ele>114.4</ele><time>2026-05-01T08:20:20.469Z</time></trkpt><trkpt lat="42.4199309" lon="14.2467406"><ele>114.6</ele><time>2026-05-01T08:20:22.439Z</time></trkpt><trkpt lat="42.4199409" lon="14.246906"><ele>114.8</ele><time>2026-05-01T08:20:24.446Z</time></trkpt><trkpt lat="42.4199209" lon="14.2470285"><ele>115.0</ele><time>2026-05-01T08:20:25.466Z</time></trkpt><trkpt lat="42.4199045" lon="14.2471695"><ele>114.0</ele><time>2026-05-01T08:20:26.466Z</time></trkpt><trkpt lat="42.4199052" lon="14.2473337"><ele>113.0</ele><time>2026-05-01T08:20:27.465Z</time></trkpt><trkpt lat="42.4199223" lon="14.2475089"><ele>112.0</ele><time>2026-05-01T08:20:28.446Z</time></trkpt><trkpt lat="42.4199422" lon="14.2476791"><ele>111.0</ele><time>2026-05-01T08:20:29.445Z</time></trkpt><trkpt lat="42.4199634" lon="14.2478418"><ele>111.0</ele><time>2026-05-01T08:20:30.472Z</time></trkpt><trkpt lat="42.4199908" lon="14.2479997"><ele>111.0</ele><time>2026-05-01T08:20:31.446Z</time></trkpt><trkpt lat="42.4200263" lon="14.2481497"><ele>111.0</ele><time>2026-05-01T08:20:32.468Z</time></trkpt><trkpt lat="42.4200596" lon="14.2482899"><ele>111.0</ele><time>2026-05-01T08:20:33.47Z</time></trkpt><trkpt lat="42.4200857" lon="14.2484192"><ele>111.0</ele><time>2026-05-01T08:20:34.469Z</time></trkpt><trkpt lat="42.4201138" lon="14.2485423"><ele>110.0</ele><time>2026-05-01T08:20:35.472Z</time></trkpt><trkpt lat="42.4201376" lon="14.2486605"><ele>109.0</ele><time>2026-05-01T08:20:36.447Z</time></trkpt><trkpt lat="42.4201666" lon="14.2487567"><ele>108.0</ele><time>2026-05-01T08:20:37.474Z</time></trkpt><trkpt lat="42.4201921" lon="14.2488859"><ele>107.0</ele><time>2026-05-01T08:20:39.451Z</time></trkpt><trkpt lat="42.4201173" lon="14.2489544"><ele>106.0</ele><time>2026-05-01T08:20:41.469Z</time></trkpt><trkpt lat="42.4200494" lon="14.2489942"><ele>105.0</ele><time>2026-05-01T08:20:42.449Z</time></trkpt><trkpt lat="42.4199778" lon="14.2490468"><ele>104.0</ele><time>2026-05-01T08:20:43.446Z</time></trkpt><trkpt lat="42.4199046" lon="14.249102"><ele>103.0</ele><time>2026-05-01T08:20:44.45Z</time></trkpt><trkpt lat="42.4198293" lon="14.2491621"><ele>102.0</ele><time>2026-05-01T08:20:45.473Z</time></trkpt><trkpt lat="42.4197547" lon="14.2492209"><ele>101.0</ele><time>2026-05-01T08:20:46.469Z</time></trkpt><trkpt lat="42.4196843" lon="14.2492752"><ele>100.0</ele><time>2026-05-01T08:20:47.451Z</time></trkpt><trkpt lat="42.4196279" lon="14.2493215"><ele>99.0</ele><time>2026-05-01T08:20:48.442Z</time></trkpt><trkpt lat="42.4195665" lon="14.2493451"><ele>96.0</ele><time>2026-05-01T08:20:54.445Z</time></trkpt><trkpt lat="42.4194886" lon="14.249266"><ele>93.0</ele><time>2026-05-01T08:20:57.429Z</time></trkpt><trkpt lat="42.4193823" lon="14.2492127"><ele>90.0</ele><time>2026-05-01T08:20:59.45Z</time></trkpt><trkpt lat="42.4192733" lon="14.2491592"><ele>87.0</ele><time>2026-05-01T08:21:01.424Z</time></trkpt><trkpt lat="42.4191728" lon="14.2491188"><ele>84.0</ele><time>2026-05-01T08:21:03.463Z</time></trkpt><trkpt lat="42.4190834" lon="14.2490924"><ele>84.0</ele><time>2026-05-01T08:21:05.444Z</time></trkpt><trkpt lat="42.4189484" lon="14.2490698"><ele>84.0</ele><time>2026-05-01T08:21:07.448Z</time></trkpt><trkpt lat="42.4188627" lon="14.2490527"><ele>84.0</ele><time>2026-05-01T08:21:08.451Z</time></trkpt><trkpt lat="42.4187764" lon="14.2490334"><ele>84.0</ele><time>2026-05-01T08:21:09.427Z</time></trkpt><trkpt lat="42.4186937" lon="14.2490105"><ele>84.0</ele><time>2026-05-01T08:21:10.425Z</time></trkpt><trkpt lat="42.4186074" lon="14.2489824"><ele>80.8</ele><time>2026-05-01T08:21:11.45Z</time></trkpt><trkpt lat="42.4185336" lon="14.2489571"><ele>77.60000000000001</ele><time>2026-05-01T08:21:12.426Z</time></trkpt><trkpt lat="42.4184177" lon="14.2489199"><ele>74.4</ele><time>2026-05-01T08:21:14.383Z</time></trkpt><trkpt lat="42.4183026" lon="14.2488803"><ele>71.2</ele><time>2026-05-01T08:21:16.382Z</time></trkpt><trkpt lat="42.4181884" lon="14.248834"><ele>68.0</ele><time>2026-05-01T08:21:18.346Z</time></trkpt><trkpt lat="42.4180196" lon="14.248769"><ele>65.5</ele><time>2026-05-01T08:21:20.381Z</time></trkpt><trkpt lat="42.4179353" lon="14.2488321"><ele>63.0</ele><time>2026-05-01T08:21:21.398Z</time></trkpt><trkpt lat="42.4178714" lon="14.2488487"><ele>60.5</ele><time>2026-05-01T08:21:22.394Z</time></trkpt><trkpt lat="42.4178263" lon="14.2487451"><ele>58.0</ele><time>2026-05-01T08:21:24.403Z</time></trkpt><trkpt lat="42.4178064" lon="14.2486419"><ele>55.50000000000001</ele><time>2026-05-01T08:21:26.442Z</time></trkpt><trkpt lat="42.4177536" lon="14.2485746"><ele>53.0</ele><time>2026-05-01T08:21:35.451Z</time></trkpt><trkpt lat="42.41765" lon="14.2485295"><ele>53.00000000000001</ele><time>2026-05-01T08:21:37.452Z</time></trkpt><trkpt lat="42.4175903" lon="14.2485006"><ele>53.0</ele><time>2026-05-01T08:21:38.449Z</time></trkpt><trkpt lat="42.4175164" lon="14.2484825"><ele>53.0</ele><time>2026-05-01T08:21:39.452Z</time></trkpt><trkpt lat="42.4174435" lon="14.248458"><ele>53.0</ele><time>2026-05-01T08:21:40.448Z</time></trkpt><trkpt lat="42.4173827" lon="14.2484254"><ele>53.00000000000001</ele><time>2026-05-01T08:21:41.472Z</time></trkpt><trkpt lat="42.4172941" lon="14.2483329"><ele>53.0</ele><time>2026-05-01T08:21:43.419Z</time></trkpt><trkpt lat="42.4172473" lon="14.2481707"><ele>53.16666666666667</ele><time>2026-05-01T08:21:45.443Z</time></trkpt><trkpt lat="42.4172634" lon="14.2480172"><ele>53.333333333333336</ele><time>2026-05-01T08:21:47.418Z</time></trkpt><trkpt lat="42.4172365" lon="14.2479324"><ele>53.5</ele><time>2026-05-01T08:21:52.424Z</time></trkpt><trkpt lat="42.4171703" lon="14.2479115"><ele>53.66666666666667</ele><time>2026-05-01T08:21:54.427Z</time></trkpt><trkpt lat="42.4170758" lon="14.2478961"><ele>53.833333333333336</ele><time>2026-05-01T08:21:56.426Z</time></trkpt><trkpt lat="42.4169907" lon="14.2478619"><ele>54.0</ele><time>2026-05-01T08:21:58.423Z</time></trkpt><trkpt lat="42.4169114" lon="14.2478414"><ele>52.166666666666664</ele><time>2026-05-01T08:22:00.43Z</time></trkpt><trkpt lat="42.4168388" lon="14.247826"><ele>50.333333333333336</ele><time>2026-05-01T08:22:02.418Z</time></trkpt><trkpt lat="42.416745" lon="14.2477714"><ele>48.5</ele><time>2026-05-01T08:22:04.425Z</time></trkpt><trkpt lat="42.4166551" lon="14.2477554"><ele>46.66666666666667</ele><time>2026-05-01T08:22:06.419Z</time></trkpt><trkpt lat="42.4165741" lon="14.2477556"><ele>44.833333333333336</ele><time>2026-05-01T08:22:08.464Z</time></trkpt><trkpt lat="42.416483" lon="14.2477909"><ele>43.0</ele><time>2026-05-01T08:22:10.459Z</time></trkpt><trkpt lat="42.4164048" lon="14.247903"><ele>43.0</ele><time>2026-05-01T08:22:12.432Z</time></trkpt><trkpt lat="42.416349" lon="14.2479775"><ele>43.0</ele><time>2026-05-01T08:22:13.437Z</time></trkpt><trkpt lat="42.416292" lon="14.2480522"><ele>43.0</ele><time>2026-05-01T08:22:14.441Z</time></trkpt><trkpt lat="42.4162392" lon="14.248119"><ele>43.0</ele><time>2026-05-01T08:22:15.416Z</time></trkpt><trkpt lat="42.4161808" lon="14.2481997"><ele>43.0</ele><time>2026-05-01T08:22:16.445Z</time></trkpt><trkpt lat="42.416112" lon="14.2482873"><ele>43.0</ele><time>2026-05-01T08:22:17.445Z</time></trkpt><trkpt lat="42.4160421" lon="14.2483708"><ele>44.833333333333336</ele><time>2026-05-01T08:22:18.445Z</time></trkpt><trkpt lat="42.4159712" lon="14.2484486"><ele>46.66666666666667</ele><time>2026-05-01T08:22:19.447Z</time></trkpt><trkpt lat="42.4159073" lon="14.2485273"><ele>48.5</ele><time>2026-05-01T08:22:20.44Z</time></trkpt><trkpt lat="42.4158477" lon="14.2486022"><ele>50.333333333333336</ele><time>2026-05-01T08:22:21.439Z</time></trkpt><trkpt lat="42.4157828" lon="14.248673"><ele>52.166666666666664</ele><time>2026-05-01T08:22:22.441Z</time></trkpt><trkpt lat="42.4157199" lon="14.2487406"><ele>54.0</ele><time>2026-05-01T08:22:23.44Z</time></trkpt><trkpt lat="42.4156535" lon="14.2488046"><ele>54.0</ele><time>2026-05-01T08:22:24.441Z</time></trkpt><trkpt lat="42.415585" lon="14.248869"><ele>54.0</ele><time>2026-05-01T08:22:25.443Z</time></trkpt><trkpt lat="42.4155153" lon="14.2489388"><ele>54.0</ele><time>2026-05-01T08:22:26.441Z</time></trkpt><trkpt lat="42.4154425" lon="14.249014"><ele>54.0</ele><time>2026-05-01T08:22:27.444Z</time></trkpt><trkpt lat="42.415376" lon="14.2490887"><ele>54.0</ele><time>2026-05-01T08:22:28.44Z</time></trkpt><trkpt lat="42.4153188" lon="14.2491698"><ele>54.0</ele><time>2026-05-01T08:22:29.46Z</time></trkpt><trkpt lat="42.4152703" lon="14.2492571"><ele>57.666666666666664</ele><time>2026-05-01T08:22:30.468Z</time></trkpt><trkpt lat="42.4152253" lon="14.249355"><ele>61.33333333333333</ele><time>2026-05-01T08:22:31.416Z</time></trkpt><trkpt lat="42.4151797" lon="14.2494375"><ele>65.0</ele><time>2026-05-01T08:22:32.439Z</time></trkpt><trkpt lat="42.4151285" lon="14.2495134"><ele>68.66666666666666</ele><time>2026-05-01T08:22:33.442Z</time></trkpt><trkpt lat="42.4150684" lon="14.2495911"><ele>72.33333333333333</ele><time>2026-05-01T08:22:34.438Z</time></trkpt><trkpt lat="42.4150068" lon="14.2496584"><ele>76.0</ele><time>2026-05-01T08:22:35.442Z</time></trkpt><trkpt lat="42.4149515" lon="14.2497089"><ele>76.0</ele><time>2026-05-01T08:22:36.433Z</time></trkpt><trkpt lat="42.4148297" lon="14.2497798"><ele>76.0</ele><time>2026-05-01T08:22:38.414Z</time></trkpt><trkpt lat="42.4147541" lon="14.2498311"><ele>76.0</ele><time>2026-05-01T08:22:39.39Z</time></trkpt><trkpt lat="42.4146773" lon="14.2498962"><ele>76.0</ele><time>2026-05-01T08:22:40.399Z</time></trkpt><trkpt lat="42.4145925" lon="14.2499705"><ele>76.0</ele><time>2026-05-01T08:22:41.392Z</time></trkpt><trkpt lat="42.4145115" lon="14.2500494"><ele>78.0</ele><time>2026-05-01T08:22:42.396Z</time></trkpt><trkpt lat="42.4144415" lon="14.2501172"><ele>80.0</ele><time>2026-05-01T08:22:43.391Z</time></trkpt><trkpt lat="42.4143869" lon="14.2501727"><ele>82.0</ele><time>2026-05-01T08:22:44.395Z</time></trkpt><trkpt lat="42.414296" lon="14.2502628"><ele>84.0</ele><time>2026-05-01T08:22:46.404Z</time></trkpt><trkpt lat="42.4142059" lon="14.2502625"><ele>86.0</ele><time>2026-05-01T08:22:48.408Z</time></trkpt><trkpt lat="42.4141323" lon="14.2500904"><ele>86.0</ele><time>2026-05-01T08:22:50.403Z</time></trkpt><trkpt lat="42.4140653" lon="14.2499796"><ele>86.0</ele><time>2026-05-01T08:22:51.405Z</time></trkpt><trkpt lat="42.413992" lon="14.2498947"><ele>86.0</ele><time>2026-05-01T08:22:52.406Z</time></trkpt><trkpt lat="42.4139191" lon="14.2498334"><ele>86.0</ele><time>2026-05-01T08:22:53.409Z</time></trkpt><trkpt lat="42.4138395" lon="14.2497858"><ele>86.0</ele><time>2026-05-01T08:22:54.404Z</time></trkpt><trkpt lat="42.4137588" lon="14.2497552"><ele>86.5</ele><time>2026-05-01T08:22:55.403Z</time></trkpt><trkpt lat="42.413675" lon="14.2497421"><ele>87.0</ele><time>2026-05-01T08:22:56.402Z</time></trkpt><trkpt lat="42.4135832" lon="14.2497449"><ele>87.5</ele><time>2026-05-01T08:22:57.4Z</time></trkpt><trkpt lat="42.4134974" lon="14.2497566"><ele>88.0</ele><time>2026-05-01T08:22:58.401Z</time></trkpt><trkpt lat="42.4134193" lon="14.2497783"><ele>88.5</ele><time>2026-05-01T08:22:59.399Z</time></trkpt><trkpt lat="42.4133559" lon="14.2497969"><ele>89.0</ele><time>2026-05-01T08:23:00.401Z</time></trkpt><trkpt lat="42.4132583" lon="14.2498328"><ele>89.0</ele><time>2026-05-01T08:23:02.404Z</time></trkpt><trkpt lat="42.4131869" lon="14.2498661"><ele>89.0</ele><time>2026-05-01T08:23:05.414Z</time></trkpt><trkpt lat="42.4131198" lon="14.2499004"><ele>89.0</ele><time>2026-05-01T08:23:09.415Z</time></trkpt><trkpt lat="42.413112" lon="14.2497724"><ele>89.0</ele><time>2026-05-01T08:23:11.409Z</time></trkpt><trkpt lat="42.4131039" lon="14.2496759"><ele>89.0</ele><time>2026-05-01T08:23:12.415Z</time></trkpt><trkpt lat="42.4130888" lon="14.2495788"><ele>89.0</ele><time>2026-05-01T08:23:13.413Z</time></trkpt><trkpt lat="42.4130827" lon="14.2494839"><ele>89.83333333333334</ele><time>2026-05-01T08:23:14.406Z</time></trkpt><trkpt lat="42.413079" lon="14.2493874"><ele>90.66666666666667</ele><time>2026-05-01T08:23:15.41Z</time></trkpt><trkpt lat="42.4130724" lon="14.2492899"><ele>91.5</ele><time>2026-05-01T08:23:16.411Z</time></trkpt><trkpt lat="42.4130575" lon="14.2491203"><ele>92.33333333333333</ele><time>2026-05-01T08:23:18.413Z</time></trkpt><trkpt lat="42.4130483" lon="14.2490263"><ele>93.16666666666666</ele><time>2026-05-01T08:23:19.416Z</time></trkpt><trkpt lat="42.4130387" lon="14.2489332"><ele>94.0</ele><time>2026-05-01T08:23:20.41Z</time></trkpt><trkpt lat="42.4130297" lon="14.2488377"><ele>94.66666666666666</ele><time>2026-05-01T08:23:21.419Z</time></trkpt><trkpt lat="42.4130242" lon="14.2487437"><ele>95.33333333333333</ele><time>2026-05-01T08:23:22.424Z</time></trkpt><trkpt lat="42.4130156" lon="14.2486587"><ele>96.0</ele><time>2026-05-01T08:23:23.416Z</time></trkpt><trkpt lat="42.4129911" lon="14.2485053"><ele>96.66666666666666</ele><time>2026-05-01T08:23:25.418Z</time></trkpt><trkpt lat="42.4129811" lon="14.2483407"><ele>97.33333333333333</ele><time>2026-05-01T08:23:27.417Z</time></trkpt><trkpt lat="42.4129721" lon="14.2482527"><ele>98.0</ele><time>2026-05-01T08:23:28.411Z</time></trkpt><trkpt lat="42.4129542" lon="14.2481466"><ele>97.80000000000001</ele><time>2026-05-01T08:23:29.41Z</time></trkpt><trkpt lat="42.4129236" lon="14.2480084"><ele>97.6</ele><time>2026-05-01T08:23:30.41Z</time></trkpt><trkpt lat="42.412897" lon="14.2478481"><ele>97.4</ele><time>2026-05-01T08:23:31.418Z</time></trkpt><trkpt lat="42.4128795" lon="14.2476997"><ele>97.19999999999999</ele><time>2026-05-01T08:23:32.409Z</time></trkpt><trkpt lat="42.4128718" lon="14.2475681"><ele>97.0</ele><time>2026-05-01T08:23:33.406Z</time></trkpt><trkpt lat="42.4128607" lon="14.2474602"><ele>97.0</ele><time>2026-05-01T08:23:34.41Z</time></trkpt><trkpt lat="42.4128282" lon="14.247307"><ele>97.0</ele><time>2026-05-01T08:23:36.415Z</time></trkpt><trkpt lat="42.4128002" lon="14.2471838"><ele>97.0</ele><time>2026-05-01T08:23:38.409Z</time></trkpt><trkpt lat="42.4128626" lon="14.2471353"><ele>97.0</ele><time>2026-05-01T08:23:42.41Z</time></trkpt><trkpt lat="42.4129729" lon="14.2471022"><ele>97.0</ele><time>2026-05-01T08:23:44.412Z</time></trkpt><trkpt lat="42.4130527" lon="14.2470701"><ele>99.39999999999999</ele><time>2026-05-01T08:23:45.414Z</time></trkpt><trkpt lat="42.4131421" lon="14.2470238"><ele>101.8</ele><time>2026-05-01T08:23:46.413Z</time></trkpt><trkpt lat="42.4132335" lon="14.2469807"><ele>104.2</ele><time>2026-05-01T08:23:47.416Z</time></trkpt><trkpt lat="42.4133164" lon="14.2469325"><ele>106.6</ele><time>2026-05-01T08:23:48.417Z</time></trkpt><trkpt lat="42.4133853" lon="14.2468898"><ele>109.0</ele><time>2026-05-01T08:23:49.417Z</time></trkpt><trkpt lat="42.413476" lon="14.2468311"><ele>109.00000000000001</ele><time>2026-05-01T08:23:51.416Z</time></trkpt><trkpt lat="42.4135606" lon="14.2467831"><ele>109.0</ele><time>2026-05-01T08:23:55.422Z</time></trkpt><trkpt lat="42.4136406" lon="14.246725"><ele>109.0</ele><time>2026-05-01T08:23:57.42Z</time></trkpt><trkpt lat="42.4137018" lon="14.2466524"><ele>109.0</ele><time>2026-05-01T08:23:59.421Z</time></trkpt><trkpt lat="42.413734" lon="14.2465353"><ele>109.00000000000001</ele><time>2026-05-01T08:24:01.427Z</time></trkpt><trkpt lat="42.4137626" lon="14.246454"><ele>109.0</ele><time>2026-05-01T08:24:02.422Z</time></trkpt><trkpt lat="42.4138047" lon="14.2463477"><ele>106.33333333333334</ele><time>2026-05-01T08:24:04.415Z</time></trkpt><trkpt lat="42.4138428" lon="14.2462739"><ele>103.66666666666667</ele><time>2026-05-01T08:24:07.421Z</time></trkpt><trkpt lat="42.4138855" lon="14.2461627"><ele>101.0</ele><time>2026-05-01T08:24:10.426Z</time></trkpt><trkpt lat="42.4139193" lon="14.2460753"><ele>98.33333333333334</ele><time>2026-05-01T08:24:12.422Z</time></trkpt><trkpt lat="42.4139443" lon="14.2459869"><ele>95.66666666666667</ele><time>2026-05-01T08:24:14.421Z</time></trkpt><trkpt lat="42.4139622" lon="14.2458567"><ele>93.0</ele><time>2026-05-01T08:24:16.425Z</time></trkpt><trkpt lat="42.4139615" lon="14.2457037"><ele>92.4</ele><time>2026-05-01T08:24:18.421Z</time></trkpt><trkpt lat="42.4139611" lon="14.2455747"><ele>91.80000000000001</ele><time>2026-05-01T08:24:20.417Z</time></trkpt><trkpt lat="42.4139456" lon="14.2454316"><ele>91.2</ele><time>2026-05-01T08:24:22.412Z</time></trkpt><trkpt lat="42.4139384" lon="14.2452883"><ele>90.6</ele><time>2026-05-01T08:24:24.406Z</time></trkpt><trkpt lat="42.4139408" lon="14.2451846"><ele>90.0</ele><time>2026-05-01T08:24:37.42Z</time></trkpt><trkpt lat="42.4139427" lon="14.2450496"><ele>90.0</ele><time>2026-05-01T08:24:40.412Z</time></trkpt><trkpt lat="42.4139243" lon="14.2448944"><ele>90.0</ele><time>2026-05-01T08:24:42.417Z</time></trkpt><trkpt lat="42.4139051" lon="14.2447519"><ele>90.0</ele><time>2026-05-01T08:24:44.414Z</time></trkpt><trkpt lat="42.4139033" lon="14.2446038"><ele>90.0</ele><time>2026-05-01T08:24:46.415Z</time></trkpt><trkpt lat="42.4138998" lon="14.2445183"><ele>90.0</ele><time>2026-05-01T08:24:47.417Z</time></trkpt><trkpt lat="42.4138859" lon="14.2444206"><ele>89.5</ele><time>2026-05-01T08:24:48.418Z</time></trkpt><trkpt lat="42.4138788" lon="14.2443357"><ele>89.0</ele><time>2026-05-01T08:24:49.416Z</time></trkpt><trkpt lat="42.4138602" lon="14.2442287"><ele>88.5</ele><time>2026-05-01T08:24:51.419Z</time></trkpt><trkpt lat="42.4138784" lon="14.2441444"><ele>88.0</ele><time>2026-05-01T08:24:56.415Z</time></trkpt><trkpt lat="42.4138803" lon="14.2440355"><ele>87.5</ele><time>2026-05-01T08:24:59.418Z</time></trkpt><trkpt lat="42.413866" lon="14.2439163"><ele>87.0</ele><time>2026-05-01T08:25:02.417Z</time></trkpt><trkpt lat="42.413885" lon="14.2437066"><ele>87.0</ele><time>2026-05-01T08:26:20.404Z</time></trkpt><trkpt lat="42.4138717" lon="14.2438382"><ele>87.0</ele><time>2026-05-01T08:26:23.406Z</time></trkpt><trkpt lat="42.4138686" lon="14.2440351"><ele>87.0</ele><time>2026-05-01T08:26:24.41Z</time></trkpt><trkpt lat="42.4138794" lon="14.2441272"><ele>87.0</ele><time>2026-05-01T08:26:25.407Z</time></trkpt><trkpt lat="42.4138808" lon="14.2442138"><ele>87.0</ele><time>2026-05-01T08:26:46.43Z</time></trkpt><trkpt lat="42.4138528" lon="14.244315"><ele>87.0</ele><time>2026-05-01T08:29:19.426Z</time></trkpt><trkpt lat="42.4138651" lon="14.2444007"><ele>87.0</ele><time>2026-05-01T08:29:22.42Z</time></trkpt><trkpt lat="42.4138781" lon="14.2445421"><ele>87.0</ele><time>2026-05-01T08:29:24.422Z</time></trkpt><trkpt lat="42.4138946" lon="14.2446757"><ele>87.0</ele><time>2026-05-01T08:29:26.421Z</time></trkpt><trkpt lat="42.4138919" lon="14.244762"><ele>87.0</ele><time>2026-05-01T08:29:27.426Z</time></trkpt><trkpt lat="42.413891" lon="14.2448492"><ele>87.0</ele><time>2026-05-01T08:29:28.427Z</time></trkpt><trkpt lat="42.4139029" lon="14.2450045"><ele>87.5</ele><time>2026-05-01T08:29:30.421Z</time></trkpt><trkpt lat="42.4139138" lon="14.2451696"><ele>88.0</ele><time>2026-05-01T08:29:32.428Z</time></trkpt><trkpt lat="42.4139191" lon="14.2452722"><ele>88.5</ele><time>2026-05-01T08:29:33.428Z</time></trkpt><trkpt lat="42.4139213" lon="14.2453892"><ele>89.0</ele><time>2026-05-01T08:29:34.423Z</time></trkpt><trkpt lat="42.4139285" lon="14.2455021"><ele>89.5</ele><time>2026-05-01T08:29:35.428Z</time></trkpt><trkpt lat="42.4139305" lon="14.2456078"><ele>90.0</ele><time>2026-05-01T08:29:36.42Z</time></trkpt><trkpt lat="42.4139356" lon="14.2457086"><ele>90.42857142857143</ele><time>2026-05-01T08:29:37.429Z</time></trkpt><trkpt lat="42.4139333" lon="14.2458063"><ele>90.85714285714286</ele><time>2026-05-01T08:29:38.428Z</time></trkpt><trkpt lat="42.4139254" lon="14.2459032"><ele>91.28571428571429</ele><time>2026-05-01T08:29:39.431Z</time></trkpt><trkpt lat="42.4139028" lon="14.2460066"><ele>91.71428571428572</ele><time>2026-05-01T08:29:40.429Z</time></trkpt><trkpt lat="42.4138639" lon="14.2461016"><ele>92.14285714285714</ele><time>2026-05-01T08:29:41.419Z</time></trkpt><trkpt lat="42.4138241" lon="14.2461849"><ele>92.57142857142858</ele><time>2026-05-01T08:29:42.438Z</time></trkpt><trkpt lat="42.413784" lon="14.246257"><ele>93.0</ele><time>2026-05-01T08:29:43.433Z</time></trkpt><trkpt lat="42.4137358" lon="14.2463292"><ele>96.83333333333333</ele><time>2026-05-01T08:29:45.434Z</time></trkpt><trkpt lat="42.4137554" lon="14.2462432"><ele>100.66666666666666</ele><time>2026-05-01T08:29:59.434Z</time></trkpt><trkpt lat="42.413766" lon="14.2461179"><ele>104.5</ele><time>2026-05-01T08:30:01.437Z</time></trkpt><trkpt lat="42.4137671" lon="14.2460209"><ele>108.33333333333333</ele><time>2026-05-01T08:30:02.435Z</time></trkpt><trkpt lat="42.4137746" lon="14.2459149"><ele>112.16666666666666</ele><time>2026-05-01T08:30:03.432Z</time></trkpt><trkpt lat="42.4137688" lon="14.2458004"><ele>116.0</ele><time>2026-05-01T08:30:04.433Z</time></trkpt><trkpt lat="42.413747" lon="14.245685"><ele>116.83333333333333</ele><time>2026-05-01T08:30:05.432Z</time></trkpt><trkpt lat="42.4137273" lon="14.2455737"><ele>117.66666666666666</ele><time>2026-05-01T08:30:06.429Z</time></trkpt><trkpt lat="42.4137071" lon="14.2454516"><ele>118.5</ele><time>2026-05-01T08:30:07.434Z</time></trkpt><trkpt lat="42.4136721" lon="14.2453374"><ele>119.33333333333334</ele><time>2026-05-01T08:30:08.429Z</time></trkpt><trkpt lat="42.4136392" lon="14.2452423"><ele>120.16666666666667</ele><time>2026-05-01T08:30:09.427Z</time></trkpt><trkpt lat="42.4136065" lon="14.2451663"><ele>121.0</ele><time>2026-05-01T08:30:10.431Z</time></trkpt><trkpt lat="42.4135654" lon="14.2450376"><ele>121.00000000000001</ele><time>2026-05-01T08:30:12.431Z</time></trkpt><trkpt lat="42.413571" lon="14.2449246"><ele>121.0</ele><time>2026-05-01T08:30:14.436Z</time></trkpt><trkpt lat="42.4135793" lon="14.244838"><ele>121.0</ele><time>2026-05-01T08:30:15.447Z</time></trkpt><trkpt lat="42.4135844" lon="14.2447374"><ele>121.0</ele><time>2026-05-01T08:30:16.451Z</time></trkpt><trkpt lat="42.4135769" lon="14.2446299"><ele>121.00000000000001</ele><time>2026-05-01T08:30:17.444Z</time></trkpt><trkpt lat="42.4135685" lon="14.2445369"><ele>121.0</ele><time>2026-05-01T08:30:18.442Z</time></trkpt><trkpt lat="42.4135323" lon="14.2444159"><ele>121.33333333333334</ele><time>2026-05-01T08:30:20.446Z</time></trkpt><trkpt lat="42.4134906" lon="14.2443148"><ele>121.66666666666667</ele><time>2026-05-01T08:30:22.445Z</time></trkpt><trkpt lat="42.4134373" lon="14.2441955"><ele>122.0</ele><time>2026-05-01T08:30:24.44Z</time></trkpt><trkpt lat="42.4134017" lon="14.2441223"><ele>122.33333333333334</ele><time>2026-05-01T08:30:25.439Z</time></trkpt><trkpt lat="42.4133582" lon="14.2440398"><ele>122.66666666666667</ele><time>2026-05-01T08:30:26.431Z</time></trkpt><trkpt lat="42.4133158" lon="14.2439543"><ele>123.0</ele><time>2026-05-01T08:30:27.439Z</time></trkpt><trkpt lat="42.413272" lon="14.2438811"><ele>121.80000000000001</ele><time>2026-05-01T08:30:28.44Z</time></trkpt><trkpt lat="42.4131951" lon="14.2437704"><ele>120.60000000000001</ele><time>2026-05-01T08:30:30.437Z</time></trkpt><trkpt lat="42.4131418" lon="14.2436463"><ele>119.39999999999999</ele><time>2026-05-01T08:30:32.436Z</time></trkpt><trkpt lat="42.4131036" lon="14.2434819"><ele>118.19999999999999</ele><time>2026-05-01T08:30:34.439Z</time></trkpt><trkpt lat="42.4130832" lon="14.2433739"><ele>117.0</ele><time>2026-05-01T08:30:35.433Z</time></trkpt><trkpt lat="42.4130711" lon="14.2432452"><ele>116.0</ele><time>2026-05-01T08:30:36.43Z</time></trkpt><trkpt lat="42.4130704" lon="14.2431061"><ele>114.99999999999999</ele><time>2026-05-01T08:30:37.434Z</time></trkpt><trkpt lat="42.4130755" lon="14.2429565"><ele>113.99999999999999</ele><time>2026-05-01T08:30:38.427Z</time></trkpt><trkpt lat="42.413091" lon="14.2428062"><ele>113.0</ele><time>2026-05-01T08:30:39.435Z</time></trkpt><trkpt lat="42.4130988" lon="14.2426812"><ele>112.0</ele><time>2026-05-01T08:30:40.439Z</time></trkpt><trkpt lat="42.4130981" lon="14.2425646"><ele>112.0</ele><time>2026-05-01T08:30:41.437Z</time></trkpt><trkpt lat="42.4130825" lon="14.2424447"><ele>111.99999999999999</ele><time>2026-05-01T08:30:42.442Z</time></trkpt><trkpt lat="42.4130548" lon="14.242345"><ele>111.99999999999999</ele><time>2026-05-01T08:30:43.433Z</time></trkpt><trkpt lat="42.4130257" lon="14.2422649"><ele>112.0</ele><time>2026-05-01T08:30:44.437Z</time></trkpt><trkpt lat="42.4129589" lon="14.2421396"><ele>112.0</ele><time>2026-05-01T08:30:46.435Z</time></trkpt><trkpt lat="42.4128937" lon="14.242008"><ele>113.00000000000001</ele><time>2026-05-01T08:30:48.444Z</time></trkpt><trkpt lat="42.4128422" lon="14.2418879"><ele>114.0</ele><time>2026-05-01T08:30:50.436Z</time></trkpt><trkpt lat="42.4128045" lon="14.2417939"><ele>115.0</ele><time>2026-05-01T08:30:52.436Z</time></trkpt><trkpt lat="42.4127758" lon="14.2416642"><ele>116.0</ele><time>2026-05-01T08:30:54.434Z</time></trkpt><trkpt lat="42.4127579" lon="14.2415789"><ele>117.00000000000001</ele><time>2026-05-01T08:30:55.435Z</time></trkpt><trkpt lat="42.4127368" lon="14.2414842"><ele>118.0</ele><time>2026-05-01T08:30:56.434Z</time></trkpt><trkpt lat="42.4127084" lon="14.241379"><ele>118.00000000000001</ele><time>2026-05-01T08:30:57.438Z</time></trkpt><trkpt lat="42.412671" lon="14.2412712"><ele>118.0</ele><time>2026-05-01T08:30:58.445Z</time></trkpt><trkpt lat="42.412621" lon="14.2411577"><ele>118.0</ele><time>2026-05-01T08:30:59.434Z</time></trkpt><trkpt lat="42.4125694" lon="14.2410503"><ele>118.0</ele><time>2026-05-01T08:31:00.438Z</time></trkpt><trkpt lat="42.4125168" lon="14.2409622"><ele>118.00000000000001</ele><time>2026-05-01T08:31:01.429Z</time></trkpt><trkpt lat="42.4124555" lon="14.2408956"><ele>118.0</ele><time>2026-05-01T08:31:02.425Z</time></trkpt><trkpt lat="42.4123951" lon="14.2408357"><ele>118.00000000000001</ele><time>2026-05-01T08:31:03.434Z</time></trkpt><trkpt lat="42.4123278" lon="14.2407539"><ele>118.0</ele><time>2026-05-01T08:31:04.433Z</time></trkpt><trkpt lat="42.4122672" lon="14.2406573"><ele>118.0</ele><time>2026-05-01T08:31:05.428Z</time></trkpt><trkpt lat="42.4122041" lon="14.2405798"><ele>118.0</ele><time>2026-05-01T08:31:06.431Z</time></trkpt><trkpt lat="42.412143" lon="14.2405159"><ele>118.00000000000001</ele><time>2026-05-01T08:31:07.43Z</time></trkpt><trkpt lat="42.4120811" lon="14.2404586"><ele>118.0</ele><time>2026-05-01T08:31:08.428Z</time></trkpt><trkpt lat="42.4120268" lon="14.2404037"><ele>119.16666666666667</ele><time>2026-05-01T08:31:09.433Z</time></trkpt><trkpt lat="42.4119453" lon="14.2403573"><ele>120.33333333333334</ele><time>2026-05-01T08:31:11.438Z</time></trkpt><trkpt lat="42.4118763" lon="14.2402837"><ele>121.5</ele><time>2026-05-01T08:31:14.443Z</time></trkpt><trkpt lat="42.4118495" lon="14.2401989"><ele>122.66666666666666</ele><time>2026-05-01T08:31:32.442Z</time></trkpt><trkpt lat="42.4118226" lon="14.2401157"><ele>123.83333333333333</ele><time>2026-05-01T08:31:34.437Z</time></trkpt><trkpt lat="42.4117772" lon="14.2400185"><ele>125.0</ele><time>2026-05-01T08:31:36.432Z</time></trkpt><trkpt lat="42.4117237" lon="14.2399055"><ele>124.99999999999999</ele><time>2026-05-01T08:31:40.432Z</time></trkpt><trkpt lat="42.4116939" lon="14.2398164"><ele>125.0</ele><time>2026-05-01T08:31:41.425Z</time></trkpt><trkpt lat="42.411644" lon="14.2397397"><ele>125.0</ele><time>2026-05-01T08:31:42.436Z</time></trkpt><trkpt lat="42.4116013" lon="14.2396578"><ele>125.0</ele><time>2026-05-01T08:31:43.439Z</time></trkpt><trkpt lat="42.4115728" lon="14.2395465"><ele>124.99999999999999</ele><time>2026-05-01T08:31:44.427Z</time></trkpt><trkpt lat="42.4115298" lon="14.2394128"><ele>125.0</ele><time>2026-05-01T08:31:45.437Z</time></trkpt><trkpt lat="42.4114826" lon="14.2392728"><ele>123.0</ele><time>2026-05-01T08:31:46.441Z</time></trkpt><trkpt lat="42.4114368" lon="14.2391401"><ele>121.0</ele><time>2026-05-01T08:31:47.427Z</time></trkpt><trkpt lat="42.4113784" lon="14.2390024"><ele>119.0</ele><time>2026-05-01T08:31:48.442Z</time></trkpt><trkpt lat="42.411314" lon="14.2388617"><ele>117.0</ele><time>2026-05-01T08:31:49.44Z</time></trkpt><trkpt lat="42.4112559" lon="14.2387294"><ele>123.25</ele><time>2026-05-01T08:31:50.435Z</time></trkpt><trkpt lat="42.4111998" lon="14.2385959"><ele>129.5</ele><time>2026-05-01T08:31:51.437Z</time></trkpt><trkpt lat="42.4111382" lon="14.2384653"><ele>135.75</ele><time>2026-05-01T08:31:52.434Z</time></trkpt><trkpt lat="42.4110694" lon="14.238329"><ele>142.0</ele><time>2026-05-01T08:31:53.435Z</time></trkpt><trkpt lat="42.4110054" lon="14.2382094"><ele>142.0</ele><time>2026-05-01T08:31:54.434Z</time></trkpt><trkpt lat="42.4109404" lon="14.238084"><ele>142.0</ele><time>2026-05-01T08:31:55.432Z</time></trkpt><trkpt lat="42.4108828" lon="14.2379648"><ele>142.0</ele><time>2026-05-01T08:31:56.438Z</time></trkpt><trkpt lat="42.4108405" lon="14.2378418"><ele>142.0</ele><time>2026-05-01T08:31:57.437Z</time></trkpt><trkpt lat="42.4108046" lon="14.2377227"><ele>142.0</ele><time>2026-05-01T08:31:58.436Z</time></trkpt><trkpt lat="42.4107757" lon="14.2376156"><ele>142.0</ele><time>2026-05-01T08:31:59.428Z</time></trkpt><trkpt lat="42.4107471" lon="14.237524"><ele>142.0</ele><time>2026-05-01T08:32:00.432Z</time></trkpt><trkpt lat="42.4107207" lon="14.2374379"><ele>142.0</ele><time>2026-05-01T08:32:01.437Z</time></trkpt><trkpt lat="42.4106825" lon="14.2373546"><ele>142.0</ele><time>2026-05-01T08:32:02.429Z</time></trkpt><trkpt lat="42.4106414" lon="14.237277"><ele>142.0</ele><time>2026-05-01T08:32:03.43Z</time></trkpt><trkpt lat="42.4105956" lon="14.2371935"><ele>142.0</ele><time>2026-05-01T08:32:04.434Z</time></trkpt><trkpt lat="42.4105528" lon="14.2371164"><ele>142.0</ele><time>2026-05-01T08:32:05.434Z</time></trkpt><trkpt lat="42.4105133" lon="14.2370485"><ele>143.2</ele><time>2026-05-01T08:32:06.436Z</time></trkpt><trkpt lat="42.4104504" lon="14.2369316"><ele>144.39999999999998</ele><time>2026-05-01T08:32:08.433Z</time></trkpt><trkpt lat="42.410396" lon="14.2367658"><ele>145.60000000000002</ele><time>2026-05-01T08:32:10.429Z</time></trkpt><trkpt lat="42.410363" lon="14.2366418"><ele>146.8</ele><time>2026-05-01T08:32:11.438Z</time></trkpt><trkpt lat="42.4103211" lon="14.2365114"><ele>148.0</ele><time>2026-05-01T08:32:12.442Z</time></trkpt><trkpt lat="42.4102674" lon="14.236389"><ele>148.0</ele><time>2026-05-01T08:32:13.437Z</time></trkpt><trkpt lat="42.4102094" lon="14.2362774"><ele>148.0</ele><time>2026-05-01T08:32:14.436Z</time></trkpt><trkpt lat="42.4101447" lon="14.2361886"><ele>148.0</ele><time>2026-05-01T08:32:15.425Z</time></trkpt><trkpt lat="42.4100765" lon="14.2361057"><ele>148.0</ele><time>2026-05-01T08:32:16.432Z</time></trkpt><trkpt lat="42.4099932" lon="14.2360213"><ele>148.0</ele><time>2026-05-01T08:32:17.438Z</time></trkpt><trkpt lat="42.409907" lon="14.2359329"><ele>148.0</ele><time>2026-05-01T08:32:18.432Z</time></trkpt><trkpt lat="42.4098295" lon="14.235854"><ele>148.0</ele><time>2026-05-01T08:32:19.441Z</time></trkpt><trkpt lat="42.4097705" lon="14.2357957"><ele>148.0</ele><time>2026-05-01T08:32:20.435Z</time></trkpt><trkpt lat="42.409719" lon="14.2357355"><ele>148.0</ele><time>2026-05-01T08:32:21.452Z</time></trkpt><trkpt lat="42.4096605" lon="14.2356628"><ele>148.0</ele><time>2026-05-01T08:32:22.439Z</time></trkpt><trkpt lat="42.4095898" lon="14.2355675"><ele>148.0</ele><time>2026-05-01T08:32:23.435Z</time></trkpt><trkpt lat="42.4095051" lon="14.2354554"><ele>148.0</ele><time>2026-05-01T08:32:24.442Z</time></trkpt><trkpt lat="42.4094243" lon="14.2353608"><ele>148.0</ele><time>2026-05-01T08:32:25.445Z</time></trkpt><trkpt lat="42.4093546" lon="14.2352652"><ele>148.0</ele><time>2026-05-01T08:32:26.446Z</time></trkpt><trkpt lat="42.4092868" lon="14.2351827"><ele>148.0</ele><time>2026-05-01T08:32:27.438Z</time></trkpt><trkpt lat="42.4092265" lon="14.235113"><ele>148.0</ele><time>2026-05-01T08:32:28.44Z</time></trkpt><trkpt lat="42.4091736" lon="14.2350489"><ele>148.0</ele><time>2026-05-01T08:32:29.44Z</time></trkpt><trkpt lat="42.4091185" lon="14.2350016"><ele>148.0</ele><time>2026-05-01T08:32:30.441Z</time></trkpt><trkpt lat="42.4090556" lon="14.2349426"><ele>148.0</ele><time>2026-05-01T08:32:31.422Z</time></trkpt><trkpt lat="42.4090024" lon="14.2348657"><ele>148.0</ele><time>2026-05-01T08:32:32.418Z</time></trkpt><trkpt lat="42.4089707" lon="14.234743"><ele>148.0</ele><time>2026-05-01T08:32:34.434Z</time></trkpt><trkpt lat="42.408984" lon="14.2346401"><ele>148.0</ele><time>2026-05-01T08:32:36.423Z</time></trkpt><trkpt lat="42.4089383" lon="14.2345513"><ele>148.0</ele><time>2026-05-01T08:32:38.427Z</time></trkpt><trkpt lat="42.4088833" lon="14.234507"><ele>149.6</ele><time>2026-05-01T08:32:39.423Z</time></trkpt><trkpt lat="42.408822" lon="14.2344455"><ele>151.20000000000002</ele><time>2026-05-01T08:32:40.429Z</time></trkpt><trkpt lat="42.4087319" lon="14.2343728"><ele>152.8</ele><time>2026-05-01T08:32:41.418Z</time></trkpt><trkpt lat="42.4086483" lon="14.2342971"><ele>154.4</ele><time>2026-05-01T08:32:42.424Z</time></trkpt><trkpt lat="42.4085587" lon="14.2342198"><ele>156.0</ele><time>2026-05-01T08:32:43.421Z</time></trkpt><trkpt lat="42.4084706" lon="14.2341367"><ele>156.0</ele><time>2026-05-01T08:32:44.425Z</time></trkpt><trkpt lat="42.4083906" lon="14.2340479"><ele>156.0</ele><time>2026-05-01T08:32:45.431Z</time></trkpt><trkpt lat="42.4083212" lon="14.2339488"><ele>156.0</ele><time>2026-05-01T08:32:46.427Z</time></trkpt><trkpt lat="42.4082672" lon="14.233848"><ele>156.0</ele><time>2026-05-01T08:32:47.436Z</time></trkpt><trkpt lat="42.4082259" lon="14.2337305"><ele>156.0</ele><time>2026-05-01T08:32:48.431Z</time></trkpt><trkpt lat="42.4081868" lon="14.2335905"><ele>154.5</ele><time>2026-05-01T08:32:49.443Z</time></trkpt><trkpt lat="42.4081385" lon="14.2334406"><ele>153.0</ele><time>2026-05-01T08:32:50.435Z</time></trkpt><trkpt lat="42.4080954" lon="14.2332959"><ele>151.5</ele><time>2026-05-01T08:32:51.436Z</time></trkpt><trkpt lat="42.408045" lon="14.2331579"><ele>150.0</ele><time>2026-05-01T08:32:52.438Z</time></trkpt><trkpt lat="42.4079923" lon="14.2330234"><ele>153.25</ele><time>2026-05-01T08:32:53.438Z</time></trkpt><trkpt lat="42.407942" lon="14.2328954"><ele>156.5</ele><time>2026-05-01T08:32:54.432Z</time></trkpt><trkpt lat="42.407876" lon="14.2327748"><ele>159.75</ele><time>2026-05-01T08:32:55.437Z</time></trkpt><trkpt lat="42.4077928" lon="14.2326553"><ele>163.0</ele><time>2026-05-01T08:32:56.44Z</time></trkpt><trkpt lat="42.4077024" lon="14.2325356"><ele>163.0</ele><time>2026-05-01T08:32:57.438Z</time></trkpt><trkpt lat="42.4076093" lon="14.2324011"><ele>163.0</ele><time>2026-05-01T08:32:58.431Z</time></trkpt><trkpt lat="42.4075122" lon="14.2322652"><ele>163.0</ele><time>2026-05-01T08:32:59.436Z</time></trkpt><trkpt lat="42.4074197" lon="14.2321476"><ele>163.0</ele><time>2026-05-01T08:33:00.431Z</time></trkpt><trkpt lat="42.4073194" lon="14.232017"><ele>163.60000000000002</ele><time>2026-05-01T08:33:01.435Z</time></trkpt><trkpt lat="42.4072396" lon="14.2319013"><ele>164.20000000000002</ele><time>2026-05-01T08:33:02.436Z</time></trkpt><trkpt lat="42.4071734" lon="14.2317786"><ele>164.8</ele><time>2026-05-01T08:33:03.426Z</time></trkpt><trkpt lat="42.4071071" lon="14.2316635"><ele>165.4</ele><time>2026-05-01T08:33:04.43Z</time></trkpt><trkpt lat="42.4070807" lon="14.2315713"><ele>166.0</ele><time>2026-05-01T08:33:05.419Z</time></trkpt><trkpt lat="42.4070551" lon="14.2314317"><ele>166.0</ele><time>2026-05-01T08:33:06.437Z</time></trkpt><trkpt lat="42.4070449" lon="14.2313064"><ele>166.0</ele><time>2026-05-01T08:33:07.424Z</time></trkpt><trkpt lat="42.4070186" lon="14.2312006"><ele>166.0</ele><time>2026-05-01T08:33:08.424Z</time></trkpt><trkpt lat="42.4069625" lon="14.231095"><ele>166.0</ele><time>2026-05-01T08:33:09.426Z</time></trkpt><trkpt lat="42.4069037" lon="14.2309952"><ele>166.0</ele><time>2026-05-01T08:33:10.432Z</time></trkpt><trkpt lat="42.4068423" lon="14.2309015"><ele>166.0</ele><time>2026-05-01T08:33:11.435Z</time></trkpt><trkpt lat="42.4067735" lon="14.2308257"><ele>166.0</ele><time>2026-05-01T08:33:12.432Z</time></trkpt><trkpt lat="42.4067068" lon="14.230744"><ele>166.0</ele><time>2026-05-01T08:33:13.432Z</time></trkpt><trkpt lat="42.4066329" lon="14.2306649"><ele>166.0</ele><time>2026-05-01T08:33:14.442Z</time></trkpt><trkpt lat="42.4065563" lon="14.2305862"><ele>166.0</ele><time>2026-05-01T08:33:15.443Z</time></trkpt><trkpt lat="42.4064791" lon="14.2304986"><ele>166.66666666666669</ele><time>2026-05-01T08:33:16.439Z</time></trkpt><trkpt lat="42.4064068" lon="14.2304016"><ele>167.33333333333334</ele><time>2026-05-01T08:33:17.441Z</time></trkpt><trkpt lat="42.4063412" lon="14.2303039"><ele>168.0</ele><time>2026-05-01T08:33:18.439Z</time></trkpt><trkpt lat="42.4062811" lon="14.2302151"><ele>168.66666666666666</ele><time>2026-05-01T08:33:19.432Z</time></trkpt><trkpt lat="42.4062223" lon="14.2301382"><ele>169.33333333333331</ele><time>2026-05-01T08:33:20.438Z</time></trkpt><trkpt lat="42.4061669" lon="14.230066"><ele>170.0</ele><time>2026-05-01T08:33:21.434Z</time></trkpt><trkpt lat="42.4061254" lon="14.229997"><ele>170.0</ele><time>2026-05-01T08:33:22.437Z</time></trkpt><trkpt lat="42.4060797" lon="14.2299277"><ele>170.0</ele><time>2026-05-01T08:33:23.434Z</time></trkpt><trkpt lat="42.4060066" lon="14.2298138"><ele>170.0</ele><time>2026-05-01T08:33:25.439Z</time></trkpt><trkpt lat="42.4059415" lon="14.2297415"><ele>170.0</ele><time>2026-05-01T08:33:27.438Z</time></trkpt><trkpt lat="42.4058585" lon="14.2296899"><ele>170.0</ele><time>2026-05-01T08:33:30.435Z</time></trkpt><trkpt lat="42.4057823" lon="14.2296373"><ele>170.0</ele><time>2026-05-01T08:34:10.439Z</time></trkpt><trkpt lat="42.4057192" lon="14.2295979"><ele>170.5</ele><time>2026-05-01T08:34:14.434Z</time></trkpt><trkpt lat="42.4056519" lon="14.2295665"><ele>171.0</ele><time>2026-05-01T08:34:17.429Z</time></trkpt><trkpt lat="42.4055746" lon="14.2295166"><ele>171.5</ele><time>2026-05-01T08:34:20.427Z</time></trkpt><trkpt lat="42.4054993" lon="14.2294381"><ele>172.0</ele><time>2026-05-01T08:34:22.42Z</time></trkpt><trkpt lat="42.4054468" lon="14.2293816"><ele>172.5</ele><time>2026-05-01T08:34:23.414Z</time></trkpt><trkpt lat="42.4053999" lon="14.229293"><ele>173.0</ele><time>2026-05-01T08:34:24.408Z</time></trkpt><trkpt lat="42.4053583" lon="14.2291774"><ele>173.0</ele><time>2026-05-01T08:34:25.412Z</time></trkpt><trkpt lat="42.4053122" lon="14.2290509"><ele>173.0</ele><time>2026-05-01T08:34:26.411Z</time></trkpt><trkpt lat="42.4052555" lon="14.2289393"><ele>173.0</ele><time>2026-05-01T08:34:27.407Z</time></trkpt><trkpt lat="42.4051937" lon="14.2288326"><ele>173.0</ele><time>2026-05-01T08:34:28.4Z</time></trkpt><trkpt lat="42.4051179" lon="14.2287134"><ele>173.0</ele><time>2026-05-01T08:34:29.408Z</time></trkpt><trkpt lat="42.4050374" lon="14.2286003"><ele>170.8</ele><time>2026-05-01T08:34:30.397Z</time></trkpt><trkpt lat="42.4049636" lon="14.2284978"><ele>168.60000000000002</ele><time>2026-05-01T08:34:31.402Z</time></trkpt><trkpt lat="42.4048991" lon="14.2284116"><ele>166.39999999999998</ele><time>2026-05-01T08:34:32.401Z</time></trkpt><trkpt lat="42.404848" lon="14.2283285"><ele>164.2</ele><time>2026-05-01T08:34:33.404Z</time></trkpt><trkpt lat="42.4047903" lon="14.2282028"><ele>162.0</ele><time>2026-05-01T08:34:35.405Z</time></trkpt><trkpt lat="42.404786" lon="14.2280615"><ele>159.6</ele><time>2026-05-01T08:34:37.415Z</time></trkpt><trkpt lat="42.404776" lon="14.2279743"><ele>157.2</ele><time>2026-05-01T08:34:38.406Z</time></trkpt><trkpt lat="42.4047483" lon="14.227795"><ele>154.8</ele><time>2026-05-01T08:34:40.415Z</time></trkpt><trkpt lat="42.4047323" lon="14.2276913"><ele>152.4</ele><time>2026-05-01T08:34:41.407Z</time></trkpt><trkpt lat="42.4047117" lon="14.2275757"><ele>150.0</ele><time>2026-05-01T08:34:42.409Z</time></trkpt><trkpt lat="42.4046795" lon="14.227434"><ele>151.4</ele><time>2026-05-01T08:34:43.408Z</time></trkpt><trkpt lat="42.4046354" lon="14.2272889"><ele>152.8</ele><time>2026-05-01T08:34:44.406Z</time></trkpt><trkpt lat="42.4045886" lon="14.2271469"><ele>154.2</ele><time>2026-05-01T08:34:45.404Z</time></trkpt><trkpt lat="42.4045393" lon="14.2270424"><ele>155.6</ele><time>2026-05-01T08:34:46.415Z</time></trkpt><trkpt lat="42.4044898" lon="14.226964"><ele>157.0</ele><time>2026-05-01T08:34:47.409Z</time></trkpt><trkpt lat="42.4044387" lon="14.2268906"><ele>157.0</ele><time>2026-05-01T08:34:48.415Z</time></trkpt><trkpt lat="42.4043827" lon="14.226758"><ele>157.0</ele><time>2026-05-01T08:34:50.42Z</time></trkpt><trkpt lat="42.4043609" lon="14.2266033"><ele>157.0</ele><time>2026-05-01T08:34:52.422Z</time></trkpt><trkpt lat="42.4043283" lon="14.2265057"><ele>157.0</ele><time>2026-05-01T08:34:53.418Z</time></trkpt><trkpt lat="42.4042973" lon="14.2264209"><ele>157.0</ele><time>2026-05-01T08:34:54.423Z</time></trkpt><trkpt lat="42.4042597" lon="14.2263515"><ele>157.0</ele><time>2026-05-01T08:34:55.426Z</time></trkpt><trkpt lat="42.4041965" lon="14.2263036"><ele>155.4</ele><time>2026-05-01T08:34:57.421Z</time></trkpt><trkpt lat="42.4040837" lon="14.2262503"><ele>153.79999999999998</ele><time>2026-05-01T08:34:59.421Z</time></trkpt><trkpt lat="42.4040136" lon="14.2261927"><ele>152.2</ele><time>2026-05-01T08:35:00.421Z</time></trkpt><trkpt lat="42.4039425" lon="14.2260988"><ele>150.6</ele><time>2026-05-01T08:35:01.43Z</time></trkpt><trkpt lat="42.4038745" lon="14.22601"><ele>149.0</ele><time>2026-05-01T08:35:02.431Z</time></trkpt><trkpt lat="42.4037942" lon="14.2259092"><ele>152.66666666666666</ele><time>2026-05-01T08:35:03.424Z</time></trkpt><trkpt lat="42.4037248" lon="14.2258186"><ele>156.33333333333331</ele><time>2026-05-01T08:35:04.422Z</time></trkpt><trkpt lat="42.4036698" lon="14.2257323"><ele>160.0</ele><time>2026-05-01T08:35:05.423Z</time></trkpt><trkpt lat="42.4036309" lon="14.225632"><ele>163.66666666666666</ele><time>2026-05-01T08:35:06.421Z</time></trkpt><trkpt lat="42.4036003" lon="14.2255165"><ele>167.33333333333334</ele><time>2026-05-01T08:35:07.423Z</time></trkpt><trkpt lat="42.4035758" lon="14.225399"><ele>171.0</ele><time>2026-05-01T08:35:08.421Z</time></trkpt><trkpt lat="42.4035611" lon="14.2252942"><ele>171.0</ele><time>2026-05-01T08:35:09.419Z</time></trkpt><trkpt lat="42.4035436" lon="14.2251815"><ele>171.0</ele><time>2026-05-01T08:35:10.422Z</time></trkpt><trkpt lat="42.4035241" lon="14.2250595"><ele>171.0</ele><time>2026-05-01T08:35:11.417Z</time></trkpt><trkpt lat="42.4035153" lon="14.2249371"><ele>171.0</ele><time>2026-05-01T08:35:12.423Z</time></trkpt><trkpt lat="42.4035106" lon="14.2248352"><ele>171.0</ele><time>2026-05-01T08:35:13.42Z</time></trkpt><trkpt lat="42.4035015" lon="14.2247453"><ele>171.0</ele><time>2026-05-01T08:35:14.422Z</time></trkpt><trkpt lat="42.4034716" lon="14.2246515"><ele>169.33333333333334</ele><time>2026-05-01T08:35:15.419Z</time></trkpt><trkpt lat="42.4034288" lon="14.2245702"><ele>167.66666666666666</ele><time>2026-05-01T08:35:16.429Z</time></trkpt><trkpt lat="42.403373" lon="14.224489"><ele>166.0</ele><time>2026-05-01T08:35:17.428Z</time></trkpt><trkpt lat="42.4033265" lon="14.2244139"><ele>164.33333333333331</ele><time>2026-05-01T08:35:18.43Z</time></trkpt><trkpt lat="42.4032887" lon="14.2243282"><ele>162.66666666666666</ele><time>2026-05-01T08:35:19.428Z</time></trkpt><trkpt lat="42.4032615" lon="14.2242416"><ele>161.0</ele><time>2026-05-01T08:35:20.425Z</time></trkpt><trkpt lat="42.4032196" lon="14.2241457"><ele>161.0</ele><time>2026-05-01T08:35:21.433Z</time></trkpt><trkpt lat="42.4031706" lon="14.2240601"><ele>161.0</ele><time>2026-05-01T08:35:22.427Z</time></trkpt><trkpt lat="42.4031249" lon="14.2239861"><ele>161.0</ele><time>2026-05-01T08:35:23.435Z</time></trkpt><trkpt lat="42.4030803" lon="14.223915"><ele>161.0</ele><time>2026-05-01T08:35:24.441Z</time></trkpt><trkpt lat="42.4030223" lon="14.2238549"><ele>161.0</ele><time>2026-05-01T08:35:25.442Z</time></trkpt><trkpt lat="42.4029485" lon="14.2238118"><ele>161.0</ele><time>2026-05-01T08:35:26.435Z</time></trkpt><trkpt lat="42.4028631" lon="14.2237857"><ele>162.20000000000002</ele><time>2026-05-01T08:35:27.438Z</time></trkpt><trkpt lat="42.4027674" lon="14.2237676"><ele>163.4</ele><time>2026-05-01T08:35:28.436Z</time></trkpt><trkpt lat="42.4026843" lon="14.2237362"><ele>164.6</ele><time>2026-05-01T08:35:29.438Z</time></trkpt><trkpt lat="42.4026006" lon="14.2236899"><ele>165.8</ele><time>2026-05-01T08:35:30.431Z</time></trkpt><trkpt lat="42.4025185" lon="14.2236255"><ele>167.0</ele><time>2026-05-01T08:35:31.421Z</time></trkpt><trkpt lat="42.4024354" lon="14.2235595"><ele>167.0</ele><time>2026-05-01T08:35:32.429Z</time></trkpt><trkpt lat="42.4023562" lon="14.223486"><ele>167.0</ele><time>2026-05-01T08:35:33.437Z</time></trkpt><trkpt lat="42.4022788" lon="14.2234314"><ele>167.0</ele><time>2026-05-01T08:35:34.424Z</time></trkpt><trkpt lat="42.4022106" lon="14.2233951"><ele>167.0</ele><time>2026-05-01T08:35:35.426Z</time></trkpt><trkpt lat="42.4020935" lon="14.2233852"><ele>167.0</ele><time>2026-05-01T08:35:37.429Z</time></trkpt><trkpt lat="42.402019" lon="14.2234209"><ele>170.5</ele><time>2026-05-01T08:35:38.43Z</time></trkpt><trkpt lat="42.4019222" lon="14.2234762"><ele>174.0</ele><time>2026-05-01T08:35:39.426Z</time></trkpt><trkpt lat="42.4018107" lon="14.2235443"><ele>177.5</ele><time>2026-05-01T08:35:40.439Z</time></trkpt><trkpt lat="42.4016949" lon="14.2236251"><ele>181.0</ele><time>2026-05-01T08:35:41.438Z</time></trkpt><trkpt lat="42.4015911" lon="14.2236943"><ele>181.0</ele><time>2026-05-01T08:35:42.429Z</time></trkpt><trkpt lat="42.4014946" lon="14.2237497"><ele>181.0</ele><time>2026-05-01T08:35:43.434Z</time></trkpt><trkpt lat="42.401403" lon="14.2237956"><ele>181.0</ele><time>2026-05-01T08:35:44.43Z</time></trkpt><trkpt lat="42.4013227" lon="14.223851"><ele>181.0</ele><time>2026-05-01T08:35:45.44Z</time></trkpt><trkpt lat="42.4012361" lon="14.2239088"><ele>181.0</ele><time>2026-05-01T08:35:46.44Z</time></trkpt><trkpt lat="42.4011466" lon="14.223972"><ele>182.83333333333334</ele><time>2026-05-01T08:35:47.449Z</time></trkpt><trkpt lat="42.4010608" lon="14.2240326"><ele>184.66666666666669</ele><time>2026-05-01T08:35:48.442Z</time></trkpt><trkpt lat="42.400977" lon="14.2241028"><ele>186.5</ele><time>2026-05-01T08:35:49.443Z</time></trkpt><trkpt lat="42.400896" lon="14.2241667"><ele>188.33333333333334</ele><time>2026-05-01T08:35:50.443Z</time></trkpt><trkpt lat="42.4008227" lon="14.2242252"><ele>190.16666666666666</ele><time>2026-05-01T08:35:51.439Z</time></trkpt><trkpt lat="42.4007629" lon="14.2242757"><ele>192.0</ele><time>2026-05-01T08:35:52.434Z</time></trkpt><trkpt lat="42.4007079" lon="14.2243189"><ele>192.0</ele><time>2026-05-01T08:35:53.434Z</time></trkpt><trkpt lat="42.4006241" lon="14.2243997"><ele>192.0</ele><time>2026-05-01T08:35:55.44Z</time></trkpt><trkpt lat="42.4005477" lon="14.2243907"><ele>192.0</ele><time>2026-05-01T08:36:52.438Z</time></trkpt><trkpt lat="42.4005057" lon="14.2243172"><ele>192.0</ele><time>2026-05-01T08:36:53.442Z</time></trkpt><trkpt lat="42.4004541" lon="14.2242013"><ele>192.0</ele><time>2026-05-01T08:36:54.433Z</time></trkpt><trkpt lat="42.4003761" lon="14.2240556"><ele>192.66666666666669</ele><time>2026-05-01T08:36:55.435Z</time></trkpt><trkpt lat="42.4002847" lon="14.223879"><ele>193.33333333333334</ele><time>2026-05-01T08:36:56.433Z</time></trkpt><trkpt lat="42.4001712" lon="14.2236434"><ele>194.0</ele><time>2026-05-01T08:36:57.428Z</time></trkpt><trkpt lat="42.400048" lon="14.2234409"><ele>194.0</ele><time>2026-05-01T08:36:58.43Z</time></trkpt><trkpt lat="42.3998933" lon="14.2232693"><ele>194.0</ele><time>2026-05-01T08:36:59.442Z</time></trkpt><trkpt lat="42.3997496" lon="14.2231405"><ele>194.0</ele><time>2026-05-01T08:37:00.441Z</time></trkpt><trkpt lat="42.399635" lon="14.2229998"><ele>194.0</ele><time>2026-05-01T08:37:01.444Z</time></trkpt><trkpt lat="42.399507" lon="14.2228268"><ele>194.0</ele><time>2026-05-01T08:37:02.44Z</time></trkpt><trkpt lat="42.3993776" lon="14.2226559"><ele>194.0</ele><time>2026-05-01T08:37:03.435Z</time></trkpt><trkpt lat="42.3992329" lon="14.2224797"><ele>194.0</ele><time>2026-05-01T08:37:04.438Z</time></trkpt><trkpt lat="42.3991012" lon="14.2223384"><ele>194.0</ele><time>2026-05-01T08:37:05.43Z</time></trkpt><trkpt lat="42.3989656" lon="14.2222028"><ele>194.0</ele><time>2026-05-01T08:37:06.431Z</time></trkpt><trkpt lat="42.3988553" lon="14.2220731"><ele>194.25</ele><time>2026-05-01T08:37:07.442Z</time></trkpt><trkpt lat="42.3987559" lon="14.2219444"><ele>194.5</ele><time>2026-05-01T08:37:08.44Z</time></trkpt><trkpt lat="42.398671" lon="14.2218136"><ele>194.75</ele><time>2026-05-01T08:37:09.445Z</time></trkpt><trkpt lat="42.3985869" lon="14.2216642"><ele>195.0</ele><time>2026-05-01T08:37:10.436Z</time></trkpt><trkpt lat="42.3985152" lon="14.2215003"><ele>195.66666666666666</ele><time>2026-05-01T08:37:11.434Z</time></trkpt><trkpt lat="42.3984437" lon="14.2213762"><ele>196.33333333333331</ele><time>2026-05-01T08:37:12.429Z</time></trkpt><trkpt lat="42.3983986" lon="14.221267"><ele>197.0</ele><time>2026-05-01T08:37:13.431Z</time></trkpt><trkpt lat="42.3983499" lon="14.2211743"><ele>197.66666666666666</ele><time>2026-05-01T08:37:14.43Z</time></trkpt><trkpt lat="42.3983032" lon="14.2210936"><ele>198.33333333333331</ele><time>2026-05-01T08:37:15.441Z</time></trkpt><trkpt lat="42.3982582" lon="14.221011"><ele>199.0</ele><time>2026-05-01T08:37:16.435Z</time></trkpt><trkpt lat="42.3982196" lon="14.2209299"><ele>199.0</ele><time>2026-05-01T08:37:17.437Z</time></trkpt><trkpt lat="42.3981806" lon="14.220855"><ele>199.0</ele><time>2026-05-01T08:37:18.43Z</time></trkpt><trkpt lat="42.398114" lon="14.2207633"><ele>199.0</ele><time>2026-05-01T08:37:20.432Z</time></trkpt><trkpt lat="42.3980249" lon="14.2207913"><ele>199.0</ele><time>2026-05-01T08:37:22.43Z</time></trkpt><trkpt lat="42.3979363" lon="14.2209138"><ele>199.0</ele><time>2026-05-01T08:37:24.433Z</time></trkpt><trkpt lat="42.3978858" lon="14.221007"><ele>199.0</ele><time>2026-05-01T08:37:25.427Z</time></trkpt><trkpt lat="42.3978154" lon="14.2211028"><ele>199.0</ele><time>2026-05-01T08:37:26.422Z</time></trkpt><trkpt lat="42.3977176" lon="14.2212126"><ele>199.0</ele><time>2026-05-01T08:37:27.428Z</time></trkpt><trkpt lat="42.3976138" lon="14.2213278"><ele>199.0</ele><time>2026-05-01T08:37:28.427Z</time></trkpt><trkpt lat="42.3975028" lon="14.2214451"><ele>198.0</ele><time>2026-05-01T08:37:29.43Z</time></trkpt><trkpt lat="42.3973942" lon="14.2215547"><ele>197.0</ele><time>2026-05-01T08:37:30.43Z</time></trkpt><trkpt lat="42.3972833" lon="14.2216657"><ele>196.0</ele><time>2026-05-01T08:37:31.43Z</time></trkpt><trkpt lat="42.3971855" lon="14.2217505"><ele>195.0</ele><time>2026-05-01T08:37:32.424Z</time></trkpt><trkpt lat="42.3971117" lon="14.2218403"><ele>194.66666666666666</ele><time>2026-05-01T08:37:33.426Z</time></trkpt><trkpt lat="42.3970633" lon="14.2219256"><ele>194.33333333333331</ele><time>2026-05-01T08:37:34.421Z</time></trkpt><trkpt lat="42.397047" lon="14.2220177"><ele>194.0</ele><time>2026-05-01T08:37:35.422Z</time></trkpt><trkpt lat="42.3970649" lon="14.2221174"><ele>193.66666666666666</ele><time>2026-05-01T08:37:36.439Z</time></trkpt><trkpt lat="42.3971013" lon="14.2222292"><ele>193.33333333333331</ele><time>2026-05-01T08:37:37.432Z</time></trkpt><trkpt lat="42.3971594" lon="14.2223648"><ele>193.0</ele><time>2026-05-01T08:37:38.428Z</time></trkpt><trkpt lat="42.3972384" lon="14.2225219"><ele>193.0</ele><time>2026-05-01T08:37:39.432Z</time></trkpt><trkpt lat="42.3973177" lon="14.2226749"><ele>193.0</ele><time>2026-05-01T08:37:40.444Z</time></trkpt><trkpt lat="42.3973962" lon="14.2228178"><ele>193.0</ele><time>2026-05-01T08:37:41.431Z</time></trkpt><trkpt lat="42.3974727" lon="14.222951"><ele>193.0</ele><time>2026-05-01T08:37:42.431Z</time></trkpt><trkpt lat="42.3975446" lon="14.2230774"><ele>192.49999999999997</ele><time>2026-05-01T08:37:43.432Z</time></trkpt><trkpt lat="42.3976054" lon="14.2232071"><ele>192.0</ele><time>2026-05-01T08:37:44.43Z</time></trkpt><trkpt lat="42.3976594" lon="14.223327"><ele>191.5</ele><time>2026-05-01T08:37:45.429Z</time></trkpt><trkpt lat="42.3976991" lon="14.2234292"><ele>191.0</ele><time>2026-05-01T08:37:46.436Z</time></trkpt><trkpt lat="42.3977334" lon="14.2235232"><ele>190.5</ele><time>2026-05-01T08:37:48.432Z</time></trkpt><trkpt lat="42.3977613" lon="14.2235997"><ele>190.0</ele><time>2026-05-01T08:37:51.437Z</time></trkpt><trkpt lat="42.3977924" lon="14.2236819"><ele>190.0</ele><time>2026-05-01T08:37:53.428Z</time></trkpt><trkpt lat="42.3978938" lon="14.2237873"><ele>190.0</ele><time>2026-05-01T08:37:55.43Z</time></trkpt><trkpt lat="42.3979748" lon="14.2238677"><ele>190.0</ele><time>2026-05-01T08:37:56.426Z</time></trkpt><trkpt lat="42.3980603" lon="14.2239602"><ele>190.0</ele><time>2026-05-01T08:37:57.431Z</time></trkpt><trkpt lat="42.3981439" lon="14.2240672"><ele>189.66666666666669</ele><time>2026-05-01T08:37:58.438Z</time></trkpt><trkpt lat="42.3982097" lon="14.2241626"><ele>189.33333333333334</ele><time>2026-05-01T08:37:59.435Z</time></trkpt><trkpt lat="42.3982628" lon="14.2242326"><ele>189.0</ele><time>2026-05-01T08:38:00.434Z</time></trkpt><trkpt lat="42.398335" lon="14.2243339"><ele>188.66666666666666</ele><time>2026-05-01T08:38:02.434Z</time></trkpt><trkpt lat="42.3983865" lon="14.2243956"><ele>188.33333333333331</ele><time>2026-05-01T08:38:05.433Z</time></trkpt><trkpt lat="42.3984233" lon="14.2244705"><ele>188.0</ele><time>2026-05-01T08:38:07.425Z</time></trkpt><trkpt lat="42.3984665" lon="14.224668"><ele>188.0</ele><time>2026-05-01T08:38:09.43Z</time></trkpt><trkpt lat="42.3984773" lon="14.2247854"><ele>188.0</ele><time>2026-05-01T08:38:10.43Z</time></trkpt><trkpt lat="42.3984816" lon="14.2248838"><ele>188.0</ele><time>2026-05-01T08:38:11.422Z</time></trkpt><trkpt lat="42.398493" lon="14.2249918"><ele>188.0</ele><time>2026-05-01T08:38:13.436Z</time></trkpt><trkpt lat="42.3984841" lon="14.2248486"><ele>188.0</ele><time>2026-05-01T08:38:27.441Z</time></trkpt><trkpt lat="42.398471" lon="14.2247294"><ele>188.0</ele><time>2026-05-01T08:38:28.442Z</time></trkpt><trkpt lat="42.3984591" lon="14.2246235"><ele>188.0</ele><time>2026-05-01T08:38:29.438Z</time></trkpt><trkpt lat="42.3984353" lon="14.2244899"><ele>188.0</ele><time>2026-05-01T08:38:31.443Z</time></trkpt><trkpt lat="42.3984048" lon="14.2244085"><ele>188.0</ele><time>2026-05-01T08:38:38.443Z</time></trkpt><trkpt lat="42.3983108" lon="14.2242523"><ele>188.0</ele><time>2026-05-01T08:38:40.424Z</time></trkpt><trkpt lat="42.3982348" lon="14.2241396"><ele>188.0</ele><time>2026-05-01T08:38:41.436Z</time></trkpt><trkpt lat="42.3981497" lon="14.224013"><ele>188.4</ele><time>2026-05-01T08:38:42.44Z</time></trkpt><trkpt lat="42.3980716" lon="14.2238967"><ele>188.8</ele><time>2026-05-01T08:38:43.438Z</time></trkpt><trkpt lat="42.3979914" lon="14.2237962"><ele>189.2</ele><time>2026-05-01T08:38:44.441Z</time></trkpt><trkpt lat="42.397917" lon="14.2236996"><ele>189.6</ele><time>2026-05-01T08:38:45.443Z</time></trkpt><trkpt lat="42.3978514" lon="14.2236089"><ele>190.0</ele><time>2026-05-01T08:38:46.438Z</time></trkpt><trkpt lat="42.3977979" lon="14.2235446"><ele>190.0</ele><time>2026-05-01T08:38:47.434Z</time></trkpt><trkpt lat="42.3977211" lon="14.2235215"><ele>190.0</ele><time>2026-05-01T08:38:49.447Z</time></trkpt><trkpt lat="42.3976668" lon="14.2236254"><ele>190.0</ele><time>2026-05-01T08:38:51.438Z</time></trkpt><trkpt lat="42.3976458" lon="14.223721"><ele>190.0</ele><time>2026-05-01T08:38:52.44Z</time></trkpt><trkpt lat="42.3976261" lon="14.2238376"><ele>190.0</ele><time>2026-05-01T08:38:53.437Z</time></trkpt><trkpt lat="42.3976059" lon="14.2239577"><ele>190.0</ele><time>2026-05-01T08:38:54.43Z</time></trkpt><trkpt lat="42.3975894" lon="14.2240693"><ele>189.0</ele><time>2026-05-01T08:38:55.44Z</time></trkpt><trkpt lat="42.3975708" lon="14.2241747"><ele>188.0</ele><time>2026-05-01T08:38:56.435Z</time></trkpt><trkpt lat="42.3975576" lon="14.2242743"><ele>187.0</ele><time>2026-05-01T08:38:57.433Z</time></trkpt><trkpt lat="42.3975434" lon="14.2243706"><ele>186.0</ele><time>2026-05-01T08:38:58.438Z</time></trkpt><trkpt lat="42.3975268" lon="14.2244664"><ele>185.0</ele><time>2026-05-01T08:38:59.436Z</time></trkpt><trkpt lat="42.3975118" lon="14.2245546"><ele>184.0</ele><time>2026-05-01T08:39:00.437Z</time></trkpt><trkpt lat="42.3975008" lon="14.2246473"><ele>183.0</ele><time>2026-05-01T08:39:01.44Z</time></trkpt><trkpt lat="42.3974876" lon="14.2247448"><ele>181.66666666666666</ele><time>2026-05-01T08:39:02.44Z</time></trkpt><trkpt lat="42.397478" lon="14.2248471"><ele>180.33333333333334</ele><time>2026-05-01T08:39:03.443Z</time></trkpt><trkpt lat="42.3974694" lon="14.2249492"><ele>179.0</ele><time>2026-05-01T08:39:04.438Z</time></trkpt><trkpt lat="42.3974732" lon="14.2250472"><ele>177.66666666666669</ele><time>2026-05-01T08:39:05.439Z</time></trkpt><trkpt lat="42.3974809" lon="14.2251501"><ele>176.33333333333334</ele><time>2026-05-01T08:39:06.435Z</time></trkpt><trkpt lat="42.3974929" lon="14.225254"><ele>175.0</ele><time>2026-05-01T08:39:07.432Z</time></trkpt><trkpt lat="42.3975154" lon="14.2253675"><ele>175.0</ele><time>2026-05-01T08:39:08.434Z</time></trkpt><trkpt lat="42.3975311" lon="14.2254774"><ele>175.0</ele><time>2026-05-01T08:39:09.429Z</time></trkpt><trkpt lat="42.397542" lon="14.2255725"><ele>175.0</ele><time>2026-05-01T08:39:10.437Z</time></trkpt><trkpt lat="42.3975607" lon="14.2257224"><ele>175.0</ele><time>2026-05-01T08:39:12.441Z</time></trkpt><trkpt lat="42.3975661" lon="14.2258453"><ele>175.0</ele><time>2026-05-01T08:39:14.433Z</time></trkpt><trkpt lat="42.397542" lon="14.2259269"><ele>175.0</ele><time>2026-05-01T08:39:16.437Z</time></trkpt><trkpt lat="42.397453" lon="14.2259416"><ele>175.0</ele><time>2026-05-01T08:39:19.435Z</time></trkpt><trkpt lat="42.3974197" lon="14.2258582"><ele>175.0</ele><time>2026-05-01T08:39:21.431Z</time></trkpt><trkpt lat="42.3973798" lon="14.2257492"><ele>175.0</ele><time>2026-05-01T08:39:24.435Z</time></trkpt><trkpt lat="42.3973307" lon="14.2256734"><ele>175.0</ele><time>2026-05-01T08:39:26.436Z</time></trkpt><trkpt lat="42.3972619" lon="14.2256042"><ele>175.0</ele><time>2026-05-01T08:39:28.424Z</time></trkpt><trkpt lat="42.3971991" lon="14.2255067"><ele>175.0</ele><time>2026-05-01T08:39:30.43Z</time></trkpt><trkpt lat="42.3971263" lon="14.2254177"><ele>171.6</ele><time>2026-05-01T08:39:32.423Z</time></trkpt><trkpt lat="42.3970546" lon="14.2253553"><ele>168.2</ele><time>2026-05-01T08:39:34.419Z</time></trkpt><trkpt lat="42.3969817" lon="14.2252969"><ele>164.8</ele><time>2026-05-01T08:39:36.42Z</time></trkpt><trkpt lat="42.3968947" lon="14.2252713"><ele>161.4</ele><time>2026-05-01T08:39:38.423Z</time></trkpt><trkpt lat="42.3967944" lon="14.2252609"><ele>158.0</ele><time>2026-05-01T08:39:40.412Z</time></trkpt><trkpt lat="42.396674" lon="14.2252661"><ele>158.0</ele><time>2026-05-01T08:39:42.417Z</time></trkpt><trkpt lat="42.3965627" lon="14.2252932"><ele>158.0</ele><time>2026-05-01T08:39:44.418Z</time></trkpt><trkpt lat="42.3964616" lon="14.2253131"><ele>158.0</ele><time>2026-05-01T08:39:46.42Z</time></trkpt><trkpt lat="42.3963863" lon="14.2252614"><ele>158.0</ele><time>2026-05-01T08:39:48.422Z</time></trkpt><trkpt lat="42.3962867" lon="14.2252038"><ele>158.0</ele><time>2026-05-01T08:39:50.425Z</time></trkpt><trkpt lat="42.3961792" lon="14.2251533"><ele>153.0</ele><time>2026-05-01T08:39:52.419Z</time></trkpt><trkpt lat="42.3960737" lon="14.2251007"><ele>148.0</ele><time>2026-05-01T08:39:54.427Z</time></trkpt><trkpt lat="42.3959891" lon="14.2250604"><ele>143.0</ele><time>2026-05-01T08:39:56.423Z</time></trkpt><trkpt lat="42.3959046" lon="14.2250215"><ele>138.0</ele><time>2026-05-01T08:39:58.42Z</time></trkpt><trkpt lat="42.3958035" lon="14.2249922"><ele>133.0</ele><time>2026-05-01T08:40:00.42Z</time></trkpt><trkpt lat="42.3956984" lon="14.2249568"><ele>133.0</ele><time>2026-05-01T08:40:02.419Z</time></trkpt><trkpt lat="42.395604" lon="14.2249003"><ele>133.0</ele><time>2026-05-01T08:40:04.418Z</time></trkpt><trkpt lat="42.3954984" lon="14.2248326"><ele>133.0</ele><time>2026-05-01T08:40:06.418Z</time></trkpt><trkpt lat="42.3953943" lon="14.2247629"><ele>133.0</ele><time>2026-05-01T08:40:08.418Z</time></trkpt><trkpt lat="42.3952886" lon="14.2246989"><ele>130.5</ele><time>2026-05-01T08:40:10.422Z</time></trkpt><trkpt lat="42.3951841" lon="14.2246542"><ele>128.0</ele><time>2026-05-01T08:40:12.424Z</time></trkpt><trkpt lat="42.3950648" lon="14.2246389"><ele>125.5</ele><time>2026-05-01T08:40:14.429Z</time></trkpt><trkpt lat="42.3949955" lon="14.2246432"><ele>123.0</ele><time>2026-05-01T08:40:15.432Z</time></trkpt><trkpt lat="42.3949243" lon="14.2246527"><ele>120.50000000000001</ele><time>2026-05-01T08:40:16.423Z</time></trkpt><trkpt lat="42.3948543" lon="14.224652"><ele>118.0</ele><time>2026-05-01T08:40:17.428Z</time></trkpt><trkpt lat="42.3947897" lon="14.2246369"><ele>118.0</ele><time>2026-05-01T08:40:18.423Z</time></trkpt><trkpt lat="42.3946728" lon="14.2245875"><ele>118.00000000000001</ele><time>2026-05-01T08:40:20.431Z</time></trkpt><trkpt lat="42.3945556" lon="14.2245316"><ele>118.00000000000001</ele><time>2026-05-01T08:40:22.429Z</time></trkpt><trkpt lat="42.3944896" lon="14.2244913"><ele>118.0</ele><time>2026-05-01T08:40:23.433Z</time></trkpt><trkpt lat="42.3944287" lon="14.2244306"><ele>118.0</ele><time>2026-05-01T08:40:24.423Z</time></trkpt><trkpt lat="42.3943722" lon="14.2243626"><ele>115.4</ele><time>2026-05-01T08:40:25.429Z</time></trkpt><trkpt lat="42.3942944" lon="14.224256"><ele>112.80000000000001</ele><time>2026-05-01T08:40:27.435Z</time></trkpt><trkpt lat="42.3942586" lon="14.2241605"><ele>110.2</ele><time>2026-05-01T08:40:29.434Z</time></trkpt><trkpt lat="42.3942057" lon="14.22406"><ele>107.6</ele><time>2026-05-01T08:40:31.424Z</time></trkpt><trkpt lat="42.3941645" lon="14.2239932"><ele>105.0</ele><time>2026-05-01T08:40:32.435Z</time></trkpt><trkpt lat="42.3940942" lon="14.2238843"><ele>105.0</ele><time>2026-05-01T08:40:34.423Z</time></trkpt><trkpt lat="42.3940396" lon="14.2238078"><ele>105.0</ele><time>2026-05-01T08:40:36.421Z</time></trkpt><trkpt lat="42.3939607" lon="14.2237948"><ele>105.0</ele><time>2026-05-01T08:40:40.426Z</time></trkpt><trkpt lat="42.3938856" lon="14.2238679"><ele>105.0</ele><time>2026-05-01T08:40:43.424Z</time></trkpt><trkpt lat="42.3937939" lon="14.2238706"><ele>105.0</ele><time>2026-05-01T08:40:45.419Z</time></trkpt><trkpt lat="42.3936806" lon="14.2238765"><ele>104.6</ele><time>2026-05-01T08:40:47.412Z</time></trkpt><trkpt lat="42.3935812" lon="14.2238734"><ele>104.2</ele><time>2026-05-01T08:40:49.42Z</time></trkpt><trkpt lat="42.3935904" lon="14.2239857"><ele>103.80000000000001</ele><time>2026-05-01T08:40:57.435Z</time></trkpt><trkpt lat="42.3936234" lon="14.2240832"><ele>103.4</ele><time>2026-05-01T08:41:00.43Z</time></trkpt><trkpt lat="42.3936881" lon="14.2242399"><ele>103.0</ele><time>2026-05-01T08:41:02.435Z</time></trkpt><trkpt lat="42.3937335" lon="14.2243508"><ele>104.0</ele><time>2026-05-01T08:41:03.433Z</time></trkpt><trkpt lat="42.3937716" lon="14.2244699"><ele>105.0</ele><time>2026-05-01T08:41:04.43Z</time></trkpt><trkpt lat="42.3937948" lon="14.2246089"><ele>106.0</ele><time>2026-05-01T08:41:05.429Z</time></trkpt><trkpt lat="42.3938322" lon="14.2247729"><ele>107.0</ele><time>2026-05-01T08:41:06.438Z</time></trkpt><trkpt lat="42.3938685" lon="14.2249495"><ele>104.5</ele><time>2026-05-01T08:41:07.437Z</time></trkpt><trkpt lat="42.3939139" lon="14.2251349"><ele>102.0</ele><time>2026-05-01T08:41:08.435Z</time></trkpt><trkpt lat="42.3939622" lon="14.2253193"><ele>99.5</ele><time>2026-05-01T08:41:09.438Z</time></trkpt><trkpt lat="42.3939882" lon="14.2255145"><ele>97.0</ele><time>2026-05-01T08:41:10.431Z</time></trkpt><trkpt lat="42.3940419" lon="14.2257241"><ele>96.5</ele><time>2026-05-01T08:41:11.439Z</time></trkpt><trkpt lat="42.3940945" lon="14.2259021"><ele>96.0</ele><time>2026-05-01T08:41:12.435Z</time></trkpt><trkpt lat="42.394138" lon="14.2260598"><ele>95.5</ele><time>2026-05-01T08:41:13.435Z</time></trkpt><trkpt lat="42.394188" lon="14.2262358"><ele>95.0</ele><time>2026-05-01T08:41:14.433Z</time></trkpt><trkpt lat="42.3942393" lon="14.2263771"><ele>95.5</ele><time>2026-05-01T08:41:15.441Z</time></trkpt><trkpt lat="42.3942869" lon="14.2265306"><ele>96.0</ele><time>2026-05-01T08:41:16.44Z</time></trkpt><trkpt lat="42.3943412" lon="14.2266741"><ele>96.5</ele><time>2026-05-01T08:41:17.438Z</time></trkpt><trkpt lat="42.3943919" lon="14.2268157"><ele>97.0</ele><time>2026-05-01T08:41:18.437Z</time></trkpt><trkpt lat="42.3944433" lon="14.2269722"><ele>97.0</ele><time>2026-05-01T08:41:19.443Z</time></trkpt><trkpt lat="42.3945018" lon="14.2271398"><ele>97.0</ele><time>2026-05-01T08:41:20.429Z</time></trkpt><trkpt lat="42.3945507" lon="14.2273089"><ele>97.0</ele><time>2026-05-01T08:41:21.441Z</time></trkpt><trkpt lat="42.3946028" lon="14.2274596"><ele>97.0</ele><time>2026-05-01T08:41:22.434Z</time></trkpt><trkpt lat="42.3946335" lon="14.2276184"><ele>95.75</ele><time>2026-05-01T08:41:23.439Z</time></trkpt><trkpt lat="42.3946964" lon="14.2277795"><ele>94.5</ele><time>2026-05-01T08:41:24.438Z</time></trkpt><trkpt lat="42.394724" lon="14.2279386"><ele>93.25</ele><time>2026-05-01T08:41:25.436Z</time></trkpt><trkpt lat="42.3947629" lon="14.2280932"><ele>92.0</ele><time>2026-05-01T08:41:26.439Z</time></trkpt><trkpt lat="42.394811" lon="14.2282543"><ele>91.5</ele><time>2026-05-01T08:41:27.429Z</time></trkpt><trkpt lat="42.3948616" lon="14.2284077"><ele>91.0</ele><time>2026-05-01T08:41:28.437Z</time></trkpt><trkpt lat="42.3949241" lon="14.228566"><ele>90.5</ele><time>2026-05-01T08:41:29.432Z</time></trkpt><trkpt lat="42.3949998" lon="14.228724"><ele>90.0</ele><time>2026-05-01T08:41:30.434Z</time></trkpt><trkpt lat="42.3950637" lon="14.2288713"><ele>91.0</ele><time>2026-05-01T08:41:31.431Z</time></trkpt><trkpt lat="42.3951215" lon="14.2290115"><ele>92.0</ele><time>2026-05-01T08:41:32.433Z</time></trkpt><trkpt lat="42.3951791" lon="14.2291528"><ele>93.0</ele><time>2026-05-01T08:41:33.428Z</time></trkpt><trkpt lat="42.3952357" lon="14.2293056"><ele>94.0</ele><time>2026-05-01T08:41:34.434Z</time></trkpt><trkpt lat="42.3952899" lon="14.229462"><ele>94.0</ele><time>2026-05-01T08:41:35.433Z</time></trkpt><trkpt lat="42.3953417" lon="14.229613"><ele>94.0</ele><time>2026-05-01T08:41:36.432Z</time></trkpt><trkpt lat="42.3953911" lon="14.2297672"><ele>94.0</ele><time>2026-05-01T08:41:37.441Z</time></trkpt><trkpt lat="42.3954401" lon="14.2299274"><ele>94.0</ele><time>2026-05-01T08:41:38.437Z</time></trkpt><trkpt lat="42.3954912" lon="14.2300806"><ele>91.25</ele><time>2026-05-01T08:41:39.434Z</time></trkpt><trkpt lat="42.3955406" lon="14.2302262"><ele>88.5</ele><time>2026-05-01T08:41:40.439Z</time></trkpt><trkpt lat="42.3955855" lon="14.2303707"><ele>85.75</ele><time>2026-05-01T08:41:41.436Z</time></trkpt><trkpt lat="42.3956342" lon="14.2305134"><ele>83.0</ele><time>2026-05-01T08:41:42.44Z</time></trkpt><trkpt lat="42.3956853" lon="14.2306623"><ele>82.5</ele><time>2026-05-01T08:41:43.436Z</time></trkpt><trkpt lat="42.3957362" lon="14.2308117"><ele>82.0</ele><time>2026-05-01T08:41:44.442Z</time></trkpt><trkpt lat="42.3957886" lon="14.230961"><ele>81.5</ele><time>2026-05-01T08:41:45.44Z</time></trkpt><trkpt lat="42.3958346" lon="14.2311112"><ele>81.0</ele><time>2026-05-01T08:41:46.438Z</time></trkpt><trkpt lat="42.3958729" lon="14.2312558"><ele>81.0</ele><time>2026-05-01T08:41:47.44Z</time></trkpt><trkpt lat="42.3959146" lon="14.2313915"><ele>81.0</ele><time>2026-05-01T08:41:48.434Z</time></trkpt><trkpt lat="42.3959582" lon="14.2315279"><ele>81.0</ele><time>2026-05-01T08:41:49.434Z</time></trkpt><trkpt lat="42.3960075" lon="14.2316704"><ele>81.0</ele><time>2026-05-01T08:41:50.434Z</time></trkpt><trkpt lat="42.3960507" lon="14.2318123"><ele>81.0</ele><time>2026-05-01T08:41:51.43Z</time></trkpt><trkpt lat="42.3960925" lon="14.231957"><ele>81.19999999999999</ele><time>2026-05-01T08:41:52.438Z</time></trkpt><trkpt lat="42.3961329" lon="14.2320988"><ele>81.39999999999999</ele><time>2026-05-01T08:41:53.435Z</time></trkpt><trkpt lat="42.3961661" lon="14.2322222"><ele>81.6</ele><time>2026-05-01T08:41:54.44Z</time></trkpt><trkpt lat="42.3961974" lon="14.2323408"><ele>81.8</ele><time>2026-05-01T08:41:55.439Z</time></trkpt><trkpt lat="42.3962177" lon="14.2324602"><ele>82.0</ele><time>2026-05-01T08:41:56.434Z</time></trkpt><trkpt lat="42.3962314" lon="14.2325972"><ele>82.25</ele><time>2026-05-01T08:41:57.437Z</time></trkpt><trkpt lat="42.3962357" lon="14.2327522"><ele>82.5</ele><time>2026-05-01T08:41:58.438Z</time></trkpt><trkpt lat="42.3962312" lon="14.2329182"><ele>82.75</ele><time>2026-05-01T08:41:59.436Z</time></trkpt><trkpt lat="42.3962119" lon="14.2330959"><ele>83.0</ele><time>2026-05-01T08:42:00.438Z</time></trkpt><trkpt lat="42.3961932" lon="14.2332652"><ele>82.25</ele><time>2026-05-01T08:42:01.435Z</time></trkpt><trkpt lat="42.3961782" lon="14.2334272"><ele>81.5</ele><time>2026-05-01T08:42:02.439Z</time></trkpt><trkpt lat="42.3961734" lon="14.2335863"><ele>80.75</ele><time>2026-05-01T08:42:03.428Z</time></trkpt><trkpt lat="42.3961723" lon="14.2337505"><ele>80.0</ele><time>2026-05-01T08:42:04.431Z</time></trkpt><trkpt lat="42.3961585" lon="14.2339152"><ele>80.0</ele><time>2026-05-01T08:42:05.419Z</time></trkpt><trkpt lat="42.3961482" lon="14.2340785"><ele>80.0</ele><time>2026-05-01T08:42:06.435Z</time></trkpt><trkpt lat="42.3961434" lon="14.2342309"><ele>80.0</ele><time>2026-05-01T08:42:07.426Z</time></trkpt><trkpt lat="42.396137" lon="14.2343655"><ele>80.0</ele><time>2026-05-01T08:42:08.43Z</time></trkpt><trkpt lat="42.3961375" lon="14.234489"><ele>80.0</ele><time>2026-05-01T08:42:09.422Z</time></trkpt><trkpt lat="42.3961424" lon="14.2345973"><ele>80.0</ele><time>2026-05-01T08:42:10.424Z</time></trkpt><trkpt lat="42.396167" lon="14.234696"><ele>80.0</ele><time>2026-05-01T08:42:11.424Z</time></trkpt><trkpt lat="42.3962006" lon="14.2347713"><ele>80.0</ele><time>2026-05-01T08:42:12.425Z</time></trkpt><trkpt lat="42.3962418" lon="14.2348497"><ele>80.0</ele><time>2026-05-01T08:42:14.422Z</time></trkpt><trkpt lat="42.3962968" lon="14.2349492"><ele>80.0</ele><time>2026-05-01T08:44:10.427Z</time></trkpt><trkpt lat="42.3963208" lon="14.2350299"><ele>80.0</ele><time>2026-05-01T08:44:11.411Z</time></trkpt><trkpt lat="42.3963474" lon="14.2351491"><ele>79.0</ele><time>2026-05-01T08:44:12.42Z</time></trkpt><trkpt lat="42.3963693" lon="14.2352941"><ele>78.0</ele><time>2026-05-01T08:44:13.42Z</time></trkpt><trkpt lat="42.3963844" lon="14.2354396"><ele>77.0</ele><time>2026-05-01T08:44:14.421Z</time></trkpt><trkpt lat="42.3963856" lon="14.2355798"><ele>76.0</ele><time>2026-05-01T08:44:15.418Z</time></trkpt><trkpt lat="42.3963715" lon="14.2357323"><ele>75.0</ele><time>2026-05-01T08:44:16.421Z</time></trkpt><trkpt lat="42.3963327" lon="14.2358755"><ele>75.0</ele><time>2026-05-01T08:44:17.421Z</time></trkpt><trkpt lat="42.3962866" lon="14.236035"><ele>75.0</ele><time>2026-05-01T08:44:18.421Z</time></trkpt><trkpt lat="42.3962285" lon="14.2361938"><ele>75.0</ele><time>2026-05-01T08:44:19.423Z</time></trkpt><trkpt lat="42.3961865" lon="14.2363389"><ele>75.0</ele><time>2026-05-01T08:44:20.428Z</time></trkpt><trkpt lat="42.3961507" lon="14.2364788"><ele>74.75</ele><time>2026-05-01T08:44:21.428Z</time></trkpt><trkpt lat="42.3961273" lon="14.2366413"><ele>74.5</ele><time>2026-05-01T08:44:22.419Z</time></trkpt><trkpt lat="42.3961056" lon="14.2368225"><ele>74.25</ele><time>2026-05-01T08:44:23.418Z</time></trkpt><trkpt lat="42.3960868" lon="14.2369926"><ele>74.0</ele><time>2026-05-01T08:44:24.414Z</time></trkpt><trkpt lat="42.3960784" lon="14.2371491"><ele>74.0</ele><time>2026-05-01T08:44:25.415Z</time></trkpt><trkpt lat="42.3960814" lon="14.2372833"><ele>74.0</ele><time>2026-05-01T08:44:26.414Z</time></trkpt><trkpt lat="42.396088" lon="14.2373997"><ele>74.0</ele><time>2026-05-01T08:44:27.424Z</time></trkpt><trkpt lat="42.3961086" lon="14.2375223"><ele>74.0</ele><time>2026-05-01T08:44:28.42Z</time></trkpt><trkpt lat="42.3961566" lon="14.2376526"><ele>74.0</ele><time>2026-05-01T08:44:29.423Z</time></trkpt><trkpt lat="42.3962109" lon="14.2377808"><ele>73.4</ele><time>2026-05-01T08:44:30.429Z</time></trkpt><trkpt lat="42.3962487" lon="14.2379072"><ele>72.80000000000001</ele><time>2026-05-01T08:44:31.43Z</time></trkpt><trkpt lat="42.3962734" lon="14.2380406"><ele>72.19999999999999</ele><time>2026-05-01T08:44:32.431Z</time></trkpt><trkpt lat="42.3962929" lon="14.2381904"><ele>71.6</ele><time>2026-05-01T08:44:33.422Z</time></trkpt><trkpt lat="42.3963232" lon="14.2383359"><ele>71.0</ele><time>2026-05-01T08:44:34.426Z</time></trkpt><trkpt lat="42.3963627" lon="14.2384749"><ele>70.0</ele><time>2026-05-01T08:44:35.413Z</time></trkpt><trkpt lat="42.3963964" lon="14.2386149"><ele>69.0</ele><time>2026-05-01T08:44:36.415Z</time></trkpt><trkpt lat="42.3964223" lon="14.2387343"><ele>68.0</ele><time>2026-05-01T08:44:37.414Z</time></trkpt><trkpt lat="42.3964439" lon="14.2388464"><ele>67.0</ele><time>2026-05-01T08:44:38.42Z</time></trkpt><trkpt lat="42.3964613" lon="14.2389627"><ele>66.0</ele><time>2026-05-01T08:44:39.422Z</time></trkpt><trkpt lat="42.3964672" lon="14.2390995"><ele>65.5</ele><time>2026-05-01T08:44:40.421Z</time></trkpt><trkpt lat="42.3964643" lon="14.2392572"><ele>65.0</ele><time>2026-05-01T08:44:41.416Z</time></trkpt><trkpt lat="42.3964487" lon="14.2394296"><ele>64.5</ele><time>2026-05-01T08:44:42.427Z</time></trkpt><trkpt lat="42.396429" lon="14.2395928"><ele>64.0</ele><time>2026-05-01T08:44:43.428Z</time></trkpt><trkpt lat="42.3964013" lon="14.2397606"><ele>63.5</ele><time>2026-05-01T08:44:44.419Z</time></trkpt><trkpt lat="42.3963737" lon="14.2399335"><ele>63.0</ele><time>2026-05-01T08:44:45.424Z</time></trkpt><trkpt lat="42.396338" lon="14.2400915"><ele>62.5</ele><time>2026-05-01T08:44:46.426Z</time></trkpt><trkpt lat="42.396311" lon="14.240242"><ele>62.0</ele><time>2026-05-01T08:44:47.433Z</time></trkpt><trkpt lat="42.3962865" lon="14.2403949"><ele>61.25</ele><time>2026-05-01T08:44:48.419Z</time></trkpt><trkpt lat="42.3962583" lon="14.2405426"><ele>60.5</ele><time>2026-05-01T08:44:49.424Z</time></trkpt><trkpt lat="42.3962345" lon="14.2406954"><ele>59.75</ele><time>2026-05-01T08:44:50.428Z</time></trkpt><trkpt lat="42.3961977" lon="14.2408506"><ele>59.0</ele><time>2026-05-01T08:44:51.422Z</time></trkpt><trkpt lat="42.396167" lon="14.2410129"><ele>58.25</ele><time>2026-05-01T08:44:52.43Z</time></trkpt><trkpt lat="42.3961231" lon="14.241167"><ele>57.5</ele><time>2026-05-01T08:44:53.424Z</time></trkpt><trkpt lat="42.3960828" lon="14.2413177"><ele>56.75</ele><time>2026-05-01T08:44:54.423Z</time></trkpt><trkpt lat="42.3960407" lon="14.2414656"><ele>56.0</ele><time>2026-05-01T08:44:55.432Z</time></trkpt><trkpt lat="42.3960004" lon="14.2416085"><ele>55.4</ele><time>2026-05-01T08:44:56.424Z</time></trkpt><trkpt lat="42.3959592" lon="14.2417475"><ele>54.8</ele><time>2026-05-01T08:44:57.432Z</time></trkpt><trkpt lat="42.3959138" lon="14.2418781"><ele>54.199999999999996</ele><time>2026-05-01T08:44:58.426Z</time></trkpt><trkpt lat="42.39586" lon="14.242009"><ele>53.599999999999994</ele><time>2026-05-01T08:44:59.425Z</time></trkpt><trkpt lat="42.3957982" lon="14.242136"><ele>53.0</ele><time>2026-05-01T08:45:00.425Z</time></trkpt><trkpt lat="42.3957404" lon="14.242251"><ele>52.2</ele><time>2026-05-01T08:45:01.434Z</time></trkpt><trkpt lat="42.3956805" lon="14.2423477"><ele>51.4</ele><time>2026-05-01T08:45:02.43Z</time></trkpt><trkpt lat="42.3956368" lon="14.2424485"><ele>50.6</ele><time>2026-05-01T08:45:03.421Z</time></trkpt><trkpt lat="42.3956083" lon="14.242554"><ele>49.800000000000004</ele><time>2026-05-01T08:45:04.418Z</time></trkpt><trkpt lat="42.3956024" lon="14.2426877"><ele>49.0</ele><time>2026-05-01T08:45:05.425Z</time></trkpt><trkpt lat="42.39559" lon="14.242848"><ele>49.0</ele><time>2026-05-01T08:45:06.425Z</time></trkpt><trkpt lat="42.3955835" lon="14.2430306"><ele>49.0</ele><time>2026-05-01T08:45:07.413Z</time></trkpt><trkpt lat="42.3955799" lon="14.2432154"><ele>49.0</ele><time>2026-05-01T08:45:08.417Z</time></trkpt><trkpt lat="42.3955792" lon="14.2433939"><ele>49.0</ele><time>2026-05-01T08:45:09.423Z</time></trkpt><trkpt lat="42.3955782" lon="14.2435617"><ele>49.0</ele><time>2026-05-01T08:45:10.431Z</time></trkpt><trkpt lat="42.3955844" lon="14.243731"><ele>49.0</ele><time>2026-05-01T08:45:11.424Z</time></trkpt><trkpt lat="42.3955924" lon="14.2438968"><ele>49.0</ele><time>2026-05-01T08:45:12.431Z</time></trkpt><trkpt lat="42.3955914" lon="14.2440601"><ele>49.0</ele><time>2026-05-01T08:45:13.428Z</time></trkpt><trkpt lat="42.39559" lon="14.244239"><ele>49.0</ele><time>2026-05-01T08:45:14.422Z</time></trkpt><trkpt lat="42.395587" lon="14.2444167"><ele>49.0</ele><time>2026-05-01T08:45:15.424Z</time></trkpt><trkpt lat="42.3955886" lon="14.2445805"><ele>49.0</ele><time>2026-05-01T08:45:16.423Z</time></trkpt><trkpt lat="42.3955846" lon="14.2447354"><ele>49.0</ele><time>2026-05-01T08:45:17.426Z</time></trkpt><trkpt lat="42.3955856" lon="14.2448954"><ele>48.800000000000004</ele><time>2026-05-01T08:45:18.428Z</time></trkpt><trkpt lat="42.3955903" lon="14.2450363"><ele>48.6</ele><time>2026-05-01T08:45:19.419Z</time></trkpt><trkpt lat="42.3955898" lon="14.2451711"><ele>48.4</ele><time>2026-05-01T08:45:20.422Z</time></trkpt><trkpt lat="42.3955889" lon="14.2453137"><ele>48.2</ele><time>2026-05-01T08:45:21.419Z</time></trkpt><trkpt lat="42.3955874" lon="14.2454584"><ele>48.0</ele><time>2026-05-01T08:45:22.417Z</time></trkpt><trkpt lat="42.3955919" lon="14.2456077"><ele>47.833333333333336</ele><time>2026-05-01T08:45:23.414Z</time></trkpt><trkpt lat="42.3955902" lon="14.245749"><ele>47.666666666666664</ele><time>2026-05-01T08:45:24.422Z</time></trkpt><trkpt lat="42.3955814" lon="14.2458722"><ele>47.5</ele><time>2026-05-01T08:45:25.428Z</time></trkpt><trkpt lat="42.3955583" lon="14.2459852"><ele>47.33333333333333</ele><time>2026-05-01T08:45:26.422Z</time></trkpt><trkpt lat="42.3955367" lon="14.2460929"><ele>47.166666666666664</ele><time>2026-05-01T08:45:27.428Z</time></trkpt><trkpt lat="42.3955169" lon="14.2462032"><ele>47.0</ele><time>2026-05-01T08:45:28.427Z</time></trkpt><trkpt lat="42.3954895" lon="14.2463242"><ele>47.0</ele><time>2026-05-01T08:45:29.427Z</time></trkpt><trkpt lat="42.3954461" lon="14.2464383"><ele>47.0</ele><time>2026-05-01T08:45:30.43Z</time></trkpt><trkpt lat="42.3953994" lon="14.2465544"><ele>47.0</ele><time>2026-05-01T08:45:31.432Z</time></trkpt><trkpt lat="42.3953532" lon="14.2466641"><ele>47.0</ele><time>2026-05-01T08:45:32.426Z</time></trkpt><trkpt lat="42.395316" lon="14.2467775"><ele>47.0</ele><time>2026-05-01T08:45:33.427Z</time></trkpt><trkpt lat="42.3952901" lon="14.2468933"><ele>47.0</ele><time>2026-05-01T08:45:34.427Z</time></trkpt><trkpt lat="42.3952691" lon="14.2470014"><ele>47.0</ele><time>2026-05-01T08:45:35.435Z</time></trkpt><trkpt lat="42.3952615" lon="14.2471069"><ele>47.0</ele><time>2026-05-01T08:45:36.438Z</time></trkpt><trkpt lat="42.3952532" lon="14.2472181"><ele>47.0</ele><time>2026-05-01T08:45:37.435Z</time></trkpt><trkpt lat="42.3952421" lon="14.247343"><ele>47.0</ele><time>2026-05-01T08:45:38.429Z</time></trkpt><trkpt lat="42.3952244" lon="14.2474713"><ele>47.0</ele><time>2026-05-01T08:45:39.429Z</time></trkpt><trkpt lat="42.3951999" lon="14.247608"><ele>46.400000000000006</ele><time>2026-05-01T08:45:40.436Z</time></trkpt><trkpt lat="42.3951797" lon="14.2477457"><ele>45.800000000000004</ele><time>2026-05-01T08:45:41.438Z</time></trkpt><trkpt lat="42.3951666" lon="14.2478837"><ele>45.2</ele><time>2026-05-01T08:45:42.438Z</time></trkpt><trkpt lat="42.395167" lon="14.2480233"><ele>44.6</ele><time>2026-05-01T08:45:43.431Z</time></trkpt><trkpt lat="42.3951772" lon="14.2481692"><ele>44.0</ele><time>2026-05-01T08:45:44.437Z</time></trkpt><trkpt lat="42.3951966" lon="14.248318"><ele>43.25</ele><time>2026-05-01T08:45:45.43Z</time></trkpt><trkpt lat="42.3952164" lon="14.2484651"><ele>42.5</ele><time>2026-05-01T08:45:46.43Z</time></trkpt><trkpt lat="42.3952286" lon="14.2486103"><ele>41.75</ele><time>2026-05-01T08:45:47.431Z</time></trkpt><trkpt lat="42.3952145" lon="14.2487589"><ele>41.0</ele><time>2026-05-01T08:45:48.432Z</time></trkpt><trkpt lat="42.3951916" lon="14.2489276"><ele>41.0</ele><time>2026-05-01T08:45:49.437Z</time></trkpt><trkpt lat="42.3951579" lon="14.2491034"><ele>41.0</ele><time>2026-05-01T08:45:50.44Z</time></trkpt><trkpt lat="42.3951261" lon="14.2492701"><ele>41.0</ele><time>2026-05-01T08:45:51.436Z</time></trkpt><trkpt lat="42.395099" lon="14.24942"><ele>41.0</ele><time>2026-05-01T08:45:52.439Z</time></trkpt><trkpt lat="42.3950672" lon="14.2495705"><ele>41.0</ele><time>2026-05-01T08:45:53.437Z</time></trkpt><trkpt lat="42.3950249" lon="14.2497224"><ele>41.0</ele><time>2026-05-01T08:45:54.436Z</time></trkpt><trkpt lat="42.3949704" lon="14.2498732"><ele>41.0</ele><time>2026-05-01T08:45:55.431Z</time></trkpt><trkpt lat="42.3949179" lon="14.2500314"><ele>41.0</ele><time>2026-05-01T08:45:56.437Z</time></trkpt><trkpt lat="42.39487" lon="14.2501806"><ele>40.4</ele><time>2026-05-01T08:45:57.437Z</time></trkpt><trkpt lat="42.3948253" lon="14.2503191"><ele>39.8</ele><time>2026-05-01T08:45:58.434Z</time></trkpt><trkpt lat="42.3947854" lon="14.250453"><ele>39.199999999999996</ele><time>2026-05-01T08:45:59.434Z</time></trkpt><trkpt lat="42.3947408" lon="14.2505836"><ele>38.599999999999994</ele><time>2026-05-01T08:46:00.437Z</time></trkpt><trkpt lat="42.3947012" lon="14.2507009"><ele>38.0</ele><time>2026-05-01T08:46:01.438Z</time></trkpt><trkpt lat="42.3946641" lon="14.2508026"><ele>39.0</ele><time>2026-05-01T08:46:02.438Z</time></trkpt><trkpt lat="42.3946252" lon="14.2508995"><ele>40.0</ele><time>2026-05-01T08:46:03.431Z</time></trkpt><trkpt lat="42.394585" lon="14.2510027"><ele>41.0</ele><time>2026-05-01T08:46:04.441Z</time></trkpt><trkpt lat="42.3945358" lon="14.2511117"><ele>42.0</ele><time>2026-05-01T08:46:05.43Z</time></trkpt><trkpt lat="42.3944899" lon="14.2512282"><ele>43.0</ele><time>2026-05-01T08:46:06.432Z</time></trkpt><trkpt lat="42.3944516" lon="14.2513317"><ele>44.0</ele><time>2026-05-01T08:46:07.438Z</time></trkpt><trkpt lat="42.3944165" lon="14.2514336"><ele>43.166666666666664</ele><time>2026-05-01T08:46:08.44Z</time></trkpt><trkpt lat="42.3943823" lon="14.2515359"><ele>42.33333333333333</ele><time>2026-05-01T08:46:09.433Z</time></trkpt><trkpt lat="42.3943499" lon="14.2516422"><ele>41.5</ele><time>2026-05-01T08:46:10.443Z</time></trkpt><trkpt lat="42.3943222" lon="14.2517528"><ele>40.666666666666664</ele><time>2026-05-01T08:46:11.438Z</time></trkpt><trkpt lat="42.3942897" lon="14.2518583"><ele>39.833333333333336</ele><time>2026-05-01T08:46:12.43Z</time></trkpt><trkpt lat="42.3942592" lon="14.2519535"><ele>39.0</ele><time>2026-05-01T08:46:13.431Z</time></trkpt><trkpt lat="42.3942358" lon="14.2520462"><ele>39.0</ele><time>2026-05-01T08:46:14.432Z</time></trkpt><trkpt lat="42.3942184" lon="14.2521283"><ele>39.0</ele><time>2026-05-01T08:46:15.429Z</time></trkpt><trkpt lat="42.3941919" lon="14.2522348"><ele>39.0</ele><time>2026-05-01T08:46:17.434Z</time></trkpt><trkpt lat="42.3941676" lon="14.2523572"><ele>39.0</ele><time>2026-05-01T08:46:20.432Z</time></trkpt><trkpt lat="42.3941888" lon="14.2525234"><ele>39.0</ele><time>2026-05-01T08:46:22.434Z</time></trkpt><trkpt lat="42.3941945" lon="14.252611"><ele>39.0</ele><time>2026-05-01T08:46:23.44Z</time></trkpt><trkpt lat="42.3941835" lon="14.2527608"><ele>38.4</ele><time>2026-05-01T08:46:25.436Z</time></trkpt><trkpt lat="42.3941061" lon="14.2528054"><ele>37.8</ele><time>2026-05-01T08:46:32.43Z</time></trkpt><trkpt lat="42.3940482" lon="14.2527611"><ele>37.2</ele><time>2026-05-01T08:46:33.438Z</time></trkpt><trkpt lat="42.3939745" lon="14.2526911"><ele>36.6</ele><time>2026-05-01T08:46:34.436Z</time></trkpt><trkpt lat="42.3938819" lon="14.252616"><ele>36.0</ele><time>2026-05-01T08:46:35.44Z</time></trkpt><trkpt lat="42.3937806" lon="14.2525321"><ele>35.5</ele><time>2026-05-01T08:46:36.439Z</time></trkpt><trkpt lat="42.3936741" lon="14.2524392"><ele>35.0</ele><time>2026-05-01T08:46:37.436Z</time></trkpt><trkpt lat="42.3935559" lon="14.252328"><ele>34.5</ele><time>2026-05-01T08:46:38.436Z</time></trkpt><trkpt lat="42.3934317" lon="14.252219"><ele>34.0</ele><time>2026-05-01T08:46:39.442Z</time></trkpt><trkpt lat="42.3932998" lon="14.2521083"><ele>34.66666666666667</ele><time>2026-05-01T08:46:40.439Z</time></trkpt><trkpt lat="42.3931448" lon="14.2519708"><ele>35.333333333333336</ele><time>2026-05-01T08:46:41.438Z</time></trkpt><trkpt lat="42.3930079" lon="14.2518549"><ele>36.0</ele><time>2026-05-01T08:46:42.438Z</time></trkpt><trkpt lat="42.3928859" lon="14.2517451"><ele>36.0</ele><time>2026-05-01T08:46:43.437Z</time></trkpt><trkpt lat="42.3927601" lon="14.2516403"><ele>36.0</ele><time>2026-05-01T08:46:44.436Z</time></trkpt><trkpt lat="42.392628" lon="14.251527"><ele>36.0</ele><time>2026-05-01T08:46:45.439Z</time></trkpt><trkpt lat="42.3925154" lon="14.2514212"><ele>36.0</ele><time>2026-05-01T08:46:46.439Z</time></trkpt><trkpt lat="42.3924057" lon="14.251334"><ele>35.75</ele><time>2026-05-01T08:46:47.438Z</time></trkpt><trkpt lat="42.3922831" lon="14.2512309"><ele>35.5</ele><time>2026-05-01T08:46:48.441Z</time></trkpt><trkpt lat="42.3921792" lon="14.2511327"><ele>35.25</ele><time>2026-05-01T08:46:49.438Z</time></trkpt><trkpt lat="42.3920734" lon="14.2510407"><ele>35.0</ele><time>2026-05-01T08:46:50.44Z</time></trkpt><trkpt lat="42.3919766" lon="14.2509561"><ele>35.0</ele><time>2026-05-01T08:46:51.444Z</time></trkpt><trkpt lat="42.3918649" lon="14.2508743"><ele>35.0</ele><time>2026-05-01T08:46:52.441Z</time></trkpt><trkpt lat="42.3917606" lon="14.2507848"><ele>35.0</ele><time>2026-05-01T08:46:53.442Z</time></trkpt><trkpt lat="42.3916804" lon="14.2507043"><ele>35.0</ele><time>2026-05-01T08:46:54.439Z</time></trkpt><trkpt lat="42.391587" lon="14.250616"><ele>35.4</ele><time>2026-05-01T08:46:55.446Z</time></trkpt><trkpt lat="42.3914877" lon="14.2505399"><ele>35.8</ele><time>2026-05-01T08:46:56.44Z</time></trkpt><trkpt lat="42.3913972" lon="14.2504638"><ele>36.2</ele><time>2026-05-01T08:46:57.442Z</time></trkpt><trkpt lat="42.3913066" lon="14.2503886"><ele>36.6</ele><time>2026-05-01T08:46:58.435Z</time></trkpt><trkpt lat="42.3912179" lon="14.2503134"><ele>37.0</ele><time>2026-05-01T08:46:59.441Z</time></trkpt><trkpt lat="42.3911219" lon="14.2502348"><ele>37.0</ele><time>2026-05-01T08:47:00.432Z</time></trkpt><trkpt lat="42.3910266" lon="14.2501461"><ele>37.0</ele><time>2026-05-01T08:47:01.443Z</time></trkpt><trkpt lat="42.3909359" lon="14.2500569"><ele>37.0</ele><time>2026-05-01T08:47:02.433Z</time></trkpt><trkpt lat="42.3908317" lon="14.2499677"><ele>37.0</ele><time>2026-05-01T08:47:03.441Z</time></trkpt><trkpt lat="42.3907174" lon="14.2498793"><ele>38.0</ele><time>2026-05-01T08:47:04.44Z</time></trkpt><trkpt lat="42.3905908" lon="14.2497879"><ele>39.0</ele><time>2026-05-01T08:47:05.441Z</time></trkpt><trkpt lat="42.3904314" lon="14.2496917"><ele>40.0</ele><time>2026-05-01T08:47:06.439Z</time></trkpt><trkpt lat="42.3902754" lon="14.249589"><ele>40.0</ele><time>2026-05-01T08:47:07.436Z</time></trkpt><trkpt lat="42.3901312" lon="14.2494923"><ele>40.0</ele><time>2026-05-01T08:47:08.435Z</time></trkpt><trkpt lat="42.3899595" lon="14.249386"><ele>40.0</ele><time>2026-05-01T08:47:09.44Z</time></trkpt><trkpt lat="42.3898049" lon="14.2492888"><ele>38.333333333333336</ele><time>2026-05-01T08:47:10.439Z</time></trkpt><trkpt lat="42.3896414" lon="14.2491846"><ele>36.666666666666664</ele><time>2026-05-01T08:47:11.435Z</time></trkpt><trkpt lat="42.3894978" lon="14.2490796"><ele>35.0</ele><time>2026-05-01T08:47:12.426Z</time></trkpt><trkpt lat="42.3893712" lon="14.248995"><ele>36.5</ele><time>2026-05-01T08:47:13.437Z</time></trkpt><trkpt lat="42.3892566" lon="14.2489102"><ele>38.0</ele><time>2026-05-01T08:47:14.432Z</time></trkpt><trkpt lat="42.389133" lon="14.2488234"><ele>39.5</ele><time>2026-05-01T08:47:15.436Z</time></trkpt><trkpt lat="42.3889974" lon="14.2487288"><ele>41.0</ele><time>2026-05-01T08:47:16.432Z</time></trkpt><trkpt lat="42.388886" lon="14.2486492"><ele>40.25</ele><time>2026-05-01T08:47:17.432Z</time></trkpt><trkpt lat="42.3887627" lon="14.2485631"><ele>39.5</ele><time>2026-05-01T08:47:18.439Z</time></trkpt><trkpt lat="42.3886407" lon="14.248459"><ele>38.75</ele><time>2026-05-01T08:47:19.434Z</time></trkpt><trkpt lat="42.3885293" lon="14.2483384"><ele>38.0</ele><time>2026-05-01T08:47:20.438Z</time></trkpt><trkpt lat="42.3884155" lon="14.2482273"><ele>41.33333333333333</ele><time>2026-05-01T08:47:21.438Z</time></trkpt><trkpt lat="42.3883096" lon="14.2480829"><ele>44.666666666666664</ele><time>2026-05-01T08:47:22.44Z</time></trkpt><trkpt lat="42.3882045" lon="14.2479258"><ele>48.0</ele><time>2026-05-01T08:47:23.438Z</time></trkpt><trkpt lat="42.3881058" lon="14.247772"><ele>44.0</ele><time>2026-05-01T08:47:24.435Z</time></trkpt><trkpt lat="42.3879972" lon="14.2476174"><ele>40.0</ele><time>2026-05-01T08:47:25.441Z</time></trkpt><trkpt lat="42.3878859" lon="14.2474592"><ele>36.0</ele><time>2026-05-01T08:47:26.441Z</time></trkpt><trkpt lat="42.3877728" lon="14.2472994"><ele>38.333333333333336</ele><time>2026-05-01T08:47:27.438Z</time></trkpt><trkpt lat="42.3876653" lon="14.2471556"><ele>40.66666666666667</ele><time>2026-05-01T08:47:28.436Z</time></trkpt><trkpt lat="42.3875647" lon="14.2469952"><ele>43.0</ele><time>2026-05-01T08:47:29.44Z</time></trkpt><trkpt lat="42.3874602" lon="14.2468307"><ele>43.0</ele><time>2026-05-01T08:47:30.435Z</time></trkpt><trkpt lat="42.3873506" lon="14.2466575"><ele>43.0</ele><time>2026-05-01T08:47:31.439Z</time></trkpt><trkpt lat="42.3872409" lon="14.2465042"><ele>43.0</ele><time>2026-05-01T08:47:32.435Z</time></trkpt><trkpt lat="42.3871662" lon="14.2463917"><ele>43.0</ele><time>2026-05-01T08:47:33.437Z</time></trkpt><trkpt lat="42.3871042" lon="14.2463158"><ele>42.8</ele><time>2026-05-01T08:47:34.428Z</time></trkpt><trkpt lat="42.3870379" lon="14.2462335"><ele>42.599999999999994</ele><time>2026-05-01T08:47:36.431Z</time></trkpt><trkpt lat="42.3870455" lon="14.246119"><ele>42.400000000000006</ele><time>2026-05-01T08:47:48.431Z</time></trkpt><trkpt lat="42.38702" lon="14.2459793"><ele>42.2</ele><time>2026-05-01T08:47:51.443Z</time></trkpt><trkpt lat="42.3869633" lon="14.2458583"><ele>42.0</ele><time>2026-05-01T08:47:53.434Z</time></trkpt><trkpt lat="42.3869107" lon="14.2457828"><ele>42.0</ele><time>2026-05-01T08:47:55.444Z</time></trkpt><trkpt lat="42.3868658" lon="14.2457119"><ele>42.0</ele><time>2026-05-01T08:47:57.433Z</time></trkpt><trkpt lat="42.3868192" lon="14.24565"><ele>42.0</ele><time>2026-05-01T08:47:59.448Z</time></trkpt><trkpt lat="42.3867673" lon="14.2455748"><ele>42.0</ele><time>2026-05-01T08:48:02.436Z</time></trkpt><trkpt lat="42.3867204" lon="14.2455174"><ele>42.0</ele><time>2026-05-01T08:48:04.429Z</time></trkpt><trkpt lat="42.3866509" lon="14.245397"><ele>42.0</ele><time>2026-05-01T08:48:06.428Z</time></trkpt><trkpt lat="42.3865937" lon="14.2453198"><ele>42.0</ele><time>2026-05-01T08:48:07.423Z</time></trkpt><trkpt lat="42.3865167" lon="14.2452275"><ele>42.0</ele><time>2026-05-01T08:48:08.421Z</time></trkpt><trkpt lat="42.3864156" lon="14.2451223"><ele>42.0</ele><time>2026-05-01T08:48:09.428Z</time></trkpt><trkpt lat="42.3863048" lon="14.2450151"><ele>42.0</ele><time>2026-05-01T08:48:10.432Z</time></trkpt><trkpt lat="42.3861918" lon="14.2449093"><ele>42.0</ele><time>2026-05-01T08:48:11.421Z</time></trkpt><trkpt lat="42.3860832" lon="14.2448108"><ele>42.0</ele><time>2026-05-01T08:48:12.423Z</time></trkpt><trkpt lat="42.3859911" lon="14.2447237"><ele>42.0</ele><time>2026-05-01T08:48:13.423Z</time></trkpt><trkpt lat="42.3859028" lon="14.2446468"><ele>42.0</ele><time>2026-05-01T08:48:14.429Z</time></trkpt><trkpt lat="42.3858201" lon="14.2445752"><ele>42.0</ele><time>2026-05-01T08:48:15.431Z</time></trkpt><trkpt lat="42.3857337" lon="14.2445045"><ele>42.25</ele><time>2026-05-01T08:48:16.439Z</time></trkpt><trkpt lat="42.385648" lon="14.2444281"><ele>42.5</ele><time>2026-05-01T08:48:17.432Z</time></trkpt><trkpt lat="42.3855488" lon="14.2443375"><ele>42.75</ele><time>2026-05-01T08:48:18.435Z</time></trkpt><trkpt lat="42.3854386" lon="14.2442414"><ele>43.0</ele><time>2026-05-01T08:48:19.438Z</time></trkpt><trkpt lat="42.3853187" lon="14.2441354"><ele>43.0</ele><time>2026-05-01T08:48:20.434Z</time></trkpt><trkpt lat="42.3852011" lon="14.2440196"><ele>43.0</ele><time>2026-05-01T08:48:21.435Z</time></trkpt><trkpt lat="42.3850787" lon="14.2438847"><ele>43.0</ele><time>2026-05-01T08:48:22.434Z</time></trkpt><trkpt lat="42.3849786" lon="14.2437751"><ele>43.0</ele><time>2026-05-01T08:48:23.434Z</time></trkpt><trkpt lat="42.3849103" lon="14.2436357"><ele>42.599999999999994</ele><time>2026-05-01T08:48:24.427Z</time></trkpt><trkpt lat="42.3848717" lon="14.2435097"><ele>42.199999999999996</ele><time>2026-05-01T08:48:25.429Z</time></trkpt><trkpt lat="42.3847938" lon="14.2434176"><ele>41.8</ele><time>2026-05-01T08:48:26.435Z</time></trkpt><trkpt lat="42.3846914" lon="14.2433422"><ele>41.4</ele><time>2026-05-01T08:48:27.438Z</time></trkpt><trkpt lat="42.3845812" lon="14.2432611"><ele>41.0</ele><time>2026-05-01T08:48:28.434Z</time></trkpt><trkpt lat="42.3844551" lon="14.2432133"><ele>41.0</ele><time>2026-05-01T08:48:29.431Z</time></trkpt><trkpt lat="42.3843208" lon="14.2431548"><ele>41.0</ele><time>2026-05-01T08:48:30.432Z</time></trkpt><trkpt lat="42.3841624" lon="14.2430677"><ele>41.0</ele><time>2026-05-01T08:48:31.444Z</time></trkpt><trkpt lat="42.3840031" lon="14.2429468"><ele>41.666666666666664</ele><time>2026-05-01T08:48:32.432Z</time></trkpt><trkpt lat="42.3838706" lon="14.2428068"><ele>42.333333333333336</ele><time>2026-05-01T08:48:33.44Z</time></trkpt><trkpt lat="42.3837103" lon="14.2426679"><ele>43.0</ele><time>2026-05-01T08:48:34.444Z</time></trkpt><trkpt lat="42.383568" lon="14.2425548"><ele>43.0</ele><time>2026-05-01T08:48:35.444Z</time></trkpt><trkpt lat="42.3834275" lon="14.2424484"><ele>43.0</ele><time>2026-05-01T08:48:36.439Z</time></trkpt><trkpt lat="42.3832826" lon="14.2423053"><ele>43.0</ele><time>2026-05-01T08:48:37.443Z</time></trkpt><trkpt lat="42.3831554" lon="14.2421624"><ele>43.75</ele><time>2026-05-01T08:48:38.442Z</time></trkpt><trkpt lat="42.3830486" lon="14.2420493"><ele>44.5</ele><time>2026-05-01T08:48:39.431Z</time></trkpt><trkpt lat="42.3829516" lon="14.2419682"><ele>45.25</ele><time>2026-05-01T08:48:40.437Z</time></trkpt><trkpt lat="42.382872" lon="14.2418658"><ele>46.0</ele><time>2026-05-01T08:48:41.443Z</time></trkpt><trkpt lat="42.3827924" lon="14.2417781"><ele>46.0</ele><time>2026-05-01T08:48:42.442Z</time></trkpt><trkpt lat="42.3827154" lon="14.2417076"><ele>46.0</ele><time>2026-05-01T08:48:43.441Z</time></trkpt><trkpt lat="42.3826039" lon="14.2416349"><ele>46.0</ele><time>2026-05-01T08:48:44.446Z</time></trkpt><trkpt lat="42.3825043" lon="14.2415321"><ele>46.0</ele><time>2026-05-01T08:48:45.433Z</time></trkpt><trkpt lat="42.3824214" lon="14.2414266"><ele>46.333333333333336</ele><time>2026-05-01T08:48:46.439Z</time></trkpt><trkpt lat="42.3823422" lon="14.2413412"><ele>46.66666666666667</ele><time>2026-05-01T08:48:47.432Z</time></trkpt><trkpt lat="42.3822659" lon="14.2412825"><ele>47.0</ele><time>2026-05-01T08:48:48.441Z</time></trkpt><trkpt lat="42.3821932" lon="14.2412339"><ele>47.333333333333336</ele><time>2026-05-01T08:48:49.436Z</time></trkpt><trkpt lat="42.3821278" lon="14.2411822"><ele>47.666666666666664</ele><time>2026-05-01T08:48:50.441Z</time></trkpt><trkpt lat="42.3820681" lon="14.2411091"><ele>48.0</ele><time>2026-05-01T08:48:51.438Z</time></trkpt><trkpt lat="42.3820034" lon="14.2410257"><ele>48.0</ele><time>2026-05-01T08:48:52.438Z</time></trkpt><trkpt lat="42.3819119" lon="14.2409523"><ele>48.0</ele><time>2026-05-01T08:48:53.441Z</time></trkpt><trkpt lat="42.3818207" lon="14.2408716"><ele>48.0</ele><time>2026-05-01T08:48:54.442Z</time></trkpt><trkpt lat="42.3817372" lon="14.240788"><ele>48.0</ele><time>2026-05-01T08:48:55.438Z</time></trkpt><trkpt lat="42.3816631" lon="14.2407119"><ele>48.0</ele><time>2026-05-01T08:48:56.445Z</time></trkpt><trkpt lat="42.3815957" lon="14.2406477"><ele>48.8</ele><time>2026-05-01T08:48:57.446Z</time></trkpt><trkpt lat="42.3815163" lon="14.2405895"><ele>49.599999999999994</ele><time>2026-05-01T08:48:58.443Z</time></trkpt><trkpt lat="42.3814273" lon="14.2405203"><ele>50.400000000000006</ele><time>2026-05-01T08:48:59.441Z</time></trkpt><trkpt lat="42.3813323" lon="14.2404485"><ele>51.2</ele><time>2026-05-01T08:49:00.448Z</time></trkpt><trkpt lat="42.3812243" lon="14.2403595"><ele>52.0</ele><time>2026-05-01T08:49:01.451Z</time></trkpt><trkpt lat="42.3811176" lon="14.2402577"><ele>52.75</ele><time>2026-05-01T08:49:02.447Z</time></trkpt><trkpt lat="42.3810022" lon="14.2401539"><ele>53.5</ele><time>2026-05-01T08:49:03.438Z</time></trkpt><trkpt lat="42.3808914" lon="14.240054"><ele>54.25</ele><time>2026-05-01T08:49:04.443Z</time></trkpt><trkpt lat="42.3807848" lon="14.2399511"><ele>55.0</ele><time>2026-05-01T08:49:05.436Z</time></trkpt><trkpt lat="42.380685" lon="14.2398576"><ele>55.5</ele><time>2026-05-01T08:49:06.44Z</time></trkpt><trkpt lat="42.3805934" lon="14.2397747"><ele>56.0</ele><time>2026-05-01T08:49:07.44Z</time></trkpt><trkpt lat="42.3805034" lon="14.2396879"><ele>56.5</ele><time>2026-05-01T08:49:08.448Z</time></trkpt><trkpt lat="42.3804197" lon="14.2395834"><ele>57.0</ele><time>2026-05-01T08:49:09.437Z</time></trkpt><trkpt lat="42.3803432" lon="14.2394625"><ele>57.0</ele><time>2026-05-01T08:49:10.446Z</time></trkpt><trkpt lat="42.380264" lon="14.2393492"><ele>57.0</ele><time>2026-05-01T08:49:11.437Z</time></trkpt><trkpt lat="42.3801958" lon="14.239255"><ele>57.0</ele><time>2026-05-01T08:49:12.435Z</time></trkpt><trkpt lat="42.3801371" lon="14.2391812"><ele>57.0</ele><time>2026-05-01T08:49:13.431Z</time></trkpt><trkpt lat="42.3800787" lon="14.2391172"><ele>57.0</ele><time>2026-05-01T08:49:18.431Z</time></trkpt><trkpt lat="42.3800124" lon="14.2390016"><ele>57.0</ele><time>2026-05-01T08:49:21.429Z</time></trkpt><trkpt lat="42.3800042" lon="14.2389139"><ele>57.0</ele><time>2026-05-01T08:49:27.44Z</time></trkpt><trkpt lat="42.3799631" lon="14.2389872"><ele>57.0</ele><time>2026-05-01T08:49:33.439Z</time></trkpt><trkpt lat="42.3799026" lon="14.2391223"><ele>57.0</ele><time>2026-05-01T08:49:35.429Z</time></trkpt><trkpt lat="42.3798564" lon="14.2391956"><ele>57.0</ele><time>2026-05-01T08:49:36.429Z</time></trkpt><trkpt lat="42.3797975" lon="14.2392626"><ele>57.0</ele><time>2026-05-01T08:49:37.435Z</time></trkpt><trkpt lat="42.3797396" lon="14.2393236"><ele>56.42857142857142</ele><time>2026-05-01T08:49:38.431Z</time></trkpt><trkpt lat="42.3796761" lon="14.2393817"><ele>55.85714285714285</ele><time>2026-05-01T08:49:39.437Z</time></trkpt><trkpt lat="42.3796163" lon="14.2394408"><ele>55.285714285714285</ele><time>2026-05-01T08:49:40.436Z</time></trkpt><trkpt lat="42.3795471" lon="14.2394899"><ele>54.71428571428571</ele><time>2026-05-01T08:49:41.437Z</time></trkpt><trkpt lat="42.3794822" lon="14.2395315"><ele>54.14285714285714</ele><time>2026-05-01T08:49:42.439Z</time></trkpt><trkpt lat="42.3794185" lon="14.2395607"><ele>53.57142857142857</ele><time>2026-05-01T08:49:43.444Z</time></trkpt><trkpt lat="42.3793446" lon="14.2395882"><ele>53.0</ele><time>2026-05-01T08:49:44.44Z</time></trkpt><trkpt lat="42.3792665" lon="14.239621"><ele>53.00000000000001</ele><time>2026-05-01T08:49:45.439Z</time></trkpt><trkpt lat="42.3791858" lon="14.2396565"><ele>53.0</ele><time>2026-05-01T08:49:46.439Z</time></trkpt><trkpt lat="42.3791052" lon="14.239691"><ele>53.0</ele><time>2026-05-01T08:49:47.435Z</time></trkpt><trkpt lat="42.3790277" lon="14.2397453"><ele>53.0</ele><time>2026-05-01T08:49:48.445Z</time></trkpt><trkpt lat="42.3789714" lon="14.2398207"><ele>53.00000000000001</ele><time>2026-05-01T08:49:49.44Z</time></trkpt><trkpt lat="42.3789203" lon="14.2399002"><ele>53.0</ele><time>2026-05-01T08:49:50.443Z</time></trkpt><trkpt lat="42.3788635" lon="14.2399686"><ele>51.8</ele><time>2026-05-01T08:49:51.437Z</time></trkpt><trkpt lat="42.378797" lon="14.2400152"><ele>50.599999999999994</ele><time>2026-05-01T08:49:52.435Z</time></trkpt><trkpt lat="42.3787217" lon="14.2400309"><ele>49.400000000000006</ele><time>2026-05-01T08:49:53.447Z</time></trkpt><trkpt lat="42.3786182" lon="14.2400122"><ele>48.2</ele><time>2026-05-01T08:49:54.439Z</time></trkpt><trkpt lat="42.3784976" lon="14.239975"><ele>47.0</ele><time>2026-05-01T08:49:55.439Z</time></trkpt><trkpt lat="42.3783753" lon="14.2399327"><ele>47.0</ele><time>2026-05-01T08:49:56.442Z</time></trkpt><trkpt lat="42.3782785" lon="14.2398882"><ele>47.0</ele><time>2026-05-01T08:49:57.435Z</time></trkpt><trkpt lat="42.3782036" lon="14.2398376"><ele>47.0</ele><time>2026-05-01T08:49:58.439Z</time></trkpt><trkpt lat="42.3781345" lon="14.2397664"><ele>47.0</ele><time>2026-05-01T08:49:59.447Z</time></trkpt><trkpt lat="42.378052" lon="14.2397078"><ele>47.0</ele><time>2026-05-01T08:50:00.445Z</time></trkpt><trkpt lat="42.3779715" lon="14.2396557"><ele>47.0</ele><time>2026-05-01T08:50:01.449Z</time></trkpt><trkpt lat="42.3778827" lon="14.2395992"><ele>47.0</ele><time>2026-05-01T08:50:02.444Z</time></trkpt><trkpt lat="42.377793" lon="14.2395367"><ele>47.0</ele><time>2026-05-01T08:50:03.445Z</time></trkpt><trkpt lat="42.3776931" lon="14.2394734"><ele>47.0</ele><time>2026-05-01T08:50:04.445Z</time></trkpt><trkpt lat="42.3775917" lon="14.2394067"><ele>47.0</ele><time>2026-05-01T08:50:05.445Z</time></trkpt><trkpt lat="42.3774877" lon="14.2393277"><ele>47.0</ele><time>2026-05-01T08:50:06.444Z</time></trkpt><trkpt lat="42.3773747" lon="14.2392269"><ele>47.0</ele><time>2026-05-01T08:50:07.441Z</time></trkpt><trkpt lat="42.377251" lon="14.2391269"><ele>47.0</ele><time>2026-05-01T08:50:08.446Z</time></trkpt><trkpt lat="42.3771098" lon="14.2390117"><ele>47.0</ele><time>2026-05-01T08:50:09.444Z</time></trkpt><trkpt lat="42.376988" lon="14.2389016"><ele>49.33333333333333</ele><time>2026-05-01T08:50:10.445Z</time></trkpt><trkpt lat="42.3768541" lon="14.2387886"><ele>51.666666666666664</ele><time>2026-05-01T08:50:11.443Z</time></trkpt><trkpt lat="42.3767174" lon="14.238678"><ele>54.0</ele><time>2026-05-01T08:50:12.446Z</time></trkpt><trkpt lat="42.3765889" lon="14.2385673"><ele>54.0</ele><time>2026-05-01T08:50:13.444Z</time></trkpt><trkpt lat="42.3764765" lon="14.2384531"><ele>54.0</ele><time>2026-05-01T08:50:14.44Z</time></trkpt><trkpt lat="42.3763747" lon="14.2383597"><ele>54.0</ele><time>2026-05-01T08:50:15.438Z</time></trkpt><trkpt lat="42.3763047" lon="14.2382473"><ele>54.0</ele><time>2026-05-01T08:50:16.439Z</time></trkpt><trkpt lat="42.3762023" lon="14.2381925"><ele>54.5</ele><time>2026-05-01T08:50:17.43Z</time></trkpt><trkpt lat="42.376103" lon="14.2381287"><ele>55.0</ele><time>2026-05-01T08:50:18.435Z</time></trkpt><trkpt lat="42.3759995" lon="14.2380717"><ele>55.5</ele><time>2026-05-01T08:50:19.432Z</time></trkpt><trkpt lat="42.3759053" lon="14.2379843"><ele>56.0</ele><time>2026-05-01T08:50:20.434Z</time></trkpt><trkpt lat="42.3758118" lon="14.2378878"><ele>56.0</ele><time>2026-05-01T08:50:21.437Z</time></trkpt><trkpt lat="42.375709" lon="14.2377911"><ele>55.99999999999999</ele><time>2026-05-01T08:50:22.438Z</time></trkpt><trkpt lat="42.3756142" lon="14.2377098"><ele>55.99999999999999</ele><time>2026-05-01T08:50:23.428Z</time></trkpt><trkpt lat="42.3755303" lon="14.2376366"><ele>56.0</ele><time>2026-05-01T08:50:24.43Z</time></trkpt><trkpt lat="42.3754645" lon="14.2375813"><ele>56.0</ele><time>2026-05-01T08:50:25.435Z</time></trkpt><trkpt lat="42.3754118" lon="14.23753"><ele>56.0</ele><time>2026-05-01T08:50:26.436Z</time></trkpt><trkpt lat="42.3753394" lon="14.237462"><ele>55.99999999999999</ele><time>2026-05-01T08:50:27.439Z</time></trkpt><trkpt lat="42.3752521" lon="14.2373915"><ele>55.99999999999999</ele><time>2026-05-01T08:50:28.432Z</time></trkpt><trkpt lat="42.3751484" lon="14.2373206"><ele>56.0</ele><time>2026-05-01T08:50:29.439Z</time></trkpt><trkpt lat="42.3750309" lon="14.2372426"><ele>56.0</ele><time>2026-05-01T08:50:30.43Z</time></trkpt><trkpt lat="42.3748998" lon="14.2371586"><ele>56.0</ele><time>2026-05-01T08:50:31.442Z</time></trkpt><trkpt lat="42.3747618" lon="14.2370627"><ele>56.0</ele><time>2026-05-01T08:50:32.44Z</time></trkpt><trkpt lat="42.3746372" lon="14.2369583"><ele>56.0</ele><time>2026-05-01T08:50:33.441Z</time></trkpt><trkpt lat="42.3745558" lon="14.2368916"><ele>56.0</ele><time>2026-05-01T08:50:34.441Z</time></trkpt><trkpt lat="42.3744473" lon="14.2368145"><ele>55.5</ele><time>2026-05-01T08:50:35.443Z</time></trkpt><trkpt lat="42.3743397" lon="14.2367404"><ele>55.0</ele><time>2026-05-01T08:50:36.441Z</time></trkpt><trkpt lat="42.3742222" lon="14.236657"><ele>54.5</ele><time>2026-05-01T08:50:37.447Z</time></trkpt><trkpt lat="42.3741016" lon="14.2365883"><ele>54.0</ele><time>2026-05-01T08:50:38.444Z</time></trkpt><trkpt lat="42.373972" lon="14.2364894"><ele>56.66666666666667</ele><time>2026-05-01T08:50:39.443Z</time></trkpt><trkpt lat="42.3738269" lon="14.2363918"><ele>59.333333333333336</ele><time>2026-05-01T08:50:40.442Z</time></trkpt><trkpt lat="42.373713" lon="14.2362905"><ele>62.0</ele><time>2026-05-01T08:50:41.445Z</time></trkpt><trkpt lat="42.3735708" lon="14.2361949"><ele>62.0</ele><time>2026-05-01T08:50:42.44Z</time></trkpt><trkpt lat="42.3734522" lon="14.236111"><ele>62.0</ele><time>2026-05-01T08:50:43.446Z</time></trkpt><trkpt lat="42.3733075" lon="14.2360344"><ele>62.0</ele><time>2026-05-01T08:50:44.445Z</time></trkpt><trkpt lat="42.3731735" lon="14.2359717"><ele>62.0</ele><time>2026-05-01T08:50:45.437Z</time></trkpt><trkpt lat="42.3730593" lon="14.2358772"><ele>61.75</ele><time>2026-05-01T08:50:46.433Z</time></trkpt><trkpt lat="42.3729496" lon="14.2357886"><ele>61.5</ele><time>2026-05-01T08:50:47.439Z</time></trkpt><trkpt lat="42.3728249" lon="14.2357024"><ele>61.25</ele><time>2026-05-01T08:50:48.434Z</time></trkpt><trkpt lat="42.3727109" lon="14.2356408"><ele>61.0</ele><time>2026-05-01T08:50:49.441Z</time></trkpt><trkpt lat="42.3725847" lon="14.2355663"><ele>61.0</ele><time>2026-05-01T08:50:50.439Z</time></trkpt><trkpt lat="42.3724834" lon="14.2354745"><ele>60.99999999999999</ele><time>2026-05-01T08:50:51.43Z</time></trkpt><trkpt lat="42.3724054" lon="14.235384"><ele>60.99999999999999</ele><time>2026-05-01T08:50:52.433Z</time></trkpt><trkpt lat="42.3723387" lon="14.235291"><ele>61.0</ele><time>2026-05-01T08:50:53.436Z</time></trkpt><trkpt lat="42.3722867" lon="14.2351514"><ele>61.0</ele><time>2026-05-01T08:50:54.43Z</time></trkpt><trkpt lat="42.3722737" lon="14.2350542"><ele>61.0</ele><time>2026-05-01T08:50:55.43Z</time></trkpt><trkpt lat="42.3723165" lon="14.2349194"><ele>60.99999999999999</ele><time>2026-05-01T08:50:57.429Z</time></trkpt><trkpt lat="42.3723934" lon="14.2349064"><ele>60.99999999999999</ele><time>2026-05-01T08:50:58.432Z</time></trkpt><trkpt lat="42.372483" lon="14.2349372"><ele>61.0</ele><time>2026-05-01T08:50:59.427Z</time></trkpt><trkpt lat="42.3725623" lon="14.2349533"><ele>61.0</ele><time>2026-05-01T08:51:00.437Z</time></trkpt><trkpt lat="42.3726638" lon="14.2349442"><ele>61.0</ele><time>2026-05-01T08:51:02.431Z</time></trkpt><trkpt lat="42.372599" lon="14.2348132"><ele>60.99999999999999</ele><time>2026-05-01T08:51:05.425Z</time></trkpt><trkpt lat="42.3725158" lon="14.2347593"><ele>60.99999999999999</ele><time>2026-05-01T08:51:06.428Z</time></trkpt><trkpt lat="42.3724087" lon="14.2347363"><ele>61.0</ele><time>2026-05-01T08:51:07.434Z</time></trkpt><trkpt lat="42.3722858" lon="14.2347558"><ele>61.0</ele><time>2026-05-01T08:51:08.428Z</time></trkpt><trkpt lat="42.3721755" lon="14.2347786"><ele>60.166666666666664</ele><time>2026-05-01T08:51:09.436Z</time></trkpt><trkpt lat="42.3720736" lon="14.234795"><ele>59.33333333333333</ele><time>2026-05-01T08:51:10.438Z</time></trkpt><trkpt lat="42.371981" lon="14.2347978"><ele>58.5</ele><time>2026-05-01T08:51:11.44Z</time></trkpt><trkpt lat="42.3719032" lon="14.2348039"><ele>57.66666666666667</ele><time>2026-05-01T08:51:12.439Z</time></trkpt><trkpt lat="42.3718396" lon="14.2348116"><ele>56.833333333333336</ele><time>2026-05-01T08:51:13.434Z</time></trkpt><trkpt lat="42.3717639" lon="14.2348313"><ele>56.0</ele><time>2026-05-01T08:51:15.437Z</time></trkpt><trkpt lat="42.3716921" lon="14.2348065"><ele>56.0</ele><time>2026-05-01T08:51:18.431Z</time></trkpt><trkpt lat="42.3716016" lon="14.2346864"><ele>55.99999999999999</ele><time>2026-05-01T08:51:20.437Z</time></trkpt><trkpt lat="42.3715394" lon="14.2346096"><ele>55.99999999999999</ele><time>2026-05-01T08:51:21.438Z</time></trkpt><trkpt lat="42.3714786" lon="14.2345377"><ele>56.0</ele><time>2026-05-01T08:51:22.432Z</time></trkpt><trkpt lat="42.3714101" lon="14.2344531"><ele>56.0</ele><time>2026-05-01T08:51:23.439Z</time></trkpt><trkpt lat="42.3713277" lon="14.2343567"><ele>54.75</ele><time>2026-05-01T08:51:24.438Z</time></trkpt><trkpt lat="42.3712246" lon="14.2342636"><ele>53.5</ele><time>2026-05-01T08:51:25.44Z</time></trkpt><trkpt lat="42.3711151" lon="14.2341812"><ele>52.25</ele><time>2026-05-01T08:51:26.436Z</time></trkpt><trkpt lat="42.3710026" lon="14.2341198"><ele>51.0</ele><time>2026-05-01T08:51:27.436Z</time></trkpt><trkpt lat="42.3708832" lon="14.2340822"><ele>51.0</ele><time>2026-05-01T08:51:28.436Z</time></trkpt><trkpt lat="42.3707567" lon="14.23407"><ele>51.0</ele><time>2026-05-01T08:51:29.434Z</time></trkpt><trkpt lat="42.3706235" lon="14.2340833"><ele>51.0</ele><time>2026-05-01T08:51:30.436Z</time></trkpt><trkpt lat="42.3704869" lon="14.2341147"><ele>51.0</ele><time>2026-05-01T08:51:31.441Z</time></trkpt><trkpt lat="42.370352" lon="14.2341364"><ele>49.75</ele><time>2026-05-01T08:51:32.436Z</time></trkpt><trkpt lat="42.370218" lon="14.2341623"><ele>48.5</ele><time>2026-05-01T08:51:33.438Z</time></trkpt><trkpt lat="42.3700969" lon="14.2341862"><ele>47.25</ele><time>2026-05-01T08:51:34.443Z</time></trkpt><trkpt lat="42.3699857" lon="14.2342053"><ele>46.0</ele><time>2026-05-01T08:51:35.441Z</time></trkpt><trkpt lat="42.3698837" lon="14.2342199"><ele>46.0</ele><time>2026-05-01T08:51:36.44Z</time></trkpt><trkpt lat="42.3697889" lon="14.234229"><ele>46.0</ele><time>2026-05-01T08:51:37.434Z</time></trkpt><trkpt lat="42.3696991" lon="14.2342327"><ele>46.0</ele><time>2026-05-01T08:51:38.437Z</time></trkpt><trkpt lat="42.3696126" lon="14.2342502"><ele>46.0</ele><time>2026-05-01T08:51:39.431Z</time></trkpt><trkpt lat="42.3695415" lon="14.2342632"><ele>46.0</ele><time>2026-05-01T08:51:40.438Z</time></trkpt><trkpt lat="42.3694225" lon="14.2342881"><ele>46.66666666666667</ele><time>2026-05-01T08:51:42.426Z</time></trkpt><trkpt lat="42.3693458" lon="14.2343087"><ele>47.333333333333336</ele><time>2026-05-01T08:51:43.426Z</time></trkpt><trkpt lat="42.3692656" lon="14.234318"><ele>48.0</ele><time>2026-05-01T08:51:44.418Z</time></trkpt><trkpt lat="42.3691731" lon="14.2343281"><ele>48.66666666666667</ele><time>2026-05-01T08:51:45.424Z</time></trkpt><trkpt lat="42.3690968" lon="14.2343397"><ele>49.333333333333336</ele><time>2026-05-01T08:51:46.423Z</time></trkpt><trkpt lat="42.3690321" lon="14.2343523"><ele>50.0</ele><time>2026-05-01T08:51:47.428Z</time></trkpt><trkpt lat="42.3689823" lon="14.234433"><ele>50.0</ele><time>2026-05-01T08:51:49.431Z</time></trkpt><trkpt lat="42.3690434" lon="14.2345322"><ele>50.0</ele><time>2026-05-01T08:51:51.433Z</time></trkpt><trkpt lat="42.3691088" lon="14.2345765"><ele>50.0</ele><time>2026-05-01T08:51:52.421Z</time></trkpt><trkpt lat="42.3691957" lon="14.2346131"><ele>50.0</ele><time>2026-05-01T08:51:53.421Z</time></trkpt><trkpt lat="42.3692933" lon="14.2346371"><ele>50.0</ele><time>2026-05-01T08:51:54.426Z</time></trkpt><trkpt lat="42.3694105" lon="14.2346612"><ele>50.0</ele><time>2026-05-01T08:51:55.422Z</time></trkpt><trkpt lat="42.3695267" lon="14.2346858"><ele>50.0</ele><time>2026-05-01T08:51:56.435Z</time></trkpt><trkpt lat="42.3696378" lon="14.2347139"><ele>50.0</ele><time>2026-05-01T08:51:57.428Z</time></trkpt><trkpt lat="42.3697511" lon="14.2347329"><ele>50.0</ele><time>2026-05-01T08:51:58.417Z</time></trkpt><trkpt lat="42.3698559" lon="14.2347413"><ele>49.2</ele><time>2026-05-01T08:51:59.416Z</time></trkpt><trkpt lat="42.3699398" lon="14.2347579"><ele>48.4</ele><time>2026-05-01T08:52:00.424Z</time></trkpt><trkpt lat="42.3700223" lon="14.2348642"><ele>47.599999999999994</ele><time>2026-05-01T08:52:02.419Z</time></trkpt><trkpt lat="42.3700267" lon="14.2349712"><ele>46.8</ele><time>2026-05-01T08:52:03.421Z</time></trkpt><trkpt lat="42.3700204" lon="14.2351025"><ele>46.0</ele><time>2026-05-01T08:52:04.425Z</time></trkpt><trkpt lat="42.3700179" lon="14.2352649"><ele>45.199999999999996</ele><time>2026-05-01T08:52:05.423Z</time></trkpt><trkpt lat="42.3700287" lon="14.235417"><ele>44.4</ele><time>2026-05-01T08:52:06.425Z</time></trkpt><trkpt lat="42.3700508" lon="14.2355593"><ele>43.6</ele><time>2026-05-01T08:52:07.428Z</time></trkpt><trkpt lat="42.3700746" lon="14.2356806"><ele>42.8</ele><time>2026-05-01T08:52:08.42Z</time></trkpt><trkpt lat="42.3700886" lon="14.2357881"><ele>42.0</ele><time>2026-05-01T08:52:09.426Z</time></trkpt><trkpt lat="42.3700778" lon="14.2358899"><ele>42.0</ele><time>2026-05-01T08:52:10.422Z</time></trkpt><trkpt lat="42.3700613" lon="14.235987"><ele>42.0</ele><time>2026-05-01T08:52:11.43Z</time></trkpt><trkpt lat="42.3700372" lon="14.2361031"><ele>42.0</ele><time>2026-05-01T08:52:12.42Z</time></trkpt><trkpt lat="42.3700134" lon="14.2362584"><ele>42.0</ele><time>2026-05-01T08:52:13.418Z</time></trkpt><trkpt lat="42.3699705" lon="14.2364299"><ele>42.0</ele><time>2026-05-01T08:52:14.422Z</time></trkpt><trkpt lat="42.3699297" lon="14.2365853"><ele>42.2</ele><time>2026-05-01T08:52:15.424Z</time></trkpt><trkpt lat="42.369907" lon="14.2367361"><ele>42.400000000000006</ele><time>2026-05-01T08:52:16.414Z</time></trkpt><trkpt lat="42.3699069" lon="14.2368749"><ele>42.599999999999994</ele><time>2026-05-01T08:52:17.42Z</time></trkpt><trkpt lat="42.3699247" lon="14.2370118"><ele>42.8</ele><time>2026-05-01T08:52:18.423Z</time></trkpt><trkpt lat="42.3699683" lon="14.2371464"><ele>43.0</ele><time>2026-05-01T08:52:19.423Z</time></trkpt><trkpt lat="42.3700256" lon="14.2372585"><ele>42.75</ele><time>2026-05-01T08:52:20.42Z</time></trkpt><trkpt lat="42.3701089" lon="14.2373562"><ele>42.5</ele><time>2026-05-01T08:52:21.42Z</time></trkpt><trkpt lat="42.3702056" lon="14.2374485"><ele>42.25</ele><time>2026-05-01T08:52:22.427Z</time></trkpt><trkpt lat="42.37033" lon="14.2375481"><ele>42.0</ele><time>2026-05-01T08:52:23.43Z</time></trkpt><trkpt lat="42.3704559" lon="14.2376498"><ele>42.0</ele><time>2026-05-01T08:52:24.436Z</time></trkpt><trkpt lat="42.3705957" lon="14.237737"><ele>42.0</ele><time>2026-05-01T08:52:25.436Z</time></trkpt><trkpt lat="42.3707477" lon="14.2378441"><ele>42.0</ele><time>2026-05-01T08:52:26.446Z</time></trkpt><trkpt lat="42.3708838" lon="14.2379322"><ele>42.0</ele><time>2026-05-01T08:52:27.44Z</time></trkpt><trkpt lat="42.3710051" lon="14.2380342"><ele>42.0</ele><time>2026-05-01T08:52:28.434Z</time></trkpt><trkpt lat="42.3711129" lon="14.2381014"><ele>42.0</ele><time>2026-05-01T08:52:29.434Z</time></trkpt><trkpt lat="42.3712164" lon="14.2381831"><ele>42.0</ele><time>2026-05-01T08:52:30.439Z</time></trkpt><trkpt lat="42.3713121" lon="14.2382735"><ele>42.25</ele><time>2026-05-01T08:52:31.441Z</time></trkpt><trkpt lat="42.371414" lon="14.2383647"><ele>42.5</ele><time>2026-05-01T08:52:32.434Z</time></trkpt><trkpt lat="42.3715188" lon="14.2384528"><ele>42.75</ele><time>2026-05-01T08:52:33.439Z</time></trkpt><trkpt lat="42.3716066" lon="14.2385423"><ele>43.0</ele><time>2026-05-01T08:52:34.431Z</time></trkpt><trkpt lat="42.3717117" lon="14.238655"><ele>43.0</ele><time>2026-05-01T08:52:35.431Z</time></trkpt><trkpt lat="42.3718072" lon="14.2387738"><ele>43.0</ele><time>2026-05-01T08:52:36.43Z</time></trkpt><trkpt lat="42.3718902" lon="14.2389028"><ele>43.0</ele><time>2026-05-01T08:52:37.434Z</time></trkpt><trkpt lat="42.3719717" lon="14.2390365"><ele>43.0</ele><time>2026-05-01T08:52:38.436Z</time></trkpt><trkpt lat="42.3720471" lon="14.2391554"><ele>42.599999999999994</ele><time>2026-05-01T08:52:39.431Z</time></trkpt><trkpt lat="42.3721196" lon="14.2392763"><ele>42.199999999999996</ele><time>2026-05-01T08:52:40.436Z</time></trkpt><trkpt lat="42.3721839" lon="14.2393844"><ele>41.8</ele><time>2026-05-01T08:52:41.435Z</time></trkpt><trkpt lat="42.3722486" lon="14.2394824"><ele>41.4</ele><time>2026-05-01T08:52:42.424Z</time></trkpt><trkpt lat="42.3723178" lon="14.2395696"><ele>41.0</ele><time>2026-05-01T08:52:43.428Z</time></trkpt><trkpt lat="42.3723813" lon="14.2396507"><ele>40.99999999999999</ele><time>2026-05-01T08:52:44.431Z</time></trkpt><trkpt lat="42.3724372" lon="14.2397276"><ele>41.0</ele><time>2026-05-01T08:52:45.436Z</time></trkpt><trkpt lat="42.3724962" lon="14.2397819"><ele>41.0</ele><time>2026-05-01T08:52:46.426Z</time></trkpt><trkpt lat="42.3725528" lon="14.2398362"><ele>41.0</ele><time>2026-05-01T08:52:47.435Z</time></trkpt><trkpt lat="42.3726097" lon="14.2398842"><ele>41.0</ele><time>2026-05-01T08:52:48.431Z</time></trkpt><trkpt lat="42.372664" lon="14.2399336"><ele>40.99999999999999</ele><time>2026-05-01T08:52:49.436Z</time></trkpt><trkpt lat="42.3727327" lon="14.2399854"><ele>41.0</ele><time>2026-05-01T08:52:50.438Z</time></trkpt><trkpt lat="42.3728042" lon="14.2400383"><ele>41.166666666666664</ele><time>2026-05-01T08:52:51.437Z</time></trkpt><trkpt lat="42.3728698" lon="14.2400877"><ele>41.33333333333333</ele><time>2026-05-01T08:52:52.433Z</time></trkpt><trkpt lat="42.3729235" lon="14.2401339"><ele>41.5</ele><time>2026-05-01T08:52:53.432Z</time></trkpt><trkpt lat="42.3729896" lon="14.2401774"><ele>41.666666666666664</ele><time>2026-05-01T08:52:55.437Z</time></trkpt><trkpt lat="42.3730727" lon="14.2402406"><ele>41.833333333333336</ele><time>2026-05-01T08:52:57.432Z</time></trkpt><trkpt lat="42.3731361" lon="14.2402842"><ele>42.0</ele><time>2026-05-01T08:52:58.433Z</time></trkpt><trkpt lat="42.3732127" lon="14.24033"><ele>42.6</ele><time>2026-05-01T08:52:59.43Z</time></trkpt><trkpt lat="42.3733042" lon="14.2403924"><ele>43.2</ele><time>2026-05-01T08:53:00.434Z</time></trkpt><trkpt lat="42.3733988" lon="14.2404627"><ele>43.8</ele><time>2026-05-01T08:53:01.434Z</time></trkpt><trkpt lat="42.3734866" lon="14.2405406"><ele>44.4</ele><time>2026-05-01T08:53:02.428Z</time></trkpt><trkpt lat="42.3735853" lon="14.2406358"><ele>45.0</ele><time>2026-05-01T08:53:03.428Z</time></trkpt><trkpt lat="42.3736853" lon="14.2407513"><ele>45.0</ele><time>2026-05-01T08:53:04.433Z</time></trkpt><trkpt lat="42.3737895" lon="14.2408748"><ele>45.0</ele><time>2026-05-01T08:53:05.435Z</time></trkpt><trkpt lat="42.3738907" lon="14.2409973"><ele>45.0</ele><time>2026-05-01T08:53:06.435Z</time></trkpt><trkpt lat="42.3739818" lon="14.2410971"><ele>45.0</ele><time>2026-05-01T08:53:07.431Z</time></trkpt><trkpt lat="42.3740707" lon="14.2411834"><ele>42.75</ele><time>2026-05-01T08:53:08.437Z</time></trkpt><trkpt lat="42.3741724" lon="14.2412578"><ele>40.5</ele><time>2026-05-01T08:53:09.433Z</time></trkpt><trkpt lat="42.374285" lon="14.2413313"><ele>38.25</ele><time>2026-05-01T08:53:10.435Z</time></trkpt><trkpt lat="42.3743879" lon="14.2413942"><ele>36.0</ele><time>2026-05-01T08:53:11.433Z</time></trkpt><trkpt lat="42.3744815" lon="14.2414608"><ele>35.5</ele><time>2026-05-01T08:53:12.431Z</time></trkpt><trkpt lat="42.3745795" lon="14.2415489"><ele>35.0</ele><time>2026-05-01T08:53:13.427Z</time></trkpt><trkpt lat="42.3746852" lon="14.2416603"><ele>34.5</ele><time>2026-05-01T08:53:14.434Z</time></trkpt><trkpt lat="42.3747847" lon="14.2417832"><ele>34.0</ele><time>2026-05-01T08:53:15.439Z</time></trkpt><trkpt lat="42.3748754" lon="14.2419031"><ele>34.0</ele><time>2026-05-01T08:53:16.44Z</time></trkpt><trkpt lat="42.3749615" lon="14.2420156"><ele>34.0</ele><time>2026-05-01T08:53:17.44Z</time></trkpt><trkpt lat="42.3750454" lon="14.2421286"><ele>34.0</ele><time>2026-05-01T08:53:18.438Z</time></trkpt><trkpt lat="42.3751261" lon="14.2422333"><ele>34.0</ele><time>2026-05-01T08:53:19.434Z</time></trkpt><trkpt lat="42.3751988" lon="14.2423285"><ele>35.0</ele><time>2026-05-01T08:53:20.432Z</time></trkpt><trkpt lat="42.3752496" lon="14.2424057"><ele>36.0</ele><time>2026-05-01T08:53:21.443Z</time></trkpt><trkpt lat="42.3752837" lon="14.2424778"><ele>37.0</ele><time>2026-05-01T08:53:22.432Z</time></trkpt><trkpt lat="42.3753008" lon="14.2426505"><ele>38.0</ele><time>2026-05-01T08:53:24.431Z</time></trkpt><trkpt lat="42.3752842" lon="14.2427684"><ele>39.0</ele><time>2026-05-01T08:53:25.433Z</time></trkpt><trkpt lat="42.3752451" lon="14.2429237"><ele>39.0</ele><time>2026-05-01T08:53:26.421Z</time></trkpt><trkpt lat="42.3751886" lon="14.243092"><ele>39.0</ele><time>2026-05-01T08:53:27.422Z</time></trkpt><trkpt lat="42.3751276" lon="14.243285"><ele>39.0</ele><time>2026-05-01T08:53:28.42Z</time></trkpt><trkpt lat="42.3750191" lon="14.2435458"><ele>41.0</ele><time>2026-05-01T08:53:29.43Z</time></trkpt><trkpt lat="42.3749239" lon="14.2437751"><ele>43.0</ele><time>2026-05-01T08:53:30.424Z</time></trkpt><trkpt lat="42.374858" lon="14.2439728"><ele>45.0</ele><time>2026-05-01T08:53:31.428Z</time></trkpt><trkpt lat="42.3747972" lon="14.2441351"><ele>47.0</ele><time>2026-05-01T08:53:32.425Z</time></trkpt><trkpt lat="42.3747266" lon="14.2443148"><ele>49.0</ele><time>2026-05-01T08:53:33.42Z</time></trkpt><trkpt lat="42.3746634" lon="14.244509"><ele>51.0</ele><time>2026-05-01T08:53:34.416Z</time></trkpt><trkpt lat="42.3746185" lon="14.2447284"><ele>56.33333333333333</ele><time>2026-05-01T08:53:35.422Z</time></trkpt><trkpt lat="42.3745653" lon="14.2449513"><ele>61.666666666666664</ele><time>2026-05-01T08:53:36.425Z</time></trkpt><trkpt lat="42.3745018" lon="14.2451863"><ele>67.0</ele><time>2026-05-01T08:53:37.426Z</time></trkpt><trkpt lat="42.3744478" lon="14.2454129"><ele>69.0</ele><time>2026-05-01T08:53:38.425Z</time></trkpt><trkpt lat="42.3743894" lon="14.2456835"><ele>71.0</ele><time>2026-05-01T08:53:39.423Z</time></trkpt><trkpt lat="42.3743351" lon="14.2459301"><ele>73.0</ele><time>2026-05-01T08:53:40.413Z</time></trkpt><trkpt lat="42.3742625" lon="14.2461256"><ele>73.0</ele><time>2026-05-01T08:53:41.413Z</time></trkpt><trkpt lat="42.3741986" lon="14.2462962"><ele>73.0</ele><time>2026-05-01T08:53:42.417Z</time></trkpt><trkpt lat="42.3741447" lon="14.2464709"><ele>73.0</ele><time>2026-05-01T08:53:43.415Z</time></trkpt><trkpt lat="42.3740425" lon="14.2465999"><ele>73.0</ele><time>2026-05-01T08:53:44.42Z</time></trkpt><trkpt lat="42.3739801" lon="14.2467279"><ele>73.4</ele><time>2026-05-01T08:53:45.417Z</time></trkpt><trkpt lat="42.3739459" lon="14.2468564"><ele>73.8</ele><time>2026-05-01T08:53:46.416Z</time></trkpt><trkpt lat="42.373942" lon="14.246966"><ele>74.2</ele><time>2026-05-01T08:53:47.414Z</time></trkpt><trkpt lat="42.373962" lon="14.2470959"><ele>74.6</ele><time>2026-05-01T08:53:48.42Z</time></trkpt><trkpt lat="42.3739764" lon="14.2472292"><ele>75.0</ele><time>2026-05-01T08:53:49.421Z</time></trkpt><trkpt lat="42.3739668" lon="14.2473804"><ele>76.2</ele><time>2026-05-01T08:53:50.421Z</time></trkpt><trkpt lat="42.3739077" lon="14.2475281"><ele>77.4</ele><time>2026-05-01T08:53:51.427Z</time></trkpt><trkpt lat="42.3738728" lon="14.247685"><ele>78.6</ele><time>2026-05-01T08:53:52.418Z</time></trkpt><trkpt lat="42.3738437" lon="14.2478196"><ele>79.8</ele><time>2026-05-01T08:53:53.417Z</time></trkpt><trkpt lat="42.3738102" lon="14.2479316"><ele>81.0</ele><time>2026-05-01T08:53:54.419Z</time></trkpt><trkpt lat="42.373798" lon="14.2480353"><ele>84.33333333333333</ele><time>2026-05-01T08:53:55.422Z</time></trkpt><trkpt lat="42.3738045" lon="14.2481441"><ele>87.66666666666666</ele><time>2026-05-01T08:53:56.422Z</time></trkpt><trkpt lat="42.3738139" lon="14.2482623"><ele>91.0</ele><time>2026-05-01T08:53:57.425Z</time></trkpt><trkpt lat="42.3738235" lon="14.2483876"><ele>94.33333333333333</ele><time>2026-05-01T08:53:58.423Z</time></trkpt><trkpt lat="42.3738316" lon="14.248506"><ele>97.66666666666666</ele><time>2026-05-01T08:53:59.429Z</time></trkpt><trkpt lat="42.3738345" lon="14.2486065"><ele>101.0</ele><time>2026-05-01T08:54:00.43Z</time></trkpt><trkpt lat="42.3738248" lon="14.2487687"><ele>101.0</ele><time>2026-05-01T08:54:02.426Z</time></trkpt><trkpt lat="42.373818" lon="14.2488537"><ele>101.0</ele><time>2026-05-01T08:54:03.419Z</time></trkpt><trkpt lat="42.3738104" lon="14.2489452"><ele>101.0</ele><time>2026-05-01T08:54:04.428Z</time></trkpt><trkpt lat="42.3737919" lon="14.2490323"><ele>101.0</ele><time>2026-05-01T08:54:05.425Z</time></trkpt><trkpt lat="42.3737655" lon="14.2491138"><ele>101.0</ele><time>2026-05-01T08:54:06.426Z</time></trkpt><trkpt lat="42.3737345" lon="14.2491929"><ele>101.0</ele><time>2026-05-01T08:54:07.418Z</time></trkpt><trkpt lat="42.3737038" lon="14.2492711"><ele>101.0</ele><time>2026-05-01T08:54:08.426Z</time></trkpt><trkpt lat="42.373676" lon="14.2493676"><ele>102.5</ele><time>2026-05-01T08:54:09.425Z</time></trkpt><trkpt lat="42.3736535" lon="14.2494849"><ele>104.0</ele><time>2026-05-01T08:54:10.422Z</time></trkpt><trkpt lat="42.3736296" lon="14.2496292"><ele>105.5</ele><time>2026-05-01T08:54:11.42Z</time></trkpt><trkpt lat="42.3735984" lon="14.2498025"><ele>107.0</ele><time>2026-05-01T08:54:12.428Z</time></trkpt><trkpt lat="42.37356" lon="14.2499784"><ele>107.49999999999999</ele><time>2026-05-01T08:54:13.426Z</time></trkpt><trkpt lat="42.3735179" lon="14.2501267"><ele>108.0</ele><time>2026-05-01T08:54:14.417Z</time></trkpt><trkpt lat="42.373489" lon="14.2502462"><ele>108.5</ele><time>2026-05-01T08:54:15.412Z</time></trkpt><trkpt lat="42.3734872" lon="14.2503408"><ele>109.0</ele><time>2026-05-01T08:54:16.412Z</time></trkpt><trkpt lat="42.3735071" lon="14.2504279"><ele>109.49999999999999</ele><time>2026-05-01T08:54:17.427Z</time></trkpt><trkpt lat="42.3735681" lon="14.2504895"><ele>110.0</ele><time>2026-05-01T08:54:18.414Z</time></trkpt><trkpt lat="42.373652" lon="14.2505391"><ele>110.0</ele><time>2026-05-01T08:54:19.422Z</time></trkpt><trkpt lat="42.3737517" lon="14.2505965"><ele>110.0</ele><time>2026-05-01T08:54:20.424Z</time></trkpt><trkpt lat="42.3738412" lon="14.2506731"><ele>110.0</ele><time>2026-05-01T08:54:21.42Z</time></trkpt><trkpt lat="42.3739203" lon="14.250762"><ele>110.0</ele><time>2026-05-01T08:54:22.423Z</time></trkpt><trkpt lat="42.3739945" lon="14.2508662"><ele>110.0</ele><time>2026-05-01T08:54:23.421Z</time></trkpt><trkpt lat="42.3740561" lon="14.250979"><ele>110.0</ele><time>2026-05-01T08:54:24.422Z</time></trkpt><trkpt lat="42.3740955" lon="14.2510865"><ele>110.0</ele><time>2026-05-01T08:54:25.418Z</time></trkpt><trkpt lat="42.3741155" lon="14.2512123"><ele>110.0</ele><time>2026-05-01T08:54:26.415Z</time></trkpt><trkpt lat="42.3741309" lon="14.2513517"><ele>110.0</ele><time>2026-05-01T08:54:27.42Z</time></trkpt><trkpt lat="42.3741081" lon="14.2515288"><ele>110.0</ele><time>2026-05-01T08:54:28.415Z</time></trkpt><trkpt lat="42.3740669" lon="14.2517146"><ele>112.25</ele><time>2026-05-01T08:54:29.414Z</time></trkpt><trkpt lat="42.3740152" lon="14.2519054"><ele>114.5</ele><time>2026-05-01T08:54:30.415Z</time></trkpt><trkpt lat="42.3739344" lon="14.2520939"><ele>116.75</ele><time>2026-05-01T08:54:31.415Z</time></trkpt><trkpt lat="42.3738785" lon="14.2522336"><ele>119.0</ele><time>2026-05-01T08:54:32.42Z</time></trkpt><trkpt lat="42.3738425" lon="14.2523977"><ele>125.0</ele><time>2026-05-01T08:54:33.415Z</time></trkpt><trkpt lat="42.3738071" lon="14.2525656"><ele>131.0</ele><time>2026-05-01T08:54:34.411Z</time></trkpt><trkpt lat="42.3738135" lon="14.2527117"><ele>137.0</ele><time>2026-05-01T08:54:35.411Z</time></trkpt><trkpt lat="42.3737691" lon="14.2528641"><ele>143.0</ele><time>2026-05-01T08:54:36.41Z</time></trkpt><trkpt lat="42.3737712" lon="14.2530085"><ele>147.5</ele><time>2026-05-01T08:54:37.41Z</time></trkpt><trkpt lat="42.37377" lon="14.2531659"><ele>152.0</ele><time>2026-05-01T08:54:38.415Z</time></trkpt><trkpt lat="42.373776" lon="14.2533357"><ele>156.5</ele><time>2026-05-01T08:54:39.412Z</time></trkpt><trkpt lat="42.3737859" lon="14.2535059"><ele>161.0</ele><time>2026-05-01T08:54:40.412Z</time></trkpt><trkpt lat="42.373804" lon="14.253668"><ele>161.0</ele><time>2026-05-01T08:54:41.415Z</time></trkpt><trkpt lat="42.373829" lon="14.2538288"><ele>161.0</ele><time>2026-05-01T08:54:42.405Z</time></trkpt><trkpt lat="42.3738459" lon="14.2539853"><ele>161.0</ele><time>2026-05-01T08:54:43.411Z</time></trkpt><trkpt lat="42.3738678" lon="14.2541342"><ele>161.0</ele><time>2026-05-01T08:54:44.41Z</time></trkpt><trkpt lat="42.3738962" lon="14.2542489"><ele>161.0</ele><time>2026-05-01T08:54:45.415Z</time></trkpt><trkpt lat="42.3739309" lon="14.2543653"><ele>161.60000000000002</ele><time>2026-05-01T08:54:46.417Z</time></trkpt><trkpt lat="42.3739648" lon="14.2544929"><ele>162.2</ele><time>2026-05-01T08:54:47.416Z</time></trkpt><trkpt lat="42.3740145" lon="14.2546225"><ele>162.8</ele><time>2026-05-01T08:54:48.419Z</time></trkpt><trkpt lat="42.3740718" lon="14.2547522"><ele>163.39999999999998</ele><time>2026-05-01T08:54:49.422Z</time></trkpt><trkpt lat="42.374144" lon="14.2548813"><ele>164.0</ele><time>2026-05-01T08:54:50.421Z</time></trkpt><trkpt lat="42.3742097" lon="14.2550088"><ele>164.0</ele><time>2026-05-01T08:54:51.423Z</time></trkpt><trkpt lat="42.3742703" lon="14.255136"><ele>164.0</ele><time>2026-05-01T08:54:52.422Z</time></trkpt><trkpt lat="42.374322" lon="14.2552683"><ele>164.0</ele><time>2026-05-01T08:54:53.422Z</time></trkpt><trkpt lat="42.3743652" lon="14.2554115"><ele>164.0</ele><time>2026-05-01T08:54:54.415Z</time></trkpt><trkpt lat="42.3743998" lon="14.2555545"><ele>164.0</ele><time>2026-05-01T08:54:55.424Z</time></trkpt><trkpt lat="42.3744282" lon="14.2556946"><ele>164.33333333333331</ele><time>2026-05-01T08:54:56.434Z</time></trkpt><trkpt lat="42.3744519" lon="14.2558208"><ele>164.66666666666666</ele><time>2026-05-01T08:54:57.428Z</time></trkpt><trkpt lat="42.3744472" lon="14.2559388"><ele>165.0</ele><time>2026-05-01T08:54:59.428Z</time></trkpt><trkpt lat="42.3744164" lon="14.2560265"><ele>165.33333333333334</ele><time>2026-05-01T08:55:02.435Z</time></trkpt><trkpt lat="42.3743964" lon="14.2561406"><ele>165.66666666666669</ele><time>2026-05-01T08:55:11.445Z</time></trkpt><trkpt lat="42.3744377" lon="14.2562344"><ele>166.0</ele><time>2026-05-01T08:55:13.439Z</time></trkpt><trkpt lat="42.3745177" lon="14.2562858"><ele>166.0</ele><time>2026-05-01T08:55:14.439Z</time></trkpt><trkpt lat="42.3746068" lon="14.2563493"><ele>166.0</ele><time>2026-05-01T08:55:15.436Z</time></trkpt><trkpt lat="42.3747003" lon="14.2564375"><ele>166.0</ele><time>2026-05-01T08:55:16.437Z</time></trkpt><trkpt lat="42.3748" lon="14.2565289"><ele>166.0</ele><time>2026-05-01T08:55:17.434Z</time></trkpt><trkpt lat="42.3749098" lon="14.256616"><ele>166.5</ele><time>2026-05-01T08:55:18.446Z</time></trkpt><trkpt lat="42.3750142" lon="14.2567123"><ele>167.0</ele><time>2026-05-01T08:55:19.447Z</time></trkpt><trkpt lat="42.3751204" lon="14.2568211"><ele>167.5</ele><time>2026-05-01T08:55:20.446Z</time></trkpt><trkpt lat="42.3752264" lon="14.2569445"><ele>168.0</ele><time>2026-05-01T08:55:21.443Z</time></trkpt><trkpt lat="42.3753329" lon="14.2570827"><ele>168.0</ele><time>2026-05-01T08:55:22.442Z</time></trkpt><trkpt lat="42.3754349" lon="14.2572525"><ele>168.0</ele><time>2026-05-01T08:55:23.44Z</time></trkpt><trkpt lat="42.3755241" lon="14.2574382"><ele>168.0</ele><time>2026-05-01T08:55:24.444Z</time></trkpt><trkpt lat="42.3756162" lon="14.2576117"><ele>168.66666666666666</ele><time>2026-05-01T08:55:25.442Z</time></trkpt><trkpt lat="42.3757303" lon="14.2577768"><ele>169.33333333333331</ele><time>2026-05-01T08:55:26.438Z</time></trkpt><trkpt lat="42.3758323" lon="14.2579583"><ele>170.0</ele><time>2026-05-01T08:55:27.446Z</time></trkpt><trkpt lat="42.3759408" lon="14.2581393"><ele>167.66666666666666</ele><time>2026-05-01T08:55:28.449Z</time></trkpt><trkpt lat="42.3760453" lon="14.2582929"><ele>165.33333333333334</ele><time>2026-05-01T08:55:29.45Z</time></trkpt><trkpt lat="42.3761499" lon="14.2584367"><ele>163.0</ele><time>2026-05-01T08:55:30.447Z</time></trkpt><trkpt lat="42.3762607" lon="14.2586043"><ele>166.66666666666669</ele><time>2026-05-01T08:55:31.447Z</time></trkpt><trkpt lat="42.3763596" lon="14.2587709"><ele>170.33333333333334</ele><time>2026-05-01T08:55:32.451Z</time></trkpt><trkpt lat="42.3764555" lon="14.2589318"><ele>174.0</ele><time>2026-05-01T08:55:33.45Z</time></trkpt><trkpt lat="42.3765532" lon="14.2590997"><ele>174.0</ele><time>2026-05-01T08:55:34.449Z</time></trkpt><trkpt lat="42.3766497" lon="14.2592354"><ele>174.0</ele><time>2026-05-01T08:55:35.438Z</time></trkpt><trkpt lat="42.3767167" lon="14.2593356"><ele>174.0</ele><time>2026-05-01T08:55:36.437Z</time></trkpt><trkpt lat="42.3767642" lon="14.2594237"><ele>174.0</ele><time>2026-05-01T08:55:37.444Z</time></trkpt><trkpt lat="42.3767677" lon="14.2595694"><ele>174.0</ele><time>2026-05-01T08:55:40.437Z</time></trkpt><trkpt lat="42.3767553" lon="14.2596604"><ele>174.0</ele><time>2026-05-01T08:55:41.446Z</time></trkpt><trkpt lat="42.3767626" lon="14.2597672"><ele>174.0</ele><time>2026-05-01T08:55:42.435Z</time></trkpt><trkpt lat="42.3767663" lon="14.2598836"><ele>174.0</ele><time>2026-05-01T08:55:43.444Z</time></trkpt><trkpt lat="42.3767713" lon="14.2600006"><ele>174.0</ele><time>2026-05-01T08:55:44.44Z</time></trkpt><trkpt lat="42.3767771" lon="14.2601154"><ele>174.0</ele><time>2026-05-01T08:55:45.447Z</time></trkpt><trkpt lat="42.3767797" lon="14.2602316"><ele>174.0</ele><time>2026-05-01T08:55:46.445Z</time></trkpt><trkpt lat="42.3767814" lon="14.2603501"><ele>173.0</ele><time>2026-05-01T08:55:47.453Z</time></trkpt><trkpt lat="42.3767816" lon="14.2604768"><ele>172.0</ele><time>2026-05-01T08:55:48.446Z</time></trkpt><trkpt lat="42.3767801" lon="14.2606101"><ele>171.0</ele><time>2026-05-01T08:55:49.452Z</time></trkpt><trkpt lat="42.3767713" lon="14.2607527"><ele>170.0</ele><time>2026-05-01T08:55:50.445Z</time></trkpt><trkpt lat="42.3767574" lon="14.2608952"><ele>169.0</ele><time>2026-05-01T08:55:51.446Z</time></trkpt><trkpt lat="42.376743" lon="14.2610389"><ele>168.0</ele><time>2026-05-01T08:55:52.447Z</time></trkpt><trkpt lat="42.3767272" lon="14.2611728"><ele>167.0</ele><time>2026-05-01T08:55:53.447Z</time></trkpt><trkpt lat="42.3767068" lon="14.2613018"><ele>166.0</ele><time>2026-05-01T08:55:54.442Z</time></trkpt><trkpt lat="42.3766881" lon="14.2614306"><ele>165.0</ele><time>2026-05-01T08:55:55.449Z</time></trkpt><trkpt lat="42.3766718" lon="14.2615597"><ele>164.0</ele><time>2026-05-01T08:55:56.443Z</time></trkpt><trkpt lat="42.3766727" lon="14.2616922"><ele>163.0</ele><time>2026-05-01T08:55:57.452Z</time></trkpt><trkpt lat="42.3766882" lon="14.2618298"><ele>162.0</ele><time>2026-05-01T08:55:58.443Z</time></trkpt><trkpt lat="42.3767103" lon="14.2619762"><ele>161.0</ele><time>2026-05-01T08:55:59.448Z</time></trkpt><trkpt lat="42.3767314" lon="14.2621329"><ele>160.0</ele><time>2026-05-01T08:56:00.436Z</time></trkpt><trkpt lat="42.3767525" lon="14.2622962"><ele>157.5</ele><time>2026-05-01T08:56:01.442Z</time></trkpt><trkpt lat="42.3767659" lon="14.2624624"><ele>155.0</ele><time>2026-05-01T08:56:02.449Z</time></trkpt><trkpt lat="42.3767827" lon="14.2626334"><ele>152.5</ele><time>2026-05-01T08:56:03.439Z</time></trkpt><trkpt lat="42.3768003" lon="14.2628037"><ele>150.0</ele><time>2026-05-01T08:56:04.438Z</time></trkpt><trkpt lat="42.3768302" lon="14.2629713"><ele>146.66666666666666</ele><time>2026-05-01T08:56:05.432Z</time></trkpt><trkpt lat="42.3768798" lon="14.2631403"><ele>143.33333333333331</ele><time>2026-05-01T08:56:06.439Z</time></trkpt><trkpt lat="42.3769508" lon="14.2633151"><ele>140.0</ele><time>2026-05-01T08:56:07.444Z</time></trkpt><trkpt lat="42.3770422" lon="14.263507"><ele>140.0</ele><time>2026-05-01T08:56:08.453Z</time></trkpt><trkpt lat="42.3771078" lon="14.2636911"><ele>140.0</ele><time>2026-05-01T08:56:09.449Z</time></trkpt><trkpt lat="42.3771732" lon="14.2638993"><ele>140.0</ele><time>2026-05-01T08:56:10.456Z</time></trkpt><trkpt lat="42.3772517" lon="14.2641016"><ele>141.0</ele><time>2026-05-01T08:56:11.449Z</time></trkpt><trkpt lat="42.3773204" lon="14.2642853"><ele>142.0</ele><time>2026-05-01T08:56:12.453Z</time></trkpt><trkpt lat="42.3774049" lon="14.2644712"><ele>143.0</ele><time>2026-05-01T08:56:13.455Z</time></trkpt><trkpt lat="42.3774807" lon="14.2646485"><ele>141.0</ele><time>2026-05-01T08:56:14.451Z</time></trkpt><trkpt lat="42.3775489" lon="14.2647892"><ele>139.0</ele><time>2026-05-01T08:56:15.448Z</time></trkpt><trkpt lat="42.377606" lon="14.2649464"><ele>137.0</ele><time>2026-05-01T08:56:16.44Z</time></trkpt><trkpt lat="42.3776261" lon="14.2650774"><ele>135.0</ele><time>2026-05-01T08:56:17.437Z</time></trkpt><trkpt lat="42.377648" lon="14.265238"><ele>135.0</ele><time>2026-05-01T08:56:18.43Z</time></trkpt><trkpt lat="42.3776518" lon="14.265402"><ele>135.0</ele><time>2026-05-01T08:56:19.442Z</time></trkpt><trkpt lat="42.3776409" lon="14.2655522"><ele>135.0</ele><time>2026-05-01T08:56:20.435Z</time></trkpt><trkpt lat="42.3776313" lon="14.2657058"><ele>135.0</ele><time>2026-05-01T08:56:21.447Z</time></trkpt><trkpt lat="42.3776353" lon="14.2658648"><ele>133.5</ele><time>2026-05-01T08:56:22.441Z</time></trkpt><trkpt lat="42.3776436" lon="14.2660308"><ele>132.0</ele><time>2026-05-01T08:56:23.438Z</time></trkpt><trkpt lat="42.3776535" lon="14.2661914"><ele>130.5</ele><time>2026-05-01T08:56:24.439Z</time></trkpt><trkpt lat="42.3776574" lon="14.2663365"><ele>129.0</ele><time>2026-05-01T08:56:25.442Z</time></trkpt><trkpt lat="42.3776543" lon="14.2664752"><ele>127.4</ele><time>2026-05-01T08:56:26.44Z</time></trkpt><trkpt lat="42.3776435" lon="14.2666116"><ele>125.80000000000001</ele><time>2026-05-01T08:56:27.442Z</time></trkpt><trkpt lat="42.3776377" lon="14.2667531"><ele>124.19999999999999</ele><time>2026-05-01T08:56:28.442Z</time></trkpt><trkpt lat="42.3776392" lon="14.2668806"><ele>122.6</ele><time>2026-05-01T08:56:29.448Z</time></trkpt><trkpt lat="42.3776545" lon="14.2669908"><ele>121.0</ele><time>2026-05-01T08:56:30.432Z</time></trkpt><trkpt lat="42.377679" lon="14.2671354"><ele>121.0</ele><time>2026-05-01T08:56:32.441Z</time></trkpt><trkpt lat="42.3776671" lon="14.2672517"><ele>121.0</ele><time>2026-05-01T08:56:35.431Z</time></trkpt><trkpt lat="42.3775841" lon="14.2673015"><ele>121.0</ele><time>2026-05-01T08:56:37.431Z</time></trkpt><trkpt lat="42.3775038" lon="14.267314"><ele>121.0</ele><time>2026-05-01T08:56:38.422Z</time></trkpt><trkpt lat="42.377397" lon="14.2673312"><ele>121.0</ele><time>2026-05-01T08:56:39.421Z</time></trkpt><trkpt lat="42.3772795" lon="14.2673499"><ele>118.8</ele><time>2026-05-01T08:56:40.435Z</time></trkpt><trkpt lat="42.3771706" lon="14.2673661"><ele>116.6</ele><time>2026-05-01T08:56:41.435Z</time></trkpt><trkpt lat="42.3770732" lon="14.2673864"><ele>114.4</ele><time>2026-05-01T08:56:42.44Z</time></trkpt><trkpt lat="42.3769844" lon="14.2673963"><ele>112.2</ele><time>2026-05-01T08:56:43.437Z</time></trkpt><trkpt lat="42.3768966" lon="14.2674008"><ele>110.0</ele><time>2026-05-01T08:56:44.448Z</time></trkpt><trkpt lat="42.3768149" lon="14.2674155"><ele>109.99999999999999</ele><time>2026-05-01T08:56:45.439Z</time></trkpt><trkpt lat="42.3767354" lon="14.2674276"><ele>110.0</ele><time>2026-05-01T08:56:46.441Z</time></trkpt><trkpt lat="42.3766547" lon="14.2674343"><ele>110.0</ele><time>2026-05-01T08:56:47.437Z</time></trkpt><trkpt lat="42.3765806" lon="14.2674405"><ele>110.0</ele><time>2026-05-01T08:56:48.44Z</time></trkpt><trkpt lat="42.3765033" lon="14.2674523"><ele>109.99999999999999</ele><time>2026-05-01T08:56:49.446Z</time></trkpt><trkpt lat="42.3764319" lon="14.2674745"><ele>110.0</ele><time>2026-05-01T08:56:50.442Z</time></trkpt><trkpt lat="42.37638" lon="14.2675252"><ele>114.2</ele><time>2026-05-01T08:56:51.438Z</time></trkpt><trkpt lat="42.3763367" lon="14.2675961"><ele>118.4</ele><time>2026-05-01T08:56:52.431Z</time></trkpt><trkpt lat="42.3762904" lon="14.2676933"><ele>122.6</ele><time>2026-05-01T08:56:53.432Z</time></trkpt><trkpt lat="42.3762469" lon="14.2678138"><ele>126.8</ele><time>2026-05-01T08:56:54.433Z</time></trkpt><trkpt lat="42.376207" lon="14.2679386"><ele>131.0</ele><time>2026-05-01T08:56:55.437Z</time></trkpt><trkpt lat="42.3761753" lon="14.2680644"><ele>130.5</ele><time>2026-05-01T08:56:56.426Z</time></trkpt><trkpt lat="42.3761404" lon="14.2681995"><ele>130.0</ele><time>2026-05-01T08:56:57.426Z</time></trkpt><trkpt lat="42.3761086" lon="14.2683644"><ele>129.5</ele><time>2026-05-01T08:56:58.429Z</time></trkpt><trkpt lat="42.3760694" lon="14.268525"><ele>129.0</ele><time>2026-05-01T08:56:59.427Z</time></trkpt><trkpt lat="42.3760298" lon="14.2686743"><ele>129.0</ele><time>2026-05-01T08:57:00.428Z</time></trkpt><trkpt lat="42.3759965" lon="14.2688067"><ele>129.0</ele><time>2026-05-01T08:57:01.427Z</time></trkpt><trkpt lat="42.3759627" lon="14.2689474"><ele>129.0</ele><time>2026-05-01T08:57:02.422Z</time></trkpt><trkpt lat="42.375923" lon="14.2691055"><ele>129.0</ele><time>2026-05-01T08:57:03.424Z</time></trkpt><trkpt lat="42.375886" lon="14.2692701"><ele>128.4</ele><time>2026-05-01T08:57:04.42Z</time></trkpt><trkpt lat="42.3758589" lon="14.269425"><ele>127.80000000000001</ele><time>2026-05-01T08:57:05.422Z</time></trkpt><trkpt lat="42.3758241" lon="14.2695775"><ele>127.19999999999999</ele><time>2026-05-01T08:57:06.43Z</time></trkpt><trkpt lat="42.3757851" lon="14.2697147"><ele>126.6</ele><time>2026-05-01T08:57:07.421Z</time></trkpt><trkpt lat="42.3757429" lon="14.2698311"><ele>126.0</ele><time>2026-05-01T08:57:08.418Z</time></trkpt><trkpt lat="42.3756941" lon="14.2699349"><ele>125.0</ele><time>2026-05-01T08:57:09.428Z</time></trkpt><trkpt lat="42.375645" lon="14.2700499"><ele>124.0</ele><time>2026-05-01T08:57:10.424Z</time></trkpt><trkpt lat="42.3755992" lon="14.2701686"><ele>123.0</ele><time>2026-05-01T08:57:11.425Z</time></trkpt><trkpt lat="42.3755629" lon="14.270297"><ele>122.0</ele><time>2026-05-01T08:57:12.43Z</time></trkpt><trkpt lat="42.3755218" lon="14.2704259"><ele>121.0</ele><time>2026-05-01T08:57:13.423Z</time></trkpt><trkpt lat="42.3754739" lon="14.2705592"><ele>125.6</ele><time>2026-05-01T08:57:14.424Z</time></trkpt><trkpt lat="42.3754081" lon="14.2706745"><ele>130.2</ele><time>2026-05-01T08:57:15.421Z</time></trkpt><trkpt lat="42.3753289" lon="14.2707883"><ele>134.8</ele><time>2026-05-01T08:57:16.43Z</time></trkpt><trkpt lat="42.3752465" lon="14.2708845"><ele>139.4</ele><time>2026-05-01T08:57:17.422Z</time></trkpt><trkpt lat="42.3751802" lon="14.270955"><ele>144.0</ele><time>2026-05-01T08:57:18.43Z</time></trkpt><trkpt lat="42.375075" lon="14.2709979"><ele>144.0</ele><time>2026-05-01T08:57:20.428Z</time></trkpt><trkpt lat="42.3750006" lon="14.271012"><ele>144.0</ele><time>2026-05-01T08:57:21.429Z</time></trkpt><trkpt lat="42.3749052" lon="14.2710247"><ele>144.0</ele><time>2026-05-01T08:57:22.439Z</time></trkpt><trkpt lat="42.374808" lon="14.2710184"><ele>144.0</ele><time>2026-05-01T08:57:23.425Z</time></trkpt><trkpt lat="42.3747029" lon="14.270993"><ele>144.0</ele><time>2026-05-01T08:57:24.419Z</time></trkpt><trkpt lat="42.3745899" lon="14.2709476"><ele>145.66666666666666</ele><time>2026-05-01T08:57:25.428Z</time></trkpt><trkpt lat="42.3744781" lon="14.2709223"><ele>147.33333333333334</ele><time>2026-05-01T08:57:26.413Z</time></trkpt><trkpt lat="42.3743996" lon="14.2709102"><ele>149.0</ele><time>2026-05-01T08:57:27.43Z</time></trkpt><trkpt lat="42.3743366" lon="14.2709021"><ele>150.66666666666669</ele><time>2026-05-01T08:57:28.423Z</time></trkpt><trkpt lat="42.3742635" lon="14.2709105"><ele>152.33333333333334</ele><time>2026-05-01T08:57:30.426Z</time></trkpt><trkpt lat="42.3741765" lon="14.2709138"><ele>154.0</ele><time>2026-05-01T08:57:34.421Z</time></trkpt><trkpt lat="42.3741062" lon="14.2710225"><ele>154.0</ele><time>2026-05-01T08:57:36.427Z</time></trkpt><trkpt lat="42.3740465" lon="14.271139"><ele>154.0</ele><time>2026-05-01T08:57:38.439Z</time></trkpt><trkpt lat="42.374023" lon="14.271266"><ele>154.0</ele><time>2026-05-01T08:57:40.446Z</time></trkpt><trkpt lat="42.3739899" lon="14.2714185"><ele>154.0</ele><time>2026-05-01T08:57:42.433Z</time></trkpt><trkpt lat="42.3739556" lon="14.271497"><ele>154.0</ele><time>2026-05-01T08:57:43.434Z</time></trkpt><trkpt lat="42.3739059" lon="14.2715637"><ele>151.42857142857142</ele><time>2026-05-01T08:57:44.444Z</time></trkpt><trkpt lat="42.3738496" lon="14.2716199"><ele>148.85714285714286</ele><time>2026-05-01T08:57:45.438Z</time></trkpt><trkpt lat="42.373784" lon="14.2716744"><ele>146.28571428571428</ele><time>2026-05-01T08:57:46.434Z</time></trkpt><trkpt lat="42.3737188" lon="14.2717239"><ele>143.71428571428572</ele><time>2026-05-01T08:57:47.442Z</time></trkpt><trkpt lat="42.3736519" lon="14.2717581"><ele>141.14285714285714</ele><time>2026-05-01T08:57:48.439Z</time></trkpt><trkpt lat="42.3735894" lon="14.2717949"><ele>138.57142857142856</ele><time>2026-05-01T08:57:49.446Z</time></trkpt><trkpt lat="42.3735271" lon="14.2718305"><ele>136.0</ele><time>2026-05-01T08:57:50.442Z</time></trkpt><trkpt lat="42.3734681" lon="14.2718684"><ele>136.0</ele><time>2026-05-01T08:57:51.443Z</time></trkpt><trkpt lat="42.3734066" lon="14.2719054"><ele>136.0</ele><time>2026-05-01T08:57:52.443Z</time></trkpt><trkpt lat="42.3733405" lon="14.2719353"><ele>136.0</ele><time>2026-05-01T08:57:53.444Z</time></trkpt><trkpt lat="42.373269" lon="14.2719539"><ele>136.0</ele><time>2026-05-01T08:57:54.438Z</time></trkpt><trkpt lat="42.3731902" lon="14.271962"><ele>136.0</ele><time>2026-05-01T08:57:55.446Z</time></trkpt><trkpt lat="42.3731058" lon="14.2719652"><ele>136.0</ele><time>2026-05-01T08:57:56.438Z</time></trkpt><trkpt lat="42.373018" lon="14.2719547"><ele>134.0</ele><time>2026-05-01T08:57:57.447Z</time></trkpt><trkpt lat="42.3729336" lon="14.2719556"><ele>132.0</ele><time>2026-05-01T08:57:58.444Z</time></trkpt><trkpt lat="42.3728435" lon="14.2719534"><ele>130.0</ele><time>2026-05-01T08:57:59.447Z</time></trkpt><trkpt lat="42.3727487" lon="14.2719482"><ele>128.0</ele><time>2026-05-01T08:58:00.445Z</time></trkpt><trkpt lat="42.3726577" lon="14.2719488"><ele>126.0</ele><time>2026-05-01T08:58:01.447Z</time></trkpt><trkpt lat="42.3725659" lon="14.2719554"><ele>126.0</ele><time>2026-05-01T08:58:02.446Z</time></trkpt><trkpt lat="42.372475" lon="14.2719611"><ele>126.0</ele><time>2026-05-01T08:58:03.441Z</time></trkpt><trkpt lat="42.3723861" lon="14.271966"><ele>126.0</ele><time>2026-05-01T08:58:04.443Z</time></trkpt><trkpt lat="42.3722993" lon="14.2719682"><ele>126.0</ele><time>2026-05-01T08:58:05.442Z</time></trkpt><trkpt lat="42.3722142" lon="14.2719681"><ele>126.0</ele><time>2026-05-01T08:58:06.449Z</time></trkpt><trkpt lat="42.3721369" lon="14.2719653"><ele>126.0</ele><time>2026-05-01T08:58:07.439Z</time></trkpt><trkpt lat="42.3720583" lon="14.27198"><ele>122.4</ele><time>2026-05-01T08:58:08.444Z</time></trkpt><trkpt lat="42.3719927" lon="14.2720434"><ele>118.8</ele><time>2026-05-01T08:58:09.442Z</time></trkpt><trkpt lat="42.3719256" lon="14.2721405"><ele>115.20000000000002</ele><time>2026-05-01T08:58:10.442Z</time></trkpt><trkpt lat="42.3718525" lon="14.2722588"><ele>111.60000000000001</ele><time>2026-05-01T08:58:11.428Z</time></trkpt><trkpt lat="42.3717925" lon="14.2723865"><ele>108.0</ele><time>2026-05-01T08:58:12.44Z</time></trkpt><trkpt lat="42.371742" lon="14.2725224"><ele>107.60000000000001</ele><time>2026-05-01T08:58:13.445Z</time></trkpt><trkpt lat="42.3717011" lon="14.2726598"><ele>107.20000000000002</ele><time>2026-05-01T08:58:14.44Z</time></trkpt><trkpt lat="42.371658" lon="14.2727977"><ele>106.8</ele><time>2026-05-01T08:58:15.441Z</time></trkpt><trkpt lat="42.3716153" lon="14.272936"><ele>106.4</ele><time>2026-05-01T08:58:16.444Z</time></trkpt><trkpt lat="42.3715748" lon="14.2730729"><ele>106.0</ele><time>2026-05-01T08:58:17.442Z</time></trkpt><trkpt lat="42.3715339" lon="14.2732068"><ele>105.0</ele><time>2026-05-01T08:58:18.44Z</time></trkpt><trkpt lat="42.3714909" lon="14.273338"><ele>104.0</ele><time>2026-05-01T08:58:19.436Z</time></trkpt><trkpt lat="42.3714527" lon="14.2734657"><ele>103.0</ele><time>2026-05-01T08:58:20.439Z</time></trkpt><trkpt lat="42.3714098" lon="14.2735926"><ele>102.0</ele><time>2026-05-01T08:58:21.435Z</time></trkpt><trkpt lat="42.3713669" lon="14.2737178"><ele>101.0</ele><time>2026-05-01T08:58:22.441Z</time></trkpt><trkpt lat="42.3713275" lon="14.2738435"><ele>97.19999999999999</ele><time>2026-05-01T08:58:23.442Z</time></trkpt><trkpt lat="42.3712924" lon="14.2739731"><ele>93.39999999999999</ele><time>2026-05-01T08:58:24.447Z</time></trkpt><trkpt lat="42.3712618" lon="14.2741097"><ele>89.6</ele><time>2026-05-01T08:58:25.448Z</time></trkpt><trkpt lat="42.3712394" lon="14.2742565"><ele>85.8</ele><time>2026-05-01T08:58:26.44Z</time></trkpt><trkpt lat="42.37122" lon="14.2744072"><ele>82.0</ele><time>2026-05-01T08:58:27.444Z</time></trkpt><trkpt lat="42.3712161" lon="14.2745641"><ele>82.0</ele><time>2026-05-01T08:58:28.437Z</time></trkpt><trkpt lat="42.3712238" lon="14.2747285"><ele>82.0</ele><time>2026-05-01T08:58:29.445Z</time></trkpt><trkpt lat="42.3712359" lon="14.2748934"><ele>82.0</ele><time>2026-05-01T08:58:30.441Z</time></trkpt><trkpt lat="42.3712436" lon="14.2750548"><ele>82.0</ele><time>2026-05-01T08:58:31.442Z</time></trkpt><trkpt lat="42.3712411" lon="14.2752138"><ele>81.25</ele><time>2026-05-01T08:58:32.437Z</time></trkpt><trkpt lat="42.3712299" lon="14.2753738"><ele>80.5</ele><time>2026-05-01T08:58:33.446Z</time></trkpt><trkpt lat="42.3712095" lon="14.2755301"><ele>79.75</ele><time>2026-05-01T08:58:34.446Z</time></trkpt><trkpt lat="42.3711827" lon="14.2756914"><ele>79.0</ele><time>2026-05-01T08:58:35.439Z</time></trkpt><trkpt lat="42.3711539" lon="14.2758629"><ele>79.0</ele><time>2026-05-01T08:58:36.449Z</time></trkpt><trkpt lat="42.3711167" lon="14.2760301"><ele>79.0</ele><time>2026-05-01T08:58:37.445Z</time></trkpt><trkpt lat="42.3710747" lon="14.2762031"><ele>79.0</ele><time>2026-05-01T08:58:38.443Z</time></trkpt><trkpt lat="42.3710341" lon="14.2763737"><ele>79.0</ele><time>2026-05-01T08:58:39.441Z</time></trkpt><trkpt lat="42.3709931" lon="14.2765427"><ele>78.5</ele><time>2026-05-01T08:58:40.442Z</time></trkpt><trkpt lat="42.3709524" lon="14.2767084"><ele>78.0</ele><time>2026-05-01T08:58:41.439Z</time></trkpt><trkpt lat="42.3709124" lon="14.2768773"><ele>77.5</ele><time>2026-05-01T08:58:42.441Z</time></trkpt><trkpt lat="42.370872" lon="14.2770395"><ele>77.0</ele><time>2026-05-01T08:58:43.446Z</time></trkpt><trkpt lat="42.3708361" lon="14.2771924"><ele>77.0</ele><time>2026-05-01T08:58:44.442Z</time></trkpt><trkpt lat="42.3708031" lon="14.2773244"><ele>77.0</ele><time>2026-05-01T08:58:45.441Z</time></trkpt><trkpt lat="42.3707813" lon="14.2774329"><ele>77.0</ele><time>2026-05-01T08:58:46.439Z</time></trkpt><trkpt lat="42.370763" lon="14.2775346"><ele>77.0</ele><time>2026-05-01T08:58:47.442Z</time></trkpt><trkpt lat="42.3707422" lon="14.277629"><ele>77.0</ele><time>2026-05-01T08:58:48.442Z</time></trkpt><trkpt lat="42.3707207" lon="14.2777163"><ele>77.0</ele><time>2026-05-01T08:58:49.449Z</time></trkpt><trkpt lat="42.3706955" lon="14.2778077"><ele>77.0</ele><time>2026-05-01T08:58:50.446Z</time></trkpt><trkpt lat="42.3706592" lon="14.2779561"><ele>77.0</ele><time>2026-05-01T08:58:52.443Z</time></trkpt><trkpt lat="42.3706216" lon="14.2781286"><ele>77.0</ele><time>2026-05-01T08:58:54.431Z</time></trkpt><trkpt lat="42.3705828" lon="14.2782465"><ele>77.0</ele><time>2026-05-01T08:58:55.437Z</time></trkpt><trkpt lat="42.3705184" lon="14.2783854"><ele>75.0</ele><time>2026-05-01T08:58:56.442Z</time></trkpt><trkpt lat="42.3704419" lon="14.2785295"><ele>73.0</ele><time>2026-05-01T08:58:57.444Z</time></trkpt><trkpt lat="42.3703543" lon="14.2786671"><ele>71.0</ele><time>2026-05-01T08:58:58.443Z</time></trkpt><trkpt lat="42.3702633" lon="14.2787937"><ele>69.0</ele><time>2026-05-01T08:58:59.44Z</time></trkpt><trkpt lat="42.3701626" lon="14.2789118"><ele>68.5</ele><time>2026-05-01T08:59:00.439Z</time></trkpt><trkpt lat="42.3700578" lon="14.2790038"><ele>68.0</ele><time>2026-05-01T08:59:01.438Z</time></trkpt><trkpt lat="42.3699538" lon="14.2790772"><ele>67.5</ele><time>2026-05-01T08:59:02.443Z</time></trkpt><trkpt lat="42.3698553" lon="14.2791449"><ele>67.0</ele><time>2026-05-01T08:59:03.445Z</time></trkpt><trkpt lat="42.3697676" lon="14.2792115"><ele>66.8</ele><time>2026-05-01T08:59:04.442Z</time></trkpt><trkpt lat="42.36969" lon="14.2792844"><ele>66.6</ele><time>2026-05-01T08:59:05.437Z</time></trkpt><trkpt lat="42.3696353" lon="14.279375"><ele>66.39999999999999</ele><time>2026-05-01T08:59:06.441Z</time></trkpt><trkpt lat="42.3696006" lon="14.2794883"><ele>66.2</ele><time>2026-05-01T08:59:07.447Z</time></trkpt><trkpt lat="42.3695935" lon="14.2796272"><ele>66.0</ele><time>2026-05-01T08:59:08.446Z</time></trkpt><trkpt lat="42.369602" lon="14.2797773"><ele>66.0</ele><time>2026-05-01T08:59:09.438Z</time></trkpt><trkpt lat="42.3696215" lon="14.2799437"><ele>66.0</ele><time>2026-05-01T08:59:10.437Z</time></trkpt><trkpt lat="42.3696382" lon="14.2801007"><ele>66.0</ele><time>2026-05-01T08:59:11.449Z</time></trkpt><trkpt lat="42.3696564" lon="14.2802614"><ele>66.0</ele><time>2026-05-01T08:59:12.449Z</time></trkpt><trkpt lat="42.3696694" lon="14.2804311"><ele>65.75</ele><time>2026-05-01T08:59:13.447Z</time></trkpt><trkpt lat="42.3696799" lon="14.2806063"><ele>65.5</ele><time>2026-05-01T08:59:14.445Z</time></trkpt><trkpt lat="42.3696867" lon="14.2807822"><ele>65.25</ele><time>2026-05-01T08:59:15.443Z</time></trkpt><trkpt lat="42.3696894" lon="14.2809655"><ele>65.0</ele><time>2026-05-01T08:59:16.435Z</time></trkpt><trkpt lat="42.3696903" lon="14.2811523"><ele>65.0</ele><time>2026-05-01T08:59:17.438Z</time></trkpt><trkpt lat="42.3696898" lon="14.2813451"><ele>65.0</ele><time>2026-05-01T08:59:18.447Z</time></trkpt><trkpt lat="42.3696904" lon="14.2815589"><ele>65.0</ele><time>2026-05-01T08:59:19.444Z</time></trkpt><trkpt lat="42.3696899" lon="14.2817708"><ele>64.4</ele><time>2026-05-01T08:59:20.445Z</time></trkpt><trkpt lat="42.3696848" lon="14.2819681"><ele>63.8</ele><time>2026-05-01T08:59:21.447Z</time></trkpt><trkpt lat="42.3696639" lon="14.282112"><ele>63.2</ele><time>2026-05-01T08:59:22.436Z</time></trkpt><trkpt lat="42.3696302" lon="14.2822308"><ele>62.6</ele><time>2026-05-01T08:59:23.437Z</time></trkpt><trkpt lat="42.3695902" lon="14.2823034"><ele>62.0</ele><time>2026-05-01T08:59:24.445Z</time></trkpt><trkpt lat="42.3695274" lon="14.2823348"><ele>62.0</ele><time>2026-05-01T08:59:26.428Z</time></trkpt><trkpt lat="42.3694761" lon="14.2821659"><ele>62.0</ele><time>2026-05-01T08:59:29.432Z</time></trkpt><trkpt lat="42.3694388" lon="14.2820361"><ele>62.0</ele><time>2026-05-01T08:59:30.435Z</time></trkpt><trkpt lat="42.3693828" lon="14.2818736"><ele>62.0</ele><time>2026-05-01T08:59:31.449Z</time></trkpt><trkpt lat="42.3693033" lon="14.2817103"><ele>62.0</ele><time>2026-05-01T08:59:32.441Z</time></trkpt><trkpt lat="42.369193" lon="14.2815148"><ele>62.0</ele><time>2026-05-01T08:59:33.443Z</time></trkpt><trkpt lat="42.3690898" lon="14.2813506"><ele>62.0</ele><time>2026-05-01T08:59:34.443Z</time></trkpt><trkpt lat="42.3690139" lon="14.2812038"><ele>62.25</ele><time>2026-05-01T08:59:35.449Z</time></trkpt><trkpt lat="42.3689348" lon="14.2810604"><ele>62.5</ele><time>2026-05-01T08:59:36.437Z</time></trkpt><trkpt lat="42.3688531" lon="14.2809248"><ele>62.75</ele><time>2026-05-01T08:59:37.449Z</time></trkpt><trkpt lat="42.3687755" lon="14.2808097"><ele>63.0</ele><time>2026-05-01T08:59:38.443Z</time></trkpt><trkpt lat="42.3687021" lon="14.2806833"><ele>62.5</ele><time>2026-05-01T08:59:39.446Z</time></trkpt><trkpt lat="42.3686242" lon="14.2805598"><ele>62.0</ele><time>2026-05-01T08:59:40.443Z</time></trkpt><trkpt lat="42.3685585" lon="14.2804337"><ele>61.5</ele><time>2026-05-01T08:59:41.445Z</time></trkpt><trkpt lat="42.3684874" lon="14.2803063"><ele>61.0</ele><time>2026-05-01T08:59:42.435Z</time></trkpt><trkpt lat="42.3684254" lon="14.2801963"><ele>61.0</ele><time>2026-05-01T08:59:43.434Z</time></trkpt><trkpt lat="42.368362" lon="14.2801122"><ele>60.99999999999999</ele><time>2026-05-01T08:59:44.439Z</time></trkpt><trkpt lat="42.3682755" lon="14.2800602"><ele>60.99999999999999</ele><time>2026-05-01T08:59:45.431Z</time></trkpt><trkpt lat="42.3681792" lon="14.2800556"><ele>61.0</ele><time>2026-05-01T08:59:46.437Z</time></trkpt><trkpt lat="42.3680824" lon="14.280087"><ele>61.0</ele><time>2026-05-01T08:59:47.441Z</time></trkpt><trkpt lat="42.3679774" lon="14.2801643"><ele>58.75</ele><time>2026-05-01T08:59:48.434Z</time></trkpt><trkpt lat="42.3678674" lon="14.2802555"><ele>56.5</ele><time>2026-05-01T08:59:49.432Z</time></trkpt><trkpt lat="42.3677549" lon="14.2803483"><ele>54.25</ele><time>2026-05-01T08:59:50.437Z</time></trkpt><trkpt lat="42.3676501" lon="14.2804269"><ele>52.0</ele><time>2026-05-01T08:59:51.432Z</time></trkpt><trkpt lat="42.367547" lon="14.2805001"><ele>52.0</ele><time>2026-05-01T08:59:52.431Z</time></trkpt><trkpt lat="42.3674459" lon="14.2805635"><ele>52.0</ele><time>2026-05-01T08:59:53.426Z</time></trkpt><trkpt lat="42.3673538" lon="14.280618"><ele>52.0</ele><time>2026-05-01T08:59:54.43Z</time></trkpt><trkpt lat="42.3672561" lon="14.2806616"><ele>52.0</ele><time>2026-05-01T08:59:55.432Z</time></trkpt><trkpt lat="42.367156" lon="14.2806955"><ele>52.0</ele><time>2026-05-01T08:59:56.429Z</time></trkpt><trkpt lat="42.3670527" lon="14.280726"><ele>51.25</ele><time>2026-05-01T08:59:57.438Z</time></trkpt><trkpt lat="42.3669445" lon="14.280746"><ele>50.5</ele><time>2026-05-01T08:59:58.438Z</time></trkpt><trkpt lat="42.3668279" lon="14.2807738"><ele>49.75</ele><time>2026-05-01T08:59:59.442Z</time></trkpt><trkpt lat="42.3667126" lon="14.2808088"><ele>49.0</ele><time>2026-05-01T09:00:00.441Z</time></trkpt><trkpt lat="42.3665904" lon="14.2808361"><ele>49.0</ele><time>2026-05-01T09:00:01.438Z</time></trkpt><trkpt lat="42.3664669" lon="14.2808594"><ele>49.0</ele><time>2026-05-01T09:00:02.444Z</time></trkpt><trkpt lat="42.366344" lon="14.2808845"><ele>49.0</ele><time>2026-05-01T09:00:03.435Z</time></trkpt><trkpt lat="42.3662208" lon="14.2809128"><ele>49.0</ele><time>2026-05-01T09:00:04.441Z</time></trkpt><trkpt lat="42.3660967" lon="14.2809397"><ele>48.0</ele><time>2026-05-01T09:00:05.435Z</time></trkpt><trkpt lat="42.3659768" lon="14.2809705"><ele>47.0</ele><time>2026-05-01T09:00:06.437Z</time></trkpt><trkpt lat="42.3658624" lon="14.2809963"><ele>46.0</ele><time>2026-05-01T09:00:07.433Z</time></trkpt><trkpt lat="42.3657528" lon="14.2810165"><ele>45.0</ele><time>2026-05-01T09:00:08.438Z</time></trkpt><trkpt lat="42.3656524" lon="14.2810325"><ele>45.0</ele><time>2026-05-01T09:00:09.442Z</time></trkpt><trkpt lat="42.3655756" lon="14.2810504"><ele>45.0</ele><time>2026-05-01T09:00:10.436Z</time></trkpt><trkpt lat="42.3655099" lon="14.2810606"><ele>45.0</ele><time>2026-05-01T09:00:11.43Z</time></trkpt><trkpt lat="42.365416" lon="14.2809826"><ele>45.0</ele><time>2026-05-01T09:00:13.432Z</time></trkpt><trkpt lat="42.3653749" lon="14.2808724"><ele>45.0</ele><time>2026-05-01T09:00:14.424Z</time></trkpt><trkpt lat="42.3653266" lon="14.2807395"><ele>45.0</ele><time>2026-05-01T09:00:15.422Z</time></trkpt><trkpt lat="42.3652592" lon="14.2805861"><ele>45.0</ele><time>2026-05-01T09:00:16.438Z</time></trkpt><trkpt lat="42.3651863" lon="14.2804292"><ele>45.0</ele><time>2026-05-01T09:00:17.434Z</time></trkpt><trkpt lat="42.3651095" lon="14.2802588"><ele>45.0</ele><time>2026-05-01T09:00:18.438Z</time></trkpt><trkpt lat="42.3650185" lon="14.2800493"><ele>45.0</ele><time>2026-05-01T09:00:19.433Z</time></trkpt><trkpt lat="42.3649214" lon="14.2798553"><ele>45.0</ele><time>2026-05-01T09:00:20.44Z</time></trkpt><trkpt lat="42.3648209" lon="14.2796697"><ele>45.0</ele><time>2026-05-01T09:00:21.445Z</time></trkpt><trkpt lat="42.3647256" lon="14.2794829"><ele>45.333333333333336</ele><time>2026-05-01T09:00:22.443Z</time></trkpt><trkpt lat="42.3646396" lon="14.279301"><ele>45.66666666666667</ele><time>2026-05-01T09:00:23.43Z</time></trkpt><trkpt lat="42.3645448" lon="14.2791544"><ele>46.0</ele><time>2026-05-01T09:00:24.444Z</time></trkpt><trkpt lat="42.3644544" lon="14.2789979"><ele>46.75</ele><time>2026-05-01T09:00:25.441Z</time></trkpt><trkpt lat="42.3643618" lon="14.2788722"><ele>47.5</ele><time>2026-05-01T09:00:26.437Z</time></trkpt><trkpt lat="42.3642444" lon="14.2787329"><ele>48.25</ele><time>2026-05-01T09:00:27.442Z</time></trkpt><trkpt lat="42.364111" lon="14.2786132"><ele>49.0</ele><time>2026-05-01T09:00:28.444Z</time></trkpt><trkpt lat="42.363977" lon="14.2784889"><ele>48.33333333333333</ele><time>2026-05-01T09:00:29.442Z</time></trkpt><trkpt lat="42.363842" lon="14.2783708"><ele>47.666666666666664</ele><time>2026-05-01T09:00:30.441Z</time></trkpt><trkpt lat="42.3637104" lon="14.2782688"><ele>47.0</ele><time>2026-05-01T09:00:31.443Z</time></trkpt><trkpt lat="42.363582" lon="14.2781707"><ele>48.0</ele><time>2026-05-01T09:00:32.436Z</time></trkpt><trkpt lat="42.3634307" lon="14.2780737"><ele>49.0</ele><time>2026-05-01T09:00:33.437Z</time></trkpt><trkpt lat="42.3632994" lon="14.27796"><ele>50.0</ele><time>2026-05-01T09:00:34.441Z</time></trkpt><trkpt lat="42.3631786" lon="14.2778597"><ele>50.0</ele><time>2026-05-01T09:00:35.432Z</time></trkpt><trkpt lat="42.363062" lon="14.2777605"><ele>50.0</ele><time>2026-05-01T09:00:36.432Z</time></trkpt><trkpt lat="42.3629189" lon="14.2776882"><ele>50.0</ele><time>2026-05-01T09:00:37.433Z</time></trkpt><trkpt lat="42.3627782" lon="14.2776427"><ele>50.0</ele><time>2026-05-01T09:00:38.432Z</time></trkpt><trkpt lat="42.3626283" lon="14.2776523"><ele>50.0</ele><time>2026-05-01T09:00:39.437Z</time></trkpt><trkpt lat="42.3624664" lon="14.2776459"><ele>50.0</ele><time>2026-05-01T09:00:40.446Z</time></trkpt><trkpt lat="42.3623027" lon="14.2776533"><ele>50.0</ele><time>2026-05-01T09:00:41.443Z</time></trkpt><trkpt lat="42.3621318" lon="14.277674"><ele>50.0</ele><time>2026-05-01T09:00:42.441Z</time></trkpt><trkpt lat="42.3619603" lon="14.2776939"><ele>50.0</ele><time>2026-05-01T09:00:43.44Z</time></trkpt><trkpt lat="42.3617957" lon="14.2777142"><ele>50.0</ele><time>2026-05-01T09:00:44.445Z</time></trkpt><trkpt lat="42.3616427" lon="14.2777349"><ele>50.0</ele><time>2026-05-01T09:00:45.442Z</time></trkpt><trkpt lat="42.3614795" lon="14.2777511"><ele>50.0</ele><time>2026-05-01T09:00:46.445Z</time></trkpt><trkpt lat="42.3613409" lon="14.2777651"><ele>50.0</ele><time>2026-05-01T09:00:47.444Z</time></trkpt><trkpt lat="42.3611917" lon="14.277793"><ele>50.0</ele><time>2026-05-01T09:00:48.444Z</time></trkpt><trkpt lat="42.3610486" lon="14.2777917"><ele>50.0</ele><time>2026-05-01T09:00:49.436Z</time></trkpt><trkpt lat="42.3609151" lon="14.2777941"><ele>50.0</ele><time>2026-05-01T09:00:50.436Z</time></trkpt><trkpt lat="42.360795" lon="14.2777937"><ele>50.0</ele><time>2026-05-01T09:00:51.434Z</time></trkpt><trkpt lat="42.3606708" lon="14.2778101"><ele>50.0</ele><time>2026-05-01T09:00:52.435Z</time></trkpt><trkpt lat="42.3605586" lon="14.2778298"><ele>50.0</ele><time>2026-05-01T09:00:53.44Z</time></trkpt><trkpt lat="42.3604506" lon="14.2778329"><ele>50.0</ele><time>2026-05-01T09:00:54.438Z</time></trkpt><trkpt lat="42.36034" lon="14.2778403"><ele>50.0</ele><time>2026-05-01T09:00:55.441Z</time></trkpt><trkpt lat="42.3602247" lon="14.2778425"><ele>50.0</ele><time>2026-05-01T09:00:56.438Z</time></trkpt><trkpt lat="42.3601225" lon="14.2778229"><ele>50.2</ele><time>2026-05-01T09:00:57.436Z</time></trkpt><trkpt lat="42.3600175" lon="14.2777764"><ele>50.4</ele><time>2026-05-01T09:00:58.428Z</time></trkpt><trkpt lat="42.3599315" lon="14.2777059"><ele>50.599999999999994</ele><time>2026-05-01T09:00:59.443Z</time></trkpt><trkpt lat="42.3598637" lon="14.2776246"><ele>50.8</ele><time>2026-05-01T09:01:00.44Z</time></trkpt><trkpt lat="42.3598235" lon="14.2775265"><ele>51.0</ele><time>2026-05-01T09:01:01.434Z</time></trkpt><trkpt lat="42.3597958" lon="14.2774183"><ele>51.0</ele><time>2026-05-01T09:01:02.431Z</time></trkpt><trkpt lat="42.3597799" lon="14.2773108"><ele>51.0</ele><time>2026-05-01T09:01:03.442Z</time></trkpt><trkpt lat="42.3597625" lon="14.2772148"><ele>51.0</ele><time>2026-05-01T09:01:04.438Z</time></trkpt><trkpt lat="42.3597573" lon="14.2771248"><ele>51.0</ele><time>2026-05-01T09:01:05.435Z</time></trkpt><trkpt lat="42.3597347" lon="14.27699"><ele>51.0</ele><time>2026-05-01T09:01:07.432Z</time></trkpt><trkpt lat="42.3596837" lon="14.2768973"><ele>51.0</ele><time>2026-05-01T09:01:09.436Z</time></trkpt><trkpt lat="42.3595928" lon="14.276918"><ele>50.8</ele><time>2026-05-01T09:01:11.43Z</time></trkpt><trkpt lat="42.3595358" lon="14.2770263"><ele>50.599999999999994</ele><time>2026-05-01T09:01:13.437Z</time></trkpt><trkpt lat="42.3595267" lon="14.2771293"><ele>50.4</ele><time>2026-05-01T09:01:14.43Z</time></trkpt><trkpt lat="42.3595168" lon="14.277254"><ele>50.2</ele><time>2026-05-01T09:01:15.43Z</time></trkpt><trkpt lat="42.3595184" lon="14.2773993"><ele>50.0</ele><time>2026-05-01T09:01:16.422Z</time></trkpt><trkpt lat="42.3595298" lon="14.2775512"><ele>50.0</ele><time>2026-05-01T09:01:17.437Z</time></trkpt><trkpt lat="42.3595567" lon="14.2777042"><ele>50.0</ele><time>2026-05-01T09:01:18.433Z</time></trkpt><trkpt lat="42.3595848" lon="14.2778515"><ele>50.0</ele><time>2026-05-01T09:01:19.433Z</time></trkpt><trkpt lat="42.3596137" lon="14.2779877"><ele>50.0</ele><time>2026-05-01T09:01:20.438Z</time></trkpt><trkpt lat="42.3596376" lon="14.2781226"><ele>50.0</ele><time>2026-05-01T09:01:21.439Z</time></trkpt><trkpt lat="42.3596578" lon="14.2782589"><ele>49.0</ele><time>2026-05-01T09:01:22.43Z</time></trkpt><trkpt lat="42.3596721" lon="14.2783919"><ele>48.0</ele><time>2026-05-01T09:01:23.422Z</time></trkpt><trkpt lat="42.3596659" lon="14.2785282"><ele>47.0</ele><time>2026-05-01T09:01:24.418Z</time></trkpt><trkpt lat="42.3596263" lon="14.2786765"><ele>46.0</ele><time>2026-05-01T09:01:25.426Z</time></trkpt><trkpt lat="42.3595741" lon="14.2788508"><ele>45.333333333333336</ele><time>2026-05-01T09:01:26.425Z</time></trkpt><trkpt lat="42.3595037" lon="14.279048"><ele>44.666666666666664</ele><time>2026-05-01T09:01:27.435Z</time></trkpt><trkpt lat="42.3593799" lon="14.2792901"><ele>44.0</ele><time>2026-05-01T09:01:28.435Z</time></trkpt><trkpt lat="42.3592684" lon="14.2795262"><ele>44.0</ele><time>2026-05-01T09:01:29.439Z</time></trkpt><trkpt lat="42.3591691" lon="14.2797363"><ele>44.0</ele><time>2026-05-01T09:01:30.439Z</time></trkpt><trkpt lat="42.3591101" lon="14.2799455"><ele>44.0</ele><time>2026-05-01T09:01:31.443Z</time></trkpt><trkpt lat="42.3590194" lon="14.2801346"><ele>43.33333333333333</ele><time>2026-05-01T09:01:32.427Z</time></trkpt><trkpt lat="42.3589158" lon="14.2802962"><ele>42.666666666666664</ele><time>2026-05-01T09:01:33.429Z</time></trkpt><trkpt lat="42.3587903" lon="14.2804359"><ele>42.0</ele><time>2026-05-01T09:01:34.423Z</time></trkpt><trkpt lat="42.3586821" lon="14.2805659"><ele>41.75</ele><time>2026-05-01T09:01:35.434Z</time></trkpt><trkpt lat="42.3585486" lon="14.2806562"><ele>41.5</ele><time>2026-05-01T09:01:36.435Z</time></trkpt><trkpt lat="42.3584518" lon="14.2807744"><ele>41.25</ele><time>2026-05-01T09:01:37.425Z</time></trkpt><trkpt lat="42.3583307" lon="14.2808754"><ele>41.0</ele><time>2026-05-01T09:01:38.434Z</time></trkpt><trkpt lat="42.358241" lon="14.2809852"><ele>41.0</ele><time>2026-05-01T09:01:39.433Z</time></trkpt><trkpt lat="42.3581412" lon="14.2810679"><ele>41.0</ele><time>2026-05-01T09:01:40.432Z</time></trkpt><trkpt lat="42.3580783" lon="14.2811608"><ele>41.0</ele><time>2026-05-01T09:01:41.434Z</time></trkpt><trkpt lat="42.3579923" lon="14.2812144"><ele>41.0</ele><time>2026-05-01T09:01:42.442Z</time></trkpt><trkpt lat="42.3579128" lon="14.2812913"><ele>41.0</ele><time>2026-05-01T09:01:43.439Z</time></trkpt><trkpt lat="42.3578512" lon="14.2813625"><ele>41.0</ele><time>2026-05-01T09:01:44.433Z</time></trkpt><trkpt lat="42.3578187" lon="14.2814954"><ele>41.0</ele><time>2026-05-01T09:01:46.439Z</time></trkpt><trkpt lat="42.3578507" lon="14.2816148"><ele>41.0</ele><time>2026-05-01T09:01:48.443Z</time></trkpt><trkpt lat="42.3579362" lon="14.2816432"><ele>41.0</ele><time>2026-05-01T09:01:50.426Z</time></trkpt><trkpt lat="42.3579649" lon="14.2815451"><ele>41.0</ele><time>2026-05-01T09:01:52.435Z</time></trkpt><trkpt lat="42.3579413" lon="14.2814068"><ele>41.0</ele><time>2026-05-01T09:01:54.426Z</time></trkpt><trkpt lat="42.3579988" lon="14.2812828"><ele>41.0</ele><time>2026-05-01T09:01:56.437Z</time></trkpt><trkpt lat="42.358077" lon="14.2812059"><ele>41.0</ele><time>2026-05-01T09:01:57.43Z</time></trkpt><trkpt lat="42.3581634" lon="14.2811286"><ele>41.0</ele><time>2026-05-01T09:01:58.442Z</time></trkpt><trkpt lat="42.3582477" lon="14.2810609"><ele>41.0</ele><time>2026-05-01T09:01:59.438Z</time></trkpt><trkpt lat="42.3583196" lon="14.2810052"><ele>41.0</ele><time>2026-05-01T09:02:00.439Z</time></trkpt><trkpt lat="42.3583876" lon="14.2809585"><ele>41.0</ele><time>2026-05-01T09:02:01.441Z</time></trkpt><trkpt lat="42.3584965" lon="14.2809124"><ele>41.0</ele><time>2026-05-01T09:02:03.433Z</time></trkpt><trkpt lat="42.3586027" lon="14.2808553"><ele>41.0</ele><time>2026-05-01T09:02:05.442Z</time></trkpt><trkpt lat="42.3587158" lon="14.2808071"><ele>41.0</ele><time>2026-05-01T09:02:07.429Z</time></trkpt><trkpt lat="42.3588362" lon="14.280735"><ele>41.199999999999996</ele><time>2026-05-01T09:02:09.437Z</time></trkpt><trkpt lat="42.3589008" lon="14.2806827"><ele>41.4</ele><time>2026-05-01T09:02:10.426Z</time></trkpt><trkpt lat="42.358971" lon="14.2806105"><ele>41.6</ele><time>2026-05-01T09:02:11.433Z</time></trkpt><trkpt lat="42.3590453" lon="14.2805296"><ele>41.8</ele><time>2026-05-01T09:02:12.433Z</time></trkpt><trkpt lat="42.3591218" lon="14.2804389"><ele>42.0</ele><time>2026-05-01T09:02:13.427Z</time></trkpt><trkpt lat="42.3592" lon="14.2803374"><ele>42.0</ele><time>2026-05-01T09:02:14.424Z</time></trkpt><trkpt lat="42.359268" lon="14.2802351"><ele>42.0</ele><time>2026-05-01T09:02:15.43Z</time></trkpt><trkpt lat="42.3593237" lon="14.2801358"><ele>42.0</ele><time>2026-05-01T09:02:16.437Z</time></trkpt><trkpt lat="42.3593602" lon="14.2800541"><ele>42.0</ele><time>2026-05-01T09:02:17.426Z</time></trkpt><trkpt lat="42.3594018" lon="14.2799487"><ele>42.0</ele><time>2026-05-01T09:02:19.433Z</time></trkpt><trkpt lat="42.3594547" lon="14.2798524"><ele>42.0</ele><time>2026-05-01T09:02:24.433Z</time></trkpt><trkpt lat="42.3595144" lon="14.2797976"><ele>42.0</ele><time>2026-05-01T09:02:27.433Z</time></trkpt><trkpt lat="42.3595964" lon="14.2798143"><ele>42.0</ele><time>2026-05-01T09:02:29.438Z</time></trkpt><trkpt lat="42.3596692" lon="14.2798255"><ele>42.0</ele><time>2026-05-01T09:02:31.44Z</time></trkpt><trkpt lat="42.359788" lon="14.2798438"><ele>42.0</ele><time>2026-05-01T09:02:33.433Z</time></trkpt><trkpt lat="42.3598712" lon="14.2798728"><ele>42.0</ele><time>2026-05-01T09:02:34.434Z</time></trkpt><trkpt lat="42.3599579" lon="14.2799244"><ele>41.75</ele><time>2026-05-01T09:02:35.438Z</time></trkpt><trkpt lat="42.3600554" lon="14.2799636"><ele>41.5</ele><time>2026-05-01T09:02:36.44Z</time></trkpt><trkpt lat="42.3601641" lon="14.2799978"><ele>41.25</ele><time>2026-05-01T09:02:37.441Z</time></trkpt><trkpt lat="42.3602775" lon="14.2800295"><ele>41.0</ele><time>2026-05-01T09:02:38.435Z</time></trkpt><trkpt lat="42.3603977" lon="14.2800562"><ele>41.0</ele><time>2026-05-01T09:02:39.435Z</time></trkpt><trkpt lat="42.3605124" lon="14.28008"><ele>41.0</ele><time>2026-05-01T09:02:40.437Z</time></trkpt><trkpt lat="42.3606203" lon="14.2801067"><ele>41.0</ele><time>2026-05-01T09:02:41.435Z</time></trkpt><trkpt lat="42.3607303" lon="14.2801398"><ele>41.0</ele><time>2026-05-01T09:02:42.434Z</time></trkpt><trkpt lat="42.3608262" lon="14.2801704"><ele>41.0</ele><time>2026-05-01T09:02:43.435Z</time></trkpt><trkpt lat="42.3609121" lon="14.2802039"><ele>41.166666666666664</ele><time>2026-05-01T09:02:44.427Z</time></trkpt><trkpt lat="42.3609941" lon="14.2802174"><ele>41.33333333333333</ele><time>2026-05-01T09:02:45.433Z</time></trkpt><trkpt lat="42.3610664" lon="14.2802086"><ele>41.5</ele><time>2026-05-01T09:02:46.433Z</time></trkpt><trkpt lat="42.3611369" lon="14.2801671"><ele>41.666666666666664</ele><time>2026-05-01T09:02:47.431Z</time></trkpt><trkpt lat="42.3612107" lon="14.2801035"><ele>41.833333333333336</ele><time>2026-05-01T09:02:48.438Z</time></trkpt><trkpt lat="42.3612922" lon="14.2800396"><ele>42.0</ele><time>2026-05-01T09:02:49.43Z</time></trkpt><trkpt lat="42.3613728" lon="14.2799613"><ele>42.0</ele><time>2026-05-01T09:02:50.43Z</time></trkpt><trkpt lat="42.3614506" lon="14.2799007"><ele>42.0</ele><time>2026-05-01T09:02:51.434Z</time></trkpt><trkpt lat="42.3615256" lon="14.279846"><ele>42.0</ele><time>2026-05-01T09:02:52.43Z</time></trkpt><trkpt lat="42.3615925" lon="14.2798027"><ele>42.0</ele><time>2026-05-01T09:02:53.426Z</time></trkpt><trkpt lat="42.361661" lon="14.2797656"><ele>42.0</ele><time>2026-05-01T09:02:54.429Z</time></trkpt><trkpt lat="42.3617366" lon="14.279722"><ele>42.0</ele><time>2026-05-01T09:02:55.426Z</time></trkpt><trkpt lat="42.3618194" lon="14.2796799"><ele>42.2</ele><time>2026-05-01T09:02:56.425Z</time></trkpt><trkpt lat="42.3619163" lon="14.2796307"><ele>42.400000000000006</ele><time>2026-05-01T09:02:57.433Z</time></trkpt><trkpt lat="42.3620084" lon="14.2795813"><ele>42.599999999999994</ele><time>2026-05-01T09:02:58.433Z</time></trkpt><trkpt lat="42.3620934" lon="14.2795268"><ele>42.8</ele><time>2026-05-01T09:02:59.434Z</time></trkpt><trkpt lat="42.3621837" lon="14.279487"><ele>43.0</ele><time>2026-05-01T09:03:00.434Z</time></trkpt><trkpt lat="42.362278" lon="14.2794769"><ele>43.0</ele><time>2026-05-01T09:03:01.429Z</time></trkpt><trkpt lat="42.3623567" lon="14.279481"><ele>43.0</ele><time>2026-05-01T09:03:02.429Z</time></trkpt><trkpt lat="42.3624311" lon="14.2795011"><ele>43.0</ele><time>2026-05-01T09:03:03.421Z</time></trkpt><trkpt lat="42.3625027" lon="14.2795322"><ele>43.0</ele><time>2026-05-01T09:03:04.429Z</time></trkpt><trkpt lat="42.362584" lon="14.2795826"><ele>43.0</ele><time>2026-05-01T09:03:05.434Z</time></trkpt><trkpt lat="42.3626663" lon="14.2796663"><ele>43.0</ele><time>2026-05-01T09:03:06.432Z</time></trkpt><trkpt lat="42.3627592" lon="14.2797638"><ele>43.0</ele><time>2026-05-01T09:03:07.441Z</time></trkpt><trkpt lat="42.3628646" lon="14.2798607"><ele>43.0</ele><time>2026-05-01T09:03:08.443Z</time></trkpt><trkpt lat="42.3629761" lon="14.2799545"><ele>43.0</ele><time>2026-05-01T09:03:09.442Z</time></trkpt><trkpt lat="42.3631004" lon="14.2800375"><ele>43.0</ele><time>2026-05-01T09:03:10.438Z</time></trkpt><trkpt lat="42.3632271" lon="14.2801202"><ele>42.75</ele><time>2026-05-01T09:03:11.446Z</time></trkpt><trkpt lat="42.3633457" lon="14.2801815"><ele>42.5</ele><time>2026-05-01T09:03:12.443Z</time></trkpt><trkpt lat="42.3634559" lon="14.2802439"><ele>42.25</ele><time>2026-05-01T09:03:13.441Z</time></trkpt><trkpt lat="42.3635597" lon="14.2802998"><ele>42.0</ele><time>2026-05-01T09:03:14.441Z</time></trkpt><trkpt lat="42.363656" lon="14.2803466"><ele>42.0</ele><time>2026-05-01T09:03:15.442Z</time></trkpt><trkpt lat="42.3637511" lon="14.2803913"><ele>42.0</ele><time>2026-05-01T09:03:16.448Z</time></trkpt><trkpt lat="42.3638436" lon="14.2804508"><ele>42.0</ele><time>2026-05-01T09:03:17.438Z</time></trkpt><trkpt lat="42.3639186" lon="14.2805247"><ele>42.0</ele><time>2026-05-01T09:03:18.439Z</time></trkpt><trkpt lat="42.363976" lon="14.280617"><ele>42.0</ele><time>2026-05-01T09:03:19.441Z</time></trkpt><trkpt lat="42.3640341" lon="14.2807298"><ele>41.2</ele><time>2026-05-01T09:03:20.432Z</time></trkpt><trkpt lat="42.3640929" lon="14.2808602"><ele>40.400000000000006</ele><time>2026-05-01T09:03:21.434Z</time></trkpt><trkpt lat="42.3641524" lon="14.2809924"><ele>39.599999999999994</ele><time>2026-05-01T09:03:22.452Z</time></trkpt><trkpt lat="42.364211" lon="14.2811147"><ele>38.8</ele><time>2026-05-01T09:03:23.437Z</time></trkpt><trkpt lat="42.3642653" lon="14.2812326"><ele>38.0</ele><time>2026-05-01T09:03:24.444Z</time></trkpt><trkpt lat="42.3643125" lon="14.2813533"><ele>37.666666666666664</ele><time>2026-05-01T09:03:25.437Z</time></trkpt><trkpt lat="42.364342" lon="14.2814653"><ele>37.33333333333333</ele><time>2026-05-01T09:03:26.439Z</time></trkpt><trkpt lat="42.3643509" lon="14.281568"><ele>37.0</ele><time>2026-05-01T09:03:27.431Z</time></trkpt><trkpt lat="42.3643433" lon="14.28167"><ele>36.666666666666664</ele><time>2026-05-01T09:03:28.433Z</time></trkpt><trkpt lat="42.3643233" lon="14.2817867"><ele>36.333333333333336</ele><time>2026-05-01T09:03:29.424Z</time></trkpt><trkpt lat="42.3642884" lon="14.2819084"><ele>36.0</ele><time>2026-05-01T09:03:30.427Z</time></trkpt><trkpt lat="42.3642466" lon="14.2820209"><ele>36.0</ele><time>2026-05-01T09:03:31.432Z</time></trkpt><trkpt lat="42.3642084" lon="14.2821257"><ele>36.0</ele><time>2026-05-01T09:03:32.43Z</time></trkpt><trkpt lat="42.3641616" lon="14.2822268"><ele>36.0</ele><time>2026-05-01T09:03:33.427Z</time></trkpt><trkpt lat="42.3641131" lon="14.2823155"><ele>36.0</ele><time>2026-05-01T09:03:34.427Z</time></trkpt><trkpt lat="42.3640823" lon="14.2823998"><ele>36.0</ele><time>2026-05-01T09:03:35.423Z</time></trkpt><trkpt lat="42.3640483" lon="14.2825381"><ele>36.0</ele><time>2026-05-01T09:03:37.433Z</time></trkpt><trkpt lat="42.364068" lon="14.2826464"><ele>36.0</ele><time>2026-05-01T09:03:38.433Z</time></trkpt><trkpt lat="42.3640854" lon="14.2827719"><ele>36.0</ele><time>2026-05-01T09:03:39.429Z</time></trkpt><trkpt lat="42.3640974" lon="14.282884"><ele>36.0</ele><time>2026-05-01T09:03:40.43Z</time></trkpt><trkpt lat="42.364109" lon="14.2829684"><ele>36.0</ele><time>2026-05-01T09:03:41.431Z</time></trkpt><trkpt lat="42.3641588" lon="14.2830727"><ele>36.0</ele><time>2026-05-01T09:03:43.435Z</time></trkpt><trkpt lat="42.3642223" lon="14.2831929"><ele>36.0</ele><time>2026-05-01T09:03:45.433Z</time></trkpt><trkpt lat="42.3642501" lon="14.2833538"><ele>35.8</ele><time>2026-05-01T09:03:47.415Z</time></trkpt><trkpt lat="42.3642596" lon="14.283456"><ele>35.6</ele><time>2026-05-01T09:03:48.434Z</time></trkpt><trkpt lat="42.3642637" lon="14.28359"><ele>35.4</ele><time>2026-05-01T09:03:49.431Z</time></trkpt><trkpt lat="42.3642675" lon="14.2837363"><ele>35.2</ele><time>2026-05-01T09:03:50.437Z</time></trkpt><trkpt lat="42.364265" lon="14.2838896"><ele>35.0</ele><time>2026-05-01T09:03:51.437Z</time></trkpt><trkpt lat="42.3642595" lon="14.2840574"><ele>34.6</ele><time>2026-05-01T09:03:52.44Z</time></trkpt><trkpt lat="42.3642504" lon="14.284228"><ele>34.2</ele><time>2026-05-01T09:03:53.448Z</time></trkpt><trkpt lat="42.3642424" lon="14.2843802"><ele>33.8</ele><time>2026-05-01T09:03:54.433Z</time></trkpt><trkpt lat="42.3642288" lon="14.2845253"><ele>33.4</ele><time>2026-05-01T09:03:55.435Z</time></trkpt><trkpt lat="42.3642194" lon="14.2846571"><ele>33.0</ele><time>2026-05-01T09:03:56.432Z</time></trkpt><trkpt lat="42.3642164" lon="14.2847722"><ele>33.0</ele><time>2026-05-01T09:03:57.43Z</time></trkpt><trkpt lat="42.364207" lon="14.2848908"><ele>33.0</ele><time>2026-05-01T09:03:58.433Z</time></trkpt><trkpt lat="42.3641955" lon="14.2850147"><ele>33.0</ele><time>2026-05-01T09:03:59.441Z</time></trkpt><trkpt lat="42.364184" lon="14.2851516"><ele>33.0</ele><time>2026-05-01T09:04:00.423Z</time></trkpt><trkpt lat="42.3641764" lon="14.2852811"><ele>33.0</ele><time>2026-05-01T09:04:01.428Z</time></trkpt><trkpt lat="42.3641782" lon="14.2854184"><ele>33.0</ele><time>2026-05-01T09:04:02.413Z</time></trkpt><trkpt lat="42.3641904" lon="14.2855634"><ele>33.0</ele><time>2026-05-01T09:04:03.412Z</time></trkpt><trkpt lat="42.3642137" lon="14.2857291"><ele>33.0</ele><time>2026-05-01T09:04:04.431Z</time></trkpt><trkpt lat="42.3642469" lon="14.28589"><ele>33.0</ele><time>2026-05-01T09:04:05.413Z</time></trkpt><trkpt lat="42.3642892" lon="14.2860338"><ele>33.199999999999996</ele><time>2026-05-01T09:04:06.422Z</time></trkpt><trkpt lat="42.3643369" lon="14.2861617"><ele>33.4</ele><time>2026-05-01T09:04:07.415Z</time></trkpt><trkpt lat="42.3643875" lon="14.286272"><ele>33.599999999999994</ele><time>2026-05-01T09:04:08.419Z</time></trkpt><trkpt lat="42.3644271" lon="14.2863528"><ele>33.8</ele><time>2026-05-01T09:04:09.416Z</time></trkpt><trkpt lat="42.364484" lon="14.2864404"><ele>34.0</ele><time>2026-05-01T09:04:11.42Z</time></trkpt><trkpt lat="42.3645743" lon="14.2865575"><ele>34.0</ele><time>2026-05-01T09:04:30.433Z</time></trkpt><trkpt lat="42.3646386" lon="14.2866283"><ele>34.0</ele><time>2026-05-01T09:04:31.428Z</time></trkpt><trkpt lat="42.3647169" lon="14.2867031"><ele>34.0</ele><time>2026-05-01T09:04:32.433Z</time></trkpt><trkpt lat="42.3648013" lon="14.2867934"><ele>34.0</ele><time>2026-05-01T09:04:33.431Z</time></trkpt><trkpt lat="42.3648891" lon="14.2868766"><ele>34.0</ele><time>2026-05-01T09:04:34.436Z</time></trkpt><trkpt lat="42.3649694" lon="14.2869632"><ele>34.2</ele><time>2026-05-01T09:04:35.43Z</time></trkpt><trkpt lat="42.3650459" lon="14.2870393"><ele>34.4</ele><time>2026-05-01T09:04:36.431Z</time></trkpt><trkpt lat="42.3651316" lon="14.287118"><ele>34.6</ele><time>2026-05-01T09:04:37.437Z</time></trkpt><trkpt lat="42.3652168" lon="14.2872074"><ele>34.8</ele><time>2026-05-01T09:04:38.432Z</time></trkpt><trkpt lat="42.3652987" lon="14.2872922"><ele>35.0</ele><time>2026-05-01T09:04:39.441Z</time></trkpt><trkpt lat="42.3653784" lon="14.2873665"><ele>35.166666666666664</ele><time>2026-05-01T09:04:40.441Z</time></trkpt><trkpt lat="42.3654608" lon="14.2874369"><ele>35.33333333333333</ele><time>2026-05-01T09:04:41.433Z</time></trkpt><trkpt lat="42.3655339" lon="14.2874842"><ele>35.5</ele><time>2026-05-01T09:04:42.433Z</time></trkpt><trkpt lat="42.3656175" lon="14.2875111"><ele>35.666666666666664</ele><time>2026-05-01T09:04:43.426Z</time></trkpt><trkpt lat="42.3657021" lon="14.2875308"><ele>35.833333333333336</ele><time>2026-05-01T09:04:44.431Z</time></trkpt><trkpt lat="42.3657775" lon="14.2875449"><ele>36.0</ele><time>2026-05-01T09:04:45.428Z</time></trkpt><trkpt lat="42.3658698" lon="14.2875509"><ele>35.4</ele><time>2026-05-01T09:04:47.428Z</time></trkpt><trkpt lat="42.3659675" lon="14.287506"><ele>34.8</ele><time>2026-05-01T09:04:50.431Z</time></trkpt><trkpt lat="42.3660324" lon="14.2874797"><ele>34.199999999999996</ele><time>2026-05-01T09:04:51.425Z</time></trkpt><trkpt lat="42.3661194" lon="14.2874278"><ele>33.6</ele><time>2026-05-01T09:04:52.426Z</time></trkpt><trkpt lat="42.3662119" lon="14.2873657"><ele>33.0</ele><time>2026-05-01T09:04:53.438Z</time></trkpt><trkpt lat="42.366306" lon="14.2873154"><ele>33.333333333333336</ele><time>2026-05-01T09:04:54.434Z</time></trkpt><trkpt lat="42.3663942" lon="14.2872829"><ele>33.666666666666664</ele><time>2026-05-01T09:04:55.434Z</time></trkpt><trkpt lat="42.3664744" lon="14.2872815"><ele>34.0</ele><time>2026-05-01T09:04:56.43Z</time></trkpt><trkpt lat="42.3665422" lon="14.2873061"><ele>34.33333333333333</ele><time>2026-05-01T09:04:57.427Z</time></trkpt><trkpt lat="42.3666241" lon="14.2874237"><ele>34.666666666666664</ele><time>2026-05-01T09:04:59.423Z</time></trkpt><trkpt lat="42.3666582" lon="14.2875042"><ele>35.0</ele><time>2026-05-01T09:05:00.43Z</time></trkpt><trkpt lat="42.3666757" lon="14.2876676"><ele>35.0</ele><time>2026-05-01T09:05:01.427Z</time></trkpt><trkpt lat="42.3666926" lon="14.2878635"><ele>35.0</ele><time>2026-05-01T09:05:02.425Z</time></trkpt><trkpt lat="42.366715" lon="14.2880446"><ele>35.0</ele><time>2026-05-01T09:05:03.423Z</time></trkpt><trkpt lat="42.366741" lon="14.2882126"><ele>35.0</ele><time>2026-05-01T09:05:04.43Z</time></trkpt><trkpt lat="42.3667693" lon="14.2883627"><ele>34.8</ele><time>2026-05-01T09:05:05.426Z</time></trkpt><trkpt lat="42.366804" lon="14.2884991"><ele>34.6</ele><time>2026-05-01T09:05:06.428Z</time></trkpt><trkpt lat="42.3668407" lon="14.2886315"><ele>34.4</ele><time>2026-05-01T09:05:07.43Z</time></trkpt><trkpt lat="42.3668778" lon="14.2887564"><ele>34.2</ele><time>2026-05-01T09:05:08.422Z</time></trkpt><trkpt lat="42.366898" lon="14.2888894"><ele>34.0</ele><time>2026-05-01T09:05:09.424Z</time></trkpt><trkpt lat="42.3669084" lon="14.2890148"><ele>33.5</ele><time>2026-05-01T09:05:10.421Z</time></trkpt><trkpt lat="42.3669254" lon="14.2891664"><ele>33.0</ele><time>2026-05-01T09:05:11.431Z</time></trkpt><trkpt lat="42.3669379" lon="14.2893375"><ele>32.5</ele><time>2026-05-01T09:05:12.425Z</time></trkpt><trkpt lat="42.3669402" lon="14.2895079"><ele>32.0</ele><time>2026-05-01T09:05:13.429Z</time></trkpt><trkpt lat="42.3669495" lon="14.2896831"><ele>32.25</ele><time>2026-05-01T09:05:14.423Z</time></trkpt><trkpt lat="42.3669585" lon="14.2898488"><ele>32.5</ele><time>2026-05-01T09:05:15.429Z</time></trkpt><trkpt lat="42.3669691" lon="14.2900019"><ele>32.75</ele><time>2026-05-01T09:05:16.422Z</time></trkpt><trkpt lat="42.3669853" lon="14.2901554"><ele>33.0</ele><time>2026-05-01T09:05:17.423Z</time></trkpt><trkpt lat="42.3670027" lon="14.2902938"><ele>33.0</ele><time>2026-05-01T09:05:18.431Z</time></trkpt><trkpt lat="42.3670244" lon="14.2904052"><ele>33.0</ele><time>2026-05-01T09:05:19.423Z</time></trkpt><trkpt lat="42.3670557" lon="14.2905054"><ele>33.0</ele><time>2026-05-01T09:05:20.423Z</time></trkpt><trkpt lat="42.3671006" lon="14.2906097"><ele>33.0</ele><time>2026-05-01T09:05:21.428Z</time></trkpt><trkpt lat="42.3671553" lon="14.2907155"><ele>33.0</ele><time>2026-05-01T09:05:22.426Z</time></trkpt><trkpt lat="42.3672132" lon="14.290805"><ele>33.0</ele><time>2026-05-01T09:05:23.422Z</time></trkpt><trkpt lat="42.3672687" lon="14.2908852"><ele>33.199999999999996</ele><time>2026-05-01T09:05:24.427Z</time></trkpt><trkpt lat="42.3673335" lon="14.2909663"><ele>33.4</ele><time>2026-05-01T09:05:25.42Z</time></trkpt><trkpt lat="42.3674096" lon="14.2910555"><ele>33.599999999999994</ele><time>2026-05-01T09:05:26.427Z</time></trkpt><trkpt lat="42.3674984" lon="14.2911515"><ele>33.8</ele><time>2026-05-01T09:05:27.429Z</time></trkpt><trkpt lat="42.3675753" lon="14.291255"><ele>34.0</ele><time>2026-05-01T09:05:28.434Z</time></trkpt><trkpt lat="42.3676466" lon="14.2913666"><ele>33.2</ele><time>2026-05-01T09:05:29.434Z</time></trkpt><trkpt lat="42.3677184" lon="14.2914921"><ele>32.4</ele><time>2026-05-01T09:05:30.429Z</time></trkpt><trkpt lat="42.3677794" lon="14.2916183"><ele>31.6</ele><time>2026-05-01T09:05:31.422Z</time></trkpt><trkpt lat="42.3678363" lon="14.2917362"><ele>30.8</ele><time>2026-05-01T09:05:32.418Z</time></trkpt><trkpt lat="42.3678979" lon="14.291854"><ele>30.0</ele><time>2026-05-01T09:05:33.41Z</time></trkpt><trkpt lat="42.3679596" lon="14.2919927"><ele>30.0</ele><time>2026-05-01T09:05:34.416Z</time></trkpt><trkpt lat="42.3680203" lon="14.2921434"><ele>30.0</ele><time>2026-05-01T09:05:35.421Z</time></trkpt><trkpt lat="42.3680747" lon="14.2922938"><ele>30.0</ele><time>2026-05-01T09:05:36.427Z</time></trkpt><trkpt lat="42.3681182" lon="14.2924549"><ele>30.0</ele><time>2026-05-01T09:05:37.434Z</time></trkpt><trkpt lat="42.3681526" lon="14.2926287"><ele>30.0</ele><time>2026-05-01T09:05:38.438Z</time></trkpt><trkpt lat="42.3681859" lon="14.2928016"><ele>30.0</ele><time>2026-05-01T09:05:39.429Z</time></trkpt><trkpt lat="42.3682166" lon="14.2929765"><ele>30.0</ele><time>2026-05-01T09:05:40.431Z</time></trkpt><trkpt lat="42.368249" lon="14.293154"><ele>30.0</ele><time>2026-05-01T09:05:41.428Z</time></trkpt><trkpt lat="42.3682835" lon="14.293312"><ele>30.0</ele><time>2026-05-01T09:05:42.429Z</time></trkpt><trkpt lat="42.3683167" lon="14.2934564"><ele>30.0</ele><time>2026-05-01T09:05:43.426Z</time></trkpt><trkpt lat="42.3683499" lon="14.293579"><ele>30.0</ele><time>2026-05-01T09:05:44.431Z</time></trkpt><trkpt lat="42.3683752" lon="14.2936901"><ele>30.0</ele><time>2026-05-01T09:05:45.425Z</time></trkpt><trkpt lat="42.3683988" lon="14.2937867"><ele>30.0</ele><time>2026-05-01T09:05:46.428Z</time></trkpt><trkpt lat="42.3684281" lon="14.2938741"><ele>30.0</ele><time>2026-05-01T09:05:47.426Z</time></trkpt><trkpt lat="42.3684618" lon="14.2939605"><ele>29.8</ele><time>2026-05-01T09:05:48.43Z</time></trkpt><trkpt lat="42.3684926" lon="14.2940581"><ele>29.6</ele><time>2026-05-01T09:05:49.432Z</time></trkpt><trkpt lat="42.3685145" lon="14.2941726"><ele>29.4</ele><time>2026-05-01T09:05:50.421Z</time></trkpt><trkpt lat="42.3685385" lon="14.2943211"><ele>29.2</ele><time>2026-05-01T09:05:51.43Z</time></trkpt><trkpt lat="42.3685608" lon="14.2944816"><ele>29.0</ele><time>2026-05-01T09:05:52.43Z</time></trkpt><trkpt lat="42.3685771" lon="14.2946254"><ele>28.999999999999996</ele><time>2026-05-01T09:05:53.425Z</time></trkpt><trkpt lat="42.3685889" lon="14.2947511"><ele>29.0</ele><time>2026-05-01T09:05:54.427Z</time></trkpt><trkpt lat="42.3685839" lon="14.2948725"><ele>29.0</ele><time>2026-05-01T09:05:55.425Z</time></trkpt><trkpt lat="42.3685638" lon="14.2949881"><ele>29.0</ele><time>2026-05-01T09:05:56.431Z</time></trkpt><trkpt lat="42.3685429" lon="14.2950882"><ele>28.999999999999996</ele><time>2026-05-01T09:05:57.424Z</time></trkpt><trkpt lat="42.3685215" lon="14.2951727"><ele>29.0</ele><time>2026-05-01T09:06:01.441Z</time></trkpt><trkpt lat="42.3685298" lon="14.2952797"><ele>29.0</ele><time>2026-05-01T09:06:15.455Z</time></trkpt><trkpt lat="42.3685562" lon="14.2953663"><ele>29.0</ele><time>2026-05-01T09:06:16.457Z</time></trkpt><trkpt lat="42.3685951" lon="14.2954945"><ele>29.0</ele><time>2026-05-01T09:06:17.443Z</time></trkpt><trkpt lat="42.3686489" lon="14.295655"><ele>29.0</ele><time>2026-05-01T09:06:18.444Z</time></trkpt><trkpt lat="42.3687149" lon="14.2958189"><ele>29.0</ele><time>2026-05-01T09:06:19.447Z</time></trkpt><trkpt lat="42.3687932" lon="14.2959848"><ele>28.666666666666664</ele><time>2026-05-01T09:06:20.446Z</time></trkpt><trkpt lat="42.3688788" lon="14.2961506"><ele>28.333333333333336</ele><time>2026-05-01T09:06:21.452Z</time></trkpt><trkpt lat="42.3689738" lon="14.2963474"><ele>28.0</ele><time>2026-05-01T09:06:22.454Z</time></trkpt><trkpt lat="42.3690524" lon="14.2965526"><ele>28.5</ele><time>2026-05-01T09:06:23.457Z</time></trkpt><trkpt lat="42.3691333" lon="14.296731"><ele>29.0</ele><time>2026-05-01T09:06:24.45Z</time></trkpt><trkpt lat="42.3691937" lon="14.2969232"><ele>29.5</ele><time>2026-05-01T09:06:25.448Z</time></trkpt><trkpt lat="42.3692463" lon="14.2970507"><ele>30.0</ele><time>2026-05-01T09:06:26.453Z</time></trkpt><trkpt lat="42.3692936" lon="14.297163"><ele>30.0</ele><time>2026-05-01T09:06:27.461Z</time></trkpt><trkpt lat="42.3693559" lon="14.2972886"><ele>30.0</ele><time>2026-05-01T09:06:28.458Z</time></trkpt><trkpt lat="42.369416" lon="14.2974104"><ele>30.0</ele><time>2026-05-01T09:06:29.458Z</time></trkpt><trkpt lat="42.3694889" lon="14.2975497"><ele>30.0</ele><time>2026-05-01T09:06:30.451Z</time></trkpt><trkpt lat="42.3695654" lon="14.2977041"><ele>30.0</ele><time>2026-05-01T09:06:31.459Z</time></trkpt><trkpt lat="42.3696333" lon="14.2978597"><ele>30.0</ele><time>2026-05-01T09:06:32.451Z</time></trkpt><trkpt lat="42.3697018" lon="14.2980066"><ele>30.0</ele><time>2026-05-01T09:06:33.449Z</time></trkpt><trkpt lat="42.3697731" lon="14.2981385"><ele>30.0</ele><time>2026-05-01T09:06:34.453Z</time></trkpt><trkpt lat="42.3698468" lon="14.2982605"><ele>29.833333333333332</ele><time>2026-05-01T09:06:35.444Z</time></trkpt><trkpt lat="42.3699178" lon="14.2983737"><ele>29.666666666666664</ele><time>2026-05-01T09:06:36.442Z</time></trkpt><trkpt lat="42.369978" lon="14.2984634"><ele>29.5</ele><time>2026-05-01T09:06:37.45Z</time></trkpt><trkpt lat="42.3700317" lon="14.2985275"><ele>29.333333333333332</ele><time>2026-05-01T09:06:38.448Z</time></trkpt><trkpt lat="42.3700872" lon="14.2985837"><ele>29.166666666666664</ele><time>2026-05-01T09:06:39.46Z</time></trkpt><trkpt lat="42.3701527" lon="14.2986425"><ele>29.0</ele><time>2026-05-01T09:06:40.445Z</time></trkpt><trkpt lat="42.3702374" lon="14.2987104"><ele>29.0</ele><time>2026-05-01T09:06:41.452Z</time></trkpt><trkpt lat="42.3703367" lon="14.2987934"><ele>29.0</ele><time>2026-05-01T09:06:42.448Z</time></trkpt><trkpt lat="42.3704456" lon="14.2988891"><ele>29.0</ele><time>2026-05-01T09:06:43.431Z</time></trkpt><trkpt lat="42.3705478" lon="14.2989858"><ele>29.0</ele><time>2026-05-01T09:06:44.454Z</time></trkpt><trkpt lat="42.3706448" lon="14.2990825"><ele>28.6</ele><time>2026-05-01T09:06:45.458Z</time></trkpt><trkpt lat="42.3707406" lon="14.2991688"><ele>28.2</ele><time>2026-05-01T09:06:46.46Z</time></trkpt><trkpt lat="42.3708252" lon="14.2992582"><ele>27.800000000000004</ele><time>2026-05-01T09:06:47.454Z</time></trkpt><trkpt lat="42.3709012" lon="14.2993454"><ele>27.400000000000002</ele><time>2026-05-01T09:06:48.458Z</time></trkpt><trkpt lat="42.3709764" lon="14.2994144"><ele>27.0</ele><time>2026-05-01T09:06:49.429Z</time></trkpt><trkpt lat="42.371045" lon="14.2994688"><ele>27.0</ele><time>2026-05-01T09:06:50.454Z</time></trkpt><trkpt lat="42.3711133" lon="14.2995102"><ele>27.0</ele><time>2026-05-01T09:06:51.459Z</time></trkpt><trkpt lat="42.3711852" lon="14.2995462"><ele>27.0</ele><time>2026-05-01T09:06:52.454Z</time></trkpt><trkpt lat="42.3712621" lon="14.2995693"><ele>27.0</ele><time>2026-05-01T09:06:53.449Z</time></trkpt><trkpt lat="42.3713514" lon="14.2995721"><ele>27.0</ele><time>2026-05-01T09:06:54.434Z</time></trkpt><trkpt lat="42.3714486" lon="14.2995635"><ele>27.0</ele><time>2026-05-01T09:06:55.431Z</time></trkpt><trkpt lat="42.3715572" lon="14.2995488"><ele>26.8</ele><time>2026-05-01T09:06:56.453Z</time></trkpt><trkpt lat="42.3716738" lon="14.2995369"><ele>26.6</ele><time>2026-05-01T09:06:57.449Z</time></trkpt><trkpt lat="42.3717811" lon="14.2995279"><ele>26.400000000000002</ele><time>2026-05-01T09:06:58.447Z</time></trkpt><trkpt lat="42.3718822" lon="14.2995351"><ele>26.200000000000003</ele><time>2026-05-01T09:06:59.454Z</time></trkpt><trkpt lat="42.3719669" lon="14.2995486"><ele>26.0</ele><time>2026-05-01T09:07:00.42Z</time></trkpt><trkpt lat="42.3720445" lon="14.2995653"><ele>26.0</ele><time>2026-05-01T09:07:01.421Z</time></trkpt><trkpt lat="42.37215" lon="14.2996032"><ele>26.0</ele><time>2026-05-01T09:07:03.412Z</time></trkpt><trkpt lat="42.3722191" lon="14.299699"><ele>26.0</ele><time>2026-05-01T09:07:05.418Z</time></trkpt><trkpt lat="42.3722547" lon="14.2997801"><ele>26.0</ele><time>2026-05-01T09:07:06.418Z</time></trkpt><trkpt lat="42.372294" lon="14.2998932"><ele>26.0</ele><time>2026-05-01T09:07:07.43Z</time></trkpt><trkpt lat="42.372347" lon="14.3000283"><ele>25.75</ele><time>2026-05-01T09:07:08.441Z</time></trkpt><trkpt lat="42.372401" lon="14.3001637"><ele>25.5</ele><time>2026-05-01T09:07:09.416Z</time></trkpt><trkpt lat="42.3724505" lon="14.3003025"><ele>25.25</ele><time>2026-05-01T09:07:10.451Z</time></trkpt><trkpt lat="42.3725086" lon="14.3004387"><ele>25.0</ele><time>2026-05-01T09:07:11.439Z</time></trkpt><trkpt lat="42.3725685" lon="14.300576"><ele>24.6</ele><time>2026-05-01T09:07:12.444Z</time></trkpt><trkpt lat="42.3726169" lon="14.3007114"><ele>24.2</ele><time>2026-05-01T09:07:13.453Z</time></trkpt><trkpt lat="42.3726627" lon="14.3008258"><ele>23.799999999999997</ele><time>2026-05-01T09:07:14.447Z</time></trkpt><trkpt lat="42.3727134" lon="14.3009241"><ele>23.4</ele><time>2026-05-01T09:07:15.455Z</time></trkpt><trkpt lat="42.3727762" lon="14.300994"><ele>23.0</ele><time>2026-05-01T09:07:16.451Z</time></trkpt><trkpt lat="42.3728468" lon="14.3010551"><ele>23.0</ele><time>2026-05-01T09:07:17.46Z</time></trkpt><trkpt lat="42.3729197" lon="14.3010993"><ele>23.0</ele><time>2026-05-01T09:07:18.463Z</time></trkpt><trkpt lat="42.3729852" lon="14.3011265"><ele>23.0</ele><time>2026-05-01T09:07:19.454Z</time></trkpt><trkpt lat="42.3730862" lon="14.3011354"><ele>23.0</ele><time>2026-05-01T09:07:21.457Z</time></trkpt><trkpt lat="42.3732028" lon="14.3011407"><ele>23.0</ele><time>2026-05-01T09:07:23.46Z</time></trkpt><trkpt lat="42.3732814" lon="14.3011174"><ele>23.0</ele><time>2026-05-01T09:07:24.457Z</time></trkpt><trkpt lat="42.3733766" lon="14.3010694"><ele>23.0</ele><time>2026-05-01T09:07:25.454Z</time></trkpt><trkpt lat="42.3734848" lon="14.3010045"><ele>23.0</ele><time>2026-05-01T09:07:26.458Z</time></trkpt><trkpt lat="42.3736025" lon="14.3009403"><ele>23.0</ele><time>2026-05-01T09:07:27.457Z</time></trkpt><trkpt lat="42.373721" lon="14.3008838"><ele>23.0</ele><time>2026-05-01T09:07:28.457Z</time></trkpt><trkpt lat="42.3738252" lon="14.3008326"><ele>23.0</ele><time>2026-05-01T09:07:29.46Z</time></trkpt><trkpt lat="42.3739179" lon="14.3007836"><ele>23.0</ele><time>2026-05-01T09:07:30.463Z</time></trkpt><trkpt lat="42.3740161" lon="14.3007357"><ele>23.0</ele><time>2026-05-01T09:07:31.439Z</time></trkpt><trkpt lat="42.3741154" lon="14.300685"><ele>23.0</ele><time>2026-05-01T09:07:32.454Z</time></trkpt><trkpt lat="42.3742196" lon="14.3006354"><ele>23.0</ele><time>2026-05-01T09:07:33.464Z</time></trkpt><trkpt lat="42.3743222" lon="14.3005904"><ele>23.0</ele><time>2026-05-01T09:07:34.462Z</time></trkpt><trkpt lat="42.3744161" lon="14.3005541"><ele>23.0</ele><time>2026-05-01T09:07:35.453Z</time></trkpt><trkpt lat="42.3745032" lon="14.3005269"><ele>23.0</ele><time>2026-05-01T09:07:36.455Z</time></trkpt><trkpt lat="42.3745864" lon="14.3005139"><ele>23.0</ele><time>2026-05-01T09:07:37.454Z</time></trkpt><trkpt lat="42.3746639" lon="14.3005256"><ele>23.0</ele><time>2026-05-01T09:07:38.454Z</time></trkpt><trkpt lat="42.374746" lon="14.3005631"><ele>23.0</ele><time>2026-05-01T09:07:39.454Z</time></trkpt><trkpt lat="42.3748263" lon="14.3006373"><ele>23.0</ele><time>2026-05-01T09:07:40.457Z</time></trkpt><trkpt lat="42.3748953" lon="14.3007408"><ele>23.0</ele><time>2026-05-01T09:07:41.453Z</time></trkpt><trkpt lat="42.3749484" lon="14.3008517"><ele>23.0</ele><time>2026-05-01T09:07:42.452Z</time></trkpt><trkpt lat="42.3749781" lon="14.3009706"><ele>23.0</ele><time>2026-05-01T09:07:43.451Z</time></trkpt><trkpt lat="42.3749787" lon="14.3011087"><ele>23.0</ele><time>2026-05-01T09:07:44.441Z</time></trkpt><trkpt lat="42.3749702" lon="14.3012811"><ele>22.5</ele><time>2026-05-01T09:07:45.44Z</time></trkpt><trkpt lat="42.3749552" lon="14.3014588"><ele>22.0</ele><time>2026-05-01T09:07:46.447Z</time></trkpt><trkpt lat="42.3749488" lon="14.3016209"><ele>21.5</ele><time>2026-05-01T09:07:47.451Z</time></trkpt><trkpt lat="42.3749466" lon="14.3017701"><ele>21.0</ele><time>2026-05-01T09:07:48.459Z</time></trkpt><trkpt lat="42.3749427" lon="14.3019016"><ele>21.0</ele><time>2026-05-01T09:07:49.452Z</time></trkpt><trkpt lat="42.3749383" lon="14.3020127"><ele>21.0</ele><time>2026-05-01T09:07:50.453Z</time></trkpt><trkpt lat="42.3749373" lon="14.3021197"><ele>21.0</ele><time>2026-05-01T09:07:51.446Z</time></trkpt><trkpt lat="42.3749472" lon="14.30224"><ele>21.0</ele><time>2026-05-01T09:07:52.457Z</time></trkpt><trkpt lat="42.3749643" lon="14.3023466"><ele>21.0</ele><time>2026-05-01T09:07:53.465Z</time></trkpt><trkpt lat="42.3749877" lon="14.3024442"><ele>21.0</ele><time>2026-05-01T09:07:54.457Z</time></trkpt><trkpt lat="42.3750319" lon="14.3025346"><ele>21.6</ele><time>2026-05-01T09:07:55.429Z</time></trkpt><trkpt lat="42.3750777" lon="14.3026264"><ele>22.200000000000003</ele><time>2026-05-01T09:07:56.45Z</time></trkpt><trkpt lat="42.3751379" lon="14.3027135"><ele>22.799999999999997</ele><time>2026-05-01T09:07:57.449Z</time></trkpt><trkpt lat="42.3752113" lon="14.3027921"><ele>23.4</ele><time>2026-05-01T09:07:58.426Z</time></trkpt><trkpt lat="42.3752955" lon="14.3028754"><ele>24.0</ele><time>2026-05-01T09:07:59.431Z</time></trkpt><trkpt lat="42.3753859" lon="14.3029412"><ele>24.0</ele><time>2026-05-01T09:08:00.426Z</time></trkpt><trkpt lat="42.3754728" lon="14.3029802"><ele>24.0</ele><time>2026-05-01T09:08:01.43Z</time></trkpt><trkpt lat="42.3755641" lon="14.3030255"><ele>24.0</ele><time>2026-05-01T09:08:02.442Z</time></trkpt><trkpt lat="42.3756576" lon="14.3030698"><ele>24.0</ele><time>2026-05-01T09:08:03.435Z</time></trkpt><trkpt lat="42.3757555" lon="14.3031332"><ele>24.0</ele><time>2026-05-01T09:08:04.451Z</time></trkpt><trkpt lat="42.375855" lon="14.3032"><ele>23.6</ele><time>2026-05-01T09:08:05.454Z</time></trkpt><trkpt lat="42.3759443" lon="14.3032666"><ele>23.2</ele><time>2026-05-01T09:08:06.455Z</time></trkpt><trkpt lat="42.3760326" lon="14.3033393"><ele>22.8</ele><time>2026-05-01T09:08:07.454Z</time></trkpt><trkpt lat="42.3761091" lon="14.3034095"><ele>22.400000000000002</ele><time>2026-05-01T09:08:08.447Z</time></trkpt><trkpt lat="42.3761748" lon="14.3034721"><ele>22.0</ele><time>2026-05-01T09:08:09.452Z</time></trkpt><trkpt lat="42.3762835" lon="14.3034972"><ele>22.0</ele><time>2026-05-01T09:08:11.462Z</time></trkpt><trkpt lat="42.376301" lon="14.3034018"><ele>22.0</ele><time>2026-05-01T09:08:13.457Z</time></trkpt><trkpt lat="42.3763173" lon="14.3032305"><ele>22.0</ele><time>2026-05-01T09:08:15.46Z</time></trkpt><trkpt lat="42.3763346" lon="14.3031099"><ele>22.0</ele><time>2026-05-01T09:08:16.463Z</time></trkpt><trkpt lat="42.376346" lon="14.302989"><ele>22.0</ele><time>2026-05-01T09:08:17.466Z</time></trkpt><trkpt lat="42.3763556" lon="14.3028768"><ele>22.200000000000003</ele><time>2026-05-01T09:08:18.458Z</time></trkpt><trkpt lat="42.3763626" lon="14.3027763"><ele>22.4</ele><time>2026-05-01T09:08:19.44Z</time></trkpt><trkpt lat="42.3763644" lon="14.3026387"><ele>22.6</ele><time>2026-05-01T09:08:21.459Z</time></trkpt><trkpt lat="42.376289" lon="14.3025467"><ele>22.799999999999997</ele><time>2026-05-01T09:08:23.437Z</time></trkpt><trkpt lat="42.376212" lon="14.3025271"><ele>23.0</ele><time>2026-05-01T09:08:24.438Z</time></trkpt><trkpt lat="42.3761138" lon="14.3025258"><ele>22.666666666666668</ele><time>2026-05-01T09:08:25.43Z</time></trkpt><trkpt lat="42.3760161" lon="14.302532"><ele>22.333333333333336</ele><time>2026-05-01T09:08:26.43Z</time></trkpt><trkpt lat="42.3759449" lon="14.3025343"><ele>22.0</ele><time>2026-05-01T09:08:27.429Z</time></trkpt><trkpt lat="42.3758839" lon="14.3024788"><ele>21.666666666666668</ele><time>2026-05-01T09:08:30.433Z</time></trkpt><trkpt lat="42.3759191" lon="14.3023658"><ele>21.333333333333332</ele><time>2026-05-01T09:08:32.451Z</time></trkpt><trkpt lat="42.3759453" lon="14.3022449"><ele>21.0</ele><time>2026-05-01T09:08:33.454Z</time></trkpt><trkpt lat="42.3759678" lon="14.3020669"><ele>22.0</ele><time>2026-05-01T09:08:34.454Z</time></trkpt><trkpt lat="42.3759955" lon="14.3018949"><ele>23.0</ele><time>2026-05-01T09:08:35.453Z</time></trkpt><trkpt lat="42.3760266" lon="14.3017469"><ele>24.0</ele><time>2026-05-01T09:08:36.452Z</time></trkpt><trkpt lat="42.3760558" lon="14.3016135"><ele>25.0</ele><time>2026-05-01T09:08:37.449Z</time></trkpt><trkpt lat="42.3761092" lon="14.3014633"><ele>26.0</ele><time>2026-05-01T09:08:38.455Z</time></trkpt><trkpt lat="42.3761732" lon="14.3013005"><ele>27.0</ele><time>2026-05-01T09:08:39.454Z</time></trkpt><trkpt lat="42.376234" lon="14.3011385"><ele>28.0</ele><time>2026-05-01T09:08:40.454Z</time></trkpt><trkpt lat="42.3762971" lon="14.3009885"><ele>29.0</ele><time>2026-05-01T09:08:41.452Z</time></trkpt><trkpt lat="42.3763552" lon="14.300857"><ele>29.4</ele><time>2026-05-01T09:08:42.45Z</time></trkpt><trkpt lat="42.3764105" lon="14.3007398"><ele>29.799999999999997</ele><time>2026-05-01T09:08:43.45Z</time></trkpt><trkpt lat="42.376454" lon="14.3006351"><ele>30.200000000000003</ele><time>2026-05-01T09:08:44.447Z</time></trkpt><trkpt lat="42.3764903" lon="14.3005489"><ele>30.6</ele><time>2026-05-01T09:08:45.452Z</time></trkpt><trkpt lat="42.3765452" lon="14.3004091"><ele>31.0</ele><time>2026-05-01T09:08:47.455Z</time></trkpt><trkpt lat="42.376607" lon="14.3003062"><ele>31.000000000000004</ele><time>2026-05-01T09:08:49.452Z</time></trkpt><trkpt lat="42.3766488" lon="14.3002422"><ele>31.0</ele><time>2026-05-01T09:08:55.465Z</time></trkpt><trkpt lat="42.3767172" lon="14.3002483"><ele>31.0</ele><time>2026-05-01T09:08:58.438Z</time></trkpt><trkpt lat="42.3767662" lon="14.3003213"><ele>31.0</ele><time>2026-05-01T09:08:59.458Z</time></trkpt><trkpt lat="42.3768447" lon="14.3004275"><ele>31.000000000000004</ele><time>2026-05-01T09:09:00.449Z</time></trkpt><trkpt lat="42.376943" lon="14.3005411"><ele>31.0</ele><time>2026-05-01T09:09:01.453Z</time></trkpt><trkpt lat="42.3770422" lon="14.3006616"><ele>31.0</ele><time>2026-05-01T09:09:02.434Z</time></trkpt><trkpt lat="42.3771472" lon="14.3007728"><ele>31.0</ele><time>2026-05-01T09:09:03.456Z</time></trkpt><trkpt lat="42.3772465" lon="14.3008701"><ele>31.0</ele><time>2026-05-01T09:09:04.452Z</time></trkpt><trkpt lat="42.377353" lon="14.3009509"><ele>31.0</ele><time>2026-05-01T09:09:05.454Z</time></trkpt><trkpt lat="42.3774647" lon="14.3010105"><ele>30.75</ele><time>2026-05-01T09:09:06.458Z</time></trkpt><trkpt lat="42.3775836" lon="14.3010713"><ele>30.5</ele><time>2026-05-01T09:09:07.46Z</time></trkpt><trkpt lat="42.3777132" lon="14.3011296"><ele>30.25</ele><time>2026-05-01T09:09:08.46Z</time></trkpt><trkpt lat="42.3778528" lon="14.3011856"><ele>30.0</ele><time>2026-05-01T09:09:09.465Z</time></trkpt><trkpt lat="42.3780166" lon="14.3012863"><ele>30.0</ele><time>2026-05-01T09:09:10.462Z</time></trkpt><trkpt lat="42.3781534" lon="14.3013638"><ele>30.0</ele><time>2026-05-01T09:09:11.461Z</time></trkpt><trkpt lat="42.3782884" lon="14.3014241"><ele>30.0</ele><time>2026-05-01T09:09:12.459Z</time></trkpt><trkpt lat="42.3784114" lon="14.3014663"><ele>30.0</ele><time>2026-05-01T09:09:13.463Z</time></trkpt><trkpt lat="42.3785359" lon="14.3015216"><ele>29.25</ele><time>2026-05-01T09:09:14.465Z</time></trkpt><trkpt lat="42.3786611" lon="14.3015496"><ele>28.5</ele><time>2026-05-01T09:09:15.461Z</time></trkpt><trkpt lat="42.3787996" lon="14.3015812"><ele>27.75</ele><time>2026-05-01T09:09:16.462Z</time></trkpt><trkpt lat="42.3789404" lon="14.3016369"><ele>27.0</ele><time>2026-05-01T09:09:17.461Z</time></trkpt><trkpt lat="42.3790892" lon="14.3016815"><ele>26.666666666666664</ele><time>2026-05-01T09:09:18.464Z</time></trkpt><trkpt lat="42.3792352" lon="14.301744"><ele>26.333333333333332</ele><time>2026-05-01T09:09:19.469Z</time></trkpt><trkpt lat="42.3793852" lon="14.301777"><ele>26.0</ele><time>2026-05-01T09:09:20.46Z</time></trkpt><trkpt lat="42.3795432" lon="14.3018252"><ele>26.0</ele><time>2026-05-01T09:09:21.467Z</time></trkpt><trkpt lat="42.3797086" lon="14.3018738"><ele>26.0</ele><time>2026-05-01T09:09:22.462Z</time></trkpt><trkpt lat="42.3798756" lon="14.3019156"><ele>26.0</ele><time>2026-05-01T09:09:23.461Z</time></trkpt><trkpt lat="42.3800323" lon="14.3019793"><ele>26.0</ele><time>2026-05-01T09:09:24.464Z</time></trkpt><trkpt lat="42.3802012" lon="14.3020347"><ele>26.0</ele><time>2026-05-01T09:09:25.46Z</time></trkpt><trkpt lat="42.3803609" lon="14.3020791"><ele>26.0</ele><time>2026-05-01T09:09:26.466Z</time></trkpt><trkpt lat="42.3805321" lon="14.3021312"><ele>25.666666666666664</ele><time>2026-05-01T09:09:27.463Z</time></trkpt><trkpt lat="42.3806925" lon="14.3021828"><ele>25.333333333333336</ele><time>2026-05-01T09:09:28.466Z</time></trkpt><trkpt lat="42.3808226" lon="14.3022396"><ele>25.0</ele><time>2026-05-01T09:09:29.463Z</time></trkpt><trkpt lat="42.3809699" lon="14.3022771"><ele>24.75</ele><time>2026-05-01T09:09:30.461Z</time></trkpt><trkpt lat="42.3811155" lon="14.3023179"><ele>24.5</ele><time>2026-05-01T09:09:31.461Z</time></trkpt><trkpt lat="42.3812661" lon="14.3023591"><ele>24.25</ele><time>2026-05-01T09:09:32.452Z</time></trkpt><trkpt lat="42.3814066" lon="14.3024046"><ele>24.0</ele><time>2026-05-01T09:09:33.455Z</time></trkpt><trkpt lat="42.3815729" lon="14.3024877"><ele>23.333333333333332</ele><time>2026-05-01T09:09:34.452Z</time></trkpt><trkpt lat="42.3817277" lon="14.3025636"><ele>22.666666666666664</ele><time>2026-05-01T09:09:35.457Z</time></trkpt><trkpt lat="42.3818694" lon="14.3026264"><ele>22.0</ele><time>2026-05-01T09:09:36.457Z</time></trkpt><trkpt lat="42.3820115" lon="14.3026888"><ele>22.0</ele><time>2026-05-01T09:09:37.456Z</time></trkpt><trkpt lat="42.3821399" lon="14.3027654"><ele>22.0</ele><time>2026-05-01T09:09:38.453Z</time></trkpt><trkpt lat="42.3822503" lon="14.3028448"><ele>22.0</ele><time>2026-05-01T09:09:39.464Z</time></trkpt><trkpt lat="42.3823475" lon="14.3029197"><ele>22.0</ele><time>2026-05-01T09:09:40.456Z</time></trkpt><trkpt lat="42.3824313" lon="14.3029786"><ele>22.0</ele><time>2026-05-01T09:09:41.457Z</time></trkpt><trkpt lat="42.3825085" lon="14.303089"><ele>22.0</ele><time>2026-05-01T09:09:43.457Z</time></trkpt><trkpt lat="42.3825346" lon="14.3031737"><ele>22.0</ele><time>2026-05-01T09:09:44.45Z</time></trkpt><trkpt lat="42.3825449" lon="14.3032654"><ele>22.0</ele><time>2026-05-01T09:09:45.463Z</time></trkpt><trkpt lat="42.3825291" lon="14.3033801"><ele>22.0</ele><time>2026-05-01T09:09:46.449Z</time></trkpt><trkpt lat="42.3825043" lon="14.3035045"><ele>22.0</ele><time>2026-05-01T09:09:47.457Z</time></trkpt><trkpt lat="42.3824728" lon="14.3036241"><ele>22.0</ele><time>2026-05-01T09:09:48.454Z</time></trkpt><trkpt lat="42.3824423" lon="14.3037447"><ele>22.0</ele><time>2026-05-01T09:09:49.464Z</time></trkpt><trkpt lat="42.3824153" lon="14.3038757"><ele>22.0</ele><time>2026-05-01T09:09:50.453Z</time></trkpt><trkpt lat="42.382391" lon="14.3040109"><ele>22.0</ele><time>2026-05-01T09:09:51.467Z</time></trkpt><trkpt lat="42.3823678" lon="14.3041474"><ele>22.0</ele><time>2026-05-01T09:09:52.451Z</time></trkpt><trkpt lat="42.3823473" lon="14.3042912"><ele>21.75</ele><time>2026-05-01T09:09:53.462Z</time></trkpt><trkpt lat="42.3823304" lon="14.3044421"><ele>21.5</ele><time>2026-05-01T09:09:54.455Z</time></trkpt><trkpt lat="42.3823164" lon="14.3045976"><ele>21.25</ele><time>2026-05-01T09:09:55.464Z</time></trkpt><trkpt lat="42.382305" lon="14.304757"><ele>21.0</ele><time>2026-05-01T09:09:56.465Z</time></trkpt><trkpt lat="42.3822919" lon="14.3049198"><ele>20.5</ele><time>2026-05-01T09:09:57.461Z</time></trkpt><trkpt lat="42.3822757" lon="14.3050852"><ele>20.0</ele><time>2026-05-01T09:09:58.438Z</time></trkpt><trkpt lat="42.3822557" lon="14.3052538"><ele>19.5</ele><time>2026-05-01T09:09:59.443Z</time></trkpt><trkpt lat="42.3822355" lon="14.3054173"><ele>19.0</ele><time>2026-05-01T09:10:00.442Z</time></trkpt><trkpt lat="42.3822076" lon="14.3055655"><ele>18.599999999999998</ele><time>2026-05-01T09:10:01.462Z</time></trkpt><trkpt lat="42.3821813" lon="14.3057048"><ele>18.2</ele><time>2026-05-01T09:10:02.432Z</time></trkpt><trkpt lat="42.3821624" lon="14.3058394"><ele>17.799999999999997</ele><time>2026-05-01T09:10:03.463Z</time></trkpt><trkpt lat="42.3821502" lon="14.3059757"><ele>17.4</ele><time>2026-05-01T09:10:04.459Z</time></trkpt><trkpt lat="42.3821356" lon="14.3061024"><ele>17.0</ele><time>2026-05-01T09:10:05.453Z</time></trkpt><trkpt lat="42.3821103" lon="14.3062194"><ele>17.0</ele><time>2026-05-01T09:10:06.45Z</time></trkpt><trkpt lat="42.3820749" lon="14.3063141"><ele>17.0</ele><time>2026-05-01T09:10:07.434Z</time></trkpt><trkpt lat="42.3820241" lon="14.3064181"><ele>17.0</ele><time>2026-05-01T09:10:09.431Z</time></trkpt><trkpt lat="42.3820396" lon="14.3065401"><ele>17.0</ele><time>2026-05-01T09:10:14.455Z</time></trkpt><trkpt lat="42.3821135" lon="14.3066064"><ele>17.0</ele><time>2026-05-01T09:10:15.458Z</time></trkpt><trkpt lat="42.3822047" lon="14.3067028"><ele>17.0</ele><time>2026-05-01T09:10:16.449Z</time></trkpt><trkpt lat="42.3822912" lon="14.306853"><ele>17.0</ele><time>2026-05-01T09:10:17.444Z</time></trkpt><trkpt lat="42.3823752" lon="14.307024"><ele>17.0</ele><time>2026-05-01T09:10:18.446Z</time></trkpt><trkpt lat="42.3824635" lon="14.307268"><ele>16.666666666666668</ele><time>2026-05-01T09:10:19.457Z</time></trkpt><trkpt lat="42.3825599" lon="14.3075019"><ele>16.333333333333332</ele><time>2026-05-01T09:10:20.457Z</time></trkpt><trkpt lat="42.3826609" lon="14.3076704"><ele>16.0</ele><time>2026-05-01T09:10:21.46Z</time></trkpt><trkpt lat="42.3827541" lon="14.3078375"><ele>16.0</ele><time>2026-05-01T09:10:22.455Z</time></trkpt><trkpt lat="42.3828291" lon="14.3080098"><ele>16.0</ele><time>2026-05-01T09:10:23.457Z</time></trkpt><trkpt lat="42.3828941" lon="14.3081729"><ele>16.0</ele><time>2026-05-01T09:10:24.456Z</time></trkpt><trkpt lat="42.3829558" lon="14.3083005"><ele>16.0</ele><time>2026-05-01T09:10:25.458Z</time></trkpt><trkpt lat="42.3830163" lon="14.3084285"><ele>15.999999999999998</ele><time>2026-05-01T09:10:26.458Z</time></trkpt><trkpt lat="42.3830677" lon="14.3085287"><ele>16.0</ele><time>2026-05-01T09:10:27.436Z</time></trkpt><trkpt lat="42.3831162" lon="14.308615"><ele>16.0</ele><time>2026-05-01T09:10:28.428Z</time></trkpt><trkpt lat="42.3831599" lon="14.3086962"><ele>16.0</ele><time>2026-05-01T09:10:29.439Z</time></trkpt><trkpt lat="42.3832079" lon="14.3087979"><ele>15.999999999999998</ele><time>2026-05-01T09:10:30.428Z</time></trkpt><trkpt lat="42.3832627" lon="14.3089234"><ele>16.0</ele><time>2026-05-01T09:10:31.457Z</time></trkpt><trkpt lat="42.3833282" lon="14.3090694"><ele>15.333333333333332</ele><time>2026-05-01T09:10:32.451Z</time></trkpt><trkpt lat="42.3834008" lon="14.3092343"><ele>14.666666666666668</ele><time>2026-05-01T09:10:33.454Z</time></trkpt><trkpt lat="42.3834835" lon="14.309419"><ele>14.0</ele><time>2026-05-01T09:10:34.445Z</time></trkpt><trkpt lat="42.3835917" lon="14.3096767"><ele>14.0</ele><time>2026-05-01T09:10:35.461Z</time></trkpt><trkpt lat="42.3837138" lon="14.3099326"><ele>14.0</ele><time>2026-05-01T09:10:36.449Z</time></trkpt><trkpt lat="42.3838129" lon="14.3101761"><ele>14.0</ele><time>2026-05-01T09:10:37.458Z</time></trkpt><trkpt lat="42.3839182" lon="14.3103958"><ele>14.333333333333334</ele><time>2026-05-01T09:10:38.449Z</time></trkpt><trkpt lat="42.3840361" lon="14.3106004"><ele>14.666666666666668</ele><time>2026-05-01T09:10:39.448Z</time></trkpt><trkpt lat="42.3841561" lon="14.3107493"><ele>15.0</ele><time>2026-05-01T09:10:40.445Z</time></trkpt><trkpt lat="42.3842942" lon="14.3108672"><ele>15.0</ele><time>2026-05-01T09:10:41.452Z</time></trkpt><trkpt lat="42.3844391" lon="14.3109378"><ele>15.0</ele><time>2026-05-01T09:10:42.452Z</time></trkpt><trkpt lat="42.3846014" lon="14.3110296"><ele>15.0</ele><time>2026-05-01T09:10:43.451Z</time></trkpt><trkpt lat="42.3847796" lon="14.3111144"><ele>14.666666666666668</ele><time>2026-05-01T09:10:44.449Z</time></trkpt><trkpt lat="42.3849472" lon="14.3111997"><ele>14.333333333333334</ele><time>2026-05-01T09:10:45.45Z</time></trkpt><trkpt lat="42.385108" lon="14.31127"><ele>14.0</ele><time>2026-05-01T09:10:46.451Z</time></trkpt><trkpt lat="42.3852739" lon="14.311369"><ele>14.0</ele><time>2026-05-01T09:10:47.454Z</time></trkpt><trkpt lat="42.3854188" lon="14.3114551"><ele>14.0</ele><time>2026-05-01T09:10:48.452Z</time></trkpt><trkpt lat="42.38556" lon="14.3115211"><ele>14.0</ele><time>2026-05-01T09:10:49.457Z</time></trkpt><trkpt lat="42.3856985" lon="14.3115951"><ele>14.0</ele><time>2026-05-01T09:10:50.453Z</time></trkpt><trkpt lat="42.3858228" lon="14.3116658"><ele>14.0</ele><time>2026-05-01T09:10:51.459Z</time></trkpt><trkpt lat="42.3859376" lon="14.3117249"><ele>14.0</ele><time>2026-05-01T09:10:52.457Z</time></trkpt><trkpt lat="42.3860579" lon="14.3118024"><ele>14.0</ele><time>2026-05-01T09:10:53.455Z</time></trkpt><trkpt lat="42.3861542" lon="14.3118577"><ele>14.0</ele><time>2026-05-01T09:10:54.461Z</time></trkpt><trkpt lat="42.3862757" lon="14.3119237"><ele>13.999999999999998</ele><time>2026-05-01T09:10:55.455Z</time></trkpt><trkpt lat="42.3863697" lon="14.3119748"><ele>13.999999999999998</ele><time>2026-05-01T09:10:56.447Z</time></trkpt><trkpt lat="42.3864322" lon="14.3119997"><ele>14.0</ele><time>2026-05-01T09:10:57.46Z</time></trkpt><trkpt lat="42.3864629" lon="14.31211"><ele>14.0</ele><time>2026-05-01T09:11:07.452Z</time></trkpt><trkpt lat="42.38644" lon="14.3122178"><ele>14.0</ele><time>2026-05-01T09:11:08.453Z</time></trkpt><trkpt lat="42.3864078" lon="14.3123557"><ele>13.999999999999998</ele><time>2026-05-01T09:11:09.456Z</time></trkpt><trkpt lat="42.3863787" lon="14.3124983"><ele>13.999999999999998</ele><time>2026-05-01T09:11:10.454Z</time></trkpt><trkpt lat="42.386338" lon="14.3126374"><ele>14.0</ele><time>2026-05-01T09:11:11.433Z</time></trkpt><trkpt lat="42.386301" lon="14.312762"><ele>14.0</ele><time>2026-05-01T09:11:12.458Z</time></trkpt><trkpt lat="42.3862659" lon="14.3128941"><ele>13.799999999999999</ele><time>2026-05-01T09:11:13.457Z</time></trkpt><trkpt lat="42.3862256" lon="14.3130262"><ele>13.599999999999998</ele><time>2026-05-01T09:11:14.454Z</time></trkpt><trkpt lat="42.3861845" lon="14.313164"><ele>13.4</ele><time>2026-05-01T09:11:15.456Z</time></trkpt><trkpt lat="42.3861426" lon="14.3133005"><ele>13.2</ele><time>2026-05-01T09:11:16.461Z</time></trkpt><trkpt lat="42.3861071" lon="14.3134361"><ele>13.0</ele><time>2026-05-01T09:11:17.46Z</time></trkpt><trkpt lat="42.3860731" lon="14.3135722"><ele>13.0</ele><time>2026-05-01T09:11:18.462Z</time></trkpt><trkpt lat="42.3860388" lon="14.313705"><ele>13.0</ele><time>2026-05-01T09:11:19.463Z</time></trkpt><trkpt lat="42.3860066" lon="14.3138392"><ele>13.0</ele><time>2026-05-01T09:11:20.455Z</time></trkpt><trkpt lat="42.3859757" lon="14.3139734"><ele>13.0</ele><time>2026-05-01T09:11:21.458Z</time></trkpt><trkpt lat="42.3859445" lon="14.3141051"><ele>13.0</ele><time>2026-05-01T09:11:22.464Z</time></trkpt><trkpt lat="42.3859128" lon="14.3142349"><ele>13.0</ele><time>2026-05-01T09:11:23.461Z</time></trkpt><trkpt lat="42.385883" lon="14.3143601"><ele>13.0</ele><time>2026-05-01T09:11:24.458Z</time></trkpt><trkpt lat="42.3858549" lon="14.3144885"><ele>13.0</ele><time>2026-05-01T09:11:25.456Z</time></trkpt><trkpt lat="42.3858283" lon="14.3146081"><ele>13.0</ele><time>2026-05-01T09:11:26.458Z</time></trkpt><trkpt lat="42.3858013" lon="14.3147294"><ele>13.0</ele><time>2026-05-01T09:11:27.454Z</time></trkpt><trkpt lat="42.3857706" lon="14.3148441"><ele>12.4</ele><time>2026-05-01T09:11:28.461Z</time></trkpt><trkpt lat="42.3857399" lon="14.3149668"><ele>11.8</ele><time>2026-05-01T09:11:29.46Z</time></trkpt><trkpt lat="42.3857075" lon="14.3150885"><ele>11.2</ele><time>2026-05-01T09:11:30.458Z</time></trkpt><trkpt lat="42.3856756" lon="14.3152083"><ele>10.6</ele><time>2026-05-01T09:11:31.464Z</time></trkpt><trkpt lat="42.3856462" lon="14.315333"><ele>10.0</ele><time>2026-05-01T09:11:32.453Z</time></trkpt><trkpt lat="42.3856196" lon="14.315459"><ele>10.0</ele><time>2026-05-01T09:11:33.434Z</time></trkpt><trkpt lat="42.3855932" lon="14.3155662"><ele>10.0</ele><time>2026-05-01T09:11:34.438Z</time></trkpt><trkpt lat="42.3855691" lon="14.3156596"><ele>10.0</ele><time>2026-05-01T09:11:35.433Z</time></trkpt><trkpt lat="42.3855517" lon="14.3157437"><ele>10.0</ele><time>2026-05-01T09:11:36.426Z</time></trkpt><trkpt lat="42.3855267" lon="14.3158768"><ele>10.0</ele><time>2026-05-01T09:11:38.454Z</time></trkpt><trkpt lat="42.38555" lon="14.3159784"><ele>10.0</ele><time>2026-05-01T09:11:40.455Z</time></trkpt><trkpt lat="42.3856089" lon="14.3160393"><ele>9.666666666666668</ele><time>2026-05-01T09:11:42.454Z</time></trkpt><trkpt lat="42.3857035" lon="14.3160839"><ele>9.333333333333334</ele><time>2026-05-01T09:11:44.46Z</time></trkpt><trkpt lat="42.3857969" lon="14.3161222"><ele>9.0</ele><time>2026-05-01T09:11:46.452Z</time></trkpt><trkpt lat="42.38581" lon="14.3162298"><ele>8.666666666666666</ele><time>2026-05-01T09:11:50.459Z</time></trkpt><trkpt lat="42.3858463" lon="14.3163148"><ele>8.333333333333332</ele><time>2026-05-01T09:11:53.455Z</time></trkpt><trkpt lat="42.3859073" lon="14.3163486"><ele>8.0</ele><time>2026-05-01T09:11:55.465Z</time></trkpt><trkpt lat="42.385922" lon="14.3164523"><ele>7.833333333333333</ele><time>2026-05-01T09:11:58.456Z</time></trkpt><trkpt lat="42.3858666" lon="14.3165887"><ele>7.666666666666666</ele><time>2026-05-01T09:12:00.439Z</time></trkpt><trkpt lat="42.3858343" lon="14.316679"><ele>7.5</ele><time>2026-05-01T09:12:01.436Z</time></trkpt><trkpt lat="42.3858014" lon="14.3167839"><ele>7.333333333333334</ele><time>2026-05-01T09:12:02.429Z</time></trkpt><trkpt lat="42.3857671" lon="14.3168901"><ele>7.166666666666667</ele><time>2026-05-01T09:12:03.431Z</time></trkpt><trkpt lat="42.3857284" lon="14.3169981"><ele>7.0</ele><time>2026-05-01T09:12:04.428Z</time></trkpt><trkpt lat="42.3856898" lon="14.3171071"><ele>7.000000000000001</ele><time>2026-05-01T09:12:05.426Z</time></trkpt><trkpt lat="42.3856552" lon="14.31721"><ele>7.0</ele><time>2026-05-01T09:12:06.427Z</time></trkpt><trkpt lat="42.3856193" lon="14.3173021"><ele>7.0</ele><time>2026-05-01T09:12:07.431Z</time></trkpt><trkpt lat="42.3855845" lon="14.3173863"><ele>7.0</ele><time>2026-05-01T09:12:08.429Z</time></trkpt><trkpt lat="42.3855312" lon="14.3175244"><ele>7.000000000000001</ele><time>2026-05-01T09:12:10.435Z</time></trkpt><trkpt lat="42.3854985" lon="14.3176456"><ele>7.0</ele><time>2026-05-01T09:12:12.425Z</time></trkpt><trkpt lat="42.385441" lon="14.3178001"><ele>7.199999999999999</ele><time>2026-05-01T09:12:14.427Z</time></trkpt><trkpt lat="42.3854038" lon="14.3178696"><ele>7.3999999999999995</ele><time>2026-05-01T09:12:15.432Z</time></trkpt><trkpt lat="42.3853511" lon="14.3179906"><ele>7.6000000000000005</ele><time>2026-05-01T09:12:17.437Z</time></trkpt><trkpt lat="42.3853197" lon="14.3181554"><ele>7.800000000000001</ele><time>2026-05-01T09:12:19.43Z</time></trkpt><trkpt lat="42.3852924" lon="14.318298"><ele>8.0</ele><time>2026-05-01T09:12:21.425Z</time></trkpt><trkpt lat="42.3853183" lon="14.3183963"><ele>8.4</ele><time>2026-05-01T09:12:23.431Z</time></trkpt><trkpt lat="42.3854049" lon="14.3184364"><ele>8.8</ele><time>2026-05-01T09:12:25.454Z</time></trkpt><trkpt lat="42.3854722" lon="14.3184372"><ele>9.2</ele><time>2026-05-01T09:12:26.456Z</time></trkpt><trkpt lat="42.3855543" lon="14.3184192"><ele>9.6</ele><time>2026-05-01T09:12:27.454Z</time></trkpt><trkpt lat="42.3856532" lon="14.3183775"><ele>10.0</ele><time>2026-05-01T09:12:28.451Z</time></trkpt><trkpt lat="42.3857552" lon="14.3183199"><ele>10.2</ele><time>2026-05-01T09:12:29.457Z</time></trkpt><trkpt lat="42.3858537" lon="14.3182572"><ele>10.4</ele><time>2026-05-01T09:12:30.456Z</time></trkpt><trkpt lat="42.3859488" lon="14.3182123"><ele>10.600000000000001</ele><time>2026-05-01T09:12:31.454Z</time></trkpt><trkpt lat="42.3860463" lon="14.3181878"><ele>10.8</ele><time>2026-05-01T09:12:32.454Z</time></trkpt><trkpt lat="42.3861431" lon="14.3181702"><ele>11.0</ele><time>2026-05-01T09:12:33.452Z</time></trkpt><trkpt lat="42.3862305" lon="14.3181657"><ele>11.0</ele><time>2026-05-01T09:12:34.452Z</time></trkpt><trkpt lat="42.3863037" lon="14.3181576"><ele>11.0</ele><time>2026-05-01T09:12:35.455Z</time></trkpt><trkpt lat="42.3863814" lon="14.3181557"><ele>11.0</ele><time>2026-05-01T09:12:36.454Z</time></trkpt><trkpt lat="42.3864605" lon="14.3181467"><ele>11.0</ele><time>2026-05-01T09:12:37.456Z</time></trkpt><trkpt lat="42.3865307" lon="14.3181213"><ele>11.0</ele><time>2026-05-01T09:12:38.462Z</time></trkpt><trkpt lat="42.3865995" lon="14.3180844"><ele>11.0</ele><time>2026-05-01T09:12:39.462Z</time></trkpt><trkpt lat="42.3866743" lon="14.3180421"><ele>10.833333333333332</ele><time>2026-05-01T09:12:40.457Z</time></trkpt><trkpt lat="42.386751" lon="14.3180103"><ele>10.666666666666666</ele><time>2026-05-01T09:12:41.452Z</time></trkpt><trkpt lat="42.3868234" lon="14.3179968"><ele>10.5</ele><time>2026-05-01T09:12:42.45Z</time></trkpt><trkpt lat="42.3868866" lon="14.3180036"><ele>10.333333333333334</ele><time>2026-05-01T09:12:43.449Z</time></trkpt><trkpt lat="42.386942" lon="14.3180569"><ele>10.166666666666668</ele><time>2026-05-01T09:12:45.445Z</time></trkpt><trkpt lat="42.3869101" lon="14.3181599"><ele>10.0</ele><time>2026-05-01T09:12:47.455Z</time></trkpt><trkpt lat="42.3868501" lon="14.3182985"><ele>10.0</ele><time>2026-05-01T09:12:49.432Z</time></trkpt><trkpt lat="42.3868146" lon="14.3184092"><ele>10.0</ele><time>2026-05-01T09:12:50.428Z</time></trkpt><trkpt lat="42.3867808" lon="14.3185348"><ele>10.0</ele><time>2026-05-01T09:12:51.433Z</time></trkpt><trkpt lat="42.3867546" lon="14.3186417"><ele>10.0</ele><time>2026-05-01T09:12:52.448Z</time></trkpt><trkpt lat="42.3867329" lon="14.3187355"><ele>10.0</ele><time>2026-05-01T09:12:53.447Z</time></trkpt><trkpt lat="42.3867151" lon="14.3188231"><ele>10.0</ele><time>2026-05-01T09:12:54.431Z</time></trkpt><trkpt lat="42.3866854" lon="14.3189485"><ele>9.6</ele><time>2026-05-01T09:12:56.457Z</time></trkpt><trkpt lat="42.3866671" lon="14.3190851"><ele>9.2</ele><time>2026-05-01T09:12:58.446Z</time></trkpt><trkpt lat="42.3866195" lon="14.3191946"><ele>8.8</ele><time>2026-05-01T09:13:00.424Z</time></trkpt><trkpt lat="42.3865579" lon="14.3191716"><ele>8.4</ele><time>2026-05-01T09:13:02.452Z</time></trkpt><trkpt lat="42.3864339" lon="14.3190767"><ele>8.0</ele><time>2026-05-01T09:13:04.459Z</time></trkpt><trkpt lat="42.3863507" lon="14.3190216"><ele>8.200000000000001</ele><time>2026-05-01T09:13:05.457Z</time></trkpt><trkpt lat="42.3862638" lon="14.3189848"><ele>8.4</ele><time>2026-05-01T09:13:06.438Z</time></trkpt><trkpt lat="42.3861718" lon="14.31896"><ele>8.600000000000001</ele><time>2026-05-01T09:13:07.436Z</time></trkpt><trkpt lat="42.3860816" lon="14.3189561"><ele>8.8</ele><time>2026-05-01T09:13:08.438Z</time></trkpt><trkpt lat="42.3859876" lon="14.318963"><ele>9.0</ele><time>2026-05-01T09:13:09.438Z</time></trkpt><trkpt lat="42.3858908" lon="14.3189796"><ele>9.0</ele><time>2026-05-01T09:13:10.443Z</time></trkpt><trkpt lat="42.3857912" lon="14.3190092"><ele>9.0</ele><time>2026-05-01T09:13:11.437Z</time></trkpt><trkpt lat="42.38569" lon="14.3190448"><ele>9.0</ele><time>2026-05-01T09:13:12.438Z</time></trkpt><trkpt lat="42.3855828" lon="14.3190807"><ele>9.0</ele><time>2026-05-01T09:13:13.433Z</time></trkpt><trkpt lat="42.3854696" lon="14.3191069"><ele>9.0</ele><time>2026-05-01T09:13:14.463Z</time></trkpt><trkpt lat="42.3853538" lon="14.3191254"><ele>9.2</ele><time>2026-05-01T09:13:15.462Z</time></trkpt><trkpt lat="42.3852416" lon="14.3191345"><ele>9.4</ele><time>2026-05-01T09:13:16.462Z</time></trkpt><trkpt lat="42.385135" lon="14.3191301"><ele>9.6</ele><time>2026-05-01T09:13:17.462Z</time></trkpt><trkpt lat="42.3850285" lon="14.3191116"><ele>9.8</ele><time>2026-05-01T09:13:18.463Z</time></trkpt><trkpt lat="42.3849237" lon="14.3190788"><ele>10.0</ele><time>2026-05-01T09:13:19.46Z</time></trkpt><trkpt lat="42.384821" lon="14.3190351"><ele>10.0</ele><time>2026-05-01T09:13:20.457Z</time></trkpt><trkpt lat="42.3847219" lon="14.3189764"><ele>10.0</ele><time>2026-05-01T09:13:21.461Z</time></trkpt><trkpt lat="42.3846308" lon="14.3189204"><ele>10.0</ele><time>2026-05-01T09:13:22.457Z</time></trkpt><trkpt lat="42.3845414" lon="14.3188589"><ele>10.0</ele><time>2026-05-01T09:13:23.457Z</time></trkpt><trkpt lat="42.3844594" lon="14.3187983"><ele>10.0</ele><time>2026-05-01T09:13:24.462Z</time></trkpt><trkpt lat="42.3843891" lon="14.3187371"><ele>10.0</ele><time>2026-05-01T09:13:25.438Z</time></trkpt><trkpt lat="42.384325" lon="14.3186533"><ele>10.0</ele><time>2026-05-01T09:13:26.433Z</time></trkpt><trkpt lat="42.3842672" lon="14.3185408"><ele>10.0</ele><time>2026-05-01T09:13:27.441Z</time></trkpt><trkpt lat="42.3842108" lon="14.3184098"><ele>10.0</ele><time>2026-05-01T09:13:28.46Z</time></trkpt><trkpt lat="42.3841575" lon="14.3182668"><ele>10.0</ele><time>2026-05-01T09:13:29.463Z</time></trkpt><trkpt lat="42.3841129" lon="14.3181341"><ele>10.0</ele><time>2026-05-01T09:13:30.461Z</time></trkpt><trkpt lat="42.3840713" lon="14.3180045"><ele>10.0</ele><time>2026-05-01T09:13:31.464Z</time></trkpt><trkpt lat="42.3840288" lon="14.3178784"><ele>10.0</ele><time>2026-05-01T09:13:32.462Z</time></trkpt><trkpt lat="42.3839911" lon="14.317765"><ele>10.0</ele><time>2026-05-01T09:13:33.462Z</time></trkpt><trkpt lat="42.3839592" lon="14.3176541"><ele>10.0</ele><time>2026-05-01T09:13:34.459Z</time></trkpt><trkpt lat="42.3839374" lon="14.3175225"><ele>10.0</ele><time>2026-05-01T09:13:35.459Z</time></trkpt><trkpt lat="42.383935" lon="14.3173797"><ele>10.0</ele><time>2026-05-01T09:13:36.46Z</time></trkpt><trkpt lat="42.3839371" lon="14.3172211"><ele>10.0</ele><time>2026-05-01T09:13:37.463Z</time></trkpt><trkpt lat="42.3839442" lon="14.3170681"><ele>10.0</ele><time>2026-05-01T09:13:38.461Z</time></trkpt><trkpt lat="42.383952" lon="14.3169265"><ele>10.0</ele><time>2026-05-01T09:13:39.463Z</time></trkpt><trkpt lat="42.383956" lon="14.3167871"><ele>10.0</ele><time>2026-05-01T09:13:40.463Z</time></trkpt><trkpt lat="42.3839598" lon="14.3166491"><ele>10.0</ele><time>2026-05-01T09:13:41.462Z</time></trkpt><trkpt lat="42.3839619" lon="14.316526"><ele>10.0</ele><time>2026-05-01T09:13:42.458Z</time></trkpt><trkpt lat="42.3839625" lon="14.3164288"><ele>10.0</ele><time>2026-05-01T09:13:43.454Z</time></trkpt><trkpt lat="42.3839537" lon="14.3163003"><ele>10.0</ele><time>2026-05-01T09:13:45.461Z</time></trkpt><trkpt lat="42.3839232" lon="14.3161776"><ele>10.0</ele><time>2026-05-01T09:13:47.464Z</time></trkpt><trkpt lat="42.3839034" lon="14.3160952"><ele>10.0</ele><time>2026-05-01T09:13:48.463Z</time></trkpt><trkpt lat="42.3838731" lon="14.3160039"><ele>10.0</ele><time>2026-05-01T09:13:49.46Z</time></trkpt><trkpt lat="42.3838351" lon="14.3159086"><ele>10.0</ele><time>2026-05-01T09:13:50.462Z</time></trkpt><trkpt lat="42.3837856" lon="14.3158086"><ele>10.0</ele><time>2026-05-01T09:13:51.465Z</time></trkpt><trkpt lat="42.3837226" lon="14.3157104"><ele>10.0</ele><time>2026-05-01T09:13:52.46Z</time></trkpt><trkpt lat="42.383651" lon="14.3156154"><ele>10.0</ele><time>2026-05-01T09:13:53.465Z</time></trkpt><trkpt lat="42.383574" lon="14.3155171"><ele>10.0</ele><time>2026-05-01T09:13:54.467Z</time></trkpt><trkpt lat="42.3834994" lon="14.3154234"><ele>10.0</ele><time>2026-05-01T09:13:55.466Z</time></trkpt><trkpt lat="42.3834296" lon="14.3153409"><ele>10.0</ele><time>2026-05-01T09:13:56.466Z</time></trkpt><trkpt lat="42.3833595" lon="14.3152547"><ele>10.0</ele><time>2026-05-01T09:13:57.468Z</time></trkpt><trkpt lat="42.3832862" lon="14.3151585"><ele>10.0</ele><time>2026-05-01T09:13:58.465Z</time></trkpt><trkpt lat="42.3832144" lon="14.3150592"><ele>10.0</ele><time>2026-05-01T09:13:59.47Z</time></trkpt><trkpt lat="42.3831362" lon="14.3149496"><ele>10.0</ele><time>2026-05-01T09:14:00.468Z</time></trkpt><trkpt lat="42.3830526" lon="14.3148405"><ele>10.0</ele><time>2026-05-01T09:14:01.467Z</time></trkpt><trkpt lat="42.3829777" lon="14.3147346"><ele>10.0</ele><time>2026-05-01T09:14:02.465Z</time></trkpt><trkpt lat="42.3829127" lon="14.3146264"><ele>10.0</ele><time>2026-05-01T09:14:03.465Z</time></trkpt><trkpt lat="42.3828544" lon="14.3145065"><ele>10.0</ele><time>2026-05-01T09:14:04.471Z</time></trkpt><trkpt lat="42.3828022" lon="14.3143764"><ele>10.0</ele><time>2026-05-01T09:14:05.463Z</time></trkpt><trkpt lat="42.3827675" lon="14.3142471"><ele>10.0</ele><time>2026-05-01T09:14:06.465Z</time></trkpt><trkpt lat="42.3827398" lon="14.3141185"><ele>10.0</ele><time>2026-05-01T09:14:07.467Z</time></trkpt><trkpt lat="42.3827161" lon="14.3139881"><ele>10.2</ele><time>2026-05-01T09:14:08.464Z</time></trkpt><trkpt lat="42.3827016" lon="14.3138473"><ele>10.4</ele><time>2026-05-01T09:14:09.466Z</time></trkpt><trkpt lat="42.3827013" lon="14.3136984"><ele>10.600000000000001</ele><time>2026-05-01T09:14:10.439Z</time></trkpt><trkpt lat="42.3827058" lon="14.3135427"><ele>10.8</ele><time>2026-05-01T09:14:11.446Z</time></trkpt><trkpt lat="42.3827153" lon="14.3133905"><ele>11.0</ele><time>2026-05-01T09:14:12.443Z</time></trkpt><trkpt lat="42.3827194" lon="14.3132284"><ele>11.0</ele><time>2026-05-01T09:14:13.444Z</time></trkpt><trkpt lat="42.3827239" lon="14.3130791"><ele>11.0</ele><time>2026-05-01T09:14:14.448Z</time></trkpt><trkpt lat="42.382728" lon="14.3129221"><ele>11.0</ele><time>2026-05-01T09:14:15.443Z</time></trkpt><trkpt lat="42.3827349" lon="14.3127738"><ele>11.0</ele><time>2026-05-01T09:14:16.442Z</time></trkpt><trkpt lat="42.3827362" lon="14.3126284"><ele>11.0</ele><time>2026-05-01T09:14:17.442Z</time></trkpt><trkpt lat="42.3827348" lon="14.3124843"><ele>11.0</ele><time>2026-05-01T09:14:18.443Z</time></trkpt><trkpt lat="42.3827339" lon="14.3123414"><ele>11.0</ele><time>2026-05-01T09:14:19.442Z</time></trkpt><trkpt lat="42.3827364" lon="14.3122088"><ele>11.0</ele><time>2026-05-01T09:14:20.442Z</time></trkpt><trkpt lat="42.3827365" lon="14.3120727"><ele>11.0</ele><time>2026-05-01T09:14:21.446Z</time></trkpt><trkpt lat="42.3827334" lon="14.3119377"><ele>11.0</ele><time>2026-05-01T09:14:22.443Z</time></trkpt><trkpt lat="42.3827262" lon="14.3118199"><ele>11.166666666666666</ele><time>2026-05-01T09:14:23.444Z</time></trkpt><trkpt lat="42.3827089" lon="14.3117125"><ele>11.333333333333332</ele><time>2026-05-01T09:14:24.441Z</time></trkpt><trkpt lat="42.3826827" lon="14.3116269"><ele>11.5</ele><time>2026-05-01T09:14:25.459Z</time></trkpt><trkpt lat="42.3826384" lon="14.3115544"><ele>11.666666666666666</ele><time>2026-05-01T09:14:26.46Z</time></trkpt><trkpt lat="42.3825817" lon="14.3114946"><ele>11.833333333333334</ele><time>2026-05-01T09:14:27.463Z</time></trkpt><trkpt lat="42.3825248" lon="14.3114577"><ele>12.0</ele><time>2026-05-01T09:14:28.464Z</time></trkpt><trkpt lat="42.3824176" lon="14.3114261"><ele>12.0</ele><time>2026-05-01T09:14:30.44Z</time></trkpt><trkpt lat="42.3823387" lon="14.3114356"><ele>12.0</ele><time>2026-05-01T09:14:31.447Z</time></trkpt><trkpt lat="42.3822582" lon="14.3114469"><ele>12.0</ele><time>2026-05-01T09:14:32.441Z</time></trkpt><trkpt lat="42.3821938" lon="14.3114561"><ele>12.0</ele><time>2026-05-01T09:14:33.438Z</time></trkpt><trkpt lat="42.3821083" lon="14.3115233"><ele>12.0</ele><time>2026-05-01T09:14:35.436Z</time></trkpt><trkpt lat="42.3820649" lon="14.3116053"><ele>12.0</ele><time>2026-05-01T09:14:36.455Z</time></trkpt><trkpt lat="42.382011" lon="14.3117213"><ele>12.25</ele><time>2026-05-01T09:14:37.433Z</time></trkpt><trkpt lat="42.3819358" lon="14.3118617"><ele>12.5</ele><time>2026-05-01T09:14:38.437Z</time></trkpt><trkpt lat="42.3818436" lon="14.312005"><ele>12.75</ele><time>2026-05-01T09:14:39.439Z</time></trkpt><trkpt lat="42.3817554" lon="14.3121269"><ele>13.0</ele><time>2026-05-01T09:14:40.436Z</time></trkpt><trkpt lat="42.381684" lon="14.3122279"><ele>12.833333333333332</ele><time>2026-05-01T09:14:41.433Z</time></trkpt><trkpt lat="42.3816229" lon="14.3123127"><ele>12.666666666666666</ele><time>2026-05-01T09:14:42.439Z</time></trkpt><trkpt lat="42.3815726" lon="14.3123772"><ele>12.5</ele><time>2026-05-01T09:14:43.435Z</time></trkpt><trkpt lat="42.3814766" lon="14.312438"><ele>12.333333333333332</ele><time>2026-05-01T09:14:45.434Z</time></trkpt><trkpt lat="42.381404" lon="14.3124437"><ele>12.166666666666666</ele><time>2026-05-01T09:14:46.467Z</time></trkpt><trkpt lat="42.3813291" lon="14.3124053"><ele>12.0</ele><time>2026-05-01T09:14:47.445Z</time></trkpt><trkpt lat="42.381263" lon="14.3123518"><ele>12.399999999999999</ele><time>2026-05-01T09:14:48.465Z</time></trkpt><trkpt lat="42.3811911" lon="14.3122995"><ele>12.799999999999999</ele><time>2026-05-01T09:14:49.445Z</time></trkpt><trkpt lat="42.3811062" lon="14.3122567"><ele>13.2</ele><time>2026-05-01T09:14:50.432Z</time></trkpt><trkpt lat="42.3810007" lon="14.3122128"><ele>13.6</ele><time>2026-05-01T09:14:51.437Z</time></trkpt><trkpt lat="42.3808877" lon="14.3121682"><ele>14.0</ele><time>2026-05-01T09:14:52.455Z</time></trkpt><trkpt lat="42.3807851" lon="14.3121302"><ele>14.000000000000002</ele><time>2026-05-01T09:14:53.442Z</time></trkpt><trkpt lat="42.3807035" lon="14.3121252"><ele>14.0</ele><time>2026-05-01T09:14:54.447Z</time></trkpt><trkpt lat="42.3806287" lon="14.312125"><ele>14.0</ele><time>2026-05-01T09:14:55.438Z</time></trkpt><trkpt lat="42.3805627" lon="14.3121202"><ele>14.0</ele><time>2026-05-01T09:14:56.467Z</time></trkpt><trkpt lat="42.3804672" lon="14.31209"><ele>14.000000000000002</ele><time>2026-05-01T09:14:58.463Z</time></trkpt><trkpt lat="42.3803688" lon="14.3120347"><ele>14.0</ele><time>2026-05-01T09:15:00.459Z</time></trkpt><trkpt lat="42.3802505" lon="14.3119401"><ele>14.000000000000002</ele><time>2026-05-01T09:15:02.465Z</time></trkpt><trkpt lat="42.3801862" lon="14.3118773"><ele>14.0</ele><time>2026-05-01T09:15:03.458Z</time></trkpt><trkpt lat="42.3801232" lon="14.3118056"><ele>14.0</ele><time>2026-05-01T09:15:04.458Z</time></trkpt><trkpt lat="42.3800733" lon="14.3117528"><ele>14.0</ele><time>2026-05-01T09:15:05.435Z</time></trkpt><trkpt lat="42.3800074" lon="14.3116954"><ele>14.000000000000002</ele><time>2026-05-01T09:15:07.46Z</time></trkpt><trkpt lat="42.3799249" lon="14.3116358"><ele>14.0</ele><time>2026-05-01T09:15:12.457Z</time></trkpt><trkpt lat="42.3798591" lon="14.3115974"><ele>14.000000000000002</ele><time>2026-05-01T09:15:14.46Z</time></trkpt><trkpt lat="42.3797543" lon="14.3115514"><ele>14.0</ele><time>2026-05-01T09:15:16.457Z</time></trkpt><trkpt lat="42.3796923" lon="14.3115318"><ele>14.0</ele><time>2026-05-01T09:15:17.462Z</time></trkpt><trkpt lat="42.3796285" lon="14.3115053"><ele>14.0</ele><time>2026-05-01T09:15:18.458Z</time></trkpt><trkpt lat="42.3795668" lon="14.3114807"><ele>14.000000000000002</ele><time>2026-05-01T09:15:19.437Z</time></trkpt><trkpt lat="42.3794502" lon="14.3114853"><ele>14.0</ele><time>2026-05-01T09:15:21.439Z</time></trkpt><trkpt lat="42.3793816" lon="14.3114902"><ele>14.000000000000002</ele><time>2026-05-01T09:15:22.456Z</time></trkpt><trkpt lat="42.3793048" lon="14.3114831"><ele>14.0</ele><time>2026-05-01T09:15:23.464Z</time></trkpt><trkpt lat="42.3792162" lon="14.3114651"><ele>14.0</ele><time>2026-05-01T09:15:24.46Z</time></trkpt><trkpt lat="42.3791213" lon="14.3114453"><ele>14.0</ele><time>2026-05-01T09:15:25.458Z</time></trkpt><trkpt lat="42.3790374" lon="14.3114421"><ele>14.000000000000002</ele><time>2026-05-01T09:15:26.434Z</time></trkpt><trkpt lat="42.3789591" lon="14.31144"><ele>14.0</ele><time>2026-05-01T09:15:27.439Z</time></trkpt><trkpt lat="42.3788881" lon="14.3114529"><ele>14.166666666666668</ele><time>2026-05-01T09:15:28.458Z</time></trkpt><trkpt lat="42.3788166" lon="14.311462"><ele>14.333333333333334</ele><time>2026-05-01T09:15:29.459Z</time></trkpt><trkpt lat="42.3787454" lon="14.3114777"><ele>14.5</ele><time>2026-05-01T09:15:30.455Z</time></trkpt><trkpt lat="42.3786239" lon="14.3114731"><ele>14.666666666666668</ele><time>2026-05-01T09:15:32.446Z</time></trkpt><trkpt lat="42.3785555" lon="14.3114533"><ele>14.833333333333334</ele><time>2026-05-01T09:15:33.445Z</time></trkpt><trkpt lat="42.378473" lon="14.311414"><ele>15.0</ele><time>2026-05-01T09:15:34.435Z</time></trkpt><trkpt lat="42.3783713" lon="14.3113543"><ele>15.0</ele><time>2026-05-01T09:15:35.453Z</time></trkpt><trkpt lat="42.3782615" lon="14.3113002"><ele>15.0</ele><time>2026-05-01T09:15:36.452Z</time></trkpt><trkpt lat="42.3781565" lon="14.3112492"><ele>15.0</ele><time>2026-05-01T09:15:37.455Z</time></trkpt><trkpt lat="42.3780546" lon="14.3111982"><ele>15.0</ele><time>2026-05-01T09:15:38.432Z</time></trkpt><trkpt lat="42.3779576" lon="14.3111543"><ele>15.0</ele><time>2026-05-01T09:15:39.43Z</time></trkpt><trkpt lat="42.3778659" lon="14.3110997"><ele>15.2</ele><time>2026-05-01T09:15:40.458Z</time></trkpt><trkpt lat="42.3777745" lon="14.3110391"><ele>15.4</ele><time>2026-05-01T09:15:41.456Z</time></trkpt><trkpt lat="42.3776884" lon="14.3109811"><ele>15.600000000000001</ele><time>2026-05-01T09:15:42.439Z</time></trkpt><trkpt lat="42.3776067" lon="14.31092"><ele>15.8</ele><time>2026-05-01T09:15:43.43Z</time></trkpt><trkpt lat="42.3775294" lon="14.3108621"><ele>16.0</ele><time>2026-05-01T09:15:44.438Z</time></trkpt><trkpt lat="42.3774663" lon="14.3108213"><ele>15.999999999999998</ele><time>2026-05-01T09:15:45.434Z</time></trkpt><trkpt lat="42.3773395" lon="14.3107829"><ele>16.0</ele><time>2026-05-01T09:15:47.435Z</time></trkpt><trkpt lat="42.3772697" lon="14.3107688"><ele>16.0</ele><time>2026-05-01T09:15:48.437Z</time></trkpt><trkpt lat="42.3772004" lon="14.3107571"><ele>16.0</ele><time>2026-05-01T09:15:49.43Z</time></trkpt><trkpt lat="42.3771256" lon="14.310739"><ele>15.999999999999998</ele><time>2026-05-01T09:15:50.425Z</time></trkpt><trkpt lat="42.3770504" lon="14.3107222"><ele>16.0</ele><time>2026-05-01T09:15:51.43Z</time></trkpt><trkpt lat="42.3769769" lon="14.3106966"><ele>16.333333333333332</ele><time>2026-05-01T09:15:52.429Z</time></trkpt><trkpt lat="42.3768542" lon="14.3106592"><ele>16.666666666666664</ele><time>2026-05-01T09:15:54.44Z</time></trkpt><trkpt lat="42.376786" lon="14.3106582"><ele>17.0</ele><time>2026-05-01T09:15:55.439Z</time></trkpt><trkpt lat="42.3767083" lon="14.3106727"><ele>17.333333333333332</ele><time>2026-05-01T09:15:56.437Z</time></trkpt><trkpt lat="42.3766208" lon="14.3106817"><ele>17.666666666666668</ele><time>2026-05-01T09:15:57.433Z</time></trkpt><trkpt lat="42.3765326" lon="14.3106699"><ele>18.0</ele><time>2026-05-01T09:15:58.436Z</time></trkpt><trkpt lat="42.37645" lon="14.3106532"><ele>18.0</ele><time>2026-05-01T09:15:59.445Z</time></trkpt><trkpt lat="42.3763656" lon="14.3106405"><ele>18.0</ele><time>2026-05-01T09:16:00.438Z</time></trkpt><trkpt lat="42.3762815" lon="14.3106326"><ele>18.0</ele><time>2026-05-01T09:16:01.439Z</time></trkpt><trkpt lat="42.376201" lon="14.3106218"><ele>18.0</ele><time>2026-05-01T09:16:02.439Z</time></trkpt><trkpt lat="42.3761222" lon="14.3105973"><ele>18.0</ele><time>2026-05-01T09:16:03.431Z</time></trkpt><trkpt lat="42.3760527" lon="14.3105712"><ele>18.0</ele><time>2026-05-01T09:16:04.438Z</time></trkpt><trkpt lat="42.3759769" lon="14.3105539"><ele>17.666666666666668</ele><time>2026-05-01T09:16:05.43Z</time></trkpt><trkpt lat="42.3758974" lon="14.3105383"><ele>17.333333333333332</ele><time>2026-05-01T09:16:06.435Z</time></trkpt><trkpt lat="42.3758187" lon="14.3105285"><ele>17.0</ele><time>2026-05-01T09:16:07.433Z</time></trkpt><trkpt lat="42.3757339" lon="14.3105082"><ele>16.666666666666664</ele><time>2026-05-01T09:16:08.432Z</time></trkpt><trkpt lat="42.3756487" lon="14.3104737"><ele>16.333333333333332</ele><time>2026-05-01T09:16:09.433Z</time></trkpt><trkpt lat="42.375574" lon="14.3104362"><ele>16.0</ele><time>2026-05-01T09:16:10.433Z</time></trkpt><trkpt lat="42.3755141" lon="14.3103992"><ele>16.833333333333332</ele><time>2026-05-01T09:16:11.445Z</time></trkpt><trkpt lat="42.3754517" lon="14.3103535"><ele>17.666666666666664</ele><time>2026-05-01T09:16:12.445Z</time></trkpt><trkpt lat="42.3753852" lon="14.3103083"><ele>18.5</ele><time>2026-05-01T09:16:13.443Z</time></trkpt><trkpt lat="42.3753126" lon="14.3102537"><ele>19.333333333333332</ele><time>2026-05-01T09:16:14.441Z</time></trkpt><trkpt lat="42.3752427" lon="14.3102009"><ele>20.166666666666668</ele><time>2026-05-01T09:16:15.446Z</time></trkpt><trkpt lat="42.3751751" lon="14.310146"><ele>21.0</ele><time>2026-05-01T09:16:16.445Z</time></trkpt><trkpt lat="42.3751017" lon="14.3100793"><ele>21.0</ele><time>2026-05-01T09:16:17.446Z</time></trkpt><trkpt lat="42.3750268" lon="14.3100143"><ele>21.0</ele><time>2026-05-01T09:16:18.444Z</time></trkpt><trkpt lat="42.3749427" lon="14.3099432"><ele>21.0</ele><time>2026-05-01T09:16:19.444Z</time></trkpt><trkpt lat="42.3748746" lon="14.3098847"><ele>21.0</ele><time>2026-05-01T09:16:20.435Z</time></trkpt><trkpt lat="42.3747936" lon="14.3098405"><ele>21.0</ele><time>2026-05-01T09:16:22.436Z</time></trkpt><trkpt lat="42.3747008" lon="14.3098826"><ele>21.166666666666668</ele><time>2026-05-01T09:16:24.424Z</time></trkpt><trkpt lat="42.3746341" lon="14.3099299"><ele>21.333333333333332</ele><time>2026-05-01T09:16:25.433Z</time></trkpt><trkpt lat="42.3745651" lon="14.3099812"><ele>21.5</ele><time>2026-05-01T09:16:26.427Z</time></trkpt><trkpt lat="42.3745074" lon="14.3100217"><ele>21.666666666666664</ele><time>2026-05-01T09:16:27.43Z</time></trkpt><trkpt lat="42.3744298" lon="14.3100658"><ele>21.833333333333332</ele><time>2026-05-01T09:16:29.43Z</time></trkpt><trkpt lat="42.3743629" lon="14.3100877"><ele>22.0</ele><time>2026-05-01T09:16:31.431Z</time></trkpt><trkpt lat="42.3742877" lon="14.310056"><ele>22.0</ele><time>2026-05-01T09:16:33.45Z</time></trkpt><trkpt lat="42.3741654" lon="14.3099656"><ele>22.0</ele><time>2026-05-01T09:16:35.422Z</time></trkpt><trkpt lat="42.3740881" lon="14.3098931"><ele>22.0</ele><time>2026-05-01T09:16:36.414Z</time></trkpt><trkpt lat="42.3740061" lon="14.3098275"><ele>22.0</ele><time>2026-05-01T09:16:37.415Z</time></trkpt><trkpt lat="42.3739244" lon="14.3097519"><ele>22.0</ele><time>2026-05-01T09:16:38.425Z</time></trkpt><trkpt lat="42.3738563" lon="14.3096583"><ele>23.8</ele><time>2026-05-01T09:16:39.412Z</time></trkpt><trkpt lat="42.3737915" lon="14.3095671"><ele>25.6</ele><time>2026-05-01T09:16:40.421Z</time></trkpt><trkpt lat="42.3737153" lon="14.309491"><ele>27.400000000000002</ele><time>2026-05-01T09:16:41.419Z</time></trkpt><trkpt lat="42.3736352" lon="14.309437"><ele>29.200000000000003</ele><time>2026-05-01T09:16:42.423Z</time></trkpt><trkpt lat="42.3735542" lon="14.309389"><ele>31.0</ele><time>2026-05-01T09:16:43.421Z</time></trkpt><trkpt lat="42.3734728" lon="14.3093334"><ele>31.0</ele><time>2026-05-01T09:16:44.429Z</time></trkpt><trkpt lat="42.3733885" lon="14.3092783"><ele>31.0</ele><time>2026-05-01T09:16:45.438Z</time></trkpt><trkpt lat="42.3733039" lon="14.3092219"><ele>31.0</ele><time>2026-05-01T09:16:46.435Z</time></trkpt><trkpt lat="42.3732222" lon="14.3091656"><ele>31.0</ele><time>2026-05-01T09:16:47.435Z</time></trkpt><trkpt lat="42.3731443" lon="14.309099"><ele>31.0</ele><time>2026-05-01T09:16:48.439Z</time></trkpt><trkpt lat="42.3730663" lon="14.3090341"><ele>31.6</ele><time>2026-05-01T09:16:49.434Z</time></trkpt><trkpt lat="42.3729801" lon="14.3089931"><ele>32.2</ele><time>2026-05-01T09:16:50.428Z</time></trkpt><trkpt lat="42.3728875" lon="14.3089504"><ele>32.8</ele><time>2026-05-01T09:16:51.434Z</time></trkpt><trkpt lat="42.3727893" lon="14.3089199"><ele>33.4</ele><time>2026-05-01T09:16:52.428Z</time></trkpt><trkpt lat="42.3726917" lon="14.3089053"><ele>34.0</ele><time>2026-05-01T09:16:53.437Z</time></trkpt><trkpt lat="42.372587" lon="14.3088888"><ele>33.6</ele><time>2026-05-01T09:16:54.427Z</time></trkpt><trkpt lat="42.3724812" lon="14.3088459"><ele>33.2</ele><time>2026-05-01T09:16:55.417Z</time></trkpt><trkpt lat="42.3723851" lon="14.3087936"><ele>32.800000000000004</ele><time>2026-05-01T09:16:56.425Z</time></trkpt><trkpt lat="42.3722918" lon="14.3087333"><ele>32.4</ele><time>2026-05-01T09:16:57.427Z</time></trkpt><trkpt lat="42.3722082" lon="14.3086687"><ele>32.0</ele><time>2026-05-01T09:16:58.431Z</time></trkpt><trkpt lat="42.3721344" lon="14.3086226"><ele>32.0</ele><time>2026-05-01T09:16:59.429Z</time></trkpt><trkpt lat="42.3720708" lon="14.3085796"><ele>31.999999999999996</ele><time>2026-05-01T09:17:00.432Z</time></trkpt><trkpt lat="42.3720138" lon="14.3085368"><ele>32.0</ele><time>2026-05-01T09:17:01.435Z</time></trkpt><trkpt lat="42.3719222" lon="14.3084715"><ele>32.0</ele><time>2026-05-01T09:17:03.43Z</time></trkpt><trkpt lat="42.3718649" lon="14.3084331"><ele>31.999999999999996</ele><time>2026-05-01T09:17:05.438Z</time></trkpt><trkpt lat="42.3717983" lon="14.3083888"><ele>32.0</ele><time>2026-05-01T09:17:08.435Z</time></trkpt><trkpt lat="42.3717419" lon="14.3083316"><ele>32.0</ele><time>2026-05-01T09:17:10.435Z</time></trkpt><trkpt lat="42.3716347" lon="14.3082261"><ele>31.999999999999996</ele><time>2026-05-01T09:17:12.434Z</time></trkpt><trkpt lat="42.3715595" lon="14.3081634"><ele>32.0</ele><time>2026-05-01T09:17:13.431Z</time></trkpt><trkpt lat="42.3714812" lon="14.3081093"><ele>32.0</ele><time>2026-05-01T09:17:14.437Z</time></trkpt><trkpt lat="42.3714008" lon="14.3080589"><ele>32.0</ele><time>2026-05-01T09:17:15.434Z</time></trkpt><trkpt lat="42.3713252" lon="14.3080079"><ele>31.999999999999996</ele><time>2026-05-01T09:17:16.432Z</time></trkpt><trkpt lat="42.3712569" lon="14.3079569"><ele>32.0</ele><time>2026-05-01T09:17:17.437Z</time></trkpt><trkpt lat="42.3711854" lon="14.3078982"><ele>31.666666666666664</ele><time>2026-05-01T09:17:18.436Z</time></trkpt><trkpt lat="42.3711121" lon="14.3078351"><ele>31.333333333333332</ele><time>2026-05-01T09:17:19.434Z</time></trkpt><trkpt lat="42.3710422" lon="14.3077813"><ele>31.0</ele><time>2026-05-01T09:17:20.429Z</time></trkpt><trkpt lat="42.3709718" lon="14.3077255"><ele>30.666666666666664</ele><time>2026-05-01T09:17:21.437Z</time></trkpt><trkpt lat="42.3708998" lon="14.3076617"><ele>30.333333333333332</ele><time>2026-05-01T09:17:22.441Z</time></trkpt><trkpt lat="42.370824" lon="14.3075996"><ele>30.0</ele><time>2026-05-01T09:17:23.438Z</time></trkpt><trkpt lat="42.3707425" lon="14.3075411"><ele>30.0</ele><time>2026-05-01T09:17:24.439Z</time></trkpt><trkpt lat="42.3706574" lon="14.3074736"><ele>30.0</ele><time>2026-05-01T09:17:25.434Z</time></trkpt><trkpt lat="42.3705576" lon="14.3073999"><ele>30.0</ele><time>2026-05-01T09:17:26.442Z</time></trkpt><trkpt lat="42.3704542" lon="14.3073337"><ele>30.0</ele><time>2026-05-01T09:17:27.441Z</time></trkpt><trkpt lat="42.3703453" lon="14.3072645"><ele>30.0</ele><time>2026-05-01T09:17:28.438Z</time></trkpt><trkpt lat="42.3702381" lon="14.3071899"><ele>29.6</ele><time>2026-05-01T09:17:29.44Z</time></trkpt><trkpt lat="42.3701392" lon="14.30713"><ele>29.2</ele><time>2026-05-01T09:17:30.434Z</time></trkpt><trkpt lat="42.3700438" lon="14.3070674"><ele>28.799999999999997</ele><time>2026-05-01T09:17:31.438Z</time></trkpt><trkpt lat="42.369945" lon="14.3070082"><ele>28.4</ele><time>2026-05-01T09:17:32.437Z</time></trkpt><trkpt lat="42.3698442" lon="14.3069548"><ele>28.0</ele><time>2026-05-01T09:17:33.437Z</time></trkpt><trkpt lat="42.3697389" lon="14.3068996"><ele>28.333333333333336</ele><time>2026-05-01T09:17:34.437Z</time></trkpt><trkpt lat="42.3696443" lon="14.3068459"><ele>28.666666666666668</ele><time>2026-05-01T09:17:35.44Z</time></trkpt><trkpt lat="42.3695566" lon="14.3067928"><ele>29.0</ele><time>2026-05-01T09:17:36.441Z</time></trkpt><trkpt lat="42.3694866" lon="14.3067385"><ele>29.333333333333336</ele><time>2026-05-01T09:17:37.433Z</time></trkpt><trkpt lat="42.3694328" lon="14.3066781"><ele>29.666666666666668</ele><time>2026-05-01T09:17:38.431Z</time></trkpt><trkpt lat="42.3693956" lon="14.3066023"><ele>30.0</ele><time>2026-05-01T09:17:39.432Z</time></trkpt><trkpt lat="42.369369" lon="14.3065087"><ele>30.0</ele><time>2026-05-01T09:17:40.439Z</time></trkpt><trkpt lat="42.3693596" lon="14.3064141"><ele>30.0</ele><time>2026-05-01T09:17:41.436Z</time></trkpt><trkpt lat="42.369378" lon="14.306277"><ele>30.0</ele><time>2026-05-01T09:17:43.434Z</time></trkpt><trkpt lat="42.3694321" lon="14.3061196"><ele>30.0</ele><time>2026-05-01T09:17:45.429Z</time></trkpt><trkpt lat="42.3694742" lon="14.3060039"><ele>30.0</ele><time>2026-05-01T09:17:46.438Z</time></trkpt><trkpt lat="42.3695226" lon="14.3058848"><ele>29.5</ele><time>2026-05-01T09:17:47.434Z</time></trkpt><trkpt lat="42.3695727" lon="14.3057811"><ele>29.0</ele><time>2026-05-01T09:17:48.429Z</time></trkpt><trkpt lat="42.3696129" lon="14.3056996"><ele>28.5</ele><time>2026-05-01T09:17:49.428Z</time></trkpt><trkpt lat="42.3696769" lon="14.3055883"><ele>28.0</ele><time>2026-05-01T09:17:51.436Z</time></trkpt><trkpt lat="42.3697184" lon="14.305505"><ele>27.5</ele><time>2026-05-01T09:17:53.434Z</time></trkpt><trkpt lat="42.3697609" lon="14.3053943"><ele>27.0</ele><time>2026-05-01T09:17:55.429Z</time></trkpt><trkpt lat="42.3697975" lon="14.3052788"><ele>25.8</ele><time>2026-05-01T09:17:56.427Z</time></trkpt><trkpt lat="42.3698471" lon="14.3051451"><ele>24.6</ele><time>2026-05-01T09:17:57.436Z</time></trkpt><trkpt lat="42.369903" lon="14.3049948"><ele>23.400000000000002</ele><time>2026-05-01T09:17:58.432Z</time></trkpt><trkpt lat="42.3699505" lon="14.3048566"><ele>22.200000000000003</ele><time>2026-05-01T09:17:59.437Z</time></trkpt><trkpt lat="42.3699932" lon="14.3047481"><ele>21.0</ele><time>2026-05-01T09:18:00.43Z</time></trkpt><trkpt lat="42.3700259" lon="14.3046618"><ele>21.0</ele><time>2026-05-01T09:18:01.436Z</time></trkpt><trkpt lat="42.3700671" lon="14.3045379"><ele>21.0</ele><time>2026-05-01T09:18:03.43Z</time></trkpt><trkpt lat="42.370025" lon="14.304642"><ele>21.0</ele><time>2026-05-01T09:18:11.435Z</time></trkpt><trkpt lat="42.3699993" lon="14.3047544"><ele>21.0</ele><time>2026-05-01T09:18:12.441Z</time></trkpt><trkpt lat="42.3699488" lon="14.3048904"><ele>21.0</ele><time>2026-05-01T09:18:13.438Z</time></trkpt><trkpt lat="42.3698925" lon="14.305035"><ele>20.5</ele><time>2026-05-01T09:18:14.434Z</time></trkpt><trkpt lat="42.3698277" lon="14.3052023"><ele>20.0</ele><time>2026-05-01T09:18:15.435Z</time></trkpt><trkpt lat="42.369752" lon="14.3053769"><ele>19.5</ele><time>2026-05-01T09:18:16.434Z</time></trkpt><trkpt lat="42.3696815" lon="14.3055471"><ele>19.0</ele><time>2026-05-01T09:18:17.435Z</time></trkpt><trkpt lat="42.3696218" lon="14.3056902"><ele>20.6</ele><time>2026-05-01T09:18:18.441Z</time></trkpt><trkpt lat="42.3695675" lon="14.3058285"><ele>22.2</ele><time>2026-05-01T09:18:19.436Z</time></trkpt><trkpt lat="42.3695095" lon="14.3059547"><ele>23.800000000000004</ele><time>2026-05-01T09:18:20.439Z</time></trkpt><trkpt lat="42.369455" lon="14.3060758"><ele>25.400000000000002</ele><time>2026-05-01T09:18:21.433Z</time></trkpt><trkpt lat="42.3694063" lon="14.3061871"><ele>27.0</ele><time>2026-05-01T09:18:22.431Z</time></trkpt><trkpt lat="42.3693744" lon="14.3062856"><ele>27.0</ele><time>2026-05-01T09:18:23.43Z</time></trkpt><trkpt lat="42.3693299" lon="14.3063966"><ele>27.000000000000004</ele><time>2026-05-01T09:18:25.429Z</time></trkpt><trkpt lat="42.3692403" lon="14.3063716"><ele>27.000000000000004</ele><time>2026-05-01T09:18:27.434Z</time></trkpt><trkpt lat="42.3691775" lon="14.3063036"><ele>27.0</ele><time>2026-05-01T09:18:28.427Z</time></trkpt><trkpt lat="42.369106" lon="14.3062206"><ele>27.0</ele><time>2026-05-01T09:18:29.429Z</time></trkpt><trkpt lat="42.3690169" lon="14.3061187"><ele>27.0</ele><time>2026-05-01T09:18:30.429Z</time></trkpt><trkpt lat="42.3689133" lon="14.3060119"><ele>27.0</ele><time>2026-05-01T09:18:31.433Z</time></trkpt><trkpt lat="42.3688138" lon="14.3059019"><ele>27.0</ele><time>2026-05-01T09:18:32.432Z</time></trkpt><trkpt lat="42.3687114" lon="14.3058064"><ele>27.0</ele><time>2026-05-01T09:18:33.434Z</time></trkpt><trkpt lat="42.3686201" lon="14.3057082"><ele>27.166666666666668</ele><time>2026-05-01T09:18:34.435Z</time></trkpt><trkpt lat="42.3685347" lon="14.3056314"><ele>27.333333333333336</ele><time>2026-05-01T09:18:35.434Z</time></trkpt><trkpt lat="42.3684639" lon="14.305562"><ele>27.5</ele><time>2026-05-01T09:18:36.431Z</time></trkpt><trkpt lat="42.3684045" lon="14.3054979"><ele>27.666666666666668</ele><time>2026-05-01T09:18:37.428Z</time></trkpt><trkpt lat="42.3683413" lon="14.3054329"><ele>27.833333333333336</ele><time>2026-05-01T09:18:39.43Z</time></trkpt><trkpt lat="42.3682574" lon="14.3054822"><ele>28.0</ele><time>2026-05-01T09:18:42.43Z</time></trkpt><trkpt lat="42.368186" lon="14.3056023"><ele>28.2</ele><time>2026-05-01T09:18:44.442Z</time></trkpt><trkpt lat="42.3681213" lon="14.3057098"><ele>28.4</ele><time>2026-05-01T09:18:45.428Z</time></trkpt><trkpt lat="42.3680335" lon="14.3058381"><ele>28.599999999999998</ele><time>2026-05-01T09:18:46.427Z</time></trkpt><trkpt lat="42.3679521" lon="14.3059413"><ele>28.799999999999997</ele><time>2026-05-01T09:18:47.434Z</time></trkpt><trkpt lat="42.3678807" lon="14.3060213"><ele>29.0</ele><time>2026-05-01T09:18:48.436Z</time></trkpt><trkpt lat="42.3678084" lon="14.3060706"><ele>29.0</ele><time>2026-05-01T09:18:49.443Z</time></trkpt><trkpt lat="42.3677319" lon="14.3060985"><ele>29.0</ele><time>2026-05-01T09:18:50.434Z</time></trkpt><trkpt lat="42.3676328" lon="14.3061142"><ele>29.0</ele><time>2026-05-01T09:18:51.433Z</time></trkpt><trkpt lat="42.3675092" lon="14.3061188"><ele>29.0</ele><time>2026-05-01T09:18:52.441Z</time></trkpt><trkpt lat="42.3673883" lon="14.306131"><ele>29.0</ele><time>2026-05-01T09:18:53.436Z</time></trkpt><trkpt lat="42.3672708" lon="14.3061316"><ele>30.6</ele><time>2026-05-01T09:18:54.431Z</time></trkpt><trkpt lat="42.36716" lon="14.3061118"><ele>32.2</ele><time>2026-05-01T09:18:55.423Z</time></trkpt><trkpt lat="42.3670669" lon="14.3060814"><ele>33.800000000000004</ele><time>2026-05-01T09:18:56.425Z</time></trkpt><trkpt lat="42.3669977" lon="14.3060384"><ele>35.4</ele><time>2026-05-01T09:18:57.426Z</time></trkpt><trkpt lat="42.3669249" lon="14.3059795"><ele>37.0</ele><time>2026-05-01T09:18:58.42Z</time></trkpt><trkpt lat="42.3668441" lon="14.3059195"><ele>37.0</ele><time>2026-05-01T09:18:59.426Z</time></trkpt><trkpt lat="42.3667611" lon="14.3058907"><ele>37.0</ele><time>2026-05-01T09:19:00.427Z</time></trkpt><trkpt lat="42.3666743" lon="14.3059062"><ele>37.0</ele><time>2026-05-01T09:19:01.422Z</time></trkpt><trkpt lat="42.3665859" lon="14.3059282"><ele>37.0</ele><time>2026-05-01T09:19:02.424Z</time></trkpt><trkpt lat="42.3665018" lon="14.3059507"><ele>37.0</ele><time>2026-05-01T09:19:03.43Z</time></trkpt><trkpt lat="42.3664265" lon="14.3059639"><ele>37.0</ele><time>2026-05-01T09:19:04.426Z</time></trkpt><trkpt lat="42.3663587" lon="14.3059722"><ele>37.0</ele><time>2026-05-01T09:19:05.429Z</time></trkpt><trkpt lat="42.3662409" lon="14.3059837"><ele>37.0</ele><time>2026-05-01T09:19:07.426Z</time></trkpt><trkpt lat="42.3661785" lon="14.3060025"><ele>37.0</ele><time>2026-05-01T09:19:08.421Z</time></trkpt><trkpt lat="42.3661214" lon="14.3060459"><ele>37.0</ele><time>2026-05-01T09:19:09.429Z</time></trkpt><trkpt lat="42.366072" lon="14.3061055"><ele>37.0</ele><time>2026-05-01T09:19:10.426Z</time></trkpt><trkpt lat="42.3660119" lon="14.3061673"><ele>37.0</ele><time>2026-05-01T09:19:11.425Z</time></trkpt><trkpt lat="42.3659516" lon="14.306207"><ele>37.0</ele><time>2026-05-01T09:19:12.42Z</time></trkpt><trkpt lat="42.3658902" lon="14.30623"><ele>37.0</ele><time>2026-05-01T09:19:13.426Z</time></trkpt><trkpt lat="42.3658149" lon="14.3062375"><ele>37.0</ele><time>2026-05-01T09:19:14.42Z</time></trkpt><trkpt lat="42.3657365" lon="14.3062392"><ele>37.0</ele><time>2026-05-01T09:19:15.425Z</time></trkpt><trkpt lat="42.3656539" lon="14.3062295"><ele>37.0</ele><time>2026-05-01T09:19:16.423Z</time></trkpt><trkpt lat="42.3655908" lon="14.3062231"><ele>37.0</ele><time>2026-05-01T09:19:17.428Z</time></trkpt><trkpt lat="42.3654995" lon="14.3062017"><ele>37.333333333333336</ele><time>2026-05-01T09:19:19.429Z</time></trkpt><trkpt lat="42.3653785" lon="14.3062097"><ele>37.66666666666667</ele><time>2026-05-01T09:19:21.432Z</time></trkpt><trkpt lat="42.3653107" lon="14.3061962"><ele>38.0</ele><time>2026-05-01T09:19:22.428Z</time></trkpt><trkpt lat="42.3652454" lon="14.3061789"><ele>38.333333333333336</ele><time>2026-05-01T09:19:23.429Z</time></trkpt><trkpt lat="42.3651859" lon="14.3061449"><ele>38.666666666666664</ele><time>2026-05-01T09:19:24.429Z</time></trkpt><trkpt lat="42.3651232" lon="14.3061264"><ele>39.0</ele><time>2026-05-01T09:19:25.426Z</time></trkpt><trkpt lat="42.3650583" lon="14.3061137"><ele>39.0</ele><time>2026-05-01T09:19:26.428Z</time></trkpt><trkpt lat="42.3649888" lon="14.3061058"><ele>39.0</ele><time>2026-05-01T09:19:27.433Z</time></trkpt><trkpt lat="42.3648595" lon="14.3061354"><ele>39.0</ele><time>2026-05-01T09:19:29.436Z</time></trkpt><trkpt lat="42.3647834" lon="14.3061526"><ele>39.0</ele><time>2026-05-01T09:19:30.432Z</time></trkpt><trkpt lat="42.3647041" lon="14.3061863"><ele>39.0</ele><time>2026-05-01T09:19:31.435Z</time></trkpt><trkpt lat="42.3646263" lon="14.3062233"><ele>39.0</ele><time>2026-05-01T09:19:32.435Z</time></trkpt><trkpt lat="42.3645482" lon="14.3062648"><ele>38.833333333333336</ele><time>2026-05-01T09:19:33.433Z</time></trkpt><trkpt lat="42.3644732" lon="14.3063147"><ele>38.666666666666664</ele><time>2026-05-01T09:19:34.431Z</time></trkpt><trkpt lat="42.3644049" lon="14.306371"><ele>38.5</ele><time>2026-05-01T09:19:35.427Z</time></trkpt><trkpt lat="42.3643337" lon="14.3064289"><ele>38.33333333333333</ele><time>2026-05-01T09:19:36.421Z</time></trkpt><trkpt lat="42.3642543" lon="14.3064935"><ele>38.166666666666664</ele><time>2026-05-01T09:19:37.429Z</time></trkpt><trkpt lat="42.3641851" lon="14.3065661"><ele>38.0</ele><time>2026-05-01T09:19:38.428Z</time></trkpt><trkpt lat="42.3641109" lon="14.3066389"><ele>38.166666666666664</ele><time>2026-05-01T09:19:39.425Z</time></trkpt><trkpt lat="42.364046" lon="14.3067033"><ele>38.33333333333333</ele><time>2026-05-01T09:19:40.424Z</time></trkpt><trkpt lat="42.3639913" lon="14.3067571"><ele>38.5</ele><time>2026-05-01T09:19:41.421Z</time></trkpt><trkpt lat="42.363938" lon="14.3068082"><ele>38.666666666666664</ele><time>2026-05-01T09:19:42.43Z</time></trkpt><trkpt lat="42.3638849" lon="14.3068591"><ele>38.833333333333336</ele><time>2026-05-01T09:19:43.427Z</time></trkpt><trkpt lat="42.3638266" lon="14.3069061"><ele>39.0</ele><time>2026-05-01T09:19:44.44Z</time></trkpt><trkpt lat="42.3637168" lon="14.3069634"><ele>39.0</ele><time>2026-05-01T09:19:46.42Z</time></trkpt><trkpt lat="42.3636416" lon="14.3069903"><ele>39.0</ele><time>2026-05-01T09:19:47.431Z</time></trkpt><trkpt lat="42.3635582" lon="14.3070016"><ele>39.0</ele><time>2026-05-01T09:19:48.435Z</time></trkpt><trkpt lat="42.3634708" lon="14.307022"><ele>39.0</ele><time>2026-05-01T09:19:49.434Z</time></trkpt><trkpt lat="42.3633779" lon="14.3070406"><ele>39.0</ele><time>2026-05-01T09:19:50.432Z</time></trkpt><trkpt lat="42.3632907" lon="14.3070435"><ele>39.0</ele><time>2026-05-01T09:19:51.435Z</time></trkpt><trkpt lat="42.3632126" lon="14.3070428"><ele>39.0</ele><time>2026-05-01T09:19:52.434Z</time></trkpt><trkpt lat="42.3631468" lon="14.3070398"><ele>39.0</ele><time>2026-05-01T09:19:53.435Z</time></trkpt><trkpt lat="42.3630777" lon="14.3070304"><ele>39.0</ele><time>2026-05-01T09:19:54.437Z</time></trkpt><trkpt lat="42.3630119" lon="14.3070271"><ele>39.0</ele><time>2026-05-01T09:19:55.433Z</time></trkpt><trkpt lat="42.3628613" lon="14.3069954"><ele>39.0</ele><time>2026-05-01T09:19:57.432Z</time></trkpt><trkpt lat="42.3627603" lon="14.3069729"><ele>38.8</ele><time>2026-05-01T09:19:58.429Z</time></trkpt><trkpt lat="42.3626591" lon="14.3069543"><ele>38.599999999999994</ele><time>2026-05-01T09:19:59.437Z</time></trkpt><trkpt lat="42.362549" lon="14.3069318"><ele>38.4</ele><time>2026-05-01T09:20:00.432Z</time></trkpt><trkpt lat="42.3624394" lon="14.3069093"><ele>38.199999999999996</ele><time>2026-05-01T09:20:01.433Z</time></trkpt><trkpt lat="42.3623431" lon="14.3068974"><ele>38.0</ele><time>2026-05-01T09:20:02.428Z</time></trkpt><trkpt lat="42.362259" lon="14.3068951"><ele>37.8</ele><time>2026-05-01T09:20:03.428Z</time></trkpt><trkpt lat="42.3621771" lon="14.306889"><ele>37.599999999999994</ele><time>2026-05-01T09:20:04.426Z</time></trkpt><trkpt lat="42.3620877" lon="14.3068806"><ele>37.400000000000006</ele><time>2026-05-01T09:20:05.429Z</time></trkpt><trkpt lat="42.3619934" lon="14.306884"><ele>37.2</ele><time>2026-05-01T09:20:06.424Z</time></trkpt><trkpt lat="42.3618911" lon="14.3068829"><ele>37.0</ele><time>2026-05-01T09:20:07.423Z</time></trkpt><trkpt lat="42.3617967" lon="14.3068858"><ele>37.0</ele><time>2026-05-01T09:20:08.427Z</time></trkpt><trkpt lat="42.3617187" lon="14.3068783"><ele>37.0</ele><time>2026-05-01T09:20:09.425Z</time></trkpt><trkpt lat="42.3616526" lon="14.3068637"><ele>37.0</ele><time>2026-05-01T09:20:10.421Z</time></trkpt><trkpt lat="42.361581" lon="14.3068497"><ele>37.0</ele><time>2026-05-01T09:20:11.427Z</time></trkpt><trkpt lat="42.3615151" lon="14.3068313"><ele>37.0</ele><time>2026-05-01T09:20:12.423Z</time></trkpt><trkpt lat="42.3614503" lon="14.3067903"><ele>37.0</ele><time>2026-05-01T09:20:13.419Z</time></trkpt><trkpt lat="42.3613829" lon="14.3067349"><ele>37.0</ele><time>2026-05-01T09:20:14.422Z</time></trkpt><trkpt lat="42.3613168" lon="14.3066627"><ele>37.0</ele><time>2026-05-01T09:20:15.424Z</time></trkpt><trkpt lat="42.3612554" lon="14.3065939"><ele>37.0</ele><time>2026-05-01T09:20:16.425Z</time></trkpt><trkpt lat="42.361194" lon="14.3065327"><ele>37.0</ele><time>2026-05-01T09:20:17.425Z</time></trkpt><trkpt lat="42.3611332" lon="14.3064908"><ele>37.0</ele><time>2026-05-01T09:20:18.426Z</time></trkpt><trkpt lat="42.3610541" lon="14.3064583"><ele>37.0</ele><time>2026-05-01T09:20:19.425Z</time></trkpt><trkpt lat="42.3609509" lon="14.3064382"><ele>37.0</ele><time>2026-05-01T09:20:20.421Z</time></trkpt><trkpt lat="42.3608258" lon="14.3064115"><ele>35.25</ele><time>2026-05-01T09:20:21.434Z</time></trkpt><trkpt lat="42.3607118" lon="14.3063822"><ele>33.5</ele><time>2026-05-01T09:20:22.424Z</time></trkpt><trkpt lat="42.3605991" lon="14.3063469"><ele>31.75</ele><time>2026-05-01T09:20:23.418Z</time></trkpt><trkpt lat="42.3604872" lon="14.3062974"><ele>30.0</ele><time>2026-05-01T09:20:24.429Z</time></trkpt><trkpt lat="42.3603933" lon="14.3062488"><ele>29.4</ele><time>2026-05-01T09:20:25.425Z</time></trkpt><trkpt lat="42.3603008" lon="14.3061854"><ele>28.8</ele><time>2026-05-01T09:20:26.43Z</time></trkpt><trkpt lat="42.3602027" lon="14.3061329"><ele>28.200000000000003</ele><time>2026-05-01T09:20:27.428Z</time></trkpt><trkpt lat="42.3601113" lon="14.3060967"><ele>27.6</ele><time>2026-05-01T09:20:28.434Z</time></trkpt><trkpt lat="42.360035" lon="14.3060787"><ele>27.0</ele><time>2026-05-01T09:20:29.428Z</time></trkpt><trkpt lat="42.3599577" lon="14.3060697"><ele>27.0</ele><time>2026-05-01T09:20:30.427Z</time></trkpt><trkpt lat="42.3598737" lon="14.3060766"><ele>27.000000000000004</ele><time>2026-05-01T09:20:31.429Z</time></trkpt><trkpt lat="42.3597973" lon="14.3061045"><ele>27.000000000000004</ele><time>2026-05-01T09:20:32.425Z</time></trkpt><trkpt lat="42.3597114" lon="14.3061566"><ele>27.0</ele><time>2026-05-01T09:20:33.432Z</time></trkpt><trkpt lat="42.3596086" lon="14.3062153"><ele>27.0</ele><time>2026-05-01T09:20:34.425Z</time></trkpt><trkpt lat="42.3595078" lon="14.3062537"><ele>28.0</ele><time>2026-05-01T09:20:35.427Z</time></trkpt><trkpt lat="42.3594026" lon="14.3062877"><ele>29.000000000000004</ele><time>2026-05-01T09:20:36.43Z</time></trkpt><trkpt lat="42.3592972" lon="14.3063302"><ele>30.000000000000004</ele><time>2026-05-01T09:20:37.428Z</time></trkpt><trkpt lat="42.3592017" lon="14.3063616"><ele>31.0</ele><time>2026-05-01T09:20:38.424Z</time></trkpt><trkpt lat="42.359132" lon="14.3063923"><ele>32.0</ele><time>2026-05-01T09:20:39.424Z</time></trkpt><trkpt lat="42.3590734" lon="14.306433"><ele>32.2</ele><time>2026-05-01T09:20:40.427Z</time></trkpt><trkpt lat="42.3590204" lon="14.3065007"><ele>32.400000000000006</ele><time>2026-05-01T09:20:41.419Z</time></trkpt><trkpt lat="42.3589723" lon="14.3065866"><ele>32.599999999999994</ele><time>2026-05-01T09:20:42.426Z</time></trkpt><trkpt lat="42.3589095" lon="14.3066979"><ele>32.8</ele><time>2026-05-01T09:20:43.425Z</time></trkpt><trkpt lat="42.3588292" lon="14.3068307"><ele>33.0</ele><time>2026-05-01T09:20:44.422Z</time></trkpt><trkpt lat="42.3587339" lon="14.3069609"><ele>32.666666666666664</ele><time>2026-05-01T09:20:45.417Z</time></trkpt><trkpt lat="42.3586462" lon="14.3070555"><ele>32.333333333333336</ele><time>2026-05-01T09:20:46.419Z</time></trkpt><trkpt lat="42.3585653" lon="14.3071039"><ele>32.0</ele><time>2026-05-01T09:20:47.418Z</time></trkpt><trkpt lat="42.3584923" lon="14.3071291"><ele>31.666666666666668</ele><time>2026-05-01T09:20:48.417Z</time></trkpt><trkpt lat="42.3584181" lon="14.3071332"><ele>31.333333333333336</ele><time>2026-05-01T09:20:49.418Z</time></trkpt><trkpt lat="42.3583479" lon="14.307121"><ele>31.0</ele><time>2026-05-01T09:20:50.418Z</time></trkpt><trkpt lat="42.3582653" lon="14.3070887"><ele>31.0</ele><time>2026-05-01T09:20:51.418Z</time></trkpt><trkpt lat="42.3581645" lon="14.3070341"><ele>31.0</ele><time>2026-05-01T09:20:52.411Z</time></trkpt><trkpt lat="42.3580416" lon="14.3069621"><ele>31.0</ele><time>2026-05-01T09:20:53.423Z</time></trkpt><trkpt lat="42.3579093" lon="14.3068842"><ele>31.0</ele><time>2026-05-01T09:20:54.428Z</time></trkpt><trkpt lat="42.3577627" lon="14.3067911"><ele>31.25</ele><time>2026-05-01T09:20:55.425Z</time></trkpt><trkpt lat="42.3576414" lon="14.306724"><ele>31.5</ele><time>2026-05-01T09:20:56.428Z</time></trkpt><trkpt lat="42.3575492" lon="14.3066664"><ele>31.75</ele><time>2026-05-01T09:20:57.431Z</time></trkpt><trkpt lat="42.3574379" lon="14.3066211"><ele>32.0</ele><time>2026-05-01T09:20:58.432Z</time></trkpt><trkpt lat="42.3573307" lon="14.3065723"><ele>32.0</ele><time>2026-05-01T09:20:59.43Z</time></trkpt><trkpt lat="42.3572338" lon="14.3065338"><ele>32.0</ele><time>2026-05-01T09:21:00.429Z</time></trkpt><trkpt lat="42.3571297" lon="14.3064942"><ele>32.0</ele><time>2026-05-01T09:21:01.429Z</time></trkpt><trkpt lat="42.3570337" lon="14.3064519"><ele>32.0</ele><time>2026-05-01T09:21:02.432Z</time></trkpt><trkpt lat="42.3569477" lon="14.3064101"><ele>32.0</ele><time>2026-05-01T09:21:03.43Z</time></trkpt><trkpt lat="42.3568597" lon="14.3063731"><ele>31.8</ele><time>2026-05-01T09:21:04.431Z</time></trkpt><trkpt lat="42.3567629" lon="14.306345"><ele>31.6</ele><time>2026-05-01T09:21:05.432Z</time></trkpt><trkpt lat="42.3566662" lon="14.3063313"><ele>31.400000000000002</ele><time>2026-05-01T09:21:06.43Z</time></trkpt><trkpt lat="42.3565757" lon="14.306326"><ele>31.200000000000003</ele><time>2026-05-01T09:21:07.43Z</time></trkpt><trkpt lat="42.3564854" lon="14.3063193"><ele>31.0</ele><time>2026-05-01T09:21:08.428Z</time></trkpt><trkpt lat="42.3564002" lon="14.3063235"><ele>31.4</ele><time>2026-05-01T09:21:09.427Z</time></trkpt><trkpt lat="42.3563146" lon="14.3063342"><ele>31.8</ele><time>2026-05-01T09:21:10.427Z</time></trkpt><trkpt lat="42.3562264" lon="14.3063589"><ele>32.199999999999996</ele><time>2026-05-01T09:21:11.43Z</time></trkpt><trkpt lat="42.35613" lon="14.3063891"><ele>32.6</ele><time>2026-05-01T09:21:12.428Z</time></trkpt><trkpt lat="42.356022" lon="14.3064282"><ele>33.0</ele><time>2026-05-01T09:21:13.427Z</time></trkpt><trkpt lat="42.3559079" lon="14.3064669"><ele>33.5</ele><time>2026-05-01T09:21:14.433Z</time></trkpt><trkpt lat="42.3557882" lon="14.306496"><ele>34.0</ele><time>2026-05-01T09:21:15.429Z</time></trkpt><trkpt lat="42.355674" lon="14.3065324"><ele>34.5</ele><time>2026-05-01T09:21:16.425Z</time></trkpt><trkpt lat="42.355558" lon="14.3065649"><ele>35.0</ele><time>2026-05-01T09:21:17.43Z</time></trkpt><trkpt lat="42.3554368" lon="14.3066056"><ele>35.0</ele><time>2026-05-01T09:21:18.429Z</time></trkpt><trkpt lat="42.3553181" lon="14.3066518"><ele>35.0</ele><time>2026-05-01T09:21:19.429Z</time></trkpt><trkpt lat="42.3552072" lon="14.306709"><ele>35.0</ele><time>2026-05-01T09:21:20.426Z</time></trkpt><trkpt lat="42.3550945" lon="14.3067654"><ele>35.0</ele><time>2026-05-01T09:21:21.429Z</time></trkpt><trkpt lat="42.3549754" lon="14.3068215"><ele>35.0</ele><time>2026-05-01T09:21:22.425Z</time></trkpt><trkpt lat="42.3548561" lon="14.3068758"><ele>35.0</ele><time>2026-05-01T09:21:23.43Z</time></trkpt><trkpt lat="42.3547354" lon="14.3069242"><ele>35.0</ele><time>2026-05-01T09:21:24.427Z</time></trkpt><trkpt lat="42.3546115" lon="14.3069694"><ele>35.0</ele><time>2026-05-01T09:21:25.429Z</time></trkpt><trkpt lat="42.3544954" lon="14.307014"><ele>35.0</ele><time>2026-05-01T09:21:26.43Z</time></trkpt><trkpt lat="42.354387" lon="14.3070565"><ele>35.0</ele><time>2026-05-01T09:21:27.426Z</time></trkpt><trkpt lat="42.3542867" lon="14.3070956"><ele>35.0</ele><time>2026-05-01T09:21:28.43Z</time></trkpt><trkpt lat="42.3541898" lon="14.3071427"><ele>35.0</ele><time>2026-05-01T09:21:29.428Z</time></trkpt><trkpt lat="42.3540961" lon="14.3072009"><ele>35.0</ele><time>2026-05-01T09:21:30.425Z</time></trkpt><trkpt lat="42.3540081" lon="14.3072613"><ele>36.0</ele><time>2026-05-01T09:21:31.432Z</time></trkpt><trkpt lat="42.3539243" lon="14.3073232"><ele>37.0</ele><time>2026-05-01T09:21:32.427Z</time></trkpt><trkpt lat="42.3538452" lon="14.3073812"><ele>38.0</ele><time>2026-05-01T09:21:33.429Z</time></trkpt><trkpt lat="42.353761" lon="14.3074252"><ele>39.0</ele><time>2026-05-01T09:21:34.429Z</time></trkpt><trkpt lat="42.353672" lon="14.307448"><ele>40.0</ele><time>2026-05-01T09:21:35.427Z</time></trkpt><trkpt lat="42.3535773" lon="14.3074337"><ele>40.0</ele><time>2026-05-01T09:21:36.421Z</time></trkpt><trkpt lat="42.3534763" lon="14.3074113"><ele>40.0</ele><time>2026-05-01T09:21:37.415Z</time></trkpt><trkpt lat="42.3533897" lon="14.3073997"><ele>40.0</ele><time>2026-05-01T09:21:38.412Z</time></trkpt><trkpt lat="42.35332" lon="14.3074229"><ele>40.0</ele><time>2026-05-01T09:21:39.422Z</time></trkpt><trkpt lat="42.3532555" lon="14.3074706"><ele>40.0</ele><time>2026-05-01T09:21:40.415Z</time></trkpt><trkpt lat="42.3531863" lon="14.3075578"><ele>40.0</ele><time>2026-05-01T09:21:41.424Z</time></trkpt><trkpt lat="42.3531096" lon="14.3076373"><ele>39.66666666666667</ele><time>2026-05-01T09:21:42.421Z</time></trkpt><trkpt lat="42.3530275" lon="14.307702"><ele>39.333333333333336</ele><time>2026-05-01T09:21:43.421Z</time></trkpt><trkpt lat="42.3529482" lon="14.3077513"><ele>39.0</ele><time>2026-05-01T09:21:44.42Z</time></trkpt><trkpt lat="42.352869" lon="14.3077859"><ele>38.666666666666664</ele><time>2026-05-01T09:21:45.425Z</time></trkpt><trkpt lat="42.3527973" lon="14.3077947"><ele>38.33333333333333</ele><time>2026-05-01T09:21:46.423Z</time></trkpt><trkpt lat="42.3527206" lon="14.307755"><ele>38.0</ele><time>2026-05-01T09:21:47.426Z</time></trkpt><trkpt lat="42.3526311" lon="14.3076903"><ele>38.0</ele><time>2026-05-01T09:21:48.432Z</time></trkpt><trkpt lat="42.3525562" lon="14.3076297"><ele>38.0</ele><time>2026-05-01T09:21:49.423Z</time></trkpt><trkpt lat="42.3524939" lon="14.30759"><ele>38.0</ele><time>2026-05-01T09:21:50.423Z</time></trkpt><trkpt lat="42.3524286" lon="14.3075741"><ele>38.0</ele><time>2026-05-01T09:21:51.426Z</time></trkpt><trkpt lat="42.3523409" lon="14.3075765"><ele>38.0</ele><time>2026-05-01T09:21:52.426Z</time></trkpt><trkpt lat="42.3522272" lon="14.3075958"><ele>38.0</ele><time>2026-05-01T09:21:53.426Z</time></trkpt><trkpt lat="42.3521097" lon="14.307617"><ele>38.25</ele><time>2026-05-01T09:21:54.431Z</time></trkpt><trkpt lat="42.3519821" lon="14.3076406"><ele>38.5</ele><time>2026-05-01T09:21:55.428Z</time></trkpt><trkpt lat="42.3518446" lon="14.3076651"><ele>38.75</ele><time>2026-05-01T09:21:56.428Z</time></trkpt><trkpt lat="42.3517079" lon="14.307682"><ele>39.0</ele><time>2026-05-01T09:21:57.422Z</time></trkpt><trkpt lat="42.3515716" lon="14.3076942"><ele>39.0</ele><time>2026-05-01T09:21:58.429Z</time></trkpt><trkpt lat="42.3514344" lon="14.3077213"><ele>39.0</ele><time>2026-05-01T09:21:59.436Z</time></trkpt><trkpt lat="42.3512987" lon="14.30775"><ele>39.0</ele><time>2026-05-01T09:22:00.433Z</time></trkpt><trkpt lat="42.351167" lon="14.3077776"><ele>39.0</ele><time>2026-05-01T09:22:01.434Z</time></trkpt><trkpt lat="42.3510412" lon="14.3077946"><ele>39.8</ele><time>2026-05-01T09:22:02.433Z</time></trkpt><trkpt lat="42.350918" lon="14.3078104"><ele>40.599999999999994</ele><time>2026-05-01T09:22:03.435Z</time></trkpt><trkpt lat="42.3508048" lon="14.3078197"><ele>41.4</ele><time>2026-05-01T09:22:04.429Z</time></trkpt><trkpt lat="42.3507021" lon="14.3078227"><ele>42.199999999999996</ele><time>2026-05-01T09:22:05.427Z</time></trkpt><trkpt lat="42.3506078" lon="14.3078237"><ele>43.0</ele><time>2026-05-01T09:22:06.43Z</time></trkpt><trkpt lat="42.3505071" lon="14.307826"><ele>43.25</ele><time>2026-05-01T09:22:07.422Z</time></trkpt><trkpt lat="42.3504" lon="14.3078422"><ele>43.5</ele><time>2026-05-01T09:22:08.424Z</time></trkpt><trkpt lat="42.3502875" lon="14.3078796"><ele>43.75</ele><time>2026-05-01T09:22:09.429Z</time></trkpt><trkpt lat="42.3501664" lon="14.3079323"><ele>44.0</ele><time>2026-05-01T09:22:10.43Z</time></trkpt><trkpt lat="42.3500431" lon="14.3080019"><ele>44.0</ele><time>2026-05-01T09:22:11.431Z</time></trkpt><trkpt lat="42.3499217" lon="14.3080757"><ele>44.0</ele><time>2026-05-01T09:22:12.434Z</time></trkpt><trkpt lat="42.3498109" lon="14.3081388"><ele>44.0</ele><time>2026-05-01T09:22:13.428Z</time></trkpt><trkpt lat="42.3497099" lon="14.3081918"><ele>44.0</ele><time>2026-05-01T09:22:14.434Z</time></trkpt><trkpt lat="42.3496154" lon="14.3082466"><ele>43.83333333333333</ele><time>2026-05-01T09:22:15.432Z</time></trkpt><trkpt lat="42.3495241" lon="14.3082877"><ele>43.666666666666664</ele><time>2026-05-01T09:22:16.433Z</time></trkpt><trkpt lat="42.3494436" lon="14.3083255"><ele>43.5</ele><time>2026-05-01T09:22:17.43Z</time></trkpt><trkpt lat="42.3493704" lon="14.3083578"><ele>43.333333333333336</ele><time>2026-05-01T09:22:18.428Z</time></trkpt><trkpt lat="42.3493047" lon="14.3083634"><ele>43.16666666666667</ele><time>2026-05-01T09:22:19.434Z</time></trkpt><trkpt lat="42.3492079" lon="14.3082974"><ele>43.0</ele><time>2026-05-01T09:22:21.432Z</time></trkpt><trkpt lat="42.3491732" lon="14.3081075"><ele>42.833333333333336</ele><time>2026-05-01T09:22:23.428Z</time></trkpt><trkpt lat="42.3491749" lon="14.3079991"><ele>42.66666666666667</ele><time>2026-05-01T09:22:24.428Z</time></trkpt><trkpt lat="42.349173" lon="14.307906"><ele>42.5</ele><time>2026-05-01T09:22:25.427Z</time></trkpt><trkpt lat="42.3490875" lon="14.3078172"><ele>42.333333333333336</ele><time>2026-05-01T09:22:27.432Z</time></trkpt><trkpt lat="42.3490213" lon="14.3078222"><ele>42.166666666666664</ele><time>2026-05-01T09:22:28.426Z</time></trkpt><trkpt lat="42.3489588" lon="14.3078082"><ele>42.0</ele><time>2026-05-01T09:22:29.422Z</time></trkpt><trkpt lat="42.3488833" lon="14.3076751"><ele>42.0</ele><time>2026-05-01T09:22:31.426Z</time></trkpt><trkpt lat="42.3488723" lon="14.3075547"><ele>42.0</ele><time>2026-05-01T09:22:32.421Z</time></trkpt><trkpt lat="42.3488535" lon="14.3074142"><ele>42.0</ele><time>2026-05-01T09:22:33.424Z</time></trkpt><trkpt lat="42.3488274" lon="14.3072759"><ele>42.0</ele><time>2026-05-01T09:22:34.427Z</time></trkpt><trkpt lat="42.3487999" lon="14.3071302"><ele>42.0</ele><time>2026-05-01T09:22:35.427Z</time></trkpt><trkpt lat="42.3487712" lon="14.3069926"><ele>42.0</ele><time>2026-05-01T09:22:36.424Z</time></trkpt><trkpt lat="42.3487402" lon="14.3068576"><ele>42.0</ele><time>2026-05-01T09:22:37.426Z</time></trkpt><trkpt lat="42.3487094" lon="14.3067414"><ele>42.0</ele><time>2026-05-01T09:22:38.426Z</time></trkpt><trkpt lat="42.3486669" lon="14.3066432"><ele>42.0</ele><time>2026-05-01T09:22:39.426Z</time></trkpt><trkpt lat="42.3486248" lon="14.3065567"><ele>42.0</ele><time>2026-05-01T09:22:40.427Z</time></trkpt><trkpt lat="42.348591" lon="14.3064796"><ele>42.0</ele><time>2026-05-01T09:22:41.433Z</time></trkpt><trkpt lat="42.3485648" lon="14.3063437"><ele>42.0</ele><time>2026-05-01T09:22:43.429Z</time></trkpt><trkpt lat="42.3486101" lon="14.3062437"><ele>42.0</ele><time>2026-05-01T09:22:45.429Z</time></trkpt><trkpt lat="42.348685" lon="14.3061678"><ele>42.0</ele><time>2026-05-01T09:22:47.428Z</time></trkpt><trkpt lat="42.3487847" lon="14.3060486"><ele>42.0</ele><time>2026-05-01T09:22:49.431Z</time></trkpt><trkpt lat="42.3488387" lon="14.3059669"><ele>42.0</ele><time>2026-05-01T09:22:50.435Z</time></trkpt><trkpt lat="42.3488881" lon="14.3058699"><ele>42.0</ele><time>2026-05-01T09:22:51.43Z</time></trkpt><trkpt lat="42.3489237" lon="14.3057715"><ele>42.0</ele><time>2026-05-01T09:22:52.428Z</time></trkpt><trkpt lat="42.3489317" lon="14.3056824"><ele>42.0</ele><time>2026-05-01T09:22:53.422Z</time></trkpt><trkpt lat="42.3488744" lon="14.305552"><ele>42.0</ele><time>2026-05-01T09:22:55.429Z</time></trkpt><trkpt lat="42.3488249" lon="14.305491"><ele>42.0</ele><time>2026-05-01T09:22:56.427Z</time></trkpt><trkpt lat="42.3487717" lon="14.3054344"><ele>42.0</ele><time>2026-05-01T09:22:57.423Z</time></trkpt><trkpt lat="42.348715" lon="14.3053909"><ele>44.166666666666664</ele><time>2026-05-01T09:22:58.431Z</time></trkpt><trkpt lat="42.348612" lon="14.3053738"><ele>46.33333333333333</ele><time>2026-05-01T09:23:00.421Z</time></trkpt><trkpt lat="42.3485386" lon="14.3053626"><ele>48.5</ele><time>2026-05-01T09:23:05.425Z</time></trkpt><trkpt lat="42.3484743" lon="14.3053584"><ele>50.666666666666664</ele><time>2026-05-01T09:23:08.423Z</time></trkpt><trkpt lat="42.3484133" lon="14.3053861"><ele>52.83333333333333</ele><time>2026-05-01T09:23:09.432Z</time></trkpt><trkpt lat="42.348331" lon="14.3054668"><ele>55.0</ele><time>2026-05-01T09:23:10.426Z</time></trkpt><trkpt lat="42.3482438" lon="14.3055786"><ele>55.0</ele><time>2026-05-01T09:23:11.42Z</time></trkpt><trkpt lat="42.3481393" lon="14.3057056"><ele>55.0</ele><time>2026-05-01T09:23:12.423Z</time></trkpt><trkpt lat="42.3480209" lon="14.3058428"><ele>55.0</ele><time>2026-05-01T09:23:13.425Z</time></trkpt><trkpt lat="42.3478918" lon="14.3059838"><ele>55.0</ele><time>2026-05-01T09:23:14.433Z</time></trkpt><trkpt lat="42.3477137" lon="14.3061334"><ele>55.0</ele><time>2026-05-01T09:23:15.425Z</time></trkpt><trkpt lat="42.3475931" lon="14.3062855"><ele>55.0</ele><time>2026-05-01T09:23:16.428Z</time></trkpt><trkpt lat="42.3474884" lon="14.3064007"><ele>54.25</ele><time>2026-05-01T09:23:17.422Z</time></trkpt><trkpt lat="42.3473694" lon="14.3064744"><ele>53.5</ele><time>2026-05-01T09:23:18.416Z</time></trkpt><trkpt lat="42.347228" lon="14.3065244"><ele>52.75</ele><time>2026-05-01T09:23:19.419Z</time></trkpt><trkpt lat="42.3470946" lon="14.3066055"><ele>52.0</ele><time>2026-05-01T09:23:20.424Z</time></trkpt><trkpt lat="42.3469749" lon="14.3066648"><ele>52.0</ele><time>2026-05-01T09:23:21.43Z</time></trkpt><trkpt lat="42.3468542" lon="14.3067148"><ele>52.0</ele><time>2026-05-01T09:23:22.425Z</time></trkpt><trkpt lat="42.3467375" lon="14.3067688"><ele>52.0</ele><time>2026-05-01T09:23:23.423Z</time></trkpt><trkpt lat="42.3466253" lon="14.3068332"><ele>52.0</ele><time>2026-05-01T09:23:24.428Z</time></trkpt><trkpt lat="42.3464992" lon="14.3069011"><ele>52.25</ele><time>2026-05-01T09:23:25.422Z</time></trkpt><trkpt lat="42.3463614" lon="14.3069607"><ele>52.5</ele><time>2026-05-01T09:23:26.423Z</time></trkpt><trkpt lat="42.3462226" lon="14.3070245"><ele>52.75</ele><time>2026-05-01T09:23:27.43Z</time></trkpt><trkpt lat="42.3460989" lon="14.3070831"><ele>53.0</ele><time>2026-05-01T09:23:28.43Z</time></trkpt><trkpt lat="42.3459705" lon="14.3071428"><ele>53.0</ele><time>2026-05-01T09:23:29.434Z</time></trkpt><trkpt lat="42.345852" lon="14.3072175"><ele>53.0</ele><time>2026-05-01T09:23:30.431Z</time></trkpt><trkpt lat="42.3457272" lon="14.3072764"><ele>53.0</ele><time>2026-05-01T09:23:31.429Z</time></trkpt><trkpt lat="42.345609" lon="14.3073395"><ele>53.0</ele><time>2026-05-01T09:23:32.427Z</time></trkpt><trkpt lat="42.3454784" lon="14.3074146"><ele>51.75</ele><time>2026-05-01T09:23:33.427Z</time></trkpt><trkpt lat="42.3453536" lon="14.3075049"><ele>50.5</ele><time>2026-05-01T09:23:34.428Z</time></trkpt><trkpt lat="42.345223" lon="14.3075815"><ele>49.25</ele><time>2026-05-01T09:23:35.426Z</time></trkpt><trkpt lat="42.3450882" lon="14.3076607"><ele>48.0</ele><time>2026-05-01T09:23:36.425Z</time></trkpt><trkpt lat="42.344963" lon="14.3077552"><ele>48.0</ele><time>2026-05-01T09:23:37.432Z</time></trkpt><trkpt lat="42.3448253" lon="14.3078318"><ele>48.0</ele><time>2026-05-01T09:23:38.43Z</time></trkpt><trkpt lat="42.3446921" lon="14.307922"><ele>48.0</ele><time>2026-05-01T09:23:39.429Z</time></trkpt><trkpt lat="42.3445515" lon="14.3080094"><ele>46.75</ele><time>2026-05-01T09:23:40.428Z</time></trkpt><trkpt lat="42.3444247" lon="14.3080983"><ele>45.5</ele><time>2026-05-01T09:23:41.43Z</time></trkpt><trkpt lat="42.3442991" lon="14.308149"><ele>44.25</ele><time>2026-05-01T09:23:42.433Z</time></trkpt><trkpt lat="42.3441818" lon="14.3082239"><ele>43.0</ele><time>2026-05-01T09:23:43.423Z</time></trkpt><trkpt lat="42.3440618" lon="14.3082886"><ele>43.0</ele><time>2026-05-01T09:23:44.427Z</time></trkpt><trkpt lat="42.3439499" lon="14.3083674"><ele>43.0</ele><time>2026-05-01T09:23:45.432Z</time></trkpt><trkpt lat="42.3438569" lon="14.3084032"><ele>43.0</ele><time>2026-05-01T09:23:46.424Z</time></trkpt><trkpt lat="42.3437679" lon="14.3084581"><ele>43.0</ele><time>2026-05-01T09:23:47.427Z</time></trkpt><trkpt lat="42.3436906" lon="14.3084815"><ele>43.0</ele><time>2026-05-01T09:23:48.424Z</time></trkpt><trkpt lat="42.3435863" lon="14.3084917"><ele>43.0</ele><time>2026-05-01T09:23:50.426Z</time></trkpt><trkpt lat="42.3434821" lon="14.3084945"><ele>43.0</ele><time>2026-05-01T09:23:52.422Z</time></trkpt><trkpt lat="42.3433886" lon="14.3085159"><ele>43.0</ele><time>2026-05-01T09:23:54.427Z</time></trkpt><trkpt lat="42.3433011" lon="14.3085116"><ele>43.0</ele><time>2026-05-01T09:23:56.425Z</time></trkpt><trkpt lat="42.3431857" lon="14.3084599"><ele>43.0</ele><time>2026-05-01T09:23:58.422Z</time></trkpt><trkpt lat="42.3431285" lon="14.3084062"><ele>43.0</ele><time>2026-05-01T09:23:59.429Z</time></trkpt><trkpt lat="42.3430668" lon="14.3083347"><ele>43.0</ele><time>2026-05-01T09:24:00.426Z</time></trkpt><trkpt lat="42.3429975" lon="14.3082498"><ele>43.0</ele><time>2026-05-01T09:24:01.426Z</time></trkpt><trkpt lat="42.3429234" lon="14.3081586"><ele>43.0</ele><time>2026-05-01T09:24:02.418Z</time></trkpt><trkpt lat="42.342847" lon="14.308069"><ele>43.0</ele><time>2026-05-01T09:24:03.421Z</time></trkpt><trkpt lat="42.3427781" lon="14.3079915"><ele>43.714285714285715</ele><time>2026-05-01T09:24:04.423Z</time></trkpt><trkpt lat="42.3427133" lon="14.3079173"><ele>44.42857142857143</ele><time>2026-05-01T09:24:05.423Z</time></trkpt><trkpt lat="42.3426465" lon="14.3078523"><ele>45.14285714285714</ele><time>2026-05-01T09:24:06.424Z</time></trkpt><trkpt lat="42.3425843" lon="14.3078091"><ele>45.85714285714286</ele><time>2026-05-01T09:24:07.421Z</time></trkpt><trkpt lat="42.3425206" lon="14.3077747"><ele>46.57142857142857</ele><time>2026-05-01T09:24:08.421Z</time></trkpt><trkpt lat="42.3424566" lon="14.3077546"><ele>47.285714285714285</ele><time>2026-05-01T09:24:09.408Z</time></trkpt><trkpt lat="42.3423856" lon="14.3077545"><ele>48.0</ele><time>2026-05-01T09:24:10.417Z</time></trkpt><trkpt lat="42.3423045" lon="14.3077532"><ele>48.0</ele><time>2026-05-01T09:24:11.42Z</time></trkpt><trkpt lat="42.3422184" lon="14.307771"><ele>48.0</ele><time>2026-05-01T09:24:12.411Z</time></trkpt><trkpt lat="42.3421183" lon="14.3078076"><ele>48.0</ele><time>2026-05-01T09:24:13.422Z</time></trkpt><trkpt lat="42.3420177" lon="14.3078556"><ele>48.0</ele><time>2026-05-01T09:24:14.424Z</time></trkpt><trkpt lat="42.3419245" lon="14.307905"><ele>48.0</ele><time>2026-05-01T09:24:15.422Z</time></trkpt><trkpt lat="42.3418425" lon="14.3079517"><ele>47.833333333333336</ele><time>2026-05-01T09:24:16.412Z</time></trkpt><trkpt lat="42.3417789" lon="14.3079935"><ele>47.666666666666664</ele><time>2026-05-01T09:24:17.422Z</time></trkpt><trkpt lat="42.3417206" lon="14.3080421"><ele>47.5</ele><time>2026-05-01T09:24:18.422Z</time></trkpt><trkpt lat="42.3416443" lon="14.3080947"><ele>47.33333333333333</ele><time>2026-05-01T09:24:19.422Z</time></trkpt><trkpt lat="42.3415708" lon="14.3081459"><ele>47.166666666666664</ele><time>2026-05-01T09:24:20.415Z</time></trkpt><trkpt lat="42.3414836" lon="14.3081921"><ele>47.0</ele><time>2026-05-01T09:24:21.418Z</time></trkpt><trkpt lat="42.3413829" lon="14.3082479"><ele>46.400000000000006</ele><time>2026-05-01T09:24:22.422Z</time></trkpt><trkpt lat="42.3412759" lon="14.3083011"><ele>45.800000000000004</ele><time>2026-05-01T09:24:23.421Z</time></trkpt><trkpt lat="42.3411705" lon="14.3083442"><ele>45.2</ele><time>2026-05-01T09:24:24.421Z</time></trkpt><trkpt lat="42.3410739" lon="14.3083804"><ele>44.6</ele><time>2026-05-01T09:24:25.419Z</time></trkpt><trkpt lat="42.3409846" lon="14.3084134"><ele>44.0</ele><time>2026-05-01T09:24:26.424Z</time></trkpt><trkpt lat="42.3409052" lon="14.3084411"><ele>44.0</ele><time>2026-05-01T09:24:27.42Z</time></trkpt><trkpt lat="42.3408322" lon="14.3084657"><ele>44.0</ele><time>2026-05-01T09:24:28.427Z</time></trkpt><trkpt lat="42.3407614" lon="14.3084918"><ele>44.0</ele><time>2026-05-01T09:24:29.425Z</time></trkpt><trkpt lat="42.3406957" lon="14.3085112"><ele>44.0</ele><time>2026-05-01T09:24:30.424Z</time></trkpt><trkpt lat="42.3406281" lon="14.3085355"><ele>44.0</ele><time>2026-05-01T09:24:31.432Z</time></trkpt><trkpt lat="42.3405604" lon="14.3085446"><ele>44.0</ele><time>2026-05-01T09:24:32.424Z</time></trkpt><trkpt lat="42.3404966" lon="14.3085502"><ele>44.0</ele><time>2026-05-01T09:24:33.426Z</time></trkpt><trkpt lat="42.3403977" lon="14.3085646"><ele>44.33333333333333</ele><time>2026-05-01T09:24:35.425Z</time></trkpt><trkpt lat="42.3403282" lon="14.3085646"><ele>44.666666666666664</ele><time>2026-05-01T09:24:38.429Z</time></trkpt><trkpt lat="42.3402326" lon="14.3085749"><ele>45.0</ele><time>2026-05-01T09:25:02.426Z</time></trkpt><trkpt lat="42.3401625" lon="14.3085699"><ele>45.333333333333336</ele><time>2026-05-01T09:25:04.423Z</time></trkpt><trkpt lat="42.3400968" lon="14.3085785"><ele>45.66666666666667</ele><time>2026-05-01T09:25:07.424Z</time></trkpt><trkpt lat="42.3400079" lon="14.3085722"><ele>46.0</ele><time>2026-05-01T09:25:10.427Z</time></trkpt><trkpt lat="42.3399428" lon="14.3085608"><ele>46.0</ele><time>2026-05-01T09:25:13.422Z</time></trkpt><trkpt lat="42.3398654" lon="14.3085265"><ele>46.0</ele><time>2026-05-01T09:25:17.425Z</time></trkpt><trkpt lat="42.3398015" lon="14.3084974"><ele>46.0</ele><time>2026-05-01T09:25:19.429Z</time></trkpt><trkpt lat="42.3397241" lon="14.3084692"><ele>46.0</ele><time>2026-05-01T09:25:21.424Z</time></trkpt><trkpt lat="42.339642" lon="14.3084184"><ele>46.0</ele><time>2026-05-01T09:25:23.424Z</time></trkpt><trkpt lat="42.3395313" lon="14.3083498"><ele>46.0</ele><time>2026-05-01T09:25:25.424Z</time></trkpt><trkpt lat="42.339426" lon="14.3082869"><ele>45.8</ele><time>2026-05-01T09:25:27.423Z</time></trkpt><trkpt lat="42.33933" lon="14.3082225"><ele>45.599999999999994</ele><time>2026-05-01T09:25:29.424Z</time></trkpt><trkpt lat="42.3392379" lon="14.3081293"><ele>45.4</ele><time>2026-05-01T09:25:31.431Z</time></trkpt><trkpt lat="42.3391432" lon="14.3079948"><ele>45.2</ele><time>2026-05-01T09:25:33.428Z</time></trkpt><trkpt lat="42.3390879" lon="14.3079112"><ele>45.0</ele><time>2026-05-01T09:25:34.425Z</time></trkpt><trkpt lat="42.339044" lon="14.3078303"><ele>45.4</ele><time>2026-05-01T09:25:35.418Z</time></trkpt><trkpt lat="42.3389912" lon="14.307709"><ele>45.8</ele><time>2026-05-01T09:25:37.423Z</time></trkpt><trkpt lat="42.338935" lon="14.3076126"><ele>46.2</ele><time>2026-05-01T09:25:39.424Z</time></trkpt><trkpt lat="42.3388708" lon="14.3075092"><ele>46.6</ele><time>2026-05-01T09:25:41.425Z</time></trkpt><trkpt lat="42.3387973" lon="14.3073913"><ele>47.0</ele><time>2026-05-01T09:25:43.423Z</time></trkpt><trkpt lat="42.3387378" lon="14.3072957"><ele>47.83333333333333</ele><time>2026-05-01T09:25:45.429Z</time></trkpt><trkpt lat="42.3386748" lon="14.3072312"><ele>48.666666666666664</ele><time>2026-05-01T09:25:47.426Z</time></trkpt><trkpt lat="42.3386033" lon="14.3071729"><ele>49.5</ele><time>2026-05-01T09:25:49.431Z</time></trkpt><trkpt lat="42.3385369" lon="14.3070998"><ele>50.33333333333333</ele><time>2026-05-01T09:25:51.43Z</time></trkpt><trkpt lat="42.338449" lon="14.3070175"><ele>51.166666666666664</ele><time>2026-05-01T09:25:53.429Z</time></trkpt><trkpt lat="42.3383884" lon="14.3069718"><ele>52.0</ele><time>2026-05-01T09:25:54.424Z</time></trkpt><trkpt lat="42.3383289" lon="14.306926"><ele>51.99999999999999</ele><time>2026-05-01T09:25:55.428Z</time></trkpt><trkpt lat="42.3382725" lon="14.3068793"><ele>52.0</ele><time>2026-05-01T09:25:56.423Z</time></trkpt><trkpt lat="42.3382212" lon="14.3068281"><ele>52.0</ele><time>2026-05-01T09:25:57.429Z</time></trkpt><trkpt lat="42.3381265" lon="14.3067357"><ele>52.0</ele><time>2026-05-01T09:25:59.427Z</time></trkpt><trkpt lat="42.3380408" lon="14.3066591"><ele>51.99999999999999</ele><time>2026-05-01T09:26:01.425Z</time></trkpt><trkpt lat="42.3379553" lon="14.3066051"><ele>52.0</ele><time>2026-05-01T09:26:03.419Z</time></trkpt><trkpt lat="42.3378433" lon="14.306586"><ele>51.57142857142857</ele><time>2026-05-01T09:26:05.421Z</time></trkpt><trkpt lat="42.337768" lon="14.3065829"><ele>51.142857142857146</ele><time>2026-05-01T09:29:15.434Z</time></trkpt><trkpt lat="42.3377043" lon="14.3065878"><ele>50.714285714285715</ele><time>2026-05-01T09:29:19.429Z</time></trkpt><trkpt lat="42.3376373" lon="14.3065955"><ele>50.285714285714285</ele><time>2026-05-01T09:29:21.432Z</time></trkpt><trkpt lat="42.3375612" lon="14.3066103"><ele>49.85714285714286</ele><time>2026-05-01T09:29:23.433Z</time></trkpt><trkpt lat="42.3374943" lon="14.3066357"><ele>49.42857142857143</ele><time>2026-05-01T09:29:25.431Z</time></trkpt><trkpt lat="42.3374106" lon="14.3066546"><ele>49.0</ele><time>2026-05-01T09:29:28.435Z</time></trkpt><trkpt lat="42.3373435" lon="14.3066725"><ele>48.99999999999999</ele><time>2026-05-01T09:29:30.43Z</time></trkpt><trkpt lat="42.3372512" lon="14.3066712"><ele>49.0</ele><time>2026-05-01T09:29:32.426Z</time></trkpt><trkpt lat="42.3371903" lon="14.3066494"><ele>49.0</ele><time>2026-05-01T09:29:34.42Z</time></trkpt><trkpt lat="42.3370985" lon="14.3066374"><ele>49.0</ele><time>2026-05-01T09:29:37.422Z</time></trkpt><trkpt lat="42.337021" lon="14.3065979"><ele>48.99999999999999</ele><time>2026-05-01T09:29:40.43Z</time></trkpt><trkpt lat="42.3369433" lon="14.3065677"><ele>49.0</ele><time>2026-05-01T09:29:43.426Z</time></trkpt><trkpt lat="42.3368317" lon="14.3065394"><ele>49.33333333333333</ele><time>2026-05-01T09:29:45.426Z</time></trkpt><trkpt lat="42.3367612" lon="14.3065178"><ele>49.666666666666664</ele><time>2026-05-01T09:29:46.424Z</time></trkpt><trkpt lat="42.3366971" lon="14.3065031"><ele>50.0</ele><time>2026-05-01T09:29:47.43Z</time></trkpt><trkpt lat="42.3365951" lon="14.306485"><ele>50.33333333333333</ele><time>2026-05-01T09:29:49.428Z</time></trkpt><trkpt lat="42.3365272" lon="14.3064655"><ele>50.666666666666664</ele><time>2026-05-01T09:29:51.433Z</time></trkpt><trkpt lat="42.3364571" lon="14.3064485"><ele>51.0</ele><time>2026-05-01T09:29:53.433Z</time></trkpt><trkpt lat="42.3363755" lon="14.3064514"><ele>51.833333333333336</ele><time>2026-05-01T09:29:56.435Z</time></trkpt><trkpt lat="42.3363159" lon="14.3063937"><ele>52.66666666666667</ele><time>2026-05-01T09:31:50.439Z</time></trkpt><trkpt lat="42.3362367" lon="14.3063604"><ele>53.5</ele><time>2026-05-01T09:31:53.432Z</time></trkpt><trkpt lat="42.3361853" lon="14.3063095"><ele>54.333333333333336</ele><time>2026-05-01T09:31:56.426Z</time></trkpt><trkpt lat="42.3361161" lon="14.3062517"><ele>55.16666666666667</ele><time>2026-05-01T09:32:00.434Z</time></trkpt><trkpt lat="42.3360499" lon="14.3061783"><ele>56.0</ele><time>2026-05-01T09:32:02.431Z</time></trkpt><trkpt lat="42.3359905" lon="14.3060998"><ele>56.0</ele><time>2026-05-01T09:32:04.43Z</time></trkpt><trkpt lat="42.3359169" lon="14.305989"><ele>55.99999999999999</ele><time>2026-05-01T09:32:06.436Z</time></trkpt><trkpt lat="42.3358489" lon="14.3058859"><ele>55.99999999999999</ele><time>2026-05-01T09:32:08.43Z</time></trkpt><trkpt lat="42.3357729" lon="14.3057883"><ele>56.0</ele><time>2026-05-01T09:32:13.436Z</time></trkpt><trkpt lat="42.3357266" lon="14.305723"><ele>56.0</ele><time>2026-05-01T09:32:16.434Z</time></trkpt><trkpt lat="42.3356493" lon="14.3056797"><ele>56.00000000000001</ele><time>2026-05-01T09:32:23.43Z</time></trkpt><trkpt lat="42.3356571" lon="14.3055911"><ele>56.0</ele><time>2026-05-01T09:32:27.427Z</time></trkpt><trkpt lat="42.3356969" lon="14.3054993"><ele>56.0</ele><time>2026-05-01T09:32:29.436Z</time></trkpt><trkpt lat="42.3357581" lon="14.3053633"><ele>56.0</ele><time>2026-05-01T09:32:31.44Z</time></trkpt><trkpt lat="42.335785" lon="14.3052822"><ele>56.00000000000001</ele><time>2026-05-01T09:32:32.439Z</time></trkpt><trkpt lat="42.3358158" lon="14.305186"><ele>56.0</ele><time>2026-05-01T09:32:33.44Z</time></trkpt><trkpt lat="42.3358429" lon="14.3051025"><ele>57.4</ele><time>2026-05-01T09:32:34.445Z</time></trkpt><trkpt lat="42.3358897" lon="14.3049578"><ele>58.8</ele><time>2026-05-01T09:32:36.44Z</time></trkpt><trkpt lat="42.3358899" lon="14.3047935"><ele>60.199999999999996</ele><time>2026-05-01T09:32:38.435Z</time></trkpt><trkpt lat="42.3358467" lon="14.3046836"><ele>61.599999999999994</ele><time>2026-05-01T09:32:40.431Z</time></trkpt><trkpt lat="42.3357984" lon="14.3045756"><ele>63.0</ele><time>2026-05-01T09:34:10.432Z</time></trkpt><trkpt lat="42.335766" lon="14.304501"><ele>64.0</ele><time>2026-05-01T09:34:11.438Z</time></trkpt><trkpt lat="42.335728" lon="14.3044248"><ele>65.0</ele><time>2026-05-01T09:34:12.434Z</time></trkpt><trkpt lat="42.3356695" lon="14.3043555"><ele>66.0</ele><time>2026-05-01T09:34:13.439Z</time></trkpt><trkpt lat="42.3356059" lon="14.3042906"><ele>67.0</ele><time>2026-05-01T09:34:14.438Z</time></trkpt><trkpt lat="42.3355479" lon="14.3042445"><ele>68.0</ele><time>2026-05-01T09:34:15.437Z</time></trkpt><trkpt lat="42.3354919" lon="14.304191"><ele>69.0</ele><time>2026-05-01T09:34:16.43Z</time></trkpt><trkpt lat="42.3354376" lon="14.3041347"><ele>70.0</ele><time>2026-05-01T09:34:18.44Z</time></trkpt><trkpt lat="42.3354069" lon="14.3040122"><ele>70.0</ele><time>2026-05-01T09:34:20.43Z</time></trkpt><trkpt lat="42.3353889" lon="14.3039189"><ele>70.0</ele><time>2026-05-01T09:34:21.436Z</time></trkpt><trkpt lat="42.3353612" lon="14.3038329"><ele>70.0</ele><time>2026-05-01T09:34:22.436Z</time></trkpt><trkpt lat="42.3352732" lon="14.3037328"><ele>70.0</ele><time>2026-05-01T09:34:24.438Z</time></trkpt><trkpt lat="42.3352483" lon="14.3036268"><ele>70.0</ele><time>2026-05-01T09:34:27.436Z</time></trkpt><trkpt lat="42.3352445" lon="14.3035396"><ele>70.0</ele><time>2026-05-01T09:34:32.436Z</time></trkpt><trkpt lat="42.3351856" lon="14.3034809"><ele>69.8</ele><time>2026-05-01T09:34:35.428Z</time></trkpt><trkpt lat="42.335087" lon="14.3034919"><ele>69.6</ele><time>2026-05-01T09:34:37.434Z</time></trkpt><trkpt lat="42.3349776" lon="14.3034942"><ele>69.4</ele><time>2026-05-01T09:34:39.433Z</time></trkpt><trkpt lat="42.3348555" lon="14.3034851"><ele>69.2</ele><time>2026-05-01T09:39:34.443Z</time></trkpt><trkpt lat="42.3347848" lon="14.3034578"><ele>69.0</ele><time>2026-05-01T09:39:36.438Z</time></trkpt><trkpt lat="42.3346952" lon="14.3033621"><ele>69.0</ele><time>2026-05-01T09:39:38.44Z</time></trkpt><trkpt lat="42.3346341" lon="14.3032952"><ele>69.0</ele><time>2026-05-01T09:39:39.439Z</time></trkpt><trkpt lat="42.3345669" lon="14.3032264"><ele>69.0</ele><time>2026-05-01T09:39:40.436Z</time></trkpt><trkpt lat="42.3344858" lon="14.3031375"><ele>69.0</ele><time>2026-05-01T09:39:41.441Z</time></trkpt><trkpt lat="42.3344104" lon="14.3030391"><ele>69.0</ele><time>2026-05-01T09:39:42.44Z</time></trkpt><trkpt lat="42.3343606" lon="14.3029346"><ele>70.8</ele><time>2026-05-01T09:39:43.439Z</time></trkpt><trkpt lat="42.3343189" lon="14.3028227"><ele>72.60000000000001</ele><time>2026-05-01T09:39:44.437Z</time></trkpt><trkpt lat="42.3342688" lon="14.3027031"><ele>74.4</ele><time>2026-05-01T09:39:45.438Z</time></trkpt><trkpt lat="42.3342159" lon="14.3025873"><ele>76.2</ele><time>2026-05-01T09:39:46.437Z</time></trkpt><trkpt lat="42.3341617" lon="14.3024768"><ele>78.0</ele><time>2026-05-01T09:39:47.432Z</time></trkpt><trkpt lat="42.3340968" lon="14.3023703"><ele>78.0</ele><time>2026-05-01T09:39:48.441Z</time></trkpt><trkpt lat="42.3340188" lon="14.3022742"><ele>78.0</ele><time>2026-05-01T09:39:49.435Z</time></trkpt><trkpt lat="42.3339306" lon="14.3021794"><ele>78.0</ele><time>2026-05-01T09:39:50.429Z</time></trkpt><trkpt lat="42.3338414" lon="14.3020677"><ele>78.0</ele><time>2026-05-01T09:39:51.432Z</time></trkpt><trkpt lat="42.3337613" lon="14.301951"><ele>76.6</ele><time>2026-05-01T09:39:52.434Z</time></trkpt><trkpt lat="42.333692" lon="14.3018378"><ele>75.19999999999999</ele><time>2026-05-01T09:39:53.428Z</time></trkpt><trkpt lat="42.3336259" lon="14.3017188"><ele>73.8</ele><time>2026-05-01T09:39:54.421Z</time></trkpt><trkpt lat="42.3335595" lon="14.301605"><ele>72.39999999999999</ele><time>2026-05-01T09:39:55.425Z</time></trkpt><trkpt lat="42.3334899" lon="14.3015246"><ele>71.0</ele><time>2026-05-01T09:39:56.42Z</time></trkpt><trkpt lat="42.3334204" lon="14.3014822"><ele>71.0</ele><time>2026-05-01T09:39:57.426Z</time></trkpt><trkpt lat="42.3333578" lon="14.301465"><ele>71.0</ele><time>2026-05-01T09:39:58.433Z</time></trkpt><trkpt lat="42.333238" lon="14.3015122"><ele>71.0</ele><time>2026-05-01T09:40:00.44Z</time></trkpt><trkpt lat="42.3331667" lon="14.3015735"><ele>71.0</ele><time>2026-05-01T09:40:01.427Z</time></trkpt><trkpt lat="42.3330894" lon="14.3016536"><ele>71.0</ele><time>2026-05-01T09:40:02.423Z</time></trkpt><trkpt lat="42.3329926" lon="14.3017368"><ele>70.0</ele><time>2026-05-01T09:40:03.427Z</time></trkpt><trkpt lat="42.33289" lon="14.3018075"><ele>69.0</ele><time>2026-05-01T09:40:04.43Z</time></trkpt><trkpt lat="42.3327796" lon="14.3018391"><ele>68.0</ele><time>2026-05-01T09:40:05.435Z</time></trkpt><trkpt lat="42.3326517" lon="14.3018246"><ele>67.0</ele><time>2026-05-01T09:40:06.433Z</time></trkpt><trkpt lat="42.3325156" lon="14.3017825"><ele>67.0</ele><time>2026-05-01T09:40:07.437Z</time></trkpt><trkpt lat="42.3323783" lon="14.3017216"><ele>67.0</ele><time>2026-05-01T09:40:08.432Z</time></trkpt><trkpt lat="42.3322419" lon="14.3016522"><ele>67.0</ele><time>2026-05-01T09:40:09.432Z</time></trkpt><trkpt lat="42.332093" lon="14.301571"><ele>64.75</ele><time>2026-05-01T09:40:10.443Z</time></trkpt><trkpt lat="42.3319632" lon="14.3014998"><ele>62.5</ele><time>2026-05-01T09:40:11.435Z</time></trkpt><trkpt lat="42.3318398" lon="14.3014276"><ele>60.25</ele><time>2026-05-01T09:40:12.437Z</time></trkpt><trkpt lat="42.3317172" lon="14.3013489"><ele>58.0</ele><time>2026-05-01T09:40:13.438Z</time></trkpt><trkpt lat="42.3315987" lon="14.3012764"><ele>59.75</ele><time>2026-05-01T09:40:14.438Z</time></trkpt><trkpt lat="42.331478" lon="14.3012143"><ele>61.5</ele><time>2026-05-01T09:40:15.432Z</time></trkpt><trkpt lat="42.3313766" lon="14.301139"><ele>63.25</ele><time>2026-05-01T09:40:16.426Z</time></trkpt><trkpt lat="42.331265" lon="14.301066"><ele>65.0</ele><time>2026-05-01T09:40:17.431Z</time></trkpt><trkpt lat="42.3311572" lon="14.3009978"><ele>65.0</ele><time>2026-05-01T09:40:18.428Z</time></trkpt><trkpt lat="42.3310528" lon="14.3009347"><ele>65.0</ele><time>2026-05-01T09:40:19.431Z</time></trkpt><trkpt lat="42.3309454" lon="14.3008432"><ele>65.0</ele><time>2026-05-01T09:40:20.437Z</time></trkpt><trkpt lat="42.3308338" lon="14.3007615"><ele>65.0</ele><time>2026-05-01T09:40:21.436Z</time></trkpt><trkpt lat="42.3307189" lon="14.3006793"><ele>65.0</ele><time>2026-05-01T09:40:22.433Z</time></trkpt><trkpt lat="42.330594" lon="14.3006014"><ele>65.0</ele><time>2026-05-01T09:40:23.439Z</time></trkpt><trkpt lat="42.3304624" lon="14.3005357"><ele>65.0</ele><time>2026-05-01T09:40:24.439Z</time></trkpt><trkpt lat="42.3303237" lon="14.3004934"><ele>65.0</ele><time>2026-05-01T09:40:25.442Z</time></trkpt><trkpt lat="42.3301968" lon="14.3004514"><ele>64.75</ele><time>2026-05-01T09:40:26.438Z</time></trkpt><trkpt lat="42.3300747" lon="14.3004159"><ele>64.5</ele><time>2026-05-01T09:40:27.439Z</time></trkpt><trkpt lat="42.3299672" lon="14.3003985"><ele>64.25</ele><time>2026-05-01T09:40:28.446Z</time></trkpt><trkpt lat="42.3298377" lon="14.3003577"><ele>64.0</ele><time>2026-05-01T09:40:29.443Z</time></trkpt><trkpt lat="42.3296851" lon="14.300323"><ele>64.0</ele><time>2026-05-01T09:40:30.443Z</time></trkpt><trkpt lat="42.3295448" lon="14.3003079"><ele>64.0</ele><time>2026-05-01T09:40:31.446Z</time></trkpt><trkpt lat="42.3293936" lon="14.3002623"><ele>64.0</ele><time>2026-05-01T09:40:32.437Z</time></trkpt><trkpt lat="42.3292315" lon="14.3002433"><ele>64.0</ele><time>2026-05-01T09:40:33.439Z</time></trkpt><trkpt lat="42.3290941" lon="14.3002081"><ele>64.0</ele><time>2026-05-01T09:40:34.439Z</time></trkpt><trkpt lat="42.328949" lon="14.3001358"><ele>64.0</ele><time>2026-05-01T09:40:35.447Z</time></trkpt><trkpt lat="42.3288181" lon="14.3000975"><ele>64.0</ele><time>2026-05-01T09:40:36.44Z</time></trkpt><trkpt lat="42.3286648" lon="14.3000835"><ele>63.5</ele><time>2026-05-01T09:40:37.448Z</time></trkpt><trkpt lat="42.3285548" lon="14.3000369"><ele>63.0</ele><time>2026-05-01T09:40:38.444Z</time></trkpt><trkpt lat="42.3284337" lon="14.2999819"><ele>62.5</ele><time>2026-05-01T09:40:39.446Z</time></trkpt><trkpt lat="42.3282815" lon="14.2999255"><ele>62.0</ele><time>2026-05-01T09:40:40.447Z</time></trkpt><trkpt lat="42.3281277" lon="14.2998294"><ele>62.0</ele><time>2026-05-01T09:40:41.447Z</time></trkpt><trkpt lat="42.3279637" lon="14.2997561"><ele>62.0</ele><time>2026-05-01T09:40:42.446Z</time></trkpt><trkpt lat="42.3278206" lon="14.2996706"><ele>62.0</ele><time>2026-05-01T09:40:43.448Z</time></trkpt><trkpt lat="42.3276853" lon="14.2995826"><ele>63.66666666666667</ele><time>2026-05-01T09:40:44.447Z</time></trkpt><trkpt lat="42.3275282" lon="14.2994774"><ele>65.33333333333333</ele><time>2026-05-01T09:40:45.438Z</time></trkpt><trkpt lat="42.3273782" lon="14.2993865"><ele>67.0</ele><time>2026-05-01T09:40:46.444Z</time></trkpt><trkpt lat="42.3272306" lon="14.2992989"><ele>66.33333333333333</ele><time>2026-05-01T09:40:47.447Z</time></trkpt><trkpt lat="42.3270932" lon="14.2992061"><ele>65.66666666666667</ele><time>2026-05-01T09:40:48.443Z</time></trkpt><trkpt lat="42.3269671" lon="14.2991215"><ele>65.0</ele><time>2026-05-01T09:40:49.442Z</time></trkpt><trkpt lat="42.3268184" lon="14.2990562"><ele>65.0</ele><time>2026-05-01T09:40:50.442Z</time></trkpt><trkpt lat="42.3266691" lon="14.2989783"><ele>65.0</ele><time>2026-05-01T09:40:51.449Z</time></trkpt><trkpt lat="42.3265319" lon="14.2988712"><ele>65.0</ele><time>2026-05-01T09:40:52.446Z</time></trkpt><trkpt lat="42.3264032" lon="14.2988023"><ele>66.2</ele><time>2026-05-01T09:40:53.442Z</time></trkpt><trkpt lat="42.3262815" lon="14.2987249"><ele>67.4</ele><time>2026-05-01T09:40:54.441Z</time></trkpt><trkpt lat="42.3262052" lon="14.2986618"><ele>68.6</ele><time>2026-05-01T09:40:55.442Z</time></trkpt><trkpt lat="42.3261512" lon="14.2985809"><ele>69.8</ele><time>2026-05-01T09:40:56.437Z</time></trkpt><trkpt lat="42.3261109" lon="14.2985088"><ele>71.0</ele><time>2026-05-01T09:40:57.435Z</time></trkpt><trkpt lat="42.3260706" lon="14.298395"><ele>71.0</ele><time>2026-05-01T09:40:58.44Z</time></trkpt><trkpt lat="42.3260364" lon="14.2982851"><ele>71.0</ele><time>2026-05-01T09:40:59.445Z</time></trkpt><trkpt lat="42.3259821" lon="14.2981387"><ele>71.0</ele><time>2026-05-01T09:41:00.434Z</time></trkpt><trkpt lat="42.3259598" lon="14.2980305"><ele>71.0</ele><time>2026-05-01T09:41:01.436Z</time></trkpt><trkpt lat="42.3259233" lon="14.2979395"><ele>71.0</ele><time>2026-05-01T09:41:02.442Z</time></trkpt><trkpt lat="42.3258433" lon="14.2979023"><ele>72.25</ele><time>2026-05-01T09:41:03.43Z</time></trkpt><trkpt lat="42.3257366" lon="14.2979037"><ele>73.5</ele><time>2026-05-01T09:41:04.436Z</time></trkpt><trkpt lat="42.3256118" lon="14.2979422"><ele>74.75</ele><time>2026-05-01T09:41:05.423Z</time></trkpt><trkpt lat="42.3254715" lon="14.2980124"><ele>76.0</ele><time>2026-05-01T09:41:06.428Z</time></trkpt><trkpt lat="42.3253236" lon="14.2981019"><ele>76.0</ele><time>2026-05-01T09:41:07.427Z</time></trkpt><trkpt lat="42.3251452" lon="14.298207"><ele>76.0</ele><time>2026-05-01T09:41:08.431Z</time></trkpt><trkpt lat="42.32501" lon="14.2983116"><ele>76.0</ele><time>2026-05-01T09:41:09.436Z</time></trkpt><trkpt lat="42.3248756" lon="14.2983405"><ele>76.0</ele><time>2026-05-01T09:41:10.44Z</time></trkpt><trkpt lat="42.3247783" lon="14.2983889"><ele>76.0</ele><time>2026-05-01T09:41:11.439Z</time></trkpt><trkpt lat="42.3246973" lon="14.2983677"><ele>76.0</ele><time>2026-05-01T09:41:12.442Z</time></trkpt><trkpt lat="42.324598" lon="14.2983083"><ele>76.0</ele><time>2026-05-01T09:41:13.431Z</time></trkpt><trkpt lat="42.3244977" lon="14.2982484"><ele>76.0</ele><time>2026-05-01T09:41:14.444Z</time></trkpt><trkpt lat="42.3243828" lon="14.2981603"><ele>81.66666666666666</ele><time>2026-05-01T09:41:15.442Z</time></trkpt><trkpt lat="42.3242589" lon="14.2980645"><ele>87.33333333333333</ele><time>2026-05-01T09:41:16.437Z</time></trkpt><trkpt lat="42.3241276" lon="14.2979502"><ele>93.0</ele><time>2026-05-01T09:41:17.445Z</time></trkpt><trkpt lat="42.3240057" lon="14.2978251"><ele>91.33333333333333</ele><time>2026-05-01T09:41:18.445Z</time></trkpt><trkpt lat="42.3238913" lon="14.2976905"><ele>89.66666666666666</ele><time>2026-05-01T09:41:19.447Z</time></trkpt><trkpt lat="42.3237664" lon="14.2976013"><ele>88.0</ele><time>2026-05-01T09:41:20.439Z</time></trkpt><trkpt lat="42.3236246" lon="14.297503"><ele>88.0</ele><time>2026-05-01T09:41:21.442Z</time></trkpt><trkpt lat="42.3234625" lon="14.2974273"><ele>88.0</ele><time>2026-05-01T09:41:22.446Z</time></trkpt><trkpt lat="42.3232984" lon="14.297333"><ele>88.0</ele><time>2026-05-01T09:41:23.441Z</time></trkpt><trkpt lat="42.3231606" lon="14.2972501"><ele>93.0</ele><time>2026-05-01T09:41:24.442Z</time></trkpt><trkpt lat="42.3230155" lon="14.2971731"><ele>98.0</ele><time>2026-05-01T09:41:25.443Z</time></trkpt><trkpt lat="42.3228927" lon="14.2970964"><ele>103.0</ele><time>2026-05-01T09:41:26.441Z</time></trkpt><trkpt lat="42.3227409" lon="14.2970208"><ele>103.0</ele><time>2026-05-01T09:41:27.446Z</time></trkpt><trkpt lat="42.3225983" lon="14.2969813"><ele>103.0</ele><time>2026-05-01T09:41:28.441Z</time></trkpt><trkpt lat="42.3224495" lon="14.296925"><ele>103.0</ele><time>2026-05-01T09:41:29.445Z</time></trkpt><trkpt lat="42.322287" lon="14.296859"><ele>102.25</ele><time>2026-05-01T09:41:30.441Z</time></trkpt><trkpt lat="42.3221445" lon="14.2968268"><ele>101.5</ele><time>2026-05-01T09:41:31.442Z</time></trkpt><trkpt lat="42.321998" lon="14.2967828"><ele>100.75</ele><time>2026-05-01T09:41:32.437Z</time></trkpt><trkpt lat="42.3218696" lon="14.2967119"><ele>100.0</ele><time>2026-05-01T09:41:33.437Z</time></trkpt><trkpt lat="42.3217263" lon="14.2966781"><ele>100.0</ele><time>2026-05-01T09:41:34.441Z</time></trkpt><trkpt lat="42.3215871" lon="14.2966205"><ele>100.0</ele><time>2026-05-01T09:41:35.44Z</time></trkpt><trkpt lat="42.3214613" lon="14.2965749"><ele>100.0</ele><time>2026-05-01T09:41:36.441Z</time></trkpt><trkpt lat="42.3213449" lon="14.2965052"><ele>100.0</ele><time>2026-05-01T09:41:37.44Z</time></trkpt><trkpt lat="42.3212386" lon="14.2964062"><ele>100.66666666666667</ele><time>2026-05-01T09:41:38.439Z</time></trkpt><trkpt lat="42.3211558" lon="14.2962447"><ele>101.33333333333334</ele><time>2026-05-01T09:41:39.44Z</time></trkpt><trkpt lat="42.3210771" lon="14.2960599"><ele>102.0</ele><time>2026-05-01T09:41:40.437Z</time></trkpt><trkpt lat="42.3209713" lon="14.2959125"><ele>102.0</ele><time>2026-05-01T09:41:41.443Z</time></trkpt><trkpt lat="42.3208541" lon="14.2958527"><ele>102.0</ele><time>2026-05-01T09:41:42.44Z</time></trkpt><trkpt lat="42.320737" lon="14.2957775"><ele>102.0</ele><time>2026-05-01T09:41:43.437Z</time></trkpt><trkpt lat="42.3206137" lon="14.2957066"><ele>102.0</ele><time>2026-05-01T09:41:44.439Z</time></trkpt><trkpt lat="42.3204899" lon="14.2956317"><ele>104.0</ele><time>2026-05-01T09:41:45.443Z</time></trkpt><trkpt lat="42.3203597" lon="14.2955369"><ele>106.0</ele><time>2026-05-01T09:41:46.438Z</time></trkpt><trkpt lat="42.3202202" lon="14.2954614"><ele>108.0</ele><time>2026-05-01T09:41:47.443Z</time></trkpt><trkpt lat="42.3200946" lon="14.2954053"><ele>110.0</ele><time>2026-05-01T09:41:48.439Z</time></trkpt><trkpt lat="42.3199875" lon="14.2953539"><ele>109.99999999999999</ele><time>2026-05-01T09:41:49.441Z</time></trkpt><trkpt lat="42.3198968" lon="14.2953181"><ele>110.0</ele><time>2026-05-01T09:41:50.439Z</time></trkpt><trkpt lat="42.3198208" lon="14.2952105"><ele>110.0</ele><time>2026-05-01T09:41:52.439Z</time></trkpt><trkpt lat="42.3197975" lon="14.2951272"><ele>110.0</ele><time>2026-05-01T09:41:53.447Z</time></trkpt><trkpt lat="42.3198031" lon="14.2950274"><ele>109.99999999999999</ele><time>2026-05-01T09:41:54.445Z</time></trkpt><trkpt lat="42.3198273" lon="14.2949129"><ele>110.0</ele><time>2026-05-01T09:41:55.442Z</time></trkpt><trkpt lat="42.3198398" lon="14.2948015"><ele>110.0</ele><time>2026-05-01T09:41:56.45Z</time></trkpt><trkpt lat="42.3197872" lon="14.294686"><ele>110.0</ele><time>2026-05-01T09:41:58.446Z</time></trkpt><trkpt lat="42.3196882" lon="14.2946999"><ele>110.0</ele><time>2026-05-01T09:42:00.434Z</time></trkpt><trkpt lat="42.319592" lon="14.2947995"><ele>110.0</ele><time>2026-05-01T09:42:02.444Z</time></trkpt><trkpt lat="42.3195015" lon="14.2948459"><ele>110.0</ele><time>2026-05-01T09:42:04.444Z</time></trkpt><trkpt lat="42.3193875" lon="14.2947933"><ele>109.99999999999999</ele><time>2026-05-01T09:42:06.45Z</time></trkpt><trkpt lat="42.3193268" lon="14.2947141"><ele>110.0</ele><time>2026-05-01T09:42:07.437Z</time></trkpt><trkpt lat="42.31927" lon="14.2946158"><ele>110.0</ele><time>2026-05-01T09:42:08.443Z</time></trkpt><trkpt lat="42.3192153" lon="14.2945079"><ele>110.0</ele><time>2026-05-01T09:42:09.442Z</time></trkpt><trkpt lat="42.3191656" lon="14.2944155"><ele>109.99999999999999</ele><time>2026-05-01T09:42:10.437Z</time></trkpt><trkpt lat="42.319115" lon="14.2943476"><ele>110.0</ele><time>2026-05-01T09:42:11.43Z</time></trkpt><trkpt lat="42.3190514" lon="14.2942687"><ele>110.0</ele><time>2026-05-01T09:42:12.44Z</time></trkpt><trkpt lat="42.3189858" lon="14.2941847"><ele>110.0</ele><time>2026-05-01T09:42:13.433Z</time></trkpt><trkpt lat="42.3189249" lon="14.2940887"><ele>110.0</ele><time>2026-05-01T09:42:14.436Z</time></trkpt><trkpt lat="42.3188686" lon="14.2939698"><ele>110.0</ele><time>2026-05-01T09:42:15.43Z</time></trkpt><trkpt lat="42.3188096" lon="14.293835"><ele>110.0</ele><time>2026-05-01T09:42:16.434Z</time></trkpt><trkpt lat="42.3187417" lon="14.2936978"><ele>109.6</ele><time>2026-05-01T09:42:17.432Z</time></trkpt><trkpt lat="42.3186777" lon="14.2935714"><ele>109.2</ele><time>2026-05-01T09:42:18.43Z</time></trkpt><trkpt lat="42.3186221" lon="14.293458"><ele>108.80000000000001</ele><time>2026-05-01T09:42:19.434Z</time></trkpt><trkpt lat="42.3185712" lon="14.2933538"><ele>108.4</ele><time>2026-05-01T09:42:20.436Z</time></trkpt><trkpt lat="42.3185206" lon="14.2932472"><ele>108.0</ele><time>2026-05-01T09:42:21.43Z</time></trkpt><trkpt lat="42.3184538" lon="14.2931558"><ele>108.5</ele><time>2026-05-01T09:42:22.432Z</time></trkpt><trkpt lat="42.318358" lon="14.2930877"><ele>109.0</ele><time>2026-05-01T09:42:23.433Z</time></trkpt><trkpt lat="42.3182486" lon="14.2930244"><ele>109.5</ele><time>2026-05-01T09:42:24.434Z</time></trkpt><trkpt lat="42.3181321" lon="14.2929587"><ele>110.0</ele><time>2026-05-01T09:42:25.438Z</time></trkpt><trkpt lat="42.3180106" lon="14.292896"><ele>110.0</ele><time>2026-05-01T09:42:26.437Z</time></trkpt><trkpt lat="42.3178979" lon="14.2928414"><ele>110.0</ele><time>2026-05-01T09:42:27.439Z</time></trkpt><trkpt lat="42.3177935" lon="14.2927968"><ele>110.0</ele><time>2026-05-01T09:42:28.435Z</time></trkpt><trkpt lat="42.3176975" lon="14.2927601"><ele>110.0</ele><time>2026-05-01T09:42:29.437Z</time></trkpt><trkpt lat="42.3176088" lon="14.2927333"><ele>110.0</ele><time>2026-05-01T09:42:30.433Z</time></trkpt><trkpt lat="42.3175221" lon="14.2927029"><ele>109.99999999999999</ele><time>2026-05-01T09:42:31.441Z</time></trkpt><trkpt lat="42.3174376" lon="14.2926614"><ele>110.0</ele><time>2026-05-01T09:42:32.436Z</time></trkpt><trkpt lat="42.3173574" lon="14.2926203"><ele>110.0</ele><time>2026-05-01T09:42:33.434Z</time></trkpt><trkpt lat="42.3172794" lon="14.292576"><ele>110.0</ele><time>2026-05-01T09:42:34.426Z</time></trkpt><trkpt lat="42.3171931" lon="14.2925522"><ele>109.99999999999999</ele><time>2026-05-01T09:42:35.434Z</time></trkpt><trkpt lat="42.3170929" lon="14.2925645"><ele>110.0</ele><time>2026-05-01T09:42:36.433Z</time></trkpt><trkpt lat="42.3169837" lon="14.2925914"><ele>108.0</ele><time>2026-05-01T09:42:37.441Z</time></trkpt><trkpt lat="42.3168774" lon="14.2926115"><ele>106.0</ele><time>2026-05-01T09:42:38.429Z</time></trkpt><trkpt lat="42.3167664" lon="14.2926053"><ele>104.0</ele><time>2026-05-01T09:42:39.44Z</time></trkpt><trkpt lat="42.3166507" lon="14.2925964"><ele>102.0</ele><time>2026-05-01T09:42:40.436Z</time></trkpt><trkpt lat="42.3165368" lon="14.2925797"><ele>100.0</ele><time>2026-05-01T09:42:41.44Z</time></trkpt><trkpt lat="42.3164315" lon="14.2925514"><ele>100.5</ele><time>2026-05-01T09:42:42.438Z</time></trkpt><trkpt lat="42.3163312" lon="14.2925007"><ele>101.0</ele><time>2026-05-01T09:42:43.441Z</time></trkpt><trkpt lat="42.3162243" lon="14.2924292"><ele>101.5</ele><time>2026-05-01T09:42:44.442Z</time></trkpt><trkpt lat="42.3161226" lon="14.2923334"><ele>102.0</ele><time>2026-05-01T09:42:45.449Z</time></trkpt><trkpt lat="42.3160267" lon="14.2922302"><ele>102.0</ele><time>2026-05-01T09:42:46.443Z</time></trkpt><trkpt lat="42.3159285" lon="14.2921422"><ele>102.0</ele><time>2026-05-01T09:42:47.449Z</time></trkpt><trkpt lat="42.3158254" lon="14.2920801"><ele>102.0</ele><time>2026-05-01T09:42:48.445Z</time></trkpt><trkpt lat="42.3157129" lon="14.2920372"><ele>102.0</ele><time>2026-05-01T09:42:49.447Z</time></trkpt><trkpt lat="42.3155938" lon="14.2919998"><ele>98.5</ele><time>2026-05-01T09:42:50.447Z</time></trkpt><trkpt lat="42.3154628" lon="14.2919575"><ele>95.0</ele><time>2026-05-01T09:42:51.449Z</time></trkpt><trkpt lat="42.3153269" lon="14.2919217"><ele>91.5</ele><time>2026-05-01T09:42:52.447Z</time></trkpt><trkpt lat="42.3151726" lon="14.2918973"><ele>88.0</ele><time>2026-05-01T09:42:53.444Z</time></trkpt><trkpt lat="42.3150274" lon="14.2918657"><ele>88.0</ele><time>2026-05-01T09:42:54.449Z</time></trkpt><trkpt lat="42.3148912" lon="14.2918215"><ele>88.0</ele><time>2026-05-01T09:42:55.447Z</time></trkpt><trkpt lat="42.3147629" lon="14.2917854"><ele>88.0</ele><time>2026-05-01T09:42:56.447Z</time></trkpt><trkpt lat="42.3146159" lon="14.2917531"><ele>88.0</ele><time>2026-05-01T09:42:57.445Z</time></trkpt><trkpt lat="42.3144707" lon="14.2917236"><ele>87.75</ele><time>2026-05-01T09:42:58.446Z</time></trkpt><trkpt lat="42.3143245" lon="14.2917064"><ele>87.5</ele><time>2026-05-01T09:42:59.442Z</time></trkpt><trkpt lat="42.314186" lon="14.2916877"><ele>87.25</ele><time>2026-05-01T09:43:00.441Z</time></trkpt><trkpt lat="42.3140327" lon="14.2916663"><ele>87.0</ele><time>2026-05-01T09:43:01.447Z</time></trkpt><trkpt lat="42.3138908" lon="14.291675"><ele>87.0</ele><time>2026-05-01T09:43:02.44Z</time></trkpt><trkpt lat="42.3137695" lon="14.29169"><ele>87.0</ele><time>2026-05-01T09:43:03.441Z</time></trkpt><trkpt lat="42.3136782" lon="14.2916648"><ele>87.0</ele><time>2026-05-01T09:43:04.437Z</time></trkpt><trkpt lat="42.3135655" lon="14.2916247"><ele>87.0</ele><time>2026-05-01T09:43:05.439Z</time></trkpt><trkpt lat="42.3134712" lon="14.2915236"><ele>89.25</ele><time>2026-05-01T09:43:06.438Z</time></trkpt><trkpt lat="42.3133644" lon="14.291415"><ele>91.5</ele><time>2026-05-01T09:43:07.433Z</time></trkpt><trkpt lat="42.3132804" lon="14.291279"><ele>93.75</ele><time>2026-05-01T09:43:08.434Z</time></trkpt><trkpt lat="42.3132372" lon="14.2911501"><ele>96.0</ele><time>2026-05-01T09:43:09.436Z</time></trkpt><trkpt lat="42.3132109" lon="14.2910377"><ele>96.0</ele><time>2026-05-01T09:43:10.434Z</time></trkpt><trkpt lat="42.3131774" lon="14.2909468"><ele>96.0</ele><time>2026-05-01T09:43:11.438Z</time></trkpt><trkpt lat="42.3131468" lon="14.2908534"><ele>96.0</ele><time>2026-05-01T09:43:12.44Z</time></trkpt><trkpt lat="42.3131113" lon="14.2907481"><ele>96.0</ele><time>2026-05-01T09:43:13.442Z</time></trkpt><trkpt lat="42.3130757" lon="14.2906406"><ele>96.0</ele><time>2026-05-01T09:43:14.432Z</time></trkpt><trkpt lat="42.3130311" lon="14.2905157"><ele>96.0</ele><time>2026-05-01T09:43:15.436Z</time></trkpt><trkpt lat="42.3129779" lon="14.2903781"><ele>97.0</ele><time>2026-05-01T09:43:16.438Z</time></trkpt><trkpt lat="42.3129204" lon="14.2902393"><ele>98.0</ele><time>2026-05-01T09:43:17.437Z</time></trkpt><trkpt lat="42.312873" lon="14.2901201"><ele>99.0</ele><time>2026-05-01T09:43:18.442Z</time></trkpt><trkpt lat="42.3128218" lon="14.2900028"><ele>100.0</ele><time>2026-05-01T09:43:19.444Z</time></trkpt><trkpt lat="42.3127639" lon="14.2898683"><ele>101.0</ele><time>2026-05-01T09:43:20.44Z</time></trkpt><trkpt lat="42.3127083" lon="14.2897394"><ele>101.0</ele><time>2026-05-01T09:43:21.44Z</time></trkpt><trkpt lat="42.3126659" lon="14.2896443"><ele>101.0</ele><time>2026-05-01T09:43:22.435Z</time></trkpt><trkpt lat="42.3126277" lon="14.2895671"><ele>101.0</ele><time>2026-05-01T09:43:23.437Z</time></trkpt><trkpt lat="42.3125579" lon="14.2895144"><ele>101.0</ele><time>2026-05-01T09:43:26.447Z</time></trkpt><trkpt lat="42.3126061" lon="14.2896028"><ele>101.0</ele><time>2026-05-01T09:43:35.447Z</time></trkpt><trkpt lat="42.3126598" lon="14.2897832"><ele>101.0</ele><time>2026-05-01T09:43:37.447Z</time></trkpt><trkpt lat="42.312706" lon="14.2899026"><ele>101.0</ele><time>2026-05-01T09:43:38.439Z</time></trkpt><trkpt lat="42.3127599" lon="14.2900413"><ele>101.0</ele><time>2026-05-01T09:43:39.449Z</time></trkpt><trkpt lat="42.3128151" lon="14.2901818"><ele>101.0</ele><time>2026-05-01T09:43:40.443Z</time></trkpt><trkpt lat="42.3128695" lon="14.2903203"><ele>101.0</ele><time>2026-05-01T09:43:41.443Z</time></trkpt><trkpt lat="42.3129221" lon="14.2904435"><ele>101.0</ele><time>2026-05-01T09:43:42.44Z</time></trkpt><trkpt lat="42.3129741" lon="14.2905643"><ele>101.0</ele><time>2026-05-01T09:43:43.448Z</time></trkpt><trkpt lat="42.3130229" lon="14.290681"><ele>101.0</ele><time>2026-05-01T09:43:44.452Z</time></trkpt><trkpt lat="42.3130671" lon="14.2907981"><ele>101.0</ele><time>2026-05-01T09:43:45.444Z</time></trkpt><trkpt lat="42.3131106" lon="14.2909022"><ele>101.0</ele><time>2026-05-01T09:43:46.445Z</time></trkpt><trkpt lat="42.3131508" lon="14.2910161"><ele>100.0</ele><time>2026-05-01T09:43:47.447Z</time></trkpt><trkpt lat="42.3131969" lon="14.2911355"><ele>99.0</ele><time>2026-05-01T09:43:48.446Z</time></trkpt><trkpt lat="42.313249" lon="14.2912483"><ele>98.0</ele><time>2026-05-01T09:43:49.445Z</time></trkpt><trkpt lat="42.3132964" lon="14.2913508"><ele>97.0</ele><time>2026-05-01T09:43:50.445Z</time></trkpt><trkpt lat="42.3133455" lon="14.2914455"><ele>96.0</ele><time>2026-05-01T09:43:51.447Z</time></trkpt><trkpt lat="42.3134008" lon="14.291525"><ele>94.71428571428571</ele><time>2026-05-01T09:43:52.447Z</time></trkpt><trkpt lat="42.3134554" lon="14.2915959"><ele>93.42857142857143</ele><time>2026-05-01T09:43:53.442Z</time></trkpt><trkpt lat="42.3135126" lon="14.2916545"><ele>92.14285714285714</ele><time>2026-05-01T09:43:54.448Z</time></trkpt><trkpt lat="42.3135753" lon="14.2916991"><ele>90.85714285714286</ele><time>2026-05-01T09:43:55.439Z</time></trkpt><trkpt lat="42.3136363" lon="14.2917276"><ele>89.57142857142857</ele><time>2026-05-01T09:43:56.441Z</time></trkpt><trkpt lat="42.31372" lon="14.2917258"><ele>88.28571428571428</ele><time>2026-05-01T09:43:58.442Z</time></trkpt><trkpt lat="42.313672" lon="14.2917999"><ele>87.0</ele><time>2026-05-01T09:44:04.44Z</time></trkpt><trkpt lat="42.3135648" lon="14.2918133"><ele>87.0</ele><time>2026-05-01T09:44:06.435Z</time></trkpt><trkpt lat="42.3134924" lon="14.2918135"><ele>87.0</ele><time>2026-05-01T09:44:07.439Z</time></trkpt><trkpt lat="42.313411" lon="14.291799"><ele>87.0</ele><time>2026-05-01T09:44:08.437Z</time></trkpt><trkpt lat="42.31334" lon="14.2917735"><ele>87.0</ele><time>2026-05-01T09:44:09.44Z</time></trkpt><trkpt lat="42.3132727" lon="14.2917617"><ele>87.0</ele><time>2026-05-01T09:44:10.438Z</time></trkpt><trkpt lat="42.3132091" lon="14.2917647"><ele>87.0</ele><time>2026-05-01T09:44:11.437Z</time></trkpt><trkpt lat="42.3130919" lon="14.2918017"><ele>87.19999999999999</ele><time>2026-05-01T09:44:13.438Z</time></trkpt><trkpt lat="42.3130194" lon="14.291811"><ele>87.4</ele><time>2026-05-01T09:44:15.436Z</time></trkpt><trkpt lat="42.3129435" lon="14.2917389"><ele>87.6</ele><time>2026-05-01T09:44:17.429Z</time></trkpt><trkpt lat="42.3128955" lon="14.2916743"><ele>87.80000000000001</ele><time>2026-05-01T09:44:18.436Z</time></trkpt><trkpt lat="42.312862" lon="14.2915503"><ele>88.0</ele><time>2026-05-01T09:44:20.44Z</time></trkpt><trkpt lat="42.3128613" lon="14.291388"><ele>89.0</ele><time>2026-05-01T09:44:22.441Z</time></trkpt><trkpt lat="42.3128527" lon="14.2913002"><ele>90.0</ele><time>2026-05-01T09:44:23.439Z</time></trkpt><trkpt lat="42.3127762" lon="14.2911437"><ele>91.0</ele><time>2026-05-01T09:44:25.439Z</time></trkpt><trkpt lat="42.31271" lon="14.2910688"><ele>92.0</ele><time>2026-05-01T09:44:26.438Z</time></trkpt><trkpt lat="42.3126395" lon="14.2910172"><ele>93.0</ele><time>2026-05-01T09:44:27.431Z</time></trkpt><trkpt lat="42.3125719" lon="14.2909796"><ele>94.0</ele><time>2026-05-01T09:44:28.436Z</time></trkpt><trkpt lat="42.3124442" lon="14.290978"><ele>94.0</ele><time>2026-05-01T09:44:30.432Z</time></trkpt><trkpt lat="42.3123641" lon="14.2910026"><ele>94.0</ele><time>2026-05-01T09:44:31.434Z</time></trkpt><trkpt lat="42.3122803" lon="14.2910417"><ele>94.0</ele><time>2026-05-01T09:44:32.429Z</time></trkpt><trkpt lat="42.3122024" lon="14.2910788"><ele>94.0</ele><time>2026-05-01T09:44:33.429Z</time></trkpt><trkpt lat="42.3121388" lon="14.2911123"><ele>94.0</ele><time>2026-05-01T09:44:34.432Z</time></trkpt><trkpt lat="42.3120613" lon="14.2911654"><ele>94.0</ele><time>2026-05-01T09:44:36.434Z</time></trkpt><trkpt lat="42.3119704" lon="14.291218"><ele>94.16666666666666</ele><time>2026-05-01T09:44:38.433Z</time></trkpt><trkpt lat="42.3118589" lon="14.2912302"><ele>94.33333333333333</ele><time>2026-05-01T09:44:40.428Z</time></trkpt><trkpt lat="42.3117777" lon="14.2912404"><ele>94.5</ele><time>2026-05-01T09:44:42.43Z</time></trkpt><trkpt lat="42.3116804" lon="14.2912254"><ele>94.66666666666667</ele><time>2026-05-01T09:44:45.427Z</time></trkpt><trkpt lat="42.311616" lon="14.2912411"><ele>94.83333333333334</ele><time>2026-05-01T09:44:47.429Z</time></trkpt><trkpt lat="42.31155" lon="14.2913192"><ele>95.0</ele><time>2026-05-01T09:44:49.426Z</time></trkpt><trkpt lat="42.3114283" lon="14.2913983"><ele>95.5</ele><time>2026-05-01T09:44:51.423Z</time></trkpt><trkpt lat="42.311356" lon="14.2914223"><ele>96.0</ele><time>2026-05-01T09:44:52.423Z</time></trkpt><trkpt lat="42.31129" lon="14.2914264"><ele>96.5</ele><time>2026-05-01T09:44:53.422Z</time></trkpt><trkpt lat="42.3112232" lon="14.2914065"><ele>97.0</ele><time>2026-05-01T09:44:54.433Z</time></trkpt><trkpt lat="42.3111557" lon="14.2913417"><ele>97.49999999999999</ele><time>2026-05-01T09:44:55.429Z</time></trkpt><trkpt lat="42.3110913" lon="14.291236"><ele>98.0</ele><time>2026-05-01T09:44:56.42Z</time></trkpt><trkpt lat="42.3110317" lon="14.2911218"><ele>98.0</ele><time>2026-05-01T09:44:57.425Z</time></trkpt><trkpt lat="42.3109778" lon="14.2910061"><ele>98.0</ele><time>2026-05-01T09:44:58.425Z</time></trkpt><trkpt lat="42.3109194" lon="14.2908903"><ele>98.0</ele><time>2026-05-01T09:44:59.428Z</time></trkpt><trkpt lat="42.3108438" lon="14.2908158"><ele>98.0</ele><time>2026-05-01T09:45:00.426Z</time></trkpt><trkpt lat="42.3107463" lon="14.290751"><ele>98.0</ele><time>2026-05-01T09:45:01.426Z</time></trkpt><trkpt lat="42.3106422" lon="14.2907122"><ele>100.0</ele><time>2026-05-01T09:45:02.423Z</time></trkpt><trkpt lat="42.310544" lon="14.2906794"><ele>102.0</ele><time>2026-05-01T09:45:03.42Z</time></trkpt><trkpt lat="42.3104509" lon="14.290667"><ele>104.00000000000001</ele><time>2026-05-01T09:45:04.423Z</time></trkpt><trkpt lat="42.3103587" lon="14.290656"><ele>106.0</ele><time>2026-05-01T09:45:05.428Z</time></trkpt><trkpt lat="42.3102618" lon="14.2906504"><ele>108.0</ele><time>2026-05-01T09:45:06.433Z</time></trkpt><trkpt lat="42.3101715" lon="14.2906518"><ele>108.0</ele><time>2026-05-01T09:45:07.429Z</time></trkpt><trkpt lat="42.310086" lon="14.2906522"><ele>108.0</ele><time>2026-05-01T09:45:08.43Z</time></trkpt><trkpt lat="42.3100139" lon="14.2906598"><ele>108.0</ele><time>2026-05-01T09:45:09.433Z</time></trkpt><trkpt lat="42.3099368" lon="14.2906665"><ele>108.0</ele><time>2026-05-01T09:45:10.426Z</time></trkpt><trkpt lat="42.309857" lon="14.290663"><ele>108.0</ele><time>2026-05-01T09:45:11.429Z</time></trkpt><trkpt lat="42.3097655" lon="14.2906432"><ele>108.0</ele><time>2026-05-01T09:45:12.431Z</time></trkpt><trkpt lat="42.3096839" lon="14.2906129"><ele>109.4</ele><time>2026-05-01T09:45:13.431Z</time></trkpt><trkpt lat="42.3095898" lon="14.290573"><ele>110.80000000000001</ele><time>2026-05-01T09:45:15.421Z</time></trkpt><trkpt lat="42.3095121" lon="14.2906504"><ele>112.2</ele><time>2026-05-01T09:45:20.427Z</time></trkpt><trkpt lat="42.309422" lon="14.2907826"><ele>113.6</ele><time>2026-05-01T09:45:22.43Z</time></trkpt><trkpt lat="42.3093662" lon="14.2908553"><ele>115.0</ele><time>2026-05-01T09:45:23.436Z</time></trkpt><trkpt lat="42.3093182" lon="14.2909173"><ele>115.00000000000001</ele><time>2026-05-01T09:45:24.432Z</time></trkpt><trkpt lat="42.3092331" lon="14.291011"><ele>115.0</ele><time>2026-05-01T09:45:26.434Z</time></trkpt><trkpt lat="42.3091817" lon="14.2910616"><ele>115.0</ele><time>2026-05-01T09:45:27.433Z</time></trkpt><trkpt lat="42.309117" lon="14.2911178"><ele>115.0</ele><time>2026-05-01T09:45:28.435Z</time></trkpt><trkpt lat="42.309036" lon="14.2911831"><ele>115.00000000000001</ele><time>2026-05-01T09:45:29.434Z</time></trkpt><trkpt lat="42.3089592" lon="14.2912279"><ele>115.0</ele><time>2026-05-01T09:45:30.436Z</time></trkpt><trkpt lat="42.3088765" lon="14.2912652"><ele>114.66666666666667</ele><time>2026-05-01T09:45:31.433Z</time></trkpt><trkpt lat="42.3087921" lon="14.2912953"><ele>114.33333333333334</ele><time>2026-05-01T09:45:32.43Z</time></trkpt><trkpt lat="42.3087177" lon="14.2913128"><ele>114.0</ele><time>2026-05-01T09:45:33.431Z</time></trkpt><trkpt lat="42.3086483" lon="14.291338"><ele>113.66666666666666</ele><time>2026-05-01T09:45:34.428Z</time></trkpt><trkpt lat="42.3085781" lon="14.2913853"><ele>113.33333333333333</ele><time>2026-05-01T09:45:35.425Z</time></trkpt><trkpt lat="42.3085082" lon="14.2914465"><ele>113.0</ele><time>2026-05-01T09:45:36.431Z</time></trkpt><trkpt lat="42.3084332" lon="14.2915137"><ele>113.0</ele><time>2026-05-01T09:45:37.432Z</time></trkpt><trkpt lat="42.3083547" lon="14.2916062"><ele>113.00000000000001</ele><time>2026-05-01T09:45:38.429Z</time></trkpt><trkpt lat="42.3082758" lon="14.2917154"><ele>113.00000000000001</ele><time>2026-05-01T09:45:39.431Z</time></trkpt><trkpt lat="42.30819" lon="14.2918175"><ele>113.0</ele><time>2026-05-01T09:45:40.432Z</time></trkpt><trkpt lat="42.3081057" lon="14.2919087"><ele>113.0</ele><time>2026-05-01T09:45:41.43Z</time></trkpt><trkpt lat="42.3080174" lon="14.2919855"><ele>115.75</ele><time>2026-05-01T09:45:42.428Z</time></trkpt><trkpt lat="42.3079119" lon="14.2920408"><ele>118.5</ele><time>2026-05-01T09:45:43.434Z</time></trkpt><trkpt lat="42.3078004" lon="14.2920878"><ele>121.25</ele><time>2026-05-01T09:45:44.432Z</time></trkpt><trkpt lat="42.3076857" lon="14.2921222"><ele>124.0</ele><time>2026-05-01T09:45:45.433Z</time></trkpt><trkpt lat="42.3075749" lon="14.2921554"><ele>124.0</ele><time>2026-05-01T09:45:46.427Z</time></trkpt><trkpt lat="42.3074759" lon="14.2921989"><ele>124.0</ele><time>2026-05-01T09:45:47.435Z</time></trkpt><trkpt lat="42.3073806" lon="14.2922447"><ele>124.0</ele><time>2026-05-01T09:45:48.43Z</time></trkpt><trkpt lat="42.3072806" lon="14.2922909"><ele>124.0</ele><time>2026-05-01T09:45:49.434Z</time></trkpt><trkpt lat="42.3071778" lon="14.292327"><ele>124.0</ele><time>2026-05-01T09:45:50.435Z</time></trkpt><trkpt lat="42.3070746" lon="14.2923449"><ele>122.50000000000001</ele><time>2026-05-01T09:45:51.433Z</time></trkpt><trkpt lat="42.3069762" lon="14.2923564"><ele>121.0</ele><time>2026-05-01T09:45:52.434Z</time></trkpt><trkpt lat="42.3068859" lon="14.2923594"><ele>119.5</ele><time>2026-05-01T09:45:53.431Z</time></trkpt><trkpt lat="42.3068107" lon="14.2923642"><ele>118.0</ele><time>2026-05-01T09:45:54.438Z</time></trkpt><trkpt lat="42.3067395" lon="14.2923897"><ele>116.50000000000001</ele><time>2026-05-01T09:45:55.434Z</time></trkpt><trkpt lat="42.3066567" lon="14.2924227"><ele>115.0</ele><time>2026-05-01T09:45:56.435Z</time></trkpt><trkpt lat="42.3065664" lon="14.2924692"><ele>115.0</ele><time>2026-05-01T09:45:57.438Z</time></trkpt><trkpt lat="42.3064665" lon="14.2925132"><ele>115.0</ele><time>2026-05-01T09:45:58.434Z</time></trkpt><trkpt lat="42.3063613" lon="14.2925605"><ele>115.0</ele><time>2026-05-01T09:45:59.436Z</time></trkpt><trkpt lat="42.3062603" lon="14.292594"><ele>115.0</ele><time>2026-05-01T09:46:00.433Z</time></trkpt><trkpt lat="42.3061659" lon="14.2926098"><ele>115.0</ele><time>2026-05-01T09:46:01.444Z</time></trkpt><trkpt lat="42.3060682" lon="14.2926116"><ele>115.8</ele><time>2026-05-01T09:46:02.432Z</time></trkpt><trkpt lat="42.305964" lon="14.2925993"><ele>116.6</ele><time>2026-05-01T09:46:03.433Z</time></trkpt><trkpt lat="42.3058532" lon="14.292585"><ele>117.4</ele><time>2026-05-01T09:46:04.433Z</time></trkpt><trkpt lat="42.3057368" lon="14.2925653"><ele>118.2</ele><time>2026-05-01T09:46:05.432Z</time></trkpt><trkpt lat="42.3056294" lon="14.2925526"><ele>119.0</ele><time>2026-05-01T09:46:06.432Z</time></trkpt><trkpt lat="42.3055339" lon="14.2925393"><ele>119.49999999999999</ele><time>2026-05-01T09:46:07.433Z</time></trkpt><trkpt lat="42.3054474" lon="14.2925293"><ele>120.0</ele><time>2026-05-01T09:46:08.434Z</time></trkpt><trkpt lat="42.3053626" lon="14.292516"><ele>120.5</ele><time>2026-05-01T09:46:09.434Z</time></trkpt><trkpt lat="42.3052707" lon="14.2924942"><ele>121.0</ele><time>2026-05-01T09:46:10.435Z</time></trkpt><trkpt lat="42.3051785" lon="14.2924803"><ele>121.49999999999999</ele><time>2026-05-01T09:46:11.437Z</time></trkpt><trkpt lat="42.3050995" lon="14.2924734"><ele>122.0</ele><time>2026-05-01T09:46:12.436Z</time></trkpt><trkpt lat="42.3050279" lon="14.2924804"><ele>121.99999999999999</ele><time>2026-05-01T09:46:13.435Z</time></trkpt><trkpt lat="42.3049585" lon="14.2924895"><ele>122.0</ele><time>2026-05-01T09:46:14.435Z</time></trkpt><trkpt lat="42.3048957" lon="14.2925032"><ele>122.0</ele><time>2026-05-01T09:46:15.432Z</time></trkpt><trkpt lat="42.3048136" lon="14.2925605"><ele>122.0</ele><time>2026-05-01T09:46:17.437Z</time></trkpt><trkpt lat="42.3047492" lon="14.2926539"><ele>121.99999999999999</ele><time>2026-05-01T09:46:19.435Z</time></trkpt><trkpt lat="42.3046906" lon="14.2927187"><ele>122.0</ele><time>2026-05-01T09:46:20.425Z</time></trkpt><trkpt lat="42.304609" lon="14.2927838"><ele>121.8</ele><time>2026-05-01T09:46:21.435Z</time></trkpt><trkpt lat="42.3045261" lon="14.2928458"><ele>121.6</ele><time>2026-05-01T09:46:22.426Z</time></trkpt><trkpt lat="42.3044447" lon="14.292889"><ele>121.39999999999999</ele><time>2026-05-01T09:46:23.439Z</time></trkpt><trkpt lat="42.3043558" lon="14.2929219"><ele>121.19999999999999</ele><time>2026-05-01T09:46:24.433Z</time></trkpt><trkpt lat="42.3042599" lon="14.2929567"><ele>121.0</ele><time>2026-05-01T09:46:25.431Z</time></trkpt><trkpt lat="42.3041555" lon="14.292981"><ele>121.0</ele><time>2026-05-01T09:46:26.43Z</time></trkpt><trkpt lat="42.3040521" lon="14.292995"><ele>121.0</ele><time>2026-05-01T09:46:27.432Z</time></trkpt><trkpt lat="42.303957" lon="14.2930177"><ele>121.0</ele><time>2026-05-01T09:46:28.428Z</time></trkpt><trkpt lat="42.3038506" lon="14.2930294"><ele>121.0</ele><time>2026-05-01T09:46:29.426Z</time></trkpt><trkpt lat="42.3037379" lon="14.2930279"><ele>121.0</ele><time>2026-05-01T09:46:30.424Z</time></trkpt><trkpt lat="42.3036289" lon="14.293025"><ele>120.0</ele><time>2026-05-01T09:46:31.43Z</time></trkpt><trkpt lat="42.3035336" lon="14.2930244"><ele>119.0</ele><time>2026-05-01T09:46:32.433Z</time></trkpt><trkpt lat="42.3034422" lon="14.2930171"><ele>118.0</ele><time>2026-05-01T09:46:33.432Z</time></trkpt><trkpt lat="42.3033475" lon="14.2930122"><ele>117.0</ele><time>2026-05-01T09:46:34.433Z</time></trkpt><trkpt lat="42.3032508" lon="14.2929984"><ele>116.0</ele><time>2026-05-01T09:46:35.428Z</time></trkpt><trkpt lat="42.3031507" lon="14.2929796"><ele>116.0</ele><time>2026-05-01T09:46:36.431Z</time></trkpt><trkpt lat="42.3030433" lon="14.2929616"><ele>116.0</ele><time>2026-05-01T09:46:37.428Z</time></trkpt><trkpt lat="42.3029315" lon="14.2929336"><ele>116.0</ele><time>2026-05-01T09:46:38.431Z</time></trkpt><trkpt lat="42.3028123" lon="14.2929039"><ele>116.0</ele><time>2026-05-01T09:46:39.438Z</time></trkpt><trkpt lat="42.3026855" lon="14.2928851"><ele>116.0</ele><time>2026-05-01T09:46:40.437Z</time></trkpt><trkpt lat="42.3025531" lon="14.2928676"><ele>116.0</ele><time>2026-05-01T09:46:41.437Z</time></trkpt><trkpt lat="42.3024167" lon="14.2928487"><ele>116.0</ele><time>2026-05-01T09:46:42.435Z</time></trkpt><trkpt lat="42.3022822" lon="14.2928239"><ele>116.0</ele><time>2026-05-01T09:46:43.439Z</time></trkpt><trkpt lat="42.3021591" lon="14.2928032"><ele>116.19999999999999</ele><time>2026-05-01T09:46:44.436Z</time></trkpt><trkpt lat="42.3020421" lon="14.2927855"><ele>116.39999999999999</ele><time>2026-05-01T09:46:45.438Z</time></trkpt><trkpt lat="42.3019342" lon="14.2927705"><ele>116.6</ele><time>2026-05-01T09:46:46.439Z</time></trkpt><trkpt lat="42.301822" lon="14.2927623"><ele>116.8</ele><time>2026-05-01T09:46:47.435Z</time></trkpt><trkpt lat="42.301715" lon="14.2927542"><ele>117.0</ele><time>2026-05-01T09:46:48.447Z</time></trkpt><trkpt lat="42.3016037" lon="14.2927371"><ele>117.0</ele><time>2026-05-01T09:46:49.441Z</time></trkpt><trkpt lat="42.3014806" lon="14.2927118"><ele>117.0</ele><time>2026-05-01T09:46:50.444Z</time></trkpt><trkpt lat="42.3013495" lon="14.292681"><ele>117.0</ele><time>2026-05-01T09:46:51.446Z</time></trkpt><trkpt lat="42.3012196" lon="14.2926449"><ele>117.0</ele><time>2026-05-01T09:46:52.446Z</time></trkpt><trkpt lat="42.3011001" lon="14.2926199"><ele>117.6</ele><time>2026-05-01T09:46:53.444Z</time></trkpt><trkpt lat="42.3009903" lon="14.2925878"><ele>118.19999999999999</ele><time>2026-05-01T09:46:54.449Z</time></trkpt><trkpt lat="42.3008814" lon="14.2925602"><ele>118.8</ele><time>2026-05-01T09:46:55.443Z</time></trkpt><trkpt lat="42.3007708" lon="14.2925398"><ele>119.4</ele><time>2026-05-01T09:46:56.445Z</time></trkpt><trkpt lat="42.300661" lon="14.2925436"><ele>120.0</ele><time>2026-05-01T09:46:57.451Z</time></trkpt><trkpt lat="42.3005464" lon="14.2925516"><ele>120.2</ele><time>2026-05-01T09:46:58.446Z</time></trkpt><trkpt lat="42.3004404" lon="14.2925527"><ele>120.4</ele><time>2026-05-01T09:46:59.436Z</time></trkpt><trkpt lat="42.300353" lon="14.2925504"><ele>120.6</ele><time>2026-05-01T09:47:00.459Z</time></trkpt><trkpt lat="42.3002748" lon="14.2925308"><ele>120.8</ele><time>2026-05-01T09:47:01.465Z</time></trkpt><trkpt lat="42.3001993" lon="14.2924866"><ele>121.0</ele><time>2026-05-01T09:47:02.441Z</time></trkpt><trkpt lat="42.3001215" lon="14.2924105"><ele>121.0</ele><time>2026-05-01T09:47:03.447Z</time></trkpt><trkpt lat="42.3000395" lon="14.2923185"><ele>121.0</ele><time>2026-05-01T09:47:04.451Z</time></trkpt><trkpt lat="42.2999569" lon="14.2922352"><ele>121.0</ele><time>2026-05-01T09:47:05.434Z</time></trkpt><trkpt lat="42.2998952" lon="14.2921717"><ele>121.0</ele><time>2026-05-01T09:47:06.438Z</time></trkpt><trkpt lat="42.2998119" lon="14.2920895"><ele>121.0</ele><time>2026-05-01T09:47:08.44Z</time></trkpt><trkpt lat="42.2997045" lon="14.29208"><ele>123.00000000000001</ele><time>2026-05-01T09:47:21.445Z</time></trkpt><trkpt lat="42.2996347" lon="14.292092"><ele>125.0</ele><time>2026-05-01T09:47:22.459Z</time></trkpt><trkpt lat="42.2995571" lon="14.2921152"><ele>127.0</ele><time>2026-05-01T09:47:23.448Z</time></trkpt><trkpt lat="42.2994803" lon="14.2921451"><ele>129.0</ele><time>2026-05-01T09:47:24.451Z</time></trkpt><trkpt lat="42.2993949" lon="14.292157"><ele>131.0</ele><time>2026-05-01T09:47:25.455Z</time></trkpt><trkpt lat="42.2992879" lon="14.2921495"><ele>133.0</ele><time>2026-05-01T09:47:26.452Z</time></trkpt><trkpt lat="42.2991747" lon="14.2921361"><ele>133.0</ele><time>2026-05-01T09:47:27.454Z</time></trkpt><trkpt lat="42.2990442" lon="14.292116"><ele>133.0</ele><time>2026-05-01T09:47:28.452Z</time></trkpt><trkpt lat="42.2989105" lon="14.2921103"><ele>133.0</ele><time>2026-05-01T09:47:29.457Z</time></trkpt><trkpt lat="42.2987724" lon="14.2921098"><ele>133.0</ele><time>2026-05-01T09:47:30.444Z</time></trkpt><trkpt lat="42.2986308" lon="14.292117"><ele>133.25</ele><time>2026-05-01T09:47:31.447Z</time></trkpt><trkpt lat="42.2984865" lon="14.2921226"><ele>133.5</ele><time>2026-05-01T09:47:32.452Z</time></trkpt><trkpt lat="42.298344" lon="14.2921515"><ele>133.75</ele><time>2026-05-01T09:47:33.453Z</time></trkpt><trkpt lat="42.2982313" lon="14.2921729"><ele>134.0</ele><time>2026-05-01T09:47:34.45Z</time></trkpt><trkpt lat="42.2981267" lon="14.2921725"><ele>134.0</ele><time>2026-05-01T09:47:35.451Z</time></trkpt><trkpt lat="42.2980442" lon="14.2921804"><ele>134.0</ele><time>2026-05-01T09:47:36.445Z</time></trkpt><trkpt lat="42.2979738" lon="14.2922297"><ele>134.0</ele><time>2026-05-01T09:47:37.449Z</time></trkpt><trkpt lat="42.2979364" lon="14.2923254"><ele>134.0</ele><time>2026-05-01T09:47:38.442Z</time></trkpt><trkpt lat="42.2979022" lon="14.2924392"><ele>134.0</ele><time>2026-05-01T09:47:39.44Z</time></trkpt><trkpt lat="42.2978872" lon="14.2925779"><ele>134.0</ele><time>2026-05-01T09:47:40.441Z</time></trkpt><trkpt lat="42.297888" lon="14.2927266"><ele>131.66666666666666</ele><time>2026-05-01T09:47:41.445Z</time></trkpt><trkpt lat="42.2978912" lon="14.2928513"><ele>129.33333333333331</ele><time>2026-05-01T09:47:42.444Z</time></trkpt><trkpt lat="42.2978994" lon="14.2929488"><ele>127.0</ele><time>2026-05-01T09:47:43.444Z</time></trkpt><trkpt lat="42.2979083" lon="14.2930624"><ele>124.66666666666666</ele><time>2026-05-01T09:47:45.444Z</time></trkpt><trkpt lat="42.2978307" lon="14.2930388"><ele>122.33333333333333</ele><time>2026-05-01T09:47:48.443Z</time></trkpt><trkpt lat="42.2977595" lon="14.2929297"><ele>120.0</ele><time>2026-05-01T09:47:50.443Z</time></trkpt><trkpt lat="42.2977155" lon="14.2928581"><ele>120.0</ele><time>2026-05-01T09:47:51.446Z</time></trkpt><trkpt lat="42.2976603" lon="14.2927907"><ele>120.0</ele><time>2026-05-01T09:47:52.453Z</time></trkpt><trkpt lat="42.2976089" lon="14.2927301"><ele>120.0</ele><time>2026-05-01T09:47:53.452Z</time></trkpt><trkpt lat="42.2975289" lon="14.2926472"><ele>120.0</ele><time>2026-05-01T09:47:55.455Z</time></trkpt><trkpt lat="42.2974541" lon="14.292566"><ele>120.0</ele><time>2026-05-01T09:47:57.453Z</time></trkpt><trkpt lat="42.2974039" lon="14.2925142"><ele>120.0</ele><time>2026-05-01T09:47:58.46Z</time></trkpt><trkpt lat="42.2973417" lon="14.2924579"><ele>120.0</ele><time>2026-05-01T09:47:59.461Z</time></trkpt><trkpt lat="42.2972774" lon="14.2923928"><ele>120.0</ele><time>2026-05-01T09:48:00.456Z</time></trkpt><trkpt lat="42.2971996" lon="14.2923261"><ele>120.0</ele><time>2026-05-01T09:48:01.46Z</time></trkpt><trkpt lat="42.2971205" lon="14.2922591"><ele>120.0</ele><time>2026-05-01T09:48:02.458Z</time></trkpt><trkpt lat="42.2970361" lon="14.2921803"><ele>120.0</ele><time>2026-05-01T09:48:03.455Z</time></trkpt><trkpt lat="42.2969593" lon="14.292097"><ele>123.0</ele><time>2026-05-01T09:48:04.457Z</time></trkpt><trkpt lat="42.2968774" lon="14.2920105"><ele>126.0</ele><time>2026-05-01T09:48:05.453Z</time></trkpt><trkpt lat="42.296789" lon="14.2919348"><ele>129.0</ele><time>2026-05-01T09:48:06.451Z</time></trkpt><trkpt lat="42.2966965" lon="14.2918706"><ele>132.0</ele><time>2026-05-01T09:48:07.457Z</time></trkpt><trkpt lat="42.296602" lon="14.2918097"><ele>135.0</ele><time>2026-05-01T09:48:08.457Z</time></trkpt><trkpt lat="42.2965086" lon="14.2917512"><ele>135.0</ele><time>2026-05-01T09:48:09.449Z</time></trkpt><trkpt lat="42.2964204" lon="14.2917022"><ele>135.0</ele><time>2026-05-01T09:48:10.448Z</time></trkpt><trkpt lat="42.2963439" lon="14.2916583"><ele>135.0</ele><time>2026-05-01T09:48:11.452Z</time></trkpt><trkpt lat="42.2962717" lon="14.2916225"><ele>135.0</ele><time>2026-05-01T09:48:12.454Z</time></trkpt><trkpt lat="42.2962135" lon="14.2915897"><ele>135.0</ele><time>2026-05-01T09:48:13.448Z</time></trkpt><trkpt lat="42.2962131" lon="14.2914794"><ele>135.0</ele><time>2026-05-01T09:48:19.446Z</time></trkpt><trkpt lat="42.2962736" lon="14.2913302"><ele>134.6</ele><time>2026-05-01T09:48:21.445Z</time></trkpt><trkpt lat="42.2963097" lon="14.2912377"><ele>134.2</ele><time>2026-05-01T09:48:22.446Z</time></trkpt><trkpt lat="42.296352" lon="14.2911185"><ele>133.8</ele><time>2026-05-01T09:48:23.452Z</time></trkpt><trkpt lat="42.2963917" lon="14.2909894"><ele>133.4</ele><time>2026-05-01T09:48:24.45Z</time></trkpt><trkpt lat="42.2964348" lon="14.2908457"><ele>133.0</ele><time>2026-05-01T09:48:25.444Z</time></trkpt><trkpt lat="42.2964783" lon="14.2906984"><ele>139.0</ele><time>2026-05-01T09:48:26.443Z</time></trkpt><trkpt lat="42.2965281" lon="14.2905602"><ele>145.0</ele><time>2026-05-01T09:48:27.447Z</time></trkpt><trkpt lat="42.2965842" lon="14.2904539"><ele>151.0</ele><time>2026-05-01T09:48:28.443Z</time></trkpt><trkpt lat="42.2966485" lon="14.2903584"><ele>157.0</ele><time>2026-05-01T09:48:29.441Z</time></trkpt><trkpt lat="42.2967071" lon="14.2902709"><ele>163.0</ele><time>2026-05-01T09:48:30.442Z</time></trkpt><trkpt lat="42.2967533" lon="14.2901826"><ele>163.0</ele><time>2026-05-01T09:48:31.436Z</time></trkpt><trkpt lat="42.2967803" lon="14.290104"><ele>163.0</ele><time>2026-05-01T09:48:32.438Z</time></trkpt><trkpt lat="42.2968028" lon="14.2900241"><ele>163.0</ele><time>2026-05-01T09:48:33.43Z</time></trkpt><trkpt lat="42.2968554" lon="14.2898817"><ele>163.0</ele><time>2026-05-01T09:48:35.437Z</time></trkpt><trkpt lat="42.2969002" lon="14.2898219"><ele>163.0</ele><time>2026-05-01T09:48:36.441Z</time></trkpt><trkpt lat="42.2969471" lon="14.2897514"><ele>163.0</ele><time>2026-05-01T09:48:37.44Z</time></trkpt><trkpt lat="42.2969924" lon="14.289679"><ele>163.0</ele><time>2026-05-01T09:48:38.444Z</time></trkpt><trkpt lat="42.2970412" lon="14.289597"><ele>165.16666666666669</ele><time>2026-05-01T09:48:39.441Z</time></trkpt><trkpt lat="42.2970943" lon="14.289507"><ele>167.33333333333334</ele><time>2026-05-01T09:48:40.442Z</time></trkpt><trkpt lat="42.2971461" lon="14.2894132"><ele>169.5</ele><time>2026-05-01T09:48:41.441Z</time></trkpt><trkpt lat="42.2971953" lon="14.2893005"><ele>171.66666666666666</ele><time>2026-05-01T09:48:42.441Z</time></trkpt><trkpt lat="42.2972437" lon="14.289196"><ele>173.83333333333331</ele><time>2026-05-01T09:48:43.449Z</time></trkpt><trkpt lat="42.2972862" lon="14.2891074"><ele>176.0</ele><time>2026-05-01T09:48:44.445Z</time></trkpt><trkpt lat="42.2973516" lon="14.2890359"><ele>177.33333333333331</ele><time>2026-05-01T09:48:46.443Z</time></trkpt><trkpt lat="42.2974517" lon="14.2890389"><ele>178.66666666666666</ele><time>2026-05-01T09:48:53.452Z</time></trkpt><trkpt lat="42.2975337" lon="14.2890834"><ele>180.0</ele><time>2026-05-01T09:48:55.45Z</time></trkpt><trkpt lat="42.2975989" lon="14.2891105"><ele>181.33333333333334</ele><time>2026-05-01T09:48:57.448Z</time></trkpt><trkpt lat="42.2975916" lon="14.2890081"><ele>182.66666666666669</ele><time>2026-05-01T09:49:01.45Z</time></trkpt><trkpt lat="42.2975273" lon="14.2890407"><ele>184.0</ele><time>2026-05-01T09:49:11.466Z</time></trkpt><trkpt lat="42.297453" lon="14.2890394"><ele>184.0</ele><time>2026-05-01T09:49:15.45Z</time></trkpt><trkpt lat="42.297392" lon="14.2890081"><ele>184.0</ele><time>2026-05-01T09:49:17.453Z</time></trkpt><trkpt lat="42.2972964" lon="14.2889434"><ele>184.0</ele><time>2026-05-01T09:49:19.451Z</time></trkpt><trkpt lat="42.2971945" lon="14.2888775"><ele>184.0</ele><time>2026-05-01T09:49:21.454Z</time></trkpt><trkpt lat="42.2971152" lon="14.2888409"><ele>184.0</ele><time>2026-05-01T09:49:22.452Z</time></trkpt><trkpt lat="42.2970305" lon="14.2888015"><ele>184.83333333333334</ele><time>2026-05-01T09:49:23.45Z</time></trkpt><trkpt lat="42.2969487" lon="14.2887782"><ele>185.66666666666669</ele><time>2026-05-01T09:49:24.458Z</time></trkpt><trkpt lat="42.2968675" lon="14.2887638"><ele>186.5</ele><time>2026-05-01T09:49:25.452Z</time></trkpt><trkpt lat="42.2967865" lon="14.2887479"><ele>187.33333333333334</ele><time>2026-05-01T09:49:26.453Z</time></trkpt><trkpt lat="42.2966989" lon="14.2887211"><ele>188.16666666666666</ele><time>2026-05-01T09:49:27.458Z</time></trkpt><trkpt lat="42.2966069" lon="14.2886954"><ele>189.0</ele><time>2026-05-01T09:49:28.452Z</time></trkpt><trkpt lat="42.2965175" lon="14.2886712"><ele>189.0</ele><time>2026-05-01T09:49:29.455Z</time></trkpt><trkpt lat="42.2964297" lon="14.2886555"><ele>189.0</ele><time>2026-05-01T09:49:30.453Z</time></trkpt><trkpt lat="42.2963467" lon="14.2886416"><ele>189.0</ele><time>2026-05-01T09:49:31.455Z</time></trkpt><trkpt lat="42.2962555" lon="14.2886362"><ele>189.0</ele><time>2026-05-01T09:49:32.451Z</time></trkpt><trkpt lat="42.296164" lon="14.2886294"><ele>189.0</ele><time>2026-05-01T09:49:33.451Z</time></trkpt><trkpt lat="42.2960741" lon="14.2886156"><ele>189.0</ele><time>2026-05-01T09:49:34.452Z</time></trkpt><trkpt lat="42.2959822" lon="14.2885806"><ele>187.39999999999998</ele><time>2026-05-01T09:49:35.448Z</time></trkpt><trkpt lat="42.2958879" lon="14.2885066"><ele>185.8</ele><time>2026-05-01T09:49:36.453Z</time></trkpt><trkpt lat="42.2957982" lon="14.288412"><ele>184.2</ele><time>2026-05-01T09:49:37.444Z</time></trkpt><trkpt lat="42.295721" lon="14.2882982"><ele>182.60000000000002</ele><time>2026-05-01T09:49:38.444Z</time></trkpt><trkpt lat="42.2956595" lon="14.288176"><ele>181.0</ele><time>2026-05-01T09:49:39.443Z</time></trkpt><trkpt lat="42.29561" lon="14.288048"><ele>176.5</ele><time>2026-05-01T09:49:40.445Z</time></trkpt><trkpt lat="42.2955713" lon="14.2879191"><ele>172.0</ele><time>2026-05-01T09:49:41.442Z</time></trkpt><trkpt lat="42.2955136" lon="14.2878206"><ele>167.5</ele><time>2026-05-01T09:49:42.44Z</time></trkpt><trkpt lat="42.2954464" lon="14.2877447"><ele>163.0</ele><time>2026-05-01T09:49:43.436Z</time></trkpt><trkpt lat="42.295375" lon="14.2877003"><ele>158.5</ele><time>2026-05-01T09:49:44.442Z</time></trkpt><trkpt lat="42.2953104" lon="14.2876509"><ele>154.0</ele><time>2026-05-01T09:49:45.447Z</time></trkpt><trkpt lat="42.2952511" lon="14.2875838"><ele>154.0</ele><time>2026-05-01T09:49:46.448Z</time></trkpt><trkpt lat="42.2951879" lon="14.2874971"><ele>154.0</ele><time>2026-05-01T09:49:47.445Z</time></trkpt><trkpt lat="42.2951207" lon="14.2874004"><ele>154.0</ele><time>2026-05-01T09:49:48.447Z</time></trkpt><trkpt lat="42.2950506" lon="14.2873146"><ele>154.0</ele><time>2026-05-01T09:49:49.444Z</time></trkpt><trkpt lat="42.2949807" lon="14.2872265"><ele>154.0</ele><time>2026-05-01T09:49:50.447Z</time></trkpt><trkpt lat="42.2949121" lon="14.2871212"><ele>156.0</ele><time>2026-05-01T09:49:51.445Z</time></trkpt><trkpt lat="42.294854" lon="14.2869953"><ele>158.0</ele><time>2026-05-01T09:49:52.446Z</time></trkpt><trkpt lat="42.2948072" lon="14.2868547"><ele>160.0</ele><time>2026-05-01T09:49:53.444Z</time></trkpt><trkpt lat="42.29477" lon="14.2867137"><ele>162.0</ele><time>2026-05-01T09:49:54.446Z</time></trkpt><trkpt lat="42.294728" lon="14.2865786"><ele>164.0</ele><time>2026-05-01T09:49:55.444Z</time></trkpt><trkpt lat="42.294676" lon="14.2864521"><ele>161.0</ele><time>2026-05-01T09:49:56.44Z</time></trkpt><trkpt lat="42.2946181" lon="14.2863252"><ele>158.0</ele><time>2026-05-01T09:49:57.449Z</time></trkpt><trkpt lat="42.2945558" lon="14.2861987"><ele>155.0</ele><time>2026-05-01T09:49:58.452Z</time></trkpt><trkpt lat="42.2944846" lon="14.2860888"><ele>152.0</ele><time>2026-05-01T09:49:59.45Z</time></trkpt><trkpt lat="42.2944014" lon="14.2859934"><ele>149.0</ele><time>2026-05-01T09:50:00.446Z</time></trkpt><trkpt lat="42.2942998" lon="14.2859167"><ele>149.0</ele><time>2026-05-01T09:50:01.443Z</time></trkpt><trkpt lat="42.2941949" lon="14.2858541"><ele>149.0</ele><time>2026-05-01T09:50:02.444Z</time></trkpt><trkpt lat="42.2941002" lon="14.2858044"><ele>149.0</ele><time>2026-05-01T09:50:03.445Z</time></trkpt><trkpt lat="42.2940191" lon="14.285755"><ele>149.0</ele><time>2026-05-01T09:50:04.442Z</time></trkpt><trkpt lat="42.2939532" lon="14.2857211"><ele>149.0</ele><time>2026-05-01T09:50:05.44Z</time></trkpt><trkpt lat="42.2938345" lon="14.285657"><ele>148.0</ele><time>2026-05-01T09:50:07.447Z</time></trkpt><trkpt lat="42.293766" lon="14.285602"><ele>147.0</ele><time>2026-05-01T09:50:08.453Z</time></trkpt><trkpt lat="42.2937077" lon="14.2855387"><ele>146.0</ele><time>2026-05-01T09:50:09.447Z</time></trkpt><trkpt lat="42.2936526" lon="14.2854705"><ele>145.0</ele><time>2026-05-01T09:50:10.442Z</time></trkpt><trkpt lat="42.2935917" lon="14.2854029"><ele>144.0</ele><time>2026-05-01T09:50:11.444Z</time></trkpt><trkpt lat="42.2935221" lon="14.285339"><ele>143.0</ele><time>2026-05-01T09:50:12.438Z</time></trkpt><trkpt lat="42.2934519" lon="14.2852671"><ele>143.0</ele><time>2026-05-01T09:50:13.434Z</time></trkpt><trkpt lat="42.2933895" lon="14.2851926"><ele>143.0</ele><time>2026-05-01T09:50:14.44Z</time></trkpt><trkpt lat="42.2933276" lon="14.2851204"><ele>143.0</ele><time>2026-05-01T09:50:15.449Z</time></trkpt><trkpt lat="42.2932686" lon="14.2850572"><ele>143.0</ele><time>2026-05-01T09:50:16.443Z</time></trkpt><trkpt lat="42.2932071" lon="14.2850027"><ele>143.0</ele><time>2026-05-01T09:50:17.444Z</time></trkpt><trkpt lat="42.2931306" lon="14.2849465"><ele>143.0</ele><time>2026-05-01T09:50:18.445Z</time></trkpt><trkpt lat="42.2930508" lon="14.2848878"><ele>141.66666666666666</ele><time>2026-05-01T09:50:19.442Z</time></trkpt><trkpt lat="42.2929681" lon="14.2848356"><ele>140.33333333333331</ele><time>2026-05-01T09:50:20.447Z</time></trkpt><trkpt lat="42.2928913" lon="14.2847824"><ele>139.0</ele><time>2026-05-01T09:50:21.439Z</time></trkpt><trkpt lat="42.2928187" lon="14.2847259"><ele>137.66666666666666</ele><time>2026-05-01T09:50:22.445Z</time></trkpt><trkpt lat="42.2927506" lon="14.2846849"><ele>136.33333333333334</ele><time>2026-05-01T09:50:23.44Z</time></trkpt><trkpt lat="42.2926847" lon="14.2846507"><ele>135.0</ele><time>2026-05-01T09:50:24.44Z</time></trkpt><trkpt lat="42.2925911" lon="14.2845634"><ele>135.0</ele><time>2026-05-01T09:50:26.441Z</time></trkpt><trkpt lat="42.2925417" lon="14.2844945"><ele>135.0</ele><time>2026-05-01T09:50:27.442Z</time></trkpt><trkpt lat="42.2924833" lon="14.2844108"><ele>135.0</ele><time>2026-05-01T09:50:28.444Z</time></trkpt><trkpt lat="42.2924194" lon="14.2843275"><ele>135.0</ele><time>2026-05-01T09:50:29.441Z</time></trkpt><trkpt lat="42.2923479" lon="14.2842297"><ele>135.0</ele><time>2026-05-01T09:50:30.44Z</time></trkpt><trkpt lat="42.2922825" lon="14.2841398"><ele>135.0</ele><time>2026-05-01T09:50:31.448Z</time></trkpt><trkpt lat="42.2922143" lon="14.2840488"><ele>134.71428571428572</ele><time>2026-05-01T09:50:32.443Z</time></trkpt><trkpt lat="42.2921609" lon="14.2839611"><ele>134.42857142857142</ele><time>2026-05-01T09:50:33.443Z</time></trkpt><trkpt lat="42.2921192" lon="14.2838914"><ele>134.14285714285714</ele><time>2026-05-01T09:50:34.442Z</time></trkpt><trkpt lat="42.2920781" lon="14.2838263"><ele>133.85714285714286</ele><time>2026-05-01T09:50:35.44Z</time></trkpt><trkpt lat="42.2920259" lon="14.2837711"><ele>133.57142857142856</ele><time>2026-05-01T09:50:36.445Z</time></trkpt><trkpt lat="42.291973" lon="14.2837215"><ele>133.28571428571428</ele><time>2026-05-01T09:50:37.444Z</time></trkpt><trkpt lat="42.2919163" lon="14.2836637"><ele>133.0</ele><time>2026-05-01T09:50:38.437Z</time></trkpt><trkpt lat="42.2918499" lon="14.2836005"><ele>136.25</ele><time>2026-05-01T09:50:39.441Z</time></trkpt><trkpt lat="42.2917706" lon="14.2835114"><ele>139.5</ele><time>2026-05-01T09:50:40.437Z</time></trkpt><trkpt lat="42.2916785" lon="14.2834155"><ele>142.75</ele><time>2026-05-01T09:50:41.439Z</time></trkpt><trkpt lat="42.2915757" lon="14.2833193"><ele>146.0</ele><time>2026-05-01T09:50:42.443Z</time></trkpt><trkpt lat="42.2914702" lon="14.2832337"><ele>145.2</ele><time>2026-05-01T09:50:43.439Z</time></trkpt><trkpt lat="42.291374" lon="14.2831484"><ele>144.39999999999998</ele><time>2026-05-01T09:50:44.43Z</time></trkpt><trkpt lat="42.2912902" lon="14.2830705"><ele>143.6</ele><time>2026-05-01T09:50:45.436Z</time></trkpt><trkpt lat="42.2912171" lon="14.2829772"><ele>142.79999999999998</ele><time>2026-05-01T09:50:46.439Z</time></trkpt><trkpt lat="42.291161" lon="14.2828608"><ele>142.0</ele><time>2026-05-01T09:50:47.438Z</time></trkpt><trkpt lat="42.2911198" lon="14.2827364"><ele>143.33333333333334</ele><time>2026-05-01T09:50:48.437Z</time></trkpt><trkpt lat="42.2911005" lon="14.2826167"><ele>144.66666666666669</ele><time>2026-05-01T09:50:49.44Z</time></trkpt><trkpt lat="42.2910929" lon="14.2824927"><ele>146.0</ele><time>2026-05-01T09:50:50.436Z</time></trkpt><trkpt lat="42.2910967" lon="14.2823717"><ele>147.33333333333334</ele><time>2026-05-01T09:50:51.442Z</time></trkpt><trkpt lat="42.291091" lon="14.2822663"><ele>148.66666666666666</ele><time>2026-05-01T09:50:52.437Z</time></trkpt><trkpt lat="42.2910712" lon="14.2821559"><ele>150.0</ele><time>2026-05-01T09:50:54.435Z</time></trkpt><trkpt lat="42.2910135" lon="14.2820716"><ele>153.2</ele><time>2026-05-01T09:50:57.438Z</time></trkpt><trkpt lat="42.2909715" lon="14.2819994"><ele>156.4</ele><time>2026-05-01T09:50:58.439Z</time></trkpt><trkpt lat="42.2909243" lon="14.2819033"><ele>159.60000000000002</ele><time>2026-05-01T09:50:59.449Z</time></trkpt><trkpt lat="42.2908739" lon="14.2817879"><ele>162.8</ele><time>2026-05-01T09:51:00.447Z</time></trkpt><trkpt lat="42.2908284" lon="14.2816605"><ele>166.0</ele><time>2026-05-01T09:51:01.45Z</time></trkpt><trkpt lat="42.2908011" lon="14.281537"><ele>168.60000000000002</ele><time>2026-05-01T09:51:02.442Z</time></trkpt><trkpt lat="42.2907944" lon="14.2813985"><ele>171.2</ele><time>2026-05-01T09:51:03.442Z</time></trkpt><trkpt lat="42.2908035" lon="14.2812417"><ele>173.8</ele><time>2026-05-01T09:51:04.448Z</time></trkpt><trkpt lat="42.2908203" lon="14.2810851"><ele>176.39999999999998</ele><time>2026-05-01T09:51:05.442Z</time></trkpt><trkpt lat="42.2908283" lon="14.2809459"><ele>179.0</ele><time>2026-05-01T09:51:06.451Z</time></trkpt><trkpt lat="42.2908304" lon="14.2808151"><ele>179.0</ele><time>2026-05-01T09:51:07.447Z</time></trkpt><trkpt lat="42.2908299" lon="14.2806856"><ele>179.0</ele><time>2026-05-01T09:51:08.447Z</time></trkpt><trkpt lat="42.2908309" lon="14.2805574"><ele>179.0</ele><time>2026-05-01T09:51:09.449Z</time></trkpt><trkpt lat="42.2908232" lon="14.280444"><ele>179.0</ele><time>2026-05-01T09:51:10.449Z</time></trkpt><trkpt lat="42.2908101" lon="14.2803526"><ele>179.0</ele><time>2026-05-01T09:51:11.444Z</time></trkpt><trkpt lat="42.2907881" lon="14.2802719"><ele>179.0</ele><time>2026-05-01T09:51:12.449Z</time></trkpt><trkpt lat="42.2907486" lon="14.2801922"><ele>178.16666666666666</ele><time>2026-05-01T09:51:13.449Z</time></trkpt><trkpt lat="42.2907076" lon="14.2801154"><ele>177.33333333333331</ele><time>2026-05-01T09:51:14.452Z</time></trkpt><trkpt lat="42.2906663" lon="14.2800443"><ele>176.5</ele><time>2026-05-01T09:51:15.447Z</time></trkpt><trkpt lat="42.2905986" lon="14.2799319"><ele>175.66666666666666</ele><time>2026-05-01T09:51:17.451Z</time></trkpt><trkpt lat="42.2905425" lon="14.2798221"><ele>174.83333333333334</ele><time>2026-05-01T09:51:19.451Z</time></trkpt><trkpt lat="42.2905241" lon="14.2797054"><ele>174.0</ele><time>2026-05-01T09:51:21.451Z</time></trkpt><trkpt lat="42.290494" lon="14.2795618"><ele>177.16666666666666</ele><time>2026-05-01T09:51:23.451Z</time></trkpt><trkpt lat="42.2904799" lon="14.279475"><ele>180.33333333333331</ele><time>2026-05-01T09:51:24.453Z</time></trkpt><trkpt lat="42.2904511" lon="14.2793346"><ele>183.5</ele><time>2026-05-01T09:51:26.444Z</time></trkpt><trkpt lat="42.2904055" lon="14.2792549"><ele>186.66666666666666</ele><time>2026-05-01T09:51:28.445Z</time></trkpt><trkpt lat="42.2903187" lon="14.2791865"><ele>189.83333333333331</ele><time>2026-05-01T09:51:30.442Z</time></trkpt><trkpt lat="42.2902636" lon="14.2791428"><ele>193.0</ele><time>2026-05-01T09:51:31.438Z</time></trkpt><trkpt lat="42.2901597" lon="14.2790824"><ele>193.0</ele><time>2026-05-01T09:51:33.436Z</time></trkpt><trkpt lat="42.2900402" lon="14.2789899"><ele>193.0</ele><time>2026-05-01T09:51:35.439Z</time></trkpt><trkpt lat="42.2899757" lon="14.2789128"><ele>193.0</ele><time>2026-05-01T09:51:36.439Z</time></trkpt><trkpt lat="42.2899198" lon="14.2788103"><ele>193.0</ele><time>2026-05-01T09:51:37.44Z</time></trkpt><trkpt lat="42.2898795" lon="14.2786872"><ele>193.0</ele><time>2026-05-01T09:51:38.446Z</time></trkpt><trkpt lat="42.2898517" lon="14.2785402"><ele>194.2</ele><time>2026-05-01T09:51:39.446Z</time></trkpt><trkpt lat="42.2898207" lon="14.2783788"><ele>195.4</ele><time>2026-05-01T09:51:40.444Z</time></trkpt><trkpt lat="42.2897906" lon="14.2782165"><ele>196.6</ele><time>2026-05-01T09:51:41.451Z</time></trkpt><trkpt lat="42.2897728" lon="14.278075"><ele>197.79999999999998</ele><time>2026-05-01T09:51:42.444Z</time></trkpt><trkpt lat="42.289761" lon="14.2779515"><ele>199.0</ele><time>2026-05-01T09:51:43.446Z</time></trkpt><trkpt lat="42.2897425" lon="14.2778308"><ele>199.0</ele><time>2026-05-01T09:51:44.445Z</time></trkpt><trkpt lat="42.2897136" lon="14.2776857"><ele>199.0</ele><time>2026-05-01T09:51:45.443Z</time></trkpt><trkpt lat="42.2896812" lon="14.2775286"><ele>199.0</ele><time>2026-05-01T09:51:46.447Z</time></trkpt><trkpt lat="42.2896489" lon="14.2773821"><ele>199.0</ele><time>2026-05-01T09:51:47.448Z</time></trkpt><trkpt lat="42.2896195" lon="14.2772457"><ele>200.79999999999998</ele><time>2026-05-01T09:51:48.446Z</time></trkpt><trkpt lat="42.2896001" lon="14.2771174"><ele>202.6</ele><time>2026-05-01T09:51:49.451Z</time></trkpt><trkpt lat="42.2895776" lon="14.2769917"><ele>204.4</ele><time>2026-05-01T09:51:50.449Z</time></trkpt><trkpt lat="42.2895629" lon="14.2768684"><ele>206.2</ele><time>2026-05-01T09:51:51.449Z</time></trkpt><trkpt lat="42.2895654" lon="14.2767467"><ele>208.0</ele><time>2026-05-01T09:51:52.45Z</time></trkpt><trkpt lat="42.2895749" lon="14.2766312"><ele>207.99999999999997</ele><time>2026-05-01T09:51:53.451Z</time></trkpt><trkpt lat="42.2895736" lon="14.2765268"><ele>208.0</ele><time>2026-05-01T09:51:54.448Z</time></trkpt><trkpt lat="42.2895742" lon="14.2764209"><ele>208.0</ele><time>2026-05-01T09:51:55.449Z</time></trkpt><trkpt lat="42.2895525" lon="14.276316"><ele>208.0</ele><time>2026-05-01T09:51:56.445Z</time></trkpt><trkpt lat="42.2895293" lon="14.2762102"><ele>207.99999999999997</ele><time>2026-05-01T09:51:57.448Z</time></trkpt><trkpt lat="42.2895119" lon="14.2761066"><ele>208.0</ele><time>2026-05-01T09:51:58.45Z</time></trkpt><trkpt lat="42.2895059" lon="14.2760167"><ele>209.2</ele><time>2026-05-01T09:51:59.444Z</time></trkpt><trkpt lat="42.2895151" lon="14.2759065"><ele>210.4</ele><time>2026-05-01T09:52:01.45Z</time></trkpt><trkpt lat="42.2894504" lon="14.2758743"><ele>211.59999999999997</ele><time>2026-05-01T09:52:11.444Z</time></trkpt><trkpt lat="42.2893555" lon="14.2758799"><ele>212.79999999999998</ele><time>2026-05-01T09:52:13.443Z</time></trkpt><trkpt lat="42.2892445" lon="14.2758669"><ele>214.0</ele><time>2026-05-01T09:52:15.447Z</time></trkpt><trkpt lat="42.2891467" lon="14.2758537"><ele>213.99999999999997</ele><time>2026-05-01T09:52:17.449Z</time></trkpt><trkpt lat="42.2890697" lon="14.2758514"><ele>214.0</ele><time>2026-05-01T09:52:19.448Z</time></trkpt><trkpt lat="42.2889879" lon="14.2758479"><ele>214.0</ele><time>2026-05-01T09:52:22.442Z</time></trkpt><trkpt lat="42.288913" lon="14.2758282"><ele>214.0</ele><time>2026-05-01T09:52:25.438Z</time></trkpt><trkpt lat="42.2888298" lon="14.2757571"><ele>213.99999999999997</ele><time>2026-05-01T09:52:27.442Z</time></trkpt><trkpt lat="42.2887564" lon="14.2757203"><ele>214.0</ele><time>2026-05-01T09:52:28.446Z</time></trkpt><trkpt lat="42.2886694" lon="14.2756744"><ele>214.33333333333331</ele><time>2026-05-01T09:52:29.443Z</time></trkpt><trkpt lat="42.2885993" lon="14.2756278"><ele>214.66666666666666</ele><time>2026-05-01T09:52:30.444Z</time></trkpt><trkpt lat="42.2885382" lon="14.2755759"><ele>215.0</ele><time>2026-05-01T09:52:31.45Z</time></trkpt><trkpt lat="42.2884883" lon="14.275513"><ele>215.33333333333331</ele><time>2026-05-01T09:52:32.445Z</time></trkpt><trkpt lat="42.2884326" lon="14.2754591"><ele>215.66666666666666</ele><time>2026-05-01T09:52:33.443Z</time></trkpt><trkpt lat="42.28833" lon="14.275414"><ele>216.0</ele><time>2026-05-01T09:52:35.44Z</time></trkpt><trkpt lat="42.2882265" lon="14.2754168"><ele>216.0</ele><time>2026-05-01T09:52:37.444Z</time></trkpt><trkpt lat="42.2881328" lon="14.2754463"><ele>216.0</ele><time>2026-05-01T09:52:39.444Z</time></trkpt><trkpt lat="42.2880531" lon="14.2754766"><ele>216.0</ele><time>2026-05-01T09:52:41.445Z</time></trkpt><trkpt lat="42.2879731" lon="14.2755003"><ele>216.0</ele><time>2026-05-01T09:52:43.445Z</time></trkpt><trkpt lat="42.2878626" lon="14.2755226"><ele>216.0</ele><time>2026-05-01T09:52:45.442Z</time></trkpt><trkpt lat="42.2877876" lon="14.2755426"><ele>216.0</ele><time>2026-05-01T09:52:46.442Z</time></trkpt><trkpt lat="42.2877129" lon="14.2755403"><ele>214.0</ele><time>2026-05-01T09:52:47.445Z</time></trkpt><trkpt lat="42.2876459" lon="14.2755207"><ele>212.0</ele><time>2026-05-01T09:52:48.442Z</time></trkpt><trkpt lat="42.2875839" lon="14.2754748"><ele>210.0</ele><time>2026-05-01T09:52:49.451Z</time></trkpt><trkpt lat="42.2875335" lon="14.2754135"><ele>208.0</ele><time>2026-05-01T09:52:50.447Z</time></trkpt><trkpt lat="42.2874951" lon="14.2753346"><ele>206.0</ele><time>2026-05-01T09:52:51.449Z</time></trkpt><trkpt lat="42.2874414" lon="14.275188"><ele>204.0</ele><time>2026-05-01T09:52:53.444Z</time></trkpt><trkpt lat="42.2874156" lon="14.2750673"><ele>204.0</ele><time>2026-05-01T09:52:54.44Z</time></trkpt><trkpt lat="42.2873758" lon="14.2749359"><ele>204.0</ele><time>2026-05-01T09:52:55.445Z</time></trkpt><trkpt lat="42.2873299" lon="14.2748226"><ele>204.0</ele><time>2026-05-01T09:52:56.448Z</time></trkpt><trkpt lat="42.2872909" lon="14.2747231"><ele>204.0</ele><time>2026-05-01T09:52:57.445Z</time></trkpt><trkpt lat="42.2872565" lon="14.2746464"><ele>204.0</ele><time>2026-05-01T09:52:58.442Z</time></trkpt><trkpt lat="42.2871728" lon="14.2745903"><ele>204.0</ele><time>2026-05-01T09:53:00.444Z</time></trkpt><trkpt lat="42.2870598" lon="14.2746466"><ele>204.2</ele><time>2026-05-01T09:53:02.447Z</time></trkpt><trkpt lat="42.2869497" lon="14.2747113"><ele>204.39999999999998</ele><time>2026-05-01T09:53:04.448Z</time></trkpt><trkpt lat="42.2868266" lon="14.274751"><ele>204.6</ele><time>2026-05-01T09:53:06.445Z</time></trkpt><trkpt lat="42.2867541" lon="14.2747771"><ele>204.8</ele><time>2026-05-01T09:53:07.446Z</time></trkpt><trkpt lat="42.2866892" lon="14.2748059"><ele>205.0</ele><time>2026-05-01T09:53:08.45Z</time></trkpt><trkpt lat="42.2865795" lon="14.2748374"><ele>204.2</ele><time>2026-05-01T09:53:10.45Z</time></trkpt><trkpt lat="42.2865007" lon="14.2748206"><ele>203.4</ele><time>2026-05-01T09:53:12.448Z</time></trkpt><trkpt lat="42.2864252" lon="14.2747507"><ele>202.60000000000002</ele><time>2026-05-01T09:53:14.451Z</time></trkpt><trkpt lat="42.2863253" lon="14.2746375"><ele>201.8</ele><time>2026-05-01T09:53:16.44Z</time></trkpt><trkpt lat="42.2862299" lon="14.2745359"><ele>201.0</ele><time>2026-05-01T09:53:18.445Z</time></trkpt><trkpt lat="42.2861904" lon="14.2744631"><ele>201.0</ele><time>2026-05-01T09:53:19.447Z</time></trkpt><trkpt lat="42.2861487" lon="14.2743743"><ele>201.0</ele><time>2026-05-01T09:53:20.449Z</time></trkpt><trkpt lat="42.2861069" lon="14.2742823"><ele>201.0</ele><time>2026-05-01T09:53:21.453Z</time></trkpt><trkpt lat="42.2860751" lon="14.274201"><ele>201.0</ele><time>2026-05-01T09:53:22.449Z</time></trkpt><trkpt lat="42.2860653" lon="14.2741081"><ele>201.0</ele><time>2026-05-01T09:53:23.445Z</time></trkpt><trkpt lat="42.2860701" lon="14.2740049"><ele>201.0</ele><time>2026-05-01T09:53:24.444Z</time></trkpt><trkpt lat="42.2860945" lon="14.2739151"><ele>201.0</ele><time>2026-05-01T09:53:25.442Z</time></trkpt><trkpt lat="42.2861335" lon="14.2738182"><ele>202.85714285714286</ele><time>2026-05-01T09:53:26.438Z</time></trkpt><trkpt lat="42.2861773" lon="14.2737273"><ele>204.71428571428572</ele><time>2026-05-01T09:53:27.444Z</time></trkpt><trkpt lat="42.2862137" lon="14.2736274"><ele>206.57142857142858</ele><time>2026-05-01T09:53:29.45Z</time></trkpt><trkpt lat="42.2861883" lon="14.2735085"><ele>208.42857142857144</ele><time>2026-05-01T09:53:31.443Z</time></trkpt><trkpt lat="42.2861759" lon="14.2734236"><ele>210.28571428571428</ele><time>2026-05-01T09:53:32.446Z</time></trkpt><trkpt lat="42.2861456" lon="14.2733438"><ele>212.14285714285717</ele><time>2026-05-01T09:53:33.454Z</time></trkpt><trkpt lat="42.2861048" lon="14.273277"><ele>214.0</ele><time>2026-05-01T09:53:34.437Z</time></trkpt><trkpt lat="42.286041" lon="14.2731924"><ele>216.2</ele><time>2026-05-01T09:53:35.445Z</time></trkpt><trkpt lat="42.2859757" lon="14.2730999"><ele>218.39999999999998</ele><time>2026-05-01T09:53:36.451Z</time></trkpt><trkpt lat="42.2859117" lon="14.2730312"><ele>220.6</ele><time>2026-05-01T09:53:37.441Z</time></trkpt><trkpt lat="42.2858202" lon="14.2729174"><ele>222.8</ele><time>2026-05-01T09:53:39.447Z</time></trkpt><trkpt lat="42.2857666" lon="14.2728354"><ele>225.0</ele><time>2026-05-01T09:53:40.447Z</time></trkpt><trkpt lat="42.2856986" lon="14.2727481"><ele>225.0</ele><time>2026-05-01T09:53:41.449Z</time></trkpt><trkpt lat="42.2856217" lon="14.2726659"><ele>225.0</ele><time>2026-05-01T09:53:42.449Z</time></trkpt><trkpt lat="42.2855487" lon="14.272599"><ele>225.0</ele><time>2026-05-01T09:53:43.443Z</time></trkpt><trkpt lat="42.2854955" lon="14.2725325"><ele>225.0</ele><time>2026-05-01T09:53:44.451Z</time></trkpt><trkpt lat="42.2854556" lon="14.2724535"><ele>225.0</ele><time>2026-05-01T09:53:45.448Z</time></trkpt><trkpt lat="42.2854324" lon="14.2723502"><ele>225.0</ele><time>2026-05-01T09:53:46.448Z</time></trkpt><trkpt lat="42.2854135" lon="14.2722233"><ele>224.6</ele><time>2026-05-01T09:53:47.453Z</time></trkpt><trkpt lat="42.2853854" lon="14.2721031"><ele>224.2</ele><time>2026-05-01T09:53:48.445Z</time></trkpt><trkpt lat="42.2853634" lon="14.2719981"><ele>223.8</ele><time>2026-05-01T09:53:49.451Z</time></trkpt><trkpt lat="42.2853586" lon="14.2718794"><ele>223.4</ele><time>2026-05-01T09:53:50.446Z</time></trkpt><trkpt lat="42.2853491" lon="14.2717447"><ele>223.0</ele><time>2026-05-01T09:53:51.453Z</time></trkpt><trkpt lat="42.2853443" lon="14.2715959"><ele>223.0</ele><time>2026-05-01T09:53:52.454Z</time></trkpt><trkpt lat="42.2853535" lon="14.2714475"><ele>223.0</ele><time>2026-05-01T09:53:53.45Z</time></trkpt><trkpt lat="42.2853531" lon="14.2713059"><ele>223.0</ele><time>2026-05-01T09:53:54.45Z</time></trkpt><trkpt lat="42.2853509" lon="14.2711819"><ele>223.0</ele><time>2026-05-01T09:53:55.445Z</time></trkpt><trkpt lat="42.2853561" lon="14.2710546"><ele>223.0</ele><time>2026-05-01T09:53:56.45Z</time></trkpt><trkpt lat="42.2853692" lon="14.2709193"><ele>225.2</ele><time>2026-05-01T09:53:57.451Z</time></trkpt><trkpt lat="42.2853767" lon="14.2707757"><ele>227.4</ele><time>2026-05-01T09:53:58.449Z</time></trkpt><trkpt lat="42.2853909" lon="14.2706241"><ele>229.59999999999997</ele><time>2026-05-01T09:53:59.451Z</time></trkpt><trkpt lat="42.2854021" lon="14.2704765"><ele>231.79999999999998</ele><time>2026-05-01T09:54:00.452Z</time></trkpt><trkpt lat="42.2854166" lon="14.2703244"><ele>234.0</ele><time>2026-05-01T09:54:01.459Z</time></trkpt><trkpt lat="42.2854187" lon="14.2701901"><ele>235.5</ele><time>2026-05-01T09:54:02.45Z</time></trkpt><trkpt lat="42.2854188" lon="14.2700647"><ele>237.0</ele><time>2026-05-01T09:54:03.445Z</time></trkpt><trkpt lat="42.2854336" lon="14.2699323"><ele>238.5</ele><time>2026-05-01T09:54:04.442Z</time></trkpt><trkpt lat="42.285449" lon="14.2698209"><ele>240.0</ele><time>2026-05-01T09:54:05.441Z</time></trkpt><trkpt lat="42.2854678" lon="14.2697151"><ele>241.5</ele><time>2026-05-01T09:54:06.445Z</time></trkpt><trkpt lat="42.2854877" lon="14.269619"><ele>243.0</ele><time>2026-05-01T09:54:07.438Z</time></trkpt><trkpt lat="42.2855034" lon="14.2695316"><ele>244.33333333333334</ele><time>2026-05-01T09:54:08.441Z</time></trkpt><trkpt lat="42.2855125" lon="14.2694447"><ele>245.66666666666669</ele><time>2026-05-01T09:54:09.442Z</time></trkpt><trkpt lat="42.2855185" lon="14.2693504"><ele>247.0</ele><time>2026-05-01T09:54:10.444Z</time></trkpt><trkpt lat="42.2855292" lon="14.2692529"><ele>248.33333333333334</ele><time>2026-05-01T09:54:11.442Z</time></trkpt><trkpt lat="42.2855469" lon="14.2691536"><ele>249.66666666666669</ele><time>2026-05-01T09:54:12.439Z</time></trkpt><trkpt lat="42.2855685" lon="14.2690514"><ele>251.0</ele><time>2026-05-01T09:54:13.441Z</time></trkpt><trkpt lat="42.2855953" lon="14.2689351"><ele>257.0</ele><time>2026-05-01T09:54:14.443Z</time></trkpt><trkpt lat="42.2856185" lon="14.2688152"><ele>263.0</ele><time>2026-05-01T09:54:15.442Z</time></trkpt><trkpt lat="42.2856363" lon="14.2686981"><ele>269.0</ele><time>2026-05-01T09:54:16.438Z</time></trkpt><trkpt lat="42.2856579" lon="14.2685607"><ele>275.0</ele><time>2026-05-01T09:54:17.446Z</time></trkpt><trkpt lat="42.2856719" lon="14.2684315"><ele>281.0</ele><time>2026-05-01T09:54:18.445Z</time></trkpt><trkpt lat="42.2856768" lon="14.2683215"><ele>281.0</ele><time>2026-05-01T09:54:19.447Z</time></trkpt><trkpt lat="42.2856835" lon="14.2682315"><ele>281.0</ele><time>2026-05-01T09:54:20.445Z</time></trkpt><trkpt lat="42.2856931" lon="14.2681163"><ele>281.0</ele><time>2026-05-01T09:54:22.443Z</time></trkpt><trkpt lat="42.2856779" lon="14.2680297"><ele>281.0</ele><time>2026-05-01T09:54:25.446Z</time></trkpt><trkpt lat="42.2856526" lon="14.2678941"><ele>281.0</ele><time>2026-05-01T09:54:27.443Z</time></trkpt><trkpt lat="42.2856129" lon="14.2678057"><ele>281.0</ele><time>2026-05-01T09:54:28.445Z</time></trkpt><trkpt lat="42.2855543" lon="14.2677195"><ele>280.6666666666667</ele><time>2026-05-01T09:54:29.45Z</time></trkpt><trkpt lat="42.2854993" lon="14.2676579"><ele>280.33333333333337</ele><time>2026-05-01T09:54:30.447Z</time></trkpt><trkpt lat="42.2854361" lon="14.267552"><ele>280.0</ele><time>2026-05-01T09:54:32.445Z</time></trkpt><trkpt lat="42.2853934" lon="14.267487"><ele>279.6666666666667</ele><time>2026-05-01T09:54:34.442Z</time></trkpt><trkpt lat="42.2853648" lon="14.267364"><ele>279.3333333333333</ele><time>2026-05-01T09:55:29.457Z</time></trkpt><trkpt lat="42.2853056" lon="14.2672761"><ele>279.0</ele><time>2026-05-01T09:55:30.448Z</time></trkpt><trkpt lat="42.2852247" lon="14.26716"><ele>280.2</ele><time>2026-05-01T09:55:31.456Z</time></trkpt><trkpt lat="42.2851436" lon="14.2670545"><ele>281.4</ele><time>2026-05-01T09:55:32.446Z</time></trkpt><trkpt lat="42.2850585" lon="14.2669725"><ele>282.6</ele><time>2026-05-01T09:55:33.449Z</time></trkpt><trkpt lat="42.2849793" lon="14.2669157"><ele>283.8</ele><time>2026-05-01T09:55:34.453Z</time></trkpt><trkpt lat="42.2849088" lon="14.2668646"><ele>285.0</ele><time>2026-05-01T09:55:35.456Z</time></trkpt><trkpt lat="42.2848473" lon="14.2668042"><ele>285.0</ele><time>2026-05-01T09:55:36.448Z</time></trkpt><trkpt lat="42.2847937" lon="14.2667349"><ele>285.0</ele><time>2026-05-01T09:55:37.455Z</time></trkpt><trkpt lat="42.2847507" lon="14.2666631"><ele>285.0</ele><time>2026-05-01T09:55:38.454Z</time></trkpt><trkpt lat="42.2847456" lon="14.266536"><ele>285.0</ele><time>2026-05-01T09:55:40.455Z</time></trkpt><trkpt lat="42.2847824" lon="14.2664531"><ele>285.0</ele><time>2026-05-01T09:55:41.451Z</time></trkpt><trkpt lat="42.2848391" lon="14.2663511"><ele>285.0</ele><time>2026-05-01T09:55:42.454Z</time></trkpt><trkpt lat="42.2849026" lon="14.2662313"><ele>284.8</ele><time>2026-05-01T09:55:43.458Z</time></trkpt><trkpt lat="42.2849652" lon="14.2661073"><ele>284.6</ele><time>2026-05-01T09:55:44.451Z</time></trkpt><trkpt lat="42.2850306" lon="14.2659906"><ele>284.4</ele><time>2026-05-01T09:55:45.452Z</time></trkpt><trkpt lat="42.2850896" lon="14.265893"><ele>284.2</ele><time>2026-05-01T09:55:46.452Z</time></trkpt><trkpt lat="42.2851437" lon="14.2657999"><ele>284.0</ele><time>2026-05-01T09:55:47.449Z</time></trkpt><trkpt lat="42.2851963" lon="14.2657139"><ele>284.0</ele><time>2026-05-01T09:55:48.457Z</time></trkpt><trkpt lat="42.285244" lon="14.2656291"><ele>284.0</ele><time>2026-05-01T09:55:49.447Z</time></trkpt><trkpt lat="42.2852942" lon="14.2655566"><ele>284.0</ele><time>2026-05-01T09:55:50.449Z</time></trkpt><trkpt lat="42.2853512" lon="14.2654738"><ele>284.0</ele><time>2026-05-01T09:55:51.449Z</time></trkpt><trkpt lat="42.2854068" lon="14.265386"><ele>284.0</ele><time>2026-05-01T09:55:52.45Z</time></trkpt><trkpt lat="42.285459" lon="14.2652976"><ele>284.0</ele><time>2026-05-01T09:55:53.445Z</time></trkpt><trkpt lat="42.2855138" lon="14.2652117"><ele>282.4</ele><time>2026-05-01T09:55:54.44Z</time></trkpt><trkpt lat="42.285589" lon="14.2651461"><ele>280.79999999999995</ele><time>2026-05-01T09:55:55.442Z</time></trkpt><trkpt lat="42.2856814" lon="14.2651034"><ele>279.20000000000005</ele><time>2026-05-01T09:55:56.44Z</time></trkpt><trkpt lat="42.2857565" lon="14.2650636"><ele>277.6</ele><time>2026-05-01T09:55:57.438Z</time></trkpt><trkpt lat="42.2858104" lon="14.2649518"><ele>276.0</ele><time>2026-05-01T09:55:59.439Z</time></trkpt><trkpt lat="42.285766" lon="14.2647978"><ele>272.25</ele><time>2026-05-01T09:56:01.443Z</time></trkpt><trkpt lat="42.2857253" lon="14.2646731"><ele>268.5</ele><time>2026-05-01T09:56:02.438Z</time></trkpt><trkpt lat="42.2856509" lon="14.2645026"><ele>264.75</ele><time>2026-05-01T09:56:03.446Z</time></trkpt><trkpt lat="42.2855698" lon="14.2643367"><ele>261.0</ele><time>2026-05-01T09:56:04.444Z</time></trkpt><trkpt lat="42.2854844" lon="14.2641739"><ele>261.0</ele><time>2026-05-01T09:56:05.448Z</time></trkpt><trkpt lat="42.2854061" lon="14.2640149"><ele>261.0</ele><time>2026-05-01T09:56:06.445Z</time></trkpt><trkpt lat="42.2853429" lon="14.2638714"><ele>261.0</ele><time>2026-05-01T09:56:07.451Z</time></trkpt><trkpt lat="42.2852895" lon="14.2637308"><ele>261.0</ele><time>2026-05-01T09:56:08.441Z</time></trkpt><trkpt lat="42.2852411" lon="14.263587"><ele>260.5</ele><time>2026-05-01T09:56:09.445Z</time></trkpt><trkpt lat="42.2852203" lon="14.2634203"><ele>260.0</ele><time>2026-05-01T09:56:10.449Z</time></trkpt><trkpt lat="42.2852403" lon="14.2632615"><ele>259.5</ele><time>2026-05-01T09:56:11.445Z</time></trkpt><trkpt lat="42.2852848" lon="14.2630955"><ele>259.0</ele><time>2026-05-01T09:56:12.441Z</time></trkpt><trkpt lat="42.2853335" lon="14.2629527"><ele>258.0</ele><time>2026-05-01T09:56:13.456Z</time></trkpt><trkpt lat="42.2853588" lon="14.2627987"><ele>257.0</ele><time>2026-05-01T09:56:14.449Z</time></trkpt><trkpt lat="42.2853373" lon="14.2626507"><ele>256.0</ele><time>2026-05-01T09:56:15.444Z</time></trkpt><trkpt lat="42.2852806" lon="14.2624994"><ele>255.0</ele><time>2026-05-01T09:56:16.444Z</time></trkpt><trkpt lat="42.2851859" lon="14.2623385"><ele>251.66666666666669</ele><time>2026-05-01T09:56:17.445Z</time></trkpt><trkpt lat="42.2850612" lon="14.2621531"><ele>248.33333333333334</ele><time>2026-05-01T09:56:18.446Z</time></trkpt><trkpt lat="42.2849706" lon="14.2619688"><ele>245.0</ele><time>2026-05-01T09:56:19.456Z</time></trkpt><trkpt lat="42.2848679" lon="14.2617918"><ele>245.0</ele><time>2026-05-01T09:56:20.448Z</time></trkpt><trkpt lat="42.2847786" lon="14.261646"><ele>245.0</ele><time>2026-05-01T09:56:21.442Z</time></trkpt><trkpt lat="42.2847136" lon="14.2614993"><ele>245.0</ele><time>2026-05-01T09:56:22.443Z</time></trkpt><trkpt lat="42.2846543" lon="14.2613458"><ele>245.0</ele><time>2026-05-01T09:56:23.441Z</time></trkpt><trkpt lat="42.2846021" lon="14.2611983"><ele>244.50000000000003</ele><time>2026-05-01T09:56:24.441Z</time></trkpt><trkpt lat="42.2845712" lon="14.261068"><ele>244.0</ele><time>2026-05-01T09:56:25.436Z</time></trkpt><trkpt lat="42.2845728" lon="14.2609421"><ele>243.5</ele><time>2026-05-01T09:56:26.442Z</time></trkpt><trkpt lat="42.2845865" lon="14.2608208"><ele>243.0</ele><time>2026-05-01T09:56:27.443Z</time></trkpt><trkpt lat="42.2846337" lon="14.2607469"><ele>242.50000000000003</ele><time>2026-05-01T09:56:28.432Z</time></trkpt><trkpt lat="42.2847087" lon="14.2606775"><ele>242.0</ele><time>2026-05-01T09:56:29.44Z</time></trkpt><trkpt lat="42.2848077" lon="14.2606321"><ele>242.0</ele><time>2026-05-01T09:56:30.432Z</time></trkpt><trkpt lat="42.2849188" lon="14.2606138"><ele>242.0</ele><time>2026-05-01T09:56:31.441Z</time></trkpt><trkpt lat="42.2850472" lon="14.2606157"><ele>242.0</ele><time>2026-05-01T09:56:32.438Z</time></trkpt><trkpt lat="42.2851808" lon="14.2606231"><ele>242.0</ele><time>2026-05-01T09:56:33.441Z</time></trkpt><trkpt lat="42.2853326" lon="14.2606686"><ele>242.0</ele><time>2026-05-01T09:56:34.451Z</time></trkpt><trkpt lat="42.2854788" lon="14.2606526"><ele>242.0</ele><time>2026-05-01T09:56:35.444Z</time></trkpt><trkpt lat="42.2856252" lon="14.2606425"><ele>242.0</ele><time>2026-05-01T09:56:36.444Z</time></trkpt><trkpt lat="42.2857919" lon="14.2606472"><ele>242.66666666666669</ele><time>2026-05-01T09:56:37.446Z</time></trkpt><trkpt lat="42.2859569" lon="14.2606552"><ele>243.33333333333331</ele><time>2026-05-01T09:56:38.437Z</time></trkpt><trkpt lat="42.2861165" lon="14.2607195"><ele>244.0</ele><time>2026-05-01T09:56:39.441Z</time></trkpt><trkpt lat="42.2862445" lon="14.2607788"><ele>244.0</ele><time>2026-05-01T09:56:40.434Z</time></trkpt><trkpt lat="42.2863831" lon="14.2608021"><ele>244.0</ele><time>2026-05-01T09:56:41.443Z</time></trkpt><trkpt lat="42.2865257" lon="14.2608197"><ele>244.0</ele><time>2026-05-01T09:56:42.44Z</time></trkpt><trkpt lat="42.2866577" lon="14.2608484"><ele>244.0</ele><time>2026-05-01T09:56:43.446Z</time></trkpt><trkpt lat="42.2867668" lon="14.2607545"><ele>244.79999999999998</ele><time>2026-05-01T09:56:44.453Z</time></trkpt><trkpt lat="42.2868473" lon="14.2606647"><ele>245.59999999999997</ele><time>2026-05-01T09:56:45.445Z</time></trkpt><trkpt lat="42.2869019" lon="14.2605757"><ele>246.4</ele><time>2026-05-01T09:56:46.448Z</time></trkpt><trkpt lat="42.28693" lon="14.2604421"><ele>247.2</ele><time>2026-05-01T09:56:47.448Z</time></trkpt><trkpt lat="42.2869257" lon="14.2602703"><ele>248.0</ele><time>2026-05-01T09:56:48.447Z</time></trkpt><trkpt lat="42.2868985" lon="14.260096"><ele>253.0</ele><time>2026-05-01T09:56:49.444Z</time></trkpt><trkpt lat="42.2868479" lon="14.2599213"><ele>258.0</ele><time>2026-05-01T09:56:50.444Z</time></trkpt><trkpt lat="42.2867623" lon="14.2597598"><ele>263.0</ele><time>2026-05-01T09:56:51.44Z</time></trkpt><trkpt lat="42.2866138" lon="14.2596241"><ele>264.6666666666667</ele><time>2026-05-01T09:56:52.44Z</time></trkpt><trkpt lat="42.2864681" lon="14.2594985"><ele>266.3333333333333</ele><time>2026-05-01T09:56:53.449Z</time></trkpt><trkpt lat="42.2863232" lon="14.2593985"><ele>268.0</ele><time>2026-05-01T09:56:54.448Z</time></trkpt><trkpt lat="42.2861935" lon="14.2593215"><ele>268.0</ele><time>2026-05-01T09:56:55.445Z</time></trkpt><trkpt lat="42.2860719" lon="14.2592521"><ele>268.0</ele><time>2026-05-01T09:56:56.444Z</time></trkpt><trkpt lat="42.2859788" lon="14.2591654"><ele>268.0</ele><time>2026-05-01T09:56:57.464Z</time></trkpt><trkpt lat="42.2858759" lon="14.2590806"><ele>268.0</ele><time>2026-05-01T09:56:58.462Z</time></trkpt><trkpt lat="42.2857787" lon="14.2589598"><ele>271.2</ele><time>2026-05-01T09:56:59.456Z</time></trkpt><trkpt lat="42.2857027" lon="14.2588237"><ele>274.4</ele><time>2026-05-01T09:57:00.462Z</time></trkpt><trkpt lat="42.2856609" lon="14.258701"><ele>277.59999999999997</ele><time>2026-05-01T09:57:01.462Z</time></trkpt><trkpt lat="42.2856566" lon="14.2585583"><ele>280.8</ele><time>2026-05-01T09:57:02.453Z</time></trkpt><trkpt lat="42.2856605" lon="14.2584375"><ele>284.0</ele><time>2026-05-01T09:57:03.458Z</time></trkpt><trkpt lat="42.2857122" lon="14.2583558"><ele>284.0</ele><time>2026-05-01T09:57:04.459Z</time></trkpt><trkpt lat="42.285813" lon="14.2583049"><ele>284.0</ele><time>2026-05-01T09:57:05.455Z</time></trkpt><trkpt lat="42.2859322" lon="14.2583072"><ele>284.0</ele><time>2026-05-01T09:57:06.459Z</time></trkpt><trkpt lat="42.286066" lon="14.2583699"><ele>284.0</ele><time>2026-05-01T09:57:07.461Z</time></trkpt><trkpt lat="42.2862052" lon="14.2584791"><ele>284.0</ele><time>2026-05-01T09:57:08.455Z</time></trkpt><trkpt lat="42.2863692" lon="14.2586876"><ele>284.0</ele><time>2026-05-01T09:57:09.456Z</time></trkpt><trkpt lat="42.2865259" lon="14.2588058"><ele>284.0</ele><time>2026-05-01T09:57:10.463Z</time></trkpt><trkpt lat="42.2867039" lon="14.2589086"><ele>281.6666666666667</ele><time>2026-05-01T09:57:11.463Z</time></trkpt><trkpt lat="42.2868731" lon="14.2590205"><ele>279.3333333333333</ele><time>2026-05-01T09:57:12.47Z</time></trkpt><trkpt lat="42.2870361" lon="14.259123"><ele>277.0</ele><time>2026-05-01T09:57:13.459Z</time></trkpt><trkpt lat="42.2871694" lon="14.2592212"><ele>279.5</ele><time>2026-05-01T09:57:14.461Z</time></trkpt><trkpt lat="42.2872971" lon="14.25931"><ele>282.0</ele><time>2026-05-01T09:57:15.457Z</time></trkpt><trkpt lat="42.2874155" lon="14.2593606"><ele>284.5</ele><time>2026-05-01T09:57:16.462Z</time></trkpt><trkpt lat="42.2875235" lon="14.2594095"><ele>287.0</ele><time>2026-05-01T09:57:17.458Z</time></trkpt><trkpt lat="42.2876462" lon="14.25943"><ele>287.0</ele><time>2026-05-01T09:57:18.452Z</time></trkpt><trkpt lat="42.2877614" lon="14.2594111"><ele>287.0</ele><time>2026-05-01T09:57:19.45Z</time></trkpt><trkpt lat="42.2878943" lon="14.2593692"><ele>287.0</ele><time>2026-05-01T09:57:20.44Z</time></trkpt><trkpt lat="42.2880051" lon="14.2592997"><ele>287.0</ele><time>2026-05-01T09:57:21.454Z</time></trkpt><trkpt lat="42.288117" lon="14.2592211"><ele>288.0</ele><time>2026-05-01T09:57:22.451Z</time></trkpt><trkpt lat="42.28821" lon="14.2591656"><ele>289.0</ele><time>2026-05-01T09:57:23.45Z</time></trkpt><trkpt lat="42.288296" lon="14.2591024"><ele>290.0</ele><time>2026-05-01T09:57:24.45Z</time></trkpt><trkpt lat="42.2883726" lon="14.2590279"><ele>291.0</ele><time>2026-05-01T09:57:25.456Z</time></trkpt><trkpt lat="42.2884433" lon="14.258938"><ele>292.0</ele><time>2026-05-01T09:57:26.453Z</time></trkpt><trkpt lat="42.2885101" lon="14.2588336"><ele>293.4</ele><time>2026-05-01T09:57:27.454Z</time></trkpt><trkpt lat="42.28858" lon="14.2587252"><ele>294.79999999999995</ele><time>2026-05-01T09:57:28.454Z</time></trkpt><trkpt lat="42.288656" lon="14.2586328"><ele>296.2</ele><time>2026-05-01T09:57:29.452Z</time></trkpt><trkpt lat="42.2887273" lon="14.2585523"><ele>297.59999999999997</ele><time>2026-05-01T09:57:30.45Z</time></trkpt><trkpt lat="42.2887927" lon="14.2584763"><ele>299.0</ele><time>2026-05-01T09:57:31.458Z</time></trkpt><trkpt lat="42.2888541" lon="14.25841"><ele>299.0</ele><time>2026-05-01T09:57:32.457Z</time></trkpt><trkpt lat="42.2889061" lon="14.2583508"><ele>299.0</ele><time>2026-05-01T09:57:33.461Z</time></trkpt><trkpt lat="42.2889502" lon="14.2582884"><ele>299.0</ele><time>2026-05-01T09:57:34.469Z</time></trkpt><trkpt lat="42.2890271" lon="14.2581557"><ele>299.0</ele><time>2026-05-01T09:57:36.465Z</time></trkpt><trkpt lat="42.2890887" lon="14.2580346"><ele>299.0</ele><time>2026-05-01T09:57:38.454Z</time></trkpt><trkpt lat="42.2891506" lon="14.2579859"><ele>299.0</ele><time>2026-05-01T09:57:49.461Z</time></trkpt><trkpt lat="42.2892059" lon="14.2579164"><ele>298.4</ele><time>2026-05-01T09:57:51.465Z</time></trkpt><trkpt lat="42.2891454" lon="14.2578154"><ele>297.79999999999995</ele><time>2026-05-01T09:57:53.454Z</time></trkpt><trkpt lat="42.2890883" lon="14.2577509"><ele>297.20000000000005</ele><time>2026-05-01T09:57:54.456Z</time></trkpt><trkpt lat="42.2891471" lon="14.2579047"><ele>296.6</ele><time>2026-05-01T09:58:47.456Z</time></trkpt><trkpt lat="42.2892019" lon="14.2579967"><ele>296.0</ele><time>2026-05-01T09:58:48.454Z</time></trkpt><trkpt lat="42.2892602" lon="14.2580973"><ele>296.2</ele><time>2026-05-01T09:58:49.456Z</time></trkpt><trkpt lat="42.2893265" lon="14.2581996"><ele>296.40000000000003</ele><time>2026-05-01T09:58:50.463Z</time></trkpt><trkpt lat="42.2894082" lon="14.2582738"><ele>296.6</ele><time>2026-05-01T09:58:51.458Z</time></trkpt><trkpt lat="42.2894928" lon="14.2583347"><ele>296.8</ele><time>2026-05-01T09:58:52.458Z</time></trkpt><trkpt lat="42.2895713" lon="14.2583897"><ele>297.0</ele><time>2026-05-01T09:58:53.47Z</time></trkpt><trkpt lat="42.2896477" lon="14.2584476"><ele>297.0</ele><time>2026-05-01T09:58:54.456Z</time></trkpt><trkpt lat="42.289728" lon="14.2584976"><ele>297.0</ele><time>2026-05-01T09:58:55.454Z</time></trkpt><trkpt lat="42.2898055" lon="14.2585494"><ele>297.0</ele><time>2026-05-01T09:58:56.449Z</time></trkpt><trkpt lat="42.289881" lon="14.2586039"><ele>297.0</ele><time>2026-05-01T09:58:57.461Z</time></trkpt><trkpt lat="42.2899586" lon="14.2586537"><ele>297.0</ele><time>2026-05-01T09:58:58.454Z</time></trkpt><trkpt lat="42.2900336" lon="14.258705"><ele>297.0</ele><time>2026-05-01T09:58:59.466Z</time></trkpt><trkpt lat="42.2901117" lon="14.2587533"><ele>297.0</ele><time>2026-05-01T09:59:00.461Z</time></trkpt><trkpt lat="42.2901896" lon="14.2587983"><ele>297.0</ele><time>2026-05-01T09:59:01.465Z</time></trkpt><trkpt lat="42.2902647" lon="14.2588395"><ele>297.0</ele><time>2026-05-01T09:59:02.458Z</time></trkpt><trkpt lat="42.2903392" lon="14.2588815"><ele>297.0</ele><time>2026-05-01T09:59:03.463Z</time></trkpt><trkpt lat="42.2904107" lon="14.2589326"><ele>297.0</ele><time>2026-05-01T09:59:04.471Z</time></trkpt><trkpt lat="42.2904837" lon="14.2589835"><ele>297.0</ele><time>2026-05-01T09:59:05.461Z</time></trkpt><trkpt lat="42.2905529" lon="14.2590316"><ele>296.1666666666667</ele><time>2026-05-01T09:59:06.459Z</time></trkpt><trkpt lat="42.290622" lon="14.2590766"><ele>295.3333333333333</ele><time>2026-05-01T09:59:07.459Z</time></trkpt><trkpt lat="42.2906943" lon="14.2591262"><ele>294.5</ele><time>2026-05-01T09:59:08.466Z</time></trkpt><trkpt lat="42.2907634" lon="14.2591749"><ele>293.66666666666663</ele><time>2026-05-01T09:59:09.462Z</time></trkpt><trkpt lat="42.2908253" lon="14.2592121"><ele>292.8333333333333</ele><time>2026-05-01T09:59:10.456Z</time></trkpt><trkpt lat="42.2909105" lon="14.259255"><ele>292.0</ele><time>2026-05-01T09:59:12.461Z</time></trkpt><trkpt lat="42.2909853" lon="14.2592757"><ele>292.0</ele><time>2026-05-01T09:59:30.462Z</time></trkpt><trkpt lat="42.2910449" lon="14.2593147"><ele>292.0</ele><time>2026-05-01T09:59:32.463Z</time></trkpt><trkpt lat="42.2911177" lon="14.2593394"><ele>292.0</ele><time>2026-05-01T09:59:34.469Z</time></trkpt><trkpt lat="42.2911968" lon="14.2593874"><ele>292.0</ele><time>2026-05-01T09:59:37.466Z</time></trkpt><trkpt lat="42.2912704" lon="14.2594285"><ele>292.0</ele><time>2026-05-01T09:59:40.471Z</time></trkpt><trkpt lat="42.2912417" lon="14.2593376"><ele>292.0</ele><time>2026-05-01T09:59:44.469Z</time></trkpt><trkpt lat="42.291147" lon="14.2593062"><ele>292.0</ele><time>2026-05-01T09:59:46.471Z</time></trkpt><trkpt lat="42.2910657" lon="14.259258"><ele>292.0</ele><time>2026-05-01T09:59:48.472Z</time></trkpt><trkpt lat="42.2910074" lon="14.2592205"><ele>292.0</ele><time>2026-05-01T09:59:50.465Z</time></trkpt><trkpt lat="42.2909652" lon="14.2591458"><ele>292.0</ele><time>2026-05-01T09:59:54.464Z</time></trkpt><trkpt lat="42.2908582" lon="14.2591136"><ele>292.0</ele><time>2026-05-01T10:08:42.459Z</time></trkpt><trkpt lat="42.2907916" lon="14.2590657"><ele>292.0</ele><time>2026-05-01T10:08:43.468Z</time></trkpt><trkpt lat="42.2906994" lon="14.2589919"><ele>291.5</ele><time>2026-05-01T10:08:44.45Z</time></trkpt><trkpt lat="42.2905913" lon="14.2589111"><ele>291.0</ele><time>2026-05-01T10:08:45.458Z</time></trkpt><trkpt lat="42.2904686" lon="14.2588328"><ele>290.5</ele><time>2026-05-01T10:08:46.461Z</time></trkpt><trkpt lat="42.2903368" lon="14.258742"><ele>290.0</ele><time>2026-05-01T10:08:47.461Z</time></trkpt><trkpt lat="42.2902078" lon="14.2586549"><ele>290.0</ele><time>2026-05-01T10:08:48.463Z</time></trkpt><trkpt lat="42.2900756" lon="14.2585798"><ele>290.0</ele><time>2026-05-01T10:08:49.467Z</time></trkpt><trkpt lat="42.2899443" lon="14.2585041"><ele>290.0</ele><time>2026-05-01T10:08:50.46Z</time></trkpt><trkpt lat="42.2898136" lon="14.2584254"><ele>290.0</ele><time>2026-05-01T10:08:51.465Z</time></trkpt><trkpt lat="42.2896856" lon="14.2583415"><ele>291.5</ele><time>2026-05-01T10:08:52.462Z</time></trkpt><trkpt lat="42.2895651" lon="14.2582574"><ele>293.0</ele><time>2026-05-01T10:08:53.465Z</time></trkpt><trkpt lat="42.2894457" lon="14.2581647"><ele>294.5</ele><time>2026-05-01T10:08:54.465Z</time></trkpt><trkpt lat="42.289331" lon="14.2580677"><ele>296.0</ele><time>2026-05-01T10:08:55.465Z</time></trkpt><trkpt lat="42.2892173" lon="14.2579681"><ele>296.0</ele><time>2026-05-01T10:08:56.472Z</time></trkpt><trkpt lat="42.2891178" lon="14.2578792"><ele>296.0</ele><time>2026-05-01T10:08:57.46Z</time></trkpt><trkpt lat="42.2890276" lon="14.2577932"><ele>296.0</ele><time>2026-05-01T10:08:58.463Z</time></trkpt><trkpt lat="42.2889397" lon="14.2577003"><ele>296.0</ele><time>2026-05-01T10:08:59.462Z</time></trkpt><trkpt lat="42.288843" lon="14.257607"><ele>297.5</ele><time>2026-05-01T10:09:00.455Z</time></trkpt><trkpt lat="42.2887453" lon="14.2575072"><ele>299.0</ele><time>2026-05-01T10:09:01.461Z</time></trkpt><trkpt lat="42.2886528" lon="14.2574018"><ele>300.5</ele><time>2026-05-01T10:09:02.449Z</time></trkpt><trkpt lat="42.2885593" lon="14.2572992"><ele>302.0</ele><time>2026-05-01T10:09:03.458Z</time></trkpt><trkpt lat="42.2884676" lon="14.2571882"><ele>302.0</ele><time>2026-05-01T10:09:04.451Z</time></trkpt><trkpt lat="42.2883694" lon="14.2570849"><ele>302.0</ele><time>2026-05-01T10:09:05.456Z</time></trkpt><trkpt lat="42.2882596" lon="14.2569921"><ele>302.0</ele><time>2026-05-01T10:09:06.457Z</time></trkpt><trkpt lat="42.2881362" lon="14.2569237"><ele>302.0</ele><time>2026-05-01T10:09:07.457Z</time></trkpt><trkpt lat="42.288002" lon="14.2568664"><ele>302.75</ele><time>2026-05-01T10:09:08.465Z</time></trkpt><trkpt lat="42.287856" lon="14.2568471"><ele>303.5</ele><time>2026-05-01T10:09:09.464Z</time></trkpt><trkpt lat="42.2877229" lon="14.2567624"><ele>304.25</ele><time>2026-05-01T10:09:10.462Z</time></trkpt><trkpt lat="42.2876011" lon="14.2566849"><ele>305.0</ele><time>2026-05-01T10:09:11.466Z</time></trkpt><trkpt lat="42.2874704" lon="14.2566127"><ele>305.0</ele><time>2026-05-01T10:09:12.457Z</time></trkpt><trkpt lat="42.2873461" lon="14.2565413"><ele>305.0</ele><time>2026-05-01T10:09:13.455Z</time></trkpt><trkpt lat="42.2872405" lon="14.2564239"><ele>305.0</ele><time>2026-05-01T10:09:14.463Z</time></trkpt><trkpt lat="42.2871282" lon="14.2562959"><ele>305.0</ele><time>2026-05-01T10:09:15.461Z</time></trkpt><trkpt lat="42.2870088" lon="14.2561796"><ele>306.6666666666667</ele><time>2026-05-01T10:09:16.465Z</time></trkpt><trkpt lat="42.2868842" lon="14.2560419"><ele>308.3333333333333</ele><time>2026-05-01T10:09:17.461Z</time></trkpt><trkpt lat="42.2867658" lon="14.2559079"><ele>310.0</ele><time>2026-05-01T10:09:18.461Z</time></trkpt><trkpt lat="42.2866486" lon="14.2557963"><ele>310.0</ele><time>2026-05-01T10:09:19.465Z</time></trkpt><trkpt lat="42.2865251" lon="14.2556908"><ele>310.0</ele><time>2026-05-01T10:09:20.458Z</time></trkpt><trkpt lat="42.2864102" lon="14.2555862"><ele>310.0</ele><time>2026-05-01T10:09:21.461Z</time></trkpt><trkpt lat="42.2862851" lon="14.2554972"><ele>310.0</ele><time>2026-05-01T10:09:22.462Z</time></trkpt><trkpt lat="42.2861633" lon="14.2553838"><ele>310.75</ele><time>2026-05-01T10:09:23.464Z</time></trkpt><trkpt lat="42.2860366" lon="14.2552821"><ele>311.5</ele><time>2026-05-01T10:09:24.463Z</time></trkpt><trkpt lat="42.2859131" lon="14.2551922"><ele>312.25</ele><time>2026-05-01T10:09:25.464Z</time></trkpt><trkpt lat="42.285772" lon="14.2550998"><ele>313.0</ele><time>2026-05-01T10:09:26.465Z</time></trkpt><trkpt lat="42.2856573" lon="14.2550188"><ele>313.0</ele><time>2026-05-01T10:09:27.463Z</time></trkpt><trkpt lat="42.2855491" lon="14.2549325"><ele>313.0</ele><time>2026-05-01T10:09:28.462Z</time></trkpt><trkpt lat="42.285416" lon="14.2548354"><ele>313.0</ele><time>2026-05-01T10:09:29.459Z</time></trkpt><trkpt lat="42.2852811" lon="14.2547486"><ele>313.0</ele><time>2026-05-01T10:09:30.459Z</time></trkpt><trkpt lat="42.28513" lon="14.2546659"><ele>313.3333333333333</ele><time>2026-05-01T10:09:31.457Z</time></trkpt><trkpt lat="42.2850005" lon="14.2545625"><ele>313.6666666666667</ele><time>2026-05-01T10:09:32.463Z</time></trkpt><trkpt lat="42.2848704" lon="14.2544705"><ele>314.0</ele><time>2026-05-01T10:09:33.458Z</time></trkpt><trkpt lat="42.2847356" lon="14.2543743"><ele>314.0</ele><time>2026-05-01T10:09:34.462Z</time></trkpt><trkpt lat="42.2846036" lon="14.254278"><ele>314.0</ele><time>2026-05-01T10:09:35.456Z</time></trkpt><trkpt lat="42.2844605" lon="14.2541855"><ele>314.0</ele><time>2026-05-01T10:09:36.456Z</time></trkpt><trkpt lat="42.2843169" lon="14.2541231"><ele>314.0</ele><time>2026-05-01T10:09:37.453Z</time></trkpt><trkpt lat="42.2841817" lon="14.2540461"><ele>314.0</ele><time>2026-05-01T10:09:38.454Z</time></trkpt><trkpt lat="42.2840358" lon="14.2539711"><ele>314.0</ele><time>2026-05-01T10:09:39.457Z</time></trkpt><trkpt lat="42.2839003" lon="14.2538887"><ele>314.0</ele><time>2026-05-01T10:09:40.458Z</time></trkpt><trkpt lat="42.2837508" lon="14.2538236"><ele>314.0</ele><time>2026-05-01T10:09:41.45Z</time></trkpt><trkpt lat="42.2836175" lon="14.2537215"><ele>314.0</ele><time>2026-05-01T10:09:42.46Z</time></trkpt><trkpt lat="42.2834832" lon="14.2536258"><ele>314.0</ele><time>2026-05-01T10:09:43.453Z</time></trkpt><trkpt lat="42.2833269" lon="14.2535465"><ele>314.0</ele><time>2026-05-01T10:09:44.456Z</time></trkpt><trkpt lat="42.2831759" lon="14.2534558"><ele>314.0</ele><time>2026-05-01T10:09:45.455Z</time></trkpt><trkpt lat="42.283012" lon="14.2533526"><ele>313.33333333333337</ele><time>2026-05-01T10:09:46.46Z</time></trkpt><trkpt lat="42.2828569" lon="14.2532572"><ele>312.6666666666667</ele><time>2026-05-01T10:09:47.46Z</time></trkpt><trkpt lat="42.2826987" lon="14.2531748"><ele>312.0</ele><time>2026-05-01T10:09:48.461Z</time></trkpt><trkpt lat="42.2825429" lon="14.2530909"><ele>312.3333333333333</ele><time>2026-05-01T10:09:49.475Z</time></trkpt><trkpt lat="42.2823801" lon="14.2530222"><ele>312.66666666666663</ele><time>2026-05-01T10:09:50.468Z</time></trkpt><trkpt lat="42.2822343" lon="14.2529548"><ele>313.0</ele><time>2026-05-01T10:09:51.468Z</time></trkpt><trkpt lat="42.2820761" lon="14.2529126"><ele>313.0</ele><time>2026-05-01T10:09:52.471Z</time></trkpt><trkpt lat="42.2819126" lon="14.2528657"><ele>313.0</ele><time>2026-05-01T10:09:53.469Z</time></trkpt><trkpt lat="42.281765" lon="14.2528099"><ele>313.0</ele><time>2026-05-01T10:09:54.466Z</time></trkpt><trkpt lat="42.2816149" lon="14.2527536"><ele>313.0</ele><time>2026-05-01T10:09:55.469Z</time></trkpt><trkpt lat="42.2814726" lon="14.2526888"><ele>313.0</ele><time>2026-05-01T10:09:56.472Z</time></trkpt><trkpt lat="42.2813213" lon="14.2526106"><ele>313.0</ele><time>2026-05-01T10:09:57.471Z</time></trkpt><trkpt lat="42.2811658" lon="14.2525516"><ele>314.0</ele><time>2026-05-01T10:09:58.475Z</time></trkpt><trkpt lat="42.2810098" lon="14.2524936"><ele>315.0</ele><time>2026-05-01T10:09:59.467Z</time></trkpt><trkpt lat="42.280861" lon="14.2524351"><ele>316.0</ele><time>2026-05-01T10:10:00.469Z</time></trkpt><trkpt lat="42.2807066" lon="14.2523603"><ele>316.0</ele><time>2026-05-01T10:10:01.476Z</time></trkpt><trkpt lat="42.2805463" lon="14.25229"><ele>316.0</ele><time>2026-05-01T10:10:02.472Z</time></trkpt><trkpt lat="42.2803989" lon="14.2522201"><ele>316.0</ele><time>2026-05-01T10:10:03.475Z</time></trkpt><trkpt lat="42.2802478" lon="14.2521617"><ele>316.0</ele><time>2026-05-01T10:10:04.472Z</time></trkpt><trkpt lat="42.2800906" lon="14.2520952"><ele>316.0</ele><time>2026-05-01T10:10:05.469Z</time></trkpt><trkpt lat="42.2799358" lon="14.2520202"><ele>316.0</ele><time>2026-05-01T10:10:06.465Z</time></trkpt><trkpt lat="42.2797835" lon="14.251934"><ele>317.0</ele><time>2026-05-01T10:10:07.472Z</time></trkpt><trkpt lat="42.279633" lon="14.2518535"><ele>318.0</ele><time>2026-05-01T10:10:08.468Z</time></trkpt><trkpt lat="42.2794784" lon="14.2517886"><ele>319.0</ele><time>2026-05-01T10:10:09.468Z</time></trkpt><trkpt lat="42.2793209" lon="14.2516977"><ele>319.0</ele><time>2026-05-01T10:10:10.468Z</time></trkpt><trkpt lat="42.2791715" lon="14.2516038"><ele>319.0</ele><time>2026-05-01T10:10:11.471Z</time></trkpt><trkpt lat="42.2790291" lon="14.2515379"><ele>319.0</ele><time>2026-05-01T10:10:12.462Z</time></trkpt><trkpt lat="42.2788923" lon="14.2514624"><ele>320.3333333333333</ele><time>2026-05-01T10:10:13.472Z</time></trkpt><trkpt lat="42.2787459" lon="14.2514092"><ele>321.6666666666667</ele><time>2026-05-01T10:10:14.469Z</time></trkpt><trkpt lat="42.2785986" lon="14.2513619"><ele>323.0</ele><time>2026-05-01T10:10:15.461Z</time></trkpt><trkpt lat="42.278442" lon="14.2513008"><ele>323.0</ele><time>2026-05-01T10:10:16.471Z</time></trkpt><trkpt lat="42.2782869" lon="14.2512393"><ele>323.0</ele><time>2026-05-01T10:10:17.465Z</time></trkpt><trkpt lat="42.2781299" lon="14.2511808"><ele>323.0</ele><time>2026-05-01T10:10:18.469Z</time></trkpt><trkpt lat="42.2779826" lon="14.2511306"><ele>324.33333333333337</ele><time>2026-05-01T10:10:19.47Z</time></trkpt><trkpt lat="42.2778268" lon="14.2510698"><ele>325.6666666666667</ele><time>2026-05-01T10:10:20.47Z</time></trkpt><trkpt lat="42.2776718" lon="14.2510199"><ele>327.0</ele><time>2026-05-01T10:10:21.472Z</time></trkpt><trkpt lat="42.2775155" lon="14.2509678"><ele>327.0</ele><time>2026-05-01T10:10:22.469Z</time></trkpt><trkpt lat="42.2773627" lon="14.2509356"><ele>327.0</ele><time>2026-05-01T10:10:23.469Z</time></trkpt><trkpt lat="42.2772202" lon="14.2508955"><ele>327.0</ele><time>2026-05-01T10:10:24.465Z</time></trkpt><trkpt lat="42.277078" lon="14.2508583"><ele>327.0</ele><time>2026-05-01T10:10:25.461Z</time></trkpt><trkpt lat="42.2769455" lon="14.2508483"><ele>327.6666666666667</ele><time>2026-05-01T10:10:26.463Z</time></trkpt><trkpt lat="42.27684" lon="14.2508519"><ele>328.3333333333333</ele><time>2026-05-01T10:10:27.456Z</time></trkpt><trkpt lat="42.2767727" lon="14.2508146"><ele>329.0</ele><time>2026-05-01T10:10:28.456Z</time></trkpt><trkpt lat="42.2766908" lon="14.2507369"><ele>329.66666666666663</ele><time>2026-05-01T10:10:30.456Z</time></trkpt><trkpt lat="42.2766422" lon="14.2506686"><ele>330.3333333333333</ele><time>2026-05-01T10:10:31.46Z</time></trkpt><trkpt lat="42.2765718" lon="14.2505832"><ele>331.0</ele><time>2026-05-01T10:10:32.459Z</time></trkpt><trkpt lat="42.2764928" lon="14.2504883"><ele>330.6</ele><time>2026-05-01T10:10:33.462Z</time></trkpt><trkpt lat="42.2764135" lon="14.2503891"><ele>330.20000000000005</ele><time>2026-05-01T10:10:34.46Z</time></trkpt><trkpt lat="42.2763475" lon="14.2502897"><ele>329.79999999999995</ele><time>2026-05-01T10:10:35.458Z</time></trkpt><trkpt lat="42.2762796" lon="14.250181"><ele>329.4</ele><time>2026-05-01T10:10:36.46Z</time></trkpt><trkpt lat="42.2762143" lon="14.250053"><ele>329.0</ele><time>2026-05-01T10:10:37.457Z</time></trkpt><trkpt lat="42.2761625" lon="14.2499183"><ele>329.0</ele><time>2026-05-01T10:10:38.453Z</time></trkpt><trkpt lat="42.2761019" lon="14.2498002"><ele>329.0</ele><time>2026-05-01T10:10:39.45Z</time></trkpt><trkpt lat="42.2760357" lon="14.249709"><ele>329.0</ele><time>2026-05-01T10:10:40.453Z</time></trkpt><trkpt lat="42.2759545" lon="14.2496485"><ele>329.0</ele><time>2026-05-01T10:10:41.453Z</time></trkpt><trkpt lat="42.2758636" lon="14.2496052"><ele>329.0</ele><time>2026-05-01T10:10:42.457Z</time></trkpt><trkpt lat="42.2757643" lon="14.2495595"><ele>327.4</ele><time>2026-05-01T10:10:43.451Z</time></trkpt><trkpt lat="42.2756616" lon="14.2495164"><ele>325.79999999999995</ele><time>2026-05-01T10:10:44.451Z</time></trkpt><trkpt lat="42.2755657" lon="14.2494631"><ele>324.20000000000005</ele><time>2026-05-01T10:10:45.452Z</time></trkpt><trkpt lat="42.2754729" lon="14.2493993"><ele>322.6</ele><time>2026-05-01T10:10:46.447Z</time></trkpt><trkpt lat="42.2753833" lon="14.2493286"><ele>321.0</ele><time>2026-05-01T10:10:47.455Z</time></trkpt><trkpt lat="42.2752933" lon="14.2492445"><ele>321.0</ele><time>2026-05-01T10:10:48.449Z</time></trkpt><trkpt lat="42.2752066" lon="14.2491591"><ele>321.0</ele><time>2026-05-01T10:10:49.454Z</time></trkpt><trkpt lat="42.2751163" lon="14.249085"><ele>321.0</ele><time>2026-05-01T10:10:50.441Z</time></trkpt><trkpt lat="42.2750201" lon="14.2490117"><ele>321.0</ele><time>2026-05-01T10:10:51.446Z</time></trkpt><trkpt lat="42.2749149" lon="14.248951"><ele>321.0</ele><time>2026-05-01T10:10:52.454Z</time></trkpt><trkpt lat="42.2748019" lon="14.2489035"><ele>314.75</ele><time>2026-05-01T10:10:53.448Z</time></trkpt><trkpt lat="42.2746771" lon="14.248846"><ele>308.5</ele><time>2026-05-01T10:10:54.446Z</time></trkpt><trkpt lat="42.2745478" lon="14.2487878"><ele>302.25</ele><time>2026-05-01T10:10:55.449Z</time></trkpt><trkpt lat="42.2744199" lon="14.2487359"><ele>296.0</ele><time>2026-05-01T10:10:56.445Z</time></trkpt><trkpt lat="42.2742934" lon="14.2486859"><ele>296.0</ele><time>2026-05-01T10:10:57.45Z</time></trkpt><trkpt lat="42.2741684" lon="14.2486332"><ele>296.0</ele><time>2026-05-01T10:10:58.448Z</time></trkpt><trkpt lat="42.2740493" lon="14.248563"><ele>296.0</ele><time>2026-05-01T10:10:59.447Z</time></trkpt><trkpt lat="42.2739355" lon="14.2484908"><ele>296.0</ele><time>2026-05-01T10:11:00.445Z</time></trkpt><trkpt lat="42.2738203" lon="14.2484184"><ele>299.0</ele><time>2026-05-01T10:11:01.453Z</time></trkpt><trkpt lat="42.2737139" lon="14.2483396"><ele>302.0</ele><time>2026-05-01T10:11:02.442Z</time></trkpt><trkpt lat="42.2736125" lon="14.2482529"><ele>305.0</ele><time>2026-05-01T10:11:03.445Z</time></trkpt><trkpt lat="42.2735145" lon="14.2481668"><ele>308.0</ele><time>2026-05-01T10:11:04.445Z</time></trkpt><trkpt lat="42.2734174" lon="14.2480929"><ele>307.25</ele><time>2026-05-01T10:11:05.451Z</time></trkpt><trkpt lat="42.2733195" lon="14.2480077"><ele>306.5</ele><time>2026-05-01T10:11:06.441Z</time></trkpt><trkpt lat="42.2732249" lon="14.2479156"><ele>305.75</ele><time>2026-05-01T10:11:07.442Z</time></trkpt><trkpt lat="42.2731411" lon="14.2477995"><ele>305.0</ele><time>2026-05-01T10:11:08.438Z</time></trkpt><trkpt lat="42.273064" lon="14.2476614"><ele>305.0</ele><time>2026-05-01T10:11:09.44Z</time></trkpt><trkpt lat="42.2729927" lon="14.2474981"><ele>305.0</ele><time>2026-05-01T10:11:10.439Z</time></trkpt><trkpt lat="42.2729613" lon="14.2472861"><ele>305.0</ele><time>2026-05-01T10:11:11.439Z</time></trkpt><trkpt lat="42.2729689" lon="14.2470475"><ele>299.5</ele><time>2026-05-01T10:11:12.437Z</time></trkpt><trkpt lat="42.2729582" lon="14.2468508"><ele>294.0</ele><time>2026-05-01T10:11:13.443Z</time></trkpt><trkpt lat="42.2729378" lon="14.2466473"><ele>288.5</ele><time>2026-05-01T10:11:14.442Z</time></trkpt><trkpt lat="42.2729146" lon="14.2464514"><ele>283.0</ele><time>2026-05-01T10:11:15.447Z</time></trkpt><trkpt lat="42.2728871" lon="14.2462775"><ele>281.2</ele><time>2026-05-01T10:11:16.444Z</time></trkpt><trkpt lat="42.2728831" lon="14.2461386"><ele>279.4</ele><time>2026-05-01T10:11:17.437Z</time></trkpt><trkpt lat="42.2728731" lon="14.2460175"><ele>277.59999999999997</ele><time>2026-05-01T10:11:18.44Z</time></trkpt><trkpt lat="42.272848" lon="14.2458959"><ele>275.8</ele><time>2026-05-01T10:11:19.444Z</time></trkpt><trkpt lat="42.2728153" lon="14.2457635"><ele>274.0</ele><time>2026-05-01T10:11:20.438Z</time></trkpt><trkpt lat="42.2727627" lon="14.2456289"><ele>274.25</ele><time>2026-05-01T10:11:21.444Z</time></trkpt><trkpt lat="42.2726629" lon="14.2455001"><ele>274.5</ele><time>2026-05-01T10:11:22.44Z</time></trkpt><trkpt lat="42.2725723" lon="14.2453711"><ele>274.75</ele><time>2026-05-01T10:11:23.445Z</time></trkpt><trkpt lat="42.2724853" lon="14.245234"><ele>275.0</ele><time>2026-05-01T10:11:24.442Z</time></trkpt><trkpt lat="42.2723923" lon="14.2450884"><ele>275.0</ele><time>2026-05-01T10:11:25.446Z</time></trkpt><trkpt lat="42.2723192" lon="14.2449305"><ele>275.0</ele><time>2026-05-01T10:11:26.445Z</time></trkpt><trkpt lat="42.2722391" lon="14.244793"><ele>275.0</ele><time>2026-05-01T10:11:27.448Z</time></trkpt><trkpt lat="42.2721576" lon="14.2446413"><ele>275.0</ele><time>2026-05-01T10:11:28.446Z</time></trkpt><trkpt lat="42.2720639" lon="14.24451"><ele>277.5</ele><time>2026-05-01T10:11:29.445Z</time></trkpt><trkpt lat="42.2719496" lon="14.2444262"><ele>280.0</ele><time>2026-05-01T10:11:30.442Z</time></trkpt><trkpt lat="42.2718413" lon="14.2443499"><ele>282.5</ele><time>2026-05-01T10:11:31.45Z</time></trkpt><trkpt lat="42.2717169" lon="14.2443077"><ele>285.0</ele><time>2026-05-01T10:11:32.444Z</time></trkpt><trkpt lat="42.2715917" lon="14.2442924"><ele>285.0</ele><time>2026-05-01T10:11:33.449Z</time></trkpt><trkpt lat="42.2714644" lon="14.2442865"><ele>285.0</ele><time>2026-05-01T10:11:34.448Z</time></trkpt><trkpt lat="42.2713436" lon="14.2442692"><ele>285.0</ele><time>2026-05-01T10:11:35.448Z</time></trkpt><trkpt lat="42.2712525" lon="14.2442144"><ele>285.0</ele><time>2026-05-01T10:11:36.44Z</time></trkpt><trkpt lat="42.2711702" lon="14.2441394"><ele>285.0</ele><time>2026-05-01T10:11:37.442Z</time></trkpt><trkpt lat="42.2710847" lon="14.2440565"><ele>286.0</ele><time>2026-05-01T10:11:38.445Z</time></trkpt><trkpt lat="42.2709813" lon="14.2439595"><ele>287.0</ele><time>2026-05-01T10:11:39.445Z</time></trkpt><trkpt lat="42.2708633" lon="14.2438709"><ele>288.0</ele><time>2026-05-01T10:11:40.447Z</time></trkpt><trkpt lat="42.2707424" lon="14.2437914"><ele>289.0</ele><time>2026-05-01T10:11:41.45Z</time></trkpt><trkpt lat="42.2706251" lon="14.2437017"><ele>288.75</ele><time>2026-05-01T10:11:42.45Z</time></trkpt><trkpt lat="42.2705154" lon="14.2435967"><ele>288.5</ele><time>2026-05-01T10:11:43.449Z</time></trkpt><trkpt lat="42.270416" lon="14.2434832"><ele>288.25</ele><time>2026-05-01T10:11:44.453Z</time></trkpt><trkpt lat="42.2703299" lon="14.243365"><ele>288.0</ele><time>2026-05-01T10:11:45.452Z</time></trkpt><trkpt lat="42.2702451" lon="14.2432367"><ele>289.75</ele><time>2026-05-01T10:11:46.451Z</time></trkpt><trkpt lat="42.2701511" lon="14.2431179"><ele>291.5</ele><time>2026-05-01T10:11:47.452Z</time></trkpt><trkpt lat="42.2700449" lon="14.2429958"><ele>293.25</ele><time>2026-05-01T10:11:48.455Z</time></trkpt><trkpt lat="42.2699274" lon="14.2428745"><ele>295.0</ele><time>2026-05-01T10:11:49.457Z</time></trkpt><trkpt lat="42.2697988" lon="14.2427625"><ele>294.3333333333333</ele><time>2026-05-01T10:11:50.454Z</time></trkpt><trkpt lat="42.2696714" lon="14.2426482"><ele>293.6666666666667</ele><time>2026-05-01T10:11:51.458Z</time></trkpt><trkpt lat="42.2695357" lon="14.2425345"><ele>293.0</ele><time>2026-05-01T10:11:52.453Z</time></trkpt><trkpt lat="42.2693882" lon="14.2424191"><ele>293.0</ele><time>2026-05-01T10:11:53.453Z</time></trkpt><trkpt lat="42.2692714" lon="14.2423092"><ele>293.0</ele><time>2026-05-01T10:11:54.452Z</time></trkpt><trkpt lat="42.2691858" lon="14.2422203"><ele>293.0</ele><time>2026-05-01T10:11:55.45Z</time></trkpt><trkpt lat="42.2691164" lon="14.2420985"><ele>293.0</ele><time>2026-05-01T10:11:56.445Z</time></trkpt><trkpt lat="42.2690605" lon="14.2419718"><ele>294.6</ele><time>2026-05-01T10:11:57.45Z</time></trkpt><trkpt lat="42.2689993" lon="14.2418291"><ele>296.20000000000005</ele><time>2026-05-01T10:11:58.456Z</time></trkpt><trkpt lat="42.2689371" lon="14.2416909"><ele>297.8</ele><time>2026-05-01T10:11:59.455Z</time></trkpt><trkpt lat="42.2688802" lon="14.2415907"><ele>299.40000000000003</ele><time>2026-05-01T10:12:00.442Z</time></trkpt><trkpt lat="42.268841" lon="14.2415127"><ele>301.0</ele><time>2026-05-01T10:12:01.461Z</time></trkpt><trkpt lat="42.2687662" lon="14.2414731"><ele>301.2</ele><time>2026-05-01T10:12:03.455Z</time></trkpt><trkpt lat="42.2686868" lon="14.2414985"><ele>301.40000000000003</ele><time>2026-05-01T10:12:05.446Z</time></trkpt><trkpt lat="42.2685729" lon="14.2414494"><ele>301.6</ele><time>2026-05-01T10:12:07.448Z</time></trkpt><trkpt lat="42.2684809" lon="14.2414154"><ele>301.8</ele><time>2026-05-01T10:12:08.449Z</time></trkpt><trkpt lat="42.2683787" lon="14.241383"><ele>302.0</ele><time>2026-05-01T10:12:09.451Z</time></trkpt><trkpt lat="42.268279" lon="14.2413377"><ele>303.33333333333337</ele><time>2026-05-01T10:12:10.444Z</time></trkpt><trkpt lat="42.2681813" lon="14.241286"><ele>304.6666666666667</ele><time>2026-05-01T10:12:11.452Z</time></trkpt><trkpt lat="42.2680836" lon="14.241237"><ele>306.0</ele><time>2026-05-01T10:12:12.452Z</time></trkpt><trkpt lat="42.2680073" lon="14.2411884"><ele>307.3333333333333</ele><time>2026-05-01T10:12:13.447Z</time></trkpt><trkpt lat="42.2679456" lon="14.2411334"><ele>308.66666666666663</ele><time>2026-05-01T10:12:14.45Z</time></trkpt><trkpt lat="42.2678864" lon="14.2410771"><ele>310.0</ele><time>2026-05-01T10:12:15.453Z</time></trkpt><trkpt lat="42.267833" lon="14.2410067"><ele>310.0</ele><time>2026-05-01T10:12:16.451Z</time></trkpt><trkpt lat="42.2677709" lon="14.2409339"><ele>310.0</ele><time>2026-05-01T10:12:17.449Z</time></trkpt><trkpt lat="42.2677157" lon="14.2408587"><ele>310.0</ele><time>2026-05-01T10:12:18.447Z</time></trkpt><trkpt lat="42.2676607" lon="14.2407781"><ele>310.0</ele><time>2026-05-01T10:12:19.452Z</time></trkpt><trkpt lat="42.2676111" lon="14.240694"><ele>310.0</ele><time>2026-05-01T10:12:20.446Z</time></trkpt><trkpt lat="42.2675731" lon="14.2406107"><ele>310.0</ele><time>2026-05-01T10:12:21.45Z</time></trkpt><trkpt lat="42.26754" lon="14.2405184"><ele>310.8333333333333</ele><time>2026-05-01T10:12:22.449Z</time></trkpt><trkpt lat="42.2675184" lon="14.2404188"><ele>311.66666666666663</ele><time>2026-05-01T10:12:23.45Z</time></trkpt><trkpt lat="42.267488" lon="14.2403121"><ele>312.5</ele><time>2026-05-01T10:12:24.454Z</time></trkpt><trkpt lat="42.2674547" lon="14.2402133"><ele>313.3333333333333</ele><time>2026-05-01T10:12:25.453Z</time></trkpt><trkpt lat="42.2674109" lon="14.2401226"><ele>314.1666666666667</ele><time>2026-05-01T10:12:26.443Z</time></trkpt><trkpt lat="42.2673646" lon="14.2400482"><ele>315.0</ele><time>2026-05-01T10:12:27.453Z</time></trkpt><trkpt lat="42.2673008" lon="14.239908"><ele>317.6666666666667</ele><time>2026-05-01T10:12:29.452Z</time></trkpt><trkpt lat="42.2672733" lon="14.2397735"><ele>320.3333333333333</ele><time>2026-05-01T10:12:31.447Z</time></trkpt><trkpt lat="42.2672643" lon="14.2396672"><ele>323.0</ele><time>2026-05-01T10:12:34.444Z</time></trkpt><trkpt lat="42.2672574" lon="14.2395538"><ele>325.66666666666663</ele><time>2026-05-01T10:12:37.448Z</time></trkpt><trkpt lat="42.2672558" lon="14.2394673"><ele>328.3333333333333</ele><time>2026-05-01T10:12:39.442Z</time></trkpt><trkpt lat="42.2672682" lon="14.2393755"><ele>331.0</ele><time>2026-05-01T10:12:42.438Z</time></trkpt><trkpt lat="42.2672554" lon="14.2392535"><ele>331.0</ele><time>2026-05-01T10:12:44.442Z</time></trkpt><trkpt lat="42.2672256" lon="14.2391125"><ele>331.0</ele><time>2026-05-01T10:12:46.443Z</time></trkpt><trkpt lat="42.2671781" lon="14.2390007"><ele>331.0</ele><time>2026-05-01T10:12:48.445Z</time></trkpt><trkpt lat="42.2671153" lon="14.2389253"><ele>331.0</ele><time>2026-05-01T10:12:50.441Z</time></trkpt><trkpt lat="42.2670304" lon="14.2388949"><ele>331.0</ele><time>2026-05-01T10:12:52.442Z</time></trkpt><trkpt lat="42.2669585" lon="14.2388668"><ele>331.16666666666663</ele><time>2026-05-01T10:12:54.445Z</time></trkpt><trkpt lat="42.2668659" lon="14.2388398"><ele>331.3333333333333</ele><time>2026-05-01T10:12:56.448Z</time></trkpt><trkpt lat="42.2668047" lon="14.2387441"><ele>331.5</ele><time>2026-05-01T10:16:22.456Z</time></trkpt><trkpt lat="42.2667476" lon="14.238666"><ele>331.6666666666667</ele><time>2026-05-01T10:16:28.45Z</time></trkpt><trkpt lat="42.2666889" lon="14.238579"><ele>331.83333333333337</ele><time>2026-05-01T10:16:31.446Z</time></trkpt><trkpt lat="42.2666371" lon="14.238503"><ele>332.0</ele><time>2026-05-01T10:16:34.441Z</time></trkpt><trkpt lat="42.266568" lon="14.2384212"><ele>332.0</ele><time>2026-05-01T10:16:37.443Z</time></trkpt><trkpt lat="42.2665014" lon="14.2383706"><ele>332.0</ele><time>2026-05-01T10:16:39.439Z</time></trkpt><trkpt lat="42.2664486" lon="14.2382658"><ele>332.0</ele><time>2026-05-01T10:16:42.436Z</time></trkpt><trkpt lat="42.2664199" lon="14.2381877"><ele>332.0</ele><time>2026-05-01T10:16:44.441Z</time></trkpt><trkpt lat="42.2663764" lon="14.2381207"><ele>332.0</ele><time>2026-05-01T10:16:46.437Z</time></trkpt><trkpt lat="42.2663203" lon="14.2380454"><ele>332.0</ele><time>2026-05-01T10:16:53.442Z</time></trkpt><trkpt lat="42.266263" lon="14.2379803"><ele>332.83333333333337</ele><time>2026-05-01T10:16:55.439Z</time></trkpt><trkpt lat="42.2661742" lon="14.2378913"><ele>333.6666666666667</ele><time>2026-05-01T10:16:57.438Z</time></trkpt><trkpt lat="42.2660839" lon="14.2378278"><ele>334.5</ele><time>2026-05-01T10:16:59.432Z</time></trkpt><trkpt lat="42.265996" lon="14.2378078"><ele>335.3333333333333</ele><time>2026-05-01T10:17:01.447Z</time></trkpt><trkpt lat="42.2659195" lon="14.2377902"><ele>336.16666666666663</ele><time>2026-05-01T10:17:03.442Z</time></trkpt><trkpt lat="42.2658581" lon="14.2377531"><ele>337.0</ele><time>2026-05-01T10:17:07.44Z</time></trkpt><trkpt lat="42.2658039" lon="14.2377043"><ele>337.0</ele><time>2026-05-01T10:17:11.446Z</time></trkpt><trkpt lat="42.2657216" lon="14.2376269"><ele>337.0</ele><time>2026-05-01T10:17:13.445Z</time></trkpt><trkpt lat="42.2656272" lon="14.2375062"><ele>337.0</ele><time>2026-05-01T10:17:15.44Z</time></trkpt><trkpt lat="42.2655884" lon="14.2374312"><ele>337.0</ele><time>2026-05-01T10:17:16.448Z</time></trkpt><trkpt lat="42.2655481" lon="14.2373498"><ele>337.0</ele><time>2026-05-01T10:17:17.447Z</time></trkpt><trkpt lat="42.2655028" lon="14.2372586"><ele>338.66666666666663</ele><time>2026-05-01T10:17:18.443Z</time></trkpt><trkpt lat="42.2654615" lon="14.237175"><ele>340.3333333333333</ele><time>2026-05-01T10:17:19.445Z</time></trkpt><trkpt lat="42.2654263" lon="14.2370989"><ele>342.0</ele><time>2026-05-01T10:17:20.451Z</time></trkpt><trkpt lat="42.2653911" lon="14.2370237"><ele>343.6666666666667</ele><time>2026-05-01T10:17:21.45Z</time></trkpt><trkpt lat="42.2653605" lon="14.2369484"><ele>345.33333333333337</ele><time>2026-05-01T10:17:22.453Z</time></trkpt><trkpt lat="42.2652999" lon="14.2367969"><ele>347.0</ele><time>2026-05-01T10:17:24.455Z</time></trkpt><trkpt lat="42.2652472" lon="14.2366562"><ele>347.0</ele><time>2026-05-01T10:17:26.458Z</time></trkpt><trkpt lat="42.2652193" lon="14.2365747"><ele>347.0</ele><time>2026-05-01T10:17:28.46Z</time></trkpt><trkpt lat="42.2651591" lon="14.2364625"><ele>347.0</ele><time>2026-05-01T10:17:31.466Z</time></trkpt><trkpt lat="42.26511" lon="14.2363591"><ele>347.0</ele><time>2026-05-01T10:17:33.467Z</time></trkpt><trkpt lat="42.2650613" lon="14.2362673"><ele>347.0</ele><time>2026-05-01T10:17:36.467Z</time></trkpt><trkpt lat="42.2650117" lon="14.2361949"><ele>347.0</ele><time>2026-05-01T10:17:39.455Z</time></trkpt><trkpt lat="42.2649664" lon="14.236131"><ele>346.33333333333337</ele><time>2026-05-01T10:17:42.456Z</time></trkpt><trkpt lat="42.2648998" lon="14.2360709"><ele>345.6666666666667</ele><time>2026-05-01T10:17:45.466Z</time></trkpt><trkpt lat="42.2648248" lon="14.2360258"><ele>345.0</ele><time>2026-05-01T10:17:48.459Z</time></trkpt><trkpt lat="42.2647535" lon="14.2360095"><ele>344.3333333333333</ele><time>2026-05-01T10:17:50.457Z</time></trkpt><trkpt lat="42.264666" lon="14.2360562"><ele>343.66666666666663</ele><time>2026-05-01T10:17:52.456Z</time></trkpt><trkpt lat="42.2646147" lon="14.2361127"><ele>343.0</ele><time>2026-05-01T10:17:53.45Z</time></trkpt><trkpt lat="42.2645582" lon="14.2361891"><ele>344.0</ele><time>2026-05-01T10:17:54.455Z</time></trkpt><trkpt lat="42.2644912" lon="14.236264"><ele>345.0</ele><time>2026-05-01T10:17:55.448Z</time></trkpt><trkpt lat="42.2644238" lon="14.236338"><ele>346.0</ele><time>2026-05-01T10:17:56.46Z</time></trkpt><trkpt lat="42.264349" lon="14.2364"><ele>347.0</ele><time>2026-05-01T10:17:57.46Z</time></trkpt><trkpt lat="42.264272" lon="14.2364388"><ele>348.0</ele><time>2026-05-01T10:17:58.451Z</time></trkpt><trkpt lat="42.2641802" lon="14.2364586"><ele>349.0</ele><time>2026-05-01T10:17:59.452Z</time></trkpt><trkpt lat="42.2640967" lon="14.2364873"><ele>349.0</ele><time>2026-05-01T10:18:00.451Z</time></trkpt><trkpt lat="42.264031" lon="14.2365272"><ele>349.0</ele><time>2026-05-01T10:18:01.455Z</time></trkpt><trkpt lat="42.2639642" lon="14.23658"><ele>349.0</ele><time>2026-05-01T10:18:02.457Z</time></trkpt><trkpt lat="42.2638911" lon="14.2366444"><ele>349.0</ele><time>2026-05-01T10:18:03.451Z</time></trkpt><trkpt lat="42.2638162" lon="14.2366974"><ele>349.0</ele><time>2026-05-01T10:18:04.463Z</time></trkpt><trkpt lat="42.2637506" lon="14.2367331"><ele>349.0</ele><time>2026-05-01T10:18:05.455Z</time></trkpt><trkpt lat="42.2636852" lon="14.2367494"><ele>348.3333333333333</ele><time>2026-05-01T10:18:06.459Z</time></trkpt><trkpt lat="42.263617" lon="14.2367382"><ele>347.66666666666663</ele><time>2026-05-01T10:18:07.459Z</time></trkpt><trkpt lat="42.2635486" lon="14.2367127"><ele>347.0</ele><time>2026-05-01T10:18:08.46Z</time></trkpt><trkpt lat="42.2634703" lon="14.2366684"><ele>346.3333333333333</ele><time>2026-05-01T10:18:09.462Z</time></trkpt><trkpt lat="42.263392" lon="14.2366369"><ele>345.6666666666667</ele><time>2026-05-01T10:18:10.463Z</time></trkpt><trkpt lat="42.2633176" lon="14.2366385"><ele>345.0</ele><time>2026-05-01T10:18:11.455Z</time></trkpt><trkpt lat="42.2632464" lon="14.2366603"><ele>345.0</ele><time>2026-05-01T10:18:12.468Z</time></trkpt><trkpt lat="42.2631831" lon="14.2366924"><ele>345.0</ele><time>2026-05-01T10:18:13.467Z</time></trkpt><trkpt lat="42.2631143" lon="14.2367424"><ele>345.0</ele><time>2026-05-01T10:18:14.466Z</time></trkpt><trkpt lat="42.2630393" lon="14.2367993"><ele>345.0</ele><time>2026-05-01T10:18:15.464Z</time></trkpt><trkpt lat="42.2629631" lon="14.2368534"><ele>345.0</ele><time>2026-05-01T10:18:16.466Z</time></trkpt><trkpt lat="42.2628954" lon="14.2368944"><ele>345.0</ele><time>2026-05-01T10:18:17.471Z</time></trkpt><trkpt lat="42.2628333" lon="14.2369272"><ele>344.6666666666667</ele><time>2026-05-01T10:18:18.465Z</time></trkpt><trkpt lat="42.2627713" lon="14.2369576"><ele>344.3333333333333</ele><time>2026-05-01T10:18:19.47Z</time></trkpt><trkpt lat="42.2627072" lon="14.2369783"><ele>344.0</ele><time>2026-05-01T10:18:20.463Z</time></trkpt><trkpt lat="42.2626475" lon="14.2370121"><ele>343.66666666666663</ele><time>2026-05-01T10:18:21.462Z</time></trkpt><trkpt lat="42.2625354" lon="14.237079"><ele>343.3333333333333</ele><time>2026-05-01T10:18:23.465Z</time></trkpt><trkpt lat="42.2624725" lon="14.2371145"><ele>343.0</ele><time>2026-05-01T10:18:24.459Z</time></trkpt><trkpt lat="42.2624117" lon="14.2371369"><ele>343.0</ele><time>2026-05-01T10:18:25.462Z</time></trkpt><trkpt lat="42.2623466" lon="14.2371513"><ele>343.0</ele><time>2026-05-01T10:18:26.468Z</time></trkpt><trkpt lat="42.2622729" lon="14.2371616"><ele>343.0</ele><time>2026-05-01T10:18:27.462Z</time></trkpt><trkpt lat="42.262194" lon="14.2371628"><ele>343.0</ele><time>2026-05-01T10:18:28.466Z</time></trkpt><trkpt lat="42.2621187" lon="14.2371628"><ele>343.0</ele><time>2026-05-01T10:18:29.468Z</time></trkpt><trkpt lat="42.2620481" lon="14.2371596"><ele>343.0</ele><time>2026-05-01T10:18:30.466Z</time></trkpt><trkpt lat="42.2619796" lon="14.2371575"><ele>343.0</ele><time>2026-05-01T10:18:31.467Z</time></trkpt><trkpt lat="42.2619011" lon="14.2371693"><ele>343.85714285714283</ele><time>2026-05-01T10:18:32.464Z</time></trkpt><trkpt lat="42.2618164" lon="14.237193"><ele>344.7142857142857</ele><time>2026-05-01T10:18:33.455Z</time></trkpt><trkpt lat="42.261738" lon="14.2372154"><ele>345.57142857142856</ele><time>2026-05-01T10:18:34.456Z</time></trkpt><trkpt lat="42.261674" lon="14.237239"><ele>346.42857142857144</ele><time>2026-05-01T10:18:35.457Z</time></trkpt><trkpt lat="42.261611" lon="14.2372658"><ele>347.2857142857143</ele><time>2026-05-01T10:18:36.453Z</time></trkpt><trkpt lat="42.2615463" lon="14.2373022"><ele>348.1428571428571</ele><time>2026-05-01T10:18:37.455Z</time></trkpt><trkpt lat="42.2614849" lon="14.2373403"><ele>349.0</ele><time>2026-05-01T10:18:38.457Z</time></trkpt><trkpt lat="42.2614275" lon="14.2373793"><ele>349.0</ele><time>2026-05-01T10:18:39.453Z</time></trkpt><trkpt lat="42.2613624" lon="14.2374296"><ele>349.0</ele><time>2026-05-01T10:18:40.451Z</time></trkpt><trkpt lat="42.2612888" lon="14.2374798"><ele>349.0</ele><time>2026-05-01T10:18:41.455Z</time></trkpt><trkpt lat="42.2612143" lon="14.2375144"><ele>349.0</ele><time>2026-05-01T10:18:42.453Z</time></trkpt><trkpt lat="42.261146" lon="14.2375559"><ele>349.0</ele><time>2026-05-01T10:18:43.454Z</time></trkpt><trkpt lat="42.2610832" lon="14.2375923"><ele>349.0</ele><time>2026-05-01T10:18:44.452Z</time></trkpt><trkpt lat="42.2609855" lon="14.2377039"><ele>349.0</ele><time>2026-05-01T10:18:46.453Z</time></trkpt><trkpt lat="42.2609306" lon="14.2378186"><ele>349.0</ele><time>2026-05-01T10:18:47.442Z</time></trkpt><trkpt lat="42.260872" lon="14.2379404"><ele>349.0</ele><time>2026-05-01T10:18:48.444Z</time></trkpt><trkpt lat="42.2608161" lon="14.2380531"><ele>349.0</ele><time>2026-05-01T10:18:49.452Z</time></trkpt><trkpt lat="42.2607767" lon="14.2381352"><ele>349.0</ele><time>2026-05-01T10:18:50.452Z</time></trkpt><trkpt lat="42.2607361" lon="14.2382184"><ele>349.16666666666663</ele><time>2026-05-01T10:18:51.451Z</time></trkpt><trkpt lat="42.2606978" lon="14.2383059"><ele>349.3333333333333</ele><time>2026-05-01T10:18:52.458Z</time></trkpt><trkpt lat="42.2606611" lon="14.2383978"><ele>349.5</ele><time>2026-05-01T10:18:53.457Z</time></trkpt><trkpt lat="42.2606225" lon="14.2384965"><ele>349.6666666666667</ele><time>2026-05-01T10:18:54.458Z</time></trkpt><trkpt lat="42.2605787" lon="14.238608"><ele>349.83333333333337</ele><time>2026-05-01T10:18:55.458Z</time></trkpt><trkpt lat="42.260539" lon="14.2387123"><ele>350.0</ele><time>2026-05-01T10:18:56.457Z</time></trkpt><trkpt lat="42.260494" lon="14.2388168"><ele>350.0</ele><time>2026-05-01T10:18:57.462Z</time></trkpt><trkpt lat="42.2604489" lon="14.2389093"><ele>350.0</ele><time>2026-05-01T10:18:58.457Z</time></trkpt><trkpt lat="42.2603878" lon="14.238983"><ele>350.0</ele><time>2026-05-01T10:18:59.46Z</time></trkpt><trkpt lat="42.26031" lon="14.2390447"><ele>350.0</ele><time>2026-05-01T10:19:00.446Z</time></trkpt><trkpt lat="42.2602139" lon="14.2391051"><ele>350.0</ele><time>2026-05-01T10:19:01.458Z</time></trkpt><trkpt lat="42.2601131" lon="14.2391632"><ele>351.0</ele><time>2026-05-01T10:19:02.447Z</time></trkpt><trkpt lat="42.2600283" lon="14.2392229"><ele>352.0</ele><time>2026-05-01T10:19:03.454Z</time></trkpt><trkpt lat="42.2599645" lon="14.2392404"><ele>353.0</ele><time>2026-05-01T10:19:04.443Z</time></trkpt><trkpt lat="42.2598536" lon="14.2391986"><ele>354.0</ele><time>2026-05-01T10:19:06.448Z</time></trkpt><trkpt lat="42.2597903" lon="14.2391528"><ele>355.0</ele><time>2026-05-01T10:19:07.442Z</time></trkpt><trkpt lat="42.2597087" lon="14.2391138"><ele>356.0</ele><time>2026-05-01T10:19:08.445Z</time></trkpt><trkpt lat="42.2596224" lon="14.2390836"><ele>357.0</ele><time>2026-05-01T10:19:09.444Z</time></trkpt><trkpt lat="42.2595359" lon="14.2390612"><ele>358.0</ele><time>2026-05-01T10:19:10.459Z</time></trkpt><trkpt lat="42.2594452" lon="14.2390419"><ele>359.0</ele><time>2026-05-01T10:19:11.449Z</time></trkpt><trkpt lat="42.259359" lon="14.2390321"><ele>360.0</ele><time>2026-05-01T10:19:12.45Z</time></trkpt><trkpt lat="42.2592866" lon="14.2390325"><ele>361.0</ele><time>2026-05-01T10:19:13.448Z</time></trkpt><trkpt lat="42.2591735" lon="14.2390703"><ele>361.0</ele><time>2026-05-01T10:19:15.448Z</time></trkpt><trkpt lat="42.259052" lon="14.2391366"><ele>361.0</ele><time>2026-05-01T10:19:17.447Z</time></trkpt><trkpt lat="42.2589862" lon="14.2391461"><ele>361.0</ele><time>2026-05-01T10:19:18.449Z</time></trkpt><trkpt lat="42.2589092" lon="14.2391361"><ele>361.0</ele><time>2026-05-01T10:19:19.45Z</time></trkpt><trkpt lat="42.2588254" lon="14.2391214"><ele>361.0</ele><time>2026-05-01T10:19:20.449Z</time></trkpt><trkpt lat="42.2587506" lon="14.2391024"><ele>361.0</ele><time>2026-05-01T10:19:21.444Z</time></trkpt><trkpt lat="42.2586579" lon="14.2390971"><ele>362.6</ele><time>2026-05-01T10:19:23.454Z</time></trkpt><trkpt lat="42.258561" lon="14.2391131"><ele>364.20000000000005</ele><time>2026-05-01T10:19:33.46Z</time></trkpt><trkpt lat="42.2584455" lon="14.2391945"><ele>365.79999999999995</ele><time>2026-05-01T10:19:35.453Z</time></trkpt><trkpt lat="42.2583642" lon="14.2392559"><ele>367.4</ele><time>2026-05-01T10:19:36.446Z</time></trkpt><trkpt lat="42.2582797" lon="14.2393259"><ele>369.0</ele><time>2026-05-01T10:19:37.452Z</time></trkpt><trkpt lat="42.258191" lon="14.2393918"><ele>368.79999999999995</ele><time>2026-05-01T10:19:38.446Z</time></trkpt><trkpt lat="42.2581138" lon="14.2394614"><ele>368.59999999999997</ele><time>2026-05-01T10:19:39.457Z</time></trkpt><trkpt lat="42.2580354" lon="14.2395291"><ele>368.4</ele><time>2026-05-01T10:19:40.462Z</time></trkpt><trkpt lat="42.2579548" lon="14.2396139"><ele>368.2</ele><time>2026-05-01T10:19:41.46Z</time></trkpt><trkpt lat="42.2578728" lon="14.2397054"><ele>368.0</ele><time>2026-05-01T10:19:42.464Z</time></trkpt><trkpt lat="42.2577951" lon="14.2397953"><ele>367.0</ele><time>2026-05-01T10:19:43.461Z</time></trkpt><trkpt lat="42.2577254" lon="14.239876"><ele>366.0</ele><time>2026-05-01T10:19:44.446Z</time></trkpt><trkpt lat="42.2576691" lon="14.2399283"><ele>365.0</ele><time>2026-05-01T10:19:45.459Z</time></trkpt><trkpt lat="42.2575627" lon="14.2399905"><ele>364.0</ele><time>2026-05-01T10:19:47.46Z</time></trkpt><trkpt lat="42.2575002" lon="14.2400106"><ele>363.0</ele><time>2026-05-01T10:19:48.452Z</time></trkpt><trkpt lat="42.2574318" lon="14.2400105"><ele>362.0</ele><time>2026-05-01T10:19:49.452Z</time></trkpt><trkpt lat="42.2573524" lon="14.2399918"><ele>361.1666666666667</ele><time>2026-05-01T10:19:50.462Z</time></trkpt><trkpt lat="42.2572746" lon="14.2399564"><ele>360.33333333333337</ele><time>2026-05-01T10:19:51.455Z</time></trkpt><trkpt lat="42.2572096" lon="14.2399119"><ele>359.5</ele><time>2026-05-01T10:19:52.457Z</time></trkpt><trkpt lat="42.2571488" lon="14.2398614"><ele>358.6666666666667</ele><time>2026-05-01T10:19:53.459Z</time></trkpt><trkpt lat="42.2570894" lon="14.2397914"><ele>357.8333333333333</ele><time>2026-05-01T10:19:54.451Z</time></trkpt><trkpt lat="42.2570284" lon="14.2397223"><ele>357.0</ele><time>2026-05-01T10:19:55.452Z</time></trkpt><trkpt lat="42.256968" lon="14.2396637"><ele>357.0</ele><time>2026-05-01T10:19:56.447Z</time></trkpt><trkpt lat="42.2569119" lon="14.2396029"><ele>357.0</ele><time>2026-05-01T10:19:57.449Z</time></trkpt><trkpt lat="42.2568487" lon="14.2395487"><ele>357.0</ele><time>2026-05-01T10:19:58.446Z</time></trkpt><trkpt lat="42.2567841" lon="14.2395059"><ele>357.0</ele><time>2026-05-01T10:19:59.451Z</time></trkpt><trkpt lat="42.2567148" lon="14.2394834"><ele>357.0</ele><time>2026-05-01T10:20:00.447Z</time></trkpt><trkpt lat="42.2566188" lon="14.239472"><ele>357.0</ele><time>2026-05-01T10:20:02.444Z</time></trkpt><trkpt lat="42.2565155" lon="14.2393795"><ele>354.6</ele><time>2026-05-01T10:20:04.448Z</time></trkpt><trkpt lat="42.2564359" lon="14.2393175"><ele>352.20000000000005</ele><time>2026-05-01T10:20:05.443Z</time></trkpt><trkpt lat="42.2563414" lon="14.2392459"><ele>349.8</ele><time>2026-05-01T10:20:06.446Z</time></trkpt><trkpt lat="42.2562459" lon="14.2391659"><ele>347.4</ele><time>2026-05-01T10:20:07.439Z</time></trkpt><trkpt lat="42.2561506" lon="14.2390758"><ele>345.0</ele><time>2026-05-01T10:20:08.44Z</time></trkpt><trkpt lat="42.2560577" lon="14.2389931"><ele>345.0</ele><time>2026-05-01T10:20:09.444Z</time></trkpt><trkpt lat="42.2559688" lon="14.2389179"><ele>345.0</ele><time>2026-05-01T10:20:10.442Z</time></trkpt><trkpt lat="42.2558922" lon="14.2388507"><ele>345.0</ele><time>2026-05-01T10:20:11.449Z</time></trkpt><trkpt lat="42.2558191" lon="14.238788"><ele>345.0</ele><time>2026-05-01T10:20:12.451Z</time></trkpt><trkpt lat="42.255751" lon="14.2387271"><ele>345.0</ele><time>2026-05-01T10:20:13.451Z</time></trkpt><trkpt lat="42.2556892" lon="14.2386765"><ele>345.0</ele><time>2026-05-01T10:20:14.443Z</time></trkpt><trkpt lat="42.2555806" lon="14.2386452"><ele>345.0</ele><time>2026-05-01T10:20:16.445Z</time></trkpt><trkpt lat="42.255517" lon="14.2386074"><ele>345.0</ele><time>2026-05-01T10:20:18.442Z</time></trkpt><trkpt lat="42.2554779" lon="14.2384642"><ele>345.0</ele><time>2026-05-01T10:20:20.439Z</time></trkpt><trkpt lat="42.2554554" lon="14.2383584"><ele>345.0</ele><time>2026-05-01T10:20:21.458Z</time></trkpt><trkpt lat="42.2554109" lon="14.2382538"><ele>345.0</ele><time>2026-05-01T10:20:22.454Z</time></trkpt><trkpt lat="42.2553446" lon="14.2381808"><ele>345.0</ele><time>2026-05-01T10:20:23.452Z</time></trkpt><trkpt lat="42.2552542" lon="14.2381349"><ele>340.5</ele><time>2026-05-01T10:20:24.452Z</time></trkpt><trkpt lat="42.2551445" lon="14.238102"><ele>336.0</ele><time>2026-05-01T10:20:25.445Z</time></trkpt><trkpt lat="42.2550153" lon="14.2380819"><ele>331.5</ele><time>2026-05-01T10:20:26.45Z</time></trkpt><trkpt lat="42.2548846" lon="14.2380593"><ele>327.0</ele><time>2026-05-01T10:20:27.45Z</time></trkpt><trkpt lat="42.254753" lon="14.2380322"><ele>327.0</ele><time>2026-05-01T10:20:28.449Z</time></trkpt><trkpt lat="42.2546151" lon="14.2380016"><ele>327.0</ele><time>2026-05-01T10:20:29.456Z</time></trkpt><trkpt lat="42.2544885" lon="14.2379778"><ele>327.0</ele><time>2026-05-01T10:20:30.452Z</time></trkpt><trkpt lat="42.2543668" lon="14.2379481"><ele>327.0</ele><time>2026-05-01T10:20:31.453Z</time></trkpt><trkpt lat="42.254254" lon="14.2379008"><ele>327.0</ele><time>2026-05-01T10:20:32.445Z</time></trkpt><trkpt lat="42.254133" lon="14.237829"><ele>327.0</ele><time>2026-05-01T10:20:33.439Z</time></trkpt><trkpt lat="42.2540124" lon="14.2377227"><ele>327.0</ele><time>2026-05-01T10:20:34.434Z</time></trkpt><trkpt lat="42.2538843" lon="14.2375941"><ele>327.0</ele><time>2026-05-01T10:20:35.444Z</time></trkpt><trkpt lat="42.2537637" lon="14.2374528"><ele>327.75</ele><time>2026-05-01T10:20:36.436Z</time></trkpt><trkpt lat="42.253654" lon="14.2372648"><ele>328.5</ele><time>2026-05-01T10:20:37.441Z</time></trkpt><trkpt lat="42.2535684" lon="14.2371424"><ele>329.25</ele><time>2026-05-01T10:20:38.444Z</time></trkpt><trkpt lat="42.2534927" lon="14.2369888"><ele>330.0</ele><time>2026-05-01T10:20:39.442Z</time></trkpt><trkpt lat="42.2534227" lon="14.2368214"><ele>330.0</ele><time>2026-05-01T10:20:40.444Z</time></trkpt><trkpt lat="42.2533736" lon="14.2366486"><ele>330.0</ele><time>2026-05-01T10:20:41.441Z</time></trkpt><trkpt lat="42.2533216" lon="14.2364566"><ele>330.0</ele><time>2026-05-01T10:20:42.442Z</time></trkpt><trkpt lat="42.253258" lon="14.2362955"><ele>330.0</ele><time>2026-05-01T10:20:43.44Z</time></trkpt><trkpt lat="42.2532122" lon="14.2361333"><ele>330.4</ele><time>2026-05-01T10:20:44.451Z</time></trkpt><trkpt lat="42.2531746" lon="14.236"><ele>330.8</ele><time>2026-05-01T10:20:45.445Z</time></trkpt><trkpt lat="42.2531231" lon="14.2358536"><ele>331.20000000000005</ele><time>2026-05-01T10:20:46.445Z</time></trkpt><trkpt lat="42.2530684" lon="14.2357126"><ele>331.6</ele><time>2026-05-01T10:20:47.445Z</time></trkpt><trkpt lat="42.2530376" lon="14.2355761"><ele>332.0</ele><time>2026-05-01T10:20:48.442Z</time></trkpt><trkpt lat="42.252999" lon="14.2354399"><ele>327.5</ele><time>2026-05-01T10:20:49.452Z</time></trkpt><trkpt lat="42.2529256" lon="14.2353135"><ele>323.0</ele><time>2026-05-01T10:20:50.444Z</time></trkpt><trkpt lat="42.2528448" lon="14.2352133"><ele>318.5</ele><time>2026-05-01T10:20:51.448Z</time></trkpt><trkpt lat="42.2527297" lon="14.2351382"><ele>314.0</ele><time>2026-05-01T10:20:52.445Z</time></trkpt><trkpt lat="42.2526081" lon="14.2350819"><ele>314.0</ele><time>2026-05-01T10:20:53.447Z</time></trkpt><trkpt lat="42.2524959" lon="14.2350306"><ele>314.0</ele><time>2026-05-01T10:20:54.447Z</time></trkpt><trkpt lat="42.252392" lon="14.2349638"><ele>314.0</ele><time>2026-05-01T10:20:55.443Z</time></trkpt><trkpt lat="42.2522861" lon="14.2348756"><ele>314.0</ele><time>2026-05-01T10:20:56.45Z</time></trkpt><trkpt lat="42.2521876" lon="14.2347573"><ele>315.0</ele><time>2026-05-01T10:20:57.446Z</time></trkpt><trkpt lat="42.2520986" lon="14.2346187"><ele>316.0</ele><time>2026-05-01T10:20:58.444Z</time></trkpt><trkpt lat="42.2520148" lon="14.2344664"><ele>317.0</ele><time>2026-05-01T10:20:59.45Z</time></trkpt><trkpt lat="42.2519372" lon="14.2343159"><ele>318.0</ele><time>2026-05-01T10:21:00.442Z</time></trkpt><trkpt lat="42.2518621" lon="14.2341734"><ele>318.0</ele><time>2026-05-01T10:21:01.453Z</time></trkpt><trkpt lat="42.2518053" lon="14.2340298"><ele>318.0</ele><time>2026-05-01T10:21:02.44Z</time></trkpt><trkpt lat="42.2517613" lon="14.2338926"><ele>318.0</ele><time>2026-05-01T10:21:03.433Z</time></trkpt><trkpt lat="42.25175" lon="14.2337559"><ele>318.0</ele><time>2026-05-01T10:21:04.436Z</time></trkpt><trkpt lat="42.2517714" lon="14.2336234"><ele>318.0</ele><time>2026-05-01T10:21:05.445Z</time></trkpt><trkpt lat="42.2518259" lon="14.2335201"><ele>314.6</ele><time>2026-05-01T10:21:06.453Z</time></trkpt><trkpt lat="42.2518965" lon="14.2334677"><ele>311.20000000000005</ele><time>2026-05-01T10:21:07.45Z</time></trkpt><trkpt lat="42.2519846" lon="14.2335022"><ele>307.8</ele><time>2026-05-01T10:21:08.437Z</time></trkpt><trkpt lat="42.2520756" lon="14.2335688"><ele>304.40000000000003</ele><time>2026-05-01T10:21:09.442Z</time></trkpt><trkpt lat="42.2521563" lon="14.2337019"><ele>301.0</ele><time>2026-05-01T10:21:10.438Z</time></trkpt><trkpt lat="42.2522275" lon="14.2338856"><ele>299.3333333333333</ele><time>2026-05-01T10:21:11.44Z</time></trkpt><trkpt lat="42.2523026" lon="14.2340593"><ele>297.6666666666667</ele><time>2026-05-01T10:21:12.447Z</time></trkpt><trkpt lat="42.2523939" lon="14.2342193"><ele>296.0</ele><time>2026-05-01T10:21:13.445Z</time></trkpt><trkpt lat="42.2525085" lon="14.2343566"><ele>296.0</ele><time>2026-05-01T10:21:14.441Z</time></trkpt><trkpt lat="42.2526503" lon="14.2344491"><ele>296.0</ele><time>2026-05-01T10:21:15.442Z</time></trkpt><trkpt lat="42.252846" lon="14.2344705"><ele>296.0</ele><time>2026-05-01T10:21:16.446Z</time></trkpt><trkpt lat="42.2530126" lon="14.2344879"><ele>294.25</ele><time>2026-05-01T10:21:17.446Z</time></trkpt><trkpt lat="42.253143" lon="14.2344762"><ele>292.5</ele><time>2026-05-01T10:21:18.449Z</time></trkpt><trkpt lat="42.253295" lon="14.234475"><ele>290.75</ele><time>2026-05-01T10:21:19.451Z</time></trkpt><trkpt lat="42.2534417" lon="14.2344885"><ele>289.0</ele><time>2026-05-01T10:21:20.455Z</time></trkpt><trkpt lat="42.2535898" lon="14.2344961"><ele>289.0</ele><time>2026-05-01T10:21:21.452Z</time></trkpt><trkpt lat="42.2537386" lon="14.234553"><ele>289.0</ele><time>2026-05-01T10:21:22.45Z</time></trkpt><trkpt lat="42.2538912" lon="14.2346201"><ele>289.0</ele><time>2026-05-01T10:21:23.459Z</time></trkpt><trkpt lat="42.254026" lon="14.2347207"><ele>290.3333333333333</ele><time>2026-05-01T10:21:24.451Z</time></trkpt><trkpt lat="42.254176" lon="14.2348111"><ele>291.6666666666667</ele><time>2026-05-01T10:21:25.454Z</time></trkpt><trkpt lat="42.2543072" lon="14.2349037"><ele>293.0</ele><time>2026-05-01T10:21:26.457Z</time></trkpt><trkpt lat="42.2544514" lon="14.2349941"><ele>293.0</ele><time>2026-05-01T10:21:27.454Z</time></trkpt><trkpt lat="42.2545988" lon="14.2350761"><ele>293.0</ele><time>2026-05-01T10:21:28.451Z</time></trkpt><trkpt lat="42.2547284" lon="14.2351617"><ele>293.0</ele><time>2026-05-01T10:21:29.458Z</time></trkpt><trkpt lat="42.2548658" lon="14.2352384"><ele>290.0</ele><time>2026-05-01T10:21:30.452Z</time></trkpt><trkpt lat="42.2550029" lon="14.2353027"><ele>287.0</ele><time>2026-05-01T10:21:31.456Z</time></trkpt><trkpt lat="42.2551687" lon="14.2353367"><ele>284.0</ele><time>2026-05-01T10:21:32.447Z</time></trkpt><trkpt lat="42.2553286" lon="14.2353587"><ele>284.0</ele><time>2026-05-01T10:21:33.45Z</time></trkpt><trkpt lat="42.255489" lon="14.2353803"><ele>284.0</ele><time>2026-05-01T10:21:34.44Z</time></trkpt><trkpt lat="42.2556472" lon="14.2353718"><ele>284.0</ele><time>2026-05-01T10:21:35.447Z</time></trkpt><trkpt lat="42.2557797" lon="14.2353856"><ele>282.0</ele><time>2026-05-01T10:21:36.439Z</time></trkpt><trkpt lat="42.2559038" lon="14.2353957"><ele>280.0</ele><time>2026-05-01T10:21:37.439Z</time></trkpt><trkpt lat="42.2560499" lon="14.2353186"><ele>278.0</ele><time>2026-05-01T10:21:38.448Z</time></trkpt><trkpt lat="42.2561876" lon="14.2352133"><ele>276.0</ele><time>2026-05-01T10:21:39.44Z</time></trkpt><trkpt lat="42.2563383" lon="14.2350676"><ele>276.3333333333333</ele><time>2026-05-01T10:21:40.443Z</time></trkpt><trkpt lat="42.2564712" lon="14.2349278"><ele>276.66666666666663</ele><time>2026-05-01T10:21:41.445Z</time></trkpt><trkpt lat="42.2566201" lon="14.2347945"><ele>277.0</ele><time>2026-05-01T10:21:42.446Z</time></trkpt><trkpt lat="42.2567399" lon="14.23467"><ele>275.16666666666663</ele><time>2026-05-01T10:21:43.447Z</time></trkpt><trkpt lat="42.2568379" lon="14.234585"><ele>273.3333333333333</ele><time>2026-05-01T10:21:44.449Z</time></trkpt><trkpt lat="42.2568995" lon="14.2345141"><ele>271.5</ele><time>2026-05-01T10:21:45.439Z</time></trkpt><trkpt lat="42.2569489" lon="14.2344535"><ele>269.6666666666667</ele><time>2026-05-01T10:21:46.442Z</time></trkpt><trkpt lat="42.2569967" lon="14.234366"><ele>267.83333333333337</ele><time>2026-05-01T10:21:48.447Z</time></trkpt><trkpt lat="42.2569629" lon="14.2342594"><ele>266.0</ele><time>2026-05-01T10:21:50.442Z</time></trkpt><trkpt lat="42.2568588" lon="14.2342399"><ele>266.0</ele><time>2026-05-01T10:21:52.444Z</time></trkpt><trkpt lat="42.2567827" lon="14.2342531"><ele>266.0</ele><time>2026-05-01T10:21:53.45Z</time></trkpt><trkpt lat="42.2566912" lon="14.2342674"><ele>266.0</ele><time>2026-05-01T10:21:54.446Z</time></trkpt><trkpt lat="42.2565926" lon="14.2342809"><ele>266.0</ele><time>2026-05-01T10:21:55.446Z</time></trkpt><trkpt lat="42.256492" lon="14.2342926"><ele>266.0</ele><time>2026-05-01T10:21:56.447Z</time></trkpt><trkpt lat="42.2563839" lon="14.2342976"><ele>266.0</ele><time>2026-05-01T10:21:57.447Z</time></trkpt><trkpt lat="42.2562692" lon="14.2343094"><ele>266.0</ele><time>2026-05-01T10:21:58.448Z</time></trkpt><trkpt lat="42.2561522" lon="14.2343257"><ele>266.0</ele><time>2026-05-01T10:21:59.449Z</time></trkpt><trkpt lat="42.2560444" lon="14.2343368"><ele>266.0</ele><time>2026-05-01T10:22:00.446Z</time></trkpt><trkpt lat="42.2559455" lon="14.2343178"><ele>266.0</ele><time>2026-05-01T10:22:01.447Z</time></trkpt><trkpt lat="42.2558401" lon="14.2342671"><ele>266.0</ele><time>2026-05-01T10:22:02.446Z</time></trkpt><trkpt lat="42.2557404" lon="14.2341691"><ele>266.0</ele><time>2026-05-01T10:22:03.446Z</time></trkpt><trkpt lat="42.2556653" lon="14.2340343"><ele>266.0</ele><time>2026-05-01T10:22:04.451Z</time></trkpt><trkpt lat="42.2556165" lon="14.2338792"><ele>266.0</ele><time>2026-05-01T10:22:05.443Z</time></trkpt><trkpt lat="42.2555888" lon="14.2337017"><ele>263.5</ele><time>2026-05-01T10:22:06.447Z</time></trkpt><trkpt lat="42.2555729" lon="14.2335099"><ele>261.0</ele><time>2026-05-01T10:22:07.445Z</time></trkpt><trkpt lat="42.2555728" lon="14.2333178"><ele>258.5</ele><time>2026-05-01T10:22:08.449Z</time></trkpt><trkpt lat="42.2555684" lon="14.2331402"><ele>256.0</ele><time>2026-05-01T10:22:09.443Z</time></trkpt><trkpt lat="42.2555786" lon="14.2329857"><ele>255.0</ele><time>2026-05-01T10:22:10.439Z</time></trkpt><trkpt lat="42.2556163" lon="14.2328492"><ele>254.00000000000003</ele><time>2026-05-01T10:22:11.448Z</time></trkpt><trkpt lat="42.2556759" lon="14.2327348"><ele>253.00000000000003</ele><time>2026-05-01T10:22:12.445Z</time></trkpt><trkpt lat="42.2557603" lon="14.232639"><ele>252.0</ele><time>2026-05-01T10:22:13.448Z</time></trkpt><trkpt lat="42.2558697" lon="14.2325581"><ele>251.0</ele><time>2026-05-01T10:22:14.449Z</time></trkpt><trkpt lat="42.2559983" lon="14.2324837"><ele>251.0</ele><time>2026-05-01T10:22:15.442Z</time></trkpt><trkpt lat="42.2561377" lon="14.2324172"><ele>251.0</ele><time>2026-05-01T10:22:16.452Z</time></trkpt><trkpt lat="42.2563055" lon="14.2323776"><ele>251.0</ele><time>2026-05-01T10:22:17.452Z</time></trkpt><trkpt lat="42.2564207" lon="14.232322"><ele>251.0</ele><time>2026-05-01T10:22:18.454Z</time></trkpt><trkpt lat="42.2565442" lon="14.2322845"><ele>249.25</ele><time>2026-05-01T10:22:19.453Z</time></trkpt><trkpt lat="42.2566823" lon="14.2322595"><ele>247.5</ele><time>2026-05-01T10:22:20.451Z</time></trkpt><trkpt lat="42.2567977" lon="14.2322615"><ele>245.75</ele><time>2026-05-01T10:22:21.451Z</time></trkpt><trkpt lat="42.2569118" lon="14.2322775"><ele>244.0</ele><time>2026-05-01T10:22:22.453Z</time></trkpt><trkpt lat="42.2570101" lon="14.2322539"><ele>244.0</ele><time>2026-05-01T10:22:23.45Z</time></trkpt><trkpt lat="42.2571185" lon="14.2322162"><ele>244.0</ele><time>2026-05-01T10:22:24.445Z</time></trkpt><trkpt lat="42.25722" lon="14.2321167"><ele>244.0</ele><time>2026-05-01T10:22:25.45Z</time></trkpt><trkpt lat="42.2573233" lon="14.2319637"><ele>244.0</ele><time>2026-05-01T10:22:26.45Z</time></trkpt><trkpt lat="42.2574539" lon="14.2317804"><ele>242.25</ele><time>2026-05-01T10:22:27.451Z</time></trkpt><trkpt lat="42.2575552" lon="14.2316247"><ele>240.5</ele><time>2026-05-01T10:22:28.454Z</time></trkpt><trkpt lat="42.2576545" lon="14.2314798"><ele>238.75</ele><time>2026-05-01T10:22:29.454Z</time></trkpt><trkpt lat="42.2577354" lon="14.2313408"><ele>237.0</ele><time>2026-05-01T10:22:30.452Z</time></trkpt><trkpt lat="42.2578267" lon="14.2312303"><ele>236.25</ele><time>2026-05-01T10:22:31.459Z</time></trkpt><trkpt lat="42.2579052" lon="14.2311312"><ele>235.5</ele><time>2026-05-01T10:22:32.451Z</time></trkpt><trkpt lat="42.2579931" lon="14.231027"><ele>234.75</ele><time>2026-05-01T10:22:33.452Z</time></trkpt><trkpt lat="42.2580785" lon="14.2309246"><ele>234.0</ele><time>2026-05-01T10:22:34.452Z</time></trkpt><trkpt lat="42.2581674" lon="14.2308078"><ele>230.66666666666669</ele><time>2026-05-01T10:22:35.459Z</time></trkpt><trkpt lat="42.2582541" lon="14.2306647"><ele>227.33333333333334</ele><time>2026-05-01T10:22:36.451Z</time></trkpt><trkpt lat="42.2583195" lon="14.2304868"><ele>224.0</ele><time>2026-05-01T10:22:37.451Z</time></trkpt><trkpt lat="42.2583753" lon="14.2302565"><ele>223.25</ele><time>2026-05-01T10:22:38.448Z</time></trkpt><trkpt lat="42.2583933" lon="14.230061"><ele>222.5</ele><time>2026-05-01T10:22:39.453Z</time></trkpt><trkpt lat="42.2584153" lon="14.229871"><ele>221.75</ele><time>2026-05-01T10:22:40.451Z</time></trkpt><trkpt lat="42.258443" lon="14.229684"><ele>221.0</ele><time>2026-05-01T10:22:41.456Z</time></trkpt><trkpt lat="42.2584611" lon="14.2295164"><ele>220.25</ele><time>2026-05-01T10:22:42.455Z</time></trkpt><trkpt lat="42.2584916" lon="14.2293564"><ele>219.5</ele><time>2026-05-01T10:22:43.451Z</time></trkpt><trkpt lat="42.2584803" lon="14.2291954"><ele>218.75</ele><time>2026-05-01T10:22:44.451Z</time></trkpt><trkpt lat="42.2584391" lon="14.2290732"><ele>218.0</ele><time>2026-05-01T10:22:45.448Z</time></trkpt><trkpt lat="42.25837" lon="14.2289531"><ele>215.75</ele><time>2026-05-01T10:22:46.447Z</time></trkpt><trkpt lat="42.2582844" lon="14.2288708"><ele>213.5</ele><time>2026-05-01T10:22:47.455Z</time></trkpt><trkpt lat="42.2581685" lon="14.2288257"><ele>211.25</ele><time>2026-05-01T10:22:48.458Z</time></trkpt><trkpt lat="42.2580503" lon="14.2288106"><ele>209.0</ele><time>2026-05-01T10:22:49.452Z</time></trkpt><trkpt lat="42.2579298" lon="14.2288453"><ele>209.5</ele><time>2026-05-01T10:22:50.444Z</time></trkpt><trkpt lat="42.2578064" lon="14.228905"><ele>210.0</ele><time>2026-05-01T10:22:51.444Z</time></trkpt><trkpt lat="42.2576889" lon="14.2289811"><ele>210.5</ele><time>2026-05-01T10:22:52.451Z</time></trkpt><trkpt lat="42.2575727" lon="14.2290725"><ele>211.0</ele><time>2026-05-01T10:22:53.458Z</time></trkpt><trkpt lat="42.257457" lon="14.2291612"><ele>211.0</ele><time>2026-05-01T10:22:54.456Z</time></trkpt><trkpt lat="42.2573446" lon="14.2292406"><ele>211.0</ele><time>2026-05-01T10:22:55.454Z</time></trkpt><trkpt lat="42.257232" lon="14.2293158"><ele>211.0</ele><time>2026-05-01T10:22:56.453Z</time></trkpt><trkpt lat="42.2571182" lon="14.2293705"><ele>211.0</ele><time>2026-05-01T10:22:57.449Z</time></trkpt><trkpt lat="42.2569995" lon="14.229392"><ele>210.75</ele><time>2026-05-01T10:22:58.443Z</time></trkpt><trkpt lat="42.2568852" lon="14.229388"><ele>210.5</ele><time>2026-05-01T10:22:59.452Z</time></trkpt><trkpt lat="42.2567781" lon="14.2293221"><ele>210.25</ele><time>2026-05-01T10:23:00.447Z</time></trkpt><trkpt lat="42.2567064" lon="14.2292103"><ele>210.0</ele><time>2026-05-01T10:23:01.458Z</time></trkpt><trkpt lat="42.2566618" lon="14.2290478"><ele>209.75</ele><time>2026-05-01T10:23:02.446Z</time></trkpt><trkpt lat="42.2566669" lon="14.2288508"><ele>209.5</ele><time>2026-05-01T10:23:03.444Z</time></trkpt><trkpt lat="42.2566929" lon="14.2286581"><ele>209.25</ele><time>2026-05-01T10:23:04.441Z</time></trkpt><trkpt lat="42.2567384" lon="14.2284717"><ele>209.0</ele><time>2026-05-01T10:23:05.438Z</time></trkpt><trkpt lat="42.2568171" lon="14.228308"><ele>209.0</ele><time>2026-05-01T10:23:06.439Z</time></trkpt><trkpt lat="42.2569344" lon="14.2281535"><ele>209.0</ele><time>2026-05-01T10:23:07.427Z</time></trkpt><trkpt lat="42.2571282" lon="14.2279816"><ele>209.0</ele><time>2026-05-01T10:23:08.437Z</time></trkpt><trkpt lat="42.2572715" lon="14.2278193"><ele>207.0</ele><time>2026-05-01T10:23:09.441Z</time></trkpt><trkpt lat="42.2573491" lon="14.2276735"><ele>205.0</ele><time>2026-05-01T10:23:10.445Z</time></trkpt><trkpt lat="42.2573931" lon="14.2275199"><ele>203.0</ele><time>2026-05-01T10:23:11.457Z</time></trkpt><trkpt lat="42.2574303" lon="14.2273573"><ele>201.0</ele><time>2026-05-01T10:23:12.444Z</time></trkpt><trkpt lat="42.2574581" lon="14.2272019"><ele>199.20000000000002</ele><time>2026-05-01T10:23:13.452Z</time></trkpt><trkpt lat="42.257461" lon="14.2270315"><ele>197.4</ele><time>2026-05-01T10:23:14.447Z</time></trkpt><trkpt lat="42.2574688" lon="14.2268743"><ele>195.6</ele><time>2026-05-01T10:23:15.444Z</time></trkpt><trkpt lat="42.257458" lon="14.2267417"><ele>193.8</ele><time>2026-05-01T10:23:16.446Z</time></trkpt><trkpt lat="42.2574169" lon="14.2266114"><ele>192.0</ele><time>2026-05-01T10:23:17.452Z</time></trkpt><trkpt lat="42.2573393" lon="14.226485"><ele>189.75</ele><time>2026-05-01T10:23:18.453Z</time></trkpt><trkpt lat="42.2572325" lon="14.226377"><ele>187.5</ele><time>2026-05-01T10:23:19.459Z</time></trkpt><trkpt lat="42.2571104" lon="14.2263093"><ele>185.25</ele><time>2026-05-01T10:23:20.445Z</time></trkpt><trkpt lat="42.2569933" lon="14.2262631"><ele>183.0</ele><time>2026-05-01T10:23:21.452Z</time></trkpt><trkpt lat="42.2568767" lon="14.2262135"><ele>183.0</ele><time>2026-05-01T10:23:22.451Z</time></trkpt><trkpt lat="42.2567671" lon="14.2261515"><ele>183.0</ele><time>2026-05-01T10:23:23.447Z</time></trkpt><trkpt lat="42.2566688" lon="14.2260833"><ele>183.0</ele><time>2026-05-01T10:23:24.45Z</time></trkpt><trkpt lat="42.2565918" lon="14.2260042"><ele>183.0</ele><time>2026-05-01T10:23:25.445Z</time></trkpt><trkpt lat="42.2565321" lon="14.2259056"><ele>183.0</ele><time>2026-05-01T10:23:26.448Z</time></trkpt><trkpt lat="42.2565048" lon="14.2257844"><ele>183.0</ele><time>2026-05-01T10:23:27.438Z</time></trkpt><trkpt lat="42.256493" lon="14.2256525"><ele>183.0</ele><time>2026-05-01T10:23:28.447Z</time></trkpt><trkpt lat="42.2565333" lon="14.2255204"><ele>183.0</ele><time>2026-05-01T10:23:29.454Z</time></trkpt><trkpt lat="42.2566068" lon="14.2254106"><ele>183.0</ele><time>2026-05-01T10:23:30.439Z</time></trkpt><trkpt lat="42.256708" lon="14.2253351"><ele>183.0</ele><time>2026-05-01T10:23:31.453Z</time></trkpt><trkpt lat="42.2568417" lon="14.2253105"><ele>179.66666666666666</ele><time>2026-05-01T10:23:32.444Z</time></trkpt><trkpt lat="42.257003" lon="14.225342"><ele>176.33333333333331</ele><time>2026-05-01T10:23:33.447Z</time></trkpt><trkpt lat="42.2571601" lon="14.2253636"><ele>173.0</ele><time>2026-05-01T10:23:34.439Z</time></trkpt><trkpt lat="42.2573124" lon="14.2253952"><ele>173.0</ele><time>2026-05-01T10:23:35.444Z</time></trkpt><trkpt lat="42.2574557" lon="14.2254247"><ele>173.0</ele><time>2026-05-01T10:23:36.442Z</time></trkpt><trkpt lat="42.2575821" lon="14.2254491"><ele>173.0</ele><time>2026-05-01T10:23:37.445Z</time></trkpt><trkpt lat="42.2577034" lon="14.2254665"><ele>173.0</ele><time>2026-05-01T10:23:38.451Z</time></trkpt><trkpt lat="42.2578273" lon="14.2254794"><ele>173.0</ele><time>2026-05-01T10:23:39.45Z</time></trkpt><trkpt lat="42.2579276" lon="14.2254353"><ele>173.0</ele><time>2026-05-01T10:23:40.443Z</time></trkpt><trkpt lat="42.2580077" lon="14.2253634"><ele>173.0</ele><time>2026-05-01T10:23:41.441Z</time></trkpt><trkpt lat="42.2580355" lon="14.2252442"><ele>173.0</ele><time>2026-05-01T10:23:42.451Z</time></trkpt><trkpt lat="42.2580004" lon="14.2251264"><ele>173.0</ele><time>2026-05-01T10:23:43.442Z</time></trkpt><trkpt lat="42.2579281" lon="14.2250173"><ele>173.0</ele><time>2026-05-01T10:23:44.457Z</time></trkpt><trkpt lat="42.2578011" lon="14.2249332"><ele>173.0</ele><time>2026-05-01T10:23:45.436Z</time></trkpt><trkpt lat="42.2576655" lon="14.2248614"><ele>173.0</ele><time>2026-05-01T10:23:46.438Z</time></trkpt><trkpt lat="42.2575226" lon="14.2247899"><ele>173.0</ele><time>2026-05-01T10:23:47.444Z</time></trkpt><trkpt lat="42.2573677" lon="14.2246956"><ele>170.5</ele><time>2026-05-01T10:23:48.439Z</time></trkpt><trkpt lat="42.2572246" lon="14.2246321"><ele>168.0</ele><time>2026-05-01T10:23:49.435Z</time></trkpt><trkpt lat="42.2571077" lon="14.2245648"><ele>165.5</ele><time>2026-05-01T10:23:50.447Z</time></trkpt><trkpt lat="42.2570223" lon="14.2245282"><ele>163.0</ele><time>2026-05-01T10:23:51.442Z</time></trkpt><trkpt lat="42.2569477" lon="14.2244675"><ele>163.0</ele><time>2026-05-01T10:23:52.444Z</time></trkpt><trkpt lat="42.256916" lon="14.2243619"><ele>163.0</ele><time>2026-05-01T10:23:53.455Z</time></trkpt><trkpt lat="42.2569166" lon="14.224255"><ele>163.0</ele><time>2026-05-01T10:23:54.442Z</time></trkpt><trkpt lat="42.2569162" lon="14.2241455"><ele>163.0</ele><time>2026-05-01T10:23:55.441Z</time></trkpt><trkpt lat="42.2569369" lon="14.2240582"><ele>163.0</ele><time>2026-05-01T10:23:56.441Z</time></trkpt><trkpt lat="42.2569942" lon="14.2239802"><ele>163.0</ele><time>2026-05-01T10:23:57.45Z</time></trkpt><trkpt lat="42.2570833" lon="14.2239128"><ele>162.0</ele><time>2026-05-01T10:23:58.439Z</time></trkpt><trkpt lat="42.2571959" lon="14.2238496"><ele>161.0</ele><time>2026-05-01T10:23:59.44Z</time></trkpt><trkpt lat="42.2573164" lon="14.2237781"><ele>160.0</ele><time>2026-05-01T10:24:00.442Z</time></trkpt><trkpt lat="42.2574304" lon="14.2237121"><ele>159.0</ele><time>2026-05-01T10:24:01.447Z</time></trkpt><trkpt lat="42.257538" lon="14.22365"><ele>159.0</ele><time>2026-05-01T10:24:02.445Z</time></trkpt><trkpt lat="42.2576355" lon="14.2235755"><ele>159.0</ele><time>2026-05-01T10:24:03.439Z</time></trkpt><trkpt lat="42.2577157" lon="14.2234925"><ele>159.0</ele><time>2026-05-01T10:24:04.435Z</time></trkpt><trkpt lat="42.2577671" lon="14.2233796"><ele>159.0</ele><time>2026-05-01T10:24:05.445Z</time></trkpt><trkpt lat="42.257775" lon="14.2232462"><ele>159.0</ele><time>2026-05-01T10:24:06.439Z</time></trkpt><trkpt lat="42.2577402" lon="14.2231125"><ele>158.5</ele><time>2026-05-01T10:24:07.445Z</time></trkpt><trkpt lat="42.2576819" lon="14.2229763"><ele>158.0</ele><time>2026-05-01T10:24:08.443Z</time></trkpt><trkpt lat="42.2576174" lon="14.2228257"><ele>157.5</ele><time>2026-05-01T10:24:09.444Z</time></trkpt><trkpt lat="42.2575569" lon="14.2226596"><ele>157.0</ele><time>2026-05-01T10:24:10.442Z</time></trkpt><trkpt lat="42.2574934" lon="14.2224897"><ele>157.0</ele><time>2026-05-01T10:24:11.443Z</time></trkpt><trkpt lat="42.257434" lon="14.2223203"><ele>157.0</ele><time>2026-05-01T10:24:12.437Z</time></trkpt><trkpt lat="42.2573437" lon="14.2221479"><ele>157.0</ele><time>2026-05-01T10:24:13.449Z</time></trkpt><trkpt lat="42.2572847" lon="14.2220015"><ele>157.0</ele><time>2026-05-01T10:24:14.448Z</time></trkpt><trkpt lat="42.2572423" lon="14.2218492"><ele>157.8</ele><time>2026-05-01T10:24:15.448Z</time></trkpt><trkpt lat="42.2571925" lon="14.2216762"><ele>158.6</ele><time>2026-05-01T10:24:16.447Z</time></trkpt><trkpt lat="42.2571516" lon="14.2215246"><ele>159.4</ele><time>2026-05-01T10:24:17.444Z</time></trkpt><trkpt lat="42.2571428" lon="14.2213954"><ele>160.20000000000002</ele><time>2026-05-01T10:24:18.444Z</time></trkpt><trkpt lat="42.2571728" lon="14.2212781"><ele>161.0</ele><time>2026-05-01T10:24:19.446Z</time></trkpt><trkpt lat="42.257228" lon="14.2211445"><ele>162.25</ele><time>2026-05-01T10:24:20.44Z</time></trkpt><trkpt lat="42.2572966" lon="14.2210112"><ele>163.5</ele><time>2026-05-01T10:24:21.451Z</time></trkpt><trkpt lat="42.2573995" lon="14.2209179"><ele>164.75</ele><time>2026-05-01T10:24:22.437Z</time></trkpt><trkpt lat="42.257519" lon="14.2208477"><ele>166.0</ele><time>2026-05-01T10:24:23.452Z</time></trkpt><trkpt lat="42.2576665" lon="14.2208116"><ele>166.0</ele><time>2026-05-01T10:24:24.445Z</time></trkpt><trkpt lat="42.2578398" lon="14.2208045"><ele>166.0</ele><time>2026-05-01T10:24:25.439Z</time></trkpt><trkpt lat="42.2579497" lon="14.2207621"><ele>166.0</ele><time>2026-05-01T10:24:26.441Z</time></trkpt><trkpt lat="42.2580157" lon="14.2207197"><ele>166.0</ele><time>2026-05-01T10:24:27.447Z</time></trkpt><trkpt lat="42.2580734" lon="14.2206204"><ele>168.8</ele><time>2026-05-01T10:24:28.44Z</time></trkpt><trkpt lat="42.2581074" lon="14.2204971"><ele>171.60000000000002</ele><time>2026-05-01T10:24:29.443Z</time></trkpt><trkpt lat="42.2581075" lon="14.2203657"><ele>174.4</ele><time>2026-05-01T10:24:30.445Z</time></trkpt><trkpt lat="42.2580591" lon="14.2202572"><ele>177.2</ele><time>2026-05-01T10:24:31.455Z</time></trkpt><trkpt lat="42.2579813" lon="14.220161"><ele>180.0</ele><time>2026-05-01T10:24:32.443Z</time></trkpt><trkpt lat="42.2578728" lon="14.2201146"><ele>180.0</ele><time>2026-05-01T10:24:33.438Z</time></trkpt><trkpt lat="42.2577493" lon="14.2200966"><ele>180.0</ele><time>2026-05-01T10:24:34.438Z</time></trkpt><trkpt lat="42.2576153" lon="14.2200778"><ele>180.0</ele><time>2026-05-01T10:24:35.436Z</time></trkpt><trkpt lat="42.257474" lon="14.2200538"><ele>180.0</ele><time>2026-05-01T10:24:36.434Z</time></trkpt><trkpt lat="42.2573294" lon="14.220026"><ele>179.5</ele><time>2026-05-01T10:24:37.435Z</time></trkpt><trkpt lat="42.257183" lon="14.2199729"><ele>179.0</ele><time>2026-05-01T10:24:38.439Z</time></trkpt><trkpt lat="42.2570419" lon="14.2199419"><ele>178.5</ele><time>2026-05-01T10:24:39.441Z</time></trkpt><trkpt lat="42.2569312" lon="14.219909"><ele>178.0</ele><time>2026-05-01T10:24:40.436Z</time></trkpt><trkpt lat="42.2568569" lon="14.2198434"><ele>181.2</ele><time>2026-05-01T10:24:41.446Z</time></trkpt><trkpt lat="42.2567958" lon="14.219759"><ele>184.4</ele><time>2026-05-01T10:24:42.438Z</time></trkpt><trkpt lat="42.2567714" lon="14.2196654"><ele>187.6</ele><time>2026-05-01T10:24:43.428Z</time></trkpt><trkpt lat="42.2567525" lon="14.219524"><ele>190.79999999999998</ele><time>2026-05-01T10:24:44.436Z</time></trkpt><trkpt lat="42.2567757" lon="14.2194024"><ele>194.0</ele><time>2026-05-01T10:24:45.433Z</time></trkpt><trkpt lat="42.2568236" lon="14.2192787"><ele>194.0</ele><time>2026-05-01T10:24:46.437Z</time></trkpt><trkpt lat="42.256866" lon="14.2191887"><ele>194.0</ele><time>2026-05-01T10:24:47.44Z</time></trkpt><trkpt lat="42.2569429" lon="14.2191588"><ele>194.0</ele><time>2026-05-01T10:24:48.439Z</time></trkpt><trkpt lat="42.2570135" lon="14.2191404"><ele>194.0</ele><time>2026-05-01T10:24:49.446Z</time></trkpt><trkpt lat="42.2571083" lon="14.2191018"><ele>194.0</ele><time>2026-05-01T10:24:51.445Z</time></trkpt><trkpt lat="42.2572211" lon="14.2190394"><ele>194.00000000000003</ele><time>2026-05-01T10:24:53.441Z</time></trkpt><trkpt lat="42.257271" lon="14.2189866"><ele>194.0</ele><time>2026-05-01T10:24:54.442Z</time></trkpt><trkpt lat="42.2573149" lon="14.2188985"><ele>194.0</ele><time>2026-05-01T10:24:56.449Z</time></trkpt><trkpt lat="42.2572647" lon="14.218996"><ele>194.0</ele><time>2026-05-01T10:25:06.445Z</time></trkpt><trkpt lat="42.2572016" lon="14.2190486"><ele>194.00000000000003</ele><time>2026-05-01T10:25:07.439Z</time></trkpt><trkpt lat="42.2571172" lon="14.219115"><ele>194.0</ele><time>2026-05-01T10:25:08.443Z</time></trkpt><trkpt lat="42.2570261" lon="14.2191936"><ele>194.0</ele><time>2026-05-01T10:25:09.444Z</time></trkpt><trkpt lat="42.2569396" lon="14.219274"><ele>194.0</ele><time>2026-05-01T10:25:10.442Z</time></trkpt><trkpt lat="42.2568525" lon="14.2193537"><ele>194.0</ele><time>2026-05-01T10:25:11.445Z</time></trkpt><trkpt lat="42.2567796" lon="14.2194241"><ele>194.0</ele><time>2026-05-01T10:25:12.448Z</time></trkpt><trkpt lat="42.2567213" lon="14.2195027"><ele>194.0</ele><time>2026-05-01T10:25:13.448Z</time></trkpt><trkpt lat="42.2566644" lon="14.2195633"><ele>194.00000000000003</ele><time>2026-05-01T10:25:14.45Z</time></trkpt><trkpt lat="42.2566063" lon="14.219611"><ele>194.0</ele><time>2026-05-01T10:25:15.44Z</time></trkpt><trkpt lat="42.2565384" lon="14.2196243"><ele>194.0</ele><time>2026-05-01T10:25:16.446Z</time></trkpt><trkpt lat="42.256457" lon="14.2196186"><ele>194.0</ele><time>2026-05-01T10:25:17.448Z</time></trkpt><trkpt lat="42.2563678" lon="14.2196078"><ele>194.00000000000003</ele><time>2026-05-01T10:25:18.448Z</time></trkpt><trkpt lat="42.2562786" lon="14.219573"><ele>194.0</ele><time>2026-05-01T10:25:19.45Z</time></trkpt><trkpt lat="42.2562026" lon="14.2195064"><ele>193.33333333333334</ele><time>2026-05-01T10:25:20.446Z</time></trkpt><trkpt lat="42.2561432" lon="14.2194144"><ele>192.66666666666669</ele><time>2026-05-01T10:25:21.45Z</time></trkpt><trkpt lat="42.2560825" lon="14.2193613"><ele>192.0</ele><time>2026-05-01T10:25:22.443Z</time></trkpt><trkpt lat="42.2560121" lon="14.2193519"><ele>191.33333333333334</ele><time>2026-05-01T10:25:23.44Z</time></trkpt><trkpt lat="42.2559312" lon="14.2193785"><ele>190.66666666666669</ele><time>2026-05-01T10:25:24.442Z</time></trkpt><trkpt lat="42.255864" lon="14.2194979"><ele>190.0</ele><time>2026-05-01T10:25:26.439Z</time></trkpt><trkpt lat="42.2558671" lon="14.2195956"><ele>190.0</ele><time>2026-05-01T10:25:27.436Z</time></trkpt><trkpt lat="42.2558957" lon="14.2197248"><ele>190.0</ele><time>2026-05-01T10:25:28.449Z</time></trkpt><trkpt lat="42.2559127" lon="14.2198697"><ele>190.0</ele><time>2026-05-01T10:25:29.446Z</time></trkpt><trkpt lat="42.2559058" lon="14.2200449"><ele>190.0</ele><time>2026-05-01T10:25:30.444Z</time></trkpt><trkpt lat="42.2558786" lon="14.2202368"><ele>187.25</ele><time>2026-05-01T10:25:31.444Z</time></trkpt><trkpt lat="42.2558566" lon="14.2204155"><ele>184.5</ele><time>2026-05-01T10:25:32.44Z</time></trkpt><trkpt lat="42.2558412" lon="14.2205718"><ele>181.75</ele><time>2026-05-01T10:25:33.445Z</time></trkpt><trkpt lat="42.2558178" lon="14.2207145"><ele>179.0</ele><time>2026-05-01T10:25:34.443Z</time></trkpt><trkpt lat="42.2557763" lon="14.2208465"><ele>178.5</ele><time>2026-05-01T10:25:35.444Z</time></trkpt><trkpt lat="42.2557198" lon="14.220959"><ele>178.0</ele><time>2026-05-01T10:25:36.44Z</time></trkpt><trkpt lat="42.2556379" lon="14.2210513"><ele>177.5</ele><time>2026-05-01T10:25:37.447Z</time></trkpt><trkpt lat="42.2555251" lon="14.2211363"><ele>177.0</ele><time>2026-05-01T10:25:38.441Z</time></trkpt><trkpt lat="42.2553916" lon="14.2212135"><ele>177.0</ele><time>2026-05-01T10:25:39.446Z</time></trkpt><trkpt lat="42.2552242" lon="14.2212935"><ele>177.0</ele><time>2026-05-01T10:25:40.443Z</time></trkpt><trkpt lat="42.2550822" lon="14.2213486"><ele>177.0</ele><time>2026-05-01T10:25:41.446Z</time></trkpt><trkpt lat="42.2549644" lon="14.2214433"><ele>175.6</ele><time>2026-05-01T10:25:42.444Z</time></trkpt><trkpt lat="42.254848" lon="14.2214928"><ele>174.2</ele><time>2026-05-01T10:25:43.447Z</time></trkpt><trkpt lat="42.2547453" lon="14.221531"><ele>172.8</ele><time>2026-05-01T10:25:44.446Z</time></trkpt><trkpt lat="42.254653" lon="14.2215435"><ele>171.4</ele><time>2026-05-01T10:25:45.447Z</time></trkpt><trkpt lat="42.2545626" lon="14.2215213"><ele>170.0</ele><time>2026-05-01T10:25:46.452Z</time></trkpt><trkpt lat="42.2544686" lon="14.2214567"><ele>169.8</ele><time>2026-05-01T10:25:47.449Z</time></trkpt><trkpt lat="42.2543828" lon="14.2213611"><ele>169.6</ele><time>2026-05-01T10:25:48.443Z</time></trkpt><trkpt lat="42.254308" lon="14.2212393"><ele>169.39999999999998</ele><time>2026-05-01T10:25:49.448Z</time></trkpt><trkpt lat="42.2542559" lon="14.2211181"><ele>169.2</ele><time>2026-05-01T10:25:50.449Z</time></trkpt><trkpt lat="42.2542021" lon="14.2210484"><ele>169.0</ele><time>2026-05-01T10:25:51.442Z</time></trkpt><trkpt lat="42.2541377" lon="14.2210229"><ele>169.0</ele><time>2026-05-01T10:25:52.444Z</time></trkpt><trkpt lat="42.254058" lon="14.221034"><ele>169.0</ele><time>2026-05-01T10:25:53.444Z</time></trkpt><trkpt lat="42.2539747" lon="14.2210541"><ele>169.0</ele><time>2026-05-01T10:25:54.447Z</time></trkpt><trkpt lat="42.2539063" lon="14.2210718"><ele>169.0</ele><time>2026-05-01T10:25:55.441Z</time></trkpt><trkpt lat="42.2538007" lon="14.221012"><ele>169.0</ele><time>2026-05-01T10:25:57.449Z</time></trkpt><trkpt lat="42.2537516" lon="14.2209174"><ele>169.0</ele><time>2026-05-01T10:25:58.445Z</time></trkpt><trkpt lat="42.2537024" lon="14.2207857"><ele>169.2</ele><time>2026-05-01T10:25:59.441Z</time></trkpt><trkpt lat="42.2536538" lon="14.2206568"><ele>169.39999999999998</ele><time>2026-05-01T10:26:00.441Z</time></trkpt><trkpt lat="42.2535772" lon="14.2205773"><ele>169.6</ele><time>2026-05-01T10:26:01.459Z</time></trkpt><trkpt lat="42.2534783" lon="14.2205486"><ele>169.8</ele><time>2026-05-01T10:26:02.446Z</time></trkpt><trkpt lat="42.2533574" lon="14.2205501"><ele>170.0</ele><time>2026-05-01T10:26:03.438Z</time></trkpt><trkpt lat="42.2532305" lon="14.2205636"><ele>171.75</ele><time>2026-05-01T10:26:04.446Z</time></trkpt><trkpt lat="42.2530947" lon="14.2205761"><ele>173.5</ele><time>2026-05-01T10:26:05.446Z</time></trkpt><trkpt lat="42.252953" lon="14.2205767"><ele>175.25</ele><time>2026-05-01T10:26:06.445Z</time></trkpt><trkpt lat="42.2527876" lon="14.2205575"><ele>177.0</ele><time>2026-05-01T10:26:07.447Z</time></trkpt><trkpt lat="42.2526222" lon="14.2205502"><ele>177.0</ele><time>2026-05-01T10:26:08.443Z</time></trkpt><trkpt lat="42.2524596" lon="14.2205325"><ele>177.0</ele><time>2026-05-01T10:26:09.442Z</time></trkpt><trkpt lat="42.2523059" lon="14.2204669"><ele>177.0</ele><time>2026-05-01T10:26:10.442Z</time></trkpt><trkpt lat="42.2521517" lon="14.2204015"><ele>179.66666666666666</ele><time>2026-05-01T10:26:11.448Z</time></trkpt><trkpt lat="42.2519953" lon="14.2203288"><ele>182.33333333333331</ele><time>2026-05-01T10:26:12.446Z</time></trkpt><trkpt lat="42.2518601" lon="14.2202569"><ele>185.0</ele><time>2026-05-01T10:26:13.449Z</time></trkpt><trkpt lat="42.2517241" lon="14.2202061"><ele>185.0</ele><time>2026-05-01T10:26:14.449Z</time></trkpt><trkpt lat="42.2515991" lon="14.22015"><ele>185.0</ele><time>2026-05-01T10:26:15.445Z</time></trkpt><trkpt lat="42.2514558" lon="14.2201174"><ele>185.0</ele><time>2026-05-01T10:26:16.448Z</time></trkpt><trkpt lat="42.251305" lon="14.220111"><ele>185.0</ele><time>2026-05-01T10:26:17.457Z</time></trkpt><trkpt lat="42.2511435" lon="14.2201032"><ele>187.0</ele><time>2026-05-01T10:26:18.452Z</time></trkpt><trkpt lat="42.2509971" lon="14.22008"><ele>189.0</ele><time>2026-05-01T10:26:19.451Z</time></trkpt><trkpt lat="42.2508517" lon="14.2200826"><ele>191.0</ele><time>2026-05-01T10:26:20.442Z</time></trkpt><trkpt lat="42.2507393" lon="14.2201113"><ele>193.0</ele><time>2026-05-01T10:26:21.445Z</time></trkpt><trkpt lat="42.2506316" lon="14.2201606"><ele>194.25</ele><time>2026-05-01T10:26:22.45Z</time></trkpt><trkpt lat="42.2505233" lon="14.2201562"><ele>195.5</ele><time>2026-05-01T10:26:23.446Z</time></trkpt><trkpt lat="42.2503975" lon="14.2201124"><ele>196.75</ele><time>2026-05-01T10:26:24.444Z</time></trkpt><trkpt lat="42.2502661" lon="14.2200302"><ele>198.0</ele><time>2026-05-01T10:26:25.44Z</time></trkpt><trkpt lat="42.2501405" lon="14.2199607"><ele>198.0</ele><time>2026-05-01T10:26:26.446Z</time></trkpt><trkpt lat="42.2500473" lon="14.219894"><ele>198.0</ele><time>2026-05-01T10:26:27.443Z</time></trkpt><trkpt lat="42.249961" lon="14.2198388"><ele>198.0</ele><time>2026-05-01T10:26:28.441Z</time></trkpt><trkpt lat="42.2498602" lon="14.2198209"><ele>198.0</ele><time>2026-05-01T10:26:30.439Z</time></trkpt><trkpt lat="42.249767" lon="14.2197734"><ele>198.0</ele><time>2026-05-01T10:26:32.444Z</time></trkpt><trkpt lat="42.2497401" lon="14.2196717"><ele>200.85714285714286</ele><time>2026-05-01T10:26:34.446Z</time></trkpt><trkpt lat="42.249716" lon="14.2195925"><ele>203.7142857142857</ele><time>2026-05-01T10:26:35.447Z</time></trkpt><trkpt lat="42.249695" lon="14.2195021"><ele>206.57142857142856</ele><time>2026-05-01T10:26:36.448Z</time></trkpt><trkpt lat="42.2496767" lon="14.2194053"><ele>209.42857142857144</ele><time>2026-05-01T10:26:37.449Z</time></trkpt><trkpt lat="42.2496486" lon="14.2193067"><ele>212.28571428571428</ele><time>2026-05-01T10:26:38.449Z</time></trkpt><trkpt lat="42.2496212" lon="14.2192045"><ele>215.14285714285714</ele><time>2026-05-01T10:26:40.445Z</time></trkpt><trkpt lat="42.2495563" lon="14.2191783"><ele>218.0</ele><time>2026-05-01T10:26:43.44Z</time></trkpt><trkpt lat="42.2495021" lon="14.2192218"><ele>218.00000000000003</ele><time>2026-05-01T10:26:45.441Z</time></trkpt><trkpt lat="42.2494506" lon="14.219328"><ele>218.0</ele><time>2026-05-01T10:26:47.444Z</time></trkpt><trkpt lat="42.2494204" lon="14.2194257"><ele>218.0</ele><time>2026-05-01T10:26:50.452Z</time></trkpt><trkpt lat="42.2493619" lon="14.219478"><ele>218.0</ele><time>2026-05-01T10:27:01.46Z</time></trkpt><trkpt lat="42.2492798" lon="14.2194187"><ele>218.00000000000003</ele><time>2026-05-01T10:27:04.444Z</time></trkpt><trkpt lat="42.249185" lon="14.2193681"><ele>218.0</ele><time>2026-05-01T10:27:06.443Z</time></trkpt><trkpt lat="42.2491205" lon="14.2193589"><ele>218.0</ele><time>2026-05-01T10:27:07.443Z</time></trkpt><trkpt lat="42.2490102" lon="14.2193184"><ele>218.0</ele><time>2026-05-01T10:27:09.448Z</time></trkpt><trkpt lat="42.2489218" lon="14.2192099"><ele>218.0</ele><time>2026-05-01T10:27:11.452Z</time></trkpt><trkpt lat="42.2488865" lon="14.2191224"><ele>218.0</ele><time>2026-05-01T10:27:12.452Z</time></trkpt><trkpt lat="42.248859" lon="14.2190161"><ele>218.0</ele><time>2026-05-01T10:27:13.461Z</time></trkpt><trkpt lat="42.2488474" lon="14.2189153"><ele>218.25</ele><time>2026-05-01T10:27:14.457Z</time></trkpt><trkpt lat="42.2488551" lon="14.2187644"><ele>218.5</ele><time>2026-05-01T10:27:16.456Z</time></trkpt><trkpt lat="42.2489109" lon="14.2186028"><ele>218.75</ele><time>2026-05-01T10:27:18.45Z</time></trkpt><trkpt lat="42.2489126" lon="14.2184548"><ele>219.0</ele><time>2026-05-01T10:27:20.459Z</time></trkpt><trkpt lat="42.2488847" lon="14.2183004"><ele>219.0</ele><time>2026-05-01T10:27:22.459Z</time></trkpt><trkpt lat="42.2488409" lon="14.2181562"><ele>218.99999999999997</ele><time>2026-05-01T10:27:24.45Z</time></trkpt><trkpt lat="42.2488077" lon="14.218011"><ele>218.99999999999997</ele><time>2026-05-01T10:27:26.45Z</time></trkpt><trkpt lat="42.2487758" lon="14.2178783"><ele>219.0</ele><time>2026-05-01T10:27:28.451Z</time></trkpt><trkpt lat="42.2487421" lon="14.2177421"><ele>219.0</ele><time>2026-05-01T10:27:30.459Z</time></trkpt><trkpt lat="42.2487247" lon="14.2176556"><ele>222.2</ele><time>2026-05-01T10:27:31.458Z</time></trkpt><trkpt lat="42.2486845" lon="14.2175214"><ele>225.39999999999998</ele><time>2026-05-01T10:27:33.446Z</time></trkpt><trkpt lat="42.2486612" lon="14.2173943"><ele>228.6</ele><time>2026-05-01T10:27:35.456Z</time></trkpt><trkpt lat="42.2486489" lon="14.2172495"><ele>231.8</ele><time>2026-05-01T10:27:37.465Z</time></trkpt><trkpt lat="42.2486289" lon="14.2170985"><ele>235.0</ele><time>2026-05-01T10:27:39.462Z</time></trkpt><trkpt lat="42.2486056" lon="14.2170111"><ele>237.49999999999997</ele><time>2026-05-01T10:27:40.465Z</time></trkpt><trkpt lat="42.2485705" lon="14.21692"><ele>240.0</ele><time>2026-05-01T10:27:41.462Z</time></trkpt><trkpt lat="42.2485354" lon="14.2168233"><ele>242.5</ele><time>2026-05-01T10:27:42.467Z</time></trkpt><trkpt lat="42.2485064" lon="14.2167215"><ele>245.0</ele><time>2026-05-01T10:27:43.46Z</time></trkpt><trkpt lat="42.24848" lon="14.2166114"><ele>247.49999999999997</ele><time>2026-05-01T10:27:44.462Z</time></trkpt><trkpt lat="42.2484421" lon="14.2164869"><ele>250.0</ele><time>2026-05-01T10:27:45.457Z</time></trkpt><trkpt lat="42.24841" lon="14.2163646"><ele>251.83333333333331</ele><time>2026-05-01T10:27:46.457Z</time></trkpt><trkpt lat="42.248371" lon="14.216253"><ele>253.66666666666666</ele><time>2026-05-01T10:27:47.456Z</time></trkpt><trkpt lat="42.2483426" lon="14.2161574"><ele>255.5</ele><time>2026-05-01T10:27:48.456Z</time></trkpt><trkpt lat="42.2483139" lon="14.2160658"><ele>257.3333333333333</ele><time>2026-05-01T10:27:49.458Z</time></trkpt><trkpt lat="42.2482916" lon="14.2159753"><ele>259.1666666666667</ele><time>2026-05-01T10:27:50.458Z</time></trkpt><trkpt lat="42.2482642" lon="14.2158681"><ele>261.0</ele><time>2026-05-01T10:27:51.464Z</time></trkpt><trkpt lat="42.2482346" lon="14.2157448"><ele>261.40000000000003</ele><time>2026-05-01T10:27:52.451Z</time></trkpt><trkpt lat="42.248183" lon="14.2156139"><ele>261.8</ele><time>2026-05-01T10:27:53.458Z</time></trkpt><trkpt lat="42.2481235" lon="14.2154883"><ele>262.20000000000005</ele><time>2026-05-01T10:27:54.452Z</time></trkpt><trkpt lat="42.2480627" lon="14.2153643"><ele>262.6</ele><time>2026-05-01T10:27:55.456Z</time></trkpt><trkpt lat="42.2480134" lon="14.2152324"><ele>263.0</ele><time>2026-05-01T10:27:56.462Z</time></trkpt><trkpt lat="42.2479658" lon="14.2151079"><ele>263.1666666666667</ele><time>2026-05-01T10:27:57.462Z</time></trkpt><trkpt lat="42.2479264" lon="14.2150008"><ele>263.33333333333337</ele><time>2026-05-01T10:27:58.457Z</time></trkpt><trkpt lat="42.2479044" lon="14.2149107"><ele>263.5</ele><time>2026-05-01T10:27:59.468Z</time></trkpt><trkpt lat="42.247907" lon="14.2148196"><ele>263.6666666666667</ele><time>2026-05-01T10:28:00.458Z</time></trkpt><trkpt lat="42.2479237" lon="14.2147139"><ele>263.8333333333333</ele><time>2026-05-01T10:28:01.464Z</time></trkpt><trkpt lat="42.247937" lon="14.2146107"><ele>264.0</ele><time>2026-05-01T10:28:02.456Z</time></trkpt><trkpt lat="42.2479424" lon="14.2145178"><ele>264.0</ele><time>2026-05-01T10:28:03.455Z</time></trkpt><trkpt lat="42.2479343" lon="14.2144246"><ele>264.0</ele><time>2026-05-01T10:28:04.456Z</time></trkpt><trkpt lat="42.2479147" lon="14.2143186"><ele>264.0</ele><time>2026-05-01T10:28:05.462Z</time></trkpt><trkpt lat="42.2478915" lon="14.214211"><ele>264.0</ele><time>2026-05-01T10:28:06.457Z</time></trkpt><trkpt lat="42.2478697" lon="14.2140977"><ele>264.0</ele><time>2026-05-01T10:28:07.457Z</time></trkpt><trkpt lat="42.2478386" lon="14.2139784"><ele>264.0</ele><time>2026-05-01T10:28:08.457Z</time></trkpt><trkpt lat="42.2478015" lon="14.2138647"><ele>265.6666666666667</ele><time>2026-05-01T10:28:09.458Z</time></trkpt><trkpt lat="42.247761" lon="14.2137663"><ele>267.3333333333333</ele><time>2026-05-01T10:28:10.46Z</time></trkpt><trkpt lat="42.2477182" lon="14.213693"><ele>269.0</ele><time>2026-05-01T10:28:11.461Z</time></trkpt><trkpt lat="42.2476686" lon="14.2136373"><ele>270.66666666666663</ele><time>2026-05-01T10:28:12.455Z</time></trkpt><trkpt lat="42.2476008" lon="14.2135264"><ele>272.3333333333333</ele><time>2026-05-01T10:28:14.457Z</time></trkpt><trkpt lat="42.24758" lon="14.2134358"><ele>274.0</ele><time>2026-05-01T10:28:15.456Z</time></trkpt><trkpt lat="42.2475699" lon="14.213308"><ele>274.0</ele><time>2026-05-01T10:28:16.448Z</time></trkpt><trkpt lat="42.2475618" lon="14.213165"><ele>274.0</ele><time>2026-05-01T10:28:17.459Z</time></trkpt><trkpt lat="42.2475445" lon="14.2130115"><ele>274.0</ele><time>2026-05-01T10:28:18.456Z</time></trkpt><trkpt lat="42.2475319" lon="14.2128737"><ele>274.0</ele><time>2026-05-01T10:28:19.449Z</time></trkpt><trkpt lat="42.2475264" lon="14.2127417"><ele>274.0</ele><time>2026-05-01T10:28:20.451Z</time></trkpt><trkpt lat="42.2475214" lon="14.2126179"><ele>274.4</ele><time>2026-05-01T10:28:21.455Z</time></trkpt><trkpt lat="42.2475117" lon="14.2124932"><ele>274.79999999999995</ele><time>2026-05-01T10:28:22.463Z</time></trkpt><trkpt lat="42.2475027" lon="14.2123655"><ele>275.20000000000005</ele><time>2026-05-01T10:28:23.454Z</time></trkpt><trkpt lat="42.2474836" lon="14.2122302"><ele>275.6</ele><time>2026-05-01T10:28:24.454Z</time></trkpt><trkpt lat="42.2474622" lon="14.2120968"><ele>276.0</ele><time>2026-05-01T10:28:25.45Z</time></trkpt><trkpt lat="42.2474375" lon="14.2119604"><ele>276.8</ele><time>2026-05-01T10:28:26.459Z</time></trkpt><trkpt lat="42.2474058" lon="14.2118269"><ele>277.6</ele><time>2026-05-01T10:28:27.458Z</time></trkpt><trkpt lat="42.2473682" lon="14.211717"><ele>278.4</ele><time>2026-05-01T10:28:28.458Z</time></trkpt><trkpt lat="42.2473294" lon="14.2116158"><ele>279.2</ele><time>2026-05-01T10:28:29.452Z</time></trkpt><trkpt lat="42.2472866" lon="14.2115269"><ele>280.0</ele><time>2026-05-01T10:28:30.45Z</time></trkpt><trkpt lat="42.2472296" lon="14.2114105"><ele>280.0</ele><time>2026-05-01T10:28:32.45Z</time></trkpt><trkpt lat="42.247229" lon="14.2112703"><ele>280.0</ele><time>2026-05-01T10:28:34.446Z</time></trkpt><trkpt lat="42.2472475" lon="14.2111786"><ele>280.0</ele><time>2026-05-01T10:28:35.447Z</time></trkpt><trkpt lat="42.2472802" lon="14.2110937"><ele>280.0</ele><time>2026-05-01T10:28:36.448Z</time></trkpt><trkpt lat="42.2473002" lon="14.2109998"><ele>280.0</ele><time>2026-05-01T10:28:37.452Z</time></trkpt><trkpt lat="42.2473075" lon="14.2108941"><ele>280.0</ele><time>2026-05-01T10:28:38.452Z</time></trkpt><trkpt lat="42.2473072" lon="14.2107823"><ele>282.0</ele><time>2026-05-01T10:28:39.453Z</time></trkpt><trkpt lat="42.2473039" lon="14.2106641"><ele>284.0</ele><time>2026-05-01T10:28:40.452Z</time></trkpt><trkpt lat="42.247294" lon="14.210564"><ele>286.0</ele><time>2026-05-01T10:28:41.445Z</time></trkpt><trkpt lat="42.2472934" lon="14.210411"><ele>288.0</ele><time>2026-05-01T10:28:43.447Z</time></trkpt><trkpt lat="42.2473039" lon="14.2103114"><ele>290.0</ele><time>2026-05-01T10:28:44.442Z</time></trkpt><trkpt lat="42.2473255" lon="14.2101874"><ele>292.0</ele><time>2026-05-01T10:28:45.445Z</time></trkpt><trkpt lat="42.2473433" lon="14.2100593"><ele>294.16666666666663</ele><time>2026-05-01T10:28:46.451Z</time></trkpt><trkpt lat="42.2473636" lon="14.2099442"><ele>296.3333333333333</ele><time>2026-05-01T10:28:47.45Z</time></trkpt><trkpt lat="42.2473736" lon="14.2098409"><ele>298.5</ele><time>2026-05-01T10:28:48.453Z</time></trkpt><trkpt lat="42.2473813" lon="14.2097304"><ele>300.6666666666667</ele><time>2026-05-01T10:28:49.449Z</time></trkpt><trkpt lat="42.2473872" lon="14.2096186"><ele>302.83333333333337</ele><time>2026-05-01T10:28:50.448Z</time></trkpt><trkpt lat="42.2473931" lon="14.2095226"><ele>305.0</ele><time>2026-05-01T10:28:51.45Z</time></trkpt><trkpt lat="42.2473813" lon="14.2094332"><ele>307.0</ele><time>2026-05-01T10:28:52.449Z</time></trkpt><trkpt lat="42.247362" lon="14.209343"><ele>309.0</ele><time>2026-05-01T10:28:53.451Z</time></trkpt><trkpt lat="42.2473378" lon="14.2091994"><ele>311.0</ele><time>2026-05-01T10:28:55.446Z</time></trkpt><trkpt lat="42.2473275" lon="14.2090849"><ele>313.0</ele><time>2026-05-01T10:28:57.446Z</time></trkpt><trkpt lat="42.2472865" lon="14.2089755"><ele>315.0</ele><time>2026-05-01T10:28:59.436Z</time></trkpt><trkpt lat="42.2471954" lon="14.2089294"><ele>317.6666666666667</ele><time>2026-05-01T10:29:01.452Z</time></trkpt><trkpt lat="42.2470812" lon="14.2089298"><ele>320.3333333333333</ele><time>2026-05-01T10:29:03.445Z</time></trkpt><trkpt lat="42.2470149" lon="14.2089369"><ele>323.0</ele><time>2026-05-01T10:29:04.447Z</time></trkpt><trkpt lat="42.2469493" lon="14.2089293"><ele>325.66666666666663</ele><time>2026-05-01T10:29:05.438Z</time></trkpt><trkpt lat="42.2468867" lon="14.2088993"><ele>328.3333333333333</ele><time>2026-05-01T10:29:06.44Z</time></trkpt><trkpt lat="42.2467982" lon="14.2088518"><ele>331.0</ele><time>2026-05-01T10:29:08.434Z</time></trkpt><trkpt lat="42.2467825" lon="14.2087291"><ele>331.0</ele><time>2026-05-01T10:29:11.443Z</time></trkpt><trkpt lat="42.2467188" lon="14.2085666"><ele>331.0</ele><time>2026-05-01T10:29:13.441Z</time></trkpt><trkpt lat="42.2466739" lon="14.2084811"><ele>331.0</ele><time>2026-05-01T10:29:14.444Z</time></trkpt><trkpt lat="42.246623" lon="14.2083886"><ele>331.0</ele><time>2026-05-01T10:29:15.444Z</time></trkpt><trkpt lat="42.2465626" lon="14.2082793"><ele>331.0</ele><time>2026-05-01T10:29:16.45Z</time></trkpt><trkpt lat="42.2464926" lon="14.2081783"><ele>330.8333333333333</ele><time>2026-05-01T10:29:17.453Z</time></trkpt><trkpt lat="42.2464323" lon="14.2080958"><ele>330.66666666666663</ele><time>2026-05-01T10:29:18.447Z</time></trkpt><trkpt lat="42.2463863" lon="14.2080306"><ele>330.5</ele><time>2026-05-01T10:29:19.448Z</time></trkpt><trkpt lat="42.246338" lon="14.2078893"><ele>330.3333333333333</ele><time>2026-05-01T10:29:21.453Z</time></trkpt><trkpt lat="42.2463177" lon="14.2078061"><ele>330.1666666666667</ele><time>2026-05-01T10:29:22.45Z</time></trkpt><trkpt lat="42.2462896" lon="14.2076705"><ele>330.0</ele><time>2026-05-01T10:29:24.444Z</time></trkpt><trkpt lat="42.2462849" lon="14.2075672"><ele>330.0</ele><time>2026-05-01T10:29:25.446Z</time></trkpt><trkpt lat="42.2462766" lon="14.2074563"><ele>330.0</ele><time>2026-05-01T10:29:26.445Z</time></trkpt><trkpt lat="42.2462712" lon="14.207356"><ele>330.0</ele><time>2026-05-01T10:29:27.446Z</time></trkpt><trkpt lat="42.2462864" lon="14.2072274"><ele>330.0</ele><time>2026-05-01T10:29:29.456Z</time></trkpt><trkpt lat="42.246297" lon="14.2071425"><ele>330.0</ele><time>2026-05-01T10:29:31.458Z</time></trkpt><trkpt lat="42.2462924" lon="14.2070327"><ele>330.0</ele><time>2026-05-01T10:29:43.444Z</time></trkpt><trkpt lat="42.2462958" lon="14.2068949"><ele>333.5</ele><time>2026-05-01T10:29:45.447Z</time></trkpt><trkpt lat="42.2462978" lon="14.2067298"><ele>337.0</ele><time>2026-05-01T10:29:47.452Z</time></trkpt><trkpt lat="42.2463081" lon="14.2065782"><ele>340.5</ele><time>2026-05-01T10:29:49.446Z</time></trkpt><trkpt lat="42.2463387" lon="14.2064376"><ele>344.0</ele><time>2026-05-01T10:29:51.448Z</time></trkpt><trkpt lat="42.2463881" lon="14.2062849"><ele>345.6666666666667</ele><time>2026-05-01T10:29:53.453Z</time></trkpt><trkpt lat="42.2464185" lon="14.2061996"><ele>347.33333333333337</ele><time>2026-05-01T10:29:54.439Z</time></trkpt><trkpt lat="42.2464559" lon="14.2061051"><ele>349.0</ele><time>2026-05-01T10:29:55.45Z</time></trkpt><trkpt lat="42.2464974" lon="14.2060034"><ele>350.6666666666667</ele><time>2026-05-01T10:29:56.436Z</time></trkpt><trkpt lat="42.2465407" lon="14.2059138"><ele>352.3333333333333</ele><time>2026-05-01T10:29:57.445Z</time></trkpt><trkpt lat="42.246573" lon="14.2057761"><ele>354.0</ele><time>2026-05-01T10:29:59.437Z</time></trkpt><trkpt lat="42.2465104" lon="14.2056592"><ele>357.8333333333333</ele><time>2026-05-01T10:30:01.435Z</time></trkpt><trkpt lat="42.2464507" lon="14.2055974"><ele>361.6666666666667</ele><time>2026-05-01T10:30:02.435Z</time></trkpt><trkpt lat="42.2463898" lon="14.2055391"><ele>365.5</ele><time>2026-05-01T10:30:03.431Z</time></trkpt><trkpt lat="42.2463301" lon="14.2054653"><ele>369.33333333333337</ele><time>2026-05-01T10:30:04.431Z</time></trkpt><trkpt lat="42.2462657" lon="14.2053853"><ele>373.1666666666667</ele><time>2026-05-01T10:30:05.434Z</time></trkpt><trkpt lat="42.246192" lon="14.2052863"><ele>377.0</ele><time>2026-05-01T10:30:06.433Z</time></trkpt><trkpt lat="42.2461228" lon="14.2051736"><ele>377.0</ele><time>2026-05-01T10:30:07.434Z</time></trkpt><trkpt lat="42.2460608" lon="14.2050876"><ele>377.0</ele><time>2026-05-01T10:30:08.424Z</time></trkpt><trkpt lat="42.246003" lon="14.205029"><ele>377.0</ele><time>2026-05-01T10:30:09.432Z</time></trkpt><trkpt lat="42.2459474" lon="14.2049868"><ele>377.0</ele><time>2026-05-01T10:30:10.421Z</time></trkpt><trkpt lat="42.245884" lon="14.2048725"><ele>377.0</ele><time>2026-05-01T10:30:12.435Z</time></trkpt><trkpt lat="42.2458614" lon="14.2047835"><ele>377.0</ele><time>2026-05-01T10:30:13.436Z</time></trkpt><trkpt lat="42.2458375" lon="14.2046851"><ele>377.6666666666667</ele><time>2026-05-01T10:30:14.44Z</time></trkpt><trkpt lat="42.2458317" lon="14.2045831"><ele>378.33333333333337</ele><time>2026-05-01T10:30:15.432Z</time></trkpt><trkpt lat="42.2458455" lon="14.2044838"><ele>379.0</ele><time>2026-05-01T10:30:16.438Z</time></trkpt><trkpt lat="42.245885" lon="14.2044007"><ele>379.6666666666667</ele><time>2026-05-01T10:30:17.433Z</time></trkpt><trkpt lat="42.2459385" lon="14.2043112"><ele>380.3333333333333</ele><time>2026-05-01T10:30:18.426Z</time></trkpt><trkpt lat="42.2459956" lon="14.2042077"><ele>381.0</ele><time>2026-05-01T10:30:19.429Z</time></trkpt><trkpt lat="42.2460442" lon="14.2041029"><ele>382.1666666666667</ele><time>2026-05-01T10:30:20.442Z</time></trkpt><trkpt lat="42.246083" lon="14.2039917"><ele>383.33333333333337</ele><time>2026-05-01T10:30:21.431Z</time></trkpt><trkpt lat="42.2461027" lon="14.2038821"><ele>384.5</ele><time>2026-05-01T10:30:22.436Z</time></trkpt><trkpt lat="42.246116" lon="14.2037682"><ele>385.6666666666667</ele><time>2026-05-01T10:30:23.436Z</time></trkpt><trkpt lat="42.2461164" lon="14.2036416"><ele>386.83333333333337</ele><time>2026-05-01T10:30:24.436Z</time></trkpt><trkpt lat="42.246113" lon="14.2035184"><ele>388.0</ele><time>2026-05-01T10:30:25.44Z</time></trkpt><trkpt lat="42.2461006" lon="14.2033903"><ele>388.0</ele><time>2026-05-01T10:30:26.438Z</time></trkpt><trkpt lat="42.2460725" lon="14.2032584"><ele>388.0</ele><time>2026-05-01T10:30:27.437Z</time></trkpt><trkpt lat="42.2460251" lon="14.2031314"><ele>388.0</ele><time>2026-05-01T10:30:28.435Z</time></trkpt><trkpt lat="42.2459798" lon="14.2030141"><ele>388.0</ele><time>2026-05-01T10:30:29.438Z</time></trkpt><trkpt lat="42.245951" lon="14.202916"><ele>388.0</ele><time>2026-05-01T10:30:30.44Z</time></trkpt><trkpt lat="42.2458606" lon="14.2028084"><ele>389.00000000000006</ele><time>2026-05-01T10:30:32.427Z</time></trkpt><trkpt lat="42.2457864" lon="14.2027825"><ele>390.0</ele><time>2026-05-01T10:30:33.435Z</time></trkpt><trkpt lat="42.2457096" lon="14.2027523"><ele>391.0</ele><time>2026-05-01T10:30:34.437Z</time></trkpt><trkpt lat="42.2456414" lon="14.2027216"><ele>392.0</ele><time>2026-05-01T10:30:35.432Z</time></trkpt><trkpt lat="42.2455798" lon="14.2026585"><ele>393.00000000000006</ele><time>2026-05-01T10:30:36.437Z</time></trkpt><trkpt lat="42.2455374" lon="14.2025724"><ele>394.0</ele><time>2026-05-01T10:30:37.429Z</time></trkpt><trkpt lat="42.2455029" lon="14.2024742"><ele>395.33333333333337</ele><time>2026-05-01T10:30:38.43Z</time></trkpt><trkpt lat="42.2454798" lon="14.2023924"><ele>396.6666666666667</ele><time>2026-05-01T10:30:39.431Z</time></trkpt><trkpt lat="42.2454527" lon="14.202296"><ele>398.0</ele><time>2026-05-01T10:30:41.434Z</time></trkpt><trkpt lat="42.2453843" lon="14.2022979"><ele>399.33333333333337</ele><time>2026-05-01T10:30:43.435Z</time></trkpt><trkpt lat="42.2453238" lon="14.2024304"><ele>400.6666666666667</ele><time>2026-05-01T10:30:45.439Z</time></trkpt><trkpt lat="42.2452841" lon="14.2025564"><ele>402.0</ele><time>2026-05-01T10:30:46.436Z</time></trkpt><trkpt lat="42.2452211" lon="14.2026959"><ele>402.0</ele><time>2026-05-01T10:30:47.434Z</time></trkpt><trkpt lat="42.2451307" lon="14.2028225"><ele>402.0</ele><time>2026-05-01T10:30:48.436Z</time></trkpt><trkpt lat="42.2450284" lon="14.2029217"><ele>402.0</ele><time>2026-05-01T10:30:49.441Z</time></trkpt><trkpt lat="42.2449222" lon="14.2029854"><ele>402.0</ele><time>2026-05-01T10:30:50.442Z</time></trkpt><trkpt lat="42.2448176" lon="14.2030143"><ele>401.6</ele><time>2026-05-01T10:30:51.442Z</time></trkpt><trkpt lat="42.2447234" lon="14.2030405"><ele>401.20000000000005</ele><time>2026-05-01T10:30:52.445Z</time></trkpt><trkpt lat="42.2446285" lon="14.2030797"><ele>400.8</ele><time>2026-05-01T10:30:53.448Z</time></trkpt><trkpt lat="42.2445403" lon="14.2031495"><ele>400.4</ele><time>2026-05-01T10:30:54.441Z</time></trkpt><trkpt lat="42.2444672" lon="14.2032504"><ele>400.0</ele><time>2026-05-01T10:30:55.438Z</time></trkpt><trkpt lat="42.2444115" lon="14.2033856"><ele>400.0</ele><time>2026-05-01T10:30:56.442Z</time></trkpt><trkpt lat="42.2443803" lon="14.2035585"><ele>400.0</ele><time>2026-05-01T10:30:57.439Z</time></trkpt><trkpt lat="42.2443615" lon="14.2037361"><ele>400.0</ele><time>2026-05-01T10:30:58.441Z</time></trkpt><trkpt lat="42.2443534" lon="14.2039134"><ele>400.0</ele><time>2026-05-01T10:30:59.446Z</time></trkpt><trkpt lat="42.2443448" lon="14.2040792"><ele>398.4</ele><time>2026-05-01T10:31:00.437Z</time></trkpt><trkpt lat="42.2443228" lon="14.2042212"><ele>396.8</ele><time>2026-05-01T10:31:01.445Z</time></trkpt><trkpt lat="42.2442942" lon="14.204364"><ele>395.20000000000005</ele><time>2026-05-01T10:31:02.44Z</time></trkpt><trkpt lat="42.2442487" lon="14.2044924"><ele>393.6</ele><time>2026-05-01T10:31:03.433Z</time></trkpt><trkpt lat="42.2441774" lon="14.2045828"><ele>392.0</ele><time>2026-05-01T10:31:04.432Z</time></trkpt><trkpt lat="42.2441024" lon="14.2046479"><ele>392.0</ele><time>2026-05-01T10:31:05.439Z</time></trkpt><trkpt lat="42.2440341" lon="14.2047096"><ele>392.0</ele><time>2026-05-01T10:31:06.431Z</time></trkpt><trkpt lat="42.2439683" lon="14.2047767"><ele>392.0</ele><time>2026-05-01T10:31:07.431Z</time></trkpt><trkpt lat="42.2439045" lon="14.2048534"><ele>392.0</ele><time>2026-05-01T10:31:08.43Z</time></trkpt><trkpt lat="42.2438236" lon="14.2049444"><ele>392.0</ele><time>2026-05-01T10:31:09.443Z</time></trkpt><trkpt lat="42.2437343" lon="14.2050431"><ele>392.75</ele><time>2026-05-01T10:31:10.439Z</time></trkpt><trkpt lat="42.2436491" lon="14.205162"><ele>393.5</ele><time>2026-05-01T10:31:11.435Z</time></trkpt><trkpt lat="42.2435917" lon="14.2052906"><ele>394.25</ele><time>2026-05-01T10:31:12.438Z</time></trkpt><trkpt lat="42.2435531" lon="14.2054416"><ele>395.0</ele><time>2026-05-01T10:31:13.444Z</time></trkpt><trkpt lat="42.2435151" lon="14.20558"><ele>392.0</ele><time>2026-05-01T10:31:14.447Z</time></trkpt><trkpt lat="42.2434729" lon="14.2057214"><ele>389.0</ele><time>2026-05-01T10:31:15.44Z</time></trkpt><trkpt lat="42.2434148" lon="14.2058544"><ele>386.0</ele><time>2026-05-01T10:31:16.441Z</time></trkpt><trkpt lat="42.2433367" lon="14.2059788"><ele>383.0</ele><time>2026-05-01T10:31:17.44Z</time></trkpt><trkpt lat="42.2432384" lon="14.2060851"><ele>387.0</ele><time>2026-05-01T10:31:18.438Z</time></trkpt><trkpt lat="42.2431281" lon="14.2061785"><ele>391.0</ele><time>2026-05-01T10:31:19.439Z</time></trkpt><trkpt lat="42.2430192" lon="14.2062627"><ele>395.0</ele><time>2026-05-01T10:31:20.439Z</time></trkpt><trkpt lat="42.242918" lon="14.206355"><ele>399.0</ele><time>2026-05-01T10:31:21.448Z</time></trkpt><trkpt lat="42.2428161" lon="14.2064419"><ele>392.75</ele><time>2026-05-01T10:31:22.439Z</time></trkpt><trkpt lat="42.2427134" lon="14.206518"><ele>386.5</ele><time>2026-05-01T10:31:23.44Z</time></trkpt><trkpt lat="42.2426118" lon="14.2065905"><ele>380.25</ele><time>2026-05-01T10:31:24.439Z</time></trkpt><trkpt lat="42.2425153" lon="14.2066663"><ele>374.0</ele><time>2026-05-01T10:31:25.438Z</time></trkpt><trkpt lat="42.2424216" lon="14.2067359"><ele>374.0</ele><time>2026-05-01T10:31:26.436Z</time></trkpt><trkpt lat="42.242324" lon="14.206796"><ele>374.0</ele><time>2026-05-01T10:31:27.443Z</time></trkpt><trkpt lat="42.2422213" lon="14.2068493"><ele>374.0</ele><time>2026-05-01T10:31:28.438Z</time></trkpt><trkpt lat="42.2421117" lon="14.2068866"><ele>374.0</ele><time>2026-05-01T10:31:29.44Z</time></trkpt><trkpt lat="42.2419982" lon="14.2069141"><ele>374.0</ele><time>2026-05-01T10:31:30.443Z</time></trkpt><trkpt lat="42.2418849" lon="14.2069313"><ele>375.0</ele><time>2026-05-01T10:31:31.445Z</time></trkpt><trkpt lat="42.2417572" lon="14.2069508"><ele>376.0</ele><time>2026-05-01T10:31:32.446Z</time></trkpt><trkpt lat="42.2416255" lon="14.206963"><ele>377.0</ele><time>2026-05-01T10:31:33.44Z</time></trkpt><trkpt lat="42.2414913" lon="14.2069712"><ele>378.0</ele><time>2026-05-01T10:31:34.444Z</time></trkpt><trkpt lat="42.2413475" lon="14.2069755"><ele>375.75</ele><time>2026-05-01T10:31:35.441Z</time></trkpt><trkpt lat="42.2411956" lon="14.2069616"><ele>373.5</ele><time>2026-05-01T10:31:36.44Z</time></trkpt><trkpt lat="42.2410457" lon="14.2069412"><ele>371.25</ele><time>2026-05-01T10:31:37.435Z</time></trkpt><trkpt lat="42.2409346" lon="14.2069011"><ele>369.0</ele><time>2026-05-01T10:31:38.433Z</time></trkpt><trkpt lat="42.2408156" lon="14.2068409"><ele>369.0</ele><time>2026-05-01T10:31:39.437Z</time></trkpt><trkpt lat="42.2407184" lon="14.2068017"><ele>369.0</ele><time>2026-05-01T10:31:40.436Z</time></trkpt><trkpt lat="42.2406425" lon="14.2067893"><ele>369.0</ele><time>2026-05-01T10:31:41.434Z</time></trkpt><trkpt lat="42.2405575" lon="14.2068298"><ele>369.0</ele><time>2026-05-01T10:31:42.437Z</time></trkpt><trkpt lat="42.2404586" lon="14.206902"><ele>369.0</ele><time>2026-05-01T10:31:43.432Z</time></trkpt><trkpt lat="42.2403676" lon="14.2069733"><ele>367.5</ele><time>2026-05-01T10:31:44.441Z</time></trkpt><trkpt lat="42.2402742" lon="14.2070205"><ele>366.0</ele><time>2026-05-01T10:31:45.439Z</time></trkpt><trkpt lat="42.2401863" lon="14.2070198"><ele>364.5</ele><time>2026-05-01T10:31:46.439Z</time></trkpt><trkpt lat="42.2401071" lon="14.2069839"><ele>363.0</ele><time>2026-05-01T10:31:47.439Z</time></trkpt><trkpt lat="42.2400359" lon="14.2069321"><ele>361.5</ele><time>2026-05-01T10:31:48.436Z</time></trkpt><trkpt lat="42.2399644" lon="14.206902"><ele>360.0</ele><time>2026-05-01T10:31:49.438Z</time></trkpt><trkpt lat="42.2399006" lon="14.2069052"><ele>360.0</ele><time>2026-05-01T10:31:50.438Z</time></trkpt><trkpt lat="42.2398367" lon="14.2068552"><ele>360.0</ele><time>2026-05-01T10:31:55.443Z</time></trkpt><trkpt lat="42.2397774" lon="14.2067746"><ele>360.0</ele><time>2026-05-01T10:31:57.447Z</time></trkpt><trkpt lat="42.2397033" lon="14.2067051"><ele>360.0</ele><time>2026-05-01T10:31:59.45Z</time></trkpt><trkpt lat="42.2396074" lon="14.2065996"><ele>360.0</ele><time>2026-05-01T10:32:01.454Z</time></trkpt><trkpt lat="42.23955" lon="14.2065316"><ele>360.0</ele><time>2026-05-01T10:32:02.444Z</time></trkpt><trkpt lat="42.2394799" lon="14.2064535"><ele>359.3333333333333</ele><time>2026-05-01T10:32:03.447Z</time></trkpt><trkpt lat="42.2394059" lon="14.2063635"><ele>358.6666666666667</ele><time>2026-05-01T10:32:04.446Z</time></trkpt><trkpt lat="42.2393325" lon="14.2062721"><ele>358.0</ele><time>2026-05-01T10:32:05.441Z</time></trkpt><trkpt lat="42.2392685" lon="14.206188"><ele>357.33333333333337</ele><time>2026-05-01T10:32:06.44Z</time></trkpt><trkpt lat="42.2392177" lon="14.2061047"><ele>356.6666666666667</ele><time>2026-05-01T10:32:07.444Z</time></trkpt><trkpt lat="42.2391759" lon="14.2060129"><ele>356.0</ele><time>2026-05-01T10:32:08.442Z</time></trkpt><trkpt lat="42.2391411" lon="14.2059014"><ele>356.0</ele><time>2026-05-01T10:32:09.445Z</time></trkpt><trkpt lat="42.2391084" lon="14.2057891"><ele>356.0</ele><time>2026-05-01T10:32:10.441Z</time></trkpt><trkpt lat="42.2390701" lon="14.2056762"><ele>356.0</ele><time>2026-05-01T10:32:11.451Z</time></trkpt><trkpt lat="42.2390285" lon="14.2055667"><ele>356.0</ele><time>2026-05-01T10:32:12.445Z</time></trkpt><trkpt lat="42.2389868" lon="14.2054662"><ele>356.0</ele><time>2026-05-01T10:32:13.444Z</time></trkpt><trkpt lat="42.238944" lon="14.205371"><ele>356.0</ele><time>2026-05-01T10:32:14.446Z</time></trkpt><trkpt lat="42.2388976" lon="14.2052929"><ele>353.8</ele><time>2026-05-01T10:32:15.437Z</time></trkpt><trkpt lat="42.2388467" lon="14.2052236"><ele>351.6</ele><time>2026-05-01T10:32:16.437Z</time></trkpt><trkpt lat="42.2388026" lon="14.2051554"><ele>349.4</ele><time>2026-05-01T10:32:17.442Z</time></trkpt><trkpt lat="42.2387423" lon="14.2050183"><ele>347.2</ele><time>2026-05-01T10:32:19.45Z</time></trkpt><trkpt lat="42.2386675" lon="14.2049235"><ele>345.0</ele><time>2026-05-01T10:32:21.451Z</time></trkpt><trkpt lat="42.2385763" lon="14.2048603"><ele>346.6</ele><time>2026-05-01T10:32:23.444Z</time></trkpt><trkpt lat="42.2385317" lon="14.204796"><ele>348.2</ele><time>2026-05-01T10:32:24.444Z</time></trkpt><trkpt lat="42.238486" lon="14.2047141"><ele>349.79999999999995</ele><time>2026-05-01T10:32:25.448Z</time></trkpt><trkpt lat="42.2384442" lon="14.2046413"><ele>351.4</ele><time>2026-05-01T10:32:26.449Z</time></trkpt><trkpt lat="42.2383593" lon="14.2045146"><ele>353.0</ele><time>2026-05-01T10:32:28.444Z</time></trkpt><trkpt lat="42.238278" lon="14.2043759"><ele>353.0</ele><time>2026-05-01T10:32:30.451Z</time></trkpt><trkpt lat="42.2382373" lon="14.2042847"><ele>353.0</ele><time>2026-05-01T10:32:31.46Z</time></trkpt><trkpt lat="42.2381994" lon="14.204186"><ele>353.0</ele><time>2026-05-01T10:32:32.448Z</time></trkpt><trkpt lat="42.2381745" lon="14.2040966"><ele>353.0</ele><time>2026-05-01T10:32:33.448Z</time></trkpt><trkpt lat="42.2381481" lon="14.2040016"><ele>353.0</ele><time>2026-05-01T10:32:34.45Z</time></trkpt><trkpt lat="42.2381265" lon="14.2039126"><ele>353.0</ele><time>2026-05-01T10:32:35.443Z</time></trkpt><trkpt lat="42.2381056" lon="14.2038279"><ele>353.0</ele><time>2026-05-01T10:32:36.434Z</time></trkpt><trkpt lat="42.2380785" lon="14.2036821"><ele>349.4</ele><time>2026-05-01T10:32:38.445Z</time></trkpt><trkpt lat="42.2380839" lon="14.203539"><ele>345.79999999999995</ele><time>2026-05-01T10:32:40.431Z</time></trkpt><trkpt lat="42.2380844" lon="14.2034081"><ele>342.2</ele><time>2026-05-01T10:32:42.435Z</time></trkpt><trkpt lat="42.2380448" lon="14.2032989"><ele>338.6</ele><time>2026-05-01T10:32:44.442Z</time></trkpt><trkpt lat="42.237969" lon="14.2032047"><ele>335.0</ele><time>2026-05-01T10:32:46.429Z</time></trkpt><trkpt lat="42.2379135" lon="14.2031508"><ele>335.0</ele><time>2026-05-01T10:32:47.437Z</time></trkpt><trkpt lat="42.2378199" lon="14.2030644"><ele>335.0</ele><time>2026-05-01T10:32:49.434Z</time></trkpt><trkpt lat="42.2377611" lon="14.2029551"><ele>335.0</ele><time>2026-05-01T10:32:51.436Z</time></trkpt><trkpt lat="42.2376929" lon="14.2028097"><ele>335.0</ele><time>2026-05-01T10:32:53.442Z</time></trkpt><trkpt lat="42.2376487" lon="14.2027298"><ele>335.0</ele><time>2026-05-01T10:32:54.442Z</time></trkpt><trkpt lat="42.2376019" lon="14.2026521"><ele>335.0</ele><time>2026-05-01T10:32:55.445Z</time></trkpt><trkpt lat="42.237565" lon="14.2025793"><ele>335.0</ele><time>2026-05-01T10:32:56.435Z</time></trkpt><trkpt lat="42.2375313" lon="14.2024749"><ele>335.0</ele><time>2026-05-01T10:32:58.433Z</time></trkpt><trkpt lat="42.2375075" lon="14.2023655"><ele>335.0</ele><time>2026-05-01T10:33:00.441Z</time></trkpt><trkpt lat="42.2375003" lon="14.2022185"><ele>335.0</ele><time>2026-05-01T10:33:02.443Z</time></trkpt><trkpt lat="42.2374835" lon="14.2021026"><ele>335.0</ele><time>2026-05-01T10:33:03.449Z</time></trkpt><trkpt lat="42.237462" lon="14.2019867"><ele>336.0</ele><time>2026-05-01T10:33:04.443Z</time></trkpt><trkpt lat="42.2374369" lon="14.2018659"><ele>337.0</ele><time>2026-05-01T10:33:05.447Z</time></trkpt><trkpt lat="42.2374134" lon="14.201744"><ele>338.0</ele><time>2026-05-01T10:33:06.447Z</time></trkpt><trkpt lat="42.237389" lon="14.2016183"><ele>339.0</ele><time>2026-05-01T10:33:07.437Z</time></trkpt><trkpt lat="42.2373696" lon="14.2015146"><ele>340.0</ele><time>2026-05-01T10:33:08.442Z</time></trkpt><trkpt lat="42.2373533" lon="14.2014306"><ele>341.0</ele><time>2026-05-01T10:33:09.441Z</time></trkpt><trkpt lat="42.2373422" lon="14.2013279"><ele>341.6</ele><time>2026-05-01T10:33:10.441Z</time></trkpt><trkpt lat="42.2373253" lon="14.201228"><ele>342.20000000000005</ele><time>2026-05-01T10:33:11.441Z</time></trkpt><trkpt lat="42.2373244" lon="14.2011382"><ele>342.79999999999995</ele><time>2026-05-01T10:33:12.44Z</time></trkpt><trkpt lat="42.2373383" lon="14.2009843"><ele>343.4</ele><time>2026-05-01T10:33:14.443Z</time></trkpt><trkpt lat="42.237375" lon="14.200807"><ele>344.0</ele><time>2026-05-01T10:33:16.446Z</time></trkpt><trkpt lat="42.2373888" lon="14.2006962"><ele>344.6666666666667</ele><time>2026-05-01T10:33:17.447Z</time></trkpt><trkpt lat="42.2374094" lon="14.200578"><ele>345.33333333333337</ele><time>2026-05-01T10:33:18.447Z</time></trkpt><trkpt lat="42.2374264" lon="14.2004592"><ele>346.0</ele><time>2026-05-01T10:33:19.451Z</time></trkpt><trkpt lat="42.2374357" lon="14.2003543"><ele>346.6666666666667</ele><time>2026-05-01T10:33:20.449Z</time></trkpt><trkpt lat="42.2374521" lon="14.200248"><ele>347.3333333333333</ele><time>2026-05-01T10:33:21.443Z</time></trkpt><trkpt lat="42.237474" lon="14.2001397"><ele>348.0</ele><time>2026-05-01T10:33:22.449Z</time></trkpt><trkpt lat="42.2374955" lon="14.2000319"><ele>348.0</ele><time>2026-05-01T10:33:23.444Z</time></trkpt><trkpt lat="42.2375143" lon="14.1999347"><ele>348.0</ele><time>2026-05-01T10:33:24.451Z</time></trkpt><trkpt lat="42.237544" lon="14.1998108"><ele>348.0</ele><time>2026-05-01T10:33:26.448Z</time></trkpt><trkpt lat="42.2375743" lon="14.1997139"><ele>348.0</ele><time>2026-05-01T10:33:31.452Z</time></trkpt><trkpt lat="42.2375465" lon="14.1996227"><ele>348.0</ele><time>2026-05-01T10:33:34.44Z</time></trkpt><trkpt lat="42.2374709" lon="14.1996044"><ele>348.0</ele><time>2026-05-01T10:33:36.444Z</time></trkpt><trkpt lat="42.2373989" lon="14.1996066"><ele>348.0</ele><time>2026-05-01T10:33:50.447Z</time></trkpt><trkpt lat="42.2373139" lon="14.1995896"><ele>348.0</ele><time>2026-05-01T10:33:58.447Z</time></trkpt><trkpt lat="42.2372363" lon="14.1995651"><ele>348.0</ele><time>2026-05-01T10:34:43.446Z</time></trkpt><trkpt lat="42.2371531" lon="14.199538"><ele>348.0</ele><time>2026-05-01T10:34:45.447Z</time></trkpt><trkpt lat="42.2370466" lon="14.1995069"><ele>348.0</ele><time>2026-05-01T10:34:47.45Z</time></trkpt><trkpt lat="42.2369426" lon="14.1994775"><ele>343.79999999999995</ele><time>2026-05-01T10:34:49.453Z</time></trkpt><trkpt lat="42.2368357" lon="14.1994304"><ele>339.6</ele><time>2026-05-01T10:34:51.455Z</time></trkpt><trkpt lat="42.2367202" lon="14.1993776"><ele>335.4</ele><time>2026-05-01T10:34:53.458Z</time></trkpt><trkpt lat="42.2366161" lon="14.1993278"><ele>331.20000000000005</ele><time>2026-05-01T10:34:55.452Z</time></trkpt><trkpt lat="42.2365215" lon="14.1992895"><ele>327.0</ele><time>2026-05-01T10:34:57.452Z</time></trkpt><trkpt lat="42.2364103" lon="14.1992537"><ele>323.0</ele><time>2026-05-01T10:34:59.458Z</time></trkpt><trkpt lat="42.2363197" lon="14.1992071"><ele>319.0</ele><time>2026-05-01T10:35:01.465Z</time></trkpt><trkpt lat="42.2362166" lon="14.1991863"><ele>315.0</ele><time>2026-05-01T10:35:03.447Z</time></trkpt><trkpt lat="42.236139" lon="14.1992348"><ele>311.0</ele><time>2026-05-01T10:35:05.45Z</time></trkpt><trkpt lat="42.2360988" lon="14.1993449"><ele>307.0</ele><time>2026-05-01T10:35:07.447Z</time></trkpt><trkpt lat="42.2360788" lon="14.1994331"><ele>303.0</ele><time>2026-05-01T10:35:08.446Z</time></trkpt><trkpt lat="42.2360549" lon="14.1995291"><ele>303.0</ele><time>2026-05-01T10:35:09.455Z</time></trkpt><trkpt lat="42.2360281" lon="14.1996194"><ele>303.0</ele><time>2026-05-01T10:35:10.446Z</time></trkpt><trkpt lat="42.2359859" lon="14.1997589"><ele>303.0</ele><time>2026-05-01T10:35:12.45Z</time></trkpt><trkpt lat="42.2359568" lon="14.1998702"><ele>303.0</ele><time>2026-05-01T10:35:14.451Z</time></trkpt><trkpt lat="42.235928" lon="14.2000076"><ele>303.0</ele><time>2026-05-01T10:35:16.443Z</time></trkpt><trkpt lat="42.2358754" lon="14.2001069"><ele>303.1666666666667</ele><time>2026-05-01T10:35:18.443Z</time></trkpt><trkpt lat="42.2358105" lon="14.2001239"><ele>303.3333333333333</ele><time>2026-05-01T10:35:20.444Z</time></trkpt><trkpt lat="42.2357005" lon="14.2000866"><ele>303.5</ele><time>2026-05-01T10:35:22.44Z</time></trkpt><trkpt lat="42.2356313" lon="14.2000518"><ele>303.66666666666663</ele><time>2026-05-01T10:35:23.443Z</time></trkpt><trkpt lat="42.2355688" lon="14.2000139"><ele>303.8333333333333</ele><time>2026-05-01T10:35:24.438Z</time></trkpt><trkpt lat="42.2355107" lon="14.1999608"><ele>304.0</ele><time>2026-05-01T10:35:25.442Z</time></trkpt><trkpt lat="42.2354523" lon="14.199917"><ele>300.8</ele><time>2026-05-01T10:35:26.437Z</time></trkpt><trkpt lat="42.2353931" lon="14.1998736"><ele>297.59999999999997</ele><time>2026-05-01T10:35:27.45Z</time></trkpt><trkpt lat="42.2353301" lon="14.1998299"><ele>294.4</ele><time>2026-05-01T10:35:28.442Z</time></trkpt><trkpt lat="42.2352158" lon="14.1997647"><ele>291.2</ele><time>2026-05-01T10:35:30.444Z</time></trkpt><trkpt lat="42.2351159" lon="14.199684"><ele>288.0</ele><time>2026-05-01T10:35:32.439Z</time></trkpt><trkpt lat="42.2350501" lon="14.1996213"><ele>287.8333333333333</ele><time>2026-05-01T10:35:33.438Z</time></trkpt><trkpt lat="42.2349754" lon="14.1995512"><ele>287.6666666666667</ele><time>2026-05-01T10:35:34.434Z</time></trkpt><trkpt lat="42.234902" lon="14.1994636"><ele>287.5</ele><time>2026-05-01T10:35:35.442Z</time></trkpt><trkpt lat="42.2348369" lon="14.1993931"><ele>287.33333333333337</ele><time>2026-05-01T10:35:36.439Z</time></trkpt><trkpt lat="42.2347746" lon="14.1993324"><ele>287.1666666666667</ele><time>2026-05-01T10:35:37.439Z</time></trkpt><trkpt lat="42.2347186" lon="14.1992758"><ele>287.0</ele><time>2026-05-01T10:35:38.44Z</time></trkpt><trkpt lat="42.2346695" lon="14.1992191"><ele>285.0</ele><time>2026-05-01T10:35:39.443Z</time></trkpt><trkpt lat="42.234577" lon="14.1991111"><ele>283.0</ele><time>2026-05-01T10:35:41.445Z</time></trkpt><trkpt lat="42.2345018" lon="14.1989752"><ele>281.0</ele><time>2026-05-01T10:35:43.448Z</time></trkpt><trkpt lat="42.2344397" lon="14.1988638"><ele>279.0</ele><time>2026-05-01T10:35:45.448Z</time></trkpt><trkpt lat="42.2343329" lon="14.1987646"><ele>278.2</ele><time>2026-05-01T10:35:47.446Z</time></trkpt><trkpt lat="42.2342587" lon="14.1987232"><ele>277.4</ele><time>2026-05-01T10:35:48.445Z</time></trkpt><trkpt lat="42.2341943" lon="14.1986795"><ele>276.6</ele><time>2026-05-01T10:35:49.441Z</time></trkpt><trkpt lat="42.2340955" lon="14.1985877"><ele>275.8</ele><time>2026-05-01T10:35:51.444Z</time></trkpt><trkpt lat="42.2340197" lon="14.1984731"><ele>275.0</ele><time>2026-05-01T10:35:53.448Z</time></trkpt><trkpt lat="42.2339516" lon="14.198361"><ele>274.0</ele><time>2026-05-01T10:35:55.44Z</time></trkpt><trkpt lat="42.2338557" lon="14.1983391"><ele>273.0</ele><time>2026-05-01T10:35:57.443Z</time></trkpt><trkpt lat="42.2337812" lon="14.1984198"><ele>272.0</ele><time>2026-05-01T10:35:59.446Z</time></trkpt><trkpt lat="42.2336959" lon="14.198489"><ele>271.0</ele><time>2026-05-01T10:36:01.447Z</time></trkpt><trkpt lat="42.2336191" lon="14.1985068"><ele>270.0</ele><time>2026-05-01T10:36:03.439Z</time></trkpt><trkpt lat="42.2335371" lon="14.1984797"><ele>270.0</ele><time>2026-05-01T10:36:05.445Z</time></trkpt><trkpt lat="42.2334796" lon="14.198426"><ele>270.0</ele><time>2026-05-01T10:36:06.446Z</time></trkpt><trkpt lat="42.2334208" lon="14.1983644"><ele>270.0</ele><time>2026-05-01T10:36:07.443Z</time></trkpt><trkpt lat="42.2333581" lon="14.1983007"><ele>270.0</ele><time>2026-05-01T10:36:08.445Z</time></trkpt><trkpt lat="42.2333065" lon="14.1982448"><ele>270.0</ele><time>2026-05-01T10:36:09.441Z</time></trkpt><trkpt lat="42.2332481" lon="14.1981111"><ele>270.0</ele><time>2026-05-01T10:36:11.437Z</time></trkpt><trkpt lat="42.2331967" lon="14.1979621"><ele>269.5</ele><time>2026-05-01T10:36:13.437Z</time></trkpt><trkpt lat="42.2331515" lon="14.1978577"><ele>269.0</ele><time>2026-05-01T10:36:15.437Z</time></trkpt><trkpt lat="42.2330907" lon="14.1977752"><ele>268.5</ele><time>2026-05-01T10:36:21.449Z</time></trkpt><trkpt lat="42.233025" lon="14.1977144"><ele>268.0</ele><time>2026-05-01T10:36:24.45Z</time></trkpt><trkpt lat="42.2329654" lon="14.197682"><ele>267.5</ele><time>2026-05-01T10:36:26.447Z</time></trkpt><trkpt lat="42.2329798" lon="14.1975871"><ele>267.0</ele><time>2026-05-01T10:36:28.455Z</time></trkpt><trkpt lat="42.2330104" lon="14.1974599"><ele>267.0</ele><time>2026-05-01T10:36:30.447Z</time></trkpt><trkpt lat="42.2330234" lon="14.1973501"><ele>267.0</ele><time>2026-05-01T10:36:32.452Z</time></trkpt><trkpt lat="42.233003" lon="14.1972065"><ele>267.0</ele><time>2026-05-01T10:36:34.444Z</time></trkpt><trkpt lat="42.2329736" lon="14.1970523"><ele>267.0</ele><time>2026-05-01T10:36:36.452Z</time></trkpt><trkpt lat="42.2329631" lon="14.1969522"><ele>267.0</ele><time>2026-05-01T10:36:38.449Z</time></trkpt><trkpt lat="42.2329335" lon="14.1968213"><ele>267.5</ele><time>2026-05-01T10:36:40.451Z</time></trkpt><trkpt lat="42.2329157" lon="14.1967383"><ele>268.0</ele><time>2026-05-01T10:36:41.454Z</time></trkpt><trkpt lat="42.2328937" lon="14.1966551"><ele>268.5</ele><time>2026-05-01T10:36:42.452Z</time></trkpt><trkpt lat="42.2328723" lon="14.1965597"><ele>269.0</ele><time>2026-05-01T10:36:43.448Z</time></trkpt><trkpt lat="42.2328641" lon="14.1964426"><ele>269.5</ele><time>2026-05-01T10:36:44.442Z</time></trkpt><trkpt lat="42.232853" lon="14.1963118"><ele>270.0</ele><time>2026-05-01T10:36:45.438Z</time></trkpt><trkpt lat="42.2328317" lon="14.1961846"><ele>270.1666666666667</ele><time>2026-05-01T10:36:46.446Z</time></trkpt><trkpt lat="42.232799" lon="14.1960785"><ele>270.3333333333333</ele><time>2026-05-01T10:36:47.44Z</time></trkpt><trkpt lat="42.2327366" lon="14.1959926"><ele>270.5</ele><time>2026-05-01T10:36:48.443Z</time></trkpt><trkpt lat="42.2326748" lon="14.1959381"><ele>270.66666666666663</ele><time>2026-05-01T10:36:49.452Z</time></trkpt><trkpt lat="42.2326012" lon="14.195916"><ele>270.8333333333333</ele><time>2026-05-01T10:36:50.444Z</time></trkpt><trkpt lat="42.2325108" lon="14.1959222"><ele>271.0</ele><time>2026-05-01T10:36:51.44Z</time></trkpt><trkpt lat="42.2324089" lon="14.195952"><ele>271.0</ele><time>2026-05-01T10:36:52.444Z</time></trkpt><trkpt lat="42.2323066" lon="14.1959836"><ele>271.0</ele><time>2026-05-01T10:36:53.452Z</time></trkpt><trkpt lat="42.2321967" lon="14.196018"><ele>271.0</ele><time>2026-05-01T10:36:54.449Z</time></trkpt><trkpt lat="42.2320867" lon="14.1960426"><ele>271.0</ele><time>2026-05-01T10:36:55.45Z</time></trkpt><trkpt lat="42.2319809" lon="14.1960543"><ele>271.0</ele><time>2026-05-01T10:36:56.455Z</time></trkpt><trkpt lat="42.2318793" lon="14.1960652"><ele>271.6</ele><time>2026-05-01T10:36:57.459Z</time></trkpt><trkpt lat="42.2317707" lon="14.1960743"><ele>272.20000000000005</ele><time>2026-05-01T10:36:58.456Z</time></trkpt><trkpt lat="42.2316624" lon="14.1960847"><ele>272.79999999999995</ele><time>2026-05-01T10:36:59.463Z</time></trkpt><trkpt lat="42.2315501" lon="14.196088"><ele>273.4</ele><time>2026-05-01T10:37:00.458Z</time></trkpt><trkpt lat="42.2314494" lon="14.1960849"><ele>274.0</ele><time>2026-05-01T10:37:01.459Z</time></trkpt><trkpt lat="42.2313535" lon="14.1960792"><ele>274.4</ele><time>2026-05-01T10:37:02.453Z</time></trkpt><trkpt lat="42.2312585" lon="14.196076"><ele>274.79999999999995</ele><time>2026-05-01T10:37:03.457Z</time></trkpt><trkpt lat="42.2311636" lon="14.1960755"><ele>275.20000000000005</ele><time>2026-05-01T10:37:04.45Z</time></trkpt><trkpt lat="42.2310699" lon="14.1960663"><ele>275.6</ele><time>2026-05-01T10:37:05.455Z</time></trkpt><trkpt lat="42.2309771" lon="14.1960476"><ele>276.0</ele><time>2026-05-01T10:37:06.447Z</time></trkpt><trkpt lat="42.2308877" lon="14.1960272"><ele>276.0</ele><time>2026-05-01T10:37:07.45Z</time></trkpt><trkpt lat="42.230801" lon="14.1960044"><ele>276.0</ele><time>2026-05-01T10:37:08.442Z</time></trkpt><trkpt lat="42.230711" lon="14.195974"><ele>276.0</ele><time>2026-05-01T10:37:09.452Z</time></trkpt><trkpt lat="42.2306145" lon="14.1959345"><ele>276.0</ele><time>2026-05-01T10:37:10.448Z</time></trkpt><trkpt lat="42.2305171" lon="14.1958856"><ele>276.0</ele><time>2026-05-01T10:37:11.45Z</time></trkpt><trkpt lat="42.2304292" lon="14.195827"><ele>276.0</ele><time>2026-05-01T10:37:12.451Z</time></trkpt><trkpt lat="42.2303505" lon="14.1957502"><ele>276.0</ele><time>2026-05-01T10:37:13.451Z</time></trkpt><trkpt lat="42.230272" lon="14.1956538"><ele>276.0</ele><time>2026-05-01T10:37:14.454Z</time></trkpt><trkpt lat="42.2301968" lon="14.1955787"><ele>276.0</ele><time>2026-05-01T10:37:15.445Z</time></trkpt><trkpt lat="42.2301146" lon="14.1955201"><ele>276.0</ele><time>2026-05-01T10:37:16.45Z</time></trkpt><trkpt lat="42.2300236" lon="14.1954773"><ele>276.8333333333333</ele><time>2026-05-01T10:37:17.456Z</time></trkpt><trkpt lat="42.2299264" lon="14.1954524"><ele>277.6666666666667</ele><time>2026-05-01T10:37:18.451Z</time></trkpt><trkpt lat="42.229836" lon="14.1954267"><ele>278.5</ele><time>2026-05-01T10:37:19.448Z</time></trkpt><trkpt lat="42.2297716" lon="14.1953933"><ele>279.33333333333337</ele><time>2026-05-01T10:37:20.443Z</time></trkpt><trkpt lat="42.2297085" lon="14.1953465"><ele>280.1666666666667</ele><time>2026-05-01T10:37:21.451Z</time></trkpt><trkpt lat="42.2296577" lon="14.1952677"><ele>281.0</ele><time>2026-05-01T10:37:22.449Z</time></trkpt><trkpt lat="42.2296134" lon="14.1951289"><ele>281.0</ele><time>2026-05-01T10:37:23.443Z</time></trkpt><trkpt lat="42.2295592" lon="14.1949696"><ele>281.0</ele><time>2026-05-01T10:37:24.452Z</time></trkpt><trkpt lat="42.2294978" lon="14.1948342"><ele>281.0</ele><time>2026-05-01T10:37:25.449Z</time></trkpt><trkpt lat="42.2294347" lon="14.1946949"><ele>281.0</ele><time>2026-05-01T10:37:26.446Z</time></trkpt><trkpt lat="42.2293603" lon="14.1945539"><ele>282.5</ele><time>2026-05-01T10:37:27.455Z</time></trkpt><trkpt lat="42.2292863" lon="14.1944119"><ele>284.0</ele><time>2026-05-01T10:37:28.446Z</time></trkpt><trkpt lat="42.2292132" lon="14.1942862"><ele>285.5</ele><time>2026-05-01T10:37:29.448Z</time></trkpt><trkpt lat="42.2291342" lon="14.1941647"><ele>287.0</ele><time>2026-05-01T10:37:30.443Z</time></trkpt><trkpt lat="42.2290473" lon="14.1940525"><ele>288.8</ele><time>2026-05-01T10:37:31.456Z</time></trkpt><trkpt lat="42.2289668" lon="14.1939534"><ele>290.6</ele><time>2026-05-01T10:37:32.449Z</time></trkpt><trkpt lat="42.2288899" lon="14.1938594"><ele>292.40000000000003</ele><time>2026-05-01T10:37:33.45Z</time></trkpt><trkpt lat="42.2288102" lon="14.1937866"><ele>294.2</ele><time>2026-05-01T10:37:34.448Z</time></trkpt><trkpt lat="42.2287357" lon="14.19372"><ele>296.0</ele><time>2026-05-01T10:37:35.444Z</time></trkpt><trkpt lat="42.2286604" lon="14.1936753"><ele>296.0</ele><time>2026-05-01T10:37:36.441Z</time></trkpt><trkpt lat="42.2285944" lon="14.1936713"><ele>296.0</ele><time>2026-05-01T10:37:37.445Z</time></trkpt><trkpt lat="42.2284635" lon="14.1936845"><ele>296.0</ele><time>2026-05-01T10:37:39.441Z</time></trkpt><trkpt lat="42.2283896" lon="14.1936748"><ele>296.0</ele><time>2026-05-01T10:37:40.442Z</time></trkpt><trkpt lat="42.228294" lon="14.1936497"><ele>296.0</ele><time>2026-05-01T10:37:41.441Z</time></trkpt><trkpt lat="42.2282028" lon="14.1936097"><ele>295.0</ele><time>2026-05-01T10:37:42.444Z</time></trkpt><trkpt lat="42.2281203" lon="14.1935433"><ele>294.0</ele><time>2026-05-01T10:37:43.445Z</time></trkpt><trkpt lat="42.2280482" lon="14.1934524"><ele>293.0</ele><time>2026-05-01T10:37:44.451Z</time></trkpt><trkpt lat="42.2279812" lon="14.1933522"><ele>292.0</ele><time>2026-05-01T10:37:45.448Z</time></trkpt><trkpt lat="42.2279021" lon="14.1932533"><ele>291.0</ele><time>2026-05-01T10:37:46.444Z</time></trkpt><trkpt lat="42.2278165" lon="14.193158"><ele>293.0</ele><time>2026-05-01T10:37:47.45Z</time></trkpt><trkpt lat="42.2277329" lon="14.1930765"><ele>295.0</ele><time>2026-05-01T10:37:48.457Z</time></trkpt><trkpt lat="42.2276395" lon="14.1929962"><ele>297.0</ele><time>2026-05-01T10:37:49.456Z</time></trkpt><trkpt lat="42.227547" lon="14.1929262"><ele>299.0</ele><time>2026-05-01T10:37:50.456Z</time></trkpt><trkpt lat="42.2274565" lon="14.1928434"><ele>301.0</ele><time>2026-05-01T10:37:51.459Z</time></trkpt><trkpt lat="42.2273694" lon="14.1927653"><ele>300.8</ele><time>2026-05-01T10:37:52.458Z</time></trkpt><trkpt lat="42.2272867" lon="14.1926902"><ele>300.6</ele><time>2026-05-01T10:37:53.46Z</time></trkpt><trkpt lat="42.2272065" lon="14.1926206"><ele>300.4</ele><time>2026-05-01T10:37:54.456Z</time></trkpt><trkpt lat="42.2271227" lon="14.19256"><ele>300.2</ele><time>2026-05-01T10:37:55.451Z</time></trkpt><trkpt lat="42.2270392" lon="14.1925243"><ele>300.0</ele><time>2026-05-01T10:37:56.458Z</time></trkpt><trkpt lat="42.2269456" lon="14.1924997"><ele>300.0</ele><time>2026-05-01T10:37:57.458Z</time></trkpt><trkpt lat="42.2268426" lon="14.1924803"><ele>300.0</ele><time>2026-05-01T10:37:58.454Z</time></trkpt><trkpt lat="42.2267345" lon="14.1924718"><ele>300.0</ele><time>2026-05-01T10:37:59.455Z</time></trkpt><trkpt lat="42.2266278" lon="14.1924669"><ele>300.0</ele><time>2026-05-01T10:38:00.448Z</time></trkpt><trkpt lat="42.2265132" lon="14.1924654"><ele>300.0</ele><time>2026-05-01T10:38:01.464Z</time></trkpt><trkpt lat="42.2264067" lon="14.1924723"><ele>300.4</ele><time>2026-05-01T10:38:02.448Z</time></trkpt><trkpt lat="42.22631" lon="14.1924808"><ele>300.8</ele><time>2026-05-01T10:38:03.456Z</time></trkpt><trkpt lat="42.2262142" lon="14.1925047"><ele>301.2</ele><time>2026-05-01T10:38:04.452Z</time></trkpt><trkpt lat="42.2261122" lon="14.1925396"><ele>301.6</ele><time>2026-05-01T10:38:05.453Z</time></trkpt><trkpt lat="42.2259986" lon="14.1925905"><ele>302.0</ele><time>2026-05-01T10:38:06.449Z</time></trkpt><trkpt lat="42.2258798" lon="14.1926376"><ele>302.0</ele><time>2026-05-01T10:38:07.449Z</time></trkpt><trkpt lat="42.2257661" lon="14.192684"><ele>302.0</ele><time>2026-05-01T10:38:08.454Z</time></trkpt><trkpt lat="42.2256522" lon="14.1927345"><ele>302.0</ele><time>2026-05-01T10:38:09.446Z</time></trkpt><trkpt lat="42.2255345" lon="14.1927749"><ele>302.0</ele><time>2026-05-01T10:38:10.451Z</time></trkpt><trkpt lat="42.2254142" lon="14.1928073"><ele>302.6</ele><time>2026-05-01T10:38:11.449Z</time></trkpt><trkpt lat="42.2252903" lon="14.1928281"><ele>303.2</ele><time>2026-05-01T10:38:12.445Z</time></trkpt><trkpt lat="42.2251737" lon="14.1928253"><ele>303.8</ele><time>2026-05-01T10:38:13.445Z</time></trkpt><trkpt lat="42.2250777" lon="14.1928169"><ele>304.4</ele><time>2026-05-01T10:38:14.448Z</time></trkpt><trkpt lat="42.2249868" lon="14.1928148"><ele>305.0</ele><time>2026-05-01T10:38:15.449Z</time></trkpt><trkpt lat="42.2248872" lon="14.1928224"><ele>305.4</ele><time>2026-05-01T10:38:16.455Z</time></trkpt><trkpt lat="42.2247836" lon="14.1928379"><ele>305.8</ele><time>2026-05-01T10:38:17.448Z</time></trkpt><trkpt lat="42.2246883" lon="14.1928417"><ele>306.2</ele><time>2026-05-01T10:38:18.454Z</time></trkpt><trkpt lat="42.2245854" lon="14.1928477"><ele>306.6</ele><time>2026-05-01T10:38:19.452Z</time></trkpt><trkpt lat="42.2244755" lon="14.1928626"><ele>307.0</ele><time>2026-05-01T10:38:20.444Z</time></trkpt><trkpt lat="42.22437" lon="14.1928671"><ele>307.0</ele><time>2026-05-01T10:38:21.454Z</time></trkpt><trkpt lat="42.2242773" lon="14.1928576"><ele>307.0</ele><time>2026-05-01T10:38:22.456Z</time></trkpt><trkpt lat="42.2241885" lon="14.1928358"><ele>307.0</ele><time>2026-05-01T10:38:23.465Z</time></trkpt><trkpt lat="42.2240977" lon="14.1927971"><ele>307.0</ele><time>2026-05-01T10:38:24.455Z</time></trkpt><trkpt lat="42.2240209" lon="14.1927318"><ele>307.0</ele><time>2026-05-01T10:38:25.45Z</time></trkpt><trkpt lat="42.2239484" lon="14.1926544"><ele>307.8333333333333</ele><time>2026-05-01T10:38:26.458Z</time></trkpt><trkpt lat="42.2238826" lon="14.1925729"><ele>308.66666666666663</ele><time>2026-05-01T10:38:27.456Z</time></trkpt><trkpt lat="42.2238131" lon="14.192501"><ele>309.5</ele><time>2026-05-01T10:38:28.454Z</time></trkpt><trkpt lat="42.2237558" lon="14.1924466"><ele>310.3333333333333</ele><time>2026-05-01T10:38:29.458Z</time></trkpt><trkpt lat="42.2236925" lon="14.192404"><ele>311.1666666666667</ele><time>2026-05-01T10:38:30.445Z</time></trkpt><trkpt lat="42.2235802" lon="14.1923766"><ele>312.0</ele><time>2026-05-01T10:38:32.444Z</time></trkpt><trkpt lat="42.223469" lon="14.1924216"><ele>312.0</ele><time>2026-05-01T10:38:34.454Z</time></trkpt><trkpt lat="42.2234058" lon="14.1924558"><ele>312.0</ele><time>2026-05-01T10:38:35.454Z</time></trkpt><trkpt lat="42.2233395" lon="14.1924961"><ele>312.0</ele><time>2026-05-01T10:38:36.449Z</time></trkpt><trkpt lat="42.2232589" lon="14.1925271"><ele>312.0</ele><time>2026-05-01T10:38:37.453Z</time></trkpt><trkpt lat="42.2231631" lon="14.1925573"><ele>312.0</ele><time>2026-05-01T10:38:38.449Z</time></trkpt><trkpt lat="42.2230619" lon="14.1925949"><ele>312.0</ele><time>2026-05-01T10:38:39.452Z</time></trkpt><trkpt lat="42.2229435" lon="14.1926276"><ele>312.5</ele><time>2026-05-01T10:38:40.457Z</time></trkpt><trkpt lat="42.2228217" lon="14.1926563"><ele>313.0</ele><time>2026-05-01T10:38:41.452Z</time></trkpt><trkpt lat="42.2227077" lon="14.1926735"><ele>313.5</ele><time>2026-05-01T10:38:42.454Z</time></trkpt><trkpt lat="42.2225974" lon="14.1926878"><ele>314.0</ele><time>2026-05-01T10:38:43.458Z</time></trkpt><trkpt lat="42.2224883" lon="14.1926982"><ele>314.0</ele><time>2026-05-01T10:38:44.451Z</time></trkpt><trkpt lat="42.2223818" lon="14.192705"><ele>314.0</ele><time>2026-05-01T10:38:45.448Z</time></trkpt><trkpt lat="42.2222859" lon="14.1926943"><ele>314.0</ele><time>2026-05-01T10:38:46.458Z</time></trkpt><trkpt lat="42.2221796" lon="14.1926722"><ele>314.0</ele><time>2026-05-01T10:38:47.442Z</time></trkpt><trkpt lat="42.2220686" lon="14.1926173"><ele>314.0</ele><time>2026-05-01T10:38:48.448Z</time></trkpt><trkpt lat="42.2219474" lon="14.1925668"><ele>315.0</ele><time>2026-05-01T10:38:49.449Z</time></trkpt><trkpt lat="42.2218234" lon="14.1925161"><ele>316.0</ele><time>2026-05-01T10:38:50.445Z</time></trkpt><trkpt lat="42.2217051" lon="14.192465"><ele>317.0</ele><time>2026-05-01T10:38:51.454Z</time></trkpt><trkpt lat="42.2215949" lon="14.192427"><ele>318.0</ele><time>2026-05-01T10:38:52.451Z</time></trkpt><trkpt lat="42.221499" lon="14.1923801"><ele>319.4</ele><time>2026-05-01T10:38:53.454Z</time></trkpt><trkpt lat="42.2214143" lon="14.1923072"><ele>320.8</ele><time>2026-05-01T10:38:54.452Z</time></trkpt><trkpt lat="42.2213229" lon="14.1922257"><ele>322.2</ele><time>2026-05-01T10:38:55.451Z</time></trkpt><trkpt lat="42.22124" lon="14.1921589"><ele>323.6</ele><time>2026-05-01T10:38:56.445Z</time></trkpt><trkpt lat="42.2211688" lon="14.1921034"><ele>325.0</ele><time>2026-05-01T10:38:57.445Z</time></trkpt><trkpt lat="42.2211105" lon="14.1920566"><ele>325.0</ele><time>2026-05-01T10:38:58.45Z</time></trkpt><trkpt lat="42.2210388" lon="14.192044"><ele>325.0</ele><time>2026-05-01T10:39:00.45Z</time></trkpt><trkpt lat="42.2210755" lon="14.1921611"><ele>325.0</ele><time>2026-05-01T10:39:02.447Z</time></trkpt><trkpt lat="42.2211359" lon="14.1922274"><ele>325.0</ele><time>2026-05-01T10:39:03.445Z</time></trkpt><trkpt lat="42.2212294" lon="14.1923121"><ele>325.0</ele><time>2026-05-01T10:39:04.451Z</time></trkpt><trkpt lat="42.2213334" lon="14.1924085"><ele>324.66666666666663</ele><time>2026-05-01T10:39:05.452Z</time></trkpt><trkpt lat="42.2214453" lon="14.1925419"><ele>324.3333333333333</ele><time>2026-05-01T10:39:06.452Z</time></trkpt><trkpt lat="42.221566" lon="14.1926817"><ele>324.0</ele><time>2026-05-01T10:39:07.454Z</time></trkpt><trkpt lat="42.2217476" lon="14.1928896"><ele>322.5</ele><time>2026-05-01T10:39:08.449Z</time></trkpt><trkpt lat="42.2219003" lon="14.1930539"><ele>321.0</ele><time>2026-05-01T10:39:09.454Z</time></trkpt><trkpt lat="42.2220118" lon="14.1931583"><ele>319.5</ele><time>2026-05-01T10:39:10.445Z</time></trkpt><trkpt lat="42.2221124" lon="14.1932388"><ele>318.0</ele><time>2026-05-01T10:39:11.449Z</time></trkpt><trkpt lat="42.2222276" lon="14.193316"><ele>316.4</ele><time>2026-05-01T10:39:12.451Z</time></trkpt><trkpt lat="42.2223241" lon="14.1934214"><ele>314.8</ele><time>2026-05-01T10:39:13.449Z</time></trkpt><trkpt lat="42.2224016" lon="14.1935009"><ele>313.2</ele><time>2026-05-01T10:39:14.444Z</time></trkpt><trkpt lat="42.2224969" lon="14.1935652"><ele>311.6</ele><time>2026-05-01T10:39:15.447Z</time></trkpt><trkpt lat="42.2225911" lon="14.1936266"><ele>310.0</ele><time>2026-05-01T10:39:16.454Z</time></trkpt><trkpt lat="42.22268" lon="14.1936873"><ele>310.0</ele><time>2026-05-01T10:39:17.448Z</time></trkpt><trkpt lat="42.2227648" lon="14.1937522"><ele>310.0</ele><time>2026-05-01T10:39:18.448Z</time></trkpt><trkpt lat="42.2228547" lon="14.1938173"><ele>310.0</ele><time>2026-05-01T10:39:19.454Z</time></trkpt><trkpt lat="42.2229472" lon="14.1938731"><ele>310.0</ele><time>2026-05-01T10:39:20.448Z</time></trkpt><trkpt lat="42.2230318" lon="14.1939287"><ele>310.0</ele><time>2026-05-01T10:39:21.45Z</time></trkpt><trkpt lat="42.2231128" lon="14.1939844"><ele>309.0</ele><time>2026-05-01T10:39:22.453Z</time></trkpt><trkpt lat="42.2231877" lon="14.1940305"><ele>308.0</ele><time>2026-05-01T10:39:23.454Z</time></trkpt><trkpt lat="42.2232602" lon="14.1940722"><ele>307.0</ele><time>2026-05-01T10:39:24.452Z</time></trkpt><trkpt lat="42.2233286" lon="14.1941109"><ele>306.0</ele><time>2026-05-01T10:39:25.45Z</time></trkpt><trkpt lat="42.2233995" lon="14.1941514"><ele>305.0</ele><time>2026-05-01T10:39:26.455Z</time></trkpt><trkpt lat="42.223468" lon="14.1941927"><ele>304.0</ele><time>2026-05-01T10:39:27.446Z</time></trkpt><trkpt lat="42.2235457" lon="14.1942348"><ele>304.0</ele><time>2026-05-01T10:39:28.446Z</time></trkpt><trkpt lat="42.2236215" lon="14.1942834"><ele>304.0</ele><time>2026-05-01T10:39:29.454Z</time></trkpt><trkpt lat="42.2237019" lon="14.1943334"><ele>304.0</ele><time>2026-05-01T10:39:30.449Z</time></trkpt><trkpt lat="42.2237757" lon="14.1944049"><ele>304.0</ele><time>2026-05-01T10:39:31.454Z</time></trkpt><trkpt lat="42.2238407" lon="14.19447"><ele>304.0</ele><time>2026-05-01T10:39:32.439Z</time></trkpt><trkpt lat="42.2238988" lon="14.1945389"><ele>304.0</ele><time>2026-05-01T10:39:33.449Z</time></trkpt><trkpt lat="42.223959" lon="14.19461"><ele>303.66666666666663</ele><time>2026-05-01T10:39:34.447Z</time></trkpt><trkpt lat="42.2240208" lon="14.1946813"><ele>303.3333333333333</ele><time>2026-05-01T10:39:35.444Z</time></trkpt><trkpt lat="42.2240868" lon="14.1947461"><ele>303.0</ele><time>2026-05-01T10:39:36.443Z</time></trkpt><trkpt lat="42.2241491" lon="14.1948068"><ele>302.6666666666667</ele><time>2026-05-01T10:39:37.437Z</time></trkpt><trkpt lat="42.2242143" lon="14.1948668"><ele>302.33333333333337</ele><time>2026-05-01T10:39:38.442Z</time></trkpt><trkpt lat="42.2242955" lon="14.1949244"><ele>302.0</ele><time>2026-05-01T10:39:39.444Z</time></trkpt><trkpt lat="42.2243749" lon="14.1949804"><ele>301.6666666666667</ele><time>2026-05-01T10:39:40.44Z</time></trkpt><trkpt lat="42.2244548" lon="14.1950179"><ele>301.33333333333337</ele><time>2026-05-01T10:39:41.442Z</time></trkpt><trkpt lat="42.2245348" lon="14.1950443"><ele>301.0</ele><time>2026-05-01T10:39:42.441Z</time></trkpt><trkpt lat="42.2246157" lon="14.1950642"><ele>300.6666666666667</ele><time>2026-05-01T10:39:43.44Z</time></trkpt><trkpt lat="42.2247024" lon="14.1950739"><ele>300.3333333333333</ele><time>2026-05-01T10:39:44.442Z</time></trkpt><trkpt lat="42.2248004" lon="14.1950808"><ele>300.0</ele><time>2026-05-01T10:39:45.432Z</time></trkpt><trkpt lat="42.2249021" lon="14.1950718"><ele>298.8333333333333</ele><time>2026-05-01T10:39:46.445Z</time></trkpt><trkpt lat="42.2249923" lon="14.1950668"><ele>297.6666666666667</ele><time>2026-05-01T10:39:47.44Z</time></trkpt><trkpt lat="42.2250775" lon="14.1950606"><ele>296.5</ele><time>2026-05-01T10:39:48.446Z</time></trkpt><trkpt lat="42.2251532" lon="14.1950652"><ele>295.33333333333337</ele><time>2026-05-01T10:39:49.438Z</time></trkpt><trkpt lat="42.2252258" lon="14.1950814"><ele>294.1666666666667</ele><time>2026-05-01T10:39:50.435Z</time></trkpt><trkpt lat="42.2253228" lon="14.1951269"><ele>293.0</ele><time>2026-05-01T10:39:52.443Z</time></trkpt><trkpt lat="42.2253927" lon="14.1952417"><ele>293.0</ele><time>2026-05-01T10:39:54.44Z</time></trkpt><trkpt lat="42.2254199" lon="14.1953448"><ele>293.0</ele><time>2026-05-01T10:39:55.439Z</time></trkpt><trkpt lat="42.2254311" lon="14.1954592"><ele>293.0</ele><time>2026-05-01T10:39:56.441Z</time></trkpt><trkpt lat="42.225446" lon="14.1955534"><ele>293.0</ele><time>2026-05-01T10:39:57.439Z</time></trkpt><trkpt lat="42.2255096" lon="14.1956758"><ele>293.0</ele><time>2026-05-01T10:39:59.436Z</time></trkpt><trkpt lat="42.2256188" lon="14.1957505"><ele>294.1666666666667</ele><time>2026-05-01T10:40:01.446Z</time></trkpt><trkpt lat="42.2256829" lon="14.1957787"><ele>295.33333333333337</ele><time>2026-05-01T10:40:02.439Z</time></trkpt><trkpt lat="42.2257821" lon="14.1958152"><ele>296.5</ele><time>2026-05-01T10:40:04.44Z</time></trkpt><trkpt lat="42.2258501" lon="14.1958677"><ele>297.6666666666667</ele><time>2026-05-01T10:40:06.438Z</time></trkpt><trkpt lat="42.2259046" lon="14.1959481"><ele>298.8333333333333</ele><time>2026-05-01T10:40:09.446Z</time></trkpt><trkpt lat="42.2259091" lon="14.1960563"><ele>300.0</ele><time>2026-05-01T10:40:12.445Z</time></trkpt><trkpt lat="42.2258829" lon="14.1961616"><ele>300.0</ele><time>2026-05-01T10:40:14.45Z</time></trkpt><trkpt lat="42.2258883" lon="14.1962803"><ele>300.0</ele><time>2026-05-01T10:40:16.444Z</time></trkpt><trkpt lat="42.225925" lon="14.1963729"><ele>300.0</ele><time>2026-05-01T10:40:18.441Z</time></trkpt><trkpt lat="42.2259561" lon="14.1965096"><ele>300.0</ele><time>2026-05-01T10:40:21.442Z</time></trkpt><trkpt lat="42.2259736" lon="14.1966"><ele>300.0</ele><time>2026-05-01T10:40:22.454Z</time></trkpt><trkpt lat="42.2259996" lon="14.196682"><ele>300.0</ele><time>2026-05-01T10:40:23.445Z</time></trkpt><trkpt lat="42.2260735" lon="14.1968142"><ele>300.8333333333333</ele><time>2026-05-01T10:40:25.45Z</time></trkpt><trkpt lat="42.2261265" lon="14.1968687"><ele>301.6666666666667</ele><time>2026-05-01T10:40:26.445Z</time></trkpt><trkpt lat="42.2261973" lon="14.1969214"><ele>302.5</ele><time>2026-05-01T10:40:27.448Z</time></trkpt><trkpt lat="42.2262737" lon="14.1969719"><ele>303.33333333333337</ele><time>2026-05-01T10:40:28.448Z</time></trkpt><trkpt lat="42.2263384" lon="14.1970158"><ele>304.1666666666667</ele><time>2026-05-01T10:40:29.454Z</time></trkpt><trkpt lat="42.2263973" lon="14.1970583"><ele>305.0</ele><time>2026-05-01T10:40:30.445Z</time></trkpt><trkpt lat="42.226499" lon="14.1971412"><ele>305.0</ele><time>2026-05-01T10:40:32.444Z</time></trkpt><trkpt lat="42.2265837" lon="14.1972417"><ele>305.0</ele><time>2026-05-01T10:40:34.441Z</time></trkpt><trkpt lat="42.2266312" lon="14.1973005"><ele>305.0</ele><time>2026-05-01T10:40:35.453Z</time></trkpt><trkpt lat="42.2266778" lon="14.1973728"><ele>305.0</ele><time>2026-05-01T10:40:36.451Z</time></trkpt><trkpt lat="42.2267239" lon="14.1974381"><ele>305.0</ele><time>2026-05-01T10:40:37.451Z</time></trkpt><trkpt lat="42.2267787" lon="14.1974956"><ele>305.0</ele><time>2026-05-01T10:40:38.457Z</time></trkpt><trkpt lat="42.2268394" lon="14.1975508"><ele>306.83333333333337</ele><time>2026-05-01T10:40:39.45Z</time></trkpt><trkpt lat="42.2269032" lon="14.1976053"><ele>308.6666666666667</ele><time>2026-05-01T10:40:40.44Z</time></trkpt><trkpt lat="42.226967" lon="14.1976603"><ele>310.5</ele><time>2026-05-01T10:40:41.449Z</time></trkpt><trkpt lat="42.2270338" lon="14.1977167"><ele>312.3333333333333</ele><time>2026-05-01T10:40:42.446Z</time></trkpt><trkpt lat="42.2270988" lon="14.1977737"><ele>314.16666666666663</ele><time>2026-05-01T10:40:43.452Z</time></trkpt><trkpt lat="42.2271623" lon="14.197838"><ele>316.0</ele><time>2026-05-01T10:40:44.45Z</time></trkpt><trkpt lat="42.2272218" lon="14.1979022"><ele>316.00000000000006</ele><time>2026-05-01T10:40:45.452Z</time></trkpt><trkpt lat="42.2272763" lon="14.1979616"><ele>316.0</ele><time>2026-05-01T10:40:46.445Z</time></trkpt><trkpt lat="42.2273208" lon="14.1980278"><ele>316.0</ele><time>2026-05-01T10:40:47.455Z</time></trkpt><trkpt lat="42.2273552" lon="14.1981066"><ele>316.0</ele><time>2026-05-01T10:40:48.449Z</time></trkpt><trkpt lat="42.2273875" lon="14.1982028"><ele>316.0</ele><time>2026-05-01T10:40:49.449Z</time></trkpt><trkpt lat="42.2274143" lon="14.1983081"><ele>316.00000000000006</ele><time>2026-05-01T10:40:50.451Z</time></trkpt><trkpt lat="42.227439" lon="14.1984163"><ele>316.0</ele><time>2026-05-01T10:40:51.454Z</time></trkpt><trkpt lat="42.2274643" lon="14.1985273"><ele>315.8333333333333</ele><time>2026-05-01T10:40:52.449Z</time></trkpt><trkpt lat="42.2274814" lon="14.1986351"><ele>315.66666666666663</ele><time>2026-05-01T10:40:53.451Z</time></trkpt><trkpt lat="42.2274911" lon="14.1987359"><ele>315.5</ele><time>2026-05-01T10:40:54.439Z</time></trkpt><trkpt lat="42.2274913" lon="14.1988297"><ele>315.3333333333333</ele><time>2026-05-01T10:40:55.443Z</time></trkpt><trkpt lat="42.2274864" lon="14.1989191"><ele>315.1666666666667</ele><time>2026-05-01T10:40:56.446Z</time></trkpt><trkpt lat="42.2274645" lon="14.1990628"><ele>315.0</ele><time>2026-05-01T10:40:58.447Z</time></trkpt><trkpt lat="42.2274525" lon="14.1991972"><ele>314.2</ele><time>2026-05-01T10:41:00.452Z</time></trkpt><trkpt lat="42.2274829" lon="14.1993191"><ele>313.4</ele><time>2026-05-01T10:41:02.446Z</time></trkpt><trkpt lat="42.2275355" lon="14.1994307"><ele>312.6</ele><time>2026-05-01T10:41:04.454Z</time></trkpt><trkpt lat="42.2275826" lon="14.1995359"><ele>311.8</ele><time>2026-05-01T10:41:06.446Z</time></trkpt><trkpt lat="42.2276294" lon="14.1996637"><ele>311.0</ele><time>2026-05-01T10:41:08.45Z</time></trkpt><trkpt lat="42.2276712" lon="14.1997602"><ele>310.6666666666667</ele><time>2026-05-01T10:41:10.446Z</time></trkpt><trkpt lat="42.2276658" lon="14.1998744"><ele>310.33333333333337</ele><time>2026-05-01T10:41:12.448Z</time></trkpt><trkpt lat="42.2276262" lon="14.2000081"><ele>310.0</ele><time>2026-05-01T10:41:14.443Z</time></trkpt><trkpt lat="42.2275994" lon="14.2000926"><ele>309.6666666666667</ele><time>2026-05-01T10:41:15.439Z</time></trkpt><trkpt lat="42.2275646" lon="14.2002018"><ele>309.3333333333333</ele><time>2026-05-01T10:41:16.441Z</time></trkpt><trkpt lat="42.2275264" lon="14.200316"><ele>309.0</ele><time>2026-05-01T10:41:17.443Z</time></trkpt><trkpt lat="42.2274919" lon="14.2004201"><ele>309.0</ele><time>2026-05-01T10:41:18.44Z</time></trkpt><trkpt lat="42.2274588" lon="14.2005181"><ele>309.0</ele><time>2026-05-01T10:41:19.441Z</time></trkpt><trkpt lat="42.227415" lon="14.2006136"><ele>309.0</ele><time>2026-05-01T10:41:20.441Z</time></trkpt><trkpt lat="42.2273601" lon="14.200716"><ele>309.0</ele><time>2026-05-01T10:41:21.433Z</time></trkpt><trkpt lat="42.2273119" lon="14.2007894"><ele>309.0</ele><time>2026-05-01T10:41:22.448Z</time></trkpt><trkpt lat="42.2272635" lon="14.2008445"><ele>309.0</ele><time>2026-05-01T10:41:23.44Z</time></trkpt><trkpt lat="42.227212" lon="14.2009697"><ele>308.2</ele><time>2026-05-01T10:41:25.443Z</time></trkpt><trkpt lat="42.2272483" lon="14.2010699"><ele>307.4</ele><time>2026-05-01T10:41:28.441Z</time></trkpt><trkpt lat="42.2273213" lon="14.2011142"><ele>306.6</ele><time>2026-05-01T10:41:30.425Z</time></trkpt><trkpt lat="42.2274452" lon="14.2011988"><ele>305.8</ele><time>2026-05-01T10:41:32.421Z</time></trkpt><trkpt lat="42.2275341" lon="14.2012373"><ele>305.0</ele><time>2026-05-01T10:41:33.433Z</time></trkpt><trkpt lat="42.2275285" lon="14.2013431"><ele>305.0</ele><time>2026-05-01T10:41:37.441Z</time></trkpt><trkpt lat="42.2274276" lon="14.2014651"><ele>305.0</ele><time>2026-05-01T10:41:39.442Z</time></trkpt><trkpt lat="42.2273569" lon="14.2015624"><ele>305.0</ele><time>2026-05-01T10:41:40.44Z</time></trkpt><trkpt lat="42.2272925" lon="14.2016536"><ele>305.0</ele><time>2026-05-01T10:41:41.445Z</time></trkpt><trkpt lat="42.227223" lon="14.2017574"><ele>305.0</ele><time>2026-05-01T10:41:42.434Z</time></trkpt><trkpt lat="42.227171" lon="14.2018548"><ele>306.6666666666667</ele><time>2026-05-01T10:41:43.434Z</time></trkpt><trkpt lat="42.2271286" lon="14.2019488"><ele>308.33333333333337</ele><time>2026-05-01T10:41:44.449Z</time></trkpt><trkpt lat="42.2270877" lon="14.2020201"><ele>310.0</ele><time>2026-05-01T10:41:45.438Z</time></trkpt><trkpt lat="42.227034" lon="14.2020783"><ele>311.6666666666667</ele><time>2026-05-01T10:41:46.441Z</time></trkpt><trkpt lat="42.2269571" lon="14.2021478"><ele>313.3333333333333</ele><time>2026-05-01T10:41:47.45Z</time></trkpt><trkpt lat="42.2268916" lon="14.2022177"><ele>315.0</ele><time>2026-05-01T10:41:48.444Z</time></trkpt><trkpt lat="42.2268328" lon="14.202311"><ele>314.0</ele><time>2026-05-01T10:41:49.437Z</time></trkpt><trkpt lat="42.2267749" lon="14.2023963"><ele>313.0</ele><time>2026-05-01T10:41:50.452Z</time></trkpt><trkpt lat="42.2267192" lon="14.2024823"><ele>312.0</ele><time>2026-05-01T10:41:51.451Z</time></trkpt><trkpt lat="42.226663" lon="14.2025606"><ele>311.0</ele><time>2026-05-01T10:41:52.442Z</time></trkpt><trkpt lat="42.2266066" lon="14.2026298"><ele>310.0</ele><time>2026-05-01T10:41:53.444Z</time></trkpt><trkpt lat="42.2265588" lon="14.202695"><ele>309.0</ele><time>2026-05-01T10:41:54.443Z</time></trkpt><trkpt lat="42.2265066" lon="14.2028334"><ele>309.2</ele><time>2026-05-01T10:41:56.445Z</time></trkpt><trkpt lat="42.2264506" lon="14.2029312"><ele>309.4</ele><time>2026-05-01T10:41:58.439Z</time></trkpt><trkpt lat="42.2263812" lon="14.2030045"><ele>309.6</ele><time>2026-05-01T10:42:00.435Z</time></trkpt><trkpt lat="42.2262903" lon="14.2030984"><ele>309.8</ele><time>2026-05-01T10:42:02.436Z</time></trkpt><trkpt lat="42.2262052" lon="14.2031825"><ele>310.0</ele><time>2026-05-01T10:42:04.441Z</time></trkpt><trkpt lat="42.2261447" lon="14.2032632"><ele>310.0</ele><time>2026-05-01T10:42:06.443Z</time></trkpt><trkpt lat="42.2260792" lon="14.2033954"><ele>310.0</ele><time>2026-05-01T10:42:08.446Z</time></trkpt><trkpt lat="42.2260108" lon="14.20354"><ele>310.0</ele><time>2026-05-01T10:42:10.438Z</time></trkpt><trkpt lat="42.2259687" lon="14.2036198"><ele>310.0</ele><time>2026-05-01T10:42:11.443Z</time></trkpt><trkpt lat="42.2259192" lon="14.2036977"><ele>310.0</ele><time>2026-05-01T10:42:12.438Z</time></trkpt><trkpt lat="42.2258618" lon="14.2037614"><ele>310.0</ele><time>2026-05-01T10:42:13.441Z</time></trkpt><trkpt lat="42.2258016" lon="14.2038229"><ele>310.0</ele><time>2026-05-01T10:42:14.444Z</time></trkpt><trkpt lat="42.2257451" lon="14.2038827"><ele>310.0</ele><time>2026-05-01T10:42:15.433Z</time></trkpt><trkpt lat="42.2256827" lon="14.2039289"><ele>310.0</ele><time>2026-05-01T10:42:16.433Z</time></trkpt><trkpt lat="42.2256122" lon="14.203959"><ele>310.0</ele><time>2026-05-01T10:42:17.445Z</time></trkpt><trkpt lat="42.2255136" lon="14.2040387"><ele>310.0</ele><time>2026-05-01T10:42:19.441Z</time></trkpt><trkpt lat="42.2254653" lon="14.2041007"><ele>309.5</ele><time>2026-05-01T10:42:20.43Z</time></trkpt><trkpt lat="42.2253819" lon="14.2042193"><ele>309.0</ele><time>2026-05-01T10:42:22.434Z</time></trkpt><trkpt lat="42.2252796" lon="14.2043071"><ele>308.5</ele><time>2026-05-01T10:42:24.428Z</time></trkpt><trkpt lat="42.2251383" lon="14.2043274"><ele>308.0</ele><time>2026-05-01T10:42:26.433Z</time></trkpt><trkpt lat="42.225038" lon="14.204348"><ele>308.0</ele><time>2026-05-01T10:42:27.433Z</time></trkpt><trkpt lat="42.2249543" lon="14.2043818"><ele>308.0</ele><time>2026-05-01T10:42:28.437Z</time></trkpt><trkpt lat="42.2248733" lon="14.204428"><ele>308.0</ele><time>2026-05-01T10:42:29.444Z</time></trkpt><trkpt lat="42.2247975" lon="14.204466"><ele>308.0</ele><time>2026-05-01T10:42:30.436Z</time></trkpt><trkpt lat="42.224732" lon="14.2044987"><ele>308.0</ele><time>2026-05-01T10:42:31.442Z</time></trkpt><trkpt lat="42.2246728" lon="14.2045476"><ele>308.0</ele><time>2026-05-01T10:42:32.438Z</time></trkpt><trkpt lat="42.2246047" lon="14.2045929"><ele>308.6666666666667</ele><time>2026-05-01T10:42:33.436Z</time></trkpt><trkpt lat="42.2245381" lon="14.2046371"><ele>309.33333333333337</ele><time>2026-05-01T10:42:34.435Z</time></trkpt><trkpt lat="42.2244736" lon="14.2046706"><ele>310.0</ele><time>2026-05-01T10:42:35.435Z</time></trkpt><trkpt lat="42.2243517" lon="14.2047168"><ele>310.6666666666667</ele><time>2026-05-01T10:42:37.436Z</time></trkpt><trkpt lat="42.2242894" lon="14.2047299"><ele>311.3333333333333</ele><time>2026-05-01T10:42:38.442Z</time></trkpt><trkpt lat="42.2242259" lon="14.2047605"><ele>312.0</ele><time>2026-05-01T10:42:39.439Z</time></trkpt><trkpt lat="42.2241564" lon="14.2048393"><ele>312.0</ele><time>2026-05-01T10:42:41.437Z</time></trkpt><trkpt lat="42.2241057" lon="14.2049712"><ele>312.0</ele><time>2026-05-01T10:42:43.446Z</time></trkpt><trkpt lat="42.2240453" lon="14.2050926"><ele>312.0</ele><time>2026-05-01T10:42:45.439Z</time></trkpt><trkpt lat="42.2239805" lon="14.2051503"><ele>312.0</ele><time>2026-05-01T10:42:46.446Z</time></trkpt><trkpt lat="42.2238737" lon="14.2052079"><ele>312.0</ele><time>2026-05-01T10:42:47.449Z</time></trkpt><trkpt lat="42.2237923" lon="14.2052538"><ele>313.4</ele><time>2026-05-01T10:42:48.441Z</time></trkpt><trkpt lat="42.2237145" lon="14.2053277"><ele>314.79999999999995</ele><time>2026-05-01T10:42:49.446Z</time></trkpt><trkpt lat="42.2236245" lon="14.205402"><ele>316.2</ele><time>2026-05-01T10:42:50.443Z</time></trkpt><trkpt lat="42.2235202" lon="14.2054823"><ele>317.59999999999997</ele><time>2026-05-01T10:42:51.449Z</time></trkpt><trkpt lat="42.2234061" lon="14.2055515"><ele>319.0</ele><time>2026-05-01T10:42:52.44Z</time></trkpt><trkpt lat="42.2233091" lon="14.2056143"><ele>319.8333333333333</ele><time>2026-05-01T10:42:53.446Z</time></trkpt><trkpt lat="42.2232284" lon="14.2056797"><ele>320.66666666666663</ele><time>2026-05-01T10:42:54.436Z</time></trkpt><trkpt lat="42.2231583" lon="14.2057304"><ele>321.5</ele><time>2026-05-01T10:42:55.439Z</time></trkpt><trkpt lat="42.2230864" lon="14.2057841"><ele>322.3333333333333</ele><time>2026-05-01T10:42:56.444Z</time></trkpt><trkpt lat="42.223011" lon="14.2058406"><ele>323.1666666666667</ele><time>2026-05-01T10:42:57.441Z</time></trkpt><trkpt lat="42.222929" lon="14.2059125"><ele>324.0</ele><time>2026-05-01T10:42:58.441Z</time></trkpt><trkpt lat="42.2228475" lon="14.2059948"><ele>324.0</ele><time>2026-05-01T10:42:59.451Z</time></trkpt><trkpt lat="42.2227639" lon="14.2060913"><ele>324.0</ele><time>2026-05-01T10:43:00.441Z</time></trkpt><trkpt lat="42.2226846" lon="14.2061738"><ele>324.0</ele><time>2026-05-01T10:43:01.45Z</time></trkpt><trkpt lat="42.2226161" lon="14.2062472"><ele>324.0</ele><time>2026-05-01T10:43:02.451Z</time></trkpt><trkpt lat="42.2225594" lon="14.2063228"><ele>324.0</ele><time>2026-05-01T10:43:03.441Z</time></trkpt><trkpt lat="42.2225073" lon="14.2063827"><ele>324.0</ele><time>2026-05-01T10:43:04.444Z</time></trkpt><trkpt lat="42.2224562" lon="14.2064333"><ele>324.0</ele><time>2026-05-01T10:43:05.437Z</time></trkpt><trkpt lat="42.2223959" lon="14.2064839"><ele>324.0</ele><time>2026-05-01T10:43:06.445Z</time></trkpt><trkpt lat="42.2223207" lon="14.2065407"><ele>324.0</ele><time>2026-05-01T10:43:07.441Z</time></trkpt><trkpt lat="42.2222533" lon="14.2066025"><ele>324.0</ele><time>2026-05-01T10:43:08.434Z</time></trkpt><trkpt lat="42.2221853" lon="14.2066638"><ele>324.0</ele><time>2026-05-01T10:43:09.444Z</time></trkpt><trkpt lat="42.2221279" lon="14.2067019"><ele>324.0</ele><time>2026-05-01T10:43:10.439Z</time></trkpt><trkpt lat="42.2220088" lon="14.2067609"><ele>323.8333333333333</ele><time>2026-05-01T10:43:12.437Z</time></trkpt><trkpt lat="42.2219412" lon="14.2067975"><ele>323.6666666666667</ele><time>2026-05-01T10:43:13.442Z</time></trkpt><trkpt lat="42.2218789" lon="14.2068348"><ele>323.5</ele><time>2026-05-01T10:43:14.446Z</time></trkpt><trkpt lat="42.2217757" lon="14.206897"><ele>323.33333333333337</ele><time>2026-05-01T10:43:16.445Z</time></trkpt><trkpt lat="42.2216824" lon="14.2069538"><ele>323.1666666666667</ele><time>2026-05-01T10:43:18.442Z</time></trkpt><trkpt lat="42.2216051" lon="14.2069953"><ele>323.0</ele><time>2026-05-01T10:43:20.448Z</time></trkpt><trkpt lat="42.2215379" lon="14.2070535"><ele>324.4</ele><time>2026-05-01T10:43:22.44Z</time></trkpt><trkpt lat="42.2214301" lon="14.2071619"><ele>325.79999999999995</ele><time>2026-05-01T10:43:24.441Z</time></trkpt><trkpt lat="42.2213593" lon="14.2072401"><ele>327.2</ele><time>2026-05-01T10:43:25.442Z</time></trkpt><trkpt lat="42.2212825" lon="14.2073218"><ele>328.6</ele><time>2026-05-01T10:43:26.441Z</time></trkpt><trkpt lat="42.2212059" lon="14.207389"><ele>330.0</ele><time>2026-05-01T10:43:27.439Z</time></trkpt><trkpt lat="42.2211294" lon="14.2074519"><ele>330.0</ele><time>2026-05-01T10:43:28.443Z</time></trkpt><trkpt lat="42.2210371" lon="14.207538"><ele>330.0</ele><time>2026-05-01T10:43:29.443Z</time></trkpt><trkpt lat="42.2209361" lon="14.2076271"><ele>330.0</ele><time>2026-05-01T10:43:30.437Z</time></trkpt><trkpt lat="42.2208367" lon="14.2077102"><ele>330.0</ele><time>2026-05-01T10:43:31.459Z</time></trkpt><trkpt lat="42.2207382" lon="14.2077873"><ele>333.2</ele><time>2026-05-01T10:43:32.444Z</time></trkpt><trkpt lat="42.2206454" lon="14.2078634"><ele>336.4</ele><time>2026-05-01T10:43:33.448Z</time></trkpt><trkpt lat="42.2205551" lon="14.2079322"><ele>339.6</ele><time>2026-05-01T10:43:34.441Z</time></trkpt><trkpt lat="42.2204717" lon="14.2079953"><ele>342.8</ele><time>2026-05-01T10:43:35.441Z</time></trkpt><trkpt lat="42.2203953" lon="14.2080675"><ele>346.0</ele><time>2026-05-01T10:43:36.447Z</time></trkpt><trkpt lat="42.2203131" lon="14.2081369"><ele>343.4</ele><time>2026-05-01T10:43:37.446Z</time></trkpt><trkpt lat="42.2202297" lon="14.2082016"><ele>340.8</ele><time>2026-05-01T10:43:38.441Z</time></trkpt><trkpt lat="42.2201478" lon="14.2082765"><ele>338.2</ele><time>2026-05-01T10:43:39.448Z</time></trkpt><trkpt lat="42.2200668" lon="14.2083688"><ele>335.59999999999997</ele><time>2026-05-01T10:43:40.438Z</time></trkpt><trkpt lat="42.2199755" lon="14.2084533"><ele>333.0</ele><time>2026-05-01T10:43:41.451Z</time></trkpt><trkpt lat="42.2198797" lon="14.2085383"><ele>334.59999999999997</ele><time>2026-05-01T10:43:42.443Z</time></trkpt><trkpt lat="42.219788" lon="14.2086137"><ele>336.2</ele><time>2026-05-01T10:43:43.445Z</time></trkpt><trkpt lat="42.2196972" lon="14.2086832"><ele>337.8</ele><time>2026-05-01T10:43:44.443Z</time></trkpt><trkpt lat="42.2196026" lon="14.2087428"><ele>339.4</ele><time>2026-05-01T10:43:45.448Z</time></trkpt><trkpt lat="42.2195009" lon="14.2087996"><ele>341.0</ele><time>2026-05-01T10:43:46.451Z</time></trkpt><trkpt lat="42.2193954" lon="14.2088539"><ele>341.0</ele><time>2026-05-01T10:43:47.444Z</time></trkpt><trkpt lat="42.2192865" lon="14.2088959"><ele>341.0</ele><time>2026-05-01T10:43:48.444Z</time></trkpt><trkpt lat="42.2191819" lon="14.208929"><ele>341.0</ele><time>2026-05-01T10:43:49.451Z</time></trkpt><trkpt lat="42.2190831" lon="14.2089534"><ele>341.0</ele><time>2026-05-01T10:43:50.449Z</time></trkpt><trkpt lat="42.2189801" lon="14.2089562"><ele>341.0</ele><time>2026-05-01T10:43:51.443Z</time></trkpt><trkpt lat="42.2188831" lon="14.2089431"><ele>339.8</ele><time>2026-05-01T10:43:52.446Z</time></trkpt><trkpt lat="42.2187899" lon="14.2089125"><ele>338.6</ele><time>2026-05-01T10:43:53.44Z</time></trkpt><trkpt lat="42.2186966" lon="14.2088566"><ele>337.4</ele><time>2026-05-01T10:43:54.441Z</time></trkpt><trkpt lat="42.2185964" lon="14.2087696"><ele>336.2</ele><time>2026-05-01T10:43:55.437Z</time></trkpt><trkpt lat="42.2185079" lon="14.2086726"><ele>335.0</ele><time>2026-05-01T10:43:56.441Z</time></trkpt><trkpt lat="42.2184182" lon="14.208587"><ele>335.0</ele><time>2026-05-01T10:43:57.434Z</time></trkpt><trkpt lat="42.2183222" lon="14.2085268"><ele>335.0</ele><time>2026-05-01T10:43:58.448Z</time></trkpt><trkpt lat="42.2182276" lon="14.2084692"><ele>335.0</ele><time>2026-05-01T10:43:59.447Z</time></trkpt><trkpt lat="42.2181344" lon="14.2083993"><ele>335.0</ele><time>2026-05-01T10:44:00.438Z</time></trkpt><trkpt lat="42.218056" lon="14.2083377"><ele>335.0</ele><time>2026-05-01T10:44:01.454Z</time></trkpt><trkpt lat="42.2179955" lon="14.208298"><ele>335.33333333333337</ele><time>2026-05-01T10:44:02.446Z</time></trkpt><trkpt lat="42.2179302" lon="14.2082626"><ele>335.6666666666667</ele><time>2026-05-01T10:44:03.445Z</time></trkpt><trkpt lat="42.2178613" lon="14.2082189"><ele>336.0</ele><time>2026-05-01T10:44:04.443Z</time></trkpt><trkpt lat="42.2177948" lon="14.2081837"><ele>336.3333333333333</ele><time>2026-05-01T10:44:05.446Z</time></trkpt><trkpt lat="42.2177253" lon="14.2081527"><ele>336.66666666666663</ele><time>2026-05-01T10:44:06.445Z</time></trkpt><trkpt lat="42.21765" lon="14.2081247"><ele>337.0</ele><time>2026-05-01T10:44:07.445Z</time></trkpt><trkpt lat="42.2175659" lon="14.2080993"><ele>338.5</ele><time>2026-05-01T10:44:08.447Z</time></trkpt><trkpt lat="42.2174866" lon="14.2080774"><ele>340.0</ele><time>2026-05-01T10:44:09.448Z</time></trkpt><trkpt lat="42.217408" lon="14.2080482"><ele>341.5</ele><time>2026-05-01T10:44:10.445Z</time></trkpt><trkpt lat="42.2173304" lon="14.2080072"><ele>343.0</ele><time>2026-05-01T10:44:11.44Z</time></trkpt><trkpt lat="42.2172663" lon="14.2079518"><ele>344.5</ele><time>2026-05-01T10:44:12.438Z</time></trkpt><trkpt lat="42.2172007" lon="14.2078832"><ele>346.0</ele><time>2026-05-01T10:44:13.446Z</time></trkpt><trkpt lat="42.2171295" lon="14.2078039"><ele>346.0</ele><time>2026-05-01T10:44:14.444Z</time></trkpt><trkpt lat="42.2170608" lon="14.2077271"><ele>346.0</ele><time>2026-05-01T10:44:15.447Z</time></trkpt><trkpt lat="42.2169948" lon="14.2076529"><ele>346.0</ele><time>2026-05-01T10:44:16.442Z</time></trkpt><trkpt lat="42.2169322" lon="14.2075798"><ele>346.0</ele><time>2026-05-01T10:44:17.441Z</time></trkpt><trkpt lat="42.2168791" lon="14.2075261"><ele>346.0</ele><time>2026-05-01T10:44:18.44Z</time></trkpt><trkpt lat="42.2168184" lon="14.2074683"><ele>346.0</ele><time>2026-05-01T10:44:20.447Z</time></trkpt><trkpt lat="42.2167552" lon="14.2074135"><ele>346.0</ele><time>2026-05-01T10:44:23.447Z</time></trkpt><trkpt lat="42.2166981" lon="14.2073562"><ele>346.0</ele><time>2026-05-01T10:44:58.437Z</time></trkpt><trkpt lat="42.2166019" lon="14.2072865"><ele>346.0</ele><time>2026-05-01T10:45:00.434Z</time></trkpt><trkpt lat="42.216526" lon="14.2072308"><ele>346.0</ele><time>2026-05-01T10:45:01.455Z</time></trkpt><trkpt lat="42.2164328" lon="14.2071724"><ele>346.0</ele><time>2026-05-01T10:45:02.444Z</time></trkpt><trkpt lat="42.2163422" lon="14.2071154"><ele>347.0</ele><time>2026-05-01T10:45:03.448Z</time></trkpt><trkpt lat="42.2162578" lon="14.2070655"><ele>348.0</ele><time>2026-05-01T10:45:04.442Z</time></trkpt><trkpt lat="42.2161879" lon="14.2070287"><ele>349.0</ele><time>2026-05-01T10:45:05.434Z</time></trkpt><trkpt lat="42.2160777" lon="14.2069774"><ele>350.0</ele><time>2026-05-01T10:45:07.449Z</time></trkpt><trkpt lat="42.2159979" lon="14.2069438"><ele>351.0</ele><time>2026-05-01T10:45:09.445Z</time></trkpt><trkpt lat="42.2159093" lon="14.2069146"><ele>351.0</ele><time>2026-05-01T10:45:11.443Z</time></trkpt><trkpt lat="42.2158408" lon="14.206893"><ele>351.0</ele><time>2026-05-01T10:45:13.445Z</time></trkpt><trkpt lat="42.2157565" lon="14.2068475"><ele>351.0</ele><time>2026-05-01T10:45:16.45Z</time></trkpt><trkpt lat="42.2156825" lon="14.2068075"><ele>351.0</ele><time>2026-05-01T10:45:19.451Z</time></trkpt><trkpt lat="42.2156034" lon="14.206789"><ele>351.0</ele><time>2026-05-01T10:45:22.451Z</time></trkpt><trkpt lat="42.2155299" lon="14.2067628"><ele>351.0</ele><time>2026-05-01T10:45:25.446Z</time></trkpt><trkpt lat="42.2154484" lon="14.2067295"><ele>351.6666666666667</ele><time>2026-05-01T10:45:28.442Z</time></trkpt><trkpt lat="42.2153782" lon="14.2066877"><ele>352.3333333333333</ele><time>2026-05-01T10:45:31.449Z</time></trkpt><trkpt lat="42.2152961" lon="14.2066622"><ele>353.0</ele><time>2026-05-01T10:45:34.444Z</time></trkpt><trkpt lat="42.2152171" lon="14.2066391"><ele>353.66666666666663</ele><time>2026-05-01T10:45:37.44Z</time></trkpt><trkpt lat="42.2151428" lon="14.2066152"><ele>354.3333333333333</ele><time>2026-05-01T10:45:40.443Z</time></trkpt><trkpt lat="42.2150664" lon="14.206583"><ele>355.0</ele><time>2026-05-01T10:45:43.442Z</time></trkpt><trkpt lat="42.2149999" lon="14.2065505"><ele>355.0</ele><time>2026-05-01T10:45:45.438Z</time></trkpt><trkpt lat="42.2149236" lon="14.2065427"><ele>355.0</ele><time>2026-05-01T10:45:52.449Z</time></trkpt><trkpt lat="42.2148529" lon="14.2065333"><ele>355.0</ele><time>2026-05-01T10:45:54.451Z</time></trkpt><trkpt lat="42.2147782" lon="14.2065344"><ele>355.0</ele><time>2026-05-01T10:45:56.447Z</time></trkpt><trkpt lat="42.2147093" lon="14.2065522"><ele>355.0</ele><time>2026-05-01T10:45:58.447Z</time></trkpt><trkpt lat="42.2146197" lon="14.2065578"><ele>355.0</ele><time>2026-05-01T10:46:01.454Z</time></trkpt><trkpt lat="42.2145386" lon="14.2065193"><ele>355.7142857142857</ele><time>2026-05-01T10:46:04.445Z</time></trkpt><trkpt lat="42.2144721" lon="14.2064969"><ele>356.42857142857144</ele><time>2026-05-01T10:46:06.44Z</time></trkpt><trkpt lat="42.2144" lon="14.2064817"><ele>357.1428571428571</ele><time>2026-05-01T10:46:09.448Z</time></trkpt><trkpt lat="42.2143135" lon="14.2064571"><ele>357.8571428571429</ele><time>2026-05-01T10:46:13.449Z</time></trkpt><trkpt lat="42.2142504" lon="14.2064345"><ele>358.5714285714286</ele><time>2026-05-01T10:46:16.449Z</time></trkpt><trkpt lat="42.2141807" lon="14.2064078"><ele>359.2857142857143</ele><time>2026-05-01T10:46:19.452Z</time></trkpt><trkpt lat="42.2141016" lon="14.2063812"><ele>360.0</ele><time>2026-05-01T10:46:22.453Z</time></trkpt><trkpt lat="42.2140232" lon="14.2063501"><ele>361.3333333333333</ele><time>2026-05-01T10:46:25.442Z</time></trkpt><trkpt lat="42.2139511" lon="14.2063333"><ele>362.6666666666667</ele><time>2026-05-01T10:46:28.445Z</time></trkpt><trkpt lat="42.213874" lon="14.2063063"><ele>364.0</ele><time>2026-05-01T10:46:31.453Z</time></trkpt><trkpt lat="42.213801" lon="14.2062826"><ele>365.33333333333337</ele><time>2026-05-01T10:46:34.447Z</time></trkpt><trkpt lat="42.2137241" lon="14.206267"><ele>366.6666666666667</ele><time>2026-05-01T10:46:37.448Z</time></trkpt><trkpt lat="42.2136476" lon="14.2062513"><ele>368.0</ele><time>2026-05-01T10:46:40.449Z</time></trkpt><trkpt lat="42.2135732" lon="14.2062178"><ele>368.0</ele><time>2026-05-01T10:46:43.452Z</time></trkpt><trkpt lat="42.2134899" lon="14.2061874"><ele>368.0</ele><time>2026-05-01T10:46:46.451Z</time></trkpt><trkpt lat="42.2134063" lon="14.2061529"><ele>368.0</ele><time>2026-05-01T10:46:49.455Z</time></trkpt><trkpt lat="42.213318" lon="14.2061292"><ele>368.0</ele><time>2026-05-01T10:46:52.452Z</time></trkpt><trkpt lat="42.2132504" lon="14.2061174"><ele>368.0</ele><time>2026-05-01T10:46:54.451Z</time></trkpt><trkpt lat="42.2131694" lon="14.2060879"><ele>368.0</ele><time>2026-05-01T10:46:57.448Z</time></trkpt><trkpt lat="42.2130869" lon="14.2060565"><ele>368.6666666666667</ele><time>2026-05-01T10:47:00.451Z</time></trkpt><trkpt lat="42.213005" lon="14.2060307"><ele>369.33333333333337</ele><time>2026-05-01T10:47:04.451Z</time></trkpt><trkpt lat="42.2129438" lon="14.2060019"><ele>370.0</ele><time>2026-05-01T10:47:07.449Z</time></trkpt><trkpt lat="42.2128727" lon="14.2059815"><ele>370.6666666666667</ele><time>2026-05-01T10:47:10.442Z</time></trkpt><trkpt lat="42.212791" lon="14.2059551"><ele>371.3333333333333</ele><time>2026-05-01T10:47:13.444Z</time></trkpt><trkpt lat="42.2127066" lon="14.2059341"><ele>372.0</ele><time>2026-05-01T10:47:16.446Z</time></trkpt><trkpt lat="42.2126381" lon="14.2059139"><ele>372.0</ele><time>2026-05-01T10:47:19.457Z</time></trkpt><trkpt lat="42.2125713" lon="14.2058682"><ele>372.0</ele><time>2026-05-01T10:47:22.453Z</time></trkpt><trkpt lat="42.2125065" lon="14.2058549"><ele>372.0</ele><time>2026-05-01T10:47:25.458Z</time></trkpt><trkpt lat="42.212431" lon="14.2058776"><ele>372.0</ele><time>2026-05-01T10:47:27.455Z</time></trkpt><trkpt lat="42.2123154" lon="14.2058825"><ele>372.0</ele><time>2026-05-01T10:47:29.44Z</time></trkpt><trkpt lat="42.2122339" lon="14.2058679"><ele>372.0</ele><time>2026-05-01T10:47:30.445Z</time></trkpt><trkpt lat="42.2121381" lon="14.2058443"><ele>372.8</ele><time>2026-05-01T10:47:31.448Z</time></trkpt><trkpt lat="42.2120282" lon="14.2058219"><ele>373.6</ele><time>2026-05-01T10:47:32.44Z</time></trkpt><trkpt lat="42.2119267" lon="14.2058029"><ele>374.40000000000003</ele><time>2026-05-01T10:47:33.445Z</time></trkpt><trkpt lat="42.2118237" lon="14.2057829"><ele>375.20000000000005</ele><time>2026-05-01T10:47:34.444Z</time></trkpt><trkpt lat="42.2117164" lon="14.2057571"><ele>376.0</ele><time>2026-05-01T10:47:35.446Z</time></trkpt><trkpt lat="42.2116076" lon="14.2057189"><ele>376.0</ele><time>2026-05-01T10:47:36.447Z</time></trkpt><trkpt lat="42.2115105" lon="14.2056822"><ele>376.0</ele><time>2026-05-01T10:47:37.446Z</time></trkpt><trkpt lat="42.2114231" lon="14.2056534"><ele>376.0</ele><time>2026-05-01T10:47:38.441Z</time></trkpt><trkpt lat="42.2113383" lon="14.2056242"><ele>376.0</ele><time>2026-05-01T10:47:39.447Z</time></trkpt><trkpt lat="42.2112596" lon="14.2055929"><ele>376.0</ele><time>2026-05-01T10:47:40.443Z</time></trkpt><trkpt lat="42.211176" lon="14.2055682"><ele>376.0</ele><time>2026-05-01T10:47:41.442Z</time></trkpt><trkpt lat="42.2110891" lon="14.2055416"><ele>378.20000000000005</ele><time>2026-05-01T10:47:42.447Z</time></trkpt><trkpt lat="42.2109957" lon="14.2055075"><ele>380.40000000000003</ele><time>2026-05-01T10:47:43.448Z</time></trkpt><trkpt lat="42.2109089" lon="14.205484"><ele>382.6</ele><time>2026-05-01T10:47:44.444Z</time></trkpt><trkpt lat="42.2108404" lon="14.2054595"><ele>384.8</ele><time>2026-05-01T10:47:45.447Z</time></trkpt><trkpt lat="42.2107134" lon="14.2054282"><ele>387.0</ele><time>2026-05-01T10:47:47.451Z</time></trkpt><trkpt lat="42.2106411" lon="14.205409"><ele>387.1666666666667</ele><time>2026-05-01T10:47:48.451Z</time></trkpt><trkpt lat="42.2105575" lon="14.2053852"><ele>387.33333333333337</ele><time>2026-05-01T10:47:49.453Z</time></trkpt><trkpt lat="42.2104735" lon="14.2053711"><ele>387.5</ele><time>2026-05-01T10:47:50.446Z</time></trkpt><trkpt lat="42.2103961" lon="14.2053594"><ele>387.6666666666667</ele><time>2026-05-01T10:47:51.454Z</time></trkpt><trkpt lat="42.2103202" lon="14.2053453"><ele>387.83333333333337</ele><time>2026-05-01T10:47:52.45Z</time></trkpt><trkpt lat="42.2102376" lon="14.2053266"><ele>388.0</ele><time>2026-05-01T10:47:53.448Z</time></trkpt><trkpt lat="42.2101574" lon="14.2053044"><ele>388.0</ele><time>2026-05-01T10:47:54.454Z</time></trkpt><trkpt lat="42.2100838" lon="14.2052822"><ele>388.0</ele><time>2026-05-01T10:47:55.455Z</time></trkpt><trkpt lat="42.2100107" lon="14.205257"><ele>388.0</ele><time>2026-05-01T10:47:56.449Z</time></trkpt><trkpt lat="42.2099464" lon="14.2052345"><ele>388.0</ele><time>2026-05-01T10:47:57.445Z</time></trkpt><trkpt lat="42.2098737" lon="14.2052146"><ele>388.0</ele><time>2026-05-01T10:47:58.449Z</time></trkpt><trkpt lat="42.2098048" lon="14.2051959"><ele>388.0</ele><time>2026-05-01T10:47:59.449Z</time></trkpt><trkpt lat="42.2097428" lon="14.2051748"><ele>388.0</ele><time>2026-05-01T10:48:00.458Z</time></trkpt><trkpt lat="42.2096734" lon="14.2051489"><ele>388.50000000000006</ele><time>2026-05-01T10:48:01.459Z</time></trkpt><trkpt lat="42.2095988" lon="14.2051148"><ele>389.0</ele><time>2026-05-01T10:48:02.452Z</time></trkpt><trkpt lat="42.2095234" lon="14.2050866"><ele>389.5</ele><time>2026-05-01T10:48:03.45Z</time></trkpt><trkpt lat="42.2094467" lon="14.2050628"><ele>390.0</ele><time>2026-05-01T10:48:04.451Z</time></trkpt><trkpt lat="42.2093651" lon="14.2050421"><ele>390.50000000000006</ele><time>2026-05-01T10:48:05.454Z</time></trkpt><trkpt lat="42.2092835" lon="14.2050209"><ele>391.0</ele><time>2026-05-01T10:48:06.453Z</time></trkpt><trkpt lat="42.2092081" lon="14.2049971"><ele>390.99999999999994</ele><time>2026-05-01T10:48:07.452Z</time></trkpt><trkpt lat="42.2091394" lon="14.2049735"><ele>391.0</ele><time>2026-05-01T10:48:08.452Z</time></trkpt><trkpt lat="42.2090731" lon="14.2049483"><ele>391.0</ele><time>2026-05-01T10:48:09.455Z</time></trkpt><trkpt lat="42.2090026" lon="14.20492"><ele>391.0</ele><time>2026-05-01T10:48:10.45Z</time></trkpt><trkpt lat="42.2089381" lon="14.2048912"><ele>391.0</ele><time>2026-05-01T10:48:11.443Z</time></trkpt><trkpt lat="42.2088691" lon="14.2048642"><ele>390.99999999999994</ele><time>2026-05-01T10:48:12.449Z</time></trkpt><trkpt lat="42.2088032" lon="14.2048394"><ele>391.0</ele><time>2026-05-01T10:48:13.439Z</time></trkpt><trkpt lat="42.2087417" lon="14.2048139"><ele>393.1666666666667</ele><time>2026-05-01T10:48:14.441Z</time></trkpt><trkpt lat="42.2086814" lon="14.204783"><ele>395.33333333333337</ele><time>2026-05-01T10:48:15.446Z</time></trkpt><trkpt lat="42.2086153" lon="14.2047469"><ele>397.5</ele><time>2026-05-01T10:48:16.449Z</time></trkpt><trkpt lat="42.2085486" lon="14.20472"><ele>399.66666666666663</ele><time>2026-05-01T10:48:17.444Z</time></trkpt><trkpt lat="42.2084865" lon="14.2046964"><ele>401.8333333333333</ele><time>2026-05-01T10:48:18.444Z</time></trkpt><trkpt lat="42.2083627" lon="14.2046369"><ele>404.0</ele><time>2026-05-01T10:48:20.446Z</time></trkpt><trkpt lat="42.2082884" lon="14.2046056"><ele>403.99999999999994</ele><time>2026-05-01T10:48:21.446Z</time></trkpt><trkpt lat="42.2082128" lon="14.2045611"><ele>404.0</ele><time>2026-05-01T10:48:22.446Z</time></trkpt><trkpt lat="42.2081492" lon="14.204516"><ele>404.0</ele><time>2026-05-01T10:48:23.448Z</time></trkpt><trkpt lat="42.2080892" lon="14.2044658"><ele>404.0</ele><time>2026-05-01T10:48:24.444Z</time></trkpt><trkpt lat="42.2080216" lon="14.2044102"><ele>403.99999999999994</ele><time>2026-05-01T10:48:25.448Z</time></trkpt><trkpt lat="42.2079578" lon="14.2043601"><ele>404.0</ele><time>2026-05-01T10:48:26.44Z</time></trkpt><trkpt lat="42.2078929" lon="14.2043124"><ele>403.8333333333333</ele><time>2026-05-01T10:48:27.449Z</time></trkpt><trkpt lat="42.2078255" lon="14.2042612"><ele>403.66666666666663</ele><time>2026-05-01T10:48:28.443Z</time></trkpt><trkpt lat="42.2077613" lon="14.2042152"><ele>403.5</ele><time>2026-05-01T10:48:29.448Z</time></trkpt><trkpt lat="42.2076946" lon="14.204169"><ele>403.33333333333337</ele><time>2026-05-01T10:48:30.447Z</time></trkpt><trkpt lat="42.2076206" lon="14.2041199"><ele>403.1666666666667</ele><time>2026-05-01T10:48:31.449Z</time></trkpt><trkpt lat="42.2075512" lon="14.2040697"><ele>403.0</ele><time>2026-05-01T10:48:32.439Z</time></trkpt><trkpt lat="42.2074777" lon="14.2040293"><ele>404.4</ele><time>2026-05-01T10:48:33.44Z</time></trkpt><trkpt lat="42.207394" lon="14.2039868"><ele>405.79999999999995</ele><time>2026-05-01T10:48:34.438Z</time></trkpt><trkpt lat="42.2073129" lon="14.2039319"><ele>407.2</ele><time>2026-05-01T10:48:35.432Z</time></trkpt><trkpt lat="42.2072281" lon="14.2038722"><ele>408.6</ele><time>2026-05-01T10:48:36.437Z</time></trkpt><trkpt lat="42.2071506" lon="14.2038142"><ele>410.0</ele><time>2026-05-01T10:48:37.435Z</time></trkpt><trkpt lat="42.2070742" lon="14.2037581"><ele>409.99999999999994</ele><time>2026-05-01T10:48:38.434Z</time></trkpt><trkpt lat="42.2069979" lon="14.2036995"><ele>410.0</ele><time>2026-05-01T10:48:39.439Z</time></trkpt><trkpt lat="42.2069266" lon="14.2036375"><ele>410.0</ele><time>2026-05-01T10:48:40.44Z</time></trkpt><trkpt lat="42.2068587" lon="14.2035769"><ele>410.0</ele><time>2026-05-01T10:48:41.441Z</time></trkpt><trkpt lat="42.2067902" lon="14.2035198"><ele>409.99999999999994</ele><time>2026-05-01T10:48:42.441Z</time></trkpt><trkpt lat="42.2067218" lon="14.203456"><ele>410.0</ele><time>2026-05-01T10:48:43.434Z</time></trkpt><trkpt lat="42.2066557" lon="14.2033953"><ele>410.0</ele><time>2026-05-01T10:48:44.444Z</time></trkpt><trkpt lat="42.2065939" lon="14.2033406"><ele>410.0</ele><time>2026-05-01T10:48:45.444Z</time></trkpt><trkpt lat="42.2065284" lon="14.2032904"><ele>410.0</ele><time>2026-05-01T10:48:46.443Z</time></trkpt><trkpt lat="42.2064645" lon="14.203247"><ele>410.0</ele><time>2026-05-01T10:48:47.443Z</time></trkpt><trkpt lat="42.2064007" lon="14.2032083"><ele>410.0</ele><time>2026-05-01T10:48:48.441Z</time></trkpt><trkpt lat="42.2063368" lon="14.2031636"><ele>410.0</ele><time>2026-05-01T10:48:49.443Z</time></trkpt><trkpt lat="42.2062842" lon="14.203115"><ele>410.0</ele><time>2026-05-01T10:48:50.443Z</time></trkpt><trkpt lat="42.2062224" lon="14.2030535"><ele>411.8</ele><time>2026-05-01T10:48:51.441Z</time></trkpt><trkpt lat="42.2061453" lon="14.2029846"><ele>413.6</ele><time>2026-05-01T10:48:52.442Z</time></trkpt><trkpt lat="42.2060712" lon="14.2029299"><ele>415.4</ele><time>2026-05-01T10:48:53.438Z</time></trkpt><trkpt lat="42.2060047" lon="14.2028944"><ele>417.2</ele><time>2026-05-01T10:48:54.442Z</time></trkpt><trkpt lat="42.2059062" lon="14.2028693"><ele>419.0</ele><time>2026-05-01T10:48:56.446Z</time></trkpt><trkpt lat="42.205774" lon="14.2028267"><ele>419.0</ele><time>2026-05-01T10:48:58.439Z</time></trkpt><trkpt lat="42.2056816" lon="14.2027835"><ele>419.0</ele><time>2026-05-01T10:48:59.436Z</time></trkpt><trkpt lat="42.2055632" lon="14.2027213"><ele>419.0</ele><time>2026-05-01T10:49:00.438Z</time></trkpt><trkpt lat="42.2054539" lon="14.2026431"><ele>419.0</ele><time>2026-05-01T10:49:01.439Z</time></trkpt><trkpt lat="42.2053592" lon="14.2025714"><ele>418.6</ele><time>2026-05-01T10:49:02.439Z</time></trkpt><trkpt lat="42.2052674" lon="14.2025025"><ele>418.2</ele><time>2026-05-01T10:49:03.438Z</time></trkpt><trkpt lat="42.2051726" lon="14.2024358"><ele>417.8</ele><time>2026-05-01T10:49:04.441Z</time></trkpt><trkpt lat="42.205075" lon="14.2023727"><ele>417.40000000000003</ele><time>2026-05-01T10:49:05.437Z</time></trkpt><trkpt lat="42.204983" lon="14.2023158"><ele>417.0</ele><time>2026-05-01T10:49:06.441Z</time></trkpt><trkpt lat="42.2048958" lon="14.2022658"><ele>419.0</ele><time>2026-05-01T10:49:07.439Z</time></trkpt><trkpt lat="42.2048267" lon="14.2022253"><ele>421.0</ele><time>2026-05-01T10:49:08.434Z</time></trkpt><trkpt lat="42.2047473" lon="14.2021867"><ele>423.0</ele><time>2026-05-01T10:49:09.436Z</time></trkpt><trkpt lat="42.2046646" lon="14.2021457"><ele>425.0</ele><time>2026-05-01T10:49:10.439Z</time></trkpt><trkpt lat="42.2045827" lon="14.2021016"><ele>427.0</ele><time>2026-05-01T10:49:11.441Z</time></trkpt><trkpt lat="42.204506" lon="14.2020429"><ele>429.0</ele><time>2026-05-01T10:49:12.444Z</time></trkpt><trkpt lat="42.2044263" lon="14.2019829"><ele>429.0</ele><time>2026-05-01T10:49:13.436Z</time></trkpt><trkpt lat="42.2043489" lon="14.2019247"><ele>429.0</ele><time>2026-05-01T10:49:14.442Z</time></trkpt><trkpt lat="42.2042548" lon="14.20188"><ele>429.0</ele><time>2026-05-01T10:49:15.436Z</time></trkpt><trkpt lat="42.2041593" lon="14.2018316"><ele>429.0</ele><time>2026-05-01T10:49:16.442Z</time></trkpt><trkpt lat="42.2040534" lon="14.2017889"><ele>429.0</ele><time>2026-05-01T10:49:17.441Z</time></trkpt><trkpt lat="42.2039435" lon="14.2017511"><ele>427.79999999999995</ele><time>2026-05-01T10:49:18.44Z</time></trkpt><trkpt lat="42.2038428" lon="14.2017105"><ele>426.59999999999997</ele><time>2026-05-01T10:49:19.437Z</time></trkpt><trkpt lat="42.20376" lon="14.2016745"><ele>425.4</ele><time>2026-05-01T10:49:20.433Z</time></trkpt><trkpt lat="42.2036897" lon="14.2016387"><ele>424.2</ele><time>2026-05-01T10:49:21.433Z</time></trkpt><trkpt lat="42.2036055" lon="14.201606"><ele>423.0</ele><time>2026-05-01T10:49:22.443Z</time></trkpt><trkpt lat="42.2035105" lon="14.2015723"><ele>423.0</ele><time>2026-05-01T10:49:23.436Z</time></trkpt><trkpt lat="42.2034121" lon="14.2015426"><ele>423.0</ele><time>2026-05-01T10:49:24.431Z</time></trkpt><trkpt lat="42.2033266" lon="14.2015244"><ele>423.0</ele><time>2026-05-01T10:49:25.435Z</time></trkpt><trkpt lat="42.2032458" lon="14.2015178"><ele>423.0</ele><time>2026-05-01T10:49:26.426Z</time></trkpt><trkpt lat="42.2031711" lon="14.2015053"><ele>423.0</ele><time>2026-05-01T10:49:27.433Z</time></trkpt><trkpt lat="42.2031064" lon="14.2014846"><ele>423.0</ele><time>2026-05-01T10:49:28.44Z</time></trkpt><trkpt lat="42.2030461" lon="14.2014411"><ele>423.5</ele><time>2026-05-01T10:49:29.441Z</time></trkpt><trkpt lat="42.2029754" lon="14.2014013"><ele>424.0</ele><time>2026-05-01T10:49:30.439Z</time></trkpt><trkpt lat="42.2028965" lon="14.2013594"><ele>424.5</ele><time>2026-05-01T10:49:31.441Z</time></trkpt><trkpt lat="42.2028257" lon="14.2013135"><ele>425.0</ele><time>2026-05-01T10:49:32.434Z</time></trkpt><trkpt lat="42.2027614" lon="14.2012648"><ele>425.5</ele><time>2026-05-01T10:49:33.435Z</time></trkpt><trkpt lat="42.2026918" lon="14.2012299"><ele>426.0</ele><time>2026-05-01T10:49:34.428Z</time></trkpt><trkpt lat="42.2026152" lon="14.2011937"><ele>426.0</ele><time>2026-05-01T10:49:35.437Z</time></trkpt><trkpt lat="42.2025382" lon="14.2011702"><ele>426.0</ele><time>2026-05-01T10:49:36.431Z</time></trkpt><trkpt lat="42.2024585" lon="14.2011576"><ele>426.0</ele><time>2026-05-01T10:49:37.438Z</time></trkpt><trkpt lat="42.2023787" lon="14.2011478"><ele>426.0</ele><time>2026-05-01T10:49:38.447Z</time></trkpt><trkpt lat="42.2023033" lon="14.2011351"><ele>426.0</ele><time>2026-05-01T10:49:39.44Z</time></trkpt><trkpt lat="42.2022341" lon="14.2011292"><ele>426.0</ele><time>2026-05-01T10:49:40.447Z</time></trkpt><trkpt lat="42.2021507" lon="14.2011206"><ele>426.8333333333333</ele><time>2026-05-01T10:49:42.437Z</time></trkpt><trkpt lat="42.2020949" lon="14.2010408"><ele>427.66666666666663</ele><time>2026-05-01T11:07:47.454Z</time></trkpt><trkpt lat="42.2020159" lon="14.2009588"><ele>428.5</ele><time>2026-05-01T11:07:49.458Z</time></trkpt><trkpt lat="42.2019341" lon="14.2009306"><ele>429.3333333333333</ele><time>2026-05-01T11:07:51.454Z</time></trkpt><trkpt lat="42.2018516" lon="14.2009052"><ele>430.16666666666663</ele><time>2026-05-01T11:07:53.462Z</time></trkpt><trkpt lat="42.2017755" lon="14.2009153"><ele>431.0</ele><time>2026-05-01T11:07:55.459Z</time></trkpt><trkpt lat="42.2017002" lon="14.2008929"><ele>431.0</ele><time>2026-05-01T11:07:57.457Z</time></trkpt><trkpt lat="42.2016229" lon="14.2008997"><ele>431.0</ele><time>2026-05-01T11:07:59.46Z</time></trkpt><trkpt lat="42.2015108" lon="14.2009179"><ele>431.0</ele><time>2026-05-01T11:08:01.459Z</time></trkpt><trkpt lat="42.2014227" lon="14.2009022"><ele>431.0</ele><time>2026-05-01T11:08:03.455Z</time></trkpt><trkpt lat="42.2013258" lon="14.2008441"><ele>431.0</ele><time>2026-05-01T11:08:05.455Z</time></trkpt><trkpt lat="42.20123" lon="14.2007734"><ele>432.6</ele><time>2026-05-01T11:08:07.451Z</time></trkpt><trkpt lat="42.2011369" lon="14.2007072"><ele>434.20000000000005</ele><time>2026-05-01T11:08:09.459Z</time></trkpt><trkpt lat="42.2010318" lon="14.2006699"><ele>435.79999999999995</ele><time>2026-05-01T11:08:11.454Z</time></trkpt><trkpt lat="42.2009595" lon="14.200622"><ele>437.4</ele><time>2026-05-01T11:08:13.459Z</time></trkpt><trkpt lat="42.2008867" lon="14.200564"><ele>439.0</ele><time>2026-05-01T11:09:26.457Z</time></trkpt><trkpt lat="42.2007932" lon="14.2005215"><ele>440.0</ele><time>2026-05-01T11:09:29.459Z</time></trkpt><trkpt lat="42.2006818" lon="14.2004372"><ele>441.0</ele><time>2026-05-01T11:09:31.459Z</time></trkpt><trkpt lat="42.2006097" lon="14.2004035"><ele>442.0</ele><time>2026-05-01T11:09:32.452Z</time></trkpt><trkpt lat="42.2005399" lon="14.2003918"><ele>443.0</ele><time>2026-05-01T11:09:33.449Z</time></trkpt><trkpt lat="42.2004683" lon="14.200398"><ele>444.0</ele><time>2026-05-01T11:09:34.451Z</time></trkpt><trkpt lat="42.2003635" lon="14.2004136"><ele>445.3333333333333</ele><time>2026-05-01T11:09:36.453Z</time></trkpt><trkpt lat="42.2002508" lon="14.200445"><ele>446.66666666666663</ele><time>2026-05-01T11:10:14.455Z</time></trkpt><trkpt lat="42.2001737" lon="14.2004093"><ele>448.0</ele><time>2026-05-01T11:10:15.447Z</time></trkpt><trkpt lat="42.2001104" lon="14.2003494"><ele>449.3333333333333</ele><time>2026-05-01T11:10:16.447Z</time></trkpt><trkpt lat="42.2000452" lon="14.2002768"><ele>450.66666666666663</ele><time>2026-05-01T11:10:17.444Z</time></trkpt><trkpt lat="42.1999671" lon="14.2002242"><ele>452.0</ele><time>2026-05-01T11:10:18.449Z</time></trkpt><trkpt lat="42.1998776" lon="14.2001856"><ele>453.6</ele><time>2026-05-01T11:10:19.448Z</time></trkpt><trkpt lat="42.1997847" lon="14.2001494"><ele>455.20000000000005</ele><time>2026-05-01T11:10:20.456Z</time></trkpt><trkpt lat="42.1997039" lon="14.2000978"><ele>456.8</ele><time>2026-05-01T11:10:21.454Z</time></trkpt><trkpt lat="42.1996283" lon="14.2000347"><ele>458.4</ele><time>2026-05-01T11:10:22.451Z</time></trkpt><trkpt lat="42.1995627" lon="14.1999818"><ele>460.0</ele><time>2026-05-01T11:10:23.449Z</time></trkpt><trkpt lat="42.1994564" lon="14.1999576"><ele>460.00000000000006</ele><time>2026-05-01T11:10:25.447Z</time></trkpt><trkpt lat="42.1993566" lon="14.1999794"><ele>460.0</ele><time>2026-05-01T11:10:27.454Z</time></trkpt><trkpt lat="42.1992777" lon="14.1999934"><ele>460.0</ele><time>2026-05-01T11:10:29.459Z</time></trkpt><trkpt lat="42.1991882" lon="14.1999914"><ele>460.0</ele><time>2026-05-01T11:10:31.459Z</time></trkpt><trkpt lat="42.1990925" lon="14.1999696"><ele>460.00000000000006</ele><time>2026-05-01T11:10:33.452Z</time></trkpt><trkpt lat="42.199028" lon="14.1999588"><ele>460.0</ele><time>2026-05-01T11:10:34.457Z</time></trkpt><trkpt lat="42.1989584" lon="14.1999555"><ele>461.33333333333337</ele><time>2026-05-01T11:10:35.449Z</time></trkpt><trkpt lat="42.1988773" lon="14.1999687"><ele>462.6666666666667</ele><time>2026-05-01T11:10:36.452Z</time></trkpt><trkpt lat="42.1987934" lon="14.1999778"><ele>464.0</ele><time>2026-05-01T11:10:37.454Z</time></trkpt><trkpt lat="42.1987124" lon="14.1999782"><ele>465.33333333333337</ele><time>2026-05-01T11:10:38.454Z</time></trkpt><trkpt lat="42.1986315" lon="14.1999766"><ele>466.6666666666667</ele><time>2026-05-01T11:10:39.452Z</time></trkpt><trkpt lat="42.1985412" lon="14.199983"><ele>468.0</ele><time>2026-05-01T11:10:40.456Z</time></trkpt><trkpt lat="42.1984518" lon="14.1999985"><ele>468.0</ele><time>2026-05-01T11:10:41.45Z</time></trkpt><trkpt lat="42.1983631" lon="14.2000307"><ele>467.99999999999994</ele><time>2026-05-01T11:10:42.453Z</time></trkpt><trkpt lat="42.1982774" lon="14.2000663"><ele>467.99999999999994</ele><time>2026-05-01T11:10:43.457Z</time></trkpt><trkpt lat="42.1981872" lon="14.2000886"><ele>468.0</ele><time>2026-05-01T11:10:44.454Z</time></trkpt><trkpt lat="42.1980884" lon="14.2000957"><ele>468.0</ele><time>2026-05-01T11:10:45.45Z</time></trkpt><trkpt lat="42.1980049" lon="14.2000691"><ele>468.8333333333333</ele><time>2026-05-01T11:10:46.455Z</time></trkpt><trkpt lat="42.1979263" lon="14.2000431"><ele>469.66666666666663</ele><time>2026-05-01T11:10:47.451Z</time></trkpt><trkpt lat="42.1978415" lon="14.2000229"><ele>470.5</ele><time>2026-05-01T11:10:48.452Z</time></trkpt><trkpt lat="42.1977542" lon="14.2000124"><ele>471.3333333333333</ele><time>2026-05-01T11:10:49.461Z</time></trkpt><trkpt lat="42.1976643" lon="14.2000023"><ele>472.16666666666663</ele><time>2026-05-01T11:10:50.455Z</time></trkpt><trkpt lat="42.1975703" lon="14.2000036"><ele>473.0</ele><time>2026-05-01T11:10:51.458Z</time></trkpt><trkpt lat="42.1974763" lon="14.2000207"><ele>472.99999999999994</ele><time>2026-05-01T11:10:52.458Z</time></trkpt><trkpt lat="42.1973842" lon="14.2000447"><ele>473.0</ele><time>2026-05-01T11:10:53.459Z</time></trkpt><trkpt lat="42.1972994" lon="14.2000681"><ele>473.0</ele><time>2026-05-01T11:10:54.454Z</time></trkpt><trkpt lat="42.1972198" lon="14.2000708"><ele>473.0</ele><time>2026-05-01T11:10:55.459Z</time></trkpt><trkpt lat="42.1971318" lon="14.2000682"><ele>472.99999999999994</ele><time>2026-05-01T11:10:56.458Z</time></trkpt><trkpt lat="42.1970589" lon="14.2000591"><ele>473.0</ele><time>2026-05-01T11:10:57.45Z</time></trkpt><trkpt lat="42.1969971" lon="14.2000354"><ele>474.4</ele><time>2026-05-01T11:10:59.452Z</time></trkpt><trkpt lat="42.1970413" lon="14.1999549"><ele>475.79999999999995</ele><time>2026-05-01T11:11:01.457Z</time></trkpt><trkpt lat="42.1970761" lon="14.1998828"><ele>477.2</ele><time>2026-05-01T11:11:02.455Z</time></trkpt><trkpt lat="42.1971109" lon="14.1997925"><ele>478.6</ele><time>2026-05-01T11:11:03.46Z</time></trkpt><trkpt lat="42.1971632" lon="14.1996537"><ele>480.0</ele><time>2026-05-01T11:11:05.452Z</time></trkpt><trkpt lat="42.1972262" lon="14.1995061"><ele>479.8333333333333</ele><time>2026-05-01T11:11:07.452Z</time></trkpt><trkpt lat="42.1972613" lon="14.1994324"><ele>479.66666666666663</ele><time>2026-05-01T11:11:08.453Z</time></trkpt><trkpt lat="42.1973268" lon="14.1993078"><ele>479.5</ele><time>2026-05-01T11:11:10.454Z</time></trkpt><trkpt lat="42.1973791" lon="14.1991915"><ele>479.3333333333333</ele><time>2026-05-01T11:11:12.459Z</time></trkpt><trkpt lat="42.1974068" lon="14.1990888"><ele>479.16666666666663</ele><time>2026-05-01T11:11:14.461Z</time></trkpt><trkpt lat="42.1974046" lon="14.1989814"><ele>479.0</ele><time>2026-05-01T11:11:16.458Z</time></trkpt><trkpt lat="42.1973498" lon="14.1988654"><ele>479.99999999999994</ele><time>2026-05-01T11:11:18.453Z</time></trkpt><trkpt lat="42.1972558" lon="14.1987507"><ele>481.0</ele><time>2026-05-01T11:11:20.454Z</time></trkpt><trkpt lat="42.1972151" lon="14.1986833"><ele>482.0</ele><time>2026-05-01T11:11:21.45Z</time></trkpt><trkpt lat="42.1971561" lon="14.1985542"><ele>483.0</ele><time>2026-05-01T11:11:23.455Z</time></trkpt><trkpt lat="42.1971545" lon="14.198462"><ele>483.99999999999994</ele><time>2026-05-01T11:11:30.449Z</time></trkpt><trkpt lat="42.1971526" lon="14.198565"><ele>485.0</ele><time>2026-05-01T11:11:46.45Z</time></trkpt><trkpt lat="42.197201" lon="14.1986876"><ele>484.99999999999994</ele><time>2026-05-01T11:11:48.453Z</time></trkpt><trkpt lat="42.1972444" lon="14.1987667"><ele>485.0</ele><time>2026-05-01T11:11:49.439Z</time></trkpt><trkpt lat="42.1972842" lon="14.1988442"><ele>485.0</ele><time>2026-05-01T11:11:50.445Z</time></trkpt><trkpt lat="42.1973223" lon="14.1989174"><ele>485.0</ele><time>2026-05-01T11:11:51.449Z</time></trkpt><trkpt lat="42.1973629" lon="14.1990674"><ele>484.99999999999994</ele><time>2026-05-01T11:11:53.455Z</time></trkpt><trkpt lat="42.1973435" lon="14.1991609"><ele>485.0</ele><time>2026-05-01T11:11:55.447Z</time></trkpt><trkpt lat="42.1972826" lon="14.1992765"><ele>484.49999999999994</ele><time>2026-05-01T11:11:58.455Z</time></trkpt><trkpt lat="42.1972404" lon="14.1993775"><ele>484.0</ele><time>2026-05-01T11:11:59.457Z</time></trkpt><trkpt lat="42.1971941" lon="14.199496"><ele>483.5</ele><time>2026-05-01T11:12:00.456Z</time></trkpt><trkpt lat="42.1971526" lon="14.1996178"><ele>483.0</ele><time>2026-05-01T11:12:01.459Z</time></trkpt><trkpt lat="42.1971239" lon="14.1997295"><ele>482.49999999999994</ele><time>2026-05-01T11:12:02.455Z</time></trkpt><trkpt lat="42.197101" lon="14.1998254"><ele>482.0</ele><time>2026-05-01T11:12:03.458Z</time></trkpt><trkpt lat="42.1970752" lon="14.1999207"><ele>481.6</ele><time>2026-05-01T11:12:04.462Z</time></trkpt><trkpt lat="42.1970355" lon="14.2000496"><ele>481.20000000000005</ele><time>2026-05-01T11:12:06.463Z</time></trkpt><trkpt lat="42.1970958" lon="14.2001172"><ele>480.8</ele><time>2026-05-01T11:12:11.463Z</time></trkpt><trkpt lat="42.1971772" lon="14.2001365"><ele>480.4</ele><time>2026-05-01T11:12:17.455Z</time></trkpt><trkpt lat="42.1972887" lon="14.20013"><ele>480.0</ele><time>2026-05-01T11:12:19.452Z</time></trkpt><trkpt lat="42.1973946" lon="14.2001166"><ele>479.8333333333333</ele><time>2026-05-01T11:12:21.458Z</time></trkpt><trkpt lat="42.1974563" lon="14.2000492"><ele>479.66666666666663</ele><time>2026-05-01T11:13:08.466Z</time></trkpt><trkpt lat="42.1974633" lon="14.199934"><ele>479.5</ele><time>2026-05-01T11:13:15.458Z</time></trkpt><trkpt lat="42.1974421" lon="14.199815"><ele>479.3333333333333</ele><time>2026-05-01T11:13:17.46Z</time></trkpt><trkpt lat="42.1974565" lon="14.1996807"><ele>479.16666666666663</ele><time>2026-05-01T11:13:19.451Z</time></trkpt><trkpt lat="42.1974841" lon="14.1995806"><ele>479.0</ele><time>2026-05-01T11:13:20.459Z</time></trkpt><trkpt lat="42.1975106" lon="14.1994646"><ele>478.99999999999994</ele><time>2026-05-01T11:13:21.45Z</time></trkpt><trkpt lat="42.1975372" lon="14.19936"><ele>479.0</ele><time>2026-05-01T11:13:22.452Z</time></trkpt><trkpt lat="42.1975611" lon="14.1992708"><ele>479.0</ele><time>2026-05-01T11:13:23.446Z</time></trkpt><trkpt lat="42.1975816" lon="14.1991451"><ele>479.0</ele><time>2026-05-01T11:13:25.461Z</time></trkpt><trkpt lat="42.1975526" lon="14.1990599"><ele>478.99999999999994</ele><time>2026-05-01T11:13:27.462Z</time></trkpt><trkpt lat="42.1974855" lon="14.1989675"><ele>479.0</ele><time>2026-05-01T11:13:29.462Z</time></trkpt><trkpt lat="42.1974419" lon="14.1988939"><ele>479.3333333333333</ele><time>2026-05-01T11:13:30.462Z</time></trkpt><trkpt lat="42.1973955" lon="14.198818"><ele>479.66666666666663</ele><time>2026-05-01T11:13:31.464Z</time></trkpt><trkpt lat="42.1973526" lon="14.1987453"><ele>480.0</ele><time>2026-05-01T11:13:32.454Z</time></trkpt><trkpt lat="42.1972668" lon="14.1986407"><ele>480.33333333333337</ele><time>2026-05-01T11:13:34.463Z</time></trkpt><trkpt lat="42.1972036" lon="14.1985578"><ele>480.6666666666667</ele><time>2026-05-01T11:13:36.444Z</time></trkpt><trkpt lat="42.1972078" lon="14.1984563"><ele>481.0</ele><time>2026-05-01T11:13:38.445Z</time></trkpt><trkpt lat="42.197275" lon="14.1984299"><ele>481.0</ele><time>2026-05-01T11:13:40.457Z</time></trkpt><trkpt lat="42.197341" lon="14.1984472"><ele>481.0</ele><time>2026-05-01T11:13:41.453Z</time></trkpt><trkpt lat="42.1974456" lon="14.1984458"><ele>481.0</ele><time>2026-05-01T11:13:43.454Z</time></trkpt><trkpt lat="42.1975212" lon="14.1983271"><ele>481.0</ele><time>2026-05-01T11:13:45.454Z</time></trkpt><trkpt lat="42.1975698" lon="14.1982597"><ele>481.0</ele><time>2026-05-01T11:13:46.453Z</time></trkpt><trkpt lat="42.1976364" lon="14.1981466"><ele>481.33333333333337</ele><time>2026-05-01T11:13:48.455Z</time></trkpt><trkpt lat="42.1977028" lon="14.1980259"><ele>481.6666666666667</ele><time>2026-05-01T11:13:50.459Z</time></trkpt><trkpt lat="42.1977375" lon="14.1979534"><ele>482.0</ele><time>2026-05-01T11:13:51.46Z</time></trkpt><trkpt lat="42.197796" lon="14.197862"><ele>482.33333333333337</ele><time>2026-05-01T11:13:53.46Z</time></trkpt><trkpt lat="42.1978138" lon="14.19776"><ele>482.6666666666667</ele><time>2026-05-01T11:13:58.463Z</time></trkpt><trkpt lat="42.1977624" lon="14.1976992"><ele>483.0</ele><time>2026-05-01T11:14:00.464Z</time></trkpt><trkpt lat="42.1976775" lon="14.1975873"><ele>483.0</ele><time>2026-05-01T11:14:02.456Z</time></trkpt><trkpt lat="42.1976423" lon="14.1975083"><ele>483.0</ele><time>2026-05-01T11:14:03.456Z</time></trkpt><trkpt lat="42.1975871" lon="14.1974479"><ele>483.0</ele><time>2026-05-01T11:14:04.454Z</time></trkpt><trkpt lat="42.1975177" lon="14.1974019"><ele>483.0</ele><time>2026-05-01T11:14:05.457Z</time></trkpt><trkpt lat="42.1974468" lon="14.1973494"><ele>483.0</ele><time>2026-05-01T11:14:06.46Z</time></trkpt><trkpt lat="42.1973865" lon="14.1972819"><ele>483.0</ele><time>2026-05-01T11:14:07.455Z</time></trkpt><trkpt lat="42.1973248" lon="14.1971927"><ele>484.6666666666667</ele><time>2026-05-01T11:14:08.456Z</time></trkpt><trkpt lat="42.1972459" lon="14.1971108"><ele>486.33333333333337</ele><time>2026-05-01T11:14:09.454Z</time></trkpt><trkpt lat="42.1971558" lon="14.1970495"><ele>488.0</ele><time>2026-05-01T11:14:10.459Z</time></trkpt><trkpt lat="42.197067" lon="14.1970083"><ele>489.6666666666667</ele><time>2026-05-01T11:14:11.457Z</time></trkpt><trkpt lat="42.1969921" lon="14.1969583"><ele>491.33333333333337</ele><time>2026-05-01T11:14:12.447Z</time></trkpt><trkpt lat="42.1969472" lon="14.1968889"><ele>493.0</ele><time>2026-05-01T11:14:13.456Z</time></trkpt><trkpt lat="42.1969435" lon="14.1967788"><ele>493.00000000000006</ele><time>2026-05-01T11:14:14.451Z</time></trkpt><trkpt lat="42.1969392" lon="14.196673"><ele>493.0</ele><time>2026-05-01T11:14:15.456Z</time></trkpt><trkpt lat="42.1969215" lon="14.1965825"><ele>493.0</ele><time>2026-05-01T11:14:16.453Z</time></trkpt><trkpt lat="42.1968719" lon="14.1964951"><ele>493.0</ele><time>2026-05-01T11:14:17.456Z</time></trkpt><trkpt lat="42.1968099" lon="14.1964119"><ele>493.00000000000006</ele><time>2026-05-01T11:14:18.457Z</time></trkpt><trkpt lat="42.1967507" lon="14.196332"><ele>493.0</ele><time>2026-05-01T11:14:19.458Z</time></trkpt><trkpt lat="42.1966985" lon="14.1962562"><ele>493.2857142857143</ele><time>2026-05-01T11:14:20.455Z</time></trkpt><trkpt lat="42.1966661" lon="14.1961665"><ele>493.57142857142856</ele><time>2026-05-01T11:14:21.455Z</time></trkpt><trkpt lat="42.1966558" lon="14.1960797"><ele>493.85714285714283</ele><time>2026-05-01T11:14:22.443Z</time></trkpt><trkpt lat="42.1966173" lon="14.1959598"><ele>494.1428571428571</ele><time>2026-05-01T11:14:24.446Z</time></trkpt><trkpt lat="42.1965619" lon="14.195915"><ele>494.42857142857144</ele><time>2026-05-01T11:14:25.453Z</time></trkpt><trkpt lat="42.1965084" lon="14.1958659"><ele>494.71428571428567</ele><time>2026-05-01T11:14:26.455Z</time></trkpt><trkpt lat="42.1964585" lon="14.1958083"><ele>494.99999999999994</ele><time>2026-05-01T11:14:27.455Z</time></trkpt><trkpt lat="42.1964063" lon="14.1957411"><ele>496.0</ele><time>2026-05-01T11:14:28.458Z</time></trkpt><trkpt lat="42.1963464" lon="14.1956635"><ele>497.0</ele><time>2026-05-01T11:14:29.456Z</time></trkpt><trkpt lat="42.1962924" lon="14.1955841"><ele>498.0</ele><time>2026-05-01T11:14:30.455Z</time></trkpt><trkpt lat="42.196244" lon="14.1955198"><ele>499.0</ele><time>2026-05-01T11:14:31.453Z</time></trkpt><trkpt lat="42.196193" lon="14.1954677"><ele>500.0</ele><time>2026-05-01T11:14:32.457Z</time></trkpt><trkpt lat="42.1961104" lon="14.1953692"><ele>501.0</ele><time>2026-05-01T11:14:34.45Z</time></trkpt><trkpt lat="42.196063" lon="14.1953069"><ele>501.0</ele><time>2026-05-01T11:14:35.454Z</time></trkpt><trkpt lat="42.1959866" lon="14.1952318"><ele>501.0</ele><time>2026-05-01T11:14:36.455Z</time></trkpt><trkpt lat="42.1959121" lon="14.1951702"><ele>501.0</ele><time>2026-05-01T11:14:37.451Z</time></trkpt><trkpt lat="42.1958557" lon="14.1951175"><ele>501.0</ele><time>2026-05-01T11:14:38.454Z</time></trkpt><trkpt lat="42.1957764" lon="14.1950213"><ele>501.0</ele><time>2026-05-01T11:14:40.459Z</time></trkpt><trkpt lat="42.1956868" lon="14.1949902"><ele>502.6</ele><time>2026-05-01T11:14:42.456Z</time></trkpt><trkpt lat="42.1955712" lon="14.194889"><ele>504.20000000000005</ele><time>2026-05-01T11:14:44.457Z</time></trkpt><trkpt lat="42.1955158" lon="14.1947931"><ele>505.79999999999995</ele><time>2026-05-01T11:14:45.458Z</time></trkpt><trkpt lat="42.1954554" lon="14.1947246"><ele>507.4</ele><time>2026-05-01T11:14:46.461Z</time></trkpt><trkpt lat="42.1953658" lon="14.1946182"><ele>509.0</ele><time>2026-05-01T11:14:48.455Z</time></trkpt><trkpt lat="42.1953346" lon="14.1944696"><ele>509.49999999999994</ele><time>2026-05-01T11:14:50.464Z</time></trkpt><trkpt lat="42.195287" lon="14.194328"><ele>510.0</ele><time>2026-05-01T11:14:52.459Z</time></trkpt><trkpt lat="42.1952438" lon="14.1942613"><ele>510.5</ele><time>2026-05-01T11:14:53.464Z</time></trkpt><trkpt lat="42.1951854" lon="14.1942056"><ele>511.0</ele><time>2026-05-01T11:14:54.462Z</time></trkpt><trkpt lat="42.1950672" lon="14.1941912"><ele>511.49999999999994</ele><time>2026-05-01T11:14:56.46Z</time></trkpt><trkpt lat="42.1949929" lon="14.1942147"><ele>512.0</ele><time>2026-05-01T11:14:57.461Z</time></trkpt><trkpt lat="42.1949282" lon="14.1942242"><ele>512.8000000000001</ele><time>2026-05-01T11:14:58.455Z</time></trkpt><trkpt lat="42.1948212" lon="14.1941579"><ele>513.6</ele><time>2026-05-01T11:15:00.464Z</time></trkpt><trkpt lat="42.1947312" lon="14.1940378"><ele>514.4000000000001</ele><time>2026-05-01T11:15:02.459Z</time></trkpt><trkpt lat="42.1947153" lon="14.1939428"><ele>515.2</ele><time>2026-05-01T11:15:03.463Z</time></trkpt><trkpt lat="42.1947257" lon="14.1938478"><ele>516.0</ele><time>2026-05-01T11:15:04.455Z</time></trkpt><trkpt lat="42.1947618" lon="14.1937468"><ele>516.6666666666666</ele><time>2026-05-01T11:15:05.459Z</time></trkpt><trkpt lat="42.1948173" lon="14.1936387"><ele>517.3333333333334</ele><time>2026-05-01T11:15:06.458Z</time></trkpt><trkpt lat="42.1948624" lon="14.1935372"><ele>518.0</ele><time>2026-05-01T11:15:07.455Z</time></trkpt><trkpt lat="42.1948998" lon="14.1934514"><ele>518.6666666666667</ele><time>2026-05-01T11:15:08.459Z</time></trkpt><trkpt lat="42.1949253" lon="14.1932987"><ele>519.3333333333334</ele><time>2026-05-01T11:15:10.459Z</time></trkpt><trkpt lat="42.1949066" lon="14.1932075"><ele>520.0</ele><time>2026-05-01T11:15:11.459Z</time></trkpt><trkpt lat="42.1948713" lon="14.1930873"><ele>521.0</ele><time>2026-05-01T11:15:12.454Z</time></trkpt><trkpt lat="42.1948268" lon="14.1929564"><ele>522.0</ele><time>2026-05-01T11:15:13.464Z</time></trkpt><trkpt lat="42.1947912" lon="14.1928377"><ele>523.0</ele><time>2026-05-01T11:15:14.461Z</time></trkpt><trkpt lat="42.1947713" lon="14.1927309"><ele>524.0</ele><time>2026-05-01T11:15:15.456Z</time></trkpt><trkpt lat="42.1947555" lon="14.1926158"><ele>525.0</ele><time>2026-05-01T11:15:16.456Z</time></trkpt><trkpt lat="42.1947347" lon="14.1925285"><ele>526.0</ele><time>2026-05-01T11:15:17.455Z</time></trkpt><trkpt lat="42.1946639" lon="14.1924072"><ele>525.0</ele><time>2026-05-01T11:15:19.46Z</time></trkpt><trkpt lat="42.1946064" lon="14.192339"><ele>524.0</ele><time>2026-05-01T11:15:20.466Z</time></trkpt><trkpt lat="42.1945358" lon="14.1922717"><ele>523.0</ele><time>2026-05-01T11:15:21.465Z</time></trkpt><trkpt lat="42.1944533" lon="14.192202"><ele>522.0</ele><time>2026-05-01T11:15:22.462Z</time></trkpt><trkpt lat="42.1943697" lon="14.1921611"><ele>521.0</ele><time>2026-05-01T11:15:23.462Z</time></trkpt><trkpt lat="42.1942962" lon="14.1921435"><ele>520.0</ele><time>2026-05-01T11:15:24.46Z</time></trkpt><trkpt lat="42.1942324" lon="14.1921441"><ele>520.0</ele><time>2026-05-01T11:15:25.461Z</time></trkpt><trkpt lat="42.1941321" lon="14.192145"><ele>520.0</ele><time>2026-05-01T11:15:27.463Z</time></trkpt><trkpt lat="42.1940681" lon="14.1920339"><ele>520.0</ele><time>2026-05-01T11:15:29.469Z</time></trkpt><trkpt lat="42.1940081" lon="14.1919812"><ele>520.0</ele><time>2026-05-01T11:15:31.467Z</time></trkpt><trkpt lat="42.1938946" lon="14.1919861"><ele>520.0</ele><time>2026-05-01T11:15:33.46Z</time></trkpt><trkpt lat="42.1937823" lon="14.1920237"><ele>522.0</ele><time>2026-05-01T11:15:35.471Z</time></trkpt><trkpt lat="42.1936843" lon="14.1920337"><ele>524.0</ele><time>2026-05-01T11:15:37.467Z</time></trkpt><trkpt lat="42.1936205" lon="14.1918996"><ele>526.0</ele><time>2026-05-01T11:15:39.46Z</time></trkpt><trkpt lat="42.1935804" lon="14.191808"><ele>528.0</ele><time>2026-05-01T11:15:40.462Z</time></trkpt><trkpt lat="42.1935248" lon="14.1917076"><ele>530.0</ele><time>2026-05-01T11:15:41.459Z</time></trkpt><trkpt lat="42.1934642" lon="14.19158"><ele>529.2</ele><time>2026-05-01T11:15:42.455Z</time></trkpt><trkpt lat="42.1934028" lon="14.1914656"><ele>528.4</ele><time>2026-05-01T11:15:43.46Z</time></trkpt><trkpt lat="42.1933432" lon="14.1913726"><ele>527.6</ele><time>2026-05-01T11:15:44.456Z</time></trkpt><trkpt lat="42.1932749" lon="14.1913067"><ele>526.8</ele><time>2026-05-01T11:15:45.458Z</time></trkpt><trkpt lat="42.1931866" lon="14.1912538"><ele>526.0</ele><time>2026-05-01T11:15:46.462Z</time></trkpt><trkpt lat="42.1930983" lon="14.1912045"><ele>528.0</ele><time>2026-05-01T11:15:47.467Z</time></trkpt><trkpt lat="42.1930151" lon="14.1911644"><ele>530.0</ele><time>2026-05-01T11:15:48.463Z</time></trkpt><trkpt lat="42.192932" lon="14.191119"><ele>532.0</ele><time>2026-05-01T11:15:49.463Z</time></trkpt><trkpt lat="42.1928474" lon="14.1910793"><ele>534.0</ele><time>2026-05-01T11:15:50.464Z</time></trkpt><trkpt lat="42.1927565" lon="14.1910488"><ele>536.0</ele><time>2026-05-01T11:15:51.466Z</time></trkpt><trkpt lat="42.192657" lon="14.1910207"><ele>536.0</ele><time>2026-05-01T11:15:52.46Z</time></trkpt><trkpt lat="42.1925504" lon="14.1909849"><ele>536.0</ele><time>2026-05-01T11:15:53.467Z</time></trkpt><trkpt lat="42.1924542" lon="14.1909425"><ele>536.0</ele><time>2026-05-01T11:15:54.464Z</time></trkpt><trkpt lat="42.1923879" lon="14.1909076"><ele>536.0</ele><time>2026-05-01T11:15:55.462Z</time></trkpt><trkpt lat="42.1922749" lon="14.1908752"><ele>536.0</ele><time>2026-05-01T11:15:57.464Z</time></trkpt><trkpt lat="42.1922034" lon="14.190854"><ele>537.5</ele><time>2026-05-01T11:15:58.462Z</time></trkpt><trkpt lat="42.1921146" lon="14.190833"><ele>539.0</ele><time>2026-05-01T11:15:59.467Z</time></trkpt><trkpt lat="42.1920219" lon="14.1908164"><ele>540.5</ele><time>2026-05-01T11:16:00.466Z</time></trkpt><trkpt lat="42.1919439" lon="14.19081"><ele>542.0</ele><time>2026-05-01T11:16:01.47Z</time></trkpt><trkpt lat="42.1918735" lon="14.190813"><ele>543.5</ele><time>2026-05-01T11:16:02.465Z</time></trkpt><trkpt lat="42.191762" lon="14.1907799"><ele>545.0</ele><time>2026-05-01T11:16:04.464Z</time></trkpt><trkpt lat="42.1917085" lon="14.1907338"><ele>545.0</ele><time>2026-05-01T11:16:05.465Z</time></trkpt><trkpt lat="42.1916523" lon="14.1906826"><ele>545.0</ele><time>2026-05-01T11:16:06.465Z</time></trkpt><trkpt lat="42.191586" lon="14.1906229"><ele>545.0</ele><time>2026-05-01T11:16:07.466Z</time></trkpt><trkpt lat="42.1915205" lon="14.1905518"><ele>545.0</ele><time>2026-05-01T11:16:08.465Z</time></trkpt><trkpt lat="42.1914515" lon="14.1904688"><ele>545.0</ele><time>2026-05-01T11:16:09.466Z</time></trkpt><trkpt lat="42.1913909" lon="14.1903941"><ele>545.0</ele><time>2026-05-01T11:16:10.466Z</time></trkpt><trkpt lat="42.1913371" lon="14.1903219"><ele>546.3333333333333</ele><time>2026-05-01T11:16:11.467Z</time></trkpt><trkpt lat="42.1912862" lon="14.1902457"><ele>547.6666666666666</ele><time>2026-05-01T11:16:12.468Z</time></trkpt><trkpt lat="42.191205" lon="14.1901158"><ele>549.0</ele><time>2026-05-01T11:16:14.467Z</time></trkpt><trkpt lat="42.1911442" lon="14.1900357"><ele>550.3333333333334</ele><time>2026-05-01T11:16:16.458Z</time></trkpt><trkpt lat="42.1910819" lon="14.1900031"><ele>551.6666666666667</ele><time>2026-05-01T11:16:19.467Z</time></trkpt><trkpt lat="42.1910193" lon="14.1899545"><ele>553.0</ele><time>2026-05-01T11:16:22.464Z</time></trkpt><trkpt lat="42.1909743" lon="14.1898871"><ele>552.6666666666667</ele><time>2026-05-01T11:16:25.459Z</time></trkpt><trkpt lat="42.1909172" lon="14.1897958"><ele>552.3333333333334</ele><time>2026-05-01T11:16:27.461Z</time></trkpt><trkpt lat="42.1908509" lon="14.1897241"><ele>552.0</ele><time>2026-05-01T11:16:28.458Z</time></trkpt><trkpt lat="42.1907845" lon="14.1896296"><ele>551.6666666666666</ele><time>2026-05-01T11:16:29.464Z</time></trkpt><trkpt lat="42.1907324" lon="14.1895345"><ele>551.3333333333333</ele><time>2026-05-01T11:16:30.463Z</time></trkpt><trkpt lat="42.1906712" lon="14.1894788"><ele>551.0</ele><time>2026-05-01T11:16:31.465Z</time></trkpt><trkpt lat="42.1905953" lon="14.1894404"><ele>552.6666666666666</ele><time>2026-05-01T11:16:32.457Z</time></trkpt><trkpt lat="42.1905171" lon="14.1894063"><ele>554.3333333333333</ele><time>2026-05-01T11:16:33.458Z</time></trkpt><trkpt lat="42.1904516" lon="14.1893713"><ele>556.0</ele><time>2026-05-01T11:16:34.457Z</time></trkpt><trkpt lat="42.1904023" lon="14.1893116"><ele>557.6666666666666</ele><time>2026-05-01T11:16:35.459Z</time></trkpt><trkpt lat="42.1903669" lon="14.1892298"><ele>559.3333333333334</ele><time>2026-05-01T11:16:36.455Z</time></trkpt><trkpt lat="42.190325" lon="14.1891224"><ele>561.0</ele><time>2026-05-01T11:16:37.456Z</time></trkpt><trkpt lat="42.1902831" lon="14.1889844"><ele>561.4</ele><time>2026-05-01T11:16:38.463Z</time></trkpt><trkpt lat="42.1902273" lon="14.1888462"><ele>561.8</ele><time>2026-05-01T11:16:39.461Z</time></trkpt><trkpt lat="42.1901675" lon="14.1887123"><ele>562.1999999999999</ele><time>2026-05-01T11:16:40.459Z</time></trkpt><trkpt lat="42.1901226" lon="14.1885917"><ele>562.6</ele><time>2026-05-01T11:16:41.456Z</time></trkpt><trkpt lat="42.1900769" lon="14.188494"><ele>563.0</ele><time>2026-05-01T11:16:42.458Z</time></trkpt><trkpt lat="42.1900078" lon="14.1883798"><ele>563.8</ele><time>2026-05-01T11:16:44.464Z</time></trkpt><trkpt lat="42.1899931" lon="14.1881701"><ele>564.5999999999999</ele><time>2026-05-01T11:16:46.456Z</time></trkpt><trkpt lat="42.1899771" lon="14.1880523"><ele>565.4000000000001</ele><time>2026-05-01T11:16:47.453Z</time></trkpt><trkpt lat="42.1899397" lon="14.18793"><ele>566.2</ele><time>2026-05-01T11:16:48.454Z</time></trkpt><trkpt lat="42.1898929" lon="14.1878112"><ele>567.0</ele><time>2026-05-01T11:16:49.456Z</time></trkpt><trkpt lat="42.1898502" lon="14.1877076"><ele>568.8333333333334</ele><time>2026-05-01T11:16:50.454Z</time></trkpt><trkpt lat="42.1898018" lon="14.1876421"><ele>570.6666666666666</ele><time>2026-05-01T11:16:51.457Z</time></trkpt><trkpt lat="42.1897467" lon="14.1875973"><ele>572.5</ele><time>2026-05-01T11:16:52.458Z</time></trkpt><trkpt lat="42.1896899" lon="14.187518"><ele>574.3333333333333</ele><time>2026-05-01T11:16:53.459Z</time></trkpt><trkpt lat="42.1896399" lon="14.1873965"><ele>576.1666666666666</ele><time>2026-05-01T11:16:54.456Z</time></trkpt><trkpt lat="42.1895985" lon="14.1872681"><ele>578.0</ele><time>2026-05-01T11:16:55.458Z</time></trkpt><trkpt lat="42.1895648" lon="14.1871378"><ele>578.0</ele><time>2026-05-01T11:16:56.457Z</time></trkpt><trkpt lat="42.1895296" lon="14.1870313"><ele>578.0</ele><time>2026-05-01T11:16:57.462Z</time></trkpt><trkpt lat="42.1894929" lon="14.1869351"><ele>578.0</ele><time>2026-05-01T11:16:58.459Z</time></trkpt><trkpt lat="42.1894383" lon="14.1868212"><ele>578.0</ele><time>2026-05-01T11:17:00.46Z</time></trkpt><trkpt lat="42.1893542" lon="14.1868136"><ele>578.0</ele><time>2026-05-01T11:17:02.458Z</time></trkpt><trkpt lat="42.1892797" lon="14.1868464"><ele>578.0</ele><time>2026-05-01T11:17:04.459Z</time></trkpt><trkpt lat="42.1891652" lon="14.1868957"><ele>578.0</ele><time>2026-05-01T11:17:06.457Z</time></trkpt><trkpt lat="42.1890966" lon="14.1869111"><ele>578.0</ele><time>2026-05-01T11:17:07.463Z</time></trkpt><trkpt lat="42.1889809" lon="14.1869084"><ele>578.0</ele><time>2026-05-01T11:17:09.46Z</time></trkpt><trkpt lat="42.1888435" lon="14.1868878"><ele>578.0</ele><time>2026-05-01T11:17:11.458Z</time></trkpt><trkpt lat="42.1887735" lon="14.1868665"><ele>578.0</ele><time>2026-05-01T11:17:12.458Z</time></trkpt><trkpt lat="42.18871" lon="14.1868453"><ele>579.6</ele><time>2026-05-01T11:17:13.456Z</time></trkpt><trkpt lat="42.1886091" lon="14.1868362"><ele>581.1999999999999</ele><time>2026-05-01T11:17:15.462Z</time></trkpt><trkpt lat="42.1884817" lon="14.186873"><ele>582.8</ele><time>2026-05-01T11:17:17.46Z</time></trkpt><trkpt lat="42.1884041" lon="14.1869062"><ele>584.4</ele><time>2026-05-01T11:17:18.459Z</time></trkpt><trkpt lat="42.1883254" lon="14.1869503"><ele>586.0</ele><time>2026-05-01T11:17:19.459Z</time></trkpt><trkpt lat="42.188245" lon="14.1870078"><ele>587.3333333333334</ele><time>2026-05-01T11:17:20.459Z</time></trkpt><trkpt lat="42.1881599" lon="14.1870734"><ele>588.6666666666667</ele><time>2026-05-01T11:17:21.461Z</time></trkpt><trkpt lat="42.1880784" lon="14.187128"><ele>590.0</ele><time>2026-05-01T11:17:22.455Z</time></trkpt><trkpt lat="42.1880133" lon="14.1871831"><ele>591.3333333333334</ele><time>2026-05-01T11:17:24.46Z</time></trkpt><trkpt lat="42.188014" lon="14.1870586"><ele>592.6666666666666</ele><time>2026-05-01T11:17:28.465Z</time></trkpt><trkpt lat="42.1880014" lon="14.1869658"><ele>594.0</ele><time>2026-05-01T11:17:49.466Z</time></trkpt><trkpt lat="42.187952" lon="14.1868727"><ele>594.0</ele><time>2026-05-01T11:17:52.458Z</time></trkpt><trkpt lat="42.1879068" lon="14.1868041"><ele>594.0</ele><time>2026-05-01T11:17:53.467Z</time></trkpt><trkpt lat="42.1878499" lon="14.1867215"><ele>594.0</ele><time>2026-05-01T11:17:54.457Z</time></trkpt><trkpt lat="42.1877883" lon="14.1866484"><ele>594.0</ele><time>2026-05-01T11:17:55.461Z</time></trkpt><trkpt lat="42.1877398" lon="14.18658"><ele>594.0</ele><time>2026-05-01T11:17:56.462Z</time></trkpt><trkpt lat="42.1877053" lon="14.1864977"><ele>594.0</ele><time>2026-05-01T11:17:57.461Z</time></trkpt><trkpt lat="42.1876683" lon="14.1863664"><ele>594.3333333333334</ele><time>2026-05-01T11:17:59.463Z</time></trkpt><trkpt lat="42.1876199" lon="14.1862784"><ele>594.6666666666666</ele><time>2026-05-01T11:18:01.465Z</time></trkpt><trkpt lat="42.1875641" lon="14.1862134"><ele>595.0</ele><time>2026-05-01T11:18:03.463Z</time></trkpt><trkpt lat="42.187478" lon="14.1861137"><ele>595.3333333333333</ele><time>2026-05-01T11:18:05.462Z</time></trkpt><trkpt lat="42.1874313" lon="14.1860565"><ele>595.6666666666666</ele><time>2026-05-01T11:18:06.462Z</time></trkpt><trkpt lat="42.187385" lon="14.1859893"><ele>596.0</ele><time>2026-05-01T11:18:07.467Z</time></trkpt><trkpt lat="42.1873418" lon="14.1859268"><ele>597.8</ele><time>2026-05-01T11:18:08.463Z</time></trkpt><trkpt lat="42.1872574" lon="14.1858345"><ele>599.6</ele><time>2026-05-01T11:18:10.468Z</time></trkpt><trkpt lat="42.1871626" lon="14.185751"><ele>601.4</ele><time>2026-05-01T11:18:12.466Z</time></trkpt><trkpt lat="42.1870799" lon="14.1856182"><ele>603.2</ele><time>2026-05-01T11:18:14.463Z</time></trkpt><trkpt lat="42.1870324" lon="14.1855504"><ele>605.0</ele><time>2026-05-01T11:18:15.463Z</time></trkpt><trkpt lat="42.1869768" lon="14.1854796"><ele>605.0</ele><time>2026-05-01T11:18:16.46Z</time></trkpt><trkpt lat="42.1869137" lon="14.1854003"><ele>605.0</ele><time>2026-05-01T11:18:17.457Z</time></trkpt><trkpt lat="42.1868558" lon="14.185319"><ele>605.0</ele><time>2026-05-01T11:18:18.462Z</time></trkpt><trkpt lat="42.1868076" lon="14.1852493"><ele>605.0</ele><time>2026-05-01T11:18:19.468Z</time></trkpt><trkpt lat="42.1867598" lon="14.1851787"><ele>605.0</ele><time>2026-05-01T11:18:20.465Z</time></trkpt><trkpt lat="42.1867147" lon="14.1851035"><ele>605.0</ele><time>2026-05-01T11:18:21.462Z</time></trkpt><trkpt lat="42.186668" lon="14.1850232"><ele>605.0</ele><time>2026-05-01T11:18:22.469Z</time></trkpt><trkpt lat="42.1866145" lon="14.1849438"><ele>605.0</ele><time>2026-05-01T11:18:23.465Z</time></trkpt><trkpt lat="42.1865585" lon="14.184861"><ele>605.0</ele><time>2026-05-01T11:18:24.463Z</time></trkpt><trkpt lat="42.1865079" lon="14.1847896"><ele>605.0</ele><time>2026-05-01T11:18:25.465Z</time></trkpt><trkpt lat="42.1864659" lon="14.1847197"><ele>605.0</ele><time>2026-05-01T11:18:26.466Z</time></trkpt><trkpt lat="42.1864259" lon="14.1846507"><ele>605.0</ele><time>2026-05-01T11:18:27.464Z</time></trkpt><trkpt lat="42.1863453" lon="14.1845291"><ele>607.8</ele><time>2026-05-01T11:18:29.468Z</time></trkpt><trkpt lat="42.1862635" lon="14.1844"><ele>610.6</ele><time>2026-05-01T11:18:31.462Z</time></trkpt><trkpt lat="42.1862006" lon="14.1843077"><ele>613.4</ele><time>2026-05-01T11:18:33.458Z</time></trkpt><trkpt lat="42.1861526" lon="14.1841704"><ele>616.2</ele><time>2026-05-01T11:18:35.459Z</time></trkpt><trkpt lat="42.1861044" lon="14.1840953"><ele>619.0</ele><time>2026-05-01T11:18:36.472Z</time></trkpt><trkpt lat="42.18605" lon="14.1840336"><ele>619.2</ele><time>2026-05-01T11:18:37.469Z</time></trkpt><trkpt lat="42.185975" lon="14.1839383"><ele>619.4</ele><time>2026-05-01T11:18:39.47Z</time></trkpt><trkpt lat="42.1858923" lon="14.1838881"><ele>619.6</ele><time>2026-05-01T11:18:41.471Z</time></trkpt><trkpt lat="42.1858041" lon="14.1838897"><ele>619.8</ele><time>2026-05-01T11:18:43.464Z</time></trkpt><trkpt lat="42.185709" lon="14.1839771"><ele>620.0</ele><time>2026-05-01T11:18:45.47Z</time></trkpt><trkpt lat="42.1856495" lon="14.1840315"><ele>621.5</ele><time>2026-05-01T11:18:46.465Z</time></trkpt><trkpt lat="42.1855421" lon="14.1840505"><ele>623.0</ele><time>2026-05-01T11:18:48.458Z</time></trkpt><trkpt lat="42.1854753" lon="14.1839315"><ele>624.5</ele><time>2026-05-01T11:18:50.468Z</time></trkpt><trkpt lat="42.1853742" lon="14.1838162"><ele>626.0</ele><time>2026-05-01T11:18:52.477Z</time></trkpt><trkpt lat="42.1852879" lon="14.1837463"><ele>626.3333333333333</ele><time>2026-05-01T11:18:54.469Z</time></trkpt><trkpt lat="42.1852332" lon="14.1836377"><ele>626.6666666666666</ele><time>2026-05-01T11:18:56.465Z</time></trkpt><trkpt lat="42.1852145" lon="14.1835453"><ele>627.0</ele><time>2026-05-01T11:18:57.472Z</time></trkpt><trkpt lat="42.1851988" lon="14.183457"><ele>627.3333333333334</ele><time>2026-05-01T11:18:58.471Z</time></trkpt><trkpt lat="42.1852048" lon="14.1833579"><ele>627.6666666666667</ele><time>2026-05-01T11:18:59.469Z</time></trkpt><trkpt lat="42.1852347" lon="14.1832417"><ele>628.0</ele><time>2026-05-01T11:19:00.471Z</time></trkpt><trkpt lat="42.1852737" lon="14.1831326"><ele>628.1666666666667</ele><time>2026-05-01T11:19:01.475Z</time></trkpt><trkpt lat="42.1853036" lon="14.1830389"><ele>628.3333333333334</ele><time>2026-05-01T11:19:02.469Z</time></trkpt><trkpt lat="42.1853256" lon="14.1829322"><ele>628.5</ele><time>2026-05-01T11:19:03.471Z</time></trkpt><trkpt lat="42.185348" lon="14.1828224"><ele>628.6666666666666</ele><time>2026-05-01T11:19:04.469Z</time></trkpt><trkpt lat="42.1853681" lon="14.1827163"><ele>628.8333333333333</ele><time>2026-05-01T11:19:05.472Z</time></trkpt><trkpt lat="42.1853879" lon="14.1825937"><ele>629.0</ele><time>2026-05-01T11:19:06.468Z</time></trkpt><trkpt lat="42.1854084" lon="14.1824762"><ele>629.0</ele><time>2026-05-01T11:19:07.471Z</time></trkpt><trkpt lat="42.1854267" lon="14.1823539"><ele>629.0</ele><time>2026-05-01T11:19:08.471Z</time></trkpt><trkpt lat="42.1854435" lon="14.1822406"><ele>629.0</ele><time>2026-05-01T11:19:09.509Z</time></trkpt><trkpt lat="42.1854581" lon="14.1821355"><ele>629.0</ele><time>2026-05-01T11:19:10.491Z</time></trkpt><trkpt lat="42.1854702" lon="14.1820407"><ele>629.0</ele><time>2026-05-01T11:19:11.468Z</time></trkpt><trkpt lat="42.185463" lon="14.1819113"><ele>629.0</ele><time>2026-05-01T11:19:13.463Z</time></trkpt><trkpt lat="42.1853871" lon="14.1818453"><ele>629.4</ele><time>2026-05-01T11:19:16.464Z</time></trkpt><trkpt lat="42.1852561" lon="14.1818233"><ele>629.8</ele><time>2026-05-01T11:19:18.458Z</time></trkpt><trkpt lat="42.1851718" lon="14.181803"><ele>630.2</ele><time>2026-05-01T11:19:19.466Z</time></trkpt><trkpt lat="42.1850947" lon="14.1817842"><ele>630.6</ele><time>2026-05-01T11:19:20.46Z</time></trkpt><trkpt lat="42.1850233" lon="14.1817425"><ele>631.0</ele><time>2026-05-01T11:19:25.456Z</time></trkpt><trkpt lat="42.1850138" lon="14.1816347"><ele>632.2</ele><time>2026-05-01T11:19:27.459Z</time></trkpt><trkpt lat="42.1850299" lon="14.1814846"><ele>633.4000000000001</ele><time>2026-05-01T11:19:29.468Z</time></trkpt><trkpt lat="42.1850443" lon="14.1813223"><ele>634.6</ele><time>2026-05-01T11:19:31.473Z</time></trkpt><trkpt lat="42.1850274" lon="14.1811714"><ele>635.8000000000001</ele><time>2026-05-01T11:19:33.467Z</time></trkpt><trkpt lat="42.1850016" lon="14.1810909"><ele>637.0</ele><time>2026-05-01T11:19:34.469Z</time></trkpt><trkpt lat="42.1849633" lon="14.1810147"><ele>637.0</ele><time>2026-05-01T11:19:35.475Z</time></trkpt><trkpt lat="42.1848888" lon="14.1808964"><ele>637.0</ele><time>2026-05-01T11:19:37.474Z</time></trkpt><trkpt lat="42.184791" lon="14.1807896"><ele>637.0</ele><time>2026-05-01T11:19:39.467Z</time></trkpt><trkpt lat="42.1846903" lon="14.180719"><ele>637.0</ele><time>2026-05-01T11:19:41.472Z</time></trkpt><trkpt lat="42.1846115" lon="14.1806601"><ele>637.0</ele><time>2026-05-01T11:19:43.473Z</time></trkpt><trkpt lat="42.1844974" lon="14.1806356"><ele>637.6666666666667</ele><time>2026-05-01T11:19:45.473Z</time></trkpt><trkpt lat="42.1844022" lon="14.1806659"><ele>638.3333333333334</ele><time>2026-05-01T11:19:46.473Z</time></trkpt><trkpt lat="42.1843157" lon="14.1807125"><ele>639.0</ele><time>2026-05-01T11:19:47.471Z</time></trkpt><trkpt lat="42.1842455" lon="14.1807601"><ele>639.6666666666666</ele><time>2026-05-01T11:19:48.464Z</time></trkpt><trkpt lat="42.1841874" lon="14.1808067"><ele>640.3333333333333</ele><time>2026-05-01T11:19:49.473Z</time></trkpt><trkpt lat="42.1841327" lon="14.1808559"><ele>641.0</ele><time>2026-05-01T11:19:50.469Z</time></trkpt><trkpt lat="42.1840341" lon="14.1809333"><ele>641.6666666666666</ele><time>2026-05-01T11:19:52.467Z</time></trkpt><trkpt lat="42.1839638" lon="14.1809201"><ele>642.3333333333333</ele><time>2026-05-01T11:19:54.456Z</time></trkpt><trkpt lat="42.183922" lon="14.1808158"><ele>643.0</ele><time>2026-05-01T11:19:56.457Z</time></trkpt><trkpt lat="42.1839458" lon="14.180732"><ele>643.6666666666666</ele><time>2026-05-01T11:19:58.461Z</time></trkpt><trkpt lat="42.1839456" lon="14.1806175"><ele>644.3333333333334</ele><time>2026-05-01T11:20:01.462Z</time></trkpt><trkpt lat="42.1838608" lon="14.1806198"><ele>645.0</ele><time>2026-05-01T11:20:04.486Z</time></trkpt><trkpt lat="42.1837987" lon="14.180668"><ele>654.0</ele><time>2026-05-01T11:20:09.476Z</time></trkpt></trkseg></trk></gpx>